<?xml version="1.0" encoding="UTF-8" standalone="no" ?>
<gpx xmlns="http://www.topografix.com/GPX/1/1" xmlns:xsi="http://www.w3.org/2001/XMLSchema-instance" xsi:schemaLocation="http://www.topografix.com/GPX/1/1 http://www.topografix.com/GPX/1/1/gpx.xsd" version="1.1" creator="VisuGPX - https://www.visugpx.com">
  <metadata>
    <name>Tour du Mont Blanc 2022 - Champeix</name>
  </metadata>
  <trk>
    <name><![CDATA[Tour du Mont Blanc 2022-Champeix]]></name>
    <extensions>
      <line xmlns="http://www.topografix.com/GPX/gpx_style/0/2">
        <color>0000FF</color>
        <width>4</width>
      </line>
    </extensions>
    <trkseg>
      <trkpt lat="45.75976" lon="6.53333">
        <ele>1657</ele>
        <time>2022-07-16T03:00:00.000Z</time>
      </trkpt>
      <trkpt lat="45.75948" lon="6.53379">
        <ele>1657</ele>
        <time>2022-07-16T03:00:05.664Z</time>
      </trkpt>
      <trkpt lat="45.75945" lon="6.53407">
        <ele>1658</ele>
        <time>2022-07-16T03:00:10.278Z</time>
      </trkpt>
      <trkpt lat="45.75957" lon="6.53417">
        <ele>1658</ele>
        <time>2022-07-16T03:00:12.124Z</time>
      </trkpt>
      <trkpt lat="45.7599" lon="6.53385">
        <ele>1659</ele>
        <time>2022-07-16T03:00:19.004Z</time>
      </trkpt>
      <trkpt lat="45.76018" lon="6.53366">
        <ele>1660</ele>
        <time>2022-07-16T03:00:24.853Z</time>
      </trkpt>
      <trkpt lat="45.76034" lon="6.53358">
        <ele>1660</ele>
        <time>2022-07-16T03:00:27.107Z</time>
      </trkpt>
      <trkpt lat="45.76068" lon="6.5335">
        <ele>1660</ele>
        <time>2022-07-16T03:00:31.689Z</time>
      </trkpt>
      <trkpt lat="45.76157" lon="6.53335">
        <ele>1657</ele>
        <time>2022-07-16T03:00:39.968Z</time>
      </trkpt>
      <trkpt lat="45.76232" lon="6.53337">
        <ele>1657</ele>
        <time>2022-07-16T03:00:49.943Z</time>
      </trkpt>
      <trkpt lat="45.76266" lon="6.53343">
        <ele>1656</ele>
        <time>2022-07-16T03:00:53.252Z</time>
      </trkpt>
      <trkpt lat="45.76316" lon="6.53372">
        <ele>1658</ele>
        <time>2022-07-16T03:01:04.114Z</time>
      </trkpt>
      <trkpt lat="45.76315" lon="6.53385">
        <ele>1659</ele>
        <time>2022-07-16T03:01:07.595Z</time>
      </trkpt>
      <trkpt lat="45.76321" lon="6.53393">
        <ele>1659</ele>
        <time>2022-07-16T03:01:08.685Z</time>
      </trkpt>
      <trkpt lat="45.76327" lon="6.53395">
        <ele>1659</ele>
        <time>2022-07-16T03:01:09.504Z</time>
      </trkpt>
      <trkpt lat="45.76334" lon="6.53391">
        <ele>1659</ele>
        <time>2022-07-16T03:01:10.506Z</time>
      </trkpt>
      <trkpt lat="45.76336" lon="6.53386">
        <ele>1658</ele>
        <time>2022-07-16T03:01:10.810Z</time>
      </trkpt>
      <trkpt lat="45.76355" lon="6.53392">
        <ele>1659</ele>
        <time>2022-07-16T03:01:15.376Z</time>
      </trkpt>
      <trkpt lat="45.76377" lon="6.53391">
        <ele>1659</ele>
        <time>2022-07-16T03:01:18.303Z</time>
      </trkpt>
      <trkpt lat="45.76478" lon="6.53356">
        <ele>1652</ele>
        <time>2022-07-16T03:01:26.146Z</time>
      </trkpt>
      <trkpt lat="45.7652" lon="6.53338">
        <ele>1650</ele>
        <time>2022-07-16T03:01:29.752Z</time>
      </trkpt>
      <trkpt lat="45.76554" lon="6.53313">
        <ele>1648</ele>
        <time>2022-07-16T03:01:32.716Z</time>
      </trkpt>
      <trkpt lat="45.76601" lon="6.53273">
        <ele>1644</ele>
        <time>2022-07-16T03:01:36.841Z</time>
      </trkpt>
      <trkpt lat="45.76619" lon="6.53261">
        <ele>1643</ele>
        <time>2022-07-16T03:01:38.407Z</time>
      </trkpt>
      <trkpt lat="45.76691" lon="6.53227">
        <ele>1640</ele>
        <time>2022-07-16T03:01:45.003Z</time>
      </trkpt>
      <trkpt lat="45.76754" lon="6.53206">
        <ele>1638</ele>
        <time>2022-07-16T03:01:51.137Z</time>
      </trkpt>
      <trkpt lat="45.76836" lon="6.53183">
        <ele>1627</ele>
        <time>2022-07-16T03:01:57.443Z</time>
      </trkpt>
      <trkpt lat="45.76873" lon="6.53188">
        <ele>1624</ele>
        <time>2022-07-16T03:02:00.248Z</time>
      </trkpt>
      <trkpt lat="45.76917" lon="6.5321">
        <ele>1626</ele>
        <time>2022-07-16T03:02:10.460Z</time>
      </trkpt>
      <trkpt lat="45.76943" lon="6.53229">
        <ele>1625</ele>
        <time>2022-07-16T03:02:13.135Z</time>
      </trkpt>
      <trkpt lat="45.76989" lon="6.53276">
        <ele>1622</ele>
        <time>2022-07-16T03:02:17.488Z</time>
      </trkpt>
      <trkpt lat="45.77022" lon="6.53302">
        <ele>1616</ele>
        <time>2022-07-16T03:02:20.330Z</time>
      </trkpt>
      <trkpt lat="45.7703" lon="6.53311">
        <ele>1614</ele>
        <time>2022-07-16T03:02:21.097Z</time>
      </trkpt>
      <trkpt lat="45.77053" lon="6.53349">
        <ele>1609</ele>
        <time>2022-07-16T03:02:23.746Z</time>
      </trkpt>
      <trkpt lat="45.77093" lon="6.5344">
        <ele>1607</ele>
        <time>2022-07-16T03:02:31.192Z</time>
      </trkpt>
      <trkpt lat="45.77109" lon="6.53467">
        <ele>1607</ele>
        <time>2022-07-16T03:02:34.478Z</time>
      </trkpt>
      <trkpt lat="45.77166" lon="6.53541">
        <ele>1599</ele>
        <time>2022-07-16T03:02:40.282Z</time>
      </trkpt>
      <trkpt lat="45.77216" lon="6.53628">
        <ele>1604</ele>
        <time>2022-07-16T03:03:00.353Z</time>
      </trkpt>
      <trkpt lat="45.77232" lon="6.53643">
        <ele>1604</ele>
        <time>2022-07-16T03:03:02.895Z</time>
      </trkpt>
      <trkpt lat="45.77247" lon="6.53647">
        <ele>1604</ele>
        <time>2022-07-16T03:03:04.924Z</time>
      </trkpt>
      <trkpt lat="45.7727" lon="6.5364">
        <ele>1607</ele>
        <time>2022-07-16T03:03:16.046Z</time>
      </trkpt>
      <trkpt lat="45.77315" lon="6.53634">
        <ele>1613</ele>
        <time>2022-07-16T03:03:39.005Z</time>
      </trkpt>
      <trkpt lat="45.77327" lon="6.53629">
        <ele>1614</ele>
        <time>2022-07-16T03:03:42.622Z</time>
      </trkpt>
      <trkpt lat="45.77359" lon="6.53604">
        <ele>1615</ele>
        <time>2022-07-16T03:03:49.096Z</time>
      </trkpt>
      <trkpt lat="45.77383" lon="6.53572">
        <ele>1611</ele>
        <time>2022-07-16T03:03:51.569Z</time>
      </trkpt>
      <trkpt lat="45.77399" lon="6.53558">
        <ele>1609</ele>
        <time>2022-07-16T03:03:52.984Z</time>
      </trkpt>
      <trkpt lat="45.77407" lon="6.53554">
        <ele>1609</ele>
        <time>2022-07-16T03:03:54.111Z</time>
      </trkpt>
      <trkpt lat="45.77487" lon="6.53552">
        <ele>1606</ele>
        <time>2022-07-16T03:04:01.214Z</time>
      </trkpt>
      <trkpt lat="45.77512" lon="6.53556">
        <ele>1605</ele>
        <time>2022-07-16T03:04:03.399Z</time>
      </trkpt>
      <trkpt lat="45.77542" lon="6.53567">
        <ele>1603</ele>
        <time>2022-07-16T03:04:05.574Z</time>
      </trkpt>
      <trkpt lat="45.77572" lon="6.53584">
        <ele>1602</ele>
        <time>2022-07-16T03:04:08.631Z</time>
      </trkpt>
      <trkpt lat="45.77603" lon="6.53609">
        <ele>1604</ele>
        <time>2022-07-16T03:04:17.254Z</time>
      </trkpt>
      <trkpt lat="45.77632" lon="6.53639">
        <ele>1606</ele>
        <time>2022-07-16T03:04:25.905Z</time>
      </trkpt>
      <trkpt lat="45.77658" lon="6.53654">
        <ele>1604</ele>
        <time>2022-07-16T03:04:28.020Z</time>
      </trkpt>
      <trkpt lat="45.77676" lon="6.53661">
        <ele>1601</ele>
        <time>2022-07-16T03:04:29.428Z</time>
      </trkpt>
      <trkpt lat="45.77744" lon="6.53678">
        <ele>1591</ele>
        <time>2022-07-16T03:04:34.638Z</time>
      </trkpt>
      <trkpt lat="45.77798" lon="6.537">
        <ele>1583</ele>
        <time>2022-07-16T03:04:38.875Z</time>
      </trkpt>
      <trkpt lat="45.77881" lon="6.5376">
        <ele>1571</ele>
        <time>2022-07-16T03:04:45.890Z</time>
      </trkpt>
      <trkpt lat="45.77908" lon="6.53784">
        <ele>1566</ele>
        <time>2022-07-16T03:04:48.288Z</time>
      </trkpt>
      <trkpt lat="45.77931" lon="6.53819">
        <ele>1564</ele>
        <time>2022-07-16T03:04:50.738Z</time>
      </trkpt>
      <trkpt lat="45.77969" lon="6.53898">
        <ele>1556</ele>
        <time>2022-07-16T03:04:55.789Z</time>
      </trkpt>
      <trkpt lat="45.78023" lon="6.54043">
        <ele>1543</ele>
        <time>2022-07-16T03:05:04.442Z</time>
      </trkpt>
      <trkpt lat="45.7805" lon="6.54133">
        <ele>1540</ele>
        <time>2022-07-16T03:05:10.151Z</time>
      </trkpt>
      <trkpt lat="45.78061" lon="6.54179">
        <ele>1536</ele>
        <time>2022-07-16T03:05:12.711Z</time>
      </trkpt>
      <trkpt lat="45.78065" lon="6.54216">
        <ele>1535</ele>
        <time>2022-07-16T03:05:15.011Z</time>
      </trkpt>
      <trkpt lat="45.78062" lon="6.54245">
        <ele>1536</ele>
        <time>2022-07-16T03:05:19.732Z</time>
      </trkpt>
      <trkpt lat="45.7805" lon="6.54287">
        <ele>1542</ele>
        <time>2022-07-16T03:05:35.968Z</time>
      </trkpt>
      <trkpt lat="45.7805" lon="6.54322">
        <ele>1541</ele>
        <time>2022-07-16T03:05:38.064Z</time>
      </trkpt>
      <trkpt lat="45.78053" lon="6.54332">
        <ele>1540</ele>
        <time>2022-07-16T03:05:38.637Z</time>
      </trkpt>
      <trkpt lat="45.78058" lon="6.5434">
        <ele>1539</ele>
        <time>2022-07-16T03:05:39.203Z</time>
      </trkpt>
      <trkpt lat="45.78066" lon="6.54346">
        <ele>1536</ele>
        <time>2022-07-16T03:05:39.884Z</time>
      </trkpt>
      <trkpt lat="45.78098" lon="6.54361">
        <ele>1528</ele>
        <time>2022-07-16T03:05:42.425Z</time>
      </trkpt>
      <trkpt lat="45.78123" lon="6.54377">
        <ele>1525</ele>
        <time>2022-07-16T03:05:44.492Z</time>
      </trkpt>
      <trkpt lat="45.78137" lon="6.54389">
        <ele>1523</ele>
        <time>2022-07-16T03:05:45.723Z</time>
      </trkpt>
      <trkpt lat="45.7816" lon="6.54425">
        <ele>1520</ele>
        <time>2022-07-16T03:05:48.293Z</time>
      </trkpt>
      <trkpt lat="45.78171" lon="6.54455">
        <ele>1519</ele>
        <time>2022-07-16T03:05:50.297Z</time>
      </trkpt>
      <trkpt lat="45.78181" lon="6.54654">
        <ele>1510</ele>
        <time>2022-07-16T03:06:00.065Z</time>
      </trkpt>
      <trkpt lat="45.78175" lon="6.54711">
        <ele>1506</ele>
        <time>2022-07-16T03:06:03.099Z</time>
      </trkpt>
      <trkpt lat="45.78164" lon="6.54754">
        <ele>1506</ele>
        <time>2022-07-16T03:06:07.347Z</time>
      </trkpt>
      <trkpt lat="45.78147" lon="6.54801">
        <ele>1505</ele>
        <time>2022-07-16T03:06:10.994Z</time>
      </trkpt>
      <trkpt lat="45.7813" lon="6.5483">
        <ele>1505</ele>
        <time>2022-07-16T03:06:14.507Z</time>
      </trkpt>
      <trkpt lat="45.7806" lon="6.54929">
        <ele>1488</ele>
        <time>2022-07-16T03:06:21.928Z</time>
      </trkpt>
      <trkpt lat="45.78048" lon="6.54945">
        <ele>1488</ele>
        <time>2022-07-16T03:06:24.107Z</time>
      </trkpt>
      <trkpt lat="45.78027" lon="6.54965">
        <ele>1492</ele>
        <time>2022-07-16T03:06:37.039Z</time>
      </trkpt>
      <trkpt lat="45.78016" lon="6.54988">
        <ele>1493</ele>
        <time>2022-07-16T03:06:41.604Z</time>
      </trkpt>
      <trkpt lat="45.7801" lon="6.55013">
        <ele>1494</ele>
        <time>2022-07-16T03:06:46.014Z</time>
      </trkpt>
      <trkpt lat="45.78009" lon="6.55033">
        <ele>1495</ele>
        <time>2022-07-16T03:06:49.799Z</time>
      </trkpt>
      <trkpt lat="45.78012" lon="6.55052">
        <ele>1494</ele>
        <time>2022-07-16T03:06:50.825Z</time>
      </trkpt>
      <trkpt lat="45.78024" lon="6.55086">
        <ele>1490</ele>
        <time>2022-07-16T03:06:52.831Z</time>
      </trkpt>
      <trkpt lat="45.78028" lon="6.5511">
        <ele>1487</ele>
        <time>2022-07-16T03:06:54.129Z</time>
      </trkpt>
      <trkpt lat="45.78018" lon="6.55168">
        <ele>1487</ele>
        <time>2022-07-16T03:06:59.671Z</time>
      </trkpt>
      <trkpt lat="45.77987" lon="6.55294">
        <ele>1486</ele>
        <time>2022-07-16T03:07:10.856Z</time>
      </trkpt>
      <trkpt lat="45.77986" lon="6.55319">
        <ele>1482</ele>
        <time>2022-07-16T03:07:12.174Z</time>
      </trkpt>
      <trkpt lat="45.77992" lon="6.55371">
        <ele>1475</ele>
        <time>2022-07-16T03:07:14.948Z</time>
      </trkpt>
      <trkpt lat="45.77992" lon="6.55391">
        <ele>1474</ele>
        <time>2022-07-16T03:07:16.001Z</time>
      </trkpt>
      <trkpt lat="45.77972" lon="6.55545">
        <ele>1460</ele>
        <time>2022-07-16T03:07:24.246Z</time>
      </trkpt>
      <trkpt lat="45.77963" lon="6.55574">
        <ele>1456</ele>
        <time>2022-07-16T03:07:25.917Z</time>
      </trkpt>
      <trkpt lat="45.77866" lon="6.55768">
        <ele>1453</ele>
        <time>2022-07-16T03:07:44.151Z</time>
      </trkpt>
      <trkpt lat="45.77841" lon="6.55873">
        <ele>1442</ele>
        <time>2022-07-16T03:07:49.992Z</time>
      </trkpt>
      <trkpt lat="45.77821" lon="6.55914">
        <ele>1439</ele>
        <time>2022-07-16T03:07:52.625Z</time>
      </trkpt>
      <trkpt lat="45.77818" lon="6.55929">
        <ele>1439</ele>
        <time>2022-07-16T03:07:54.073Z</time>
      </trkpt>
      <trkpt lat="45.77819" lon="6.55943">
        <ele>1438</ele>
        <time>2022-07-16T03:07:54.814Z</time>
      </trkpt>
      <trkpt lat="45.77823" lon="6.55956">
        <ele>1437</ele>
        <time>2022-07-16T03:07:55.561Z</time>
      </trkpt>
      <trkpt lat="45.77835" lon="6.55975">
        <ele>1435</ele>
        <time>2022-07-16T03:07:56.911Z</time>
      </trkpt>
      <trkpt lat="45.77852" lon="6.55989">
        <ele>1438</ele>
        <time>2022-07-16T03:08:06.967Z</time>
      </trkpt>
      <trkpt lat="45.77862" lon="6.55994">
        <ele>1440</ele>
        <time>2022-07-16T03:08:12.399Z</time>
      </trkpt>
      <trkpt lat="45.7788" lon="6.55996">
        <ele>1442</ele>
        <time>2022-07-16T03:08:19.376Z</time>
      </trkpt>
      <trkpt lat="45.7794" lon="6.55969">
        <ele>1445</ele>
        <time>2022-07-16T03:08:33.782Z</time>
      </trkpt>
      <trkpt lat="45.77956" lon="6.55956">
        <ele>1445</ele>
        <time>2022-07-16T03:08:36.228Z</time>
      </trkpt>
      <trkpt lat="45.77973" lon="6.55938">
        <ele>1443</ele>
        <time>2022-07-16T03:08:37.823Z</time>
      </trkpt>
      <trkpt lat="45.78008" lon="6.55892">
        <ele>1440</ele>
        <time>2022-07-16T03:08:41.195Z</time>
      </trkpt>
      <trkpt lat="45.78028" lon="6.55853">
        <ele>1439</ele>
        <time>2022-07-16T03:08:44.440Z</time>
      </trkpt>
      <trkpt lat="45.78051" lon="6.55818">
        <ele>1439</ele>
        <time>2022-07-16T03:08:48.901Z</time>
      </trkpt>
      <trkpt lat="45.78073" lon="6.55798">
        <ele>1440</ele>
        <time>2022-07-16T03:08:54.243Z</time>
      </trkpt>
      <trkpt lat="45.78118" lon="6.5577">
        <ele>1447</ele>
        <time>2022-07-16T03:09:19.406Z</time>
      </trkpt>
      <trkpt lat="45.78126" lon="6.5576">
        <ele>1448</ele>
        <time>2022-07-16T03:09:22.881Z</time>
      </trkpt>
      <trkpt lat="45.78154" lon="6.55683">
        <ele>1444</ele>
        <time>2022-07-16T03:09:27.088Z</time>
      </trkpt>
      <trkpt lat="45.78198" lon="6.55605">
        <ele>1451</ele>
        <time>2022-07-16T03:09:51.296Z</time>
      </trkpt>
      <trkpt lat="45.7824" lon="6.55485">
        <ele>1452</ele>
        <time>2022-07-16T03:10:05.098Z</time>
      </trkpt>
      <trkpt lat="45.78264" lon="6.55431">
        <ele>1453</ele>
        <time>2022-07-16T03:10:12.569Z</time>
      </trkpt>
      <trkpt lat="45.78319" lon="6.55347">
        <ele>1458</ele>
        <time>2022-07-16T03:10:32.881Z</time>
      </trkpt>
      <trkpt lat="45.78361" lon="6.55271">
        <ele>1458</ele>
        <time>2022-07-16T03:10:41.874Z</time>
      </trkpt>
      <trkpt lat="45.78407" lon="6.55198">
        <ele>1454</ele>
        <time>2022-07-16T03:10:46.939Z</time>
      </trkpt>
      <trkpt lat="45.78476" lon="6.55111">
        <ele>1457</ele>
        <time>2022-07-16T03:11:04.372Z</time>
      </trkpt>
      <trkpt lat="45.78494" lon="6.55094">
        <ele>1462</ele>
        <time>2022-07-16T03:11:15.428Z</time>
      </trkpt>
      <trkpt lat="45.78516" lon="6.55066">
        <ele>1465</ele>
        <time>2022-07-16T03:11:25.801Z</time>
      </trkpt>
      <trkpt lat="45.78553" lon="6.54978">
        <ele>1466</ele>
        <time>2022-07-16T03:11:36.728Z</time>
      </trkpt>
      <trkpt lat="45.7859" lon="6.54867">
        <ele>1461</ele>
        <time>2022-07-16T03:11:43.062Z</time>
      </trkpt>
      <trkpt lat="45.78605" lon="6.54843">
        <ele>1461</ele>
        <time>2022-07-16T03:11:46.051Z</time>
      </trkpt>
      <trkpt lat="45.78649" lon="6.54759">
        <ele>1459</ele>
        <time>2022-07-16T03:11:53.271Z</time>
      </trkpt>
      <trkpt lat="45.78672" lon="6.54724">
        <ele>1461</ele>
        <time>2022-07-16T03:12:01.595Z</time>
      </trkpt>
      <trkpt lat="45.787" lon="6.54708">
        <ele>1462</ele>
        <time>2022-07-16T03:12:07.353Z</time>
      </trkpt>
      <trkpt lat="45.78736" lon="6.54697">
        <ele>1466</ele>
        <time>2022-07-16T03:12:21.257Z</time>
      </trkpt>
      <trkpt lat="45.78861" lon="6.54694">
        <ele>1466</ele>
        <time>2022-07-16T03:12:37.883Z</time>
      </trkpt>
      <trkpt lat="45.78886" lon="6.54687">
        <ele>1465</ele>
        <time>2022-07-16T03:12:40.106Z</time>
      </trkpt>
      <trkpt lat="45.78912" lon="6.54673">
        <ele>1463</ele>
        <time>2022-07-16T03:12:42.202Z</time>
      </trkpt>
      <trkpt lat="45.78922" lon="6.54666">
        <ele>1463</ele>
        <time>2022-07-16T03:12:43.682Z</time>
      </trkpt>
      <trkpt lat="45.78932" lon="6.54652">
        <ele>1463</ele>
        <time>2022-07-16T03:12:45.541Z</time>
      </trkpt>
      <trkpt lat="45.78984" lon="6.54548">
        <ele>1456</ele>
        <time>2022-07-16T03:12:52.276Z</time>
      </trkpt>
      <trkpt lat="45.7901" lon="6.54517">
        <ele>1454</ele>
        <time>2022-07-16T03:12:54.755Z</time>
      </trkpt>
      <trkpt lat="45.79037" lon="6.54491">
        <ele>1452</ele>
        <time>2022-07-16T03:12:57.095Z</time>
      </trkpt>
      <trkpt lat="45.79049" lon="6.54484">
        <ele>1451</ele>
        <time>2022-07-16T03:12:58.073Z</time>
      </trkpt>
      <trkpt lat="45.7912" lon="6.54461">
        <ele>1449</ele>
        <time>2022-07-16T03:13:05.232Z</time>
      </trkpt>
      <trkpt lat="45.7917" lon="6.54439">
        <ele>1445</ele>
        <time>2022-07-16T03:13:09.180Z</time>
      </trkpt>
      <trkpt lat="45.79214" lon="6.54406">
        <ele>1439</ele>
        <time>2022-07-16T03:13:12.927Z</time>
      </trkpt>
      <trkpt lat="45.79229" lon="6.54392">
        <ele>1436</ele>
        <time>2022-07-16T03:13:14.278Z</time>
      </trkpt>
      <trkpt lat="45.79268" lon="6.54345">
        <ele>1429</ele>
        <time>2022-07-16T03:13:18.123Z</time>
      </trkpt>
      <trkpt lat="45.79288" lon="6.54329">
        <ele>1427</ele>
        <time>2022-07-16T03:13:19.851Z</time>
      </trkpt>
      <trkpt lat="45.79342" lon="6.54306">
        <ele>1429</ele>
        <time>2022-07-16T03:13:30.953Z</time>
      </trkpt>
      <trkpt lat="45.79374" lon="6.54271">
        <ele>1426</ele>
        <time>2022-07-16T03:13:33.991Z</time>
      </trkpt>
      <trkpt lat="45.79385" lon="6.54262">
        <ele>1425</ele>
        <time>2022-07-16T03:13:34.946Z</time>
      </trkpt>
      <trkpt lat="45.79396" lon="6.5426">
        <ele>1425</ele>
        <time>2022-07-16T03:13:36.421Z</time>
      </trkpt>
      <trkpt lat="45.79421" lon="6.54247">
        <ele>1423</ele>
        <time>2022-07-16T03:13:38.428Z</time>
      </trkpt>
      <trkpt lat="45.7945" lon="6.54218">
        <ele>1416</ele>
        <time>2022-07-16T03:13:41.096Z</time>
      </trkpt>
      <trkpt lat="45.79463" lon="6.54208">
        <ele>1413</ele>
        <time>2022-07-16T03:13:42.210Z</time>
      </trkpt>
      <trkpt lat="45.79529" lon="6.5417">
        <ele>1406</ele>
        <time>2022-07-16T03:13:47.577Z</time>
      </trkpt>
      <trkpt lat="45.79544" lon="6.54154">
        <ele>1404</ele>
        <time>2022-07-16T03:13:48.988Z</time>
      </trkpt>
      <trkpt lat="45.79577" lon="6.54109">
        <ele>1402</ele>
        <time>2022-07-16T03:13:52.793Z</time>
      </trkpt>
      <trkpt lat="45.79601" lon="6.54092">
        <ele>1400</ele>
        <time>2022-07-16T03:13:54.813Z</time>
      </trkpt>
      <trkpt lat="45.79631" lon="6.54087">
        <ele>1400</ele>
        <time>2022-07-16T03:13:58.829Z</time>
      </trkpt>
      <trkpt lat="45.79671" lon="6.54094">
        <ele>1398</ele>
        <time>2022-07-16T03:14:02.029Z</time>
      </trkpt>
      <trkpt lat="45.79693" lon="6.54108">
        <ele>1395</ele>
        <time>2022-07-16T03:14:03.845Z</time>
      </trkpt>
      <trkpt lat="45.79743" lon="6.54149">
        <ele>1388</ele>
        <time>2022-07-16T03:14:08.192Z</time>
      </trkpt>
      <trkpt lat="45.79757" lon="6.5417">
        <ele>1386</ele>
        <time>2022-07-16T03:14:09.721Z</time>
      </trkpt>
      <trkpt lat="45.79783" lon="6.54237">
        <ele>1381</ele>
        <time>2022-07-16T03:14:13.756Z</time>
      </trkpt>
      <trkpt lat="45.79834" lon="6.54286">
        <ele>1374</ele>
        <time>2022-07-16T03:14:18.389Z</time>
      </trkpt>
      <trkpt lat="45.79991" lon="6.54469">
        <ele>1354</ele>
        <time>2022-07-16T03:14:33.658Z</time>
      </trkpt>
      <trkpt lat="45.80066" lon="6.54576">
        <ele>1346</ele>
        <time>2022-07-16T03:14:41.642Z</time>
      </trkpt>
      <trkpt lat="45.80098" lon="6.54641">
        <ele>1343</ele>
        <time>2022-07-16T03:14:45.882Z</time>
      </trkpt>
      <trkpt lat="45.80118" lon="6.5467">
        <ele>1341</ele>
        <time>2022-07-16T03:14:48.028Z</time>
      </trkpt>
      <trkpt lat="45.8019" lon="6.54742">
        <ele>1332</ele>
        <time>2022-07-16T03:14:54.653Z</time>
      </trkpt>
      <trkpt lat="45.80225" lon="6.5479">
        <ele>1328</ele>
        <time>2022-07-16T03:14:58.308Z</time>
      </trkpt>
      <trkpt lat="45.80257" lon="6.54823">
        <ele>1324</ele>
        <time>2022-07-16T03:15:01.282Z</time>
      </trkpt>
      <trkpt lat="45.803" lon="6.54862">
        <ele>1321</ele>
        <time>2022-07-16T03:15:05.018Z</time>
      </trkpt>
      <trkpt lat="45.80354" lon="6.54926">
        <ele>1317</ele>
        <time>2022-07-16T03:15:10.239Z</time>
      </trkpt>
      <trkpt lat="45.80364" lon="6.54945">
        <ele>1316</ele>
        <time>2022-07-16T03:15:11.446Z</time>
      </trkpt>
      <trkpt lat="45.80374" lon="6.54973">
        <ele>1316</ele>
        <time>2022-07-16T03:15:14.362Z</time>
      </trkpt>
      <trkpt lat="45.8038" lon="6.54999">
        <ele>1316</ele>
        <time>2022-07-16T03:15:16.901Z</time>
      </trkpt>
      <trkpt lat="45.80382" lon="6.55024">
        <ele>1317</ele>
        <time>2022-07-16T03:15:21.177Z</time>
      </trkpt>
      <trkpt lat="45.80389" lon="6.55037">
        <ele>1317</ele>
        <time>2022-07-16T03:15:22.700Z</time>
      </trkpt>
      <trkpt lat="45.80397" lon="6.55044">
        <ele>1316</ele>
        <time>2022-07-16T03:15:23.407Z</time>
      </trkpt>
      <trkpt lat="45.80406" lon="6.55046">
        <ele>1314</ele>
        <time>2022-07-16T03:15:24.094Z</time>
      </trkpt>
      <trkpt lat="45.80417" lon="6.55046">
        <ele>1313</ele>
        <time>2022-07-16T03:15:24.924Z</time>
      </trkpt>
      <trkpt lat="45.80428" lon="6.55039">
        <ele>1313</ele>
        <time>2022-07-16T03:15:26.525Z</time>
      </trkpt>
      <trkpt lat="45.80437" lon="6.55024">
        <ele>1314</ele>
        <time>2022-07-16T03:15:30.287Z</time>
      </trkpt>
      <trkpt lat="45.80441" lon="6.5501">
        <ele>1314</ele>
        <time>2022-07-16T03:15:31.690Z</time>
      </trkpt>
      <trkpt lat="45.80436" lon="6.54953">
        <ele>1311</ele>
        <time>2022-07-16T03:15:34.713Z</time>
      </trkpt>
      <trkpt lat="45.80437" lon="6.54921">
        <ele>1310</ele>
        <time>2022-07-16T03:15:36.564Z</time>
      </trkpt>
      <trkpt lat="45.80444" lon="6.54901">
        <ele>1309</ele>
        <time>2022-07-16T03:15:37.664Z</time>
      </trkpt>
      <trkpt lat="45.80469" lon="6.54852">
        <ele>1307</ele>
        <time>2022-07-16T03:15:41.096Z</time>
      </trkpt>
      <trkpt lat="45.80473" lon="6.54828">
        <ele>1305</ele>
        <time>2022-07-16T03:15:42.394Z</time>
      </trkpt>
      <trkpt lat="45.80476" lon="6.54784">
        <ele>1301</ele>
        <time>2022-07-16T03:15:44.720Z</time>
      </trkpt>
      <trkpt lat="45.80488" lon="6.54762">
        <ele>1299</ele>
        <time>2022-07-16T03:15:46.190Z</time>
      </trkpt>
      <trkpt lat="45.80517" lon="6.54742">
        <ele>1300</ele>
        <time>2022-07-16T03:15:52.172Z</time>
      </trkpt>
      <trkpt lat="45.80532" lon="6.54725">
        <ele>1301</ele>
        <time>2022-07-16T03:15:56.685Z</time>
      </trkpt>
      <trkpt lat="45.80537" lon="6.54706">
        <ele>1302</ele>
        <time>2022-07-16T03:16:00.492Z</time>
      </trkpt>
      <trkpt lat="45.8054" lon="6.54681">
        <ele>1302</ele>
        <time>2022-07-16T03:16:02.844Z</time>
      </trkpt>
      <trkpt lat="45.80538" lon="6.54619">
        <ele>1305</ele>
        <time>2022-07-16T03:16:14.364Z</time>
      </trkpt>
      <trkpt lat="45.80534" lon="6.54599">
        <ele>1305</ele>
        <time>2022-07-16T03:16:16.293Z</time>
      </trkpt>
      <trkpt lat="45.80516" lon="6.54557">
        <ele>1302</ele>
        <time>2022-07-16T03:16:18.887Z</time>
      </trkpt>
      <trkpt lat="45.8051" lon="6.54532">
        <ele>1300</ele>
        <time>2022-07-16T03:16:20.278Z</time>
      </trkpt>
      <trkpt lat="45.80489" lon="6.54332">
        <ele>1304</ele>
        <time>2022-07-16T03:16:45.612Z</time>
      </trkpt>
      <trkpt lat="45.80455" lon="6.54179">
        <ele>1301</ele>
        <time>2022-07-16T03:16:56.704Z</time>
      </trkpt>
      <trkpt lat="45.80442" lon="6.54109">
        <ele>1297</ele>
        <time>2022-07-16T03:17:00.515Z</time>
      </trkpt>
      <trkpt lat="45.80438" lon="6.54071">
        <ele>1294</ele>
        <time>2022-07-16T03:17:02.537Z</time>
      </trkpt>
      <trkpt lat="45.80441" lon="6.54031">
        <ele>1291</ele>
        <time>2022-07-16T03:17:04.654Z</time>
      </trkpt>
      <trkpt lat="45.80462" lon="6.53922">
        <ele>1284</ele>
        <time>2022-07-16T03:17:10.604Z</time>
      </trkpt>
      <trkpt lat="45.80481" lon="6.53877">
        <ele>1285</ele>
        <time>2022-07-16T03:17:17.105Z</time>
      </trkpt>
      <trkpt lat="45.805" lon="6.53848">
        <ele>1289</ele>
        <time>2022-07-16T03:17:31.336Z</time>
      </trkpt>
      <trkpt lat="45.80508" lon="6.5383">
        <ele>1292</ele>
        <time>2022-07-16T03:17:38.969Z</time>
      </trkpt>
      <trkpt lat="45.8051" lon="6.53817">
        <ele>1292</ele>
        <time>2022-07-16T03:17:40.203Z</time>
      </trkpt>
      <trkpt lat="45.80502" lon="6.53767">
        <ele>1285</ele>
        <time>2022-07-16T03:17:42.903Z</time>
      </trkpt>
      <trkpt lat="45.80502" lon="6.53756">
        <ele>1284</ele>
        <time>2022-07-16T03:17:43.481Z</time>
      </trkpt>
      <trkpt lat="45.80507" lon="6.53734">
        <ele>1287</ele>
        <time>2022-07-16T03:17:51.756Z</time>
      </trkpt>
      <trkpt lat="45.80507" lon="6.53705">
        <ele>1286</ele>
        <time>2022-07-16T03:17:53.363Z</time>
      </trkpt>
      <trkpt lat="45.805" lon="6.53688">
        <ele>1282</ele>
        <time>2022-07-16T03:17:54.402Z</time>
      </trkpt>
      <trkpt lat="45.80481" lon="6.53655">
        <ele>1273</ele>
        <time>2022-07-16T03:17:56.654Z</time>
      </trkpt>
      <trkpt lat="45.80475" lon="6.53599">
        <ele>1274</ele>
        <time>2022-07-16T03:18:03.492Z</time>
      </trkpt>
      <trkpt lat="45.80464" lon="6.53566">
        <ele>1271</ele>
        <time>2022-07-16T03:18:05.417Z</time>
      </trkpt>
      <trkpt lat="45.80449" lon="6.53542">
        <ele>1267</ele>
        <time>2022-07-16T03:18:07.113Z</time>
      </trkpt>
      <trkpt lat="45.8044" lon="6.53514">
        <ele>1267</ele>
        <time>2022-07-16T03:18:09.971Z</time>
      </trkpt>
      <trkpt lat="45.80444" lon="6.53401">
        <ele>1266</ele>
        <time>2022-07-16T03:18:19.202Z</time>
      </trkpt>
      <trkpt lat="45.80466" lon="6.53236">
        <ele>1260</ele>
        <time>2022-07-16T03:18:28.372Z</time>
      </trkpt>
      <trkpt lat="45.80465" lon="6.5318">
        <ele>1255</ele>
        <time>2022-07-16T03:18:31.319Z</time>
      </trkpt>
      <trkpt lat="45.80457" lon="6.53094">
        <ele>1248</ele>
        <time>2022-07-16T03:18:35.884Z</time>
      </trkpt>
      <trkpt lat="45.80458" lon="6.53084">
        <ele>1248</ele>
        <time>2022-07-16T03:18:36.821Z</time>
      </trkpt>
      <trkpt lat="45.80465" lon="6.53068">
        <ele>1247</ele>
        <time>2022-07-16T03:18:37.815Z</time>
      </trkpt>
      <trkpt lat="45.80471" lon="6.53061">
        <ele>1247</ele>
        <time>2022-07-16T03:18:38.843Z</time>
      </trkpt>
      <trkpt lat="45.8051" lon="6.53027">
        <ele>1246</ele>
        <time>2022-07-16T03:18:43.619Z</time>
      </trkpt>
      <trkpt lat="45.80555" lon="6.52952">
        <ele>1239</ele>
        <time>2022-07-16T03:18:48.825Z</time>
      </trkpt>
      <trkpt lat="45.80578" lon="6.52897">
        <ele>1234</ele>
        <time>2022-07-16T03:18:52.199Z</time>
      </trkpt>
      <trkpt lat="45.80591" lon="6.52852">
        <ele>1230</ele>
        <time>2022-07-16T03:18:54.762Z</time>
      </trkpt>
      <trkpt lat="45.80629" lon="6.5279">
        <ele>1230</ele>
        <time>2022-07-16T03:19:02.416Z</time>
      </trkpt>
      <trkpt lat="45.8066" lon="6.52719">
        <ele>1226</ele>
        <time>2022-07-16T03:19:06.823Z</time>
      </trkpt>
      <trkpt lat="45.80708" lon="6.52554">
        <ele>1208</ele>
        <time>2022-07-16T03:19:16.230Z</time>
      </trkpt>
      <trkpt lat="45.80717" lon="6.52538">
        <ele>1207</ele>
        <time>2022-07-16T03:19:17.312Z</time>
      </trkpt>
      <trkpt lat="45.80755" lon="6.52488">
        <ele>1204</ele>
        <time>2022-07-16T03:19:21.122Z</time>
      </trkpt>
      <trkpt lat="45.8077" lon="6.52474">
        <ele>1202</ele>
        <time>2022-07-16T03:19:22.473Z</time>
      </trkpt>
      <trkpt lat="45.8081" lon="6.52444">
        <ele>1199</ele>
        <time>2022-07-16T03:19:25.598Z</time>
      </trkpt>
      <trkpt lat="45.80844" lon="6.52403">
        <ele>1193</ele>
        <time>2022-07-16T03:19:28.951Z</time>
      </trkpt>
      <trkpt lat="45.80873" lon="6.52352">
        <ele>1189</ele>
        <time>2022-07-16T03:19:32.413Z</time>
      </trkpt>
      <trkpt lat="45.80888" lon="6.52314">
        <ele>1185</ele>
        <time>2022-07-16T03:19:34.711Z</time>
      </trkpt>
      <trkpt lat="45.80898" lon="6.52278">
        <ele>1182</ele>
        <time>2022-07-16T03:19:36.750Z</time>
      </trkpt>
      <trkpt lat="45.80914" lon="6.52183">
        <ele>1175</ele>
        <time>2022-07-16T03:19:41.892Z</time>
      </trkpt>
      <trkpt lat="45.80926" lon="6.52168">
        <ele>1173</ele>
        <time>2022-07-16T03:19:43.093Z</time>
      </trkpt>
      <trkpt lat="45.80946" lon="6.52164">
        <ele>1171</ele>
        <time>2022-07-16T03:19:44.617Z</time>
      </trkpt>
      <trkpt lat="45.80953" lon="6.52156">
        <ele>1169</ele>
        <time>2022-07-16T03:19:45.292Z</time>
      </trkpt>
      <trkpt lat="45.80954" lon="6.52143">
        <ele>1167</ele>
        <time>2022-07-16T03:19:45.980Z</time>
      </trkpt>
      <trkpt lat="45.80949" lon="6.52132">
        <ele>1166</ele>
        <time>2022-07-16T03:19:46.671Z</time>
      </trkpt>
      <trkpt lat="45.8089" lon="6.52077">
        <ele>1159</ele>
        <time>2022-07-16T03:19:51.982Z</time>
      </trkpt>
      <trkpt lat="45.80874" lon="6.52067">
        <ele>1158</ele>
        <time>2022-07-16T03:19:53.281Z</time>
      </trkpt>
      <trkpt lat="45.80867" lon="6.52066">
        <ele>1157</ele>
        <time>2022-07-16T03:19:53.812Z</time>
      </trkpt>
      <trkpt lat="45.80832" lon="6.52072">
        <ele>1157</ele>
        <time>2022-07-16T03:19:58.499Z</time>
      </trkpt>
      <trkpt lat="45.80823" lon="6.52065">
        <ele>1154</ele>
        <time>2022-07-16T03:19:59.272Z</time>
      </trkpt>
      <trkpt lat="45.80821" lon="6.52051">
        <ele>1152</ele>
        <time>2022-07-16T03:20:00.024Z</time>
      </trkpt>
      <trkpt lat="45.80862" lon="6.5201">
        <ele>1149</ele>
        <time>2022-07-16T03:20:03.663Z</time>
      </trkpt>
      <trkpt lat="45.80877" lon="6.52">
        <ele>1147</ele>
        <time>2022-07-16T03:20:04.911Z</time>
      </trkpt>
      <trkpt lat="45.80891" lon="6.51994">
        <ele>1146</ele>
        <time>2022-07-16T03:20:06.014Z</time>
      </trkpt>
      <trkpt lat="45.80899" lon="6.51993">
        <ele>1146</ele>
        <time>2022-07-16T03:20:07.082Z</time>
      </trkpt>
      <trkpt lat="45.80917" lon="6.51996">
        <ele>1147</ele>
        <time>2022-07-16T03:20:11.444Z</time>
      </trkpt>
      <trkpt lat="45.80939" lon="6.52005">
        <ele>1148</ele>
        <time>2022-07-16T03:20:16.518Z</time>
      </trkpt>
      <trkpt lat="45.8096" lon="6.5201">
        <ele>1149</ele>
        <time>2022-07-16T03:20:21.372Z</time>
      </trkpt>
      <trkpt lat="45.80967" lon="6.52009">
        <ele>1149</ele>
        <time>2022-07-16T03:20:22.307Z</time>
      </trkpt>
      <trkpt lat="45.80973" lon="6.52004">
        <ele>1148</ele>
        <time>2022-07-16T03:20:22.831Z</time>
      </trkpt>
      <trkpt lat="45.80978" lon="6.51993">
        <ele>1147</ele>
        <time>2022-07-16T03:20:23.522Z</time>
      </trkpt>
      <trkpt lat="45.80975" lon="6.51976">
        <ele>1146</ele>
        <time>2022-07-16T03:20:24.444Z</time>
      </trkpt>
      <trkpt lat="45.80965" lon="6.5196">
        <ele>1144</ele>
        <time>2022-07-16T03:20:25.575Z</time>
      </trkpt>
      <trkpt lat="45.80924" lon="6.51904">
        <ele>1137</ele>
        <time>2022-07-16T03:20:29.848Z</time>
      </trkpt>
      <trkpt lat="45.80856" lon="6.51804">
        <ele>1131</ele>
        <time>2022-07-16T03:20:36.849Z</time>
      </trkpt>
      <trkpt lat="45.80806" lon="6.51737">
        <ele>1126</ele>
        <time>2022-07-16T03:20:42.013Z</time>
      </trkpt>
      <trkpt lat="45.80798" lon="6.51719">
        <ele>1125</ele>
        <time>2022-07-16T03:20:43.136Z</time>
      </trkpt>
      <trkpt lat="45.80797" lon="6.51706">
        <ele>1124</ele>
        <time>2022-07-16T03:20:43.824Z</time>
      </trkpt>
      <trkpt lat="45.808" lon="6.5169">
        <ele>1123</ele>
        <time>2022-07-16T03:20:44.696Z</time>
      </trkpt>
      <trkpt lat="45.80813" lon="6.51674">
        <ele>1123</ele>
        <time>2022-07-16T03:20:46.974Z</time>
      </trkpt>
      <trkpt lat="45.80826" lon="6.51663">
        <ele>1122</ele>
        <time>2022-07-16T03:20:48.020Z</time>
      </trkpt>
      <trkpt lat="45.80927" lon="6.51586">
        <ele>1115</ele>
        <time>2022-07-16T03:20:56.270Z</time>
      </trkpt>
      <trkpt lat="45.80936" lon="6.51585">
        <ele>1115</ele>
        <time>2022-07-16T03:20:57.471Z</time>
      </trkpt>
      <trkpt lat="45.80972" lon="6.51599">
        <ele>1114</ele>
        <time>2022-07-16T03:21:01.166Z</time>
      </trkpt>
      <trkpt lat="45.80989" lon="6.516">
        <ele>1113</ele>
        <time>2022-07-16T03:21:02.417Z</time>
      </trkpt>
      <trkpt lat="45.80998" lon="6.51598">
        <ele>1112</ele>
        <time>2022-07-16T03:21:03.105Z</time>
      </trkpt>
      <trkpt lat="45.81015" lon="6.51589">
        <ele>1110</ele>
        <time>2022-07-16T03:21:04.472Z</time>
      </trkpt>
      <trkpt lat="45.81053" lon="6.51551">
        <ele>1105</ele>
        <time>2022-07-16T03:21:07.969Z</time>
      </trkpt>
      <trkpt lat="45.81069" lon="6.51544">
        <ele>1104</ele>
        <time>2022-07-16T03:21:09.189Z</time>
      </trkpt>
      <trkpt lat="45.81095" lon="6.51545">
        <ele>1102</ele>
        <time>2022-07-16T03:21:11.152Z</time>
      </trkpt>
      <trkpt lat="45.81137" lon="6.51561">
        <ele>1099</ele>
        <time>2022-07-16T03:21:14.432Z</time>
      </trkpt>
      <trkpt lat="45.81166" lon="6.51576">
        <ele>1099</ele>
        <time>2022-07-16T03:21:18.531Z</time>
      </trkpt>
      <trkpt lat="45.81282" lon="6.51659">
        <ele>1091</ele>
        <time>2022-07-16T03:21:27.843Z</time>
      </trkpt>
      <trkpt lat="45.81305" lon="6.51679">
        <ele>1089</ele>
        <time>2022-07-16T03:21:29.873Z</time>
      </trkpt>
      <trkpt lat="45.81347" lon="6.51737">
        <ele>1088</ele>
        <time>2022-07-16T03:21:36.325Z</time>
      </trkpt>
      <trkpt lat="45.81408" lon="6.51802">
        <ele>1081</ele>
        <time>2022-07-16T03:21:42.060Z</time>
      </trkpt>
      <trkpt lat="45.81417" lon="6.51815">
        <ele>1080</ele>
        <time>2022-07-16T03:21:43.024Z</time>
      </trkpt>
      <trkpt lat="45.81489" lon="6.51949">
        <ele>1085</ele>
        <time>2022-07-16T03:22:08.665Z</time>
      </trkpt>
      <trkpt lat="45.8156" lon="6.52074">
        <ele>1074</ele>
        <time>2022-07-16T03:22:17.147Z</time>
      </trkpt>
      <trkpt lat="45.81621" lon="6.52197">
        <ele>1061</ele>
        <time>2022-07-16T03:22:25.089Z</time>
      </trkpt>
      <trkpt lat="45.81644" lon="6.52269">
        <ele>1060</ele>
        <time>2022-07-16T03:22:31.128Z</time>
      </trkpt>
      <trkpt lat="45.81679" lon="6.52474">
        <ele>1053</ele>
        <time>2022-07-16T03:22:43.018Z</time>
      </trkpt>
      <trkpt lat="45.81696" lon="6.52551">
        <ele>1049</ele>
        <time>2022-07-16T03:22:47.267Z</time>
      </trkpt>
      <trkpt lat="45.81702" lon="6.52572">
        <ele>1048</ele>
        <time>2022-07-16T03:22:48.390Z</time>
      </trkpt>
      <trkpt lat="45.8173" lon="6.52635">
        <ele>1037</ele>
        <time>2022-07-16T03:22:52.321Z</time>
      </trkpt>
      <trkpt lat="45.81773" lon="6.52781">
        <ele>1027</ele>
        <time>2022-07-16T03:23:00.658Z</time>
      </trkpt>
      <trkpt lat="45.81783" lon="6.52797">
        <ele>1025</ele>
        <time>2022-07-16T03:23:01.789Z</time>
      </trkpt>
      <trkpt lat="45.8181" lon="6.52825">
        <ele>1018</ele>
        <time>2022-07-16T03:23:04.303Z</time>
      </trkpt>
      <trkpt lat="45.81821" lon="6.52833">
        <ele>1015</ele>
        <time>2022-07-16T03:23:05.234Z</time>
      </trkpt>
      <trkpt lat="45.81843" lon="6.52862">
        <ele>1009</ele>
        <time>2022-07-16T03:23:07.489Z</time>
      </trkpt>
      <trkpt lat="45.81861" lon="6.52901">
        <ele>1005</ele>
        <time>2022-07-16T03:23:09.949Z</time>
      </trkpt>
      <trkpt lat="45.81898" lon="6.52994">
        <ele>1004</ele>
        <time>2022-07-16T03:23:18.604Z</time>
      </trkpt>
      <trkpt lat="45.81908" lon="6.53009">
        <ele>1002</ele>
        <time>2022-07-16T03:23:19.695Z</time>
      </trkpt>
      <trkpt lat="45.8192" lon="6.5301">
        <ele>999</ele>
        <time>2022-07-16T03:23:20.603Z</time>
      </trkpt>
      <trkpt lat="45.81927" lon="6.53008">
        <ele>998</ele>
        <time>2022-07-16T03:23:21.141Z</time>
      </trkpt>
      <trkpt lat="45.81936" lon="6.52996">
        <ele>995</ele>
        <time>2022-07-16T03:23:22.069Z</time>
      </trkpt>
      <trkpt lat="45.81939" lon="6.52983">
        <ele>994</ele>
        <time>2022-07-16T03:23:22.789Z</time>
      </trkpt>
      <trkpt lat="45.81935" lon="6.52878">
        <ele>988</ele>
        <time>2022-07-16T03:23:28.320Z</time>
      </trkpt>
      <trkpt lat="45.81939" lon="6.52808">
        <ele>985</ele>
        <time>2022-07-16T03:23:31.849Z</time>
      </trkpt>
      <trkpt lat="45.81944" lon="6.52786">
        <ele>984</ele>
        <time>2022-07-16T03:23:33.004Z</time>
      </trkpt>
      <trkpt lat="45.81949" lon="6.52779">
        <ele>983</ele>
        <time>2022-07-16T03:23:33.532Z</time>
      </trkpt>
      <trkpt lat="45.81958" lon="6.52775">
        <ele>982</ele>
        <time>2022-07-16T03:23:34.243Z</time>
      </trkpt>
      <trkpt lat="45.81964" lon="6.52775">
        <ele>982</ele>
        <time>2022-07-16T03:23:35.041Z</time>
      </trkpt>
      <trkpt lat="45.81973" lon="6.5278">
        <ele>981</ele>
        <time>2022-07-16T03:23:35.769Z</time>
      </trkpt>
      <trkpt lat="45.82012" lon="6.52826">
        <ele>978</ele>
        <time>2022-07-16T03:23:39.463Z</time>
      </trkpt>
      <trkpt lat="45.82056" lon="6.52884">
        <ele>974</ele>
        <time>2022-07-16T03:23:43.972Z</time>
      </trkpt>
      <trkpt lat="45.82067" lon="6.52902">
        <ele>972</ele>
        <time>2022-07-16T03:23:45.231Z</time>
      </trkpt>
      <trkpt lat="45.82091" lon="6.52962">
        <ele>967</ele>
        <time>2022-07-16T03:23:48.870Z</time>
      </trkpt>
      <trkpt lat="45.82109" lon="6.53015">
        <ele>966</ele>
        <time>2022-07-16T03:23:53.053Z</time>
      </trkpt>
      <trkpt lat="45.8212" lon="6.53056">
        <ele>967</ele>
        <time>2022-07-16T03:23:58.863Z</time>
      </trkpt>
      <trkpt lat="45.8212" lon="6.53103">
        <ele>966</ele>
        <time>2022-07-16T03:24:01.982Z</time>
      </trkpt>
      <trkpt lat="45.82124" lon="6.53118">
        <ele>965</ele>
        <time>2022-07-16T03:24:02.827Z</time>
      </trkpt>
      <trkpt lat="45.82132" lon="6.53118">
        <ele>965</ele>
        <time>2022-07-16T03:24:03.891Z</time>
      </trkpt>
      <trkpt lat="45.82135" lon="6.5311">
        <ele>965</ele>
        <time>2022-07-16T03:24:04.733Z</time>
      </trkpt>
      <trkpt lat="45.82134" lon="6.53106">
        <ele>965</ele>
        <time>2022-07-16T03:24:05.127Z</time>
      </trkpt>
      <trkpt lat="45.82141" lon="6.53107">
        <ele>964</ele>
        <time>2022-07-16T03:24:05.657Z</time>
      </trkpt>
      <trkpt lat="45.82145" lon="6.53128">
        <ele>963</ele>
        <time>2022-07-16T03:24:06.713Z</time>
      </trkpt>
      <trkpt lat="45.82187" lon="6.532">
        <ele>963</ele>
        <time>2022-07-16T03:24:15.414Z</time>
      </trkpt>
      <trkpt lat="45.82208" lon="6.53255">
        <ele>963</ele>
        <time>2022-07-16T03:24:21.227Z</time>
      </trkpt>
      <trkpt lat="45.82216" lon="6.53269">
        <ele>964</ele>
        <time>2022-07-16T03:24:24.856Z</time>
      </trkpt>
      <trkpt lat="45.82231" lon="6.53286">
        <ele>965</ele>
        <time>2022-07-16T03:24:29.370Z</time>
      </trkpt>
      <trkpt lat="45.82284" lon="6.53331">
        <ele>970</ele>
        <time>2022-07-16T03:24:47.368Z</time>
      </trkpt>
      <trkpt lat="45.82316" lon="6.53374">
        <ele>974</ele>
        <time>2022-07-16T03:25:01.337Z</time>
      </trkpt>
      <trkpt lat="45.82327" lon="6.53394">
        <ele>975</ele>
        <time>2022-07-16T03:25:05.644Z</time>
      </trkpt>
      <trkpt lat="45.82342" lon="6.53449">
        <ele>974</ele>
        <time>2022-07-16T03:25:09.836Z</time>
      </trkpt>
      <trkpt lat="45.82352" lon="6.53473">
        <ele>975</ele>
        <time>2022-07-16T03:25:14.407Z</time>
      </trkpt>
      <trkpt lat="45.82368" lon="6.53496">
        <ele>978</ele>
        <time>2022-07-16T03:25:25.864Z</time>
      </trkpt>
      <trkpt lat="45.82412" lon="6.53542">
        <ele>984</ele>
        <time>2022-07-16T03:25:46.772Z</time>
      </trkpt>
      <trkpt lat="45.82465" lon="6.53632">
        <ele>990</ele>
        <time>2022-07-16T03:26:09.266Z</time>
      </trkpt>
      <trkpt lat="45.82471" lon="6.53655">
        <ele>991</ele>
        <time>2022-07-16T03:26:13.478Z</time>
      </trkpt>
      <trkpt lat="45.82469" lon="6.53688">
        <ele>991</ele>
        <time>2022-07-16T03:26:16.548Z</time>
      </trkpt>
      <trkpt lat="45.82464" lon="6.53709">
        <ele>989</ele>
        <time>2022-07-16T03:26:17.715Z</time>
      </trkpt>
      <trkpt lat="45.82462" lon="6.53758">
        <ele>989</ele>
        <time>2022-07-16T03:26:22.264Z</time>
      </trkpt>
      <trkpt lat="45.82463" lon="6.53774">
        <ele>989</ele>
        <time>2022-07-16T03:26:23.753Z</time>
      </trkpt>
      <trkpt lat="45.82478" lon="6.53845">
        <ele>993</ele>
        <time>2022-07-16T03:26:38.402Z</time>
      </trkpt>
      <trkpt lat="45.82499" lon="6.5389">
        <ele>996</ele>
        <time>2022-07-16T03:26:49.280Z</time>
      </trkpt>
      <trkpt lat="45.82551" lon="6.53972">
        <ele>1002</ele>
        <time>2022-07-16T03:27:11.222Z</time>
      </trkpt>
      <trkpt lat="45.82582" lon="6.54011">
        <ele>1005</ele>
        <time>2022-07-16T03:27:22.489Z</time>
      </trkpt>
      <trkpt lat="45.82631" lon="6.54057">
        <ele>1011</ele>
        <time>2022-07-16T03:27:43.239Z</time>
      </trkpt>
      <trkpt lat="45.82649" lon="6.54089">
        <ele>1012</ele>
        <time>2022-07-16T03:27:48.840Z</time>
      </trkpt>
      <trkpt lat="45.82705" lon="6.54234">
        <ele>1017</ele>
        <time>2022-07-16T03:28:14.294Z</time>
      </trkpt>
      <trkpt lat="45.82726" lon="6.54305">
        <ele>1017</ele>
        <time>2022-07-16T03:28:21.442Z</time>
      </trkpt>
      <trkpt lat="45.8273" lon="6.54329">
        <ele>1016</ele>
        <time>2022-07-16T03:28:22.713Z</time>
      </trkpt>
      <trkpt lat="45.82731" lon="6.5436">
        <ele>1016</ele>
        <time>2022-07-16T03:28:25.589Z</time>
      </trkpt>
      <trkpt lat="45.82728" lon="6.544">
        <ele>1015</ele>
        <time>2022-07-16T03:28:28.122Z</time>
      </trkpt>
      <trkpt lat="45.82724" lon="6.5442">
        <ele>1013</ele>
        <time>2022-07-16T03:28:29.217Z</time>
      </trkpt>
      <trkpt lat="45.82739" lon="6.545">
        <ele>1017</ele>
        <time>2022-07-16T03:28:44.583Z</time>
      </trkpt>
      <trkpt lat="45.82754" lon="6.54495">
        <ele>1021</ele>
        <time>2022-07-16T03:28:52.482Z</time>
      </trkpt>
      <trkpt lat="45.8279" lon="6.5453">
        <ele>1027</ele>
        <time>2022-07-16T03:29:14.786Z</time>
      </trkpt>
      <trkpt lat="45.82793" lon="6.5453">
        <ele>1028</ele>
        <time>2022-07-16T03:29:16.325Z</time>
      </trkpt>
      <trkpt lat="45.82798" lon="6.54524">
        <ele>1029</ele>
        <time>2022-07-16T03:29:19.668Z</time>
      </trkpt>
      <trkpt lat="45.82825" lon="6.54583">
        <ele>1034</ele>
        <time>2022-07-16T03:29:36.957Z</time>
      </trkpt>
      <trkpt lat="45.8284" lon="6.54599">
        <ele>1035</ele>
        <time>2022-07-16T03:29:41.406Z</time>
      </trkpt>
      <trkpt lat="45.82849" lon="6.54602">
        <ele>1037</ele>
        <time>2022-07-16T03:29:46.145Z</time>
      </trkpt>
      <trkpt lat="45.82852" lon="6.54595">
        <ele>1038</ele>
        <time>2022-07-16T03:29:49.082Z</time>
      </trkpt>
      <trkpt lat="45.82844" lon="6.54564">
        <ele>1039</ele>
        <time>2022-07-16T03:29:54.168Z</time>
      </trkpt>
      <trkpt lat="45.82844" lon="6.54548">
        <ele>1040</ele>
        <time>2022-07-16T03:29:57.672Z</time>
      </trkpt>
      <trkpt lat="45.82848" lon="6.54523">
        <ele>1042</ele>
        <time>2022-07-16T03:30:04.664Z</time>
      </trkpt>
      <trkpt lat="45.82847" lon="6.54504">
        <ele>1042</ele>
        <time>2022-07-16T03:30:06.429Z</time>
      </trkpt>
      <trkpt lat="45.82824" lon="6.54422">
        <ele>1041</ele>
        <time>2022-07-16T03:30:13.323Z</time>
      </trkpt>
      <trkpt lat="45.82819" lon="6.54411">
        <ele>1040</ele>
        <time>2022-07-16T03:30:14.014Z</time>
      </trkpt>
      <trkpt lat="45.82813" lon="6.54408">
        <ele>1039</ele>
        <time>2022-07-16T03:30:14.494Z</time>
      </trkpt>
      <trkpt lat="45.82804" lon="6.5446">
        <ele>1034</ele>
        <time>2022-07-16T03:30:17.311Z</time>
      </trkpt>
      <trkpt lat="45.82798" lon="6.54524">
        <ele>1029</ele>
        <time>2022-07-16T03:30:20.708Z</time>
      </trkpt>
      <trkpt lat="45.82795" lon="6.54529">
        <ele>1028</ele>
        <time>2022-07-16T03:30:21.055Z</time>
      </trkpt>
      <trkpt lat="45.8279" lon="6.5453">
        <ele>1027</ele>
        <time>2022-07-16T03:30:21.436Z</time>
      </trkpt>
      <trkpt lat="45.82786" lon="6.54527">
        <ele>1026</ele>
        <time>2022-07-16T03:30:21.776Z</time>
      </trkpt>
      <trkpt lat="45.82766" lon="6.54508">
        <ele>1023</ele>
        <time>2022-07-16T03:30:23.587Z</time>
      </trkpt>
      <trkpt lat="45.82758" lon="6.54497">
        <ele>1022</ele>
        <time>2022-07-16T03:30:24.423Z</time>
      </trkpt>
      <trkpt lat="45.82754" lon="6.54495">
        <ele>1021</ele>
        <time>2022-07-16T03:30:24.743Z</time>
      </trkpt>
      <trkpt lat="45.82739" lon="6.545">
        <ele>1017</ele>
        <time>2022-07-16T03:30:25.905Z</time>
      </trkpt>
      <trkpt lat="45.82753" lon="6.54545">
        <ele>1016</ele>
        <time>2022-07-16T03:30:29.224Z</time>
      </trkpt>
      <trkpt lat="45.82764" lon="6.54576">
        <ele>1016</ele>
        <time>2022-07-16T03:30:32.447Z</time>
      </trkpt>
      <trkpt lat="45.8278" lon="6.54607">
        <ele>1016</ele>
        <time>2022-07-16T03:30:36.022Z</time>
      </trkpt>
      <trkpt lat="45.82811" lon="6.54643">
        <ele>1019</ele>
        <time>2022-07-16T03:30:47.132Z</time>
      </trkpt>
      <trkpt lat="45.82831" lon="6.54675">
        <ele>1021</ele>
        <time>2022-07-16T03:30:54.957Z</time>
      </trkpt>
      <trkpt lat="45.8288" lon="6.54783">
        <ele>1022</ele>
        <time>2022-07-16T03:31:08.256Z</time>
      </trkpt>
      <trkpt lat="45.82885" lon="6.54798">
        <ele>1022</ele>
        <time>2022-07-16T03:31:09.797Z</time>
      </trkpt>
      <trkpt lat="45.82888" lon="6.54824">
        <ele>1020</ele>
        <time>2022-07-16T03:31:11.183Z</time>
      </trkpt>
      <trkpt lat="45.82886" lon="6.54896">
        <ele>1010</ele>
        <time>2022-07-16T03:31:14.972Z</time>
      </trkpt>
      <trkpt lat="45.82891" lon="6.54943">
        <ele>1008</ele>
        <time>2022-07-16T03:31:17.378Z</time>
      </trkpt>
      <trkpt lat="45.82902" lon="6.54979">
        <ele>1008</ele>
        <time>2022-07-16T03:31:21.020Z</time>
      </trkpt>
      <trkpt lat="45.82949" lon="6.55072">
        <ele>1010</ele>
        <time>2022-07-16T03:31:34.825Z</time>
      </trkpt>
      <trkpt lat="45.82968" lon="6.55099">
        <ele>1011</ele>
        <time>2022-07-16T03:31:40.234Z</time>
      </trkpt>
      <trkpt lat="45.83012" lon="6.55134">
        <ele>1011</ele>
        <time>2022-07-16T03:31:46.924Z</time>
      </trkpt>
      <trkpt lat="45.83042" lon="6.55167">
        <ele>1007</ele>
        <time>2022-07-16T03:31:49.777Z</time>
      </trkpt>
      <trkpt lat="45.83078" lon="6.55233">
        <ele>1002</ele>
        <time>2022-07-16T03:31:54.185Z</time>
      </trkpt>
      <trkpt lat="45.83087" lon="6.55244">
        <ele>1000</ele>
        <time>2022-07-16T03:31:55.077Z</time>
      </trkpt>
      <trkpt lat="45.83145" lon="6.55284">
        <ele>1003</ele>
        <time>2022-07-16T03:32:09.717Z</time>
      </trkpt>
      <trkpt lat="45.83177" lon="6.5532">
        <ele>1003</ele>
        <time>2022-07-16T03:32:15.124Z</time>
      </trkpt>
      <trkpt lat="45.83195" lon="6.5535">
        <ele>1004</ele>
        <time>2022-07-16T03:32:20.616Z</time>
      </trkpt>
      <trkpt lat="45.83211" lon="6.55402">
        <ele>1007</ele>
        <time>2022-07-16T03:32:31.695Z</time>
      </trkpt>
      <trkpt lat="45.83272" lon="6.55713">
        <ele>1003</ele>
        <time>2022-07-16T03:32:56.426Z</time>
      </trkpt>
      <trkpt lat="45.83273" lon="6.55752">
        <ele>1004</ele>
        <time>2022-07-16T03:33:01.879Z</time>
      </trkpt>
      <trkpt lat="45.83266" lon="6.55924">
        <ele>1002</ele>
        <time>2022-07-16T03:33:15.246Z</time>
      </trkpt>
      <trkpt lat="45.83267" lon="6.55938">
        <ele>1002</ele>
        <time>2022-07-16T03:33:16.550Z</time>
      </trkpt>
      <trkpt lat="45.83273" lon="6.55961">
        <ele>1003</ele>
        <time>2022-07-16T03:33:20.762Z</time>
      </trkpt>
      <trkpt lat="45.83283" lon="6.55985">
        <ele>1004</ele>
        <time>2022-07-16T03:33:25.332Z</time>
      </trkpt>
      <trkpt lat="45.83292" lon="6.56">
        <ele>1005</ele>
        <time>2022-07-16T03:33:29.094Z</time>
      </trkpt>
      <trkpt lat="45.83366" lon="6.56113">
        <ele>1011</ele>
        <time>2022-07-16T03:33:55.164Z</time>
      </trkpt>
      <trkpt lat="45.83395" lon="6.5617">
        <ele>1013</ele>
        <time>2022-07-16T03:34:05.586Z</time>
      </trkpt>
      <trkpt lat="45.83408" lon="6.5621">
        <ele>1013</ele>
        <time>2022-07-16T03:34:09.676Z</time>
      </trkpt>
      <trkpt lat="45.83457" lon="6.56388">
        <ele>1012</ele>
        <time>2022-07-16T03:34:26.393Z</time>
      </trkpt>
      <trkpt lat="45.83493" lon="6.56471">
        <ele>1012</ele>
        <time>2022-07-16T03:34:35.452Z</time>
      </trkpt>
      <trkpt lat="45.83656" lon="6.56825">
        <ele>1020</ele>
        <time>2022-07-16T03:35:27.724Z</time>
      </trkpt>
      <trkpt lat="45.83702" lon="6.5692">
        <ele>1024</ele>
        <time>2022-07-16T03:35:46.421Z</time>
      </trkpt>
      <trkpt lat="45.83783" lon="6.57099">
        <ele>1031</ele>
        <time>2022-07-16T03:36:20.349Z</time>
      </trkpt>
      <trkpt lat="45.83783" lon="6.57109">
        <ele>1031</ele>
        <time>2022-07-16T03:36:21.276Z</time>
      </trkpt>
      <trkpt lat="45.83801" lon="6.57162">
        <ele>1031</ele>
        <time>2022-07-16T03:36:26.739Z</time>
      </trkpt>
      <trkpt lat="45.8384" lon="6.57336">
        <ele>1030</ele>
        <time>2022-07-16T03:36:42.626Z</time>
      </trkpt>
      <trkpt lat="45.83927" lon="6.57676">
        <ele>1023</ele>
        <time>2022-07-16T03:37:07.376Z</time>
      </trkpt>
      <trkpt lat="45.83928" lon="6.5772">
        <ele>1022</ele>
        <time>2022-07-16T03:37:10.235Z</time>
      </trkpt>
      <trkpt lat="45.8393" lon="6.57725">
        <ele>1022</ele>
        <time>2022-07-16T03:37:10.769Z</time>
      </trkpt>
      <trkpt lat="45.83934" lon="6.57726">
        <ele>1023</ele>
        <time>2022-07-16T03:37:12.852Z</time>
      </trkpt>
      <trkpt lat="45.83945" lon="6.57748">
        <ele>1024</ele>
        <time>2022-07-16T03:37:17.327Z</time>
      </trkpt>
      <trkpt lat="45.84023" lon="6.58056">
        <ele>1034</ele>
        <time>2022-07-16T03:38:08.032Z</time>
      </trkpt>
      <trkpt lat="45.84069" lon="6.58212">
        <ele>1032</ele>
        <time>2022-07-16T03:38:21.126Z</time>
      </trkpt>
      <trkpt lat="45.84065" lon="6.58216">
        <ele>1031</ele>
        <time>2022-07-16T03:38:21.494Z</time>
      </trkpt>
      <trkpt lat="45.84063" lon="6.58223">
        <ele>1030</ele>
        <time>2022-07-16T03:38:21.892Z</time>
      </trkpt>
      <trkpt lat="45.84065" lon="6.58235">
        <ele>1029</ele>
        <time>2022-07-16T03:38:22.541Z</time>
      </trkpt>
      <trkpt lat="45.84073" lon="6.58244">
        <ele>1028</ele>
        <time>2022-07-16T03:38:23.308Z</time>
      </trkpt>
      <trkpt lat="45.84078" lon="6.58243">
        <ele>1029</ele>
        <time>2022-07-16T03:38:25.897Z</time>
      </trkpt>
      <trkpt lat="45.84125" lon="6.58384">
        <ele>1028</ele>
        <time>2022-07-16T03:38:39.240Z</time>
      </trkpt>
      <trkpt lat="45.84138" lon="6.58425">
        <ele>1028</ele>
        <time>2022-07-16T03:38:43.413Z</time>
      </trkpt>
      <trkpt lat="45.8414" lon="6.58443">
        <ele>1028</ele>
        <time>2022-07-16T03:38:45.102Z</time>
      </trkpt>
      <trkpt lat="45.84209" lon="6.58656">
        <ele>1036</ele>
        <time>2022-07-16T03:39:22.879Z</time>
      </trkpt>
      <trkpt lat="45.84226" lon="6.5869">
        <ele>1038</ele>
        <time>2022-07-16T03:39:30.600Z</time>
      </trkpt>
      <trkpt lat="45.8424" lon="6.58729">
        <ele>1039</ele>
        <time>2022-07-16T03:39:36.404Z</time>
      </trkpt>
      <trkpt lat="45.8426" lon="6.58823">
        <ele>1041</ele>
        <time>2022-07-16T03:39:48.835Z</time>
      </trkpt>
      <trkpt lat="45.8427" lon="6.58939">
        <ele>1041</ele>
        <time>2022-07-16T03:39:59.664Z</time>
      </trkpt>
      <trkpt lat="45.84281" lon="6.58974">
        <ele>1041</ele>
        <time>2022-07-16T03:40:03.221Z</time>
      </trkpt>
      <trkpt lat="45.843" lon="6.59001">
        <ele>1042</ele>
        <time>2022-07-16T03:40:08.629Z</time>
      </trkpt>
      <trkpt lat="45.84389" lon="6.59081">
        <ele>1044</ele>
        <time>2022-07-16T03:40:25.545Z</time>
      </trkpt>
      <trkpt lat="45.84405" lon="6.591">
        <ele>1044</ele>
        <time>2022-07-16T03:40:28.307Z</time>
      </trkpt>
      <trkpt lat="45.845" lon="6.59254">
        <ele>1048</ele>
        <time>2022-07-16T03:40:53.909Z</time>
      </trkpt>
      <trkpt lat="45.84519" lon="6.59277">
        <ele>1048</ele>
        <time>2022-07-16T03:40:57.215Z</time>
      </trkpt>
      <trkpt lat="45.84704" lon="6.59408">
        <ele>1055</ele>
        <time>2022-07-16T03:41:37.020Z</time>
      </trkpt>
      <trkpt lat="45.84716" lon="6.59418">
        <ele>1055</ele>
        <time>2022-07-16T03:41:38.865Z</time>
      </trkpt>
      <trkpt lat="45.84719" lon="6.59425">
        <ele>1055</ele>
        <time>2022-07-16T03:41:39.627Z</time>
      </trkpt>
      <trkpt lat="45.84729" lon="6.59435">
        <ele>1056</ele>
        <time>2022-07-16T03:41:43.214Z</time>
      </trkpt>
      <trkpt lat="45.8474" lon="6.59452">
        <ele>1056</ele>
        <time>2022-07-16T03:41:45.363Z</time>
      </trkpt>
      <trkpt lat="45.84752" lon="6.59479">
        <ele>1056</ele>
        <time>2022-07-16T03:41:48.330Z</time>
      </trkpt>
      <trkpt lat="45.8483" lon="6.59714">
        <ele>1059</ele>
        <time>2022-07-16T03:42:16.751Z</time>
      </trkpt>
      <trkpt lat="45.84839" lon="6.59733">
        <ele>1060</ele>
        <time>2022-07-16T03:42:20.805Z</time>
      </trkpt>
      <trkpt lat="45.84857" lon="6.59786">
        <ele>1059</ele>
        <time>2022-07-16T03:42:24.986Z</time>
      </trkpt>
      <trkpt lat="45.8487" lon="6.59812">
        <ele>1059</ele>
        <time>2022-07-16T03:42:27.950Z</time>
      </trkpt>
      <trkpt lat="45.84913" lon="6.59862">
        <ele>1058</ele>
        <time>2022-07-16T03:42:34.007Z</time>
      </trkpt>
      <trkpt lat="45.84928" lon="6.59884">
        <ele>1057</ele>
        <time>2022-07-16T03:42:35.755Z</time>
      </trkpt>
      <trkpt lat="45.84935" lon="6.59899">
        <ele>1056</ele>
        <time>2022-07-16T03:42:36.705Z</time>
      </trkpt>
      <trkpt lat="45.8494" lon="6.59915">
        <ele>1056</ele>
        <time>2022-07-16T03:42:38.329Z</time>
      </trkpt>
      <trkpt lat="45.84945" lon="6.59955">
        <ele>1055</ele>
        <time>2022-07-16T03:42:40.896Z</time>
      </trkpt>
      <trkpt lat="45.8495" lon="6.60028">
        <ele>1056</ele>
        <time>2022-07-16T03:42:49.175Z</time>
      </trkpt>
      <trkpt lat="45.8495" lon="6.60084">
        <ele>1057</ele>
        <time>2022-07-16T03:42:55.954Z</time>
      </trkpt>
      <trkpt lat="45.84953" lon="6.60104">
        <ele>1058</ele>
        <time>2022-07-16T03:42:59.773Z</time>
      </trkpt>
      <trkpt lat="45.84961" lon="6.60131">
        <ele>1060</ele>
        <time>2022-07-16T03:43:06.696Z</time>
      </trkpt>
      <trkpt lat="45.8498" lon="6.60162">
        <ele>1063</ele>
        <time>2022-07-16T03:43:17.078Z</time>
      </trkpt>
      <trkpt lat="45.84997" lon="6.60184">
        <ele>1064</ele>
        <time>2022-07-16T03:43:22.153Z</time>
      </trkpt>
      <trkpt lat="45.8502" lon="6.6023">
        <ele>1064</ele>
        <time>2022-07-16T03:43:27.398Z</time>
      </trkpt>
      <trkpt lat="45.85031" lon="6.60247">
        <ele>1064</ele>
        <time>2022-07-16T03:43:29.548Z</time>
      </trkpt>
      <trkpt lat="45.85051" lon="6.60269">
        <ele>1065</ele>
        <time>2022-07-16T03:43:34.812Z</time>
      </trkpt>
      <trkpt lat="45.85066" lon="6.60278">
        <ele>1065</ele>
        <time>2022-07-16T03:43:36.974Z</time>
      </trkpt>
      <trkpt lat="45.85078" lon="6.60282">
        <ele>1066</ele>
        <time>2022-07-16T03:43:40.574Z</time>
      </trkpt>
      <trkpt lat="45.85092" lon="6.60295">
        <ele>1067</ele>
        <time>2022-07-16T03:43:44.722Z</time>
      </trkpt>
      <trkpt lat="45.85099" lon="6.60306">
        <ele>1068</ele>
        <time>2022-07-16T03:43:48.188Z</time>
      </trkpt>
      <trkpt lat="45.85107" lon="6.60334">
        <ele>1069</ele>
        <time>2022-07-16T03:43:53.009Z</time>
      </trkpt>
      <trkpt lat="45.85107" lon="6.60347">
        <ele>1069</ele>
        <time>2022-07-16T03:43:54.213Z</time>
      </trkpt>
      <trkpt lat="45.85104" lon="6.60372">
        <ele>1069</ele>
        <time>2022-07-16T03:43:56.563Z</time>
      </trkpt>
      <trkpt lat="45.85096" lon="6.60398">
        <ele>1068</ele>
        <time>2022-07-16T03:43:58.123Z</time>
      </trkpt>
      <trkpt lat="45.85092" lon="6.60423">
        <ele>1068</ele>
        <time>2022-07-16T03:44:00.499Z</time>
      </trkpt>
      <trkpt lat="45.85096" lon="6.60452">
        <ele>1067</ele>
        <time>2022-07-16T03:44:02.149Z</time>
      </trkpt>
      <trkpt lat="45.85107" lon="6.60473">
        <ele>1068</ele>
        <time>2022-07-16T03:44:06.539Z</time>
      </trkpt>
      <trkpt lat="45.85122" lon="6.60485">
        <ele>1070</ele>
        <time>2022-07-16T03:44:13.613Z</time>
      </trkpt>
      <trkpt lat="45.85134" lon="6.6049">
        <ele>1071</ele>
        <time>2022-07-16T03:44:17.230Z</time>
      </trkpt>
      <trkpt lat="45.85211" lon="6.6051">
        <ele>1073</ele>
        <time>2022-07-16T03:44:30.817Z</time>
      </trkpt>
      <trkpt lat="45.85227" lon="6.60512">
        <ele>1073</ele>
        <time>2022-07-16T03:44:32.953Z</time>
      </trkpt>
      <trkpt lat="45.85249" lon="6.6051">
        <ele>1073</ele>
        <time>2022-07-16T03:44:35.884Z</time>
      </trkpt>
      <trkpt lat="45.85262" lon="6.60504">
        <ele>1073</ele>
        <time>2022-07-16T03:44:37.700Z</time>
      </trkpt>
      <trkpt lat="45.85295" lon="6.60478">
        <ele>1074</ele>
        <time>2022-07-16T03:44:44.316Z</time>
      </trkpt>
      <trkpt lat="45.85322" lon="6.60462">
        <ele>1075</ele>
        <time>2022-07-16T03:44:49.975Z</time>
      </trkpt>
      <trkpt lat="45.85332" lon="6.60461">
        <ele>1075</ele>
        <time>2022-07-16T03:44:51.308Z</time>
      </trkpt>
      <trkpt lat="45.85341" lon="6.60463">
        <ele>1075</ele>
        <time>2022-07-16T03:44:52.520Z</time>
      </trkpt>
      <trkpt lat="45.85373" lon="6.60479">
        <ele>1075</ele>
        <time>2022-07-16T03:44:57.026Z</time>
      </trkpt>
      <trkpt lat="45.85404" lon="6.605">
        <ele>1075</ele>
        <time>2022-07-16T03:45:01.584Z</time>
      </trkpt>
      <trkpt lat="45.85417" lon="6.60518">
        <ele>1074</ele>
        <time>2022-07-16T03:45:02.950Z</time>
      </trkpt>
      <trkpt lat="45.85422" lon="6.60531">
        <ele>1075</ele>
        <time>2022-07-16T03:45:06.415Z</time>
      </trkpt>
      <trkpt lat="45.85427" lon="6.60558">
        <ele>1074</ele>
        <time>2022-07-16T03:45:07.936Z</time>
      </trkpt>
      <trkpt lat="45.85427" lon="6.60612">
        <ele>1072</ele>
        <time>2022-07-16T03:45:10.833Z</time>
      </trkpt>
      <trkpt lat="45.8543" lon="6.6064">
        <ele>1072</ele>
        <time>2022-07-16T03:45:13.457Z</time>
      </trkpt>
      <trkpt lat="45.85438" lon="6.60669">
        <ele>1072</ele>
        <time>2022-07-16T03:45:16.346Z</time>
      </trkpt>
      <trkpt lat="45.85458" lon="6.60701">
        <ele>1073</ele>
        <time>2022-07-16T03:45:22.083Z</time>
      </trkpt>
      <trkpt lat="45.85466" lon="6.60709">
        <ele>1073</ele>
        <time>2022-07-16T03:45:23.380Z</time>
      </trkpt>
      <trkpt lat="45.85483" lon="6.6072">
        <ele>1074</ele>
        <time>2022-07-16T03:45:27.822Z</time>
      </trkpt>
      <trkpt lat="45.85499" lon="6.60725">
        <ele>1076</ele>
        <time>2022-07-16T03:45:35.042Z</time>
      </trkpt>
      <trkpt lat="45.85595" lon="6.60729">
        <ele>1082</ele>
        <time>2022-07-16T03:45:59.363Z</time>
      </trkpt>
      <trkpt lat="45.85624" lon="6.60733">
        <ele>1083</ele>
        <time>2022-07-16T03:46:05.014Z</time>
      </trkpt>
      <trkpt lat="45.85636" lon="6.60738">
        <ele>1083</ele>
        <time>2022-07-16T03:46:06.675Z</time>
      </trkpt>
      <trkpt lat="45.85658" lon="6.60752">
        <ele>1083</ele>
        <time>2022-07-16T03:46:09.876Z</time>
      </trkpt>
      <trkpt lat="45.85678" lon="6.60775">
        <ele>1085</ele>
        <time>2022-07-16T03:46:17.176Z</time>
      </trkpt>
      <trkpt lat="45.85711" lon="6.60821">
        <ele>1086</ele>
        <time>2022-07-16T03:46:24.813Z</time>
      </trkpt>
      <trkpt lat="45.85722" lon="6.6085">
        <ele>1085</ele>
        <time>2022-07-16T03:46:26.743Z</time>
      </trkpt>
      <trkpt lat="45.85737" lon="6.60872">
        <ele>1084</ele>
        <time>2022-07-16T03:46:28.491Z</time>
      </trkpt>
      <trkpt lat="45.85746" lon="6.60892">
        <ele>1083</ele>
        <time>2022-07-16T03:46:29.695Z</time>
      </trkpt>
      <trkpt lat="45.85756" lon="6.60928">
        <ele>1082</ele>
        <time>2022-07-16T03:46:32.102Z</time>
      </trkpt>
      <trkpt lat="45.85763" lon="6.60972">
        <ele>1085</ele>
        <time>2022-07-16T03:46:42.510Z</time>
      </trkpt>
      <trkpt lat="45.85761" lon="6.61005">
        <ele>1085</ele>
        <time>2022-07-16T03:46:45.578Z</time>
      </trkpt>
      <trkpt lat="45.85753" lon="6.61016">
        <ele>1085</ele>
        <time>2022-07-16T03:46:47.051Z</time>
      </trkpt>
      <trkpt lat="45.85754" lon="6.6103">
        <ele>1086</ele>
        <time>2022-07-16T03:46:50.509Z</time>
      </trkpt>
      <trkpt lat="45.85758" lon="6.61036">
        <ele>1086</ele>
        <time>2022-07-16T03:46:51.278Z</time>
      </trkpt>
      <trkpt lat="45.85759" lon="6.61087">
        <ele>1088</ele>
        <time>2022-07-16T03:46:59.896Z</time>
      </trkpt>
      <trkpt lat="45.85744" lon="6.61179">
        <ele>1089</ele>
        <time>2022-07-16T03:47:10.062Z</time>
      </trkpt>
      <trkpt lat="45.8574" lon="6.61226">
        <ele>1090</ele>
        <time>2022-07-16T03:47:16.134Z</time>
      </trkpt>
      <trkpt lat="45.85738" lon="6.61228">
        <ele>1091</ele>
        <time>2022-07-16T03:47:17.384Z</time>
      </trkpt>
      <trkpt lat="45.85738" lon="6.61266">
        <ele>1091</ele>
        <time>2022-07-16T03:47:20.904Z</time>
      </trkpt>
      <trkpt lat="45.85742" lon="6.61314">
        <ele>1091</ele>
        <time>2022-07-16T03:47:25.381Z</time>
      </trkpt>
      <trkpt lat="45.85781" lon="6.61461">
        <ele>1093</ele>
        <time>2022-07-16T03:47:42.876Z</time>
      </trkpt>
      <trkpt lat="45.8581" lon="6.61582">
        <ele>1096</ele>
        <time>2022-07-16T03:48:00.011Z</time>
      </trkpt>
      <trkpt lat="45.85815" lon="6.61613">
        <ele>1097</ele>
        <time>2022-07-16T03:48:05.005Z</time>
      </trkpt>
      <trkpt lat="45.8581" lon="6.61624">
        <ele>1098</ele>
        <time>2022-07-16T03:48:08.484Z</time>
      </trkpt>
      <trkpt lat="45.85809" lon="6.61633">
        <ele>1098</ele>
        <time>2022-07-16T03:48:09.328Z</time>
      </trkpt>
      <trkpt lat="45.85813" lon="6.6166">
        <ele>1099</ele>
        <time>2022-07-16T03:48:13.859Z</time>
      </trkpt>
      <trkpt lat="45.85818" lon="6.61667">
        <ele>1099</ele>
        <time>2022-07-16T03:48:14.787Z</time>
      </trkpt>
      <trkpt lat="45.85825" lon="6.61667">
        <ele>1099</ele>
        <time>2022-07-16T03:48:15.718Z</time>
      </trkpt>
      <trkpt lat="45.85837" lon="6.61686">
        <ele>1099</ele>
        <time>2022-07-16T03:48:18.094Z</time>
      </trkpt>
      <trkpt lat="45.8585" lon="6.61724">
        <ele>1100</ele>
        <time>2022-07-16T03:48:23.782Z</time>
      </trkpt>
      <trkpt lat="45.85884" lon="6.61853">
        <ele>1099</ele>
        <time>2022-07-16T03:48:35.361Z</time>
      </trkpt>
      <trkpt lat="45.85904" lon="6.61894">
        <ele>1098</ele>
        <time>2022-07-16T03:48:38.746Z</time>
      </trkpt>
      <trkpt lat="45.85928" lon="6.61929">
        <ele>1098</ele>
        <time>2022-07-16T03:48:43.295Z</time>
      </trkpt>
      <trkpt lat="45.85934" lon="6.61948">
        <ele>1097</ele>
        <time>2022-07-16T03:48:44.392Z</time>
      </trkpt>
      <trkpt lat="45.85935" lon="6.61976">
        <ele>1097</ele>
        <time>2022-07-16T03:48:46.988Z</time>
      </trkpt>
      <trkpt lat="45.85939" lon="6.61985">
        <ele>1097</ele>
        <time>2022-07-16T03:48:47.977Z</time>
      </trkpt>
      <trkpt lat="45.85957" lon="6.62005">
        <ele>1097</ele>
        <time>2022-07-16T03:48:51.004Z</time>
      </trkpt>
      <trkpt lat="45.85969" lon="6.62056">
        <ele>1099</ele>
        <time>2022-07-16T03:48:59.917Z</time>
      </trkpt>
      <trkpt lat="45.85979" lon="6.62081">
        <ele>1100</ele>
        <time>2022-07-16T03:49:04.580Z</time>
      </trkpt>
      <trkpt lat="45.86086" lon="6.62281">
        <ele>1102</ele>
        <time>2022-07-16T03:49:30.657Z</time>
      </trkpt>
      <trkpt lat="45.86101" lon="6.62306">
        <ele>1102</ele>
        <time>2022-07-16T03:49:33.713Z</time>
      </trkpt>
      <trkpt lat="45.86121" lon="6.6233">
        <ele>1103</ele>
        <time>2022-07-16T03:49:39.058Z</time>
      </trkpt>
      <trkpt lat="45.86133" lon="6.62343">
        <ele>1104</ele>
        <time>2022-07-16T03:49:42.978Z</time>
      </trkpt>
      <trkpt lat="45.86162" lon="6.62367">
        <ele>1105</ele>
        <time>2022-07-16T03:49:49.106Z</time>
      </trkpt>
      <trkpt lat="45.8627" lon="6.62435">
        <ele>1104</ele>
        <time>2022-07-16T03:50:03.693Z</time>
      </trkpt>
      <trkpt lat="45.86438" lon="6.62546">
        <ele>1107</ele>
        <time>2022-07-16T03:50:32.578Z</time>
      </trkpt>
      <trkpt lat="45.86553" lon="6.62618">
        <ele>1109</ele>
        <time>2022-07-16T03:50:52.115Z</time>
      </trkpt>
      <trkpt lat="45.86646" lon="6.62683">
        <ele>1110</ele>
        <time>2022-07-16T03:51:07.206Z</time>
      </trkpt>
      <trkpt lat="45.86803" lon="6.62784">
        <ele>1110</ele>
        <time>2022-07-16T03:51:30.084Z</time>
      </trkpt>
      <trkpt lat="45.86832" lon="6.62805">
        <ele>1110</ele>
        <time>2022-07-16T03:51:34.403Z</time>
      </trkpt>
      <trkpt lat="45.86886" lon="6.62838">
        <ele>1112</ele>
        <time>2022-07-16T03:51:45.750Z</time>
      </trkpt>
      <trkpt lat="45.87002" lon="6.62917">
        <ele>1109</ele>
        <time>2022-07-16T03:51:58.963Z</time>
      </trkpt>
      <trkpt lat="45.87105" lon="6.62981">
        <ele>1107</ele>
        <time>2022-07-16T03:52:11.284Z</time>
      </trkpt>
      <trkpt lat="45.87129" lon="6.62998">
        <ele>1105</ele>
        <time>2022-07-16T03:52:13.304Z</time>
      </trkpt>
      <trkpt lat="45.87139" lon="6.63017">
        <ele>1103</ele>
        <time>2022-07-16T03:52:14.556Z</time>
      </trkpt>
      <trkpt lat="45.87143" lon="6.6303">
        <ele>1102</ele>
        <time>2022-07-16T03:52:15.303Z</time>
      </trkpt>
      <trkpt lat="45.8715" lon="6.63031">
        <ele>1102</ele>
        <time>2022-07-16T03:52:16.238Z</time>
      </trkpt>
      <trkpt lat="45.87161" lon="6.63027">
        <ele>1103</ele>
        <time>2022-07-16T03:52:19.755Z</time>
      </trkpt>
      <trkpt lat="45.8717" lon="6.63029">
        <ele>1104</ele>
        <time>2022-07-16T03:52:23.238Z</time>
      </trkpt>
      <trkpt lat="45.87182" lon="6.63033">
        <ele>1105</ele>
        <time>2022-07-16T03:52:26.838Z</time>
      </trkpt>
      <trkpt lat="45.87201" lon="6.63044">
        <ele>1106</ele>
        <time>2022-07-16T03:52:31.564Z</time>
      </trkpt>
      <trkpt lat="45.87218" lon="6.63063">
        <ele>1103</ele>
        <time>2022-07-16T03:52:33.190Z</time>
      </trkpt>
      <trkpt lat="45.87229" lon="6.63082">
        <ele>1098</ele>
        <time>2022-07-16T03:52:34.489Z</time>
      </trkpt>
      <trkpt lat="45.87256" lon="6.63138">
        <ele>1096</ele>
        <time>2022-07-16T03:52:38.516Z</time>
      </trkpt>
      <trkpt lat="45.87271" lon="6.63175">
        <ele>1095</ele>
        <time>2022-07-16T03:52:41.268Z</time>
      </trkpt>
      <trkpt lat="45.87282" lon="6.63196">
        <ele>1094</ele>
        <time>2022-07-16T03:52:42.660Z</time>
      </trkpt>
      <trkpt lat="45.87295" lon="6.63214">
        <ele>1094</ele>
        <time>2022-07-16T03:52:45.061Z</time>
      </trkpt>
      <trkpt lat="45.87312" lon="6.6323">
        <ele>1093</ele>
        <time>2022-07-16T03:52:46.681Z</time>
      </trkpt>
      <trkpt lat="45.87418" lon="6.63286">
        <ele>1089</ele>
        <time>2022-07-16T03:52:56.914Z</time>
      </trkpt>
      <trkpt lat="45.87464" lon="6.63313">
        <ele>1088</ele>
        <time>2022-07-16T03:53:02.223Z</time>
      </trkpt>
      <trkpt lat="45.87486" lon="6.63328">
        <ele>1085</ele>
        <time>2022-07-16T03:53:04.061Z</time>
      </trkpt>
      <trkpt lat="45.87499" lon="6.63344">
        <ele>1084</ele>
        <time>2022-07-16T03:53:05.323Z</time>
      </trkpt>
      <trkpt lat="45.87505" lon="6.63359">
        <ele>1084</ele>
        <time>2022-07-16T03:53:06.925Z</time>
      </trkpt>
      <trkpt lat="45.87531" lon="6.63466">
        <ele>1081</ele>
        <time>2022-07-16T03:53:13.894Z</time>
      </trkpt>
      <trkpt lat="45.87543" lon="6.63498">
        <ele>1080</ele>
        <time>2022-07-16T03:53:16.097Z</time>
      </trkpt>
      <trkpt lat="45.87565" lon="6.63531">
        <ele>1079</ele>
        <time>2022-07-16T03:53:19.097Z</time>
      </trkpt>
      <trkpt lat="45.87582" lon="6.63547">
        <ele>1078</ele>
        <time>2022-07-16T03:53:20.717Z</time>
      </trkpt>
      <trkpt lat="45.87603" lon="6.63562">
        <ele>1076</ele>
        <time>2022-07-16T03:53:22.487Z</time>
      </trkpt>
      <trkpt lat="45.87619" lon="6.63569">
        <ele>1075</ele>
        <time>2022-07-16T03:53:23.707Z</time>
      </trkpt>
      <trkpt lat="45.87646" lon="6.63568">
        <ele>1073</ele>
        <time>2022-07-16T03:53:25.746Z</time>
      </trkpt>
      <trkpt lat="45.87681" lon="6.6356">
        <ele>1072</ele>
        <time>2022-07-16T03:53:29.204Z</time>
      </trkpt>
      <trkpt lat="45.87696" lon="6.63563">
        <ele>1071</ele>
        <time>2022-07-16T03:53:30.256Z</time>
      </trkpt>
      <trkpt lat="45.87712" lon="6.63573">
        <ele>1071</ele>
        <time>2022-07-16T03:53:32.577Z</time>
      </trkpt>
      <trkpt lat="45.87724" lon="6.63585">
        <ele>1070</ele>
        <time>2022-07-16T03:53:33.680Z</time>
      </trkpt>
      <trkpt lat="45.87805" lon="6.63709">
        <ele>1066</ele>
        <time>2022-07-16T03:53:44.582Z</time>
      </trkpt>
      <trkpt lat="45.87822" lon="6.63728">
        <ele>1065</ele>
        <time>2022-07-16T03:53:46.341Z</time>
      </trkpt>
      <trkpt lat="45.87843" lon="6.63746">
        <ele>1064</ele>
        <time>2022-07-16T03:53:48.443Z</time>
      </trkpt>
      <trkpt lat="45.87937" lon="6.63811">
        <ele>1061</ele>
        <time>2022-07-16T03:53:58.565Z</time>
      </trkpt>
      <trkpt lat="45.87979" lon="6.63851">
        <ele>1061</ele>
        <time>2022-07-16T03:54:05.266Z</time>
      </trkpt>
      <trkpt lat="45.87998" lon="6.63874">
        <ele>1060</ele>
        <time>2022-07-16T03:54:07.414Z</time>
      </trkpt>
      <trkpt lat="45.88014" lon="6.63898">
        <ele>1059</ele>
        <time>2022-07-16T03:54:09.359Z</time>
      </trkpt>
      <trkpt lat="45.88055" lon="6.6397">
        <ele>1056</ele>
        <time>2022-07-16T03:54:14.653Z</time>
      </trkpt>
      <trkpt lat="45.8807" lon="6.63992">
        <ele>1055</ele>
        <time>2022-07-16T03:54:16.400Z</time>
      </trkpt>
      <trkpt lat="45.88088" lon="6.64012">
        <ele>1054</ele>
        <time>2022-07-16T03:54:18.301Z</time>
      </trkpt>
      <trkpt lat="45.88108" lon="6.64029">
        <ele>1053</ele>
        <time>2022-07-16T03:54:20.259Z</time>
      </trkpt>
      <trkpt lat="45.88216" lon="6.64101">
        <ele>1048</ele>
        <time>2022-07-16T03:54:30.385Z</time>
      </trkpt>
      <trkpt lat="45.88231" lon="6.64119">
        <ele>1048</ele>
        <time>2022-07-16T03:54:32.984Z</time>
      </trkpt>
      <trkpt lat="45.88237" lon="6.64129">
        <ele>1047</ele>
        <time>2022-07-16T03:54:33.678Z</time>
      </trkpt>
      <trkpt lat="45.8824" lon="6.6414">
        <ele>1047</ele>
        <time>2022-07-16T03:54:34.771Z</time>
      </trkpt>
      <trkpt lat="45.8824" lon="6.64157">
        <ele>1046</ele>
        <time>2022-07-16T03:54:35.665Z</time>
      </trkpt>
      <trkpt lat="45.88234" lon="6.64174">
        <ele>1045</ele>
        <time>2022-07-16T03:54:36.666Z</time>
      </trkpt>
      <trkpt lat="45.88234" lon="6.64185">
        <ele>1045</ele>
        <time>2022-07-16T03:54:37.684Z</time>
      </trkpt>
      <trkpt lat="45.88236" lon="6.64195">
        <ele>1045</ele>
        <time>2022-07-16T03:54:38.648Z</time>
      </trkpt>
      <trkpt lat="45.88242" lon="6.64203">
        <ele>1045</ele>
        <time>2022-07-16T03:54:39.736Z</time>
      </trkpt>
      <trkpt lat="45.88244" lon="6.64214">
        <ele>1045</ele>
        <time>2022-07-16T03:54:40.789Z</time>
      </trkpt>
      <trkpt lat="45.88244" lon="6.6426">
        <ele>1044</ele>
        <time>2022-07-16T03:54:43.816Z</time>
      </trkpt>
      <trkpt lat="45.88247" lon="6.64274">
        <ele>1044</ele>
        <time>2022-07-16T03:54:45.172Z</time>
      </trkpt>
      <trkpt lat="45.88268" lon="6.64318">
        <ele>1043</ele>
        <time>2022-07-16T03:54:48.847Z</time>
      </trkpt>
      <trkpt lat="45.88276" lon="6.64343">
        <ele>1042</ele>
        <time>2022-07-16T03:54:50.334Z</time>
      </trkpt>
      <trkpt lat="45.88283" lon="6.64374">
        <ele>1042</ele>
        <time>2022-07-16T03:54:53.351Z</time>
      </trkpt>
      <trkpt lat="45.88294" lon="6.64479">
        <ele>1043</ele>
        <time>2022-07-16T03:55:04.571Z</time>
      </trkpt>
      <trkpt lat="45.883" lon="6.64494">
        <ele>1042</ele>
        <time>2022-07-16T03:55:05.480Z</time>
      </trkpt>
      <trkpt lat="45.8831" lon="6.64508">
        <ele>1042</ele>
        <time>2022-07-16T03:55:07.337Z</time>
      </trkpt>
      <trkpt lat="45.88392" lon="6.64597">
        <ele>1034</ele>
        <time>2022-07-16T03:55:15.094Z</time>
      </trkpt>
      <trkpt lat="45.88411" lon="6.64629">
        <ele>1031</ele>
        <time>2022-07-16T03:55:17.304Z</time>
      </trkpt>
      <trkpt lat="45.88427" lon="6.64677">
        <ele>1031</ele>
        <time>2022-07-16T03:55:22.231Z</time>
      </trkpt>
      <trkpt lat="45.88436" lon="6.64694">
        <ele>1032</ele>
        <time>2022-07-16T03:55:26.129Z</time>
      </trkpt>
      <trkpt lat="45.88514" lon="6.64793">
        <ele>1027</ele>
        <time>2022-07-16T03:55:34.508Z</time>
      </trkpt>
      <trkpt lat="45.88529" lon="6.64824">
        <ele>1027</ele>
        <time>2022-07-16T03:55:38.003Z</time>
      </trkpt>
      <trkpt lat="45.88545" lon="6.64879">
        <ele>1027</ele>
        <time>2022-07-16T03:55:43.522Z</time>
      </trkpt>
      <trkpt lat="45.8856" lon="6.64916">
        <ele>1027</ele>
        <time>2022-07-16T03:55:47.485Z</time>
      </trkpt>
      <trkpt lat="45.88572" lon="6.64932">
        <ele>1026</ele>
        <time>2022-07-16T03:55:48.667Z</time>
      </trkpt>
      <trkpt lat="45.88613" lon="6.64972">
        <ele>1023</ele>
        <time>2022-07-16T03:55:52.261Z</time>
      </trkpt>
      <trkpt lat="45.88677" lon="6.6503">
        <ele>1023</ele>
        <time>2022-07-16T03:56:02.324Z</time>
      </trkpt>
      <trkpt lat="45.8869" lon="6.65038">
        <ele>1024</ele>
        <time>2022-07-16T03:56:06.129Z</time>
      </trkpt>
      <trkpt lat="45.88702" lon="6.65042">
        <ele>1024</ele>
        <time>2022-07-16T03:56:07.768Z</time>
      </trkpt>
      <trkpt lat="45.88717" lon="6.65042">
        <ele>1024</ele>
        <time>2022-07-16T03:56:09.762Z</time>
      </trkpt>
      <trkpt lat="45.88733" lon="6.65038">
        <ele>1024</ele>
        <time>2022-07-16T03:56:11.922Z</time>
      </trkpt>
      <trkpt lat="45.88748" lon="6.65026">
        <ele>1023</ele>
        <time>2022-07-16T03:56:13.190Z</time>
      </trkpt>
      <trkpt lat="45.88758" lon="6.65014">
        <ele>1022</ele>
        <time>2022-07-16T03:56:14.174Z</time>
      </trkpt>
      <trkpt lat="45.88775" lon="6.64979">
        <ele>1020</ele>
        <time>2022-07-16T03:56:16.416Z</time>
      </trkpt>
      <trkpt lat="45.88793" lon="6.64931">
        <ele>1016</ele>
        <time>2022-07-16T03:56:19.280Z</time>
      </trkpt>
      <trkpt lat="45.888" lon="6.64916">
        <ele>1015</ele>
        <time>2022-07-16T03:56:20.229Z</time>
      </trkpt>
      <trkpt lat="45.8881" lon="6.64902">
        <ele>1014</ele>
        <time>2022-07-16T03:56:21.283Z</time>
      </trkpt>
      <trkpt lat="45.8882" lon="6.64896">
        <ele>1014</ele>
        <time>2022-07-16T03:56:22.724Z</time>
      </trkpt>
      <trkpt lat="45.88831" lon="6.64893">
        <ele>1014</ele>
        <time>2022-07-16T03:56:24.213Z</time>
      </trkpt>
      <trkpt lat="45.88842" lon="6.64895">
        <ele>1012</ele>
        <time>2022-07-16T03:56:25.050Z</time>
      </trkpt>
      <trkpt lat="45.88853" lon="6.64902">
        <ele>1010</ele>
        <time>2022-07-16T03:56:25.958Z</time>
      </trkpt>
      <trkpt lat="45.88861" lon="6.64913">
        <ele>1009</ele>
        <time>2022-07-16T03:56:26.794Z</time>
      </trkpt>
      <trkpt lat="45.88867" lon="6.64928">
        <ele>1008</ele>
        <time>2022-07-16T03:56:27.702Z</time>
      </trkpt>
      <trkpt lat="45.88876" lon="6.6501">
        <ele>1014</ele>
        <time>2022-07-16T03:56:48.462Z</time>
      </trkpt>
      <trkpt lat="45.8888" lon="6.65027">
        <ele>1014</ele>
        <time>2022-07-16T03:56:50.123Z</time>
      </trkpt>
      <trkpt lat="45.88889" lon="6.6505">
        <ele>1014</ele>
        <time>2022-07-16T03:56:52.565Z</time>
      </trkpt>
      <trkpt lat="45.88925" lon="6.65109">
        <ele>1013</ele>
        <time>2022-07-16T03:56:58.526Z</time>
      </trkpt>
      <trkpt lat="45.88949" lon="6.6516">
        <ele>1011</ele>
        <time>2022-07-16T03:57:02.018Z</time>
      </trkpt>
      <trkpt lat="45.89004" lon="6.65311">
        <ele>1009</ele>
        <time>2022-07-16T03:57:15.194Z</time>
      </trkpt>
      <trkpt lat="45.89012" lon="6.65322">
        <ele>1008</ele>
        <time>2022-07-16T03:57:16.030Z</time>
      </trkpt>
      <trkpt lat="45.89039" lon="6.65346">
        <ele>1005</ele>
        <time>2022-07-16T03:57:18.426Z</time>
      </trkpt>
      <trkpt lat="45.89054" lon="6.65363">
        <ele>1004</ele>
        <time>2022-07-16T03:57:19.908Z</time>
      </trkpt>
      <trkpt lat="45.89065" lon="6.6538">
        <ele>1004</ele>
        <time>2022-07-16T03:57:22.057Z</time>
      </trkpt>
      <trkpt lat="45.89085" lon="6.65426">
        <ele>1005</ele>
        <time>2022-07-16T03:57:28.685Z</time>
      </trkpt>
      <trkpt lat="45.89095" lon="6.65439">
        <ele>1005</ele>
        <time>2022-07-16T03:57:30.479Z</time>
      </trkpt>
      <trkpt lat="45.89132" lon="6.65474">
        <ele>1002</ele>
        <time>2022-07-16T03:57:33.822Z</time>
      </trkpt>
      <trkpt lat="45.89149" lon="6.65495">
        <ele>1001</ele>
        <time>2022-07-16T03:57:35.684Z</time>
      </trkpt>
      <trkpt lat="45.89163" lon="6.65516">
        <ele>1001</ele>
        <time>2022-07-16T03:57:38.375Z</time>
      </trkpt>
      <trkpt lat="45.89202" lon="6.656">
        <ele>1003</ele>
        <time>2022-07-16T03:57:51.017Z</time>
      </trkpt>
      <trkpt lat="45.89213" lon="6.65616">
        <ele>1003</ele>
        <time>2022-07-16T03:57:53.098Z</time>
      </trkpt>
      <trkpt lat="45.89262" lon="6.65671">
        <ele>999</ele>
        <time>2022-07-16T03:57:57.475Z</time>
      </trkpt>
      <trkpt lat="45.89273" lon="6.6569">
        <ele>998</ele>
        <time>2022-07-16T03:57:58.747Z</time>
      </trkpt>
      <trkpt lat="45.89284" lon="6.65718">
        <ele>998</ele>
        <time>2022-07-16T03:58:01.723Z</time>
      </trkpt>
      <trkpt lat="45.89295" lon="6.65779">
        <ele>998</ele>
        <time>2022-07-16T03:58:07.555Z</time>
      </trkpt>
      <trkpt lat="45.89297" lon="6.66021">
        <ele>991</ele>
        <time>2022-07-16T03:58:21.940Z</time>
      </trkpt>
      <trkpt lat="45.89289" lon="6.66143">
        <ele>992</ele>
        <time>2022-07-16T03:58:34.647Z</time>
      </trkpt>
      <trkpt lat="45.89277" lon="6.6627">
        <ele>993</ele>
        <time>2022-07-16T03:58:47.867Z</time>
      </trkpt>
      <trkpt lat="45.89254" lon="6.66427">
        <ele>988</ele>
        <time>2022-07-16T03:58:57.124Z</time>
      </trkpt>
      <trkpt lat="45.89243" lon="6.66542">
        <ele>985</ele>
        <time>2022-07-16T03:59:04.322Z</time>
      </trkpt>
      <trkpt lat="45.89226" lon="6.66621">
        <ele>985</ele>
        <time>2022-07-16T03:59:11.975Z</time>
      </trkpt>
      <trkpt lat="45.89163" lon="6.66835">
        <ele>984</ele>
        <time>2022-07-16T03:59:31.621Z</time>
      </trkpt>
      <trkpt lat="45.89153" lon="6.6686">
        <ele>983</ele>
        <time>2022-07-16T03:59:33.212Z</time>
      </trkpt>
      <trkpt lat="45.89125" lon="6.66905">
        <ele>984</ele>
        <time>2022-07-16T03:59:40.357Z</time>
      </trkpt>
      <trkpt lat="45.89096" lon="6.66941">
        <ele>986</ele>
        <time>2022-07-16T03:59:49.398Z</time>
      </trkpt>
      <trkpt lat="45.89087" lon="6.66963">
        <ele>986</ele>
        <time>2022-07-16T03:59:51.760Z</time>
      </trkpt>
      <trkpt lat="45.89085" lon="6.66986">
        <ele>985</ele>
        <time>2022-07-16T03:59:52.917Z</time>
      </trkpt>
      <trkpt lat="45.89091" lon="6.6702">
        <ele>982</ele>
        <time>2022-07-16T03:59:54.759Z</time>
      </trkpt>
      <trkpt lat="45.89091" lon="6.67042">
        <ele>980</ele>
        <time>2022-07-16T03:59:55.915Z</time>
      </trkpt>
      <trkpt lat="45.89086" lon="6.67063">
        <ele>980</ele>
        <time>2022-07-16T03:59:57.969Z</time>
      </trkpt>
      <trkpt lat="45.89068" lon="6.67101">
        <ele>982</ele>
        <time>2022-07-16T04:00:06.073Z</time>
      </trkpt>
      <trkpt lat="45.89065" lon="6.67113">
        <ele>982</ele>
        <time>2022-07-16T04:00:07.254Z</time>
      </trkpt>
      <trkpt lat="45.89064" lon="6.6718">
        <ele>979</ele>
        <time>2022-07-16T04:00:10.537Z</time>
      </trkpt>
      <trkpt lat="45.8905" lon="6.67242">
        <ele>980</ele>
        <time>2022-07-16T04:00:18.097Z</time>
      </trkpt>
      <trkpt lat="45.8905" lon="6.67255">
        <ele>979</ele>
        <time>2022-07-16T04:00:18.780Z</time>
      </trkpt>
      <trkpt lat="45.8906" lon="6.67301">
        <ele>974</ele>
        <time>2022-07-16T04:00:21.311Z</time>
      </trkpt>
      <trkpt lat="45.8906" lon="6.6731">
        <ele>973</ele>
        <time>2022-07-16T04:00:21.784Z</time>
      </trkpt>
      <trkpt lat="45.89052" lon="6.67358">
        <ele>973</ele>
        <time>2022-07-16T04:00:26.353Z</time>
      </trkpt>
      <trkpt lat="45.89053" lon="6.6738">
        <ele>972</ele>
        <time>2022-07-16T04:00:27.426Z</time>
      </trkpt>
      <trkpt lat="45.89059" lon="6.67402">
        <ele>970</ele>
        <time>2022-07-16T04:00:28.667Z</time>
      </trkpt>
      <trkpt lat="45.89059" lon="6.6742">
        <ele>970</ele>
        <time>2022-07-16T04:00:30.333Z</time>
      </trkpt>
      <trkpt lat="45.89052" lon="6.67465">
        <ele>970</ele>
        <time>2022-07-16T04:00:34.602Z</time>
      </trkpt>
      <trkpt lat="45.89048" lon="6.67524">
        <ele>969</ele>
        <time>2022-07-16T04:00:38.807Z</time>
      </trkpt>
      <trkpt lat="45.89062" lon="6.67666">
        <ele>955</ele>
        <time>2022-07-16T04:00:46.341Z</time>
      </trkpt>
      <trkpt lat="45.89086" lon="6.67754">
        <ele>951</ele>
        <time>2022-07-16T04:00:51.101Z</time>
      </trkpt>
      <trkpt lat="45.8909" lon="6.67797">
        <ele>950</ele>
        <time>2022-07-16T04:00:53.901Z</time>
      </trkpt>
      <trkpt lat="45.89077" lon="6.67873">
        <ele>952</ele>
        <time>2022-07-16T04:01:04.816Z</time>
      </trkpt>
      <trkpt lat="45.8906" lon="6.68026">
        <ele>947</ele>
        <time>2022-07-16T04:01:13.628Z</time>
      </trkpt>
      <trkpt lat="45.89053" lon="6.68053">
        <ele>947</ele>
        <time>2022-07-16T04:01:16.295Z</time>
      </trkpt>
      <trkpt lat="45.89024" lon="6.68121">
        <ele>954</ele>
        <time>2022-07-16T04:01:42.042Z</time>
      </trkpt>
      <trkpt lat="45.89022" lon="6.68145">
        <ele>952</ele>
        <time>2022-07-16T04:01:43.312Z</time>
      </trkpt>
      <trkpt lat="45.89024" lon="6.68161">
        <ele>949</ele>
        <time>2022-07-16T04:01:44.166Z</time>
      </trkpt>
      <trkpt lat="45.89041" lon="6.68215">
        <ele>941</ele>
        <time>2022-07-16T04:01:47.279Z</time>
      </trkpt>
      <trkpt lat="45.89043" lon="6.68236">
        <ele>939</ele>
        <time>2022-07-16T04:01:48.392Z</time>
      </trkpt>
      <trkpt lat="45.89035" lon="6.68347">
        <ele>938</ele>
        <time>2022-07-16T04:01:57.460Z</time>
      </trkpt>
      <trkpt lat="45.89036" lon="6.68372">
        <ele>940</ele>
        <time>2022-07-16T04:02:04.499Z</time>
      </trkpt>
      <trkpt lat="45.89039" lon="6.68384">
        <ele>940</ele>
        <time>2022-07-16T04:02:05.680Z</time>
      </trkpt>
      <trkpt lat="45.89049" lon="6.68402">
        <ele>938</ele>
        <time>2022-07-16T04:02:06.890Z</time>
      </trkpt>
      <trkpt lat="45.89081" lon="6.68429">
        <ele>929</ele>
        <time>2022-07-16T04:02:09.690Z</time>
      </trkpt>
      <trkpt lat="45.89089" lon="6.68437">
        <ele>927</ele>
        <time>2022-07-16T04:02:10.426Z</time>
      </trkpt>
      <trkpt lat="45.89096" lon="6.68449">
        <ele>926</ele>
        <time>2022-07-16T04:02:11.249Z</time>
      </trkpt>
      <trkpt lat="45.89104" lon="6.68476">
        <ele>925</ele>
        <time>2022-07-16T04:02:12.880Z</time>
      </trkpt>
      <trkpt lat="45.89108" lon="6.68531">
        <ele>928</ele>
        <time>2022-07-16T04:02:23.836Z</time>
      </trkpt>
      <trkpt lat="45.89118" lon="6.68557">
        <ele>928</ele>
        <time>2022-07-16T04:02:26.585Z</time>
      </trkpt>
      <trkpt lat="45.89154" lon="6.68626">
        <ele>922</ele>
        <time>2022-07-16T04:02:31.116Z</time>
      </trkpt>
      <trkpt lat="45.89169" lon="6.68685">
        <ele>923</ele>
        <time>2022-07-16T04:02:38.471Z</time>
      </trkpt>
      <trkpt lat="45.89183" lon="6.68721">
        <ele>923</ele>
        <time>2022-07-16T04:02:42.288Z</time>
      </trkpt>
      <trkpt lat="45.89203" lon="6.68757">
        <ele>921</ele>
        <time>2022-07-16T04:02:44.579Z</time>
      </trkpt>
      <trkpt lat="45.89226" lon="6.68816">
        <ele>918</ele>
        <time>2022-07-16T04:02:47.907Z</time>
      </trkpt>
      <trkpt lat="45.89262" lon="6.68872">
        <ele>912</ele>
        <time>2022-07-16T04:02:51.911Z</time>
      </trkpt>
      <trkpt lat="45.89273" lon="6.6891">
        <ele>912</ele>
        <time>2022-07-16T04:02:55.721Z</time>
      </trkpt>
      <trkpt lat="45.89286" lon="6.68944">
        <ele>910</ele>
        <time>2022-07-16T04:02:57.759Z</time>
      </trkpt>
      <trkpt lat="45.89314" lon="6.68986">
        <ele>905</ele>
        <time>2022-07-16T04:03:00.814Z</time>
      </trkpt>
      <trkpt lat="45.89324" lon="6.69011">
        <ele>905</ele>
        <time>2022-07-16T04:03:03.483Z</time>
      </trkpt>
      <trkpt lat="45.89331" lon="6.69051">
        <ele>905</ele>
        <time>2022-07-16T04:03:07.300Z</time>
      </trkpt>
      <trkpt lat="45.89334" lon="6.69124">
        <ele>905</ele>
        <time>2022-07-16T04:03:14.069Z</time>
      </trkpt>
      <trkpt lat="45.89332" lon="6.69187">
        <ele>903</ele>
        <time>2022-07-16T04:03:17.682Z</time>
      </trkpt>
      <trkpt lat="45.89325" lon="6.6924">
        <ele>904</ele>
        <time>2022-07-16T04:03:24.286Z</time>
      </trkpt>
      <trkpt lat="45.8933" lon="6.69267">
        <ele>904</ele>
        <time>2022-07-16T04:03:26.872Z</time>
      </trkpt>
      <trkpt lat="45.89335" lon="6.69277">
        <ele>903</ele>
        <time>2022-07-16T04:03:27.519Z</time>
      </trkpt>
      <trkpt lat="45.8935" lon="6.69288">
        <ele>902</ele>
        <time>2022-07-16T04:03:28.751Z</time>
      </trkpt>
      <trkpt lat="45.89388" lon="6.69282">
        <ele>897</ele>
        <time>2022-07-16T04:03:31.637Z</time>
      </trkpt>
      <trkpt lat="45.89394" lon="6.69283">
        <ele>897</ele>
        <time>2022-07-16T04:03:32.440Z</time>
      </trkpt>
      <trkpt lat="45.89399" lon="6.69286">
        <ele>897</ele>
        <time>2022-07-16T04:03:33.160Z</time>
      </trkpt>
      <trkpt lat="45.89404" lon="6.69294">
        <ele>897</ele>
        <time>2022-07-16T04:03:34.156Z</time>
      </trkpt>
      <trkpt lat="45.8941" lon="6.69309">
        <ele>897</ele>
        <time>2022-07-16T04:03:35.757Z</time>
      </trkpt>
      <trkpt lat="45.89414" lon="6.6934">
        <ele>899</ele>
        <time>2022-07-16T04:03:42.743Z</time>
      </trkpt>
      <trkpt lat="45.89406" lon="6.69399">
        <ele>897</ele>
        <time>2022-07-16T04:03:46.118Z</time>
      </trkpt>
      <trkpt lat="45.89405" lon="6.69437">
        <ele>895</ele>
        <time>2022-07-16T04:03:48.115Z</time>
      </trkpt>
      <trkpt lat="45.89407" lon="6.69485">
        <ele>890</ele>
        <time>2022-07-16T04:03:50.641Z</time>
      </trkpt>
      <trkpt lat="45.89414" lon="6.69556">
        <ele>883</ele>
        <time>2022-07-16T04:03:54.408Z</time>
      </trkpt>
      <trkpt lat="45.89423" lon="6.69598">
        <ele>879</ele>
        <time>2022-07-16T04:03:56.717Z</time>
      </trkpt>
      <trkpt lat="45.89443" lon="6.69662">
        <ele>874</ele>
        <time>2022-07-16T04:04:00.402Z</time>
      </trkpt>
      <trkpt lat="45.89446" lon="6.69711">
        <ele>874</ele>
        <time>2022-07-16T04:04:04.955Z</time>
      </trkpt>
      <trkpt lat="45.89459" lon="6.69746">
        <ele>870</ele>
        <time>2022-07-16T04:04:07.039Z</time>
      </trkpt>
      <trkpt lat="45.89465" lon="6.6977">
        <ele>869</ele>
        <time>2022-07-16T04:04:08.370Z</time>
      </trkpt>
      <trkpt lat="45.89466" lon="6.69829">
        <ele>869</ele>
        <time>2022-07-16T04:04:13.832Z</time>
      </trkpt>
      <trkpt lat="45.89456" lon="6.69895">
        <ele>867</ele>
        <time>2022-07-16T04:04:17.810Z</time>
      </trkpt>
      <trkpt lat="45.89443" lon="6.69957">
        <ele>866</ele>
        <time>2022-07-16T04:04:22.511Z</time>
      </trkpt>
      <trkpt lat="45.8944" lon="6.69992">
        <ele>863</ele>
        <time>2022-07-16T04:04:24.363Z</time>
      </trkpt>
      <trkpt lat="45.89433" lon="6.70033">
        <ele>864</ele>
        <time>2022-07-16T04:04:30.041Z</time>
      </trkpt>
      <trkpt lat="45.89433" lon="6.70067">
        <ele>862</ele>
        <time>2022-07-16T04:04:31.827Z</time>
      </trkpt>
      <trkpt lat="45.89442" lon="6.70105">
        <ele>854</ele>
        <time>2022-07-16T04:04:33.935Z</time>
      </trkpt>
      <trkpt lat="45.89434" lon="6.70144">
        <ele>852</ele>
        <time>2022-07-16T04:04:36.071Z</time>
      </trkpt>
      <trkpt lat="45.89411" lon="6.70183">
        <ele>851</ele>
        <time>2022-07-16T04:04:39.547Z</time>
      </trkpt>
      <trkpt lat="45.89355" lon="6.70222">
        <ele>856</ele>
        <time>2022-07-16T04:04:57.609Z</time>
      </trkpt>
      <trkpt lat="45.89339" lon="6.70237">
        <ele>858</ele>
        <time>2022-07-16T04:05:04.532Z</time>
      </trkpt>
      <trkpt lat="45.89335" lon="6.70252">
        <ele>856</ele>
        <time>2022-07-16T04:05:05.376Z</time>
      </trkpt>
      <trkpt lat="45.89336" lon="6.70326">
        <ele>839</ele>
        <time>2022-07-16T04:05:09.264Z</time>
      </trkpt>
      <trkpt lat="45.89324" lon="6.70358">
        <ele>838</ele>
        <time>2022-07-16T04:05:11.466Z</time>
      </trkpt>
      <trkpt lat="45.89307" lon="6.70394">
        <ele>837</ele>
        <time>2022-07-16T04:05:14.276Z</time>
      </trkpt>
      <trkpt lat="45.8928" lon="6.70435">
        <ele>835</ele>
        <time>2022-07-16T04:05:17.361Z</time>
      </trkpt>
      <trkpt lat="45.8927" lon="6.7047">
        <ele>831</ele>
        <time>2022-07-16T04:05:19.348Z</time>
      </trkpt>
      <trkpt lat="45.89258" lon="6.705">
        <ele>830</ele>
        <time>2022-07-16T04:05:21.406Z</time>
      </trkpt>
      <trkpt lat="45.89242" lon="6.70519">
        <ele>829</ele>
        <time>2022-07-16T04:05:23.075Z</time>
      </trkpt>
      <trkpt lat="45.89219" lon="6.7053">
        <ele>826</ele>
        <time>2022-07-16T04:05:24.904Z</time>
      </trkpt>
      <trkpt lat="45.892" lon="6.70531">
        <ele>826</ele>
        <time>2022-07-16T04:05:27.433Z</time>
      </trkpt>
      <trkpt lat="45.89145" lon="6.70524">
        <ele>828</ele>
        <time>2022-07-16T04:05:38.422Z</time>
      </trkpt>
      <trkpt lat="45.89132" lon="6.70524">
        <ele>829</ele>
        <time>2022-07-16T04:05:42.092Z</time>
      </trkpt>
      <trkpt lat="45.8912" lon="6.70528">
        <ele>829</ele>
        <time>2022-07-16T04:05:43.730Z</time>
      </trkpt>
      <trkpt lat="45.89082" lon="6.70566">
        <ele>822</ele>
        <time>2022-07-16T04:05:47.225Z</time>
      </trkpt>
      <trkpt lat="45.8904" lon="6.70599">
        <ele>821</ele>
        <time>2022-07-16T04:05:52.293Z</time>
      </trkpt>
      <trkpt lat="45.89013" lon="6.70619">
        <ele>820</ele>
        <time>2022-07-16T04:05:55.116Z</time>
      </trkpt>
      <trkpt lat="45.88958" lon="6.7065">
        <ele>822</ele>
        <time>2022-07-16T04:06:06.504Z</time>
      </trkpt>
      <trkpt lat="45.88942" lon="6.70666">
        <ele>822</ele>
        <time>2022-07-16T04:06:09.096Z</time>
      </trkpt>
      <trkpt lat="45.88926" lon="6.70692">
        <ele>822</ele>
        <time>2022-07-16T04:06:12.309Z</time>
      </trkpt>
      <trkpt lat="45.88921" lon="6.70706">
        <ele>822</ele>
        <time>2022-07-16T04:06:13.765Z</time>
      </trkpt>
      <trkpt lat="45.88913" lon="6.70749">
        <ele>820</ele>
        <time>2022-07-16T04:06:15.942Z</time>
      </trkpt>
      <trkpt lat="45.88899" lon="6.71117">
        <ele>819</ele>
        <time>2022-07-16T04:06:48.134Z</time>
      </trkpt>
      <trkpt lat="45.88895" lon="6.71289">
        <ele>814</ele>
        <time>2022-07-16T04:06:58.346Z</time>
      </trkpt>
      <trkpt lat="45.88905" lon="6.713">
        <ele>815</ele>
        <time>2022-07-16T04:07:01.974Z</time>
      </trkpt>
      <trkpt lat="45.88954" lon="6.7131">
        <ele>819</ele>
        <time>2022-07-16T04:07:16.394Z</time>
      </trkpt>
      <trkpt lat="45.88988" lon="6.71311">
        <ele>822</ele>
        <time>2022-07-16T04:07:26.944Z</time>
      </trkpt>
      <trkpt lat="45.89024" lon="6.71307">
        <ele>822</ele>
        <time>2022-07-16T04:07:31.746Z</time>
      </trkpt>
      <trkpt lat="45.89095" lon="6.71308">
        <ele>822</ele>
        <time>2022-07-16T04:07:41.188Z</time>
      </trkpt>
      <trkpt lat="45.89104" lon="6.71311">
        <ele>822</ele>
        <time>2022-07-16T04:07:42.417Z</time>
      </trkpt>
      <trkpt lat="45.89101" lon="6.71318">
        <ele>823</ele>
        <time>2022-07-16T04:07:45.352Z</time>
      </trkpt>
      <trkpt lat="45.89101" lon="6.71324">
        <ele>823</ele>
        <time>2022-07-16T04:07:45.907Z</time>
      </trkpt>
      <trkpt lat="45.89104" lon="6.71329">
        <ele>824</ele>
        <time>2022-07-16T04:07:48.264Z</time>
      </trkpt>
      <trkpt lat="45.89108" lon="6.71331">
        <ele>824</ele>
        <time>2022-07-16T04:07:48.827Z</time>
      </trkpt>
      <trkpt lat="45.89113" lon="6.7133">
        <ele>824</ele>
        <time>2022-07-16T04:07:49.499Z</time>
      </trkpt>
      <trkpt lat="45.89116" lon="6.71325">
        <ele>823</ele>
        <time>2022-07-16T04:07:49.845Z</time>
      </trkpt>
      <trkpt lat="45.89116" lon="6.71318">
        <ele>822</ele>
        <time>2022-07-16T04:07:50.213Z</time>
      </trkpt>
      <trkpt lat="45.89132" lon="6.71321">
        <ele>822</ele>
        <time>2022-07-16T04:07:52.359Z</time>
      </trkpt>
      <trkpt lat="45.89165" lon="6.71354">
        <ele>826</ele>
        <time>2022-07-16T04:08:06.194Z</time>
      </trkpt>
      <trkpt lat="45.89174" lon="6.71357">
        <ele>827</ele>
        <time>2022-07-16T04:08:09.668Z</time>
      </trkpt>
      <trkpt lat="45.89186" lon="6.71353">
        <ele>828</ele>
        <time>2022-07-16T04:08:13.268Z</time>
      </trkpt>
      <trkpt lat="45.89197" lon="6.7134">
        <ele>826</ele>
        <time>2022-07-16T04:08:14.343Z</time>
      </trkpt>
      <trkpt lat="45.89216" lon="6.71216">
        <ele>815</ele>
        <time>2022-07-16T04:08:21.013Z</time>
      </trkpt>
      <trkpt lat="45.89224" lon="6.71198">
        <ele>815</ele>
        <time>2022-07-16T04:08:22.990Z</time>
      </trkpt>
      <trkpt lat="45.89281" lon="6.71167">
        <ele>816</ele>
        <time>2022-07-16T04:08:32.529Z</time>
      </trkpt>
      <trkpt lat="45.89296" lon="6.71163">
        <ele>815</ele>
        <time>2022-07-16T04:08:33.593Z</time>
      </trkpt>
      <trkpt lat="45.89371" lon="6.71154">
        <ele>815</ele>
        <time>2022-07-16T04:08:43.601Z</time>
      </trkpt>
      <trkpt lat="45.89368" lon="6.711">
        <ele>808</ele>
        <time>2022-07-16T04:08:46.447Z</time>
      </trkpt>
      <trkpt lat="45.89443" lon="6.71077">
        <ele>806</ele>
        <time>2022-07-16T04:08:54.106Z</time>
      </trkpt>
      <trkpt lat="45.89445" lon="6.71084">
        <ele>807</ele>
        <time>2022-07-16T04:08:56.807Z</time>
      </trkpt>
      <trkpt lat="45.8945" lon="6.7109">
        <ele>808</ele>
        <time>2022-07-16T04:09:00.149Z</time>
      </trkpt>
      <trkpt lat="45.89455" lon="6.71092">
        <ele>809</ele>
        <time>2022-07-16T04:09:02.811Z</time>
      </trkpt>
      <trkpt lat="45.89461" lon="6.71091">
        <ele>809</ele>
        <time>2022-07-16T04:09:03.614Z</time>
      </trkpt>
      <trkpt lat="45.89467" lon="6.71085">
        <ele>808</ele>
        <time>2022-07-16T04:09:04.166Z</time>
      </trkpt>
      <trkpt lat="45.8947" lon="6.71072">
        <ele>806</ele>
        <time>2022-07-16T04:09:04.885Z</time>
      </trkpt>
      <trkpt lat="45.89479" lon="6.71072">
        <ele>806</ele>
        <time>2022-07-16T04:09:06.082Z</time>
      </trkpt>
      <trkpt lat="45.89511" lon="6.71065">
        <ele>807</ele>
        <time>2022-07-16T04:09:12.086Z</time>
      </trkpt>
      <trkpt lat="45.8961" lon="6.71035">
        <ele>805</ele>
        <time>2022-07-16T04:09:22.940Z</time>
      </trkpt>
      <trkpt lat="45.89637" lon="6.71022">
        <ele>802</ele>
        <time>2022-07-16T04:09:25.089Z</time>
      </trkpt>
      <trkpt lat="45.89643" lon="6.71027">
        <ele>802</ele>
        <time>2022-07-16T04:09:26.011Z</time>
      </trkpt>
      <trkpt lat="45.89733" lon="6.70999">
        <ele>794</ele>
        <time>2022-07-16T04:09:32.962Z</time>
      </trkpt>
      <trkpt lat="45.89742" lon="6.71017">
        <ele>795</ele>
        <time>2022-07-16T04:09:36.935Z</time>
      </trkpt>
      <trkpt lat="45.89786" lon="6.7108">
        <ele>797</ele>
        <time>2022-07-16T04:09:48.650Z</time>
      </trkpt>
      <trkpt lat="45.8979" lon="6.71083">
        <ele>797</ele>
        <time>2022-07-16T04:09:49.250Z</time>
      </trkpt>
      <trkpt lat="45.89805" lon="6.71086">
        <ele>798</ele>
        <time>2022-07-16T04:09:53.185Z</time>
      </trkpt>
      <trkpt lat="45.89812" lon="6.71093">
        <ele>798</ele>
        <time>2022-07-16T04:09:54.320Z</time>
      </trkpt>
      <trkpt lat="45.89824" lon="6.71124">
        <ele>800</ele>
        <time>2022-07-16T04:10:01.524Z</time>
      </trkpt>
      <trkpt lat="45.89841" lon="6.71155">
        <ele>802</ele>
        <time>2022-07-16T04:10:09.034Z</time>
      </trkpt>
      <trkpt lat="45.89852" lon="6.71163">
        <ele>802</ele>
        <time>2022-07-16T04:10:10.673Z</time>
      </trkpt>
      <trkpt lat="45.89864" lon="6.71167">
        <ele>801</ele>
        <time>2022-07-16T04:10:11.603Z</time>
      </trkpt>
      <trkpt lat="45.89906" lon="6.7113">
        <ele>794</ele>
        <time>2022-07-16T04:10:15.321Z</time>
      </trkpt>
      <trkpt lat="45.89924" lon="6.71101">
        <ele>790</ele>
        <time>2022-07-16T04:10:17.362Z</time>
      </trkpt>
      <trkpt lat="45.89931" lon="6.71095">
        <ele>788</ele>
        <time>2022-07-16T04:10:17.978Z</time>
      </trkpt>
      <trkpt lat="45.89937" lon="6.71095">
        <ele>788</ele>
        <time>2022-07-16T04:10:18.776Z</time>
      </trkpt>
      <trkpt lat="45.89973" lon="6.71106">
        <ele>784</ele>
        <time>2022-07-16T04:10:21.553Z</time>
      </trkpt>
      <trkpt lat="45.89985" lon="6.71101">
        <ele>782</ele>
        <time>2022-07-16T04:10:22.496Z</time>
      </trkpt>
      <trkpt lat="45.90022" lon="6.71066">
        <ele>776</ele>
        <time>2022-07-16T04:10:25.840Z</time>
      </trkpt>
      <trkpt lat="45.9002" lon="6.71048">
        <ele>774</ele>
        <time>2022-07-16T04:10:26.797Z</time>
      </trkpt>
      <trkpt lat="45.89997" lon="6.71002">
        <ele>771</ele>
        <time>2022-07-16T04:10:29.772Z</time>
      </trkpt>
      <trkpt lat="45.90008" lon="6.71007">
        <ele>770</ele>
        <time>2022-07-16T04:10:30.643Z</time>
      </trkpt>
      <trkpt lat="45.90039" lon="6.71011">
        <ele>767</ele>
        <time>2022-07-16T04:10:32.992Z</time>
      </trkpt>
      <trkpt lat="45.90086" lon="6.71002">
        <ele>761</ele>
        <time>2022-07-16T04:10:36.571Z</time>
      </trkpt>
      <trkpt lat="45.90109" lon="6.71006">
        <ele>758</ele>
        <time>2022-07-16T04:10:38.320Z</time>
      </trkpt>
      <trkpt lat="45.90132" lon="6.71016">
        <ele>757</ele>
        <time>2022-07-16T04:10:40.370Z</time>
      </trkpt>
      <trkpt lat="45.90143" lon="6.71026">
        <ele>757</ele>
        <time>2022-07-16T04:10:42.101Z</time>
      </trkpt>
      <trkpt lat="45.9015" lon="6.7104">
        <ele>759</ele>
        <time>2022-07-16T04:10:48.255Z</time>
      </trkpt>
      <trkpt lat="45.90158" lon="6.71072">
        <ele>763</ele>
        <time>2022-07-16T04:11:00.392Z</time>
      </trkpt>
      <trkpt lat="45.90169" lon="6.71085">
        <ele>764</ele>
        <time>2022-07-16T04:11:04.210Z</time>
      </trkpt>
      <trkpt lat="45.90182" lon="6.71095">
        <ele>761</ele>
        <time>2022-07-16T04:11:05.323Z</time>
      </trkpt>
      <trkpt lat="45.90237" lon="6.71117">
        <ele>746</ele>
        <time>2022-07-16T04:11:09.632Z</time>
      </trkpt>
      <trkpt lat="45.90245" lon="6.71133">
        <ele>744</ele>
        <time>2022-07-16T04:11:10.667Z</time>
      </trkpt>
      <trkpt lat="45.90245" lon="6.71155">
        <ele>745</ele>
        <time>2022-07-16T04:11:14.624Z</time>
      </trkpt>
      <trkpt lat="45.90229" lon="6.7119">
        <ele>752</ele>
        <time>2022-07-16T04:11:29.572Z</time>
      </trkpt>
      <trkpt lat="45.90216" lon="6.71253">
        <ele>757</ele>
        <time>2022-07-16T04:11:46.970Z</time>
      </trkpt>
      <trkpt lat="45.90218" lon="6.71284">
        <ele>756</ele>
        <time>2022-07-16T04:11:48.743Z</time>
      </trkpt>
      <trkpt lat="45.90222" lon="6.71292">
        <ele>755</ele>
        <time>2022-07-16T04:11:49.261Z</time>
      </trkpt>
      <trkpt lat="45.90273" lon="6.71335">
        <ele>747</ele>
        <time>2022-07-16T04:11:53.724Z</time>
      </trkpt>
      <trkpt lat="45.90307" lon="6.71358">
        <ele>747</ele>
        <time>2022-07-16T04:11:58.721Z</time>
      </trkpt>
      <trkpt lat="45.90316" lon="6.71358">
        <ele>746</ele>
        <time>2022-07-16T04:11:59.400Z</time>
      </trkpt>
      <trkpt lat="45.90338" lon="6.71341">
        <ele>737</ele>
        <time>2022-07-16T04:12:01.286Z</time>
      </trkpt>
      <trkpt lat="45.90346" lon="6.71339">
        <ele>737</ele>
        <time>2022-07-16T04:12:02.366Z</time>
      </trkpt>
      <trkpt lat="45.90381" lon="6.71344">
        <ele>739</ele>
        <time>2022-07-16T04:12:10.930Z</time>
      </trkpt>
      <trkpt lat="45.90519" lon="6.713">
        <ele>713</ele>
        <time>2022-07-16T04:12:21.598Z</time>
      </trkpt>
      <trkpt lat="45.90532" lon="6.71304">
        <ele>712</ele>
        <time>2022-07-16T04:12:22.602Z</time>
      </trkpt>
      <trkpt lat="45.90542" lon="6.71315">
        <ele>713</ele>
        <time>2022-07-16T04:12:26.229Z</time>
      </trkpt>
      <trkpt lat="45.90573" lon="6.71363">
        <ele>718</ele>
        <time>2022-07-16T04:12:43.638Z</time>
      </trkpt>
      <trkpt lat="45.90605" lon="6.71386">
        <ele>711</ele>
        <time>2022-07-16T04:12:46.338Z</time>
      </trkpt>
      <trkpt lat="45.90633" lon="6.71421">
        <ele>706</ele>
        <time>2022-07-16T04:12:49.139Z</time>
      </trkpt>
      <trkpt lat="45.90644" lon="6.71437">
        <ele>705</ele>
        <time>2022-07-16T04:12:50.245Z</time>
      </trkpt>
      <trkpt lat="45.90676" lon="6.715">
        <ele>703</ele>
        <time>2022-07-16T04:12:55.093Z</time>
      </trkpt>
      <trkpt lat="45.90686" lon="6.71515">
        <ele>703</ele>
        <time>2022-07-16T04:12:57.015Z</time>
      </trkpt>
      <trkpt lat="45.90699" lon="6.71531">
        <ele>702</ele>
        <time>2022-07-16T04:12:58.278Z</time>
      </trkpt>
      <trkpt lat="45.90738" lon="6.71568">
        <ele>696</ele>
        <time>2022-07-16T04:13:01.805Z</time>
      </trkpt>
      <trkpt lat="45.90751" lon="6.71613">
        <ele>697</ele>
        <time>2022-07-16T04:13:07.982Z</time>
      </trkpt>
      <trkpt lat="45.90775" lon="6.71655">
        <ele>698</ele>
        <time>2022-07-16T04:13:14.619Z</time>
      </trkpt>
      <trkpt lat="45.908" lon="6.71683">
        <ele>698</ele>
        <time>2022-07-16T04:13:18.834Z</time>
      </trkpt>
      <trkpt lat="45.90828" lon="6.717">
        <ele>694</ele>
        <time>2022-07-16T04:13:21.128Z</time>
      </trkpt>
      <trkpt lat="45.90835" lon="6.71707">
        <ele>694</ele>
        <time>2022-07-16T04:13:22.262Z</time>
      </trkpt>
      <trkpt lat="45.90847" lon="6.71748">
        <ele>696</ele>
        <time>2022-07-16T04:13:30.221Z</time>
      </trkpt>
      <trkpt lat="45.90853" lon="6.71757">
        <ele>696</ele>
        <time>2022-07-16T04:13:31.375Z</time>
      </trkpt>
      <trkpt lat="45.90869" lon="6.71763">
        <ele>694</ele>
        <time>2022-07-16T04:13:32.623Z</time>
      </trkpt>
      <trkpt lat="45.90923" lon="6.7175">
        <ele>684</ele>
        <time>2022-07-16T04:13:36.755Z</time>
      </trkpt>
      <trkpt lat="45.90937" lon="6.71756">
        <ele>683</ele>
        <time>2022-07-16T04:13:37.858Z</time>
      </trkpt>
      <trkpt lat="45.90974" lon="6.71819">
        <ele>684</ele>
        <time>2022-07-16T04:13:46.936Z</time>
      </trkpt>
      <trkpt lat="45.91026" lon="6.71895">
        <ele>684</ele>
        <time>2022-07-16T04:13:56.799Z</time>
      </trkpt>
      <trkpt lat="45.91037" lon="6.71903">
        <ele>685</ele>
        <time>2022-07-16T04:14:00.400Z</time>
      </trkpt>
      <trkpt lat="45.91046" lon="6.71902">
        <ele>684</ele>
        <time>2022-07-16T04:14:01.081Z</time>
      </trkpt>
      <trkpt lat="45.91052" lon="6.71895">
        <ele>682</ele>
        <time>2022-07-16T04:14:01.664Z</time>
      </trkpt>
      <trkpt lat="45.91054" lon="6.71878">
        <ele>679</ele>
        <time>2022-07-16T04:14:02.570Z</time>
      </trkpt>
      <trkpt lat="45.9105" lon="6.71868">
        <ele>678</ele>
        <time>2022-07-16T04:14:03.175Z</time>
      </trkpt>
      <trkpt lat="45.91027" lon="6.71838">
        <ele>677</ele>
        <time>2022-07-16T04:14:06.083Z</time>
      </trkpt>
      <trkpt lat="45.90995" lon="6.71779">
        <ele>676</ele>
        <time>2022-07-16T04:14:11.703Z</time>
      </trkpt>
      <trkpt lat="45.90984" lon="6.71763">
        <ele>676</ele>
        <time>2022-07-16T04:14:13.784Z</time>
      </trkpt>
      <trkpt lat="45.90982" lon="6.71757">
        <ele>676</ele>
        <time>2022-07-16T04:14:14.400Z</time>
      </trkpt>
      <trkpt lat="45.90983" lon="6.71722">
        <ele>670</ele>
        <time>2022-07-16T04:14:16.240Z</time>
      </trkpt>
      <trkpt lat="45.90979" lon="6.71705">
        <ele>668</ele>
        <time>2022-07-16T04:14:17.182Z</time>
      </trkpt>
      <trkpt lat="45.9097" lon="6.71695">
        <ele>668</ele>
        <time>2022-07-16T04:14:18.695Z</time>
      </trkpt>
      <trkpt lat="45.90963" lon="6.71691">
        <ele>668</ele>
        <time>2022-07-16T04:14:19.697Z</time>
      </trkpt>
      <trkpt lat="45.90929" lon="6.71694">
        <ele>674</ele>
        <time>2022-07-16T04:14:37.170Z</time>
      </trkpt>
      <trkpt lat="45.90919" lon="6.71686">
        <ele>675</ele>
        <time>2022-07-16T04:14:40.694Z</time>
      </trkpt>
      <trkpt lat="45.90916" lon="6.7168">
        <ele>674</ele>
        <time>2022-07-16T04:14:41.082Z</time>
      </trkpt>
      <trkpt lat="45.90913" lon="6.71672">
        <ele>674</ele>
        <time>2022-07-16T04:14:41.923Z</time>
      </trkpt>
      <trkpt lat="45.90914" lon="6.71659">
        <ele>671</ele>
        <time>2022-07-16T04:14:42.610Z</time>
      </trkpt>
      <trkpt lat="45.90928" lon="6.7162">
        <ele>663</ele>
        <time>2022-07-16T04:14:44.915Z</time>
      </trkpt>
      <trkpt lat="45.90929" lon="6.7161">
        <ele>661</ele>
        <time>2022-07-16T04:14:45.445Z</time>
      </trkpt>
      <trkpt lat="45.90924" lon="6.7159">
        <ele>658</ele>
        <time>2022-07-16T04:14:46.561Z</time>
      </trkpt>
      <trkpt lat="45.9089" lon="6.71538">
        <ele>658</ele>
        <time>2022-07-16T04:14:53.164Z</time>
      </trkpt>
      <trkpt lat="45.90875" lon="6.71509">
        <ele>657</ele>
        <time>2022-07-16T04:14:55.348Z</time>
      </trkpt>
      <trkpt lat="45.90827" lon="6.71378">
        <ele>647</ele>
        <time>2022-07-16T04:15:03.123Z</time>
      </trkpt>
      <trkpt lat="45.90802" lon="6.71334">
        <ele>646</ele>
        <time>2022-07-16T04:15:07.104Z</time>
      </trkpt>
      <trkpt lat="45.90784" lon="6.7131">
        <ele>647</ele>
        <time>2022-07-16T04:15:12.312Z</time>
      </trkpt>
      <trkpt lat="45.90767" lon="6.71282">
        <ele>647</ele>
        <time>2022-07-16T04:15:15.751Z</time>
      </trkpt>
      <trkpt lat="45.90729" lon="6.71173">
        <ele>639</ele>
        <time>2022-07-16T04:15:22.154Z</time>
      </trkpt>
      <trkpt lat="45.90703" lon="6.71096">
        <ele>634</ele>
        <time>2022-07-16T04:15:26.648Z</time>
      </trkpt>
      <trkpt lat="45.90693" lon="6.71047">
        <ele>631</ele>
        <time>2022-07-16T04:15:29.330Z</time>
      </trkpt>
      <trkpt lat="45.90678" lon="6.7095">
        <ele>625</ele>
        <time>2022-07-16T04:15:34.549Z</time>
      </trkpt>
      <trkpt lat="45.90662" lon="6.7091">
        <ele>623</ele>
        <time>2022-07-16T04:15:36.845Z</time>
      </trkpt>
      <trkpt lat="45.90626" lon="6.70846">
        <ele>619</ele>
        <time>2022-07-16T04:15:41.167Z</time>
      </trkpt>
      <trkpt lat="45.90612" lon="6.70802">
        <ele>617</ele>
        <time>2022-07-16T04:15:43.630Z</time>
      </trkpt>
      <trkpt lat="45.90602" lon="6.70734">
        <ele>615</ele>
        <time>2022-07-16T04:15:47.768Z</time>
      </trkpt>
      <trkpt lat="45.90596" lon="6.70653">
        <ele>612</ele>
        <time>2022-07-16T04:15:52.142Z</time>
      </trkpt>
      <trkpt lat="45.90599" lon="6.70641">
        <ele>611</ele>
        <time>2022-07-16T04:15:52.812Z</time>
      </trkpt>
      <trkpt lat="45.90588" lon="6.70569">
        <ele>607</ele>
        <time>2022-07-16T04:15:56.683Z</time>
      </trkpt>
      <trkpt lat="45.90582" lon="6.70554">
        <ele>607</ele>
        <time>2022-07-16T04:15:58.284Z</time>
      </trkpt>
      <trkpt lat="45.90553" lon="6.70438">
        <ele>602</ele>
        <time>2022-07-16T04:16:04.617Z</time>
      </trkpt>
      <trkpt lat="45.90523" lon="6.70383">
        <ele>599</ele>
        <time>2022-07-16T04:16:08.111Z</time>
      </trkpt>
      <trkpt lat="45.90516" lon="6.70361">
        <ele>597</ele>
        <time>2022-07-16T04:16:09.381Z</time>
      </trkpt>
      <trkpt lat="45.90517" lon="6.70349">
        <ele>596</ele>
        <time>2022-07-16T04:16:10.016Z</time>
      </trkpt>
      <trkpt lat="45.90534" lon="6.70344">
        <ele>595</ele>
        <time>2022-07-16T04:16:11.304Z</time>
      </trkpt>
      <trkpt lat="45.90547" lon="6.70345">
        <ele>595</ele>
        <time>2022-07-16T04:16:13.035Z</time>
      </trkpt>
      <trkpt lat="45.9058" lon="6.70356">
        <ele>595</ele>
        <time>2022-07-16T04:16:17.540Z</time>
      </trkpt>
      <trkpt lat="45.90585" lon="6.70354">
        <ele>595</ele>
        <time>2022-07-16T04:16:18.230Z</time>
      </trkpt>
      <trkpt lat="45.90619" lon="6.70374">
        <ele>594</ele>
        <time>2022-07-16T04:16:21.854Z</time>
      </trkpt>
      <trkpt lat="45.90688" lon="6.70422">
        <ele>594</ele>
        <time>2022-07-16T04:16:32.049Z</time>
      </trkpt>
      <trkpt lat="45.90786" lon="6.70481">
        <ele>588</ele>
        <time>2022-07-16T04:16:40.011Z</time>
      </trkpt>
      <trkpt lat="45.90987" lon="6.70614">
        <ele>583</ele>
        <time>2022-07-16T04:17:02.985Z</time>
      </trkpt>
      <trkpt lat="45.91001" lon="6.70633">
        <ele>583</ele>
        <time>2022-07-16T04:17:05.546Z</time>
      </trkpt>
      <trkpt lat="45.91007" lon="6.70637">
        <ele>583</ele>
        <time>2022-07-16T04:17:06.425Z</time>
      </trkpt>
      <trkpt lat="45.91019" lon="6.70652">
        <ele>583</ele>
        <time>2022-07-16T04:17:08.540Z</time>
      </trkpt>
      <trkpt lat="45.91045" lon="6.70662">
        <ele>582</ele>
        <time>2022-07-16T04:17:10.937Z</time>
      </trkpt>
      <trkpt lat="45.91073" lon="6.70677">
        <ele>582</ele>
        <time>2022-07-16T04:17:14.911Z</time>
      </trkpt>
      <trkpt lat="45.91076" lon="6.70676">
        <ele>582</ele>
        <time>2022-07-16T04:17:15.321Z</time>
      </trkpt>
      <trkpt lat="45.91101" lon="6.70692">
        <ele>581</ele>
        <time>2022-07-16T04:17:17.773Z</time>
      </trkpt>
      <trkpt lat="45.91216" lon="6.70773">
        <ele>580</ele>
        <time>2022-07-16T04:17:33.760Z</time>
      </trkpt>
      <trkpt lat="45.91267" lon="6.70802">
        <ele>580</ele>
        <time>2022-07-16T04:17:41.054Z</time>
      </trkpt>
      <trkpt lat="45.91332" lon="6.70844">
        <ele>580</ele>
        <time>2022-07-16T04:17:50.531Z</time>
      </trkpt>
      <trkpt lat="45.91985" lon="6.71281">
        <ele>589</ele>
        <time>2022-07-16T04:19:38.702Z</time>
      </trkpt>
      <trkpt lat="45.92092" lon="6.71347">
        <ele>590</ele>
        <time>2022-07-16T04:19:55.509Z</time>
      </trkpt>
      <trkpt lat="45.9213" lon="6.71381">
        <ele>589</ele>
        <time>2022-07-16T04:20:00.169Z</time>
      </trkpt>
      <trkpt lat="45.92139" lon="6.71384">
        <ele>590</ele>
        <time>2022-07-16T04:20:03.643Z</time>
      </trkpt>
      <trkpt lat="45.92147" lon="6.71378">
        <ele>590</ele>
        <time>2022-07-16T04:20:04.843Z</time>
      </trkpt>
      <trkpt lat="45.92147" lon="6.71373">
        <ele>590</ele>
        <time>2022-07-16T04:20:05.306Z</time>
      </trkpt>
      <trkpt lat="45.92156" lon="6.7137">
        <ele>590</ele>
        <time>2022-07-16T04:20:06.535Z</time>
      </trkpt>
      <trkpt lat="45.92167" lon="6.71359">
        <ele>590</ele>
        <time>2022-07-16T04:20:08.317Z</time>
      </trkpt>
      <trkpt lat="45.92228" lon="6.71315">
        <ele>588</ele>
        <time>2022-07-16T04:20:14.900Z</time>
      </trkpt>
      <trkpt lat="45.92284" lon="6.71279">
        <ele>589</ele>
        <time>2022-07-16T04:20:24.490Z</time>
      </trkpt>
      <trkpt lat="45.92328" lon="6.71256">
        <ele>589</ele>
        <time>2022-07-16T04:20:30.716Z</time>
      </trkpt>
      <trkpt lat="45.92418" lon="6.71219">
        <ele>591</ele>
        <time>2022-07-16T04:20:46.194Z</time>
      </trkpt>
      <trkpt lat="45.9243" lon="6.71212">
        <ele>593</ele>
        <time>2022-07-16T04:20:52.837Z</time>
      </trkpt>
      <trkpt lat="45.92444" lon="6.71194">
        <ele>596</ele>
        <time>2022-07-16T04:21:02.471Z</time>
      </trkpt>
      <trkpt lat="45.92448" lon="6.71178">
        <ele>598</ele>
        <time>2022-07-16T04:21:08.537Z</time>
      </trkpt>
      <trkpt lat="45.92447" lon="6.71161">
        <ele>599</ele>
        <time>2022-07-16T04:21:12.096Z</time>
      </trkpt>
      <trkpt lat="45.92433" lon="6.71101">
        <ele>601</ele>
        <time>2022-07-16T04:21:22.035Z</time>
      </trkpt>
      <trkpt lat="45.92425" lon="6.71084">
        <ele>600</ele>
        <time>2022-07-16T04:21:23.113Z</time>
      </trkpt>
      <trkpt lat="45.92396" lon="6.71038">
        <ele>597</ele>
        <time>2022-07-16T04:21:26.372Z</time>
      </trkpt>
      <trkpt lat="45.92389" lon="6.71006">
        <ele>597</ele>
        <time>2022-07-16T04:21:29.475Z</time>
      </trkpt>
      <trkpt lat="45.92386" lon="6.70946">
        <ele>599</ele>
        <time>2022-07-16T04:21:39.067Z</time>
      </trkpt>
      <trkpt lat="45.92377" lon="6.70895">
        <ele>600</ele>
        <time>2022-07-16T04:21:45.559Z</time>
      </trkpt>
      <trkpt lat="45.92381" lon="6.7087">
        <ele>602</ele>
        <time>2022-07-16T04:21:52.553Z</time>
      </trkpt>
      <trkpt lat="45.92387" lon="6.7086">
        <ele>604</ele>
        <time>2022-07-16T04:21:57.266Z</time>
      </trkpt>
      <trkpt lat="45.92395" lon="6.70854">
        <ele>606</ele>
        <time>2022-07-16T04:22:01.894Z</time>
      </trkpt>
      <trkpt lat="45.92404" lon="6.70853">
        <ele>608</ele>
        <time>2022-07-16T04:22:06.524Z</time>
      </trkpt>
      <trkpt lat="45.92411" lon="6.70855">
        <ele>609</ele>
        <time>2022-07-16T04:22:10.185Z</time>
      </trkpt>
      <trkpt lat="45.92418" lon="6.70859">
        <ele>610</ele>
        <time>2022-07-16T04:22:14.012Z</time>
      </trkpt>
      <trkpt lat="45.92424" lon="6.70869">
        <ele>611</ele>
        <time>2022-07-16T04:22:17.489Z</time>
      </trkpt>
      <trkpt lat="45.92435" lon="6.70909">
        <ele>611</ele>
        <time>2022-07-16T04:22:21.468Z</time>
      </trkpt>
      <trkpt lat="45.92455" lon="6.70958">
        <ele>614</ele>
        <time>2022-07-16T04:22:32.536Z</time>
      </trkpt>
      <trkpt lat="45.9246" lon="6.70978">
        <ele>615</ele>
        <time>2022-07-16T04:22:36.423Z</time>
      </trkpt>
      <trkpt lat="45.92461" lon="6.70996">
        <ele>614</ele>
        <time>2022-07-16T04:22:37.371Z</time>
      </trkpt>
      <trkpt lat="45.92455" lon="6.71052">
        <ele>610</ele>
        <time>2022-07-16T04:22:40.346Z</time>
      </trkpt>
      <trkpt lat="45.92455" lon="6.71064">
        <ele>610</ele>
        <time>2022-07-16T04:22:41.456Z</time>
      </trkpt>
      <trkpt lat="45.92458" lon="6.71074">
        <ele>610</ele>
        <time>2022-07-16T04:22:42.464Z</time>
      </trkpt>
      <trkpt lat="45.92466" lon="6.71085">
        <ele>612</ele>
        <time>2022-07-16T04:22:48.142Z</time>
      </trkpt>
      <trkpt lat="45.92475" lon="6.71092">
        <ele>614</ele>
        <time>2022-07-16T04:22:53.391Z</time>
      </trkpt>
      <trkpt lat="45.92482" lon="6.71093">
        <ele>616</ele>
        <time>2022-07-16T04:22:56.999Z</time>
      </trkpt>
      <trkpt lat="45.9249" lon="6.71089">
        <ele>619</ele>
        <time>2022-07-16T04:23:01.344Z</time>
      </trkpt>
      <trkpt lat="45.925" lon="6.71071">
        <ele>623</ele>
        <time>2022-07-16T04:23:09.564Z</time>
      </trkpt>
      <trkpt lat="45.92501" lon="6.7102">
        <ele>625</ele>
        <time>2022-07-16T04:23:18.175Z</time>
      </trkpt>
      <trkpt lat="45.92496" lon="6.7099">
        <ele>624</ele>
        <time>2022-07-16T04:23:19.924Z</time>
      </trkpt>
      <trkpt lat="45.92466" lon="6.70909">
        <ele>620</ele>
        <time>2022-07-16T04:23:24.476Z</time>
      </trkpt>
      <trkpt lat="45.92463" lon="6.70892">
        <ele>620</ele>
        <time>2022-07-16T04:23:26.099Z</time>
      </trkpt>
      <trkpt lat="45.92461" lon="6.7083">
        <ele>624</ele>
        <time>2022-07-16T04:23:40.031Z</time>
      </trkpt>
      <trkpt lat="45.92445" lon="6.7078">
        <ele>625</ele>
        <time>2022-07-16T04:23:46.724Z</time>
      </trkpt>
      <trkpt lat="45.92436" lon="6.70722">
        <ele>630</ele>
        <time>2022-07-16T04:24:04.688Z</time>
      </trkpt>
      <trkpt lat="45.92432" lon="6.70682">
        <ele>633</ele>
        <time>2022-07-16T04:24:15.091Z</time>
      </trkpt>
      <trkpt lat="45.92433" lon="6.70556">
        <ele>641</ele>
        <time>2022-07-16T04:24:43.027Z</time>
      </trkpt>
      <trkpt lat="45.92414" lon="6.70497">
        <ele>641</ele>
        <time>2022-07-16T04:24:49.042Z</time>
      </trkpt>
      <trkpt lat="45.92407" lon="6.70374">
        <ele>648</ele>
        <time>2022-07-16T04:25:14.204Z</time>
      </trkpt>
      <trkpt lat="45.92381" lon="6.70294">
        <ele>645</ele>
        <time>2022-07-16T04:25:19.115Z</time>
      </trkpt>
      <trkpt lat="45.92378" lon="6.70279">
        <ele>645</ele>
        <time>2022-07-16T04:25:20.558Z</time>
      </trkpt>
      <trkpt lat="45.92379" lon="6.70254">
        <ele>646</ele>
        <time>2022-07-16T04:25:24.816Z</time>
      </trkpt>
      <trkpt lat="45.92409" lon="6.70162">
        <ele>659</ele>
        <time>2022-07-16T04:26:01.070Z</time>
      </trkpt>
      <trkpt lat="45.92421" lon="6.70093">
        <ele>663</ele>
        <time>2022-07-16T04:26:15.490Z</time>
      </trkpt>
      <trkpt lat="45.9242" lon="6.70066">
        <ele>664</ele>
        <time>2022-07-16T04:26:19.956Z</time>
      </trkpt>
      <trkpt lat="45.92417" lon="6.70056">
        <ele>664</ele>
        <time>2022-07-16T04:26:20.963Z</time>
      </trkpt>
      <trkpt lat="45.92381" lon="6.69985">
        <ele>663</ele>
        <time>2022-07-16T04:26:27.793Z</time>
      </trkpt>
      <trkpt lat="45.92376" lon="6.6997">
        <ele>663</ele>
        <time>2022-07-16T04:26:29.332Z</time>
      </trkpt>
      <trkpt lat="45.92373" lon="6.69949">
        <ele>664</ele>
        <time>2022-07-16T04:26:33.236Z</time>
      </trkpt>
      <trkpt lat="45.92374" lon="6.69872">
        <ele>669</ele>
        <time>2022-07-16T04:26:50.632Z</time>
      </trkpt>
      <trkpt lat="45.92379" lon="6.69833">
        <ele>671</ele>
        <time>2022-07-16T04:26:58.156Z</time>
      </trkpt>
      <trkpt lat="45.92375" lon="6.69758">
        <ele>668</ele>
        <time>2022-07-16T04:27:02.050Z</time>
      </trkpt>
      <trkpt lat="45.92381" lon="6.69741">
        <ele>669</ele>
        <time>2022-07-16T04:27:05.749Z</time>
      </trkpt>
      <trkpt lat="45.92386" lon="6.69735">
        <ele>670</ele>
        <time>2022-07-16T04:27:09.090Z</time>
      </trkpt>
      <trkpt lat="45.92404" lon="6.69731">
        <ele>676</ele>
        <time>2022-07-16T04:27:18.433Z</time>
      </trkpt>
      <trkpt lat="45.92399" lon="6.69775">
        <ele>676</ele>
        <time>2022-07-16T04:27:22.557Z</time>
      </trkpt>
      <trkpt lat="45.92402" lon="6.69799">
        <ele>677</ele>
        <time>2022-07-16T04:27:26.747Z</time>
      </trkpt>
      <trkpt lat="45.92411" lon="6.69838">
        <ele>679</ele>
        <time>2022-07-16T04:27:34.394Z</time>
      </trkpt>
      <trkpt lat="45.92429" lon="6.69894">
        <ele>681</ele>
        <time>2022-07-16T04:27:44.156Z</time>
      </trkpt>
      <trkpt lat="45.92498" lon="6.69964">
        <ele>695</ele>
        <time>2022-07-16T04:28:27.475Z</time>
      </trkpt>
      <trkpt lat="45.92505" lon="6.69977">
        <ele>696</ele>
        <time>2022-07-16T04:28:30.999Z</time>
      </trkpt>
      <trkpt lat="45.9251" lon="6.70008">
        <ele>697</ele>
        <time>2022-07-16T04:28:35.988Z</time>
      </trkpt>
      <trkpt lat="45.92507" lon="6.70053">
        <ele>696</ele>
        <time>2022-07-16T04:28:38.943Z</time>
      </trkpt>
      <trkpt lat="45.92508" lon="6.70082">
        <ele>696</ele>
        <time>2022-07-16T04:28:41.629Z</time>
      </trkpt>
      <trkpt lat="45.92516" lon="6.70147">
        <ele>698</ele>
        <time>2022-07-16T04:28:51.789Z</time>
      </trkpt>
      <trkpt lat="45.92533" lon="6.70202">
        <ele>701</ele>
        <time>2022-07-16T04:29:03.134Z</time>
      </trkpt>
      <trkpt lat="45.92544" lon="6.7026">
        <ele>700</ele>
        <time>2022-07-16T04:29:07.412Z</time>
      </trkpt>
      <trkpt lat="45.92555" lon="6.703">
        <ele>700</ele>
        <time>2022-07-16T04:29:11.390Z</time>
      </trkpt>
      <trkpt lat="45.92563" lon="6.70349">
        <ele>699</ele>
        <time>2022-07-16T04:29:14.794Z</time>
      </trkpt>
      <trkpt lat="45.92568" lon="6.70364">
        <ele>699</ele>
        <time>2022-07-16T04:29:16.333Z</time>
      </trkpt>
      <trkpt lat="45.92613" lon="6.70427">
        <ele>708</ele>
        <time>2022-07-16T04:29:48.552Z</time>
      </trkpt>
      <trkpt lat="45.9263" lon="6.70503">
        <ele>705</ele>
        <time>2022-07-16T04:29:52.799Z</time>
      </trkpt>
      <trkpt lat="45.92649" lon="6.70549">
        <ele>705</ele>
        <time>2022-07-16T04:29:57.748Z</time>
      </trkpt>
      <trkpt lat="45.92678" lon="6.70576">
        <ele>710</ele>
        <time>2022-07-16T04:30:15.470Z</time>
      </trkpt>
      <trkpt lat="45.92698" lon="6.706">
        <ele>714</ele>
        <time>2022-07-16T04:30:28.833Z</time>
      </trkpt>
      <trkpt lat="45.92724" lon="6.70661">
        <ele>720</ele>
        <time>2022-07-16T04:30:50.358Z</time>
      </trkpt>
      <trkpt lat="45.92751" lon="6.70782">
        <ele>719</ele>
        <time>2022-07-16T04:31:00.887Z</time>
      </trkpt>
      <trkpt lat="45.92763" lon="6.70818">
        <ele>719</ele>
        <time>2022-07-16T04:31:04.579Z</time>
      </trkpt>
      <trkpt lat="45.92799" lon="6.70898">
        <ele>727</ele>
        <time>2022-07-16T04:31:33.294Z</time>
      </trkpt>
      <trkpt lat="45.92826" lon="6.70976">
        <ele>734</ele>
        <time>2022-07-16T04:31:57.983Z</time>
      </trkpt>
      <trkpt lat="45.92878" lon="6.71144">
        <ele>736</ele>
        <time>2022-07-16T04:32:17.836Z</time>
      </trkpt>
      <trkpt lat="45.92891" lon="6.71166">
        <ele>738</ele>
        <time>2022-07-16T04:32:24.753Z</time>
      </trkpt>
      <trkpt lat="45.92912" lon="6.71192">
        <ele>739</ele>
        <time>2022-07-16T04:32:30.258Z</time>
      </trkpt>
      <trkpt lat="45.92939" lon="6.71252">
        <ele>736</ele>
        <time>2022-07-16T04:32:33.868Z</time>
      </trkpt>
      <trkpt lat="45.92945" lon="6.7126">
        <ele>736</ele>
        <time>2022-07-16T04:32:34.956Z</time>
      </trkpt>
      <trkpt lat="45.92955" lon="6.71271">
        <ele>737</ele>
        <time>2022-07-16T04:32:38.583Z</time>
      </trkpt>
      <trkpt lat="45.92989" lon="6.71296">
        <ele>741</ele>
        <time>2022-07-16T04:32:52.430Z</time>
      </trkpt>
      <trkpt lat="45.93024" lon="6.71334">
        <ele>740</ele>
        <time>2022-07-16T04:32:56.973Z</time>
      </trkpt>
      <trkpt lat="45.93083" lon="6.71372">
        <ele>745</ele>
        <time>2022-07-16T04:33:15.287Z</time>
      </trkpt>
      <trkpt lat="45.93092" lon="6.71382">
        <ele>746</ele>
        <time>2022-07-16T04:33:18.806Z</time>
      </trkpt>
      <trkpt lat="45.93134" lon="6.71446">
        <ele>749</ele>
        <time>2022-07-16T04:33:32.946Z</time>
      </trkpt>
      <trkpt lat="45.93154" lon="6.71483">
        <ele>750</ele>
        <time>2022-07-16T04:33:38.975Z</time>
      </trkpt>
      <trkpt lat="45.93159" lon="6.7151">
        <ele>750</ele>
        <time>2022-07-16T04:33:41.559Z</time>
      </trkpt>
      <trkpt lat="45.93154" lon="6.71639">
        <ele>747</ele>
        <time>2022-07-16T04:33:49.869Z</time>
      </trkpt>
      <trkpt lat="45.93157" lon="6.71646">
        <ele>747</ele>
        <time>2022-07-16T04:33:50.629Z</time>
      </trkpt>
      <trkpt lat="45.93166" lon="6.71658">
        <ele>748</ele>
        <time>2022-07-16T04:33:54.225Z</time>
      </trkpt>
      <trkpt lat="45.93192" lon="6.71671">
        <ele>750</ele>
        <time>2022-07-16T04:34:01.742Z</time>
      </trkpt>
      <trkpt lat="45.93252" lon="6.71715">
        <ele>754</ele>
        <time>2022-07-16T04:34:18.430Z</time>
      </trkpt>
      <trkpt lat="45.9327" lon="6.71789">
        <ele>750</ele>
        <time>2022-07-16T04:34:22.546Z</time>
      </trkpt>
      <trkpt lat="45.93309" lon="6.71903">
        <ele>740</ele>
        <time>2022-07-16T04:34:29.215Z</time>
      </trkpt>
      <trkpt lat="45.93316" lon="6.71912">
        <ele>742</ele>
        <time>2022-07-16T04:34:34.031Z</time>
      </trkpt>
      <trkpt lat="45.93325" lon="6.71918">
        <ele>747</ele>
        <time>2022-07-16T04:34:39.120Z</time>
      </trkpt>
      <trkpt lat="45.93351" lon="6.71929">
        <ele>757</ele>
        <time>2022-07-16T04:34:53.022Z</time>
      </trkpt>
      <trkpt lat="45.93358" lon="6.71935">
        <ele>758</ele>
        <time>2022-07-16T04:34:56.641Z</time>
      </trkpt>
      <trkpt lat="45.93387" lon="6.72006">
        <ele>753</ele>
        <time>2022-07-16T04:35:00.963Z</time>
      </trkpt>
      <trkpt lat="45.93395" lon="6.7202">
        <ele>754</ele>
        <time>2022-07-16T04:35:04.592Z</time>
      </trkpt>
      <trkpt lat="45.93431" lon="6.72047">
        <ele>765</ele>
        <time>2022-07-16T04:35:25.419Z</time>
      </trkpt>
      <trkpt lat="45.93441" lon="6.72063">
        <ele>766</ele>
        <time>2022-07-16T04:35:29.329Z</time>
      </trkpt>
      <trkpt lat="45.93445" lon="6.72077">
        <ele>765</ele>
        <time>2022-07-16T04:35:30.124Z</time>
      </trkpt>
      <trkpt lat="45.93441" lon="6.72162">
        <ele>755</ele>
        <time>2022-07-16T04:35:34.596Z</time>
      </trkpt>
      <trkpt lat="45.93442" lon="6.72181">
        <ele>754</ele>
        <time>2022-07-16T04:35:35.596Z</time>
      </trkpt>
      <trkpt lat="45.9345" lon="6.72209">
        <ele>756</ele>
        <time>2022-07-16T04:35:42.538Z</time>
      </trkpt>
      <trkpt lat="45.93487" lon="6.72278">
        <ele>766</ele>
        <time>2022-07-16T04:36:13.621Z</time>
      </trkpt>
      <trkpt lat="45.9349" lon="6.72289">
        <ele>767</ele>
        <time>2022-07-16T04:36:17.225Z</time>
      </trkpt>
      <trkpt lat="45.93492" lon="6.72328">
        <ele>764</ele>
        <time>2022-07-16T04:36:19.277Z</time>
      </trkpt>
      <trkpt lat="45.93501" lon="6.72384">
        <ele>768</ele>
        <time>2022-07-16T04:36:33.110Z</time>
      </trkpt>
      <trkpt lat="45.935" lon="6.72401">
        <ele>768</ele>
        <time>2022-07-16T04:36:34.688Z</time>
      </trkpt>
      <trkpt lat="45.93491" lon="6.72434">
        <ele>767</ele>
        <time>2022-07-16T04:36:36.813Z</time>
      </trkpt>
      <trkpt lat="45.93481" lon="6.72543">
        <ele>768</ele>
        <time>2022-07-16T04:36:48.366Z</time>
      </trkpt>
      <trkpt lat="45.93481" lon="6.72556">
        <ele>769</ele>
        <time>2022-07-16T04:36:51.853Z</time>
      </trkpt>
      <trkpt lat="45.93491" lon="6.72615">
        <ele>776</ele>
        <time>2022-07-16T04:37:13.517Z</time>
      </trkpt>
      <trkpt lat="45.93487" lon="6.72641">
        <ele>776</ele>
        <time>2022-07-16T04:37:15.980Z</time>
      </trkpt>
      <trkpt lat="45.93482" lon="6.72655">
        <ele>776</ele>
        <time>2022-07-16T04:37:17.435Z</time>
      </trkpt>
      <trkpt lat="45.93409" lon="6.72782">
        <ele>774</ele>
        <time>2022-07-16T04:37:30.072Z</time>
      </trkpt>
      <trkpt lat="45.93405" lon="6.72794">
        <ele>774</ele>
        <time>2022-07-16T04:37:31.303Z</time>
      </trkpt>
      <trkpt lat="45.93404" lon="6.7281">
        <ele>774</ele>
        <time>2022-07-16T04:37:32.788Z</time>
      </trkpt>
      <trkpt lat="45.93406" lon="6.72825">
        <ele>776</ele>
        <time>2022-07-16T04:37:38.237Z</time>
      </trkpt>
      <trkpt lat="45.93411" lon="6.72837">
        <ele>777</ele>
        <time>2022-07-16T04:37:41.696Z</time>
      </trkpt>
      <trkpt lat="45.93429" lon="6.72855">
        <ele>778</ele>
        <time>2022-07-16T04:37:46.651Z</time>
      </trkpt>
      <trkpt lat="45.9344" lon="6.7286">
        <ele>780</ele>
        <time>2022-07-16T04:37:52.569Z</time>
      </trkpt>
      <trkpt lat="45.93458" lon="6.72864">
        <ele>783</ele>
        <time>2022-07-16T04:38:01.912Z</time>
      </trkpt>
      <trkpt lat="45.93473" lon="6.72871">
        <ele>786</ele>
        <time>2022-07-16T04:38:10.001Z</time>
      </trkpt>
      <trkpt lat="45.93483" lon="6.7288">
        <ele>787</ele>
        <time>2022-07-16T04:38:13.554Z</time>
      </trkpt>
      <trkpt lat="45.9349" lon="6.72892">
        <ele>787</ele>
        <time>2022-07-16T04:38:15.002Z</time>
      </trkpt>
      <trkpt lat="45.93493" lon="6.72908">
        <ele>785</ele>
        <time>2022-07-16T04:38:15.872Z</time>
      </trkpt>
      <trkpt lat="45.93494" lon="6.72922">
        <ele>784</ele>
        <time>2022-07-16T04:38:16.611Z</time>
      </trkpt>
      <trkpt lat="45.9349" lon="6.72961">
        <ele>781</ele>
        <time>2022-07-16T04:38:18.680Z</time>
      </trkpt>
      <trkpt lat="45.93492" lon="6.72976">
        <ele>781</ele>
        <time>2022-07-16T04:38:20.093Z</time>
      </trkpt>
      <trkpt lat="45.93497" lon="6.72986">
        <ele>782</ele>
        <time>2022-07-16T04:38:23.633Z</time>
      </trkpt>
      <trkpt lat="45.93509" lon="6.72997">
        <ele>784</ele>
        <time>2022-07-16T04:38:30.933Z</time>
      </trkpt>
      <trkpt lat="45.93551" lon="6.73026">
        <ele>790</ele>
        <time>2022-07-16T04:38:53.325Z</time>
      </trkpt>
      <trkpt lat="45.93569" lon="6.73033">
        <ele>793</ele>
        <time>2022-07-16T04:39:02.890Z</time>
      </trkpt>
      <trkpt lat="45.93588" lon="6.73037">
        <ele>796</ele>
        <time>2022-07-16T04:39:12.740Z</time>
      </trkpt>
      <trkpt lat="45.93602" lon="6.73036">
        <ele>799</ele>
        <time>2022-07-16T04:39:19.930Z</time>
      </trkpt>
      <trkpt lat="45.93653" lon="6.73024">
        <ele>812</ele>
        <time>2022-07-16T04:39:46.438Z</time>
      </trkpt>
      <trkpt lat="45.93665" lon="6.73026">
        <ele>814</ele>
        <time>2022-07-16T04:39:52.635Z</time>
      </trkpt>
      <trkpt lat="45.93674" lon="6.73032">
        <ele>815</ele>
        <time>2022-07-16T04:39:56.093Z</time>
      </trkpt>
      <trkpt lat="45.93682" lon="6.73043">
        <ele>814</ele>
        <time>2022-07-16T04:39:56.928Z</time>
      </trkpt>
      <trkpt lat="45.93688" lon="6.73059">
        <ele>811</ele>
        <time>2022-07-16T04:39:57.882Z</time>
      </trkpt>
      <trkpt lat="45.93698" lon="6.731">
        <ele>804</ele>
        <time>2022-07-16T04:40:00.163Z</time>
      </trkpt>
      <trkpt lat="45.93707" lon="6.73121">
        <ele>803</ele>
        <time>2022-07-16T04:40:01.429Z</time>
      </trkpt>
      <trkpt lat="45.93754" lon="6.73204">
        <ele>802</ele>
        <time>2022-07-16T04:40:10.057Z</time>
      </trkpt>
      <trkpt lat="45.93814" lon="6.733">
        <ele>807</ele>
        <time>2022-07-16T04:40:31.740Z</time>
      </trkpt>
      <trkpt lat="45.93827" lon="6.73326">
        <ele>810</ele>
        <time>2022-07-16T04:40:43.163Z</time>
      </trkpt>
      <trkpt lat="45.9383" lon="6.73353">
        <ele>816</ele>
        <time>2022-07-16T04:40:52.917Z</time>
      </trkpt>
      <trkpt lat="45.93828" lon="6.73365">
        <ele>818</ele>
        <time>2022-07-16T04:40:57.319Z</time>
      </trkpt>
      <trkpt lat="45.9381" lon="6.73403">
        <ele>823</ele>
        <time>2022-07-16T04:41:13.720Z</time>
      </trkpt>
      <trkpt lat="45.93807" lon="6.73423">
        <ele>826</ele>
        <time>2022-07-16T04:41:21.019Z</time>
      </trkpt>
      <trkpt lat="45.93807" lon="6.73445">
        <ele>830</ele>
        <time>2022-07-16T04:41:28.867Z</time>
      </trkpt>
      <trkpt lat="45.93802" lon="6.73476">
        <ele>834</ele>
        <time>2022-07-16T04:41:40.219Z</time>
      </trkpt>
      <trkpt lat="45.93763" lon="6.73529">
        <ele>833</ele>
        <time>2022-07-16T04:41:46.053Z</time>
      </trkpt>
      <trkpt lat="45.93754" lon="6.7355">
        <ele>834</ele>
        <time>2022-07-16T04:41:50.271Z</time>
      </trkpt>
      <trkpt lat="45.9375" lon="6.73575">
        <ele>838</ele>
        <time>2022-07-16T04:41:59.422Z</time>
      </trkpt>
      <trkpt lat="45.93749" lon="6.73603">
        <ele>839</ele>
        <time>2022-07-16T04:42:03.995Z</time>
      </trkpt>
      <trkpt lat="45.93759" lon="6.73666">
        <ele>842</ele>
        <time>2022-07-16T04:42:15.734Z</time>
      </trkpt>
      <trkpt lat="45.93815" lon="6.73883">
        <ele>843</ele>
        <time>2022-07-16T04:42:38.432Z</time>
      </trkpt>
      <trkpt lat="45.93823" lon="6.73904">
        <ele>844</ele>
        <time>2022-07-16T04:42:42.577Z</time>
      </trkpt>
      <trkpt lat="45.93835" lon="6.73925">
        <ele>847</ele>
        <time>2022-07-16T04:42:52.272Z</time>
      </trkpt>
      <trkpt lat="45.93853" lon="6.73949">
        <ele>853</ele>
        <time>2022-07-16T04:43:04.864Z</time>
      </trkpt>
      <trkpt lat="45.93882" lon="6.73996">
        <ele>859</ele>
        <time>2022-07-16T04:43:27.278Z</time>
      </trkpt>
      <trkpt lat="45.93891" lon="6.7402">
        <ele>860</ele>
        <time>2022-07-16T04:43:31.768Z</time>
      </trkpt>
      <trkpt lat="45.93912" lon="6.74103">
        <ele>864</ele>
        <time>2022-07-16T04:43:47.621Z</time>
      </trkpt>
      <trkpt lat="45.93907" lon="6.7414">
        <ele>865</ele>
        <time>2022-07-16T04:43:52.979Z</time>
      </trkpt>
      <trkpt lat="45.93902" lon="6.74155">
        <ele>865</ele>
        <time>2022-07-16T04:43:54.518Z</time>
      </trkpt>
      <trkpt lat="45.9388" lon="6.74183">
        <ele>865</ele>
        <time>2022-07-16T04:43:58.425Z</time>
      </trkpt>
      <trkpt lat="45.93827" lon="6.74238">
        <ele>866</ele>
        <time>2022-07-16T04:44:08.534Z</time>
      </trkpt>
      <trkpt lat="45.93795" lon="6.74283">
        <ele>868</ele>
        <time>2022-07-16T04:44:18.591Z</time>
      </trkpt>
      <trkpt lat="45.9378" lon="6.743">
        <ele>868</ele>
        <time>2022-07-16T04:44:21.131Z</time>
      </trkpt>
      <trkpt lat="45.93739" lon="6.74324">
        <ele>864</ele>
        <time>2022-07-16T04:44:24.472Z</time>
      </trkpt>
      <trkpt lat="45.93712" lon="6.74333">
        <ele>860</ele>
        <time>2022-07-16T04:44:26.564Z</time>
      </trkpt>
      <trkpt lat="45.93699" lon="6.74343">
        <ele>859</ele>
        <time>2022-07-16T04:44:27.677Z</time>
      </trkpt>
      <trkpt lat="45.93683" lon="6.74363">
        <ele>860</ele>
        <time>2022-07-16T04:44:32.517Z</time>
      </trkpt>
      <trkpt lat="45.93669" lon="6.74388">
        <ele>862</ele>
        <time>2022-07-16T04:44:39.526Z</time>
      </trkpt>
      <trkpt lat="45.93647" lon="6.74462">
        <ele>865</ele>
        <time>2022-07-16T04:44:52.855Z</time>
      </trkpt>
      <trkpt lat="45.93639" lon="6.74498">
        <ele>866</ele>
        <time>2022-07-16T04:44:58.220Z</time>
      </trkpt>
      <trkpt lat="45.93634" lon="6.74522">
        <ele>867</ele>
        <time>2022-07-16T04:45:02.478Z</time>
      </trkpt>
      <trkpt lat="45.93633" lon="6.74602">
        <ele>875</ele>
        <time>2022-07-16T04:45:31.022Z</time>
      </trkpt>
      <trkpt lat="45.93628" lon="6.74619">
        <ele>876</ele>
        <time>2022-07-16T04:45:34.674Z</time>
      </trkpt>
      <trkpt lat="45.93622" lon="6.74628">
        <ele>875</ele>
        <time>2022-07-16T04:45:35.329Z</time>
      </trkpt>
      <trkpt lat="45.93613" lon="6.74633">
        <ele>874</ele>
        <time>2022-07-16T04:45:36.057Z</time>
      </trkpt>
      <trkpt lat="45.93595" lon="6.74633">
        <ele>869</ele>
        <time>2022-07-16T04:45:37.416Z</time>
      </trkpt>
      <trkpt lat="45.93573" lon="6.74638">
        <ele>864</ele>
        <time>2022-07-16T04:45:39.097Z</time>
      </trkpt>
      <trkpt lat="45.93556" lon="6.74648">
        <ele>861</ele>
        <time>2022-07-16T04:45:40.483Z</time>
      </trkpt>
      <trkpt lat="45.93541" lon="6.74665">
        <ele>860</ele>
        <time>2022-07-16T04:45:41.964Z</time>
      </trkpt>
      <trkpt lat="45.93532" lon="6.74685">
        <ele>859</ele>
        <time>2022-07-16T04:45:43.167Z</time>
      </trkpt>
      <trkpt lat="45.93513" lon="6.74744">
        <ele>858</ele>
        <time>2022-07-16T04:45:47.888Z</time>
      </trkpt>
      <trkpt lat="45.93504" lon="6.7481">
        <ele>862</ele>
        <time>2022-07-16T04:46:02.063Z</time>
      </trkpt>
      <trkpt lat="45.93498" lon="6.74818">
        <ele>862</ele>
        <time>2022-07-16T04:46:03.152Z</time>
      </trkpt>
      <trkpt lat="45.93471" lon="6.74832">
        <ele>856</ele>
        <time>2022-07-16T04:46:05.318Z</time>
      </trkpt>
      <trkpt lat="45.93455" lon="6.74848">
        <ele>854</ele>
        <time>2022-07-16T04:46:06.789Z</time>
      </trkpt>
      <trkpt lat="45.93444" lon="6.74886">
        <ele>857</ele>
        <time>2022-07-16T04:46:17.174Z</time>
      </trkpt>
      <trkpt lat="45.93428" lon="6.74916">
        <ele>857</ele>
        <time>2022-07-16T04:46:20.671Z</time>
      </trkpt>
      <trkpt lat="45.934" lon="6.7493">
        <ele>853</ele>
        <time>2022-07-16T04:46:22.908Z</time>
      </trkpt>
      <trkpt lat="45.9338" lon="6.74934">
        <ele>849</ele>
        <time>2022-07-16T04:46:24.432Z</time>
      </trkpt>
      <trkpt lat="45.9336" lon="6.74944">
        <ele>847</ele>
        <time>2022-07-16T04:46:26.031Z</time>
      </trkpt>
      <trkpt lat="45.93347" lon="6.74958">
        <ele>846</ele>
        <time>2022-07-16T04:46:27.199Z</time>
      </trkpt>
      <trkpt lat="45.93324" lon="6.74993">
        <ele>846</ele>
        <time>2022-07-16T04:46:31.652Z</time>
      </trkpt>
      <trkpt lat="45.93278" lon="6.75034">
        <ele>846</ele>
        <time>2022-07-16T04:46:38.850Z</time>
      </trkpt>
      <trkpt lat="45.93248" lon="6.75075">
        <ele>845</ele>
        <time>2022-07-16T04:46:43.072Z</time>
      </trkpt>
      <trkpt lat="45.93243" lon="6.7509">
        <ele>844</ele>
        <time>2022-07-16T04:46:43.945Z</time>
      </trkpt>
      <trkpt lat="45.93236" lon="6.75131">
        <ele>843</ele>
        <time>2022-07-16T04:46:46.642Z</time>
      </trkpt>
      <trkpt lat="45.9323" lon="6.75149">
        <ele>842</ele>
        <time>2022-07-16T04:46:47.690Z</time>
      </trkpt>
      <trkpt lat="45.93205" lon="6.75192">
        <ele>835</ele>
        <time>2022-07-16T04:46:50.632Z</time>
      </trkpt>
      <trkpt lat="45.93201" lon="6.75203">
        <ele>834</ele>
        <time>2022-07-16T04:46:51.283Z</time>
      </trkpt>
      <trkpt lat="45.93198" lon="6.75217">
        <ele>833</ele>
        <time>2022-07-16T04:46:52.052Z</time>
      </trkpt>
      <trkpt lat="45.93201" lon="6.7528">
        <ele>835</ele>
        <time>2022-07-16T04:47:01.975Z</time>
      </trkpt>
      <trkpt lat="45.93181" lon="6.75401">
        <ele>832</ele>
        <time>2022-07-16T04:47:09.870Z</time>
      </trkpt>
      <trkpt lat="45.9318" lon="6.75446">
        <ele>833</ele>
        <time>2022-07-16T04:47:15.756Z</time>
      </trkpt>
      <trkpt lat="45.93182" lon="6.75471">
        <ele>835</ele>
        <time>2022-07-16T04:47:22.787Z</time>
      </trkpt>
      <trkpt lat="45.93177" lon="6.75515">
        <ele>834</ele>
        <time>2022-07-16T04:47:25.687Z</time>
      </trkpt>
      <trkpt lat="45.93121" lon="6.75675">
        <ele>822</ele>
        <time>2022-07-16T04:47:35.090Z</time>
      </trkpt>
      <trkpt lat="45.93118" lon="6.75686">
        <ele>822</ele>
        <time>2022-07-16T04:47:36.183Z</time>
      </trkpt>
      <trkpt lat="45.93115" lon="6.75725">
        <ele>820</ele>
        <time>2022-07-16T04:47:38.243Z</time>
      </trkpt>
      <trkpt lat="45.93117" lon="6.75747">
        <ele>820</ele>
        <time>2022-07-16T04:47:40.295Z</time>
      </trkpt>
      <trkpt lat="45.93126" lon="6.7578">
        <ele>820</ele>
        <time>2022-07-16T04:47:43.574Z</time>
      </trkpt>
      <trkpt lat="45.93191" lon="6.75988">
        <ele>819</ele>
        <time>2022-07-16T04:48:02.807Z</time>
      </trkpt>
      <trkpt lat="45.93196" lon="6.76026">
        <ele>818</ele>
        <time>2022-07-16T04:48:05.202Z</time>
      </trkpt>
      <trkpt lat="45.93169" lon="6.76597">
        <ele>819</ele>
        <time>2022-07-16T04:48:59.385Z</time>
      </trkpt>
      <trkpt lat="45.93164" lon="6.7666">
        <ele>820</ele>
        <time>2022-07-16T04:49:06.788Z</time>
      </trkpt>
      <trkpt lat="45.9316" lon="6.76695">
        <ele>821</ele>
        <time>2022-07-16T04:49:12.006Z</time>
      </trkpt>
      <trkpt lat="45.93152" lon="6.76732">
        <ele>822</ele>
        <time>2022-07-16T04:49:17.435Z</time>
      </trkpt>
      <trkpt lat="45.9314" lon="6.7677">
        <ele>821</ele>
        <time>2022-07-16T04:49:20.090Z</time>
      </trkpt>
      <trkpt lat="45.93064" lon="6.76961">
        <ele>823</ele>
        <time>2022-07-16T04:49:43.211Z</time>
      </trkpt>
      <trkpt lat="45.93033" lon="6.77002">
        <ele>822</ele>
        <time>2022-07-16T04:49:47.528Z</time>
      </trkpt>
      <trkpt lat="45.93007" lon="6.77016">
        <ele>821</ele>
        <time>2022-07-16T04:49:50.029Z</time>
      </trkpt>
      <trkpt lat="45.92978" lon="6.77022">
        <ele>820</ele>
        <time>2022-07-16T04:49:52.718Z</time>
      </trkpt>
      <trkpt lat="45.92645" lon="6.7707">
        <ele>816</ele>
        <time>2022-07-16T04:50:32.254Z</time>
      </trkpt>
      <trkpt lat="45.92588" lon="6.77077">
        <ele>818</ele>
        <time>2022-07-16T04:50:43.446Z</time>
      </trkpt>
      <trkpt lat="45.9255" lon="6.77072">
        <ele>818</ele>
        <time>2022-07-16T04:50:48.521Z</time>
      </trkpt>
      <trkpt lat="45.92548" lon="6.77068">
        <ele>818</ele>
        <time>2022-07-16T04:50:48.976Z</time>
      </trkpt>
      <trkpt lat="45.92542" lon="6.77067">
        <ele>818</ele>
        <time>2022-07-16T04:50:49.779Z</time>
      </trkpt>
      <trkpt lat="45.92537" lon="6.77072">
        <ele>818</ele>
        <time>2022-07-16T04:50:50.589Z</time>
      </trkpt>
      <trkpt lat="45.9252" lon="6.7708">
        <ele>819</ele>
        <time>2022-07-16T04:50:54.916Z</time>
      </trkpt>
      <trkpt lat="45.92487" lon="6.77089">
        <ele>823</ele>
        <time>2022-07-16T04:51:09.187Z</time>
      </trkpt>
      <trkpt lat="45.92434" lon="6.77096">
        <ele>830</ele>
        <time>2022-07-16T04:51:35.753Z</time>
      </trkpt>
      <trkpt lat="45.92299" lon="6.77121">
        <ele>845</ele>
        <time>2022-07-16T04:52:28.022Z</time>
      </trkpt>
      <trkpt lat="45.92185" lon="6.77138">
        <ele>848</ele>
        <time>2022-07-16T04:52:48.070Z</time>
      </trkpt>
      <trkpt lat="45.92153" lon="6.77142">
        <ele>847</ele>
        <time>2022-07-16T04:52:51.110Z</time>
      </trkpt>
      <trkpt lat="45.92062" lon="6.7713">
        <ele>835</ele>
        <time>2022-07-16T04:52:58.007Z</time>
      </trkpt>
      <trkpt lat="45.92041" lon="6.77134">
        <ele>835</ele>
        <time>2022-07-16T04:53:00.824Z</time>
      </trkpt>
      <trkpt lat="45.92012" lon="6.77142">
        <ele>836</ele>
        <time>2022-07-16T04:53:06.517Z</time>
      </trkpt>
      <trkpt lat="45.91978" lon="6.77156">
        <ele>836</ele>
        <time>2022-07-16T04:53:11.221Z</time>
      </trkpt>
      <trkpt lat="45.91918" lon="6.77189">
        <ele>844</ele>
        <time>2022-07-16T04:53:40.416Z</time>
      </trkpt>
      <trkpt lat="45.91876" lon="6.77201">
        <ele>845</ele>
        <time>2022-07-16T04:53:47.660Z</time>
      </trkpt>
      <trkpt lat="45.91791" lon="6.77232">
        <ele>846</ele>
        <time>2022-07-16T04:54:00.682Z</time>
      </trkpt>
      <trkpt lat="45.91692" lon="6.77281">
        <ele>856</ele>
        <time>2022-07-16T04:54:35.374Z</time>
      </trkpt>
      <trkpt lat="45.91667" lon="6.77286">
        <ele>856</ele>
        <time>2022-07-16T04:54:38.730Z</time>
      </trkpt>
      <trkpt lat="45.91619" lon="6.77287">
        <ele>856</ele>
        <time>2022-07-16T04:54:45.114Z</time>
      </trkpt>
      <trkpt lat="45.91598" lon="6.77284">
        <ele>855</ele>
        <time>2022-07-16T04:54:46.823Z</time>
      </trkpt>
      <trkpt lat="45.91581" lon="6.77274">
        <ele>851</ele>
        <time>2022-07-16T04:54:48.210Z</time>
      </trkpt>
      <trkpt lat="45.91573" lon="6.77264">
        <ele>847</ele>
        <time>2022-07-16T04:54:49.010Z</time>
      </trkpt>
      <trkpt lat="45.91569" lon="6.77251">
        <ele>842</ele>
        <time>2022-07-16T04:54:49.756Z</time>
      </trkpt>
      <trkpt lat="45.91568" lon="6.77234">
        <ele>842</ele>
        <time>2022-07-16T04:54:51.335Z</time>
      </trkpt>
      <trkpt lat="45.91582" lon="6.771">
        <ele>851</ele>
        <time>2022-07-16T04:55:22.558Z</time>
      </trkpt>
      <trkpt lat="45.91581" lon="6.7708">
        <ele>855</ele>
        <time>2022-07-16T04:55:29.714Z</time>
      </trkpt>
      <trkpt lat="45.91574" lon="6.77062">
        <ele>858</ele>
        <time>2022-07-16T04:55:37.073Z</time>
      </trkpt>
      <trkpt lat="45.91564" lon="6.77047">
        <ele>861</ele>
        <time>2022-07-16T04:55:44.487Z</time>
      </trkpt>
      <trkpt lat="45.9155" lon="6.77036">
        <ele>862</ele>
        <time>2022-07-16T04:55:48.533Z</time>
      </trkpt>
      <trkpt lat="45.91534" lon="6.77032">
        <ele>863</ele>
        <time>2022-07-16T04:55:52.619Z</time>
      </trkpt>
      <trkpt lat="45.91518" lon="6.77035">
        <ele>863</ele>
        <time>2022-07-16T04:55:54.765Z</time>
      </trkpt>
      <trkpt lat="45.91499" lon="6.77049">
        <ele>864</ele>
        <time>2022-07-16T04:55:59.629Z</time>
      </trkpt>
      <trkpt lat="45.9148" lon="6.77101">
        <ele>865</ele>
        <time>2022-07-16T04:56:06.634Z</time>
      </trkpt>
      <trkpt lat="45.91433" lon="6.77181">
        <ele>863</ele>
        <time>2022-07-16T04:56:13.801Z</time>
      </trkpt>
      <trkpt lat="45.91408" lon="6.77235">
        <ele>858</ele>
        <time>2022-07-16T04:56:17.207Z</time>
      </trkpt>
      <trkpt lat="45.914" lon="6.77247">
        <ele>858</ele>
        <time>2022-07-16T04:56:18.745Z</time>
      </trkpt>
      <trkpt lat="45.91396" lon="6.77249">
        <ele>858</ele>
        <time>2022-07-16T04:56:19.308Z</time>
      </trkpt>
      <trkpt lat="45.91388" lon="6.77248">
        <ele>859</ele>
        <time>2022-07-16T04:56:22.957Z</time>
      </trkpt>
      <trkpt lat="45.9138" lon="6.77242">
        <ele>860</ele>
        <time>2022-07-16T04:56:26.446Z</time>
      </trkpt>
      <trkpt lat="45.91379" lon="6.77238">
        <ele>861</ele>
        <time>2022-07-16T04:56:27.963Z</time>
      </trkpt>
      <trkpt lat="45.91352" lon="6.77244">
        <ele>863</ele>
        <time>2022-07-16T04:56:35.455Z</time>
      </trkpt>
      <trkpt lat="45.91343" lon="6.7724">
        <ele>864</ele>
        <time>2022-07-16T04:56:38.920Z</time>
      </trkpt>
      <trkpt lat="45.91337" lon="6.77233">
        <ele>865</ele>
        <time>2022-07-16T04:56:42.666Z</time>
      </trkpt>
      <trkpt lat="45.91319" lon="6.77199">
        <ele>872</ele>
        <time>2022-07-16T04:56:57.913Z</time>
      </trkpt>
      <trkpt lat="45.9131" lon="6.77175">
        <ele>874</ele>
        <time>2022-07-16T04:57:04.840Z</time>
      </trkpt>
      <trkpt lat="45.9131" lon="6.77148">
        <ele>874</ele>
        <time>2022-07-16T04:57:07.339Z</time>
      </trkpt>
      <trkpt lat="45.91288" lon="6.77126">
        <ele>875</ele>
        <time>2022-07-16T04:57:12.753Z</time>
      </trkpt>
      <trkpt lat="45.91259" lon="6.77123">
        <ele>876</ele>
        <time>2022-07-16T04:57:18.398Z</time>
      </trkpt>
      <trkpt lat="45.91254" lon="6.77118">
        <ele>875</ele>
        <time>2022-07-16T04:57:18.858Z</time>
      </trkpt>
      <trkpt lat="45.91236" lon="6.7712">
        <ele>880</ele>
        <time>2022-07-16T04:57:28.119Z</time>
      </trkpt>
      <trkpt lat="45.91229" lon="6.77118">
        <ele>882</ele>
        <time>2022-07-16T04:57:31.780Z</time>
      </trkpt>
      <trkpt lat="45.9119" lon="6.7705">
        <ele>884</ele>
        <time>2022-07-16T04:57:43.408Z</time>
      </trkpt>
      <trkpt lat="45.91172" lon="6.77033">
        <ele>887</ele>
        <time>2022-07-16T04:57:54.456Z</time>
      </trkpt>
      <trkpt lat="45.91155" lon="6.7699">
        <ele>890</ele>
        <time>2022-07-16T04:58:05.035Z</time>
      </trkpt>
      <trkpt lat="45.91139" lon="6.76973">
        <ele>893</ele>
        <time>2022-07-16T04:58:15.241Z</time>
      </trkpt>
      <trkpt lat="45.91123" lon="6.7695">
        <ele>896</ele>
        <time>2022-07-16T04:58:26.706Z</time>
      </trkpt>
      <trkpt lat="45.91097" lon="6.76932">
        <ele>898</ele>
        <time>2022-07-16T04:58:34.388Z</time>
      </trkpt>
      <trkpt lat="45.91094" lon="6.76923">
        <ele>898</ele>
        <time>2022-07-16T04:58:35.312Z</time>
      </trkpt>
      <trkpt lat="45.91097" lon="6.76891">
        <ele>899</ele>
        <time>2022-07-16T04:58:40.355Z</time>
      </trkpt>
      <trkpt lat="45.911" lon="6.76879">
        <ele>899</ele>
        <time>2022-07-16T04:58:41.534Z</time>
      </trkpt>
      <trkpt lat="45.91109" lon="6.76866">
        <ele>900</ele>
        <time>2022-07-16T04:58:45.179Z</time>
      </trkpt>
      <trkpt lat="45.91111" lon="6.76853">
        <ele>900</ele>
        <time>2022-07-16T04:58:46.411Z</time>
      </trkpt>
      <trkpt lat="45.91094" lon="6.76804">
        <ele>904</ele>
        <time>2022-07-16T04:59:00.260Z</time>
      </trkpt>
      <trkpt lat="45.91092" lon="6.76791">
        <ele>904</ele>
        <time>2022-07-16T04:59:01.492Z</time>
      </trkpt>
      <trkpt lat="45.91092" lon="6.76781">
        <ele>905</ele>
        <time>2022-07-16T04:59:05.061Z</time>
      </trkpt>
      <trkpt lat="45.91102" lon="6.76757">
        <ele>906</ele>
        <time>2022-07-16T04:59:09.628Z</time>
      </trkpt>
      <trkpt lat="45.911" lon="6.76742">
        <ele>906</ele>
        <time>2022-07-16T04:59:11.042Z</time>
      </trkpt>
      <trkpt lat="45.91092" lon="6.76726">
        <ele>908</ele>
        <time>2022-07-16T04:59:18.074Z</time>
      </trkpt>
      <trkpt lat="45.91086" lon="6.76721">
        <ele>908</ele>
        <time>2022-07-16T04:59:18.996Z</time>
      </trkpt>
      <trkpt lat="45.91068" lon="6.76721">
        <ele>912</ele>
        <time>2022-07-16T04:59:28.229Z</time>
      </trkpt>
      <trkpt lat="45.91059" lon="6.76718">
        <ele>914</ele>
        <time>2022-07-16T04:59:32.968Z</time>
      </trkpt>
      <trkpt lat="45.91044" lon="6.76688">
        <ele>917</ele>
        <time>2022-07-16T04:59:43.587Z</time>
      </trkpt>
      <trkpt lat="45.91037" lon="6.76702">
        <ele>919</ele>
        <time>2022-07-16T04:59:49.740Z</time>
      </trkpt>
      <trkpt lat="45.91031" lon="6.76707">
        <ele>920</ele>
        <time>2022-07-16T04:59:53.297Z</time>
      </trkpt>
      <trkpt lat="45.91002" lon="6.76701">
        <ele>926</ele>
        <time>2022-07-16T05:00:08.326Z</time>
      </trkpt>
      <trkpt lat="45.90975" lon="6.767">
        <ele>936</ele>
        <time>2022-07-16T05:00:22.180Z</time>
      </trkpt>
      <trkpt lat="45.90967" lon="6.76696">
        <ele>940</ele>
        <time>2022-07-16T05:00:26.525Z</time>
      </trkpt>
      <trkpt lat="45.90962" lon="6.76689">
        <ele>942</ele>
        <time>2022-07-16T05:00:30.106Z</time>
      </trkpt>
      <trkpt lat="45.90957" lon="6.76678">
        <ele>944</ele>
        <time>2022-07-16T05:00:34.795Z</time>
      </trkpt>
      <trkpt lat="45.90958" lon="6.76668">
        <ele>943</ele>
        <time>2022-07-16T05:00:35.326Z</time>
      </trkpt>
      <trkpt lat="45.90963" lon="6.76655">
        <ele>943</ele>
        <time>2022-07-16T05:00:36.700Z</time>
      </trkpt>
      <trkpt lat="45.91009" lon="6.76585">
        <ele>940</ele>
        <time>2022-07-16T05:00:42.254Z</time>
      </trkpt>
      <trkpt lat="45.91029" lon="6.7657">
        <ele>937</ele>
        <time>2022-07-16T05:00:43.956Z</time>
      </trkpt>
      <trkpt lat="45.91034" lon="6.76563">
        <ele>938</ele>
        <time>2022-07-16T05:00:47.537Z</time>
      </trkpt>
      <trkpt lat="45.91035" lon="6.76554">
        <ele>940</ele>
        <time>2022-07-16T05:00:50.789Z</time>
      </trkpt>
      <trkpt lat="45.91032" lon="6.76547">
        <ele>943</ele>
        <time>2022-07-16T05:00:53.724Z</time>
      </trkpt>
      <trkpt lat="45.91026" lon="6.76545">
        <ele>947</ele>
        <time>2022-07-16T05:00:56.883Z</time>
      </trkpt>
      <trkpt lat="45.91019" lon="6.76548">
        <ele>949</ele>
        <time>2022-07-16T05:01:00.630Z</time>
      </trkpt>
      <trkpt lat="45.90989" lon="6.76596">
        <ele>946</ele>
        <time>2022-07-16T05:01:04.018Z</time>
      </trkpt>
      <trkpt lat="45.90981" lon="6.76604">
        <ele>947</ele>
        <time>2022-07-16T05:01:07.477Z</time>
      </trkpt>
      <trkpt lat="45.90925" lon="6.76627">
        <ele>965</ele>
        <time>2022-07-16T05:01:37.352Z</time>
      </trkpt>
      <trkpt lat="45.90913" lon="6.76639">
        <ele>968</ele>
        <time>2022-07-16T05:01:44.850Z</time>
      </trkpt>
      <trkpt lat="45.90909" lon="6.76661">
        <ele>965</ele>
        <time>2022-07-16T05:01:46.045Z</time>
      </trkpt>
      <trkpt lat="45.90911" lon="6.76675">
        <ele>963</ele>
        <time>2022-07-16T05:01:46.795Z</time>
      </trkpt>
      <trkpt lat="45.90916" lon="6.76687">
        <ele>960</ele>
        <time>2022-07-16T05:01:47.530Z</time>
      </trkpt>
      <trkpt lat="45.90934" lon="6.7671">
        <ele>952</ele>
        <time>2022-07-16T05:01:49.348Z</time>
      </trkpt>
      <trkpt lat="45.90937" lon="6.76721">
        <ele>951</ele>
        <time>2022-07-16T05:01:49.968Z</time>
      </trkpt>
      <trkpt lat="45.90936" lon="6.76736">
        <ele>951</ele>
        <time>2022-07-16T05:01:51.362Z</time>
      </trkpt>
      <trkpt lat="45.9093" lon="6.76756">
        <ele>952</ele>
        <time>2022-07-16T05:01:55.299Z</time>
      </trkpt>
      <trkpt lat="45.90918" lon="6.76782">
        <ele>955</ele>
        <time>2022-07-16T05:02:06.434Z</time>
      </trkpt>
      <trkpt lat="45.90906" lon="6.76798">
        <ele>958</ele>
        <time>2022-07-16T05:02:14.831Z</time>
      </trkpt>
      <trkpt lat="45.90888" lon="6.76811">
        <ele>961</ele>
        <time>2022-07-16T05:02:25.164Z</time>
      </trkpt>
      <trkpt lat="45.90872" lon="6.76818">
        <ele>964</ele>
        <time>2022-07-16T05:02:33.743Z</time>
      </trkpt>
      <trkpt lat="45.90863" lon="6.76816">
        <ele>965</ele>
        <time>2022-07-16T05:02:37.225Z</time>
      </trkpt>
      <trkpt lat="45.9086" lon="6.76812">
        <ele>966</ele>
        <time>2022-07-16T05:02:39.324Z</time>
      </trkpt>
      <trkpt lat="45.90859" lon="6.76803">
        <ele>967</ele>
        <time>2022-07-16T05:02:42.577Z</time>
      </trkpt>
      <trkpt lat="45.90862" lon="6.76796">
        <ele>967</ele>
        <time>2022-07-16T05:02:43.338Z</time>
      </trkpt>
      <trkpt lat="45.90867" lon="6.76793">
        <ele>966</ele>
        <time>2022-07-16T05:02:43.747Z</time>
      </trkpt>
      <trkpt lat="45.90875" lon="6.76794">
        <ele>964</ele>
        <time>2022-07-16T05:02:44.353Z</time>
      </trkpt>
      <trkpt lat="45.90888" lon="6.76791">
        <ele>962</ele>
        <time>2022-07-16T05:02:45.347Z</time>
      </trkpt>
      <trkpt lat="45.90896" lon="6.76784">
        <ele>960</ele>
        <time>2022-07-16T05:02:46.054Z</time>
      </trkpt>
      <trkpt lat="45.909" lon="6.76775">
        <ele>960</ele>
        <time>2022-07-16T05:02:47.042Z</time>
      </trkpt>
      <trkpt lat="45.909" lon="6.76762">
        <ele>960</ele>
        <time>2022-07-16T05:02:48.245Z</time>
      </trkpt>
      <trkpt lat="45.90895" lon="6.76751">
        <ele>962</ele>
        <time>2022-07-16T05:02:52.934Z</time>
      </trkpt>
      <trkpt lat="45.90885" lon="6.76746">
        <ele>965</ele>
        <time>2022-07-16T05:02:58.365Z</time>
      </trkpt>
      <trkpt lat="45.90876" lon="6.76746">
        <ele>967</ele>
        <time>2022-07-16T05:03:02.982Z</time>
      </trkpt>
      <trkpt lat="45.90852" lon="6.76732">
        <ele>975</ele>
        <time>2022-07-16T05:03:16.268Z</time>
      </trkpt>
      <trkpt lat="45.90844" lon="6.76733">
        <ele>977</ele>
        <time>2022-07-16T05:03:20.387Z</time>
      </trkpt>
      <trkpt lat="45.90837" lon="6.7674">
        <ele>978</ele>
        <time>2022-07-16T05:03:23.933Z</time>
      </trkpt>
      <trkpt lat="45.90829" lon="6.76761">
        <ele>978</ele>
        <time>2022-07-16T05:03:26.148Z</time>
      </trkpt>
      <trkpt lat="45.90819" lon="6.76779">
        <ele>980</ele>
        <time>2022-07-16T05:03:33.456Z</time>
      </trkpt>
      <trkpt lat="45.90808" lon="6.76783">
        <ele>984</ele>
        <time>2022-07-16T05:03:39.276Z</time>
      </trkpt>
      <trkpt lat="45.90798" lon="6.7678">
        <ele>988</ele>
        <time>2022-07-16T05:03:44.516Z</time>
      </trkpt>
      <trkpt lat="45.90795" lon="6.76772">
        <ele>989</ele>
        <time>2022-07-16T05:03:47.760Z</time>
      </trkpt>
      <trkpt lat="45.90796" lon="6.76757">
        <ele>990</ele>
        <time>2022-07-16T05:03:51.230Z</time>
      </trkpt>
      <trkpt lat="45.90802" lon="6.76742">
        <ele>990</ele>
        <time>2022-07-16T05:03:52.831Z</time>
      </trkpt>
      <trkpt lat="45.90829" lon="6.76703">
        <ele>986</ele>
        <time>2022-07-16T05:03:55.720Z</time>
      </trkpt>
      <trkpt lat="45.90838" lon="6.76684">
        <ele>986</ele>
        <time>2022-07-16T05:03:57.847Z</time>
      </trkpt>
      <trkpt lat="45.90845" lon="6.76593">
        <ele>1002</ele>
        <time>2022-07-16T05:04:30.524Z</time>
      </trkpt>
      <trkpt lat="45.9085" lon="6.76575">
        <ele>1005</ele>
        <time>2022-07-16T05:04:37.441Z</time>
      </trkpt>
      <trkpt lat="45.90864" lon="6.76552">
        <ele>1006</ele>
        <time>2022-07-16T05:04:42.291Z</time>
      </trkpt>
      <trkpt lat="45.90881" lon="6.76533">
        <ele>1006</ele>
        <time>2022-07-16T05:04:45.155Z</time>
      </trkpt>
      <trkpt lat="45.90906" lon="6.76511">
        <ele>1005</ele>
        <time>2022-07-16T05:04:47.846Z</time>
      </trkpt>
      <trkpt lat="45.90981" lon="6.76458">
        <ele>991</ele>
        <time>2022-07-16T05:04:54.154Z</time>
      </trkpt>
      <trkpt lat="45.90997" lon="6.76449">
        <ele>989</ele>
        <time>2022-07-16T05:04:55.451Z</time>
      </trkpt>
      <trkpt lat="45.91006" lon="6.76441">
        <ele>988</ele>
        <time>2022-07-16T05:04:56.249Z</time>
      </trkpt>
      <trkpt lat="45.91013" lon="6.76428">
        <ele>989</ele>
        <time>2022-07-16T05:04:59.773Z</time>
      </trkpt>
      <trkpt lat="45.91015" lon="6.76418">
        <ele>992</ele>
        <time>2022-07-16T05:05:03.487Z</time>
      </trkpt>
      <trkpt lat="45.91012" lon="6.76409">
        <ele>993</ele>
        <time>2022-07-16T05:05:07.049Z</time>
      </trkpt>
      <trkpt lat="45.91005" lon="6.76404">
        <ele>995</ele>
        <time>2022-07-16T05:05:11.058Z</time>
      </trkpt>
      <trkpt lat="45.90966" lon="6.76393">
        <ele>1003</ele>
        <time>2022-07-16T05:05:31.445Z</time>
      </trkpt>
      <trkpt lat="45.9092" lon="6.76387">
        <ele>1010</ele>
        <time>2022-07-16T05:05:55.137Z</time>
      </trkpt>
      <trkpt lat="45.90906" lon="6.76383">
        <ele>1012</ele>
        <time>2022-07-16T05:06:02.459Z</time>
      </trkpt>
      <trkpt lat="45.90872" lon="6.76369">
        <ele>1017</ele>
        <time>2022-07-16T05:06:20.601Z</time>
      </trkpt>
      <trkpt lat="45.90867" lon="6.76361">
        <ele>1017</ele>
        <time>2022-07-16T05:06:21.596Z</time>
      </trkpt>
      <trkpt lat="45.90865" lon="6.7635">
        <ele>1016</ele>
        <time>2022-07-16T05:06:22.193Z</time>
      </trkpt>
      <trkpt lat="45.90869" lon="6.7634">
        <ele>1015</ele>
        <time>2022-07-16T05:06:22.799Z</time>
      </trkpt>
      <trkpt lat="45.9089" lon="6.76319">
        <ele>1012</ele>
        <time>2022-07-16T05:06:24.730Z</time>
      </trkpt>
      <trkpt lat="45.90903" lon="6.76302">
        <ele>1012</ele>
        <time>2022-07-16T05:06:27.067Z</time>
      </trkpt>
      <trkpt lat="45.90927" lon="6.76258">
        <ele>1014</ele>
        <time>2022-07-16T05:06:36.198Z</time>
      </trkpt>
      <trkpt lat="45.90935" lon="6.7625">
        <ele>1015</ele>
        <time>2022-07-16T05:06:39.656Z</time>
      </trkpt>
      <trkpt lat="45.90946" lon="6.76244">
        <ele>1015</ele>
        <time>2022-07-16T05:06:41.221Z</time>
      </trkpt>
      <trkpt lat="45.90951" lon="6.76237">
        <ele>1016</ele>
        <time>2022-07-16T05:06:44.801Z</time>
      </trkpt>
      <trkpt lat="45.90953" lon="6.76232">
        <ele>1017</ele>
        <time>2022-07-16T05:06:46.860Z</time>
      </trkpt>
      <trkpt lat="45.90952" lon="6.76225">
        <ele>1019</ele>
        <time>2022-07-16T05:06:49.410Z</time>
      </trkpt>
      <trkpt lat="45.90945" lon="6.76214">
        <ele>1022</ele>
        <time>2022-07-16T05:06:54.730Z</time>
      </trkpt>
      <trkpt lat="45.9094" lon="6.76215">
        <ele>1022</ele>
        <time>2022-07-16T05:06:55.402Z</time>
      </trkpt>
      <trkpt lat="45.90916" lon="6.76248">
        <ele>1017</ele>
        <time>2022-07-16T05:06:57.909Z</time>
      </trkpt>
      <trkpt lat="45.90859" lon="6.76293">
        <ele>1021</ele>
        <time>2022-07-16T05:07:14.264Z</time>
      </trkpt>
      <trkpt lat="45.90849" lon="6.76299">
        <ele>1022</ele>
        <time>2022-07-16T05:07:17.750Z</time>
      </trkpt>
      <trkpt lat="45.90837" lon="6.76302">
        <ele>1024</ele>
        <time>2022-07-16T05:07:23.998Z</time>
      </trkpt>
      <trkpt lat="45.90802" lon="6.76304">
        <ele>1030</ele>
        <time>2022-07-16T05:07:41.965Z</time>
      </trkpt>
      <trkpt lat="45.90764" lon="6.76336">
        <ele>1033</ele>
        <time>2022-07-16T05:07:53.586Z</time>
      </trkpt>
      <trkpt lat="45.90757" lon="6.76337">
        <ele>1035</ele>
        <time>2022-07-16T05:07:57.194Z</time>
      </trkpt>
      <trkpt lat="45.90751" lon="6.76333">
        <ele>1036</ele>
        <time>2022-07-16T05:08:00.587Z</time>
      </trkpt>
      <trkpt lat="45.90748" lon="6.76327">
        <ele>1037</ele>
        <time>2022-07-16T05:08:03.224Z</time>
      </trkpt>
      <trkpt lat="45.90751" lon="6.76313">
        <ele>1038</ele>
        <time>2022-07-16T05:08:06.685Z</time>
      </trkpt>
      <trkpt lat="45.90773" lon="6.763">
        <ele>1036</ele>
        <time>2022-07-16T05:08:08.480Z</time>
      </trkpt>
      <trkpt lat="45.90792" lon="6.76277">
        <ele>1036</ele>
        <time>2022-07-16T05:08:11.784Z</time>
      </trkpt>
      <trkpt lat="45.90818" lon="6.76261">
        <ele>1033</ele>
        <time>2022-07-16T05:08:13.919Z</time>
      </trkpt>
      <trkpt lat="45.90824" lon="6.76254">
        <ele>1033</ele>
        <time>2022-07-16T05:08:14.947Z</time>
      </trkpt>
      <trkpt lat="45.90836" lon="6.76204">
        <ele>1044</ele>
        <time>2022-07-16T05:08:33.824Z</time>
      </trkpt>
      <trkpt lat="45.90836" lon="6.76193">
        <ele>1047</ele>
        <time>2022-07-16T05:08:37.750Z</time>
      </trkpt>
      <trkpt lat="45.90832" lon="6.76182">
        <ele>1051</ele>
        <time>2022-07-16T05:08:42.180Z</time>
      </trkpt>
      <trkpt lat="45.9082" lon="6.76179">
        <ele>1053</ele>
        <time>2022-07-16T05:08:48.428Z</time>
      </trkpt>
      <trkpt lat="45.90812" lon="6.76184">
        <ele>1053</ele>
        <time>2022-07-16T05:08:49.588Z</time>
      </trkpt>
      <trkpt lat="45.908" lon="6.762">
        <ele>1050</ele>
        <time>2022-07-16T05:08:50.823Z</time>
      </trkpt>
      <trkpt lat="45.90788" lon="6.76206">
        <ele>1050</ele>
        <time>2022-07-16T05:08:52.513Z</time>
      </trkpt>
      <trkpt lat="45.90767" lon="6.76202">
        <ele>1054</ele>
        <time>2022-07-16T05:09:03.379Z</time>
      </trkpt>
      <trkpt lat="45.90759" lon="6.76203">
        <ele>1055</ele>
        <time>2022-07-16T05:09:07.029Z</time>
      </trkpt>
      <trkpt lat="45.9075" lon="6.76208">
        <ele>1055</ele>
        <time>2022-07-16T05:09:08.312Z</time>
      </trkpt>
      <trkpt lat="45.9074" lon="6.76218">
        <ele>1055</ele>
        <time>2022-07-16T05:09:09.932Z</time>
      </trkpt>
      <trkpt lat="45.90724" lon="6.76243">
        <ele>1052</ele>
        <time>2022-07-16T05:09:11.716Z</time>
      </trkpt>
      <trkpt lat="45.90705" lon="6.7625">
        <ele>1054</ele>
        <time>2022-07-16T05:09:18.632Z</time>
      </trkpt>
      <trkpt lat="45.90676" lon="6.76247">
        <ele>1059</ele>
        <time>2022-07-16T05:09:33.546Z</time>
      </trkpt>
      <trkpt lat="45.90662" lon="6.76248">
        <ele>1061</ele>
        <time>2022-07-16T05:09:40.736Z</time>
      </trkpt>
      <trkpt lat="45.90654" lon="6.76246">
        <ele>1063</ele>
        <time>2022-07-16T05:09:44.901Z</time>
      </trkpt>
      <trkpt lat="45.90649" lon="6.7624">
        <ele>1065</ele>
        <time>2022-07-16T05:09:48.242Z</time>
      </trkpt>
      <trkpt lat="45.90647" lon="6.76222">
        <ele>1068</ele>
        <time>2022-07-16T05:09:54.748Z</time>
      </trkpt>
      <trkpt lat="45.90651" lon="6.76213">
        <ele>1069</ele>
        <time>2022-07-16T05:09:58.560Z</time>
      </trkpt>
      <trkpt lat="45.90658" lon="6.76206">
        <ele>1068</ele>
        <time>2022-07-16T05:09:59.204Z</time>
      </trkpt>
      <trkpt lat="45.90684" lon="6.76192">
        <ele>1066</ele>
        <time>2022-07-16T05:10:01.299Z</time>
      </trkpt>
      <trkpt lat="45.90688" lon="6.76186">
        <ele>1067</ele>
        <time>2022-07-16T05:10:04.265Z</time>
      </trkpt>
      <trkpt lat="45.90687" lon="6.7618">
        <ele>1068</ele>
        <time>2022-07-16T05:10:06.467Z</time>
      </trkpt>
      <trkpt lat="45.90683" lon="6.76176">
        <ele>1069</ele>
        <time>2022-07-16T05:10:08.967Z</time>
      </trkpt>
      <trkpt lat="45.90651" lon="6.76193">
        <ele>1072</ele>
        <time>2022-07-16T05:10:19.524Z</time>
      </trkpt>
      <trkpt lat="45.90595" lon="6.76209">
        <ele>1081</ele>
        <time>2022-07-16T05:10:48.811Z</time>
      </trkpt>
      <trkpt lat="45.90579" lon="6.76217">
        <ele>1084</ele>
        <time>2022-07-16T05:10:57.501Z</time>
      </trkpt>
      <trkpt lat="45.90563" lon="6.76228">
        <ele>1086</ele>
        <time>2022-07-16T05:11:04.506Z</time>
      </trkpt>
      <trkpt lat="45.90554" lon="6.76241">
        <ele>1086</ele>
        <time>2022-07-16T05:11:06.203Z</time>
      </trkpt>
      <trkpt lat="45.90555" lon="6.76306">
        <ele>1082</ele>
        <time>2022-07-16T05:11:09.618Z</time>
      </trkpt>
      <trkpt lat="45.90538" lon="6.76362">
        <ele>1089</ele>
        <time>2022-07-16T05:11:31.425Z</time>
      </trkpt>
      <trkpt lat="45.90532" lon="6.76404">
        <ele>1094</ele>
        <time>2022-07-16T05:11:46.729Z</time>
      </trkpt>
      <trkpt lat="45.90522" lon="6.76447">
        <ele>1100</ele>
        <time>2022-07-16T05:12:02.912Z</time>
      </trkpt>
      <trkpt lat="45.90526" lon="6.76475">
        <ele>1100</ele>
        <time>2022-07-16T05:12:05.557Z</time>
      </trkpt>
      <trkpt lat="45.90533" lon="6.76481">
        <ele>1098</ele>
        <time>2022-07-16T05:12:06.172Z</time>
      </trkpt>
      <trkpt lat="45.9056" lon="6.76489">
        <ele>1091</ele>
        <time>2022-07-16T05:12:08.253Z</time>
      </trkpt>
      <trkpt lat="45.9057" lon="6.76496">
        <ele>1088</ele>
        <time>2022-07-16T05:12:09.092Z</time>
      </trkpt>
      <trkpt lat="45.90578" lon="6.76507">
        <ele>1087</ele>
        <time>2022-07-16T05:12:09.928Z</time>
      </trkpt>
      <trkpt lat="45.90582" lon="6.76522">
        <ele>1086</ele>
        <time>2022-07-16T05:12:10.772Z</time>
      </trkpt>
      <trkpt lat="45.90577" lon="6.76565">
        <ele>1089</ele>
        <time>2022-07-16T05:12:21.151Z</time>
      </trkpt>
      <trkpt lat="45.9057" lon="6.76589">
        <ele>1091</ele>
        <time>2022-07-16T05:12:28.123Z</time>
      </trkpt>
      <trkpt lat="45.90531" lon="6.7666">
        <ele>1106</ele>
        <time>2022-07-16T05:13:00.410Z</time>
      </trkpt>
      <trkpt lat="45.90528" lon="6.76664">
        <ele>1108</ele>
        <time>2022-07-16T05:13:02.509Z</time>
      </trkpt>
      <trkpt lat="45.90515" lon="6.76669">
        <ele>1114</ele>
        <time>2022-07-16T05:13:09.412Z</time>
      </trkpt>
      <trkpt lat="45.90509" lon="6.76674">
        <ele>1117</ele>
        <time>2022-07-16T05:13:12.969Z</time>
      </trkpt>
      <trkpt lat="45.90493" lon="6.76729">
        <ele>1123</ele>
        <time>2022-07-16T05:13:34.247Z</time>
      </trkpt>
      <trkpt lat="45.90478" lon="6.76753">
        <ele>1131</ele>
        <time>2022-07-16T05:13:45.762Z</time>
      </trkpt>
      <trkpt lat="45.90475" lon="6.76765">
        <ele>1132</ele>
        <time>2022-07-16T05:13:49.264Z</time>
      </trkpt>
      <trkpt lat="45.90475" lon="6.76776">
        <ele>1132</ele>
        <time>2022-07-16T05:13:50.282Z</time>
      </trkpt>
      <trkpt lat="45.90482" lon="6.76809">
        <ele>1128</ele>
        <time>2022-07-16T05:13:52.094Z</time>
      </trkpt>
      <trkpt lat="45.90472" lon="6.76881">
        <ele>1133</ele>
        <time>2022-07-16T05:14:09.403Z</time>
      </trkpt>
      <trkpt lat="45.90474" lon="6.76915">
        <ele>1133</ele>
        <time>2022-07-16T05:14:12.560Z</time>
      </trkpt>
      <trkpt lat="45.90516" lon="6.77013">
        <ele>1107</ele>
        <time>2022-07-16T05:14:18.605Z</time>
      </trkpt>
      <trkpt lat="45.90516" lon="6.77028">
        <ele>1106</ele>
        <time>2022-07-16T05:14:19.393Z</time>
      </trkpt>
      <trkpt lat="45.90507" lon="6.77042">
        <ele>1111</ele>
        <time>2022-07-16T05:14:26.196Z</time>
      </trkpt>
      <trkpt lat="45.90475" lon="6.77067">
        <ele>1120</ele>
        <time>2022-07-16T05:14:44.879Z</time>
      </trkpt>
      <trkpt lat="45.90465" lon="6.77081">
        <ele>1121</ele>
        <time>2022-07-16T05:14:48.661Z</time>
      </trkpt>
      <trkpt lat="45.90458" lon="6.77098">
        <ele>1120</ele>
        <time>2022-07-16T05:14:49.699Z</time>
      </trkpt>
      <trkpt lat="45.90454" lon="6.77122">
        <ele>1115</ele>
        <time>2022-07-16T05:14:50.995Z</time>
      </trkpt>
      <trkpt lat="45.90445" lon="6.77152">
        <ele>1111</ele>
        <time>2022-07-16T05:14:52.711Z</time>
      </trkpt>
      <trkpt lat="45.90428" lon="6.77177">
        <ele>1111</ele>
        <time>2022-07-16T05:14:55.946Z</time>
      </trkpt>
      <trkpt lat="45.90409" lon="6.77217">
        <ele>1106</ele>
        <time>2022-07-16T05:14:58.489Z</time>
      </trkpt>
      <trkpt lat="45.90396" lon="6.77235">
        <ele>1104</ele>
        <time>2022-07-16T05:14:59.852Z</time>
      </trkpt>
      <trkpt lat="45.90386" lon="6.77244">
        <ele>1103</ele>
        <time>2022-07-16T05:15:00.742Z</time>
      </trkpt>
      <trkpt lat="45.90372" lon="6.77252">
        <ele>1103</ele>
        <time>2022-07-16T05:15:02.746Z</time>
      </trkpt>
      <trkpt lat="45.90322" lon="6.77268">
        <ele>1106</ele>
        <time>2022-07-16T05:15:15.366Z</time>
      </trkpt>
      <trkpt lat="45.90293" lon="6.77282">
        <ele>1106</ele>
        <time>2022-07-16T05:15:19.434Z</time>
      </trkpt>
      <trkpt lat="45.90231" lon="6.77321">
        <ele>1106</ele>
        <time>2022-07-16T05:15:28.434Z</time>
      </trkpt>
      <trkpt lat="45.90183" lon="6.77383">
        <ele>1100</ele>
        <time>2022-07-16T05:15:33.306Z</time>
      </trkpt>
      <trkpt lat="45.90178" lon="6.77396">
        <ele>1098</ele>
        <time>2022-07-16T05:15:34.086Z</time>
      </trkpt>
      <trkpt lat="45.9017" lon="6.77408">
        <ele>1097</ele>
        <time>2022-07-16T05:15:34.959Z</time>
      </trkpt>
      <trkpt lat="45.90157" lon="6.77421">
        <ele>1093</ele>
        <time>2022-07-16T05:15:36.154Z</time>
      </trkpt>
      <trkpt lat="45.90131" lon="6.77432">
        <ele>1087</ele>
        <time>2022-07-16T05:15:38.200Z</time>
      </trkpt>
      <trkpt lat="45.90115" lon="6.77432">
        <ele>1086</ele>
        <time>2022-07-16T05:15:39.342Z</time>
      </trkpt>
      <trkpt lat="45.90066" lon="6.77419">
        <ele>1082</ele>
        <time>2022-07-16T05:15:43.103Z</time>
      </trkpt>
      <trkpt lat="45.90028" lon="6.77389">
        <ele>1080</ele>
        <time>2022-07-16T05:15:46.653Z</time>
      </trkpt>
      <trkpt lat="45.90011" lon="6.77368">
        <ele>1083</ele>
        <time>2022-07-16T05:15:58.153Z</time>
      </trkpt>
      <trkpt lat="45.89958" lon="6.77316">
        <ele>1082</ele>
        <time>2022-07-16T05:16:05.394Z</time>
      </trkpt>
      <trkpt lat="45.89904" lon="6.77276">
        <ele>1077</ele>
        <time>2022-07-16T05:16:09.979Z</time>
      </trkpt>
      <trkpt lat="45.89858" lon="6.7725">
        <ele>1073</ele>
        <time>2022-07-16T05:16:13.710Z</time>
      </trkpt>
      <trkpt lat="45.89812" lon="6.77234">
        <ele>1068</ele>
        <time>2022-07-16T05:16:17.282Z</time>
      </trkpt>
      <trkpt lat="45.89788" lon="6.7723">
        <ele>1066</ele>
        <time>2022-07-16T05:16:19.106Z</time>
      </trkpt>
      <trkpt lat="45.89767" lon="6.7723">
        <ele>1062</ele>
        <time>2022-07-16T05:16:20.691Z</time>
      </trkpt>
      <trkpt lat="45.89752" lon="6.77233">
        <ele>1059</ele>
        <time>2022-07-16T05:16:21.834Z</time>
      </trkpt>
      <trkpt lat="45.8974" lon="6.7724">
        <ele>1058</ele>
        <time>2022-07-16T05:16:22.811Z</time>
      </trkpt>
      <trkpt lat="45.8973" lon="6.77252">
        <ele>1056</ele>
        <time>2022-07-16T05:16:23.795Z</time>
      </trkpt>
      <trkpt lat="45.89716" lon="6.77304">
        <ele>1051</ele>
        <time>2022-07-16T05:16:26.723Z</time>
      </trkpt>
      <trkpt lat="45.8971" lon="6.77338">
        <ele>1047</ele>
        <time>2022-07-16T05:16:28.566Z</time>
      </trkpt>
      <trkpt lat="45.89683" lon="6.77625">
        <ele>1034</ele>
        <time>2022-07-16T05:16:42.735Z</time>
      </trkpt>
      <trkpt lat="45.89683" lon="6.77642">
        <ele>1033</ele>
        <time>2022-07-16T05:16:43.628Z</time>
      </trkpt>
      <trkpt lat="45.89669" lon="6.77775">
        <ele>1028</ele>
        <time>2022-07-16T05:16:50.823Z</time>
      </trkpt>
      <trkpt lat="45.89662" lon="6.77804">
        <ele>1027</ele>
        <time>2022-07-16T05:16:52.562Z</time>
      </trkpt>
      <trkpt lat="45.89649" lon="6.77838">
        <ele>1026</ele>
        <time>2022-07-16T05:16:54.969Z</time>
      </trkpt>
      <trkpt lat="45.89518" lon="6.78072">
        <ele>1019</ele>
        <time>2022-07-16T05:17:14.275Z</time>
      </trkpt>
      <trkpt lat="45.89504" lon="6.78108">
        <ele>1017</ele>
        <time>2022-07-16T05:17:16.441Z</time>
      </trkpt>
      <trkpt lat="45.89501" lon="6.78131">
        <ele>1016</ele>
        <time>2022-07-16T05:17:17.614Z</time>
      </trkpt>
      <trkpt lat="45.89499" lon="6.78131">
        <ele>1016</ele>
        <time>2022-07-16T05:17:17.880Z</time>
      </trkpt>
      <trkpt lat="45.89497" lon="6.78137">
        <ele>1015</ele>
        <time>2022-07-16T05:17:18.230Z</time>
      </trkpt>
      <trkpt lat="45.89498" lon="6.78149">
        <ele>1014</ele>
        <time>2022-07-16T05:17:18.864Z</time>
      </trkpt>
      <trkpt lat="45.89489" lon="6.78161">
        <ele>1015</ele>
        <time>2022-07-16T05:17:22.460Z</time>
      </trkpt>
      <trkpt lat="45.89476" lon="6.782">
        <ele>1015</ele>
        <time>2022-07-16T05:17:26.463Z</time>
      </trkpt>
      <trkpt lat="45.8945" lon="6.78298">
        <ele>1014</ele>
        <time>2022-07-16T05:17:34.895Z</time>
      </trkpt>
      <trkpt lat="45.89433" lon="6.78326">
        <ele>1013</ele>
        <time>2022-07-16T05:17:37.165Z</time>
      </trkpt>
      <trkpt lat="45.89406" lon="6.78355">
        <ele>1014</ele>
        <time>2022-07-16T05:17:43.320Z</time>
      </trkpt>
      <trkpt lat="45.89397" lon="6.78368">
        <ele>1015</ele>
        <time>2022-07-16T05:17:46.965Z</time>
      </trkpt>
      <trkpt lat="45.89364" lon="6.78435">
        <ele>1015</ele>
        <time>2022-07-16T05:17:54.562Z</time>
      </trkpt>
      <trkpt lat="45.89352" lon="6.78453">
        <ele>1015</ele>
        <time>2022-07-16T05:17:56.869Z</time>
      </trkpt>
      <trkpt lat="45.89271" lon="6.7853">
        <ele>1013</ele>
        <time>2022-07-16T05:18:07.189Z</time>
      </trkpt>
      <trkpt lat="45.89237" lon="6.78576">
        <ele>1006</ele>
        <time>2022-07-16T05:18:10.713Z</time>
      </trkpt>
      <trkpt lat="45.89226" lon="6.78587">
        <ele>1005</ele>
        <time>2022-07-16T05:18:11.725Z</time>
      </trkpt>
      <trkpt lat="45.89216" lon="6.78594">
        <ele>1004</ele>
        <time>2022-07-16T05:18:12.565Z</time>
      </trkpt>
      <trkpt lat="45.89181" lon="6.78604">
        <ele>1005</ele>
        <time>2022-07-16T05:18:18.949Z</time>
      </trkpt>
      <trkpt lat="45.89167" lon="6.78604">
        <ele>1006</ele>
        <time>2022-07-16T05:18:22.736Z</time>
      </trkpt>
      <trkpt lat="45.89127" lon="6.78598">
        <ele>1011</ele>
        <time>2022-07-16T05:18:40.966Z</time>
      </trkpt>
      <trkpt lat="45.89116" lon="6.78601">
        <ele>1011</ele>
        <time>2022-07-16T05:18:42.454Z</time>
      </trkpt>
      <trkpt lat="45.8909" lon="6.78621">
        <ele>1010</ele>
        <time>2022-07-16T05:18:45.167Z</time>
      </trkpt>
      <trkpt lat="45.89068" lon="6.78646">
        <ele>1009</ele>
        <time>2022-07-16T05:18:47.703Z</time>
      </trkpt>
      <trkpt lat="45.89046" lon="6.78693">
        <ele>1005</ele>
        <time>2022-07-16T05:18:50.678Z</time>
      </trkpt>
      <trkpt lat="45.89021" lon="6.78766">
        <ele>1000</ele>
        <time>2022-07-16T05:18:54.952Z</time>
      </trkpt>
      <trkpt lat="45.89" lon="6.78833">
        <ele>999</ele>
        <time>2022-07-16T05:19:00.453Z</time>
      </trkpt>
      <trkpt lat="45.88985" lon="6.78895">
        <ele>997</ele>
        <time>2022-07-16T05:19:04.275Z</time>
      </trkpt>
      <trkpt lat="45.88975" lon="6.78919">
        <ele>997</ele>
        <time>2022-07-16T05:19:06.864Z</time>
      </trkpt>
      <trkpt lat="45.88938" lon="6.79055">
        <ele>1004</ele>
        <time>2022-07-16T05:19:33.833Z</time>
      </trkpt>
      <trkpt lat="45.8893" lon="6.79125">
        <ele>1007</ele>
        <time>2022-07-16T05:19:46.185Z</time>
      </trkpt>
      <trkpt lat="45.88924" lon="6.79206">
        <ele>1008</ele>
        <time>2022-07-16T05:19:55.178Z</time>
      </trkpt>
      <trkpt lat="45.88926" lon="6.79261">
        <ele>1009</ele>
        <time>2022-07-16T05:20:01.877Z</time>
      </trkpt>
      <trkpt lat="45.88937" lon="6.79372">
        <ele>1014</ele>
        <time>2022-07-16T05:20:21.867Z</time>
      </trkpt>
      <trkpt lat="45.88937" lon="6.79409">
        <ele>1017</ele>
        <time>2022-07-16T05:20:32.478Z</time>
      </trkpt>
      <trkpt lat="45.88924" lon="6.79515">
        <ele>1020</ele>
        <time>2022-07-16T05:20:48.212Z</time>
      </trkpt>
      <trkpt lat="45.88924" lon="6.79538">
        <ele>1018</ele>
        <time>2022-07-16T05:20:49.421Z</time>
      </trkpt>
      <trkpt lat="45.8894" lon="6.79696">
        <ele>1011</ele>
        <time>2022-07-16T05:20:57.325Z</time>
      </trkpt>
      <trkpt lat="45.88951" lon="6.79737">
        <ele>1012</ele>
        <time>2022-07-16T05:21:03.131Z</time>
      </trkpt>
      <trkpt lat="45.8896" lon="6.79756">
        <ele>1012</ele>
        <time>2022-07-16T05:21:05.259Z</time>
      </trkpt>
      <trkpt lat="45.88995" lon="6.79807">
        <ele>1012</ele>
        <time>2022-07-16T05:21:11.888Z</time>
      </trkpt>
      <trkpt lat="45.89036" lon="6.79847">
        <ele>1011</ele>
        <time>2022-07-16T05:21:17.179Z</time>
      </trkpt>
      <trkpt lat="45.89062" lon="6.79864">
        <ele>1010</ele>
        <time>2022-07-16T05:21:19.778Z</time>
      </trkpt>
      <trkpt lat="45.89093" lon="6.79879">
        <ele>1009</ele>
        <time>2022-07-16T05:21:22.892Z</time>
      </trkpt>
      <trkpt lat="45.89173" lon="6.79905">
        <ele>1007</ele>
        <time>2022-07-16T05:21:31.238Z</time>
      </trkpt>
      <trkpt lat="45.89183" lon="6.79911">
        <ele>1006</ele>
        <time>2022-07-16T05:21:32.056Z</time>
      </trkpt>
      <trkpt lat="45.89193" lon="6.79921">
        <ele>1005</ele>
        <time>2022-07-16T05:21:32.975Z</time>
      </trkpt>
      <trkpt lat="45.89218" lon="6.79963">
        <ele>1004</ele>
        <time>2022-07-16T05:21:36.820Z</time>
      </trkpt>
      <trkpt lat="45.89232" lon="6.79982">
        <ele>1004</ele>
        <time>2022-07-16T05:21:39.381Z</time>
      </trkpt>
      <trkpt lat="45.89306" lon="6.80046">
        <ele>999</ele>
        <time>2022-07-16T05:21:45.779Z</time>
      </trkpt>
      <trkpt lat="45.89372" lon="6.80111">
        <ele>999</ele>
        <time>2022-07-16T05:21:56.420Z</time>
      </trkpt>
      <trkpt lat="45.89417" lon="6.80159">
        <ele>998</ele>
        <time>2022-07-16T05:22:02.571Z</time>
      </trkpt>
      <trkpt lat="45.89458" lon="6.80225">
        <ele>996</ele>
        <time>2022-07-16T05:22:08.317Z</time>
      </trkpt>
      <trkpt lat="45.89483" lon="6.80278">
        <ele>996</ele>
        <time>2022-07-16T05:22:14.243Z</time>
      </trkpt>
      <trkpt lat="45.89541" lon="6.80418">
        <ele>998</ele>
        <time>2022-07-16T05:22:32.229Z</time>
      </trkpt>
      <trkpt lat="45.89559" lon="6.80468">
        <ele>996</ele>
        <time>2022-07-16T05:22:35.301Z</time>
      </trkpt>
      <trkpt lat="45.8956" lon="6.80479">
        <ele>996</ele>
        <time>2022-07-16T05:22:36.328Z</time>
      </trkpt>
      <trkpt lat="45.89565" lon="6.8048">
        <ele>996</ele>
        <time>2022-07-16T05:22:37.000Z</time>
      </trkpt>
      <trkpt lat="45.89571" lon="6.80515">
        <ele>995</ele>
        <time>2022-07-16T05:22:39.176Z</time>
      </trkpt>
      <trkpt lat="45.89579" lon="6.80595">
        <ele>996</ele>
        <time>2022-07-16T05:22:48.112Z</time>
      </trkpt>
      <trkpt lat="45.89599" lon="6.80913">
        <ele>1000</ele>
        <time>2022-07-16T05:23:23.498Z</time>
      </trkpt>
      <trkpt lat="45.89609" lon="6.80961">
        <ele>1001</ele>
        <time>2022-07-16T05:23:29.788Z</time>
      </trkpt>
      <trkpt lat="45.8963" lon="6.81021">
        <ele>1002</ele>
        <time>2022-07-16T05:23:37.519Z</time>
      </trkpt>
      <trkpt lat="45.8964" lon="6.81043">
        <ele>1001</ele>
        <time>2022-07-16T05:23:38.910Z</time>
      </trkpt>
      <trkpt lat="45.89677" lon="6.81107">
        <ele>999</ele>
        <time>2022-07-16T05:23:44.202Z</time>
      </trkpt>
      <trkpt lat="45.89699" lon="6.81172">
        <ele>1000</ele>
        <time>2022-07-16T05:23:52.381Z</time>
      </trkpt>
      <trkpt lat="45.89706" lon="6.81218">
        <ele>1002</ele>
        <time>2022-07-16T05:24:00.595Z</time>
      </trkpt>
      <trkpt lat="45.89708" lon="6.81264">
        <ele>1003</ele>
        <time>2022-07-16T05:24:06.566Z</time>
      </trkpt>
      <trkpt lat="45.89701" lon="6.8138">
        <ele>1005</ele>
        <time>2022-07-16T05:24:20.490Z</time>
      </trkpt>
      <trkpt lat="45.89704" lon="6.81446">
        <ele>1005</ele>
        <time>2022-07-16T05:24:26.611Z</time>
      </trkpt>
      <trkpt lat="45.89722" lon="6.81606">
        <ele>1004</ele>
        <time>2022-07-16T05:24:40.492Z</time>
      </trkpt>
      <trkpt lat="45.89739" lon="6.81657">
        <ele>1004</ele>
        <time>2022-07-16T05:24:45.725Z</time>
      </trkpt>
      <trkpt lat="45.89756" lon="6.8172">
        <ele>1002</ele>
        <time>2022-07-16T05:24:49.705Z</time>
      </trkpt>
      <trkpt lat="45.89735" lon="6.81836">
        <ele>1005</ele>
        <time>2022-07-16T05:25:06.247Z</time>
      </trkpt>
      <trkpt lat="45.89728" lon="6.81893">
        <ele>1006</ele>
        <time>2022-07-16T05:25:13.181Z</time>
      </trkpt>
      <trkpt lat="45.89726" lon="6.81948">
        <ele>1006</ele>
        <time>2022-07-16T05:25:18.278Z</time>
      </trkpt>
      <trkpt lat="45.89714" lon="6.81984">
        <ele>1006</ele>
        <time>2022-07-16T05:25:21.973Z</time>
      </trkpt>
      <trkpt lat="45.89712" lon="6.82003">
        <ele>1006</ele>
        <time>2022-07-16T05:25:23.751Z</time>
      </trkpt>
      <trkpt lat="45.89711" lon="6.82056">
        <ele>1005</ele>
        <time>2022-07-16T05:25:27.395Z</time>
      </trkpt>
      <trkpt lat="45.89722" lon="6.82136">
        <ele>1005</ele>
        <time>2022-07-16T05:25:34.943Z</time>
      </trkpt>
      <trkpt lat="45.89718" lon="6.82137">
        <ele>1006</ele>
        <time>2022-07-16T05:25:37.025Z</time>
      </trkpt>
      <trkpt lat="45.8971" lon="6.82147">
        <ele>1006</ele>
        <time>2022-07-16T05:25:38.435Z</time>
      </trkpt>
      <trkpt lat="45.89711" lon="6.82165">
        <ele>1007</ele>
        <time>2022-07-16T05:25:42.060Z</time>
      </trkpt>
      <trkpt lat="45.89714" lon="6.82171">
        <ele>1007</ele>
        <time>2022-07-16T05:25:42.744Z</time>
      </trkpt>
      <trkpt lat="45.89722" lon="6.82175">
        <ele>1006</ele>
        <time>2022-07-16T05:25:43.383Z</time>
      </trkpt>
      <trkpt lat="45.8973" lon="6.82172">
        <ele>1006</ele>
        <time>2022-07-16T05:25:44.483Z</time>
      </trkpt>
      <trkpt lat="45.89734" lon="6.82166">
        <ele>1005</ele>
        <time>2022-07-16T05:25:44.919Z</time>
      </trkpt>
      <trkpt lat="45.89743" lon="6.82181">
        <ele>1005</ele>
        <time>2022-07-16T05:25:46.752Z</time>
      </trkpt>
      <trkpt lat="45.8977" lon="6.82267">
        <ele>1005</ele>
        <time>2022-07-16T05:25:55.484Z</time>
      </trkpt>
      <trkpt lat="45.89848" lon="6.82479">
        <ele>1006</ele>
        <time>2022-07-16T05:26:18.967Z</time>
      </trkpt>
      <trkpt lat="45.89916" lon="6.82596">
        <ele>1006</ele>
        <time>2022-07-16T05:26:33.074Z</time>
      </trkpt>
      <trkpt lat="45.89977" lon="6.82737">
        <ele>1008</ele>
        <time>2022-07-16T05:26:51.335Z</time>
      </trkpt>
      <trkpt lat="45.90013" lon="6.82805">
        <ele>1006</ele>
        <time>2022-07-16T05:26:56.819Z</time>
      </trkpt>
      <trkpt lat="45.90032" lon="6.82833">
        <ele>1005</ele>
        <time>2022-07-16T05:26:59.253Z</time>
      </trkpt>
      <trkpt lat="45.90055" lon="6.82858">
        <ele>1005</ele>
        <time>2022-07-16T05:27:03.088Z</time>
      </trkpt>
      <trkpt lat="45.9008" lon="6.82877">
        <ele>1005</ele>
        <time>2022-07-16T05:27:06.849Z</time>
      </trkpt>
      <trkpt lat="45.90155" lon="6.82922">
        <ele>1005</ele>
        <time>2022-07-16T05:27:17.658Z</time>
      </trkpt>
      <trkpt lat="45.90179" lon="6.8294">
        <ele>1006</ele>
        <time>2022-07-16T05:27:23.099Z</time>
      </trkpt>
      <trkpt lat="45.90198" lon="6.82958">
        <ele>1006</ele>
        <time>2022-07-16T05:27:26.125Z</time>
      </trkpt>
      <trkpt lat="45.90211" lon="6.82977">
        <ele>1006</ele>
        <time>2022-07-16T05:27:28.591Z</time>
      </trkpt>
      <trkpt lat="45.90248" lon="6.8306">
        <ele>1006</ele>
        <time>2022-07-16T05:27:37.713Z</time>
      </trkpt>
      <trkpt lat="45.90396" lon="6.83419">
        <ele>1007</ele>
        <time>2022-07-16T05:28:17.586Z</time>
      </trkpt>
      <trkpt lat="45.90409" lon="6.83457">
        <ele>1008</ele>
        <time>2022-07-16T05:28:23.272Z</time>
      </trkpt>
      <trkpt lat="45.90404" lon="6.83464">
        <ele>1009</ele>
        <time>2022-07-16T05:28:26.853Z</time>
      </trkpt>
      <trkpt lat="45.90405" lon="6.83473">
        <ele>1009</ele>
        <time>2022-07-16T05:28:27.696Z</time>
      </trkpt>
      <trkpt lat="45.90411" lon="6.83478">
        <ele>1009</ele>
        <time>2022-07-16T05:28:28.619Z</time>
      </trkpt>
      <trkpt lat="45.90417" lon="6.83473">
        <ele>1009</ele>
        <time>2022-07-16T05:28:29.541Z</time>
      </trkpt>
      <trkpt lat="45.90468" lon="6.83563">
        <ele>1012</ele>
        <time>2022-07-16T05:28:45.821Z</time>
      </trkpt>
      <trkpt lat="45.90484" lon="6.83608">
        <ele>1012</ele>
        <time>2022-07-16T05:28:50.497Z</time>
      </trkpt>
      <trkpt lat="45.90543" lon="6.83741">
        <ele>1014</ele>
        <time>2022-07-16T05:29:08.017Z</time>
      </trkpt>
      <trkpt lat="45.90619" lon="6.83898">
        <ele>1016</ele>
        <time>2022-07-16T05:29:28.541Z</time>
      </trkpt>
      <trkpt lat="45.90872" lon="6.84307">
        <ele>1021</ele>
        <time>2022-07-16T05:30:26.104Z</time>
      </trkpt>
      <trkpt lat="45.90898" lon="6.84343">
        <ele>1019</ele>
        <time>2022-07-16T05:30:28.833Z</time>
      </trkpt>
      <trkpt lat="45.90912" lon="6.84353">
        <ele>1018</ele>
        <time>2022-07-16T05:30:29.937Z</time>
      </trkpt>
      <trkpt lat="45.90926" lon="6.84358">
        <ele>1019</ele>
        <time>2022-07-16T05:30:33.778Z</time>
      </trkpt>
      <trkpt lat="45.90939" lon="6.84357">
        <ele>1020</ele>
        <time>2022-07-16T05:30:37.450Z</time>
      </trkpt>
      <trkpt lat="45.90971" lon="6.84346">
        <ele>1023</ele>
        <time>2022-07-16T05:30:47.928Z</time>
      </trkpt>
      <trkpt lat="45.90981" lon="6.84345">
        <ele>1024</ele>
        <time>2022-07-16T05:30:51.387Z</time>
      </trkpt>
      <trkpt lat="45.90994" lon="6.84352">
        <ele>1025</ele>
        <time>2022-07-16T05:30:55.160Z</time>
      </trkpt>
      <trkpt lat="45.91007" lon="6.84367">
        <ele>1025</ele>
        <time>2022-07-16T05:30:57.377Z</time>
      </trkpt>
      <trkpt lat="45.91032" lon="6.84405">
        <ele>1026</ele>
        <time>2022-07-16T05:31:03.844Z</time>
      </trkpt>
      <trkpt lat="45.91046" lon="6.84419">
        <ele>1027</ele>
        <time>2022-07-16T05:31:08.047Z</time>
      </trkpt>
      <trkpt lat="45.91084" lon="6.84439">
        <ele>1031</ele>
        <time>2022-07-16T05:31:21.887Z</time>
      </trkpt>
      <trkpt lat="45.91097" lon="6.84451">
        <ele>1031</ele>
        <time>2022-07-16T05:31:23.941Z</time>
      </trkpt>
      <trkpt lat="45.91133" lon="6.8451">
        <ele>1030</ele>
        <time>2022-07-16T05:31:29.900Z</time>
      </trkpt>
      <trkpt lat="45.91169" lon="6.84554">
        <ele>1025</ele>
        <time>2022-07-16T05:31:33.467Z</time>
      </trkpt>
      <trkpt lat="45.91546" lon="6.84902">
        <ele>1034</ele>
        <time>2022-07-16T05:32:46.487Z</time>
      </trkpt>
      <trkpt lat="45.9156" lon="6.8492">
        <ele>1035</ele>
        <time>2022-07-16T05:32:50.950Z</time>
      </trkpt>
      <trkpt lat="45.9157" lon="6.84939">
        <ele>1034</ele>
        <time>2022-07-16T05:32:52.154Z</time>
      </trkpt>
      <trkpt lat="45.91581" lon="6.84967">
        <ele>1031</ele>
        <time>2022-07-16T05:32:53.842Z</time>
      </trkpt>
      <trkpt lat="45.91592" lon="6.85014">
        <ele>1028</ele>
        <time>2022-07-16T05:32:56.446Z</time>
      </trkpt>
      <trkpt lat="45.91599" lon="6.85007">
        <ele>1030</ele>
        <time>2022-07-16T05:33:00.820Z</time>
      </trkpt>
      <trkpt lat="45.91602" lon="6.85008">
        <ele>1031</ele>
        <time>2022-07-16T05:33:02.400Z</time>
      </trkpt>
      <trkpt lat="45.91638" lon="6.85097">
        <ele>1027</ele>
        <time>2022-07-16T05:33:07.794Z</time>
      </trkpt>
      <trkpt lat="45.91642" lon="6.85113">
        <ele>1029</ele>
        <time>2022-07-16T05:33:13.862Z</time>
      </trkpt>
      <trkpt lat="45.91657" lon="6.85238">
        <ele>1039</ele>
        <time>2022-07-16T05:33:48.932Z</time>
      </trkpt>
      <trkpt lat="45.91673" lon="6.85343">
        <ele>1039</ele>
        <time>2022-07-16T05:33:58.876Z</time>
      </trkpt>
      <trkpt lat="45.91701" lon="6.85481">
        <ele>1043</ele>
        <time>2022-07-16T05:34:19.866Z</time>
      </trkpt>
      <trkpt lat="45.9171" lon="6.85548">
        <ele>1046</ele>
        <time>2022-07-16T05:34:31.949Z</time>
      </trkpt>
      <trkpt lat="45.91741" lon="6.85733">
        <ele>1048</ele>
        <time>2022-07-16T05:34:52.382Z</time>
      </trkpt>
      <trkpt lat="45.91777" lon="6.85922">
        <ele>1045</ele>
        <time>2022-07-16T05:35:06.632Z</time>
      </trkpt>
      <trkpt lat="45.91821" lon="6.86244">
        <ele>1042</ele>
        <time>2022-07-16T05:35:33.192Z</time>
      </trkpt>
      <trkpt lat="45.91842" lon="6.86342">
        <ele>1039</ele>
        <time>2022-07-16T05:35:39.256Z</time>
      </trkpt>
      <trkpt lat="45.91863" lon="6.86399">
        <ele>1038</ele>
        <time>2022-07-16T05:35:43.931Z</time>
      </trkpt>
      <trkpt lat="45.91906" lon="6.86486">
        <ele>1038</ele>
        <time>2022-07-16T05:35:53.805Z</time>
      </trkpt>
      <trkpt lat="45.91907" lon="6.86498">
        <ele>1037</ele>
        <time>2022-07-16T05:35:54.439Z</time>
      </trkpt>
      <trkpt lat="45.91898" lon="6.86508">
        <ele>1036</ele>
        <time>2022-07-16T05:35:55.298Z</time>
      </trkpt>
      <trkpt lat="45.91903" lon="6.86513">
        <ele>1037</ele>
        <time>2022-07-16T05:35:58.422Z</time>
      </trkpt>
      <trkpt lat="45.91905" lon="6.86525">
        <ele>1036</ele>
        <time>2022-07-16T05:35:59.070Z</time>
      </trkpt>
      <trkpt lat="45.91902" lon="6.86534">
        <ele>1036</ele>
        <time>2022-07-16T05:35:59.993Z</time>
      </trkpt>
      <trkpt lat="45.91905" lon="6.86546">
        <ele>1036</ele>
        <time>2022-07-16T05:36:01.173Z</time>
      </trkpt>
      <trkpt lat="45.91927" lon="6.86553">
        <ele>1037</ele>
        <time>2022-07-16T05:36:06.222Z</time>
      </trkpt>
      <trkpt lat="45.91948" lon="6.86552">
        <ele>1039</ele>
        <time>2022-07-16T05:36:13.163Z</time>
      </trkpt>
      <trkpt lat="45.91991" lon="6.86556">
        <ele>1043</ele>
        <time>2022-07-16T05:36:27.091Z</time>
      </trkpt>
      <trkpt lat="45.92017" lon="6.86564">
        <ele>1044</ele>
        <time>2022-07-16T05:36:32.486Z</time>
      </trkpt>
      <trkpt lat="45.92039" lon="6.8658">
        <ele>1045</ele>
        <time>2022-07-16T05:36:37.703Z</time>
      </trkpt>
      <trkpt lat="45.92066" lon="6.86607">
        <ele>1045</ele>
        <time>2022-07-16T05:36:42.077Z</time>
      </trkpt>
      <trkpt lat="45.92077" lon="6.8662">
        <ele>1045</ele>
        <time>2022-07-16T05:36:43.971Z</time>
      </trkpt>
      <trkpt lat="45.92091" lon="6.86647">
        <ele>1045</ele>
        <time>2022-07-16T05:36:47.086Z</time>
      </trkpt>
      <trkpt lat="45.92107" lon="6.86665">
        <ele>1046</ele>
        <time>2022-07-16T05:36:51.786Z</time>
      </trkpt>
      <trkpt lat="45.92131" lon="6.86681">
        <ele>1049</ele>
        <time>2022-07-16T05:37:02.309Z</time>
      </trkpt>
      <trkpt lat="45.9221" lon="6.86721">
        <ele>1049</ele>
        <time>2022-07-16T05:37:13.448Z</time>
      </trkpt>
      <trkpt lat="45.92239" lon="6.86732">
        <ele>1048</ele>
        <time>2022-07-16T05:37:16.223Z</time>
      </trkpt>
      <trkpt lat="45.92291" lon="6.86732">
        <ele>1049</ele>
        <time>2022-07-16T05:37:24.617Z</time>
      </trkpt>
      <trkpt lat="45.92299" lon="6.86735">
        <ele>1049</ele>
        <time>2022-07-16T05:37:25.716Z</time>
      </trkpt>
      <trkpt lat="45.92325" lon="6.86754">
        <ele>1048</ele>
        <time>2022-07-16T05:37:28.389Z</time>
      </trkpt>
      <trkpt lat="45.92343" lon="6.86761">
        <ele>1048</ele>
        <time>2022-07-16T05:37:30.868Z</time>
      </trkpt>
      <trkpt lat="45.92351" lon="6.86761">
        <ele>1048</ele>
        <time>2022-07-16T05:37:31.932Z</time>
      </trkpt>
      <trkpt lat="45.92356" lon="6.86768">
        <ele>1048</ele>
        <time>2022-07-16T05:37:32.860Z</time>
      </trkpt>
      <trkpt lat="45.92363" lon="6.86767">
        <ele>1048</ele>
        <time>2022-07-16T05:37:33.796Z</time>
      </trkpt>
      <trkpt lat="45.92366" lon="6.8676">
        <ele>1048</ele>
        <time>2022-07-16T05:37:34.557Z</time>
      </trkpt>
      <trkpt lat="45.92379" lon="6.8676">
        <ele>1048</ele>
        <time>2022-07-16T05:37:36.285Z</time>
      </trkpt>
      <trkpt lat="45.92417" lon="6.86772">
        <ele>1049</ele>
        <time>2022-07-16T05:37:43.053Z</time>
      </trkpt>
      <trkpt lat="45.9253" lon="6.86817">
        <ele>1049</ele>
        <time>2022-07-16T05:37:58.646Z</time>
      </trkpt>
      <trkpt lat="45.92545" lon="6.86829">
        <ele>1048</ele>
        <time>2022-07-16T05:37:59.914Z</time>
      </trkpt>
      <trkpt lat="45.92549" lon="6.86836">
        <ele>1047</ele>
        <time>2022-07-16T05:38:00.389Z</time>
      </trkpt>
      <trkpt lat="45.92552" lon="6.86851">
        <ele>1047</ele>
        <time>2022-07-16T05:38:01.833Z</time>
      </trkpt>
      <trkpt lat="45.92527" lon="6.86981">
        <ele>1044</ele>
        <time>2022-07-16T05:38:10.634Z</time>
      </trkpt>
      <trkpt lat="45.92638" lon="6.87015">
        <ele>1042</ele>
        <time>2022-07-16T05:38:23.124Z</time>
      </trkpt>
      <trkpt lat="45.92787" lon="6.87026">
        <ele>1049</ele>
        <time>2022-07-16T05:38:57.131Z</time>
      </trkpt>
      <trkpt lat="45.92812" lon="6.87033">
        <ele>1049</ele>
        <time>2022-07-16T05:39:00.518Z</time>
      </trkpt>
      <trkpt lat="45.92825" lon="6.8704">
        <ele>1049</ele>
        <time>2022-07-16T05:39:02.364Z</time>
      </trkpt>
      <trkpt lat="45.92846" lon="6.87047">
        <ele>1049</ele>
        <time>2022-07-16T05:39:05.231Z</time>
      </trkpt>
      <trkpt lat="45.9287" lon="6.87064">
        <ele>1049</ele>
        <time>2022-07-16T05:39:08.789Z</time>
      </trkpt>
      <trkpt lat="45.92913" lon="6.87082">
        <ele>1049</ele>
        <time>2022-07-16T05:39:14.745Z</time>
      </trkpt>
      <trkpt lat="45.92935" lon="6.87088">
        <ele>1051</ele>
        <time>2022-07-16T05:39:21.759Z</time>
      </trkpt>
      <trkpt lat="45.92958" lon="6.87101">
        <ele>1052</ele>
        <time>2022-07-16T05:39:26.981Z</time>
      </trkpt>
      <trkpt lat="45.92972" lon="6.87115">
        <ele>1053</ele>
        <time>2022-07-16T05:39:31.184Z</time>
      </trkpt>
      <trkpt lat="45.93068" lon="6.87257">
        <ele>1052</ele>
        <time>2022-07-16T05:39:48.508Z</time>
      </trkpt>
      <trkpt lat="45.93097" lon="6.87282">
        <ele>1053</ele>
        <time>2022-07-16T05:39:54.676Z</time>
      </trkpt>
      <trkpt lat="45.93178" lon="6.87335">
        <ele>1058</ele>
        <time>2022-07-16T05:40:16.244Z</time>
      </trkpt>
      <trkpt lat="45.93212" lon="6.8736">
        <ele>1058</ele>
        <time>2022-07-16T05:40:21.322Z</time>
      </trkpt>
      <trkpt lat="45.93285" lon="6.87433">
        <ele>1054</ele>
        <time>2022-07-16T05:40:28.680Z</time>
      </trkpt>
      <trkpt lat="45.93368" lon="6.87559">
        <ele>1054</ele>
        <time>2022-07-16T05:40:44.731Z</time>
      </trkpt>
      <trkpt lat="45.93404" lon="6.87606">
        <ele>1055</ele>
        <time>2022-07-16T05:40:52.699Z</time>
      </trkpt>
      <trkpt lat="45.93436" lon="6.8763">
        <ele>1057</ele>
        <time>2022-07-16T05:41:01.400Z</time>
      </trkpt>
      <trkpt lat="45.93634" lon="6.87733">
        <ele>1058</ele>
        <time>2022-07-16T05:41:30.675Z</time>
      </trkpt>
      <trkpt lat="45.93695" lon="6.87767">
        <ele>1059</ele>
        <time>2022-07-16T05:41:40.792Z</time>
      </trkpt>
      <trkpt lat="45.93715" lon="6.87782">
        <ele>1060</ele>
        <time>2022-07-16T05:41:45.843Z</time>
      </trkpt>
      <trkpt lat="45.93727" lon="6.87795">
        <ele>1060</ele>
        <time>2022-07-16T05:41:47.841Z</time>
      </trkpt>
      <trkpt lat="45.9378" lon="6.8786">
        <ele>1061</ele>
        <time>2022-07-16T05:41:58.507Z</time>
      </trkpt>
      <trkpt lat="45.93821" lon="6.87905">
        <ele>1062</ele>
        <time>2022-07-16T05:42:06.847Z</time>
      </trkpt>
      <trkpt lat="45.93856" lon="6.87932">
        <ele>1064</ele>
        <time>2022-07-16T05:42:16.105Z</time>
      </trkpt>
      <trkpt lat="45.93949" lon="6.8799">
        <ele>1065</ele>
        <time>2022-07-16T05:42:30.925Z</time>
      </trkpt>
      <trkpt lat="45.93968" lon="6.88011">
        <ele>1064</ele>
        <time>2022-07-16T05:42:32.968Z</time>
      </trkpt>
      <trkpt lat="45.93986" lon="6.88039">
        <ele>1063</ele>
        <time>2022-07-16T05:42:35.317Z</time>
      </trkpt>
      <trkpt lat="45.94" lon="6.8808">
        <ele>1060</ele>
        <time>2022-07-16T05:42:37.714Z</time>
      </trkpt>
      <trkpt lat="45.93998" lon="6.88102">
        <ele>1060</ele>
        <time>2022-07-16T05:42:39.766Z</time>
      </trkpt>
      <trkpt lat="45.93985" lon="6.88156">
        <ele>1060</ele>
        <time>2022-07-16T05:42:45.051Z</time>
      </trkpt>
      <trkpt lat="45.93982" lon="6.88183">
        <ele>1061</ele>
        <time>2022-07-16T05:42:49.549Z</time>
      </trkpt>
      <trkpt lat="45.9398" lon="6.88206">
        <ele>1062</ele>
        <time>2022-07-16T05:42:53.618Z</time>
      </trkpt>
      <trkpt lat="45.93981" lon="6.88252">
        <ele>1063</ele>
        <time>2022-07-16T05:42:59.581Z</time>
      </trkpt>
      <trkpt lat="45.94024" lon="6.88579">
        <ele>1063</ele>
        <time>2022-07-16T05:43:30.358Z</time>
      </trkpt>
      <trkpt lat="45.94038" lon="6.88619">
        <ele>1063</ele>
        <time>2022-07-16T05:43:34.499Z</time>
      </trkpt>
      <trkpt lat="45.94057" lon="6.88647">
        <ele>1063</ele>
        <time>2022-07-16T05:43:38.117Z</time>
      </trkpt>
      <trkpt lat="45.94113" lon="6.88716">
        <ele>1065</ele>
        <time>2022-07-16T05:43:51.166Z</time>
      </trkpt>
      <trkpt lat="45.94117" lon="6.88729">
        <ele>1065</ele>
        <time>2022-07-16T05:43:52.480Z</time>
      </trkpt>
      <trkpt lat="45.94116" lon="6.88742">
        <ele>1065</ele>
        <time>2022-07-16T05:43:53.690Z</time>
      </trkpt>
      <trkpt lat="45.94127" lon="6.88745">
        <ele>1065</ele>
        <time>2022-07-16T05:43:55.179Z</time>
      </trkpt>
      <trkpt lat="45.94142" lon="6.88754">
        <ele>1066</ele>
        <time>2022-07-16T05:43:59.267Z</time>
      </trkpt>
      <trkpt lat="45.9416" lon="6.88771">
        <ele>1066</ele>
        <time>2022-07-16T05:44:02.131Z</time>
      </trkpt>
      <trkpt lat="45.94185" lon="6.88802">
        <ele>1066</ele>
        <time>2022-07-16T05:44:06.521Z</time>
      </trkpt>
      <trkpt lat="45.94361" lon="6.89038">
        <ele>1072</ele>
        <time>2022-07-16T05:44:47.995Z</time>
      </trkpt>
      <trkpt lat="45.94927" lon="6.89779">
        <ele>1082</ele>
        <time>2022-07-16T05:46:43.619Z</time>
      </trkpt>
      <trkpt lat="45.94958" lon="6.89814">
        <ele>1084</ele>
        <time>2022-07-16T05:46:52.829Z</time>
      </trkpt>
      <trkpt lat="45.94965" lon="6.89819">
        <ele>1084</ele>
        <time>2022-07-16T05:46:53.868Z</time>
      </trkpt>
      <trkpt lat="45.94981" lon="6.89827">
        <ele>1085</ele>
        <time>2022-07-16T05:46:58.055Z</time>
      </trkpt>
      <trkpt lat="45.95017" lon="6.89839">
        <ele>1085</ele>
        <time>2022-07-16T05:47:02.970Z</time>
      </trkpt>
      <trkpt lat="45.95023" lon="6.89851">
        <ele>1086</ele>
        <time>2022-07-16T05:47:06.433Z</time>
      </trkpt>
      <trkpt lat="45.95029" lon="6.89872">
        <ele>1087</ele>
        <time>2022-07-16T05:47:10.455Z</time>
      </trkpt>
      <trkpt lat="45.95034" lon="6.89908">
        <ele>1088</ele>
        <time>2022-07-16T05:47:15.750Z</time>
      </trkpt>
      <trkpt lat="45.95048" lon="6.89942">
        <ele>1090</ele>
        <time>2022-07-16T05:47:23.260Z</time>
      </trkpt>
      <trkpt lat="45.95057" lon="6.89948">
        <ele>1090</ele>
        <time>2022-07-16T05:47:24.579Z</time>
      </trkpt>
      <trkpt lat="45.95266" lon="6.90218">
        <ele>1115</ele>
        <time>2022-07-16T05:48:52.320Z</time>
      </trkpt>
      <trkpt lat="45.95286" lon="6.90233">
        <ele>1120</ele>
        <time>2022-07-16T05:49:03.890Z</time>
      </trkpt>
      <trkpt lat="45.95312" lon="6.90244">
        <ele>1122</ele>
        <time>2022-07-16T05:49:11.356Z</time>
      </trkpt>
      <trkpt lat="45.95366" lon="6.90252">
        <ele>1123</ele>
        <time>2022-07-16T05:49:20.041Z</time>
      </trkpt>
      <trkpt lat="45.95418" lon="6.90255">
        <ele>1123</ele>
        <time>2022-07-16T05:49:26.962Z</time>
      </trkpt>
      <trkpt lat="45.95439" lon="6.9026">
        <ele>1124</ele>
        <time>2022-07-16T05:49:31.816Z</time>
      </trkpt>
      <trkpt lat="45.95492" lon="6.90289">
        <ele>1137</ele>
        <time>2022-07-16T05:50:00.902Z</time>
      </trkpt>
      <trkpt lat="45.95507" lon="6.90296">
        <ele>1139</ele>
        <time>2022-07-16T05:50:08.286Z</time>
      </trkpt>
      <trkpt lat="45.95522" lon="6.90299">
        <ele>1140</ele>
        <time>2022-07-16T05:50:12.221Z</time>
      </trkpt>
      <trkpt lat="45.95548" lon="6.90301">
        <ele>1139</ele>
        <time>2022-07-16T05:50:14.512Z</time>
      </trkpt>
      <trkpt lat="45.95581" lon="6.90297">
        <ele>1136</ele>
        <time>2022-07-16T05:50:17.012Z</time>
      </trkpt>
      <trkpt lat="45.95643" lon="6.90279">
        <ele>1137</ele>
        <time>2022-07-16T05:50:26.848Z</time>
      </trkpt>
      <trkpt lat="45.95655" lon="6.90281">
        <ele>1140</ele>
        <time>2022-07-16T05:50:33.044Z</time>
      </trkpt>
      <trkpt lat="45.9567" lon="6.9029">
        <ele>1145</ele>
        <time>2022-07-16T05:50:41.381Z</time>
      </trkpt>
      <trkpt lat="45.95693" lon="6.90298">
        <ele>1149</ele>
        <time>2022-07-16T05:50:53.519Z</time>
      </trkpt>
      <trkpt lat="45.95731" lon="6.90293">
        <ele>1150</ele>
        <time>2022-07-16T05:51:00.196Z</time>
      </trkpt>
      <trkpt lat="45.9574" lon="6.90289">
        <ele>1149</ele>
        <time>2022-07-16T05:51:00.907Z</time>
      </trkpt>
      <trkpt lat="45.95754" lon="6.90289">
        <ele>1150</ele>
        <time>2022-07-16T05:51:04.694Z</time>
      </trkpt>
      <trkpt lat="45.9576" lon="6.9029">
        <ele>1151</ele>
        <time>2022-07-16T05:51:07.793Z</time>
      </trkpt>
      <trkpt lat="45.95776" lon="6.90301">
        <ele>1154</ele>
        <time>2022-07-16T05:51:16.889Z</time>
      </trkpt>
      <trkpt lat="45.95802" lon="6.90326">
        <ele>1156</ele>
        <time>2022-07-16T05:51:24.893Z</time>
      </trkpt>
      <trkpt lat="45.95814" lon="6.90328">
        <ele>1155</ele>
        <time>2022-07-16T05:51:25.805Z</time>
      </trkpt>
      <trkpt lat="45.95839" lon="6.90324">
        <ele>1153</ele>
        <time>2022-07-16T05:51:27.703Z</time>
      </trkpt>
      <trkpt lat="45.95851" lon="6.90327">
        <ele>1154</ele>
        <time>2022-07-16T05:51:31.290Z</time>
      </trkpt>
      <trkpt lat="45.95859" lon="6.90333">
        <ele>1154</ele>
        <time>2022-07-16T05:51:32.490Z</time>
      </trkpt>
      <trkpt lat="45.95881" lon="6.90361">
        <ele>1159</ele>
        <time>2022-07-16T05:51:47.558Z</time>
      </trkpt>
      <trkpt lat="45.95895" lon="6.90392">
        <ele>1160</ele>
        <time>2022-07-16T05:51:52.868Z</time>
      </trkpt>
      <trkpt lat="45.95915" lon="6.90454">
        <ele>1158</ele>
        <time>2022-07-16T05:51:56.905Z</time>
      </trkpt>
      <trkpt lat="45.95932" lon="6.90557">
        <ele>1162</ele>
        <time>2022-07-16T05:52:14.521Z</time>
      </trkpt>
      <trkpt lat="45.95958" lon="6.90635">
        <ele>1166</ele>
        <time>2022-07-16T05:52:30.201Z</time>
      </trkpt>
      <trkpt lat="45.95985" lon="6.90697">
        <ele>1169</ele>
        <time>2022-07-16T05:52:42.767Z</time>
      </trkpt>
      <trkpt lat="45.96018" lon="6.90761">
        <ele>1175</ele>
        <time>2022-07-16T05:53:03.614Z</time>
      </trkpt>
      <trkpt lat="45.96033" lon="6.90782">
        <ele>1177</ele>
        <time>2022-07-16T05:53:10.551Z</time>
      </trkpt>
      <trkpt lat="45.96168" lon="6.90929">
        <ele>1184</ele>
        <time>2022-07-16T05:53:46.792Z</time>
      </trkpt>
      <trkpt lat="45.96177" lon="6.90938">
        <ele>1187</ele>
        <time>2022-07-16T05:53:52.414Z</time>
      </trkpt>
      <trkpt lat="45.96205" lon="6.90955">
        <ele>1191</ele>
        <time>2022-07-16T05:54:07.605Z</time>
      </trkpt>
      <trkpt lat="45.96235" lon="6.90982">
        <ele>1190</ele>
        <time>2022-07-16T05:54:11.056Z</time>
      </trkpt>
      <trkpt lat="45.96252" lon="6.91001">
        <ele>1187</ele>
        <time>2022-07-16T05:54:12.681Z</time>
      </trkpt>
      <trkpt lat="45.96288" lon="6.91061">
        <ele>1193</ele>
        <time>2022-07-16T05:54:33.545Z</time>
      </trkpt>
      <trkpt lat="45.96306" lon="6.91106">
        <ele>1195</ele>
        <time>2022-07-16T05:54:42.246Z</time>
      </trkpt>
      <trkpt lat="45.96318" lon="6.91128">
        <ele>1195</ele>
        <time>2022-07-16T05:54:44.831Z</time>
      </trkpt>
      <trkpt lat="45.96335" lon="6.91148">
        <ele>1193</ele>
        <time>2022-07-16T05:54:46.488Z</time>
      </trkpt>
      <trkpt lat="45.96367" lon="6.91176">
        <ele>1193</ele>
        <time>2022-07-16T05:54:51.469Z</time>
      </trkpt>
      <trkpt lat="45.96403" lon="6.912">
        <ele>1189</ele>
        <time>2022-07-16T05:54:54.464Z</time>
      </trkpt>
      <trkpt lat="45.96443" lon="6.91232">
        <ele>1186</ele>
        <time>2022-07-16T05:54:57.655Z</time>
      </trkpt>
      <trkpt lat="45.96467" lon="6.91247">
        <ele>1183</ele>
        <time>2022-07-16T05:54:59.630Z</time>
      </trkpt>
      <trkpt lat="45.96518" lon="6.91269">
        <ele>1182</ele>
        <time>2022-07-16T05:55:05.409Z</time>
      </trkpt>
      <trkpt lat="45.96726" lon="6.91337">
        <ele>1185</ele>
        <time>2022-07-16T05:55:37.970Z</time>
      </trkpt>
      <trkpt lat="45.96765" lon="6.91354">
        <ele>1187</ele>
        <time>2022-07-16T05:55:47.390Z</time>
      </trkpt>
      <trkpt lat="45.96782" lon="6.91366">
        <ele>1188</ele>
        <time>2022-07-16T05:55:51.875Z</time>
      </trkpt>
      <trkpt lat="45.96797" lon="6.9138">
        <ele>1189</ele>
        <time>2022-07-16T05:55:56.201Z</time>
      </trkpt>
      <trkpt lat="45.96838" lon="6.91427">
        <ele>1191</ele>
        <time>2022-07-16T05:56:06.918Z</time>
      </trkpt>
      <trkpt lat="45.96901" lon="6.91508">
        <ele>1196</ele>
        <time>2022-07-16T05:56:27.822Z</time>
      </trkpt>
      <trkpt lat="45.96973" lon="6.91596">
        <ele>1200</ele>
        <time>2022-07-16T05:56:48.345Z</time>
      </trkpt>
      <trkpt lat="45.96992" lon="6.91616">
        <ele>1200</ele>
        <time>2022-07-16T05:56:51.475Z</time>
      </trkpt>
      <trkpt lat="45.97237" lon="6.91808">
        <ele>1205</ele>
        <time>2022-07-16T05:57:35.864Z</time>
      </trkpt>
      <trkpt lat="45.97267" lon="6.91844">
        <ele>1207</ele>
        <time>2022-07-16T05:57:45.019Z</time>
      </trkpt>
      <trkpt lat="45.9733" lon="6.91943">
        <ele>1214</ele>
        <time>2022-07-16T05:58:10.969Z</time>
      </trkpt>
      <trkpt lat="45.97368" lon="6.91981">
        <ele>1214</ele>
        <time>2022-07-16T05:58:17.123Z</time>
      </trkpt>
      <trkpt lat="45.97476" lon="6.92066">
        <ele>1216</ele>
        <time>2022-07-16T05:58:36.356Z</time>
      </trkpt>
      <trkpt lat="45.97534" lon="6.92108">
        <ele>1216</ele>
        <time>2022-07-16T05:58:44.991Z</time>
      </trkpt>
      <trkpt lat="45.97553" lon="6.92112">
        <ele>1215</ele>
        <time>2022-07-16T05:58:46.484Z</time>
      </trkpt>
      <trkpt lat="45.97572" lon="6.92108">
        <ele>1215</ele>
        <time>2022-07-16T05:58:49.037Z</time>
      </trkpt>
      <trkpt lat="45.97585" lon="6.92099">
        <ele>1214</ele>
        <time>2022-07-16T05:58:50.126Z</time>
      </trkpt>
      <trkpt lat="45.97603" lon="6.9208">
        <ele>1215</ele>
        <time>2022-07-16T05:58:55.146Z</time>
      </trkpt>
      <trkpt lat="45.9762" lon="6.92072">
        <ele>1217</ele>
        <time>2022-07-16T05:59:02.137Z</time>
      </trkpt>
      <trkpt lat="45.97637" lon="6.92074">
        <ele>1218</ele>
        <time>2022-07-16T05:59:06.341Z</time>
      </trkpt>
      <trkpt lat="45.97645" lon="6.92079">
        <ele>1218</ele>
        <time>2022-07-16T05:59:07.501Z</time>
      </trkpt>
      <trkpt lat="45.97766" lon="6.92196">
        <ele>1222</ele>
        <time>2022-07-16T05:59:33.396Z</time>
      </trkpt>
      <trkpt lat="45.97845" lon="6.92255">
        <ele>1223</ele>
        <time>2022-07-16T05:59:46.590Z</time>
      </trkpt>
      <trkpt lat="45.97916" lon="6.923">
        <ele>1230</ele>
        <time>2022-07-16T06:00:11.088Z</time>
      </trkpt>
      <trkpt lat="45.97953" lon="6.9232">
        <ele>1236</ele>
        <time>2022-07-16T06:00:31.362Z</time>
      </trkpt>
      <trkpt lat="45.97973" lon="6.92335">
        <ele>1237</ele>
        <time>2022-07-16T06:00:36.412Z</time>
      </trkpt>
      <trkpt lat="45.98142" lon="6.92529">
        <ele>1244</ele>
        <time>2022-07-16T06:01:17.284Z</time>
      </trkpt>
      <trkpt lat="45.98168" lon="6.92554">
        <ele>1246</ele>
        <time>2022-07-16T06:01:25.287Z</time>
      </trkpt>
      <trkpt lat="45.98209" lon="6.92587">
        <ele>1247</ele>
        <time>2022-07-16T06:01:33.048Z</time>
      </trkpt>
      <trkpt lat="45.98239" lon="6.92604">
        <ele>1249</ele>
        <time>2022-07-16T06:01:41.187Z</time>
      </trkpt>
      <trkpt lat="45.98389" lon="6.92675">
        <ele>1260</ele>
        <time>2022-07-16T06:02:23.335Z</time>
      </trkpt>
      <trkpt lat="45.9849" lon="6.92719">
        <ele>1269</ele>
        <time>2022-07-16T06:02:55.253Z</time>
      </trkpt>
      <trkpt lat="45.98495" lon="6.92725">
        <ele>1268</ele>
        <time>2022-07-16T06:02:55.744Z</time>
      </trkpt>
      <trkpt lat="45.9852" lon="6.92736">
        <ele>1270</ele>
        <time>2022-07-16T06:03:03.101Z</time>
      </trkpt>
      <trkpt lat="45.98557" lon="6.92757">
        <ele>1270</ele>
        <time>2022-07-16T06:03:08.390Z</time>
      </trkpt>
      <trkpt lat="45.98586" lon="6.92771">
        <ele>1272</ele>
        <time>2022-07-16T06:03:16.300Z</time>
      </trkpt>
      <trkpt lat="45.98594" lon="6.92772">
        <ele>1274</ele>
        <time>2022-07-16T06:03:20.420Z</time>
      </trkpt>
      <trkpt lat="45.98648" lon="6.928">
        <ele>1278</ele>
        <time>2022-07-16T06:03:35.743Z</time>
      </trkpt>
      <trkpt lat="45.98684" lon="6.92808">
        <ele>1284</ele>
        <time>2022-07-16T06:03:54.428Z</time>
      </trkpt>
      <trkpt lat="45.98798" lon="6.9286">
        <ele>1303</ele>
        <time>2022-07-16T06:04:55.771Z</time>
      </trkpt>
      <trkpt lat="45.9883" lon="6.92867">
        <ele>1308</ele>
        <time>2022-07-16T06:05:12.374Z</time>
      </trkpt>
      <trkpt lat="45.98893" lon="6.92873">
        <ele>1313</ele>
        <time>2022-07-16T06:05:30.528Z</time>
      </trkpt>
      <trkpt lat="45.98987" lon="6.92875">
        <ele>1313</ele>
        <time>2022-07-16T06:05:43.030Z</time>
      </trkpt>
      <trkpt lat="45.98996" lon="6.92879">
        <ele>1312</ele>
        <time>2022-07-16T06:05:43.741Z</time>
      </trkpt>
      <trkpt lat="45.99025" lon="6.92902">
        <ele>1312</ele>
        <time>2022-07-16T06:05:48.145Z</time>
      </trkpt>
      <trkpt lat="45.99041" lon="6.92903">
        <ele>1314</ele>
        <time>2022-07-16T06:05:55.456Z</time>
      </trkpt>
      <trkpt lat="45.99047" lon="6.92898">
        <ele>1316</ele>
        <time>2022-07-16T06:05:59.012Z</time>
      </trkpt>
      <trkpt lat="45.99054" lon="6.9288">
        <ele>1319</ele>
        <time>2022-07-16T06:06:06.364Z</time>
      </trkpt>
      <trkpt lat="45.99051" lon="6.92862">
        <ele>1320</ele>
        <time>2022-07-16T06:06:10.019Z</time>
      </trkpt>
      <trkpt lat="45.99041" lon="6.92848">
        <ele>1321</ele>
        <time>2022-07-16T06:06:13.800Z</time>
      </trkpt>
      <trkpt lat="45.98986" lon="6.92834">
        <ele>1319</ele>
        <time>2022-07-16T06:06:18.841Z</time>
      </trkpt>
      <trkpt lat="45.98977" lon="6.92828">
        <ele>1321</ele>
        <time>2022-07-16T06:06:23.929Z</time>
      </trkpt>
      <trkpt lat="45.98967" lon="6.92811">
        <ele>1326</ele>
        <time>2022-07-16T06:06:31.867Z</time>
      </trkpt>
      <trkpt lat="45.98968" lon="6.92788">
        <ele>1332</ele>
        <time>2022-07-16T06:06:40.080Z</time>
      </trkpt>
      <trkpt lat="45.98972" lon="6.9278">
        <ele>1334</ele>
        <time>2022-07-16T06:06:43.593Z</time>
      </trkpt>
      <trkpt lat="45.98977" lon="6.92773">
        <ele>1335</ele>
        <time>2022-07-16T06:06:47.171Z</time>
      </trkpt>
      <trkpt lat="45.98983" lon="6.9277">
        <ele>1335</ele>
        <time>2022-07-16T06:06:48.016Z</time>
      </trkpt>
      <trkpt lat="45.98997" lon="6.92771">
        <ele>1333</ele>
        <time>2022-07-16T06:06:49.074Z</time>
      </trkpt>
      <trkpt lat="45.99038" lon="6.92798">
        <ele>1330</ele>
        <time>2022-07-16T06:06:52.194Z</time>
      </trkpt>
      <trkpt lat="45.99095" lon="6.92814">
        <ele>1335</ele>
        <time>2022-07-16T06:07:09.882Z</time>
      </trkpt>
      <trkpt lat="45.99104" lon="6.92812">
        <ele>1339</ele>
        <time>2022-07-16T06:07:14.553Z</time>
      </trkpt>
      <trkpt lat="45.99114" lon="6.92802">
        <ele>1343</ele>
        <time>2022-07-16T06:07:20.799Z</time>
      </trkpt>
      <trkpt lat="45.99117" lon="6.92785">
        <ele>1346</ele>
        <time>2022-07-16T06:07:27.050Z</time>
      </trkpt>
      <trkpt lat="45.99112" lon="6.92769">
        <ele>1346</ele>
        <time>2022-07-16T06:07:28.671Z</time>
      </trkpt>
      <trkpt lat="45.99107" lon="6.92764">
        <ele>1345</ele>
        <time>2022-07-16T06:07:29.130Z</time>
      </trkpt>
      <trkpt lat="45.99098" lon="6.92762">
        <ele>1343</ele>
        <time>2022-07-16T06:07:29.818Z</time>
      </trkpt>
      <trkpt lat="45.99073" lon="6.92762">
        <ele>1339</ele>
        <time>2022-07-16T06:07:31.704Z</time>
      </trkpt>
      <trkpt lat="45.99065" lon="6.92757">
        <ele>1340</ele>
        <time>2022-07-16T06:07:35.223Z</time>
      </trkpt>
      <trkpt lat="45.99039" lon="6.92724">
        <ele>1350</ele>
        <time>2022-07-16T06:07:53.005Z</time>
      </trkpt>
      <trkpt lat="45.9903" lon="6.92718">
        <ele>1351</ele>
        <time>2022-07-16T06:07:56.463Z</time>
      </trkpt>
      <trkpt lat="45.99019" lon="6.92714">
        <ele>1352</ele>
        <time>2022-07-16T06:07:59.980Z</time>
      </trkpt>
      <trkpt lat="45.9898" lon="6.92709">
        <ele>1355</ele>
        <time>2022-07-16T06:08:11.008Z</time>
      </trkpt>
      <trkpt lat="45.98968" lon="6.92711">
        <ele>1356</ele>
        <time>2022-07-16T06:08:14.585Z</time>
      </trkpt>
      <trkpt lat="45.9896" lon="6.92717">
        <ele>1354</ele>
        <time>2022-07-16T06:08:15.266Z</time>
      </trkpt>
      <trkpt lat="45.98923" lon="6.92752">
        <ele>1349</ele>
        <time>2022-07-16T06:08:18.608Z</time>
      </trkpt>
      <trkpt lat="45.98914" lon="6.92756">
        <ele>1349</ele>
        <time>2022-07-16T06:08:19.861Z</time>
      </trkpt>
      <trkpt lat="45.98896" lon="6.92756">
        <ele>1347</ele>
        <time>2022-07-16T06:08:21.219Z</time>
      </trkpt>
      <trkpt lat="45.98884" lon="6.9275">
        <ele>1349</ele>
        <time>2022-07-16T06:08:27.736Z</time>
      </trkpt>
      <trkpt lat="45.98877" lon="6.92743">
        <ele>1350</ele>
        <time>2022-07-16T06:08:31.282Z</time>
      </trkpt>
      <trkpt lat="45.98869" lon="6.92722">
        <ele>1356</ele>
        <time>2022-07-16T06:08:39.817Z</time>
      </trkpt>
      <trkpt lat="45.98868" lon="6.9271">
        <ele>1360</ele>
        <time>2022-07-16T06:08:44.125Z</time>
      </trkpt>
      <trkpt lat="45.98873" lon="6.9269">
        <ele>1366</ele>
        <time>2022-07-16T06:08:51.700Z</time>
      </trkpt>
      <trkpt lat="45.98887" lon="6.92675">
        <ele>1370</ele>
        <time>2022-07-16T06:09:00.653Z</time>
      </trkpt>
      <trkpt lat="45.98896" lon="6.9267">
        <ele>1371</ele>
        <time>2022-07-16T06:09:04.112Z</time>
      </trkpt>
      <trkpt lat="45.98967" lon="6.92656">
        <ele>1374</ele>
        <time>2022-07-16T06:09:19.570Z</time>
      </trkpt>
      <trkpt lat="45.99038" lon="6.92657">
        <ele>1375</ele>
        <time>2022-07-16T06:09:30.411Z</time>
      </trkpt>
      <trkpt lat="45.99062" lon="6.92662">
        <ele>1374</ele>
        <time>2022-07-16T06:09:32.488Z</time>
      </trkpt>
      <trkpt lat="45.99093" lon="6.92662">
        <ele>1377</ele>
        <time>2022-07-16T06:09:42.882Z</time>
      </trkpt>
      <trkpt lat="45.99132" lon="6.92686">
        <ele>1375</ele>
        <time>2022-07-16T06:09:46.324Z</time>
      </trkpt>
      <trkpt lat="45.99153" lon="6.92686">
        <ele>1378</ele>
        <time>2022-07-16T06:09:57.096Z</time>
      </trkpt>
      <trkpt lat="45.99172" lon="6.92675">
        <ele>1385</ele>
        <time>2022-07-16T06:10:07.601Z</time>
      </trkpt>
      <trkpt lat="45.9918" lon="6.92674">
        <ele>1387</ele>
        <time>2022-07-16T06:10:11.720Z</time>
      </trkpt>
      <trkpt lat="45.99188" lon="6.92676">
        <ele>1388</ele>
        <time>2022-07-16T06:10:15.346Z</time>
      </trkpt>
      <trkpt lat="45.9921" lon="6.92693">
        <ele>1386</ele>
        <time>2022-07-16T06:10:17.231Z</time>
      </trkpt>
      <trkpt lat="45.99216" lon="6.92695">
        <ele>1387</ele>
        <time>2022-07-16T06:10:20.390Z</time>
      </trkpt>
      <trkpt lat="45.99272" lon="6.92682">
        <ele>1399</ele>
        <time>2022-07-16T06:10:49.486Z</time>
      </trkpt>
      <trkpt lat="45.99349" lon="6.92687">
        <ele>1406</ele>
        <time>2022-07-16T06:11:13.953Z</time>
      </trkpt>
      <trkpt lat="45.99387" lon="6.92685">
        <ele>1409</ele>
        <time>2022-07-16T06:11:24.860Z</time>
      </trkpt>
      <trkpt lat="45.99407" lon="6.92691">
        <ele>1409</ele>
        <time>2022-07-16T06:11:27.577Z</time>
      </trkpt>
      <trkpt lat="45.99431" lon="6.92705">
        <ele>1409</ele>
        <time>2022-07-16T06:11:31.021Z</time>
      </trkpt>
      <trkpt lat="45.99443" lon="6.92709">
        <ele>1409</ele>
        <time>2022-07-16T06:11:32.659Z</time>
      </trkpt>
      <trkpt lat="45.99453" lon="6.92709">
        <ele>1410</ele>
        <time>2022-07-16T06:11:36.117Z</time>
      </trkpt>
      <trkpt lat="45.99491" lon="6.9269">
        <ele>1417</ele>
        <time>2022-07-16T06:11:56.752Z</time>
      </trkpt>
      <trkpt lat="45.99516" lon="6.92684">
        <ele>1419</ele>
        <time>2022-07-16T06:12:04.023Z</time>
      </trkpt>
      <trkpt lat="45.99549" lon="6.92682">
        <ele>1418</ele>
        <time>2022-07-16T06:12:07.176Z</time>
      </trkpt>
      <trkpt lat="45.99587" lon="6.92689">
        <ele>1416</ele>
        <time>2022-07-16T06:12:10.151Z</time>
      </trkpt>
      <trkpt lat="45.99607" lon="6.92689">
        <ele>1416</ele>
        <time>2022-07-16T06:12:12.811Z</time>
      </trkpt>
      <trkpt lat="45.99642" lon="6.92658">
        <ele>1420</ele>
        <time>2022-07-16T06:12:26.663Z</time>
      </trkpt>
      <trkpt lat="45.99653" lon="6.92653">
        <ele>1420</ele>
        <time>2022-07-16T06:12:28.197Z</time>
      </trkpt>
      <trkpt lat="45.99705" lon="6.92639">
        <ele>1425</ele>
        <time>2022-07-16T06:12:45.564Z</time>
      </trkpt>
      <trkpt lat="45.99728" lon="6.92626">
        <ele>1428</ele>
        <time>2022-07-16T06:12:56.362Z</time>
      </trkpt>
      <trkpt lat="45.99741" lon="6.92615">
        <ele>1429</ele>
        <time>2022-07-16T06:13:00.288Z</time>
      </trkpt>
      <trkpt lat="45.99761" lon="6.92591">
        <ele>1433</ele>
        <time>2022-07-16T06:13:13.645Z</time>
      </trkpt>
      <trkpt lat="45.99806" lon="6.92521">
        <ele>1443</ele>
        <time>2022-07-16T06:13:47.630Z</time>
      </trkpt>
      <trkpt lat="45.99837" lon="6.92452">
        <ele>1443</ele>
        <time>2022-07-16T06:13:55.221Z</time>
      </trkpt>
      <trkpt lat="45.99844" lon="6.92442">
        <ele>1443</ele>
        <time>2022-07-16T06:13:56.533Z</time>
      </trkpt>
      <trkpt lat="45.99928" lon="6.92356">
        <ele>1443</ele>
        <time>2022-07-16T06:14:10.241Z</time>
      </trkpt>
      <trkpt lat="45.99956" lon="6.92339">
        <ele>1443</ele>
        <time>2022-07-16T06:14:14.282Z</time>
      </trkpt>
      <trkpt lat="45.99976" lon="6.9233">
        <ele>1443</ele>
        <time>2022-07-16T06:14:17.069Z</time>
      </trkpt>
      <trkpt lat="46.0005" lon="6.92306">
        <ele>1450</ele>
        <time>2022-07-16T06:14:41.467Z</time>
      </trkpt>
      <trkpt lat="46.00138" lon="6.92299">
        <ele>1456</ele>
        <time>2022-07-16T06:15:04.715Z</time>
      </trkpt>
      <trkpt lat="46.00173" lon="6.92298">
        <ele>1458</ele>
        <time>2022-07-16T06:15:13.254Z</time>
      </trkpt>
      <trkpt lat="46.00189" lon="6.923">
        <ele>1458</ele>
        <time>2022-07-16T06:15:15.390Z</time>
      </trkpt>
      <trkpt lat="46.0036" lon="6.92349">
        <ele>1464</ele>
        <time>2022-07-16T06:15:49.250Z</time>
      </trkpt>
      <trkpt lat="46.00405" lon="6.92367">
        <ele>1467</ele>
        <time>2022-07-16T06:16:01.227Z</time>
      </trkpt>
      <trkpt lat="46.00526" lon="6.92339">
        <ele>1455</ele>
        <time>2022-07-16T06:16:10.477Z</time>
      </trkpt>
      <trkpt lat="46.00623" lon="6.92323">
        <ele>1444</ele>
        <time>2022-07-16T06:16:17.846Z</time>
      </trkpt>
      <trkpt lat="46.00773" lon="6.92289">
        <ele>1434</ele>
        <time>2022-07-16T06:16:28.410Z</time>
      </trkpt>
      <trkpt lat="46.0079" lon="6.92294">
        <ele>1434</ele>
        <time>2022-07-16T06:16:30.718Z</time>
      </trkpt>
      <trkpt lat="46.00835" lon="6.92332">
        <ele>1427</ele>
        <time>2022-07-16T06:16:34.655Z</time>
      </trkpt>
      <trkpt lat="46.00845" lon="6.92337">
        <ele>1427</ele>
        <time>2022-07-16T06:16:36.063Z</time>
      </trkpt>
      <trkpt lat="46.00885" lon="6.92342">
        <ele>1425</ele>
        <time>2022-07-16T06:16:39.246Z</time>
      </trkpt>
      <trkpt lat="46.00908" lon="6.92348">
        <ele>1424</ele>
        <time>2022-07-16T06:16:41.219Z</time>
      </trkpt>
      <trkpt lat="46.0095" lon="6.92376">
        <ele>1418</ele>
        <time>2022-07-16T06:16:44.712Z</time>
      </trkpt>
      <trkpt lat="46.00979" lon="6.92386">
        <ele>1416</ele>
        <time>2022-07-16T06:16:46.963Z</time>
      </trkpt>
      <trkpt lat="46.00999" lon="6.92389">
        <ele>1414</ele>
        <time>2022-07-16T06:16:48.481Z</time>
      </trkpt>
      <trkpt lat="46.01008" lon="6.92386">
        <ele>1414</ele>
        <time>2022-07-16T06:16:49.709Z</time>
      </trkpt>
      <trkpt lat="46.01016" lon="6.92379">
        <ele>1413</ele>
        <time>2022-07-16T06:16:50.416Z</time>
      </trkpt>
      <trkpt lat="46.01038" lon="6.92352">
        <ele>1411</ele>
        <time>2022-07-16T06:16:52.598Z</time>
      </trkpt>
      <trkpt lat="46.01048" lon="6.92342">
        <ele>1410</ele>
        <time>2022-07-16T06:16:53.516Z</time>
      </trkpt>
      <trkpt lat="46.01056" lon="6.92338">
        <ele>1409</ele>
        <time>2022-07-16T06:16:54.156Z</time>
      </trkpt>
      <trkpt lat="46.01075" lon="6.92334">
        <ele>1408</ele>
        <time>2022-07-16T06:16:55.648Z</time>
      </trkpt>
      <trkpt lat="46.01117" lon="6.92334">
        <ele>1403</ele>
        <time>2022-07-16T06:16:58.818Z</time>
      </trkpt>
      <trkpt lat="46.01126" lon="6.92331">
        <ele>1403</ele>
        <time>2022-07-16T06:17:00.047Z</time>
      </trkpt>
      <trkpt lat="46.01134" lon="6.92325">
        <ele>1402</ele>
        <time>2022-07-16T06:17:00.728Z</time>
      </trkpt>
      <trkpt lat="46.0114" lon="6.92318">
        <ele>1401</ele>
        <time>2022-07-16T06:17:01.311Z</time>
      </trkpt>
      <trkpt lat="46.01149" lon="6.92295">
        <ele>1401</ele>
        <time>2022-07-16T06:17:03.749Z</time>
      </trkpt>
      <trkpt lat="46.01158" lon="6.92257">
        <ele>1400</ele>
        <time>2022-07-16T06:17:06.264Z</time>
      </trkpt>
      <trkpt lat="46.01169" lon="6.9223">
        <ele>1402</ele>
        <time>2022-07-16T06:17:13.239Z</time>
      </trkpt>
      <trkpt lat="46.01177" lon="6.92219">
        <ele>1404</ele>
        <time>2022-07-16T06:17:18.913Z</time>
      </trkpt>
      <trkpt lat="46.01192" lon="6.92204">
        <ele>1405</ele>
        <time>2022-07-16T06:17:23.296Z</time>
      </trkpt>
      <trkpt lat="46.01243" lon="6.92182">
        <ele>1401</ele>
        <time>2022-07-16T06:17:27.314Z</time>
      </trkpt>
      <trkpt lat="46.01304" lon="6.92125">
        <ele>1397</ele>
        <time>2022-07-16T06:17:32.830Z</time>
      </trkpt>
      <trkpt lat="46.01338" lon="6.92102">
        <ele>1394</ele>
        <time>2022-07-16T06:17:35.665Z</time>
      </trkpt>
      <trkpt lat="46.01355" lon="6.92082">
        <ele>1393</ele>
        <time>2022-07-16T06:17:37.472Z</time>
      </trkpt>
      <trkpt lat="46.01396" lon="6.92042">
        <ele>1386</ele>
        <time>2022-07-16T06:17:41.210Z</time>
      </trkpt>
      <trkpt lat="46.01478" lon="6.91943">
        <ele>1378</ele>
        <time>2022-07-16T06:17:49.287Z</time>
      </trkpt>
      <trkpt lat="46.01497" lon="6.91926">
        <ele>1376</ele>
        <time>2022-07-16T06:17:50.975Z</time>
      </trkpt>
      <trkpt lat="46.01538" lon="6.9191">
        <ele>1373</ele>
        <time>2022-07-16T06:17:54.181Z</time>
      </trkpt>
      <trkpt lat="46.01592" lon="6.91895">
        <ele>1369</ele>
        <time>2022-07-16T06:17:58.332Z</time>
      </trkpt>
      <trkpt lat="46.01606" lon="6.91893">
        <ele>1369</ele>
        <time>2022-07-16T06:18:00.203Z</time>
      </trkpt>
      <trkpt lat="46.01653" lon="6.91896">
        <ele>1368</ele>
        <time>2022-07-16T06:18:05.163Z</time>
      </trkpt>
      <trkpt lat="46.01682" lon="6.919">
        <ele>1367</ele>
        <time>2022-07-16T06:18:07.831Z</time>
      </trkpt>
      <trkpt lat="46.01696" lon="6.91911">
        <ele>1368</ele>
        <time>2022-07-16T06:18:11.877Z</time>
      </trkpt>
      <trkpt lat="46.01713" lon="6.91952">
        <ele>1364</ele>
        <time>2022-07-16T06:18:14.380Z</time>
      </trkpt>
      <trkpt lat="46.01722" lon="6.91963">
        <ele>1363</ele>
        <time>2022-07-16T06:18:15.271Z</time>
      </trkpt>
      <trkpt lat="46.0173" lon="6.91967">
        <ele>1363</ele>
        <time>2022-07-16T06:18:16.397Z</time>
      </trkpt>
      <trkpt lat="46.01769" lon="6.91969">
        <ele>1361</ele>
        <time>2022-07-16T06:18:19.452Z</time>
      </trkpt>
      <trkpt lat="46.01838" lon="6.91968">
        <ele>1354</ele>
        <time>2022-07-16T06:18:24.660Z</time>
      </trkpt>
      <trkpt lat="46.01894" lon="6.91967">
        <ele>1347</ele>
        <time>2022-07-16T06:18:28.887Z</time>
      </trkpt>
      <trkpt lat="46.01925" lon="6.91964">
        <ele>1344</ele>
        <time>2022-07-16T06:18:31.232Z</time>
      </trkpt>
      <trkpt lat="46.01976" lon="6.91939">
        <ele>1340</ele>
        <time>2022-07-16T06:18:35.298Z</time>
      </trkpt>
      <trkpt lat="46.02002" lon="6.91921">
        <ele>1339</ele>
        <time>2022-07-16T06:18:37.932Z</time>
      </trkpt>
      <trkpt lat="46.0201" lon="6.91911">
        <ele>1338</ele>
        <time>2022-07-16T06:18:38.731Z</time>
      </trkpt>
      <trkpt lat="46.02016" lon="6.91898">
        <ele>1338</ele>
        <time>2022-07-16T06:18:40.173Z</time>
      </trkpt>
      <trkpt lat="46.02042" lon="6.9183">
        <ele>1338</ele>
        <time>2022-07-16T06:18:47.341Z</time>
      </trkpt>
      <trkpt lat="46.02052" lon="6.91821">
        <ele>1339</ele>
        <time>2022-07-16T06:18:50.893Z</time>
      </trkpt>
      <trkpt lat="46.02056" lon="6.91819">
        <ele>1339</ele>
        <time>2022-07-16T06:18:51.456Z</time>
      </trkpt>
      <trkpt lat="46.02088" lon="6.9182">
        <ele>1337</ele>
        <time>2022-07-16T06:18:53.742Z</time>
      </trkpt>
      <trkpt lat="46.02137" lon="6.91857">
        <ele>1334</ele>
        <time>2022-07-16T06:18:57.966Z</time>
      </trkpt>
      <trkpt lat="46.02171" lon="6.91878">
        <ele>1331</ele>
        <time>2022-07-16T06:19:00.758Z</time>
      </trkpt>
      <trkpt lat="46.02248" lon="6.91912">
        <ele>1326</ele>
        <time>2022-07-16T06:19:06.527Z</time>
      </trkpt>
      <trkpt lat="46.02323" lon="6.9196">
        <ele>1322</ele>
        <time>2022-07-16T06:19:13.094Z</time>
      </trkpt>
      <trkpt lat="46.02358" lon="6.9199">
        <ele>1319</ele>
        <time>2022-07-16T06:19:16.169Z</time>
      </trkpt>
      <trkpt lat="46.02518" lon="6.92166">
        <ele>1309</ele>
        <time>2022-07-16T06:19:32.148Z</time>
      </trkpt>
      <trkpt lat="46.02531" lon="6.92183">
        <ele>1308</ele>
        <time>2022-07-16T06:19:33.458Z</time>
      </trkpt>
      <trkpt lat="46.02551" lon="6.92223">
        <ele>1306</ele>
        <time>2022-07-16T06:19:35.982Z</time>
      </trkpt>
      <trkpt lat="46.02635" lon="6.92426">
        <ele>1303</ele>
        <time>2022-07-16T06:19:53.897Z</time>
      </trkpt>
      <trkpt lat="46.02693" lon="6.92505">
        <ele>1303</ele>
        <time>2022-07-16T06:20:04.514Z</time>
      </trkpt>
      <trkpt lat="46.027" lon="6.92519">
        <ele>1303</ele>
        <time>2022-07-16T06:20:06.107Z</time>
      </trkpt>
      <trkpt lat="46.02717" lon="6.92582">
        <ele>1300</ele>
        <time>2022-07-16T06:20:09.420Z</time>
      </trkpt>
      <trkpt lat="46.02762" lon="6.92654">
        <ele>1301</ele>
        <time>2022-07-16T06:20:19.775Z</time>
      </trkpt>
      <trkpt lat="46.02772" lon="6.92664">
        <ele>1300</ele>
        <time>2022-07-16T06:20:20.694Z</time>
      </trkpt>
      <trkpt lat="46.0278" lon="6.92668">
        <ele>1300</ele>
        <time>2022-07-16T06:20:21.820Z</time>
      </trkpt>
      <trkpt lat="46.02843" lon="6.92673">
        <ele>1298</ele>
        <time>2022-07-16T06:20:27.756Z</time>
      </trkpt>
      <trkpt lat="46.02856" lon="6.92676">
        <ele>1298</ele>
        <time>2022-07-16T06:20:29.507Z</time>
      </trkpt>
      <trkpt lat="46.02866" lon="6.92682">
        <ele>1298</ele>
        <time>2022-07-16T06:20:30.948Z</time>
      </trkpt>
      <trkpt lat="46.02876" lon="6.92692">
        <ele>1297</ele>
        <time>2022-07-16T06:20:31.867Z</time>
      </trkpt>
      <trkpt lat="46.02965" lon="6.92815">
        <ele>1284</ele>
        <time>2022-07-16T06:20:41.176Z</time>
      </trkpt>
      <trkpt lat="46.02974" lon="6.92822">
        <ele>1283</ele>
        <time>2022-07-16T06:20:41.948Z</time>
      </trkpt>
      <trkpt lat="46.02991" lon="6.92827">
        <ele>1283</ele>
        <time>2022-07-16T06:20:44.255Z</time>
      </trkpt>
      <trkpt lat="46.03039" lon="6.92825">
        <ele>1287</ele>
        <time>2022-07-16T06:20:58.538Z</time>
      </trkpt>
      <trkpt lat="46.0306" lon="6.92832">
        <ele>1288</ele>
        <time>2022-07-16T06:21:03.434Z</time>
      </trkpt>
      <trkpt lat="46.03067" lon="6.92838">
        <ele>1288</ele>
        <time>2022-07-16T06:21:04.518Z</time>
      </trkpt>
      <trkpt lat="46.03108" lon="6.92903">
        <ele>1284</ele>
        <time>2022-07-16T06:21:08.768Z</time>
      </trkpt>
      <trkpt lat="46.03122" lon="6.92921">
        <ele>1282</ele>
        <time>2022-07-16T06:21:10.184Z</time>
      </trkpt>
      <trkpt lat="46.0313" lon="6.92931">
        <ele>1282</ele>
        <time>2022-07-16T06:21:11.593Z</time>
      </trkpt>
      <trkpt lat="46.03163" lon="6.92961">
        <ele>1280</ele>
        <time>2022-07-16T06:21:14.648Z</time>
      </trkpt>
      <trkpt lat="46.03186" lon="6.92976">
        <ele>1280</ele>
        <time>2022-07-16T06:21:18.005Z</time>
      </trkpt>
      <trkpt lat="46.0321" lon="6.9298">
        <ele>1282</ele>
        <time>2022-07-16T06:21:25.160Z</time>
      </trkpt>
      <trkpt lat="46.03226" lon="6.92987">
        <ele>1283</ele>
        <time>2022-07-16T06:21:29.316Z</time>
      </trkpt>
      <trkpt lat="46.0329" lon="6.93024">
        <ele>1283</ele>
        <time>2022-07-16T06:21:38.487Z</time>
      </trkpt>
      <trkpt lat="46.03302" lon="6.93035">
        <ele>1282</ele>
        <time>2022-07-16T06:21:39.560Z</time>
      </trkpt>
      <trkpt lat="46.03314" lon="6.93053">
        <ele>1280</ele>
        <time>2022-07-16T06:21:40.868Z</time>
      </trkpt>
      <trkpt lat="46.03339" lon="6.93138">
        <ele>1269</ele>
        <time>2022-07-16T06:21:45.705Z</time>
      </trkpt>
      <trkpt lat="46.03352" lon="6.93169">
        <ele>1266</ele>
        <time>2022-07-16T06:21:47.603Z</time>
      </trkpt>
      <trkpt lat="46.03358" lon="6.93178">
        <ele>1266</ele>
        <time>2022-07-16T06:21:48.755Z</time>
      </trkpt>
      <trkpt lat="46.03384" lon="6.93204">
        <ele>1266</ele>
        <time>2022-07-16T06:21:52.964Z</time>
      </trkpt>
      <trkpt lat="46.03423" lon="6.93252">
        <ele>1264</ele>
        <time>2022-07-16T06:21:57.452Z</time>
      </trkpt>
      <trkpt lat="46.03469" lon="6.93299">
        <ele>1261</ele>
        <time>2022-07-16T06:22:01.795Z</time>
      </trkpt>
      <trkpt lat="46.0348" lon="6.93323">
        <ele>1259</ele>
        <time>2022-07-16T06:22:03.302Z</time>
      </trkpt>
      <trkpt lat="46.03523" lon="6.9346">
        <ele>1256</ele>
        <time>2022-07-16T06:22:13.430Z</time>
      </trkpt>
      <trkpt lat="46.03574" lon="6.93573">
        <ele>1257</ele>
        <time>2022-07-16T06:22:27.224Z</time>
      </trkpt>
      <trkpt lat="46.03588" lon="6.936">
        <ele>1259</ele>
        <time>2022-07-16T06:22:34.312Z</time>
      </trkpt>
      <trkpt lat="46.03598" lon="6.9361">
        <ele>1259</ele>
        <time>2022-07-16T06:22:35.931Z</time>
      </trkpt>
      <trkpt lat="46.03695" lon="6.9366">
        <ele>1254</ele>
        <time>2022-07-16T06:22:44.190Z</time>
      </trkpt>
      <trkpt lat="46.0378" lon="6.93685">
        <ele>1252</ele>
        <time>2022-07-16T06:22:53.150Z</time>
      </trkpt>
      <trkpt lat="46.03825" lon="6.93693">
        <ele>1250</ele>
        <time>2022-07-16T06:22:56.932Z</time>
      </trkpt>
      <trkpt lat="46.03863" lon="6.93716">
        <ele>1248</ele>
        <time>2022-07-16T06:23:00.236Z</time>
      </trkpt>
      <trkpt lat="46.0391" lon="6.93732">
        <ele>1244</ele>
        <time>2022-07-16T06:23:03.881Z</time>
      </trkpt>
      <trkpt lat="46.03921" lon="6.93739">
        <ele>1243</ele>
        <time>2022-07-16T06:23:04.789Z</time>
      </trkpt>
      <trkpt lat="46.03926" lon="6.93745">
        <ele>1242</ele>
        <time>2022-07-16T06:23:05.280Z</time>
      </trkpt>
      <trkpt lat="46.0394" lon="6.93777">
        <ele>1246</ele>
        <time>2022-07-16T06:23:18.748Z</time>
      </trkpt>
      <trkpt lat="46.03956" lon="6.93795">
        <ele>1247</ele>
        <time>2022-07-16T06:23:23.446Z</time>
      </trkpt>
      <trkpt lat="46.03995" lon="6.93808">
        <ele>1245</ele>
        <time>2022-07-16T06:23:26.615Z</time>
      </trkpt>
      <trkpt lat="46.04008" lon="6.9382">
        <ele>1245</ele>
        <time>2022-07-16T06:23:28.669Z</time>
      </trkpt>
      <trkpt lat="46.04022" lon="6.93828">
        <ele>1245</ele>
        <time>2022-07-16T06:23:30.672Z</time>
      </trkpt>
      <trkpt lat="46.04051" lon="6.93837">
        <ele>1246</ele>
        <time>2022-07-16T06:23:36.379Z</time>
      </trkpt>
      <trkpt lat="46.04059" lon="6.93842">
        <ele>1246</ele>
        <time>2022-07-16T06:23:37.539Z</time>
      </trkpt>
      <trkpt lat="46.04067" lon="6.93849">
        <ele>1247</ele>
        <time>2022-07-16T06:23:41.007Z</time>
      </trkpt>
      <trkpt lat="46.04091" lon="6.93881">
        <ele>1248</ele>
        <time>2022-07-16T06:23:47.048Z</time>
      </trkpt>
      <trkpt lat="46.04125" lon="6.93908">
        <ele>1245</ele>
        <time>2022-07-16T06:23:49.978Z</time>
      </trkpt>
      <trkpt lat="46.04142" lon="6.93918">
        <ele>1243</ele>
        <time>2022-07-16T06:23:51.364Z</time>
      </trkpt>
      <trkpt lat="46.04178" lon="6.93932">
        <ele>1241</ele>
        <time>2022-07-16T06:23:54.225Z</time>
      </trkpt>
      <trkpt lat="46.04205" lon="6.93938">
        <ele>1240</ele>
        <time>2022-07-16T06:23:56.671Z</time>
      </trkpt>
      <trkpt lat="46.04221" lon="6.93939">
        <ele>1238</ele>
        <time>2022-07-16T06:23:57.880Z</time>
      </trkpt>
      <trkpt lat="46.04237" lon="6.93951">
        <ele>1237</ele>
        <time>2022-07-16T06:23:59.243Z</time>
      </trkpt>
      <trkpt lat="46.04254" lon="6.93984">
        <ele>1235</ele>
        <time>2022-07-16T06:24:01.396Z</time>
      </trkpt>
      <trkpt lat="46.04263" lon="6.93989">
        <ele>1234</ele>
        <time>2022-07-16T06:24:02.124Z</time>
      </trkpt>
      <trkpt lat="46.04314" lon="6.94001">
        <ele>1228</ele>
        <time>2022-07-16T06:24:06.024Z</time>
      </trkpt>
      <trkpt lat="46.0434" lon="6.9401">
        <ele>1228</ele>
        <time>2022-07-16T06:24:09.580Z</time>
      </trkpt>
      <trkpt lat="46.04439" lon="6.94054">
        <ele>1216</ele>
        <time>2022-07-16T06:24:17.400Z</time>
      </trkpt>
      <trkpt lat="46.0445" lon="6.94061">
        <ele>1212</ele>
        <time>2022-07-16T06:24:18.307Z</time>
      </trkpt>
      <trkpt lat="46.04501" lon="6.9411">
        <ele>1197</ele>
        <time>2022-07-16T06:24:22.934Z</time>
      </trkpt>
      <trkpt lat="46.04517" lon="6.94118">
        <ele>1198</ele>
        <time>2022-07-16T06:24:27.120Z</time>
      </trkpt>
      <trkpt lat="46.0461" lon="6.94151">
        <ele>1194</ele>
        <time>2022-07-16T06:24:35.284Z</time>
      </trkpt>
      <trkpt lat="46.04641" lon="6.94167">
        <ele>1191</ele>
        <time>2022-07-16T06:24:37.769Z</time>
      </trkpt>
      <trkpt lat="46.04725" lon="6.94221">
        <ele>1185</ele>
        <time>2022-07-16T06:24:44.199Z</time>
      </trkpt>
      <trkpt lat="46.04772" lon="6.94266">
        <ele>1184</ele>
        <time>2022-07-16T06:24:50.402Z</time>
      </trkpt>
      <trkpt lat="46.04819" lon="6.94293">
        <ele>1181</ele>
        <time>2022-07-16T06:24:54.108Z</time>
      </trkpt>
      <trkpt lat="46.04838" lon="6.94312">
        <ele>1180</ele>
        <time>2022-07-16T06:24:56.052Z</time>
      </trkpt>
      <trkpt lat="46.04958" lon="6.94446">
        <ele>1163</ele>
        <time>2022-07-16T06:25:07.511Z</time>
      </trkpt>
      <trkpt lat="46.05013" lon="6.94533">
        <ele>1160</ele>
        <time>2022-07-16T06:25:14.816Z</time>
      </trkpt>
      <trkpt lat="46.05033" lon="6.94553">
        <ele>1158</ele>
        <time>2022-07-16T06:25:16.653Z</time>
      </trkpt>
      <trkpt lat="46.05074" lon="6.94587">
        <ele>1147</ele>
        <time>2022-07-16T06:25:20.224Z</time>
      </trkpt>
      <trkpt lat="46.0508" lon="6.94597">
        <ele>1145</ele>
        <time>2022-07-16T06:25:20.916Z</time>
      </trkpt>
      <trkpt lat="46.0509" lon="6.94646">
        <ele>1144</ele>
        <time>2022-07-16T06:25:24.375Z</time>
      </trkpt>
      <trkpt lat="46.05104" lon="6.94676">
        <ele>1144</ele>
        <time>2022-07-16T06:25:27.712Z</time>
      </trkpt>
      <trkpt lat="46.05113" lon="6.94703">
        <ele>1142</ele>
        <time>2022-07-16T06:25:29.281Z</time>
      </trkpt>
      <trkpt lat="46.05114" lon="6.94729">
        <ele>1140</ele>
        <time>2022-07-16T06:25:30.645Z</time>
      </trkpt>
      <trkpt lat="46.05103" lon="6.94778">
        <ele>1137</ele>
        <time>2022-07-16T06:25:33.342Z</time>
      </trkpt>
      <trkpt lat="46.05105" lon="6.94798">
        <ele>1136</ele>
        <time>2022-07-16T06:25:34.401Z</time>
      </trkpt>
      <trkpt lat="46.05112" lon="6.94815">
        <ele>1135</ele>
        <time>2022-07-16T06:25:35.436Z</time>
      </trkpt>
      <trkpt lat="46.05155" lon="6.94851">
        <ele>1127</ele>
        <time>2022-07-16T06:25:39.190Z</time>
      </trkpt>
      <trkpt lat="46.05191" lon="6.94885">
        <ele>1125</ele>
        <time>2022-07-16T06:25:42.704Z</time>
      </trkpt>
      <trkpt lat="46.05202" lon="6.94864">
        <ele>1128</ele>
        <time>2022-07-16T06:25:52.070Z</time>
      </trkpt>
      <trkpt lat="46.05208" lon="6.94846">
        <ele>1131</ele>
        <time>2022-07-16T06:25:59.179Z</time>
      </trkpt>
      <trkpt lat="46.05199" lon="6.94835">
        <ele>1131</ele>
        <time>2022-07-16T06:26:00.748Z</time>
      </trkpt>
      <trkpt lat="46.0519" lon="6.9483">
        <ele>1131</ele>
        <time>2022-07-16T06:26:02.031Z</time>
      </trkpt>
      <trkpt lat="46.05166" lon="6.94834">
        <ele>1127</ele>
        <time>2022-07-16T06:26:03.855Z</time>
      </trkpt>
      <trkpt lat="46.05161" lon="6.94833">
        <ele>1128</ele>
        <time>2022-07-16T06:26:06.444Z</time>
      </trkpt>
      <trkpt lat="46.0515" lon="6.94817">
        <ele>1131</ele>
        <time>2022-07-16T06:26:14.461Z</time>
      </trkpt>
      <trkpt lat="46.05154" lon="6.94787">
        <ele>1135</ele>
        <time>2022-07-16T06:26:25.336Z</time>
      </trkpt>
      <trkpt lat="46.05153" lon="6.94775">
        <ele>1136</ele>
        <time>2022-07-16T06:26:28.906Z</time>
      </trkpt>
      <trkpt lat="46.05164" lon="6.94739">
        <ele>1142</ele>
        <time>2022-07-16T06:26:42.909Z</time>
      </trkpt>
      <trkpt lat="46.05167" lon="6.94715">
        <ele>1146</ele>
        <time>2022-07-16T06:26:51.590Z</time>
      </trkpt>
      <trkpt lat="46.05171" lon="6.94709">
        <ele>1148</ele>
        <time>2022-07-16T06:26:54.552Z</time>
      </trkpt>
      <trkpt lat="46.05183" lon="6.94734">
        <ele>1148</ele>
        <time>2022-07-16T06:26:57.357Z</time>
      </trkpt>
      <trkpt lat="46.05206" lon="6.9476">
        <ele>1149</ele>
        <time>2022-07-16T06:27:03.019Z</time>
      </trkpt>
      <trkpt lat="46.0524" lon="6.94785">
        <ele>1151</ele>
        <time>2022-07-16T06:27:12.036Z</time>
      </trkpt>
      <trkpt lat="46.05274" lon="6.948">
        <ele>1161</ele>
        <time>2022-07-16T06:27:30.276Z</time>
      </trkpt>
      <trkpt lat="46.05309" lon="6.94812">
        <ele>1174</ele>
        <time>2022-07-16T06:27:48.730Z</time>
      </trkpt>
      <trkpt lat="46.05274" lon="6.948">
        <ele>1161</ele>
        <time>2022-07-16T06:27:51.446Z</time>
      </trkpt>
      <trkpt lat="46.0524" lon="6.94785">
        <ele>1151</ele>
        <time>2022-07-16T06:27:54.129Z</time>
      </trkpt>
      <trkpt lat="46.05215" lon="6.94767">
        <ele>1149</ele>
        <time>2022-07-16T06:27:56.239Z</time>
      </trkpt>
      <trkpt lat="46.05206" lon="6.9476">
        <ele>1149</ele>
        <time>2022-07-16T06:27:57.599Z</time>
      </trkpt>
      <trkpt lat="46.05183" lon="6.94734">
        <ele>1148</ele>
        <time>2022-07-16T06:28:00.280Z</time>
      </trkpt>
      <trkpt lat="46.05173" lon="6.94711">
        <ele>1149</ele>
        <time>2022-07-16T06:28:04.750Z</time>
      </trkpt>
      <trkpt lat="46.05169" lon="6.9471">
        <ele>1147</ele>
        <time>2022-07-16T06:28:05.057Z</time>
      </trkpt>
      <trkpt lat="46.05164" lon="6.94739">
        <ele>1142</ele>
        <time>2022-07-16T06:28:06.622Z</time>
      </trkpt>
      <trkpt lat="46.05153" lon="6.94775">
        <ele>1136</ele>
        <time>2022-07-16T06:28:08.682Z</time>
      </trkpt>
      <trkpt lat="46.05154" lon="6.94787">
        <ele>1135</ele>
        <time>2022-07-16T06:28:09.315Z</time>
      </trkpt>
      <trkpt lat="46.0515" lon="6.94817">
        <ele>1131</ele>
        <time>2022-07-16T06:28:10.915Z</time>
      </trkpt>
      <trkpt lat="46.05161" lon="6.94833">
        <ele>1128</ele>
        <time>2022-07-16T06:28:12.095Z</time>
      </trkpt>
      <trkpt lat="46.05166" lon="6.94834">
        <ele>1127</ele>
        <time>2022-07-16T06:28:12.476Z</time>
      </trkpt>
      <trkpt lat="46.0519" lon="6.9483">
        <ele>1131</ele>
        <time>2022-07-16T06:28:24.869Z</time>
      </trkpt>
      <trkpt lat="46.05199" lon="6.94835">
        <ele>1131</ele>
        <time>2022-07-16T06:28:26.152Z</time>
      </trkpt>
      <trkpt lat="46.05208" lon="6.94846">
        <ele>1131</ele>
        <time>2022-07-16T06:28:27.721Z</time>
      </trkpt>
      <trkpt lat="46.05202" lon="6.94864">
        <ele>1128</ele>
        <time>2022-07-16T06:28:28.767Z</time>
      </trkpt>
      <trkpt lat="46.05191" lon="6.94885">
        <ele>1125</ele>
        <time>2022-07-16T06:28:30.145Z</time>
      </trkpt>
      <trkpt lat="46.05266" lon="6.94982">
        <ele>1120</ele>
        <time>2022-07-16T06:28:38.148Z</time>
      </trkpt>
      <trkpt lat="46.05303" lon="6.95036">
        <ele>1123</ele>
        <time>2022-07-16T06:28:50.980Z</time>
      </trkpt>
      <trkpt lat="46.0534" lon="6.95097">
        <ele>1119</ele>
        <time>2022-07-16T06:28:55.223Z</time>
      </trkpt>
      <trkpt lat="46.05427" lon="6.95226">
        <ele>1124</ele>
        <time>2022-07-16T06:29:21.444Z</time>
      </trkpt>
      <trkpt lat="46.05546" lon="6.95409">
        <ele>1131</ele>
        <time>2022-07-16T06:29:58.090Z</time>
      </trkpt>
      <trkpt lat="46.05563" lon="6.95444">
        <ele>1133</ele>
        <time>2022-07-16T06:30:05.875Z</time>
      </trkpt>
      <trkpt lat="46.056" lon="6.95544">
        <ele>1133</ele>
        <time>2022-07-16T06:30:16.333Z</time>
      </trkpt>
      <trkpt lat="46.05621" lon="6.95585">
        <ele>1134</ele>
        <time>2022-07-16T06:30:22.680Z</time>
      </trkpt>
      <trkpt lat="46.0565" lon="6.95621">
        <ele>1131</ele>
        <time>2022-07-16T06:30:25.569Z</time>
      </trkpt>
      <trkpt lat="46.05717" lon="6.95682">
        <ele>1124</ele>
        <time>2022-07-16T06:30:31.550Z</time>
      </trkpt>
      <trkpt lat="46.05761" lon="6.95742">
        <ele>1119</ele>
        <time>2022-07-16T06:30:36.122Z</time>
      </trkpt>
      <trkpt lat="46.05821" lon="6.95838">
        <ele>1115</ele>
        <time>2022-07-16T06:30:43.565Z</time>
      </trkpt>
      <trkpt lat="46.05848" lon="6.95886">
        <ele>1114</ele>
        <time>2022-07-16T06:30:47.981Z</time>
      </trkpt>
      <trkpt lat="46.05881" lon="6.95964">
        <ele>1114</ele>
        <time>2022-07-16T06:30:56.411Z</time>
      </trkpt>
      <trkpt lat="46.05929" lon="6.96106">
        <ele>1115</ele>
        <time>2022-07-16T06:31:12.316Z</time>
      </trkpt>
      <trkpt lat="46.05943" lon="6.96141">
        <ele>1117</ele>
        <time>2022-07-16T06:31:19.895Z</time>
      </trkpt>
      <trkpt lat="46.05957" lon="6.96164">
        <ele>1114</ele>
        <time>2022-07-16T06:31:21.497Z</time>
      </trkpt>
      <trkpt lat="46.06004" lon="6.96219">
        <ele>1105</ele>
        <time>2022-07-16T06:31:26.067Z</time>
      </trkpt>
      <trkpt lat="46.06035" lon="6.96263">
        <ele>1105</ele>
        <time>2022-07-16T06:31:31.853Z</time>
      </trkpt>
      <trkpt lat="46.06122" lon="6.96408">
        <ele>1109</ele>
        <time>2022-07-16T06:31:56.267Z</time>
      </trkpt>
      <trkpt lat="46.06168" lon="6.96461">
        <ele>1115</ele>
        <time>2022-07-16T06:32:17.014Z</time>
      </trkpt>
      <trkpt lat="46.06218" lon="6.965">
        <ele>1124</ele>
        <time>2022-07-16T06:32:46.177Z</time>
      </trkpt>
      <trkpt lat="46.06271" lon="6.96529">
        <ele>1127</ele>
        <time>2022-07-16T06:32:59.617Z</time>
      </trkpt>
      <trkpt lat="46.06343" lon="6.96558">
        <ele>1130</ele>
        <time>2022-07-16T06:33:15.337Z</time>
      </trkpt>
      <trkpt lat="46.06393" lon="6.96584">
        <ele>1130</ele>
        <time>2022-07-16T06:33:22.406Z</time>
      </trkpt>
      <trkpt lat="46.06437" lon="6.96613">
        <ele>1132</ele>
        <time>2022-07-16T06:33:32.761Z</time>
      </trkpt>
      <trkpt lat="46.06486" lon="6.96655">
        <ele>1140</ele>
        <time>2022-07-16T06:34:02.005Z</time>
      </trkpt>
      <trkpt lat="46.06548" lon="6.96713">
        <ele>1151</ele>
        <time>2022-07-16T06:34:39.919Z</time>
      </trkpt>
      <trkpt lat="46.06588" lon="6.96745">
        <ele>1160</ele>
        <time>2022-07-16T06:35:03.386Z</time>
      </trkpt>
      <trkpt lat="46.06615" lon="6.9677">
        <ele>1166</ele>
        <time>2022-07-16T06:35:19.848Z</time>
      </trkpt>
      <trkpt lat="46.0672" lon="6.96846">
        <ele>1159</ele>
        <time>2022-07-16T06:35:28.433Z</time>
      </trkpt>
      <trkpt lat="46.06743" lon="6.9687">
        <ele>1161</ele>
        <time>2022-07-16T06:35:36.057Z</time>
      </trkpt>
      <trkpt lat="46.06764" lon="6.96904">
        <ele>1167</ele>
        <time>2022-07-16T06:35:52.257Z</time>
      </trkpt>
      <trkpt lat="46.06789" lon="6.96954">
        <ele>1176</ele>
        <time>2022-07-16T06:36:14.191Z</time>
      </trkpt>
      <trkpt lat="46.06878" lon="6.9716">
        <ele>1243</ele>
        <time>2022-07-16T06:37:40.555Z</time>
      </trkpt>
      <trkpt lat="46.06958" lon="6.97333">
        <ele>1239</ele>
        <time>2022-07-16T06:37:54.704Z</time>
      </trkpt>
      <trkpt lat="46.06979" lon="6.9736">
        <ele>1225</ele>
        <time>2022-07-16T06:37:56.828Z</time>
      </trkpt>
      <trkpt lat="46.07017" lon="6.9739">
        <ele>1202</ele>
        <time>2022-07-16T06:38:00.098Z</time>
      </trkpt>
      <trkpt lat="46.07062" lon="6.97417">
        <ele>1187</ele>
        <time>2022-07-16T06:38:03.777Z</time>
      </trkpt>
      <trkpt lat="46.07095" lon="6.97446">
        <ele>1184</ele>
        <time>2022-07-16T06:38:06.694Z</time>
      </trkpt>
      <trkpt lat="46.07121" lon="6.97475">
        <ele>1187</ele>
        <time>2022-07-16T06:38:17.171Z</time>
      </trkpt>
      <trkpt lat="46.07138" lon="6.97521">
        <ele>1198</ele>
        <time>2022-07-16T06:38:35.718Z</time>
      </trkpt>
      <trkpt lat="46.07145" lon="6.97553">
        <ele>1203</ele>
        <time>2022-07-16T06:38:47.659Z</time>
      </trkpt>
      <trkpt lat="46.07145" lon="6.97602">
        <ele>1204</ele>
        <time>2022-07-16T06:38:53.847Z</time>
      </trkpt>
      <trkpt lat="46.07137" lon="6.97648">
        <ele>1198</ele>
        <time>2022-07-16T06:38:56.330Z</time>
      </trkpt>
      <trkpt lat="46.07125" lon="6.97679">
        <ele>1201</ele>
        <time>2022-07-16T06:39:07.146Z</time>
      </trkpt>
      <trkpt lat="46.07107" lon="6.97713">
        <ele>1205</ele>
        <time>2022-07-16T06:39:22.366Z</time>
      </trkpt>
      <trkpt lat="46.07079" lon="6.9775">
        <ele>1218</ele>
        <time>2022-07-16T06:39:41.851Z</time>
      </trkpt>
      <trkpt lat="46.07038" lon="6.97792">
        <ele>1239</ele>
        <time>2022-07-16T06:40:07.652Z</time>
      </trkpt>
      <trkpt lat="46.07013" lon="6.97823">
        <ele>1240</ele>
        <time>2022-07-16T06:40:13.724Z</time>
      </trkpt>
      <trkpt lat="46.06999" lon="6.97849">
        <ele>1234</ele>
        <time>2022-07-16T06:40:15.448Z</time>
      </trkpt>
      <trkpt lat="46.06929" lon="6.98009">
        <ele>1221</ele>
        <time>2022-07-16T06:40:25.352Z</time>
      </trkpt>
      <trkpt lat="46.06902" lon="6.98057">
        <ele>1223</ele>
        <time>2022-07-16T06:40:35.108Z</time>
      </trkpt>
      <trkpt lat="46.06873" lon="6.98101">
        <ele>1229</ele>
        <time>2022-07-16T06:40:56.706Z</time>
      </trkpt>
      <trkpt lat="46.06825" lon="6.98194">
        <ele>1232</ele>
        <time>2022-07-16T06:41:12.952Z</time>
      </trkpt>
      <trkpt lat="46.06787" lon="6.98282">
        <ele>1239</ele>
        <time>2022-07-16T06:41:37.193Z</time>
      </trkpt>
      <trkpt lat="46.06749" lon="6.98383">
        <ele>1233</ele>
        <time>2022-07-16T06:41:43.210Z</time>
      </trkpt>
      <trkpt lat="46.06724" lon="6.98436">
        <ele>1245</ele>
        <time>2022-07-16T06:42:06.018Z</time>
      </trkpt>
      <trkpt lat="46.06653" lon="6.98539">
        <ele>1255</ele>
        <time>2022-07-16T06:42:40.610Z</time>
      </trkpt>
      <trkpt lat="46.06631" lon="6.98578">
        <ele>1263</ele>
        <time>2022-07-16T06:42:58.498Z</time>
      </trkpt>
      <trkpt lat="46.06534" lon="6.98784">
        <ele>1269</ele>
        <time>2022-07-16T06:43:32.189Z</time>
      </trkpt>
      <trkpt lat="46.06507" lon="6.98833">
        <ele>1258</ele>
        <time>2022-07-16T06:43:35.466Z</time>
      </trkpt>
      <trkpt lat="46.06481" lon="6.98866">
        <ele>1264</ele>
        <time>2022-07-16T06:43:53.237Z</time>
      </trkpt>
      <trkpt lat="46.06449" lon="6.98892">
        <ele>1269</ele>
        <time>2022-07-16T06:44:12.080Z</time>
      </trkpt>
      <trkpt lat="46.06311" lon="6.98985">
        <ele>1274</ele>
        <time>2022-07-16T06:44:41.048Z</time>
      </trkpt>
      <trkpt lat="46.0623" lon="6.99051">
        <ele>1280</ele>
        <time>2022-07-16T06:45:04.954Z</time>
      </trkpt>
      <trkpt lat="46.06157" lon="6.99132">
        <ele>1288</ele>
        <time>2022-07-16T06:45:33.192Z</time>
      </trkpt>
      <trkpt lat="46.06037" lon="6.99285">
        <ele>1281</ele>
        <time>2022-07-16T06:45:46.607Z</time>
      </trkpt>
      <trkpt lat="46.06014" lon="6.993">
        <ele>1281</ele>
        <time>2022-07-16T06:45:49.964Z</time>
      </trkpt>
      <trkpt lat="46.05933" lon="6.99333">
        <ele>1282</ele>
        <time>2022-07-16T06:46:02.525Z</time>
      </trkpt>
      <trkpt lat="46.05913" lon="6.9935">
        <ele>1282</ele>
        <time>2022-07-16T06:46:05.613Z</time>
      </trkpt>
      <trkpt lat="46.05697" lon="6.99578">
        <ele>1297</ele>
        <time>2022-07-16T06:47:10.431Z</time>
      </trkpt>
      <trkpt lat="46.05674" lon="6.99598">
        <ele>1298</ele>
        <time>2022-07-16T06:47:15.852Z</time>
      </trkpt>
      <trkpt lat="46.05649" lon="6.99608">
        <ele>1301</ele>
        <time>2022-07-16T06:47:26.437Z</time>
      </trkpt>
      <trkpt lat="46.05598" lon="6.99602">
        <ele>1307</ele>
        <time>2022-07-16T06:47:47.710Z</time>
      </trkpt>
      <trkpt lat="46.05567" lon="6.99604">
        <ele>1311</ele>
        <time>2022-07-16T06:48:02.649Z</time>
      </trkpt>
      <trkpt lat="46.05512" lon="6.99626">
        <ele>1316</ele>
        <time>2022-07-16T06:48:20.261Z</time>
      </trkpt>
      <trkpt lat="46.0549" lon="6.99631">
        <ele>1318</ele>
        <time>2022-07-16T06:48:27.267Z</time>
      </trkpt>
      <trkpt lat="46.05471" lon="6.99632">
        <ele>1320</ele>
        <time>2022-07-16T06:48:34.192Z</time>
      </trkpt>
      <trkpt lat="46.0531" lon="6.99601">
        <ele>1329</ele>
        <time>2022-07-16T06:49:13.351Z</time>
      </trkpt>
      <trkpt lat="46.05274" lon="6.99601">
        <ele>1328</ele>
        <time>2022-07-16T06:49:16.880Z</time>
      </trkpt>
      <trkpt lat="46.05245" lon="6.99612">
        <ele>1332</ele>
        <time>2022-07-16T06:49:32.252Z</time>
      </trkpt>
      <trkpt lat="46.05153" lon="6.99678">
        <ele>1352</ele>
        <time>2022-07-16T06:50:24.969Z</time>
      </trkpt>
      <trkpt lat="46.0513" lon="6.99688">
        <ele>1358</ele>
        <time>2022-07-16T06:50:37.292Z</time>
      </trkpt>
      <trkpt lat="46.05097" lon="6.9969">
        <ele>1360</ele>
        <time>2022-07-16T06:50:45.543Z</time>
      </trkpt>
      <trkpt lat="46.0506" lon="6.99685">
        <ele>1361</ele>
        <time>2022-07-16T06:50:52.102Z</time>
      </trkpt>
      <trkpt lat="46.0502" lon="6.99676">
        <ele>1363</ele>
        <time>2022-07-16T06:51:01.479Z</time>
      </trkpt>
      <trkpt lat="46.04995" lon="6.99688">
        <ele>1372</ele>
        <time>2022-07-16T06:51:14.996Z</time>
      </trkpt>
      <trkpt lat="46.04973" lon="6.99703">
        <ele>1380</ele>
        <time>2022-07-16T06:51:27.480Z</time>
      </trkpt>
      <trkpt lat="46.04952" lon="6.99712">
        <ele>1385</ele>
        <time>2022-07-16T06:51:38.719Z</time>
      </trkpt>
      <trkpt lat="46.04924" lon="6.99715">
        <ele>1387</ele>
        <time>2022-07-16T06:51:46.303Z</time>
      </trkpt>
      <trkpt lat="46.04886" lon="6.99709">
        <ele>1384</ele>
        <time>2022-07-16T06:51:49.188Z</time>
      </trkpt>
      <trkpt lat="46.04851" lon="6.99711">
        <ele>1384</ele>
        <time>2022-07-16T06:51:53.846Z</time>
      </trkpt>
      <trkpt lat="46.04784" lon="6.99726">
        <ele>1395</ele>
        <time>2022-07-16T06:52:28.626Z</time>
      </trkpt>
      <trkpt lat="46.0476" lon="6.99727">
        <ele>1397</ele>
        <time>2022-07-16T06:52:35.767Z</time>
      </trkpt>
      <trkpt lat="46.04712" lon="6.99723">
        <ele>1395</ele>
        <time>2022-07-16T06:52:39.872Z</time>
      </trkpt>
      <trkpt lat="46.04681" lon="6.99725">
        <ele>1396</ele>
        <time>2022-07-16T06:52:45.727Z</time>
      </trkpt>
      <trkpt lat="46.04547" lon="6.99753">
        <ele>1402</ele>
        <time>2022-07-16T06:53:16.035Z</time>
      </trkpt>
      <trkpt lat="46.04512" lon="6.99746">
        <ele>1399</ele>
        <time>2022-07-16T06:53:18.702Z</time>
      </trkpt>
      <trkpt lat="46.04502" lon="6.99758">
        <ele>1405</ele>
        <time>2022-07-16T06:53:25.378Z</time>
      </trkpt>
      <trkpt lat="46.04503" lon="6.99773">
        <ele>1411</ele>
        <time>2022-07-16T06:53:30.743Z</time>
      </trkpt>
      <trkpt lat="46.04507" lon="6.99778">
        <ele>1414</ele>
        <time>2022-07-16T06:53:33.460Z</time>
      </trkpt>
      <trkpt lat="46.04517" lon="6.99781">
        <ele>1415</ele>
        <time>2022-07-16T06:53:36.921Z</time>
      </trkpt>
      <trkpt lat="46.04582" lon="6.99766">
        <ele>1408</ele>
        <time>2022-07-16T06:53:41.890Z</time>
      </trkpt>
      <trkpt lat="46.04628" lon="6.99766">
        <ele>1413</ele>
        <time>2022-07-16T06:53:59.271Z</time>
      </trkpt>
      <trkpt lat="46.04692" lon="6.99776">
        <ele>1424</ele>
        <time>2022-07-16T06:54:32.292Z</time>
      </trkpt>
      <trkpt lat="46.04766" lon="6.998">
        <ele>1438</ele>
        <time>2022-07-16T06:55:11.200Z</time>
      </trkpt>
      <trkpt lat="46.04833" lon="6.99825">
        <ele>1446</ele>
        <time>2022-07-16T06:55:39.422Z</time>
      </trkpt>
      <trkpt lat="46.04898" lon="6.99854">
        <ele>1455</ele>
        <time>2022-07-16T06:56:13.746Z</time>
      </trkpt>
      <trkpt lat="46.04914" lon="6.99856">
        <ele>1454</ele>
        <time>2022-07-16T06:56:14.895Z</time>
      </trkpt>
      <trkpt lat="46.04952" lon="6.99847">
        <ele>1447</ele>
        <time>2022-07-16T06:56:17.802Z</time>
      </trkpt>
      <trkpt lat="46.04969" lon="6.99846">
        <ele>1445</ele>
        <time>2022-07-16T06:56:19.086Z</time>
      </trkpt>
      <trkpt lat="46.0499" lon="6.99865">
        <ele>1454</ele>
        <time>2022-07-16T06:56:31.805Z</time>
      </trkpt>
      <trkpt lat="46.05006" lon="6.99884">
        <ele>1462</ele>
        <time>2022-07-16T06:56:42.441Z</time>
      </trkpt>
      <trkpt lat="46.05016" lon="6.9989">
        <ele>1464</ele>
        <time>2022-07-16T06:56:47.997Z</time>
      </trkpt>
      <trkpt lat="46.05027" lon="6.99892">
        <ele>1465</ele>
        <time>2022-07-16T06:56:51.497Z</time>
      </trkpt>
      <trkpt lat="46.05064" lon="6.99884">
        <ele>1461</ele>
        <time>2022-07-16T06:56:54.321Z</time>
      </trkpt>
      <trkpt lat="46.05085" lon="6.99883">
        <ele>1460</ele>
        <time>2022-07-16T06:56:56.019Z</time>
      </trkpt>
      <trkpt lat="46.05109" lon="6.99897">
        <ele>1463</ele>
        <time>2022-07-16T06:57:06.611Z</time>
      </trkpt>
      <trkpt lat="46.05138" lon="6.99923">
        <ele>1471</ele>
        <time>2022-07-16T06:57:24.131Z</time>
      </trkpt>
      <trkpt lat="46.05162" lon="6.9994">
        <ele>1478</ele>
        <time>2022-07-16T06:57:37.849Z</time>
      </trkpt>
      <trkpt lat="46.05197" lon="6.99959">
        <ele>1485</ele>
        <time>2022-07-16T06:57:57.034Z</time>
      </trkpt>
      <trkpt lat="46.05221" lon="6.99965">
        <ele>1486</ele>
        <time>2022-07-16T06:58:02.226Z</time>
      </trkpt>
      <trkpt lat="46.05253" lon="6.99968">
        <ele>1484</ele>
        <time>2022-07-16T06:58:04.518Z</time>
      </trkpt>
      <trkpt lat="46.0529" lon="6.99967">
        <ele>1485</ele>
        <time>2022-07-16T06:58:11.058Z</time>
      </trkpt>
      <trkpt lat="46.05319" lon="6.99963">
        <ele>1483</ele>
        <time>2022-07-16T06:58:13.257Z</time>
      </trkpt>
      <trkpt lat="46.05354" lon="6.99973">
        <ele>1485</ele>
        <time>2022-07-16T06:58:21.896Z</time>
      </trkpt>
      <trkpt lat="46.05391" lon="6.99987">
        <ele>1487</ele>
        <time>2022-07-16T06:58:30.927Z</time>
      </trkpt>
      <trkpt lat="46.0543" lon="6.99992">
        <ele>1488</ele>
        <time>2022-07-16T06:58:37.724Z</time>
      </trkpt>
      <trkpt lat="46.05495" lon="6.99995">
        <ele>1493</ele>
        <time>2022-07-16T06:58:56.080Z</time>
      </trkpt>
      <trkpt lat="46.05527" lon="6.99987">
        <ele>1492</ele>
        <time>2022-07-16T06:58:59.164Z</time>
      </trkpt>
      <trkpt lat="46.05656" lon="6.99987">
        <ele>1506</ele>
        <time>2022-07-16T06:59:47.819Z</time>
      </trkpt>
      <trkpt lat="46.05772" lon="6.99983">
        <ele>1516</ele>
        <time>2022-07-16T07:00:23.185Z</time>
      </trkpt>
      <trkpt lat="46.05788" lon="6.99974">
        <ele>1516</ele>
        <time>2022-07-16T07:00:25.470Z</time>
      </trkpt>
      <trkpt lat="46.05816" lon="6.99949">
        <ele>1513</ele>
        <time>2022-07-16T07:00:27.956Z</time>
      </trkpt>
      <trkpt lat="46.05823" lon="6.99949">
        <ele>1514</ele>
        <time>2022-07-16T07:00:31.546Z</time>
      </trkpt>
      <trkpt lat="46.05825" lon="6.99951">
        <ele>1515</ele>
        <time>2022-07-16T07:00:32.795Z</time>
      </trkpt>
      <trkpt lat="46.05828" lon="6.99958">
        <ele>1518</ele>
        <time>2022-07-16T07:00:35.724Z</time>
      </trkpt>
      <trkpt lat="46.05828" lon="6.99971">
        <ele>1523</ele>
        <time>2022-07-16T07:00:40.351Z</time>
      </trkpt>
      <trkpt lat="46.05775" lon="7.00106">
        <ele>1533</ele>
        <time>2022-07-16T07:01:15.168Z</time>
      </trkpt>
      <trkpt lat="46.05772" lon="7.00126">
        <ele>1533</ele>
        <time>2022-07-16T07:01:17.056Z</time>
      </trkpt>
      <trkpt lat="46.05777" lon="7.00151">
        <ele>1535</ele>
        <time>2022-07-16T07:01:24.032Z</time>
      </trkpt>
      <trkpt lat="46.05785" lon="7.00161">
        <ele>1535</ele>
        <time>2022-07-16T07:01:25.441Z</time>
      </trkpt>
      <trkpt lat="46.05848" lon="7.0021">
        <ele>1530</ele>
        <time>2022-07-16T07:01:30.844Z</time>
      </trkpt>
      <trkpt lat="46.05882" lon="7.00246">
        <ele>1537</ele>
        <time>2022-07-16T07:01:52.486Z</time>
      </trkpt>
      <trkpt lat="46.05912" lon="7.00293">
        <ele>1532</ele>
        <time>2022-07-16T07:01:55.830Z</time>
      </trkpt>
      <trkpt lat="46.05963" lon="7.00387">
        <ele>1525</ele>
        <time>2022-07-16T07:02:02.080Z</time>
      </trkpt>
      <trkpt lat="46.06005" lon="7.0048">
        <ele>1513</ele>
        <time>2022-07-16T07:02:07.891Z</time>
      </trkpt>
      <trkpt lat="46.06032" lon="7.00559">
        <ele>1508</ele>
        <time>2022-07-16T07:02:12.503Z</time>
      </trkpt>
      <trkpt lat="46.06069" lon="7.00697">
        <ele>1499</ele>
        <time>2022-07-16T07:02:20.251Z</time>
      </trkpt>
      <trkpt lat="46.06091" lon="7.00763">
        <ele>1495</ele>
        <time>2022-07-16T07:02:24.086Z</time>
      </trkpt>
      <trkpt lat="46.06118" lon="7.0083">
        <ele>1490</ele>
        <time>2022-07-16T07:02:28.144Z</time>
      </trkpt>
      <trkpt lat="46.06145" lon="7.00888">
        <ele>1487</ele>
        <time>2022-07-16T07:02:31.620Z</time>
      </trkpt>
      <trkpt lat="46.06194" lon="7.00984">
        <ele>1481</ele>
        <time>2022-07-16T07:02:37.862Z</time>
      </trkpt>
      <trkpt lat="46.06272" lon="7.01112">
        <ele>1470</ele>
        <time>2022-07-16T07:02:46.783Z</time>
      </trkpt>
      <trkpt lat="46.06397" lon="7.01277">
        <ele>1456</ele>
        <time>2022-07-16T07:02:59.577Z</time>
      </trkpt>
      <trkpt lat="46.06423" lon="7.01319">
        <ele>1452</ele>
        <time>2022-07-16T07:03:02.524Z</time>
      </trkpt>
      <trkpt lat="46.06493" lon="7.01414">
        <ele>1444</ele>
        <time>2022-07-16T07:03:09.781Z</time>
      </trkpt>
      <trkpt lat="46.06583" lon="7.01525">
        <ele>1432</ele>
        <time>2022-07-16T07:03:18.722Z</time>
      </trkpt>
      <trkpt lat="46.0665" lon="7.016">
        <ele>1420</ele>
        <time>2022-07-16T07:03:25.125Z</time>
      </trkpt>
      <trkpt lat="46.06728" lon="7.01669">
        <ele>1412</ele>
        <time>2022-07-16T07:03:32.032Z</time>
      </trkpt>
      <trkpt lat="46.06774" lon="7.01692">
        <ele>1412</ele>
        <time>2022-07-16T07:03:38.507Z</time>
      </trkpt>
      <trkpt lat="46.06844" lon="7.01717">
        <ele>1410</ele>
        <time>2022-07-16T07:03:45.581Z</time>
      </trkpt>
      <trkpt lat="46.06883" lon="7.01743">
        <ele>1411</ele>
        <time>2022-07-16T07:03:52.844Z</time>
      </trkpt>
      <trkpt lat="46.06945" lon="7.01817">
        <ele>1394</ele>
        <time>2022-07-16T07:03:58.919Z</time>
      </trkpt>
      <trkpt lat="46.06979" lon="7.01842">
        <ele>1389</ele>
        <time>2022-07-16T07:04:01.800Z</time>
      </trkpt>
      <trkpt lat="46.07011" lon="7.01857">
        <ele>1391</ele>
        <time>2022-07-16T07:04:10.140Z</time>
      </trkpt>
      <trkpt lat="46.07052" lon="7.01885">
        <ele>1392</ele>
        <time>2022-07-16T07:04:17.700Z</time>
      </trkpt>
      <trkpt lat="46.07061" lon="7.01893">
        <ele>1391</ele>
        <time>2022-07-16T07:04:18.498Z</time>
      </trkpt>
      <trkpt lat="46.07078" lon="7.01915">
        <ele>1387</ele>
        <time>2022-07-16T07:04:20.222Z</time>
      </trkpt>
      <trkpt lat="46.07098" lon="7.01949">
        <ele>1382</ele>
        <time>2022-07-16T07:04:22.557Z</time>
      </trkpt>
      <trkpt lat="46.07122" lon="7.01981">
        <ele>1378</ele>
        <time>2022-07-16T07:04:25.024Z</time>
      </trkpt>
      <trkpt lat="46.07161" lon="7.0201">
        <ele>1378</ele>
        <time>2022-07-16T07:04:30.860Z</time>
      </trkpt>
      <trkpt lat="46.07207" lon="7.02055">
        <ele>1369</ele>
        <time>2022-07-16T07:04:35.056Z</time>
      </trkpt>
      <trkpt lat="46.07242" lon="7.02084">
        <ele>1362</ele>
        <time>2022-07-16T07:04:38.103Z</time>
      </trkpt>
      <trkpt lat="46.0731" lon="7.02107">
        <ele>1359</ele>
        <time>2022-07-16T07:04:43.991Z</time>
      </trkpt>
      <trkpt lat="46.07368" lon="7.02109">
        <ele>1360</ele>
        <time>2022-07-16T07:04:53.153Z</time>
      </trkpt>
      <trkpt lat="46.07386" lon="7.02113">
        <ele>1357</ele>
        <time>2022-07-16T07:04:54.527Z</time>
      </trkpt>
      <trkpt lat="46.07407" lon="7.02124">
        <ele>1349</ele>
        <time>2022-07-16T07:04:56.214Z</time>
      </trkpt>
      <trkpt lat="46.07427" lon="7.02129">
        <ele>1344</ele>
        <time>2022-07-16T07:04:57.746Z</time>
      </trkpt>
      <trkpt lat="46.07445" lon="7.02126">
        <ele>1342</ele>
        <time>2022-07-16T07:04:59.113Z</time>
      </trkpt>
      <trkpt lat="46.07495" lon="7.02096">
        <ele>1347</ele>
        <time>2022-07-16T07:05:16.539Z</time>
      </trkpt>
      <trkpt lat="46.07528" lon="7.02058">
        <ele>1354</ele>
        <time>2022-07-16T07:05:38.204Z</time>
      </trkpt>
      <trkpt lat="46.07535" lon="7.02047">
        <ele>1356</ele>
        <time>2022-07-16T07:05:43.516Z</time>
      </trkpt>
      <trkpt lat="46.07547" lon="7.02038">
        <ele>1356</ele>
        <time>2022-07-16T07:05:45.315Z</time>
      </trkpt>
      <trkpt lat="46.07549" lon="7.02037">
        <ele>1355</ele>
        <time>2022-07-16T07:05:45.475Z</time>
      </trkpt>
      <trkpt lat="46.07557" lon="7.02044">
        <ele>1349</ele>
        <time>2022-07-16T07:05:46.181Z</time>
      </trkpt>
      <trkpt lat="46.0756" lon="7.02053">
        <ele>1344</ele>
        <time>2022-07-16T07:05:46.704Z</time>
      </trkpt>
      <trkpt lat="46.07557" lon="7.02067">
        <ele>1339</ele>
        <time>2022-07-16T07:05:47.471Z</time>
      </trkpt>
      <trkpt lat="46.07536" lon="7.02086">
        <ele>1338</ele>
        <time>2022-07-16T07:05:49.613Z</time>
      </trkpt>
      <trkpt lat="46.07517" lon="7.02099">
        <ele>1338</ele>
        <time>2022-07-16T07:05:52.410Z</time>
      </trkpt>
      <trkpt lat="46.07461" lon="7.02152">
        <ele>1323</ele>
        <time>2022-07-16T07:05:57.466Z</time>
      </trkpt>
      <trkpt lat="46.0737" lon="7.02164">
        <ele>1322</ele>
        <time>2022-07-16T07:06:08.404Z</time>
      </trkpt>
      <trkpt lat="46.07326" lon="7.02177">
        <ele>1315</ele>
        <time>2022-07-16T07:06:11.794Z</time>
      </trkpt>
      <trkpt lat="46.07298" lon="7.02178">
        <ele>1312</ele>
        <time>2022-07-16T07:06:13.908Z</time>
      </trkpt>
      <trkpt lat="46.07269" lon="7.02171">
        <ele>1315</ele>
        <time>2022-07-16T07:06:24.282Z</time>
      </trkpt>
      <trkpt lat="46.07206" lon="7.02173">
        <ele>1303</ele>
        <time>2022-07-16T07:06:29.038Z</time>
      </trkpt>
      <trkpt lat="46.0718" lon="7.02166">
        <ele>1300</ele>
        <time>2022-07-16T07:06:31.034Z</time>
      </trkpt>
      <trkpt lat="46.071" lon="7.02131">
        <ele>1299</ele>
        <time>2022-07-16T07:06:40.910Z</time>
      </trkpt>
      <trkpt lat="46.06966" lon="7.02065">
        <ele>1289</ele>
        <time>2022-07-16T07:06:51.598Z</time>
      </trkpt>
      <trkpt lat="46.06864" lon="7.02021">
        <ele>1283</ele>
        <time>2022-07-16T07:06:59.583Z</time>
      </trkpt>
      <trkpt lat="46.06833" lon="7.02016">
        <ele>1277</ele>
        <time>2022-07-16T07:07:01.938Z</time>
      </trkpt>
      <trkpt lat="46.06792" lon="7.02016">
        <ele>1271</ele>
        <time>2022-07-16T07:07:05.032Z</time>
      </trkpt>
      <trkpt lat="46.06726" lon="7.02029">
        <ele>1256</ele>
        <time>2022-07-16T07:07:10.060Z</time>
      </trkpt>
      <trkpt lat="46.06674" lon="7.02029">
        <ele>1247</ele>
        <time>2022-07-16T07:07:13.985Z</time>
      </trkpt>
      <trkpt lat="46.06661" lon="7.02023">
        <ele>1248</ele>
        <time>2022-07-16T07:07:17.730Z</time>
      </trkpt>
      <trkpt lat="46.06618" lon="7.01995">
        <ele>1252</ele>
        <time>2022-07-16T07:07:31.939Z</time>
      </trkpt>
      <trkpt lat="46.06565" lon="7.01957">
        <ele>1259</ele>
        <time>2022-07-16T07:07:56.840Z</time>
      </trkpt>
      <trkpt lat="46.06561" lon="7.01955">
        <ele>1259</ele>
        <time>2022-07-16T07:07:57.403Z</time>
      </trkpt>
      <trkpt lat="46.06551" lon="7.01957">
        <ele>1259</ele>
        <time>2022-07-16T07:07:58.745Z</time>
      </trkpt>
      <trkpt lat="46.06546" lon="7.01971">
        <ele>1257</ele>
        <time>2022-07-16T07:07:59.570Z</time>
      </trkpt>
      <trkpt lat="46.06547" lon="7.0198">
        <ele>1255</ele>
        <time>2022-07-16T07:08:00.047Z</time>
      </trkpt>
      <trkpt lat="46.06556" lon="7.01993">
        <ele>1251</ele>
        <time>2022-07-16T07:08:01.009Z</time>
      </trkpt>
      <trkpt lat="46.06614" lon="7.02015">
        <ele>1246</ele>
        <time>2022-07-16T07:08:05.535Z</time>
      </trkpt>
      <trkpt lat="46.06626" lon="7.02026">
        <ele>1244</ele>
        <time>2022-07-16T07:08:06.609Z</time>
      </trkpt>
      <trkpt lat="46.06654" lon="7.02061">
        <ele>1233</ele>
        <time>2022-07-16T07:08:09.406Z</time>
      </trkpt>
      <trkpt lat="46.0667" lon="7.02075">
        <ele>1228</ele>
        <time>2022-07-16T07:08:10.819Z</time>
      </trkpt>
      <trkpt lat="46.0675" lon="7.02113">
        <ele>1229</ele>
        <time>2022-07-16T07:08:23.387Z</time>
      </trkpt>
      <trkpt lat="46.06846" lon="7.02151">
        <ele>1226</ele>
        <time>2022-07-16T07:08:32.907Z</time>
      </trkpt>
      <trkpt lat="46.06866" lon="7.02166">
        <ele>1225</ele>
        <time>2022-07-16T07:08:34.783Z</time>
      </trkpt>
      <trkpt lat="46.06934" lon="7.02232">
        <ele>1214</ele>
        <time>2022-07-16T07:08:40.971Z</time>
      </trkpt>
      <trkpt lat="46.06991" lon="7.0227">
        <ele>1205</ele>
        <time>2022-07-16T07:08:45.711Z</time>
      </trkpt>
      <trkpt lat="46.07075" lon="7.02316">
        <ele>1202</ele>
        <time>2022-07-16T07:08:54.020Z</time>
      </trkpt>
      <trkpt lat="46.07123" lon="7.02353">
        <ele>1194</ele>
        <time>2022-07-16T07:08:58.128Z</time>
      </trkpt>
      <trkpt lat="46.07135" lon="7.02363">
        <ele>1192</ele>
        <time>2022-07-16T07:08:59.174Z</time>
      </trkpt>
      <trkpt lat="46.07135" lon="7.02366">
        <ele>1190</ele>
        <time>2022-07-16T07:08:59.331Z</time>
      </trkpt>
      <trkpt lat="46.07146" lon="7.02374">
        <ele>1189</ele>
        <time>2022-07-16T07:09:00.261Z</time>
      </trkpt>
      <trkpt lat="46.0717" lon="7.02385">
        <ele>1187</ele>
        <time>2022-07-16T07:09:02.162Z</time>
      </trkpt>
      <trkpt lat="46.0728" lon="7.02405">
        <ele>1185</ele>
        <time>2022-07-16T07:09:14.303Z</time>
      </trkpt>
      <trkpt lat="46.07301" lon="7.02412">
        <ele>1185</ele>
        <time>2022-07-16T07:09:17.169Z</time>
      </trkpt>
      <trkpt lat="46.07312" lon="7.0242">
        <ele>1184</ele>
        <time>2022-07-16T07:09:18.099Z</time>
      </trkpt>
      <trkpt lat="46.07327" lon="7.02438">
        <ele>1179</ele>
        <time>2022-07-16T07:09:19.572Z</time>
      </trkpt>
      <trkpt lat="46.07364" lon="7.02502">
        <ele>1159</ele>
        <time>2022-07-16T07:09:23.934Z</time>
      </trkpt>
      <trkpt lat="46.07383" lon="7.02517">
        <ele>1159</ele>
        <time>2022-07-16T07:09:26.815Z</time>
      </trkpt>
      <trkpt lat="46.07391" lon="7.02521">
        <ele>1160</ele>
        <time>2022-07-16T07:09:30.371Z</time>
      </trkpt>
      <trkpt lat="46.07412" lon="7.02523">
        <ele>1165</ele>
        <time>2022-07-16T07:09:41.166Z</time>
      </trkpt>
      <trkpt lat="46.07454" lon="7.02516">
        <ele>1156</ele>
        <time>2022-07-16T07:09:44.357Z</time>
      </trkpt>
      <trkpt lat="46.07462" lon="7.02523">
        <ele>1151</ele>
        <time>2022-07-16T07:09:45.063Z</time>
      </trkpt>
      <trkpt lat="46.07464" lon="7.02531">
        <ele>1148</ele>
        <time>2022-07-16T07:09:45.509Z</time>
      </trkpt>
      <trkpt lat="46.07463" lon="7.02547">
        <ele>1142</ele>
        <time>2022-07-16T07:09:46.350Z</time>
      </trkpt>
      <trkpt lat="46.07459" lon="7.02552">
        <ele>1142</ele>
        <time>2022-07-16T07:09:47.054Z</time>
      </trkpt>
      <trkpt lat="46.07451" lon="7.02556">
        <ele>1143</ele>
        <time>2022-07-16T07:09:50.609Z</time>
      </trkpt>
      <trkpt lat="46.07377" lon="7.02564">
        <ele>1142</ele>
        <time>2022-07-16T07:09:59.206Z</time>
      </trkpt>
      <trkpt lat="46.07359" lon="7.02559">
        <ele>1139</ele>
        <time>2022-07-16T07:10:00.590Z</time>
      </trkpt>
      <trkpt lat="46.07352" lon="7.02554">
        <ele>1139</ele>
        <time>2022-07-16T07:10:01.629Z</time>
      </trkpt>
      <trkpt lat="46.07311" lon="7.0249">
        <ele>1151</ele>
        <time>2022-07-16T07:10:32.628Z</time>
      </trkpt>
      <trkpt lat="46.07299" lon="7.0248">
        <ele>1152</ele>
        <time>2022-07-16T07:10:36.399Z</time>
      </trkpt>
      <trkpt lat="46.07287" lon="7.02475">
        <ele>1152</ele>
        <time>2022-07-16T07:10:38.060Z</time>
      </trkpt>
      <trkpt lat="46.07278" lon="7.02473">
        <ele>1150</ele>
        <time>2022-07-16T07:10:38.747Z</time>
      </trkpt>
      <trkpt lat="46.07257" lon="7.02475">
        <ele>1144</ele>
        <time>2022-07-16T07:10:40.335Z</time>
      </trkpt>
      <trkpt lat="46.07218" lon="7.02487">
        <ele>1137</ele>
        <time>2022-07-16T07:10:43.345Z</time>
      </trkpt>
      <trkpt lat="46.07203" lon="7.02486">
        <ele>1137</ele>
        <time>2022-07-16T07:10:45.342Z</time>
      </trkpt>
      <trkpt lat="46.07165" lon="7.02475">
        <ele>1142</ele>
        <time>2022-07-16T07:11:04.027Z</time>
      </trkpt>
      <trkpt lat="46.07149" lon="7.02478">
        <ele>1139</ele>
        <time>2022-07-16T07:11:05.245Z</time>
      </trkpt>
      <trkpt lat="46.07114" lon="7.02491">
        <ele>1128</ele>
        <time>2022-07-16T07:11:07.973Z</time>
      </trkpt>
      <trkpt lat="46.07095" lon="7.02495">
        <ele>1123</ele>
        <time>2022-07-16T07:11:09.422Z</time>
      </trkpt>
      <trkpt lat="46.07083" lon="7.02494">
        <ele>1122</ele>
        <time>2022-07-16T07:11:10.329Z</time>
      </trkpt>
      <trkpt lat="46.0703" lon="7.02474">
        <ele>1123</ele>
        <time>2022-07-16T07:11:19.078Z</time>
      </trkpt>
      <trkpt lat="46.07006" lon="7.02473">
        <ele>1119</ele>
        <time>2022-07-16T07:11:20.890Z</time>
      </trkpt>
      <trkpt lat="46.06882" lon="7.02508">
        <ele>1110</ele>
        <time>2022-07-16T07:11:30.427Z</time>
      </trkpt>
      <trkpt lat="46.06874" lon="7.02524">
        <ele>1112</ele>
        <time>2022-07-16T07:11:37.445Z</time>
      </trkpt>
      <trkpt lat="46.06876" lon="7.02541">
        <ele>1111</ele>
        <time>2022-07-16T07:11:38.348Z</time>
      </trkpt>
      <trkpt lat="46.06882" lon="7.02547">
        <ele>1108</ele>
        <time>2022-07-16T07:11:38.899Z</time>
      </trkpt>
      <trkpt lat="46.06889" lon="7.02548">
        <ele>1106</ele>
        <time>2022-07-16T07:11:39.430Z</time>
      </trkpt>
      <trkpt lat="46.06897" lon="7.02546">
        <ele>1103</ele>
        <time>2022-07-16T07:11:40.043Z</time>
      </trkpt>
      <trkpt lat="46.0692" lon="7.02531">
        <ele>1099</ele>
        <time>2022-07-16T07:11:41.948Z</time>
      </trkpt>
      <trkpt lat="46.06929" lon="7.02528">
        <ele>1099</ele>
        <time>2022-07-16T07:11:43.177Z</time>
      </trkpt>
      <trkpt lat="46.06954" lon="7.02524">
        <ele>1099</ele>
        <time>2022-07-16T07:11:46.522Z</time>
      </trkpt>
      <trkpt lat="46.06987" lon="7.02525">
        <ele>1097</ele>
        <time>2022-07-16T07:11:48.914Z</time>
      </trkpt>
      <trkpt lat="46.07019" lon="7.02541">
        <ele>1093</ele>
        <time>2022-07-16T07:11:51.471Z</time>
      </trkpt>
      <trkpt lat="46.07065" lon="7.02582">
        <ele>1081</ele>
        <time>2022-07-16T07:11:55.553Z</time>
      </trkpt>
      <trkpt lat="46.07081" lon="7.02591">
        <ele>1079</ele>
        <time>2022-07-16T07:11:56.849Z</time>
      </trkpt>
      <trkpt lat="46.07094" lon="7.02595">
        <ele>1078</ele>
        <time>2022-07-16T07:11:57.852Z</time>
      </trkpt>
      <trkpt lat="46.07162" lon="7.02594">
        <ele>1081</ele>
        <time>2022-07-16T07:12:13.028Z</time>
      </trkpt>
      <trkpt lat="46.07201" lon="7.02599">
        <ele>1083</ele>
        <time>2022-07-16T07:12:22.198Z</time>
      </trkpt>
      <trkpt lat="46.0722" lon="7.02608">
        <ele>1082</ele>
        <time>2022-07-16T07:12:23.781Z</time>
      </trkpt>
      <trkpt lat="46.07238" lon="7.02622">
        <ele>1078</ele>
        <time>2022-07-16T07:12:25.324Z</time>
      </trkpt>
      <trkpt lat="46.07257" lon="7.02645">
        <ele>1073</ele>
        <time>2022-07-16T07:12:27.197Z</time>
      </trkpt>
      <trkpt lat="46.07317" lon="7.02742">
        <ele>1060</ele>
        <time>2022-07-16T07:12:34.002Z</time>
      </trkpt>
      <trkpt lat="46.07337" lon="7.02769">
        <ele>1055</ele>
        <time>2022-07-16T07:12:36.070Z</time>
      </trkpt>
      <trkpt lat="46.07367" lon="7.02802">
        <ele>1048</ele>
        <time>2022-07-16T07:12:38.918Z</time>
      </trkpt>
      <trkpt lat="46.07434" lon="7.02857">
        <ele>1042</ele>
        <time>2022-07-16T07:12:44.737Z</time>
      </trkpt>
      <trkpt lat="46.07462" lon="7.02869">
        <ele>1039</ele>
        <time>2022-07-16T07:12:46.942Z</time>
      </trkpt>
      <trkpt lat="46.07492" lon="7.02871">
        <ele>1040</ele>
        <time>2022-07-16T07:12:52.689Z</time>
      </trkpt>
      <trkpt lat="46.07504" lon="7.02869">
        <ele>1040</ele>
        <time>2022-07-16T07:12:54.295Z</time>
      </trkpt>
      <trkpt lat="46.07553" lon="7.02852">
        <ele>1033</ele>
        <time>2022-07-16T07:12:58.099Z</time>
      </trkpt>
      <trkpt lat="46.07576" lon="7.02851">
        <ele>1029</ele>
        <time>2022-07-16T07:12:59.836Z</time>
      </trkpt>
      <trkpt lat="46.07593" lon="7.02856">
        <ele>1027</ele>
        <time>2022-07-16T07:13:01.145Z</time>
      </trkpt>
      <trkpt lat="46.0765" lon="7.02887">
        <ele>1026</ele>
        <time>2022-07-16T07:13:07.949Z</time>
      </trkpt>
      <trkpt lat="46.07665" lon="7.02901">
        <ele>1024</ele>
        <time>2022-07-16T07:13:09.298Z</time>
      </trkpt>
      <trkpt lat="46.07677" lon="7.02914">
        <ele>1025</ele>
        <time>2022-07-16T07:13:13.215Z</time>
      </trkpt>
      <trkpt lat="46.07696" lon="7.02941">
        <ele>1026</ele>
        <time>2022-07-16T07:13:18.618Z</time>
      </trkpt>
      <trkpt lat="46.07721" lon="7.02985">
        <ele>1025</ele>
        <time>2022-07-16T07:13:22.590Z</time>
      </trkpt>
      <trkpt lat="46.07748" lon="7.03043">
        <ele>1021</ele>
        <time>2022-07-16T07:13:26.247Z</time>
      </trkpt>
      <trkpt lat="46.07776" lon="7.03129">
        <ele>1008</ele>
        <time>2022-07-16T07:13:31.221Z</time>
      </trkpt>
      <trkpt lat="46.07786" lon="7.0319">
        <ele>990</ele>
        <time>2022-07-16T07:13:34.503Z</time>
      </trkpt>
      <trkpt lat="46.07793" lon="7.0321">
        <ele>986</ele>
        <time>2022-07-16T07:13:35.675Z</time>
      </trkpt>
      <trkpt lat="46.07805" lon="7.03225">
        <ele>985</ele>
        <time>2022-07-16T07:13:36.805Z</time>
      </trkpt>
      <trkpt lat="46.07864" lon="7.03279">
        <ele>977</ele>
        <time>2022-07-16T07:13:42.080Z</time>
      </trkpt>
      <trkpt lat="46.0788" lon="7.03288">
        <ele>976</ele>
        <time>2022-07-16T07:13:43.349Z</time>
      </trkpt>
      <trkpt lat="46.07887" lon="7.03289">
        <ele>976</ele>
        <time>2022-07-16T07:13:44.284Z</time>
      </trkpt>
      <trkpt lat="46.07904" lon="7.03286">
        <ele>979</ele>
        <time>2022-07-16T07:13:53.069Z</time>
      </trkpt>
      <trkpt lat="46.07952" lon="7.03238">
        <ele>988</ele>
        <time>2022-07-16T07:14:23.035Z</time>
      </trkpt>
      <trkpt lat="46.07974" lon="7.03223">
        <ele>988</ele>
        <time>2022-07-16T07:14:26.271Z</time>
      </trkpt>
      <trkpt lat="46.07983" lon="7.03221">
        <ele>987</ele>
        <time>2022-07-16T07:14:26.958Z</time>
      </trkpt>
      <trkpt lat="46.07997" lon="7.03222">
        <ele>983</ele>
        <time>2022-07-16T07:14:28.016Z</time>
      </trkpt>
      <trkpt lat="46.08004" lon="7.03225">
        <ele>982</ele>
        <time>2022-07-16T07:14:28.568Z</time>
      </trkpt>
      <trkpt lat="46.08018" lon="7.03237">
        <ele>982</ele>
        <time>2022-07-16T07:14:30.734Z</time>
      </trkpt>
      <trkpt lat="46.08046" lon="7.03288">
        <ele>975</ele>
        <time>2022-07-16T07:14:34.139Z</time>
      </trkpt>
      <trkpt lat="46.08078" lon="7.03358">
        <ele>965</ele>
        <time>2022-07-16T07:14:38.528Z</time>
      </trkpt>
      <trkpt lat="46.08101" lon="7.03419">
        <ele>962</ele>
        <time>2022-07-16T07:14:41.972Z</time>
      </trkpt>
      <trkpt lat="46.08111" lon="7.03453">
        <ele>963</ele>
        <time>2022-07-16T07:14:47.275Z</time>
      </trkpt>
      <trkpt lat="46.08113" lon="7.03479">
        <ele>960</ele>
        <time>2022-07-16T07:14:48.644Z</time>
      </trkpt>
      <trkpt lat="46.0811" lon="7.03498">
        <ele>956</ele>
        <time>2022-07-16T07:14:49.664Z</time>
      </trkpt>
      <trkpt lat="46.08086" lon="7.03556">
        <ele>938</ele>
        <time>2022-07-16T07:14:53.200Z</time>
      </trkpt>
      <trkpt lat="46.08083" lon="7.03586">
        <ele>934</ele>
        <time>2022-07-16T07:14:54.787Z</time>
      </trkpt>
      <trkpt lat="46.08085" lon="7.03599">
        <ele>932</ele>
        <time>2022-07-16T07:14:55.484Z</time>
      </trkpt>
      <trkpt lat="46.08091" lon="7.03614">
        <ele>932</ele>
        <time>2022-07-16T07:14:57.081Z</time>
      </trkpt>
      <trkpt lat="46.08137" lon="7.03685">
        <ele>934</ele>
        <time>2022-07-16T07:15:09.389Z</time>
      </trkpt>
      <trkpt lat="46.0818" lon="7.03719">
        <ele>937</ele>
        <time>2022-07-16T07:15:21.694Z</time>
      </trkpt>
      <trkpt lat="46.08233" lon="7.03807">
        <ele>922</ele>
        <time>2022-07-16T07:15:27.795Z</time>
      </trkpt>
      <trkpt lat="46.08326" lon="7.03925">
        <ele>910</ele>
        <time>2022-07-16T07:15:37.145Z</time>
      </trkpt>
      <trkpt lat="46.08371" lon="7.03972">
        <ele>901</ele>
        <time>2022-07-16T07:15:41.339Z</time>
      </trkpt>
      <trkpt lat="46.08399" lon="7.03994">
        <ele>897</ele>
        <time>2022-07-16T07:15:43.746Z</time>
      </trkpt>
      <trkpt lat="46.08428" lon="7.04002">
        <ele>900</ele>
        <time>2022-07-16T07:15:54.120Z</time>
      </trkpt>
      <trkpt lat="46.08457" lon="7.04002">
        <ele>907</ele>
        <time>2022-07-16T07:16:08.995Z</time>
      </trkpt>
      <trkpt lat="46.08467" lon="7.04005">
        <ele>909</ele>
        <time>2022-07-16T07:16:14.234Z</time>
      </trkpt>
      <trkpt lat="46.08485" lon="7.04016">
        <ele>909</ele>
        <time>2022-07-16T07:16:16.834Z</time>
      </trkpt>
      <trkpt lat="46.08524" lon="7.04091">
        <ele>896</ele>
        <time>2022-07-16T07:16:21.741Z</time>
      </trkpt>
      <trkpt lat="46.0858" lon="7.04186">
        <ele>886</ele>
        <time>2022-07-16T07:16:28.268Z</time>
      </trkpt>
      <trkpt lat="46.08674" lon="7.04306">
        <ele>874</ele>
        <time>2022-07-16T07:16:37.744Z</time>
      </trkpt>
      <trkpt lat="46.08731" lon="7.04374">
        <ele>867</ele>
        <time>2022-07-16T07:16:43.328Z</time>
      </trkpt>
      <trkpt lat="46.08883" lon="7.04518">
        <ele>848</ele>
        <time>2022-07-16T07:16:57.055Z</time>
      </trkpt>
      <trkpt lat="46.08905" lon="7.04535">
        <ele>846</ele>
        <time>2022-07-16T07:16:58.939Z</time>
      </trkpt>
      <trkpt lat="46.08927" lon="7.04542">
        <ele>848</ele>
        <time>2022-07-16T07:17:05.962Z</time>
      </trkpt>
      <trkpt lat="46.08958" lon="7.04557">
        <ele>847</ele>
        <time>2022-07-16T07:17:09.074Z</time>
      </trkpt>
      <trkpt lat="46.09009" lon="7.04598">
        <ele>838</ele>
        <time>2022-07-16T07:17:13.481Z</time>
      </trkpt>
      <trkpt lat="46.09056" lon="7.04645">
        <ele>833</ele>
        <time>2022-07-16T07:17:17.798Z</time>
      </trkpt>
      <trkpt lat="46.0909" lon="7.04688">
        <ele>826</ele>
        <time>2022-07-16T07:17:21.211Z</time>
      </trkpt>
      <trkpt lat="46.09121" lon="7.04735">
        <ele>824</ele>
        <time>2022-07-16T07:17:24.951Z</time>
      </trkpt>
      <trkpt lat="46.09143" lon="7.04782">
        <ele>820</ele>
        <time>2022-07-16T07:17:27.919Z</time>
      </trkpt>
      <trkpt lat="46.09177" lon="7.04888">
        <ele>804</ele>
        <time>2022-07-16T07:17:34.032Z</time>
      </trkpt>
      <trkpt lat="46.09191" lon="7.04913">
        <ele>803</ele>
        <time>2022-07-16T07:17:35.878Z</time>
      </trkpt>
      <trkpt lat="46.09233" lon="7.04964">
        <ele>807</ele>
        <time>2022-07-16T07:17:50.894Z</time>
      </trkpt>
      <trkpt lat="46.09332" lon="7.05121">
        <ele>787</ele>
        <time>2022-07-16T07:18:02.001Z</time>
      </trkpt>
      <trkpt lat="46.09359" lon="7.05157">
        <ele>782</ele>
        <time>2022-07-16T07:18:04.776Z</time>
      </trkpt>
      <trkpt lat="46.09391" lon="7.05193">
        <ele>778</ele>
        <time>2022-07-16T07:18:07.839Z</time>
      </trkpt>
      <trkpt lat="46.09424" lon="7.05225">
        <ele>773</ele>
        <time>2022-07-16T07:18:10.841Z</time>
      </trkpt>
      <trkpt lat="46.09475" lon="7.05257">
        <ele>776</ele>
        <time>2022-07-16T07:18:24.117Z</time>
      </trkpt>
      <trkpt lat="46.0952" lon="7.05292">
        <ele>775</ele>
        <time>2022-07-16T07:18:29.615Z</time>
      </trkpt>
      <trkpt lat="46.09665" lon="7.05424">
        <ele>744</ele>
        <time>2022-07-16T07:18:42.557Z</time>
      </trkpt>
      <trkpt lat="46.09724" lon="7.05458">
        <ele>744</ele>
        <time>2022-07-16T07:18:51.007Z</time>
      </trkpt>
      <trkpt lat="46.09758" lon="7.05496">
        <ele>739</ele>
        <time>2022-07-16T07:18:54.254Z</time>
      </trkpt>
      <trkpt lat="46.09922" lon="7.05709">
        <ele>718</ele>
        <time>2022-07-16T07:19:10.911Z</time>
      </trkpt>
      <trkpt lat="46.09942" lon="7.05742">
        <ele>714</ele>
        <time>2022-07-16T07:19:13.205Z</time>
      </trkpt>
      <trkpt lat="46.0997" lon="7.05798">
        <ele>712</ele>
        <time>2022-07-16T07:19:17.285Z</time>
      </trkpt>
      <trkpt lat="46.10009" lon="7.05944">
        <ele>699</ele>
        <time>2022-07-16T07:19:25.473Z</time>
      </trkpt>
      <trkpt lat="46.10041" lon="7.06026">
        <ele>695</ele>
        <time>2022-07-16T07:19:30.175Z</time>
      </trkpt>
      <trkpt lat="46.10062" lon="7.06065">
        <ele>690</ele>
        <time>2022-07-16T07:19:32.760Z</time>
      </trkpt>
      <trkpt lat="46.1011" lon="7.06118">
        <ele>687</ele>
        <time>2022-07-16T07:19:37.559Z</time>
      </trkpt>
      <trkpt lat="46.10186" lon="7.06211">
        <ele>677</ele>
        <time>2022-07-16T07:19:45.082Z</time>
      </trkpt>
      <trkpt lat="46.10333" lon="7.06404">
        <ele>665</ele>
        <time>2022-07-16T07:19:59.516Z</time>
      </trkpt>
      <trkpt lat="46.10363" lon="7.0642">
        <ele>670</ele>
        <time>2022-07-16T07:20:15.923Z</time>
      </trkpt>
      <trkpt lat="46.10367" lon="7.06427">
        <ele>669</ele>
        <time>2022-07-16T07:20:16.398Z</time>
      </trkpt>
      <trkpt lat="46.10367" lon="7.06438">
        <ele>663</ele>
        <time>2022-07-16T07:20:16.974Z</time>
      </trkpt>
      <trkpt lat="46.10363" lon="7.06445">
        <ele>658</ele>
        <time>2022-07-16T07:20:17.448Z</time>
      </trkpt>
      <trkpt lat="46.10357" lon="7.06448">
        <ele>654</ele>
        <time>2022-07-16T07:20:17.928Z</time>
      </trkpt>
      <trkpt lat="46.10348" lon="7.06444">
        <ele>652</ele>
        <time>2022-07-16T07:20:18.638Z</time>
      </trkpt>
      <trkpt lat="46.10306" lon="7.06395">
        <ele>655</ele>
        <time>2022-07-16T07:20:31.673Z</time>
      </trkpt>
      <trkpt lat="46.10154" lon="7.06269">
        <ele>637</ele>
        <time>2022-07-16T07:20:44.905Z</time>
      </trkpt>
      <trkpt lat="46.10124" lon="7.06247">
        <ele>633</ele>
        <time>2022-07-16T07:20:47.445Z</time>
      </trkpt>
      <trkpt lat="46.10083" lon="7.06219">
        <ele>627</ele>
        <time>2022-07-16T07:20:50.869Z</time>
      </trkpt>
      <trkpt lat="46.10023" lon="7.06199">
        <ele>612</ele>
        <time>2022-07-16T07:20:55.517Z</time>
      </trkpt>
      <trkpt lat="46.09998" lon="7.06185">
        <ele>611</ele>
        <time>2022-07-16T07:20:57.903Z</time>
      </trkpt>
      <trkpt lat="46.09962" lon="7.06124">
        <ele>621</ele>
        <time>2022-07-16T07:21:26.394Z</time>
      </trkpt>
      <trkpt lat="46.09949" lon="7.06107">
        <ele>622</ele>
        <time>2022-07-16T07:21:30.670Z</time>
      </trkpt>
      <trkpt lat="46.09783" lon="7.05944">
        <ele>602</ele>
        <time>2022-07-16T07:21:45.827Z</time>
      </trkpt>
      <trkpt lat="46.09775" lon="7.05939">
        <ele>602</ele>
        <time>2022-07-16T07:21:46.987Z</time>
      </trkpt>
      <trkpt lat="46.09758" lon="7.05937">
        <ele>599</ele>
        <time>2022-07-16T07:21:48.274Z</time>
      </trkpt>
      <trkpt lat="46.09719" lon="7.05952">
        <ele>585</ele>
        <time>2022-07-16T07:21:51.321Z</time>
      </trkpt>
      <trkpt lat="46.09689" lon="7.05945">
        <ele>582</ele>
        <time>2022-07-16T07:21:53.614Z</time>
      </trkpt>
      <trkpt lat="46.0967" lon="7.05935">
        <ele>584</ele>
        <time>2022-07-16T07:22:00.534Z</time>
      </trkpt>
      <trkpt lat="46.09582" lon="7.05875">
        <ele>570</ele>
        <time>2022-07-16T07:22:07.881Z</time>
      </trkpt>
      <trkpt lat="46.0954" lon="7.05824">
        <ele>571</ele>
        <time>2022-07-16T07:22:16.645Z</time>
      </trkpt>
      <trkpt lat="46.095" lon="7.05791">
        <ele>568</ele>
        <time>2022-07-16T07:22:19.869Z</time>
      </trkpt>
      <trkpt lat="46.09391" lon="7.05723">
        <ele>550</ele>
        <time>2022-07-16T07:22:28.833Z</time>
      </trkpt>
      <trkpt lat="46.09333" lon="7.05662">
        <ele>548</ele>
        <time>2022-07-16T07:22:35.865Z</time>
      </trkpt>
      <trkpt lat="46.0929" lon="7.05611">
        <ele>546</ele>
        <time>2022-07-16T07:22:40.884Z</time>
      </trkpt>
      <trkpt lat="46.09268" lon="7.05591">
        <ele>542</ele>
        <time>2022-07-16T07:22:42.847Z</time>
      </trkpt>
      <trkpt lat="46.09241" lon="7.05576">
        <ele>537</ele>
        <time>2022-07-16T07:22:45.031Z</time>
      </trkpt>
      <trkpt lat="46.09219" lon="7.05559">
        <ele>535</ele>
        <time>2022-07-16T07:22:46.915Z</time>
      </trkpt>
      <trkpt lat="46.09165" lon="7.05504">
        <ele>532</ele>
        <time>2022-07-16T07:22:52.366Z</time>
      </trkpt>
      <trkpt lat="46.09138" lon="7.05486">
        <ele>529</ele>
        <time>2022-07-16T07:22:54.611Z</time>
      </trkpt>
      <trkpt lat="46.09048" lon="7.05449">
        <ele>521</ele>
        <time>2022-07-16T07:23:01.674Z</time>
      </trkpt>
      <trkpt lat="46.09007" lon="7.05435">
        <ele>522</ele>
        <time>2022-07-16T07:23:08.834Z</time>
      </trkpt>
      <trkpt lat="46.0899" lon="7.05434">
        <ele>521</ele>
        <time>2022-07-16T07:23:10.085Z</time>
      </trkpt>
      <trkpt lat="46.08975" lon="7.0544">
        <ele>518</ele>
        <time>2022-07-16T07:23:11.260Z</time>
      </trkpt>
      <trkpt lat="46.08924" lon="7.05481">
        <ele>502</ele>
        <time>2022-07-16T07:23:15.667Z</time>
      </trkpt>
      <trkpt lat="46.08911" lon="7.05487">
        <ele>501</ele>
        <time>2022-07-16T07:23:16.698Z</time>
      </trkpt>
      <trkpt lat="46.0884" lon="7.05494">
        <ele>505</ele>
        <time>2022-07-16T07:23:33.948Z</time>
      </trkpt>
      <trkpt lat="46.0882" lon="7.05506">
        <ele>504</ele>
        <time>2022-07-16T07:23:35.721Z</time>
      </trkpt>
      <trkpt lat="46.08805" lon="7.05522">
        <ele>504</ele>
        <time>2022-07-16T07:23:38.202Z</time>
      </trkpt>
      <trkpt lat="46.08799" lon="7.05522">
        <ele>504</ele>
        <time>2022-07-16T07:23:39.000Z</time>
      </trkpt>
      <trkpt lat="46.08795" lon="7.05525">
        <ele>504</ele>
        <time>2022-07-16T07:23:39.600Z</time>
      </trkpt>
      <trkpt lat="46.08678" lon="7.05458">
        <ele>510</ele>
        <time>2022-07-16T07:24:08.432Z</time>
      </trkpt>
      <trkpt lat="46.0867" lon="7.05459">
        <ele>510</ele>
        <time>2022-07-16T07:24:09.500Z</time>
      </trkpt>
      <trkpt lat="46.08653" lon="7.05452">
        <ele>511</ele>
        <time>2022-07-16T07:24:13.796Z</time>
      </trkpt>
      <trkpt lat="46.08617" lon="7.05443">
        <ele>513</ele>
        <time>2022-07-16T07:24:22.564Z</time>
      </trkpt>
      <trkpt lat="46.08579" lon="7.05438">
        <ele>515</ele>
        <time>2022-07-16T07:24:31.580Z</time>
      </trkpt>
      <trkpt lat="46.08512" lon="7.05437">
        <ele>516</ele>
        <time>2022-07-16T07:24:41.901Z</time>
      </trkpt>
      <trkpt lat="46.08453" lon="7.05431">
        <ele>516</ele>
        <time>2022-07-16T07:24:49.767Z</time>
      </trkpt>
      <trkpt lat="46.08433" lon="7.05419">
        <ele>517</ele>
        <time>2022-07-16T07:24:54.681Z</time>
      </trkpt>
      <trkpt lat="46.08416" lon="7.05405">
        <ele>519</ele>
        <time>2022-07-16T07:25:01.597Z</time>
      </trkpt>
      <trkpt lat="46.08391" lon="7.05369">
        <ele>522</ele>
        <time>2022-07-16T07:25:12.249Z</time>
      </trkpt>
      <trkpt lat="46.08343" lon="7.05317">
        <ele>526</ele>
        <time>2022-07-16T07:25:27.917Z</time>
      </trkpt>
      <trkpt lat="46.08329" lon="7.05307">
        <ele>529</ele>
        <time>2022-07-16T07:25:35.932Z</time>
      </trkpt>
      <trkpt lat="46.08305" lon="7.05296">
        <ele>533</ele>
        <time>2022-07-16T07:25:48.849Z</time>
      </trkpt>
      <trkpt lat="46.08274" lon="7.05289">
        <ele>536</ele>
        <time>2022-07-16T07:25:59.256Z</time>
      </trkpt>
      <trkpt lat="46.0824" lon="7.05298">
        <ele>535</ele>
        <time>2022-07-16T07:26:02.603Z</time>
      </trkpt>
      <trkpt lat="46.08153" lon="7.05347">
        <ele>535</ele>
        <time>2022-07-16T07:26:15.025Z</time>
      </trkpt>
      <trkpt lat="46.08126" lon="7.05358">
        <ele>534</ele>
        <time>2022-07-16T07:26:17.561Z</time>
      </trkpt>
      <trkpt lat="46.07976" lon="7.05366">
        <ele>539</ele>
        <time>2022-07-16T07:26:46.288Z</time>
      </trkpt>
      <trkpt lat="46.07931" lon="7.05362">
        <ele>540</ele>
        <time>2022-07-16T07:26:53.812Z</time>
      </trkpt>
      <trkpt lat="46.0792" lon="7.05359">
        <ele>540</ele>
        <time>2022-07-16T07:26:55.301Z</time>
      </trkpt>
      <trkpt lat="46.07893" lon="7.05341">
        <ele>541</ele>
        <time>2022-07-16T07:27:01.017Z</time>
      </trkpt>
      <trkpt lat="46.07775" lon="7.05248">
        <ele>548</ele>
        <time>2022-07-16T07:27:32.715Z</time>
      </trkpt>
      <trkpt lat="46.07712" lon="7.05203">
        <ele>550</ele>
        <time>2022-07-16T07:27:45.360Z</time>
      </trkpt>
      <trkpt lat="46.07685" lon="7.05187">
        <ele>552</ele>
        <time>2022-07-16T07:27:53.085Z</time>
      </trkpt>
      <trkpt lat="46.07661" lon="7.05176">
        <ele>555</ele>
        <time>2022-07-16T07:28:03.790Z</time>
      </trkpt>
      <trkpt lat="46.07641" lon="7.0517">
        <ele>559</ele>
        <time>2022-07-16T07:28:14.268Z</time>
      </trkpt>
      <trkpt lat="46.07614" lon="7.05166">
        <ele>564</ele>
        <time>2022-07-16T07:28:28.191Z</time>
      </trkpt>
      <trkpt lat="46.07587" lon="7.05164">
        <ele>568</ele>
        <time>2022-07-16T07:28:42.059Z</time>
      </trkpt>
      <trkpt lat="46.07552" lon="7.05169">
        <ele>575</ele>
        <time>2022-07-16T07:29:00.100Z</time>
      </trkpt>
      <trkpt lat="46.07479" lon="7.05206">
        <ele>584</ele>
        <time>2022-07-16T07:29:31.917Z</time>
      </trkpt>
      <trkpt lat="46.07448" lon="7.05231">
        <ele>589</ele>
        <time>2022-07-16T07:29:50.138Z</time>
      </trkpt>
      <trkpt lat="46.07423" lon="7.05256">
        <ele>590</ele>
        <time>2022-07-16T07:29:55.927Z</time>
      </trkpt>
      <trkpt lat="46.07407" lon="7.05278">
        <ele>590</ele>
        <time>2022-07-16T07:29:58.867Z</time>
      </trkpt>
      <trkpt lat="46.07384" lon="7.05319">
        <ele>592</ele>
        <time>2022-07-16T07:30:07.642Z</time>
      </trkpt>
      <trkpt lat="46.07357" lon="7.05398">
        <ele>591</ele>
        <time>2022-07-16T07:30:14.469Z</time>
      </trkpt>
      <trkpt lat="46.07346" lon="7.0545">
        <ele>587</ele>
        <time>2022-07-16T07:30:17.316Z</time>
      </trkpt>
      <trkpt lat="46.07324" lon="7.05669">
        <ele>590</ele>
        <time>2022-07-16T07:30:42.182Z</time>
      </trkpt>
      <trkpt lat="46.07276" lon="7.05816">
        <ele>604</ele>
        <time>2022-07-16T07:31:33.197Z</time>
      </trkpt>
      <trkpt lat="46.07266" lon="7.05857">
        <ele>608</ele>
        <time>2022-07-16T07:31:48.493Z</time>
      </trkpt>
      <trkpt lat="46.07262" lon="7.05889">
        <ele>610</ele>
        <time>2022-07-16T07:31:55.518Z</time>
      </trkpt>
      <trkpt lat="46.07261" lon="7.05948">
        <ele>610</ele>
        <time>2022-07-16T07:32:00.963Z</time>
      </trkpt>
      <trkpt lat="46.07268" lon="7.06012">
        <ele>606</ele>
        <time>2022-07-16T07:32:04.355Z</time>
      </trkpt>
      <trkpt lat="46.07298" lon="7.06221">
        <ele>596</ele>
        <time>2022-07-16T07:32:15.531Z</time>
      </trkpt>
      <trkpt lat="46.0731" lon="7.06439">
        <ele>606</ele>
        <time>2022-07-16T07:32:54.916Z</time>
      </trkpt>
      <trkpt lat="46.07322" lon="7.06492">
        <ele>604</ele>
        <time>2022-07-16T07:32:57.932Z</time>
      </trkpt>
      <trkpt lat="46.07339" lon="7.06535">
        <ele>604</ele>
        <time>2022-07-16T07:33:02.498Z</time>
      </trkpt>
      <trkpt lat="46.07358" lon="7.06571">
        <ele>605</ele>
        <time>2022-07-16T07:33:08.391Z</time>
      </trkpt>
      <trkpt lat="46.07436" lon="7.06688">
        <ele>608</ele>
        <time>2022-07-16T07:33:28.196Z</time>
      </trkpt>
      <trkpt lat="46.07466" lon="7.06745">
        <ele>608</ele>
        <time>2022-07-16T07:33:34.797Z</time>
      </trkpt>
      <trkpt lat="46.07484" lon="7.06795">
        <ele>610</ele>
        <time>2022-07-16T07:33:43.955Z</time>
      </trkpt>
      <trkpt lat="46.07497" lon="7.06854">
        <ele>613</ele>
        <time>2022-07-16T07:33:55.434Z</time>
      </trkpt>
      <trkpt lat="46.07506" lon="7.06928">
        <ele>615</ele>
        <time>2022-07-16T07:34:06.122Z</time>
      </trkpt>
      <trkpt lat="46.07518" lon="7.07077">
        <ele>616</ele>
        <time>2022-07-16T07:34:21.296Z</time>
      </trkpt>
      <trkpt lat="46.07513" lon="7.07088">
        <ele>617</ele>
        <time>2022-07-16T07:34:24.777Z</time>
      </trkpt>
      <trkpt lat="46.07511" lon="7.07103">
        <ele>619</ele>
        <time>2022-07-16T07:34:30.213Z</time>
      </trkpt>
      <trkpt lat="46.07512" lon="7.07122">
        <ele>621</ele>
        <time>2022-07-16T07:34:36.993Z</time>
      </trkpt>
      <trkpt lat="46.07525" lon="7.07167">
        <ele>621</ele>
        <time>2022-07-16T07:34:41.490Z</time>
      </trkpt>
      <trkpt lat="46.07552" lon="7.07234">
        <ele>617</ele>
        <time>2022-07-16T07:34:45.547Z</time>
      </trkpt>
      <trkpt lat="46.07573" lon="7.07275">
        <ele>616</ele>
        <time>2022-07-16T07:34:48.994Z</time>
      </trkpt>
      <trkpt lat="46.07636" lon="7.07363">
        <ele>617</ele>
        <time>2022-07-16T07:35:02.021Z</time>
      </trkpt>
      <trkpt lat="46.07655" lon="7.07397">
        <ele>618</ele>
        <time>2022-07-16T07:35:07.795Z</time>
      </trkpt>
      <trkpt lat="46.07665" lon="7.07418">
        <ele>620</ele>
        <time>2022-07-16T07:35:14.807Z</time>
      </trkpt>
      <trkpt lat="46.07689" lon="7.07484">
        <ele>625</ele>
        <time>2022-07-16T07:35:32.131Z</time>
      </trkpt>
      <trkpt lat="46.0773" lon="7.07576">
        <ele>625</ele>
        <time>2022-07-16T07:35:42.218Z</time>
      </trkpt>
      <trkpt lat="46.07724" lon="7.07582">
        <ele>627</ele>
        <time>2022-07-16T07:35:45.964Z</time>
      </trkpt>
      <trkpt lat="46.07718" lon="7.07581">
        <ele>628</ele>
        <time>2022-07-16T07:35:49.062Z</time>
      </trkpt>
      <trkpt lat="46.07698" lon="7.07564">
        <ele>631</ele>
        <time>2022-07-16T07:36:00.287Z</time>
      </trkpt>
      <trkpt lat="46.07681" lon="7.07553">
        <ele>633</ele>
        <time>2022-07-16T07:36:07.227Z</time>
      </trkpt>
      <trkpt lat="46.07669" lon="7.07549">
        <ele>635</ele>
        <time>2022-07-16T07:36:13.545Z</time>
      </trkpt>
      <trkpt lat="46.0751" lon="7.07528">
        <ele>650</ele>
        <time>2022-07-16T07:37:05.686Z</time>
      </trkpt>
      <trkpt lat="46.07497" lon="7.07524">
        <ele>652</ele>
        <time>2022-07-16T07:37:12.505Z</time>
      </trkpt>
      <trkpt lat="46.07481" lon="7.07506">
        <ele>658</ele>
        <time>2022-07-16T07:37:22.916Z</time>
      </trkpt>
      <trkpt lat="46.07469" lon="7.07456">
        <ele>659</ele>
        <time>2022-07-16T07:37:29.420Z</time>
      </trkpt>
      <trkpt lat="46.07458" lon="7.07437">
        <ele>662</ele>
        <time>2022-07-16T07:37:38.226Z</time>
      </trkpt>
      <trkpt lat="46.07405" lon="7.07381">
        <ele>672</ele>
        <time>2022-07-16T07:38:11.933Z</time>
      </trkpt>
      <trkpt lat="46.07384" lon="7.07356">
        <ele>675</ele>
        <time>2022-07-16T07:38:22.386Z</time>
      </trkpt>
      <trkpt lat="46.07351" lon="7.07308">
        <ele>675</ele>
        <time>2022-07-16T07:38:28.621Z</time>
      </trkpt>
      <trkpt lat="46.07342" lon="7.07299">
        <ele>676</ele>
        <time>2022-07-16T07:38:32.113Z</time>
      </trkpt>
      <trkpt lat="46.07332" lon="7.07295">
        <ele>678</ele>
        <time>2022-07-16T07:38:37.436Z</time>
      </trkpt>
      <trkpt lat="46.07327" lon="7.07296">
        <ele>679</ele>
        <time>2022-07-16T07:38:40.025Z</time>
      </trkpt>
      <trkpt lat="46.07287" lon="7.07312">
        <ele>689</ele>
        <time>2022-07-16T07:39:01.319Z</time>
      </trkpt>
      <trkpt lat="46.07224" lon="7.07331">
        <ele>702</ele>
        <time>2022-07-16T07:39:34.334Z</time>
      </trkpt>
      <trkpt lat="46.07201" lon="7.0733">
        <ele>705</ele>
        <time>2022-07-16T07:39:45.638Z</time>
      </trkpt>
      <trkpt lat="46.07183" lon="7.07326">
        <ele>706</ele>
        <time>2022-07-16T07:39:50.013Z</time>
      </trkpt>
      <trkpt lat="46.07154" lon="7.07313">
        <ele>705</ele>
        <time>2022-07-16T07:39:52.835Z</time>
      </trkpt>
      <trkpt lat="46.07125" lon="7.07307">
        <ele>709</ele>
        <time>2022-07-16T07:40:07.863Z</time>
      </trkpt>
      <trkpt lat="46.071" lon="7.07294">
        <ele>710</ele>
        <time>2022-07-16T07:40:13.256Z</time>
      </trkpt>
      <trkpt lat="46.07077" lon="7.07273">
        <ele>710</ele>
        <time>2022-07-16T07:40:16.877Z</time>
      </trkpt>
      <trkpt lat="46.0707" lon="7.07264">
        <ele>711</ele>
        <time>2022-07-16T07:40:20.344Z</time>
      </trkpt>
      <trkpt lat="46.07057" lon="7.07234">
        <ele>710</ele>
        <time>2022-07-16T07:40:22.455Z</time>
      </trkpt>
      <trkpt lat="46.07047" lon="7.07222">
        <ele>712</ele>
        <time>2022-07-16T07:40:29.130Z</time>
      </trkpt>
      <trkpt lat="46.07026" lon="7.0721">
        <ele>718</ele>
        <time>2022-07-16T07:40:40.717Z</time>
      </trkpt>
      <trkpt lat="46.07006" lon="7.07205">
        <ele>725</ele>
        <time>2022-07-16T07:40:51.130Z</time>
      </trkpt>
      <trkpt lat="46.06996" lon="7.07199">
        <ele>728</ele>
        <time>2022-07-16T07:40:56.686Z</time>
      </trkpt>
      <trkpt lat="46.06988" lon="7.07189">
        <ele>730</ele>
        <time>2022-07-16T07:41:02.118Z</time>
      </trkpt>
      <trkpt lat="46.06978" lon="7.07163">
        <ele>729</ele>
        <time>2022-07-16T07:41:03.772Z</time>
      </trkpt>
      <trkpt lat="46.06973" lon="7.07161">
        <ele>732</ele>
        <time>2022-07-16T07:41:06.433Z</time>
      </trkpt>
      <trkpt lat="46.06971" lon="7.07166">
        <ele>733</ele>
        <time>2022-07-16T07:41:08.487Z</time>
      </trkpt>
      <trkpt lat="46.06976" lon="7.07178">
        <ele>734</ele>
        <time>2022-07-16T07:41:11.946Z</time>
      </trkpt>
      <trkpt lat="46.06991" lon="7.07207">
        <ele>734</ele>
        <time>2022-07-16T07:41:15.283Z</time>
      </trkpt>
      <trkpt lat="46.07018" lon="7.07248">
        <ele>731</ele>
        <time>2022-07-16T07:41:18.243Z</time>
      </trkpt>
      <trkpt lat="46.07042" lon="7.07296">
        <ele>735</ele>
        <time>2022-07-16T07:41:32.094Z</time>
      </trkpt>
      <trkpt lat="46.07051" lon="7.07309">
        <ele>734</ele>
        <time>2022-07-16T07:41:33.056Z</time>
      </trkpt>
      <trkpt lat="46.07123" lon="7.07383">
        <ele>743</ele>
        <time>2022-07-16T07:42:04.176Z</time>
      </trkpt>
      <trkpt lat="46.07135" lon="7.07392">
        <ele>745</ele>
        <time>2022-07-16T07:42:11.115Z</time>
      </trkpt>
      <trkpt lat="46.07195" lon="7.07423">
        <ele>745</ele>
        <time>2022-07-16T07:42:19.591Z</time>
      </trkpt>
      <trkpt lat="46.07254" lon="7.07432">
        <ele>735</ele>
        <time>2022-07-16T07:42:24.069Z</time>
      </trkpt>
      <trkpt lat="46.07261" lon="7.07436">
        <ele>734</ele>
        <time>2022-07-16T07:42:24.638Z</time>
      </trkpt>
      <trkpt lat="46.07264" lon="7.07442">
        <ele>734</ele>
        <time>2022-07-16T07:42:25.320Z</time>
      </trkpt>
      <trkpt lat="46.0726" lon="7.07497">
        <ele>743</ele>
        <time>2022-07-16T07:42:44.999Z</time>
      </trkpt>
      <trkpt lat="46.07233" lon="7.07635">
        <ele>755</ele>
        <time>2022-07-16T07:43:28.059Z</time>
      </trkpt>
      <trkpt lat="46.07228" lon="7.0772">
        <ele>759</ele>
        <time>2022-07-16T07:43:43.613Z</time>
      </trkpt>
      <trkpt lat="46.07217" lon="7.07762">
        <ele>767</ele>
        <time>2022-07-16T07:43:59.589Z</time>
      </trkpt>
      <trkpt lat="46.07211" lon="7.07804">
        <ele>779</ele>
        <time>2022-07-16T07:44:14.849Z</time>
      </trkpt>
      <trkpt lat="46.07207" lon="7.07815">
        <ele>782</ele>
        <time>2022-07-16T07:44:19.268Z</time>
      </trkpt>
      <trkpt lat="46.07202" lon="7.07817">
        <ele>784</ele>
        <time>2022-07-16T07:44:21.930Z</time>
      </trkpt>
      <trkpt lat="46.07196" lon="7.07813">
        <ele>786</ele>
        <time>2022-07-16T07:44:25.321Z</time>
      </trkpt>
      <trkpt lat="46.07192" lon="7.07799">
        <ele>784</ele>
        <time>2022-07-16T07:44:26.114Z</time>
      </trkpt>
      <trkpt lat="46.0719" lon="7.07773">
        <ele>779</ele>
        <time>2022-07-16T07:44:27.484Z</time>
      </trkpt>
      <trkpt lat="46.07192" lon="7.07709">
        <ele>775</ele>
        <time>2022-07-16T07:44:30.838Z</time>
      </trkpt>
      <trkpt lat="46.0719" lon="7.07671">
        <ele>777</ele>
        <time>2022-07-16T07:44:38.228Z</time>
      </trkpt>
      <trkpt lat="46.07179" lon="7.0758">
        <ele>778</ele>
        <time>2022-07-16T07:44:48.171Z</time>
      </trkpt>
      <trkpt lat="46.0717" lon="7.07553">
        <ele>780</ele>
        <time>2022-07-16T07:44:55.104Z</time>
      </trkpt>
      <trkpt lat="46.07155" lon="7.07523">
        <ele>782</ele>
        <time>2022-07-16T07:45:02.408Z</time>
      </trkpt>
      <trkpt lat="46.07151" lon="7.07521">
        <ele>784</ele>
        <time>2022-07-16T07:45:04.579Z</time>
      </trkpt>
      <trkpt lat="46.07145" lon="7.07522">
        <ele>786</ele>
        <time>2022-07-16T07:45:07.677Z</time>
      </trkpt>
      <trkpt lat="46.07143" lon="7.07527">
        <ele>787</ele>
        <time>2022-07-16T07:45:09.731Z</time>
      </trkpt>
      <trkpt lat="46.07153" lon="7.07579">
        <ele>788</ele>
        <time>2022-07-16T07:45:16.323Z</time>
      </trkpt>
      <trkpt lat="46.07153" lon="7.07592">
        <ele>789</ele>
        <time>2022-07-16T07:45:19.811Z</time>
      </trkpt>
      <trkpt lat="46.07151" lon="7.07606">
        <ele>791</ele>
        <time>2022-07-16T07:45:24.898Z</time>
      </trkpt>
      <trkpt lat="46.0714" lon="7.07637">
        <ele>796</ele>
        <time>2022-07-16T07:45:37.289Z</time>
      </trkpt>
      <trkpt lat="46.07138" lon="7.07675">
        <ele>798</ele>
        <time>2022-07-16T07:45:44.679Z</time>
      </trkpt>
      <trkpt lat="46.07114" lon="7.07753">
        <ele>806</ele>
        <time>2022-07-16T07:46:15.044Z</time>
      </trkpt>
      <trkpt lat="46.07122" lon="7.07829">
        <ele>817</ele>
        <time>2022-07-16T07:46:42.399Z</time>
      </trkpt>
      <trkpt lat="46.07121" lon="7.07834">
        <ele>818</ele>
        <time>2022-07-16T07:46:44.251Z</time>
      </trkpt>
      <trkpt lat="46.07115" lon="7.07839">
        <ele>822</ele>
        <time>2022-07-16T07:46:47.806Z</time>
      </trkpt>
      <trkpt lat="46.07109" lon="7.07834">
        <ele>823</ele>
        <time>2022-07-16T07:46:51.361Z</time>
      </trkpt>
      <trkpt lat="46.07097" lon="7.07791">
        <ele>820</ele>
        <time>2022-07-16T07:46:53.788Z</time>
      </trkpt>
      <trkpt lat="46.07067" lon="7.07739">
        <ele>823</ele>
        <time>2022-07-16T07:47:05.795Z</time>
      </trkpt>
      <trkpt lat="46.07039" lon="7.07678">
        <ele>824</ele>
        <time>2022-07-16T07:47:14.030Z</time>
      </trkpt>
      <trkpt lat="46.07018" lon="7.07619">
        <ele>826</ele>
        <time>2022-07-16T07:47:24.196Z</time>
      </trkpt>
      <trkpt lat="46.0701" lon="7.07587">
        <ele>826</ele>
        <time>2022-07-16T07:47:27.334Z</time>
      </trkpt>
      <trkpt lat="46.07015" lon="7.07529">
        <ele>825</ele>
        <time>2022-07-16T07:47:31.448Z</time>
      </trkpt>
      <trkpt lat="46.07008" lon="7.07509">
        <ele>827</ele>
        <time>2022-07-16T07:47:38.908Z</time>
      </trkpt>
      <trkpt lat="46.07003" lon="7.07504">
        <ele>829</ele>
        <time>2022-07-16T07:47:42.030Z</time>
      </trkpt>
      <trkpt lat="46.06986" lon="7.07496">
        <ele>833</ele>
        <time>2022-07-16T07:47:51.203Z</time>
      </trkpt>
      <trkpt lat="46.06959" lon="7.07476">
        <ele>837</ele>
        <time>2022-07-16T07:48:06.408Z</time>
      </trkpt>
      <trkpt lat="46.06945" lon="7.07478">
        <ele>843</ele>
        <time>2022-07-16T07:48:13.624Z</time>
      </trkpt>
      <trkpt lat="46.06917" lon="7.07493">
        <ele>855</ele>
        <time>2022-07-16T07:48:28.947Z</time>
      </trkpt>
      <trkpt lat="46.06904" lon="7.07489">
        <ele>859</ele>
        <time>2022-07-16T07:48:35.765Z</time>
      </trkpt>
      <trkpt lat="46.06895" lon="7.07476">
        <ele>860</ele>
        <time>2022-07-16T07:48:39.408Z</time>
      </trkpt>
      <trkpt lat="46.06878" lon="7.07434">
        <ele>862</ele>
        <time>2022-07-16T07:48:47.761Z</time>
      </trkpt>
      <trkpt lat="46.06854" lon="7.0741">
        <ele>870</ele>
        <time>2022-07-16T07:49:02.744Z</time>
      </trkpt>
      <trkpt lat="46.06843" lon="7.07392">
        <ele>872</ele>
        <time>2022-07-16T07:49:09.908Z</time>
      </trkpt>
      <trkpt lat="46.0683" lon="7.07358">
        <ele>871</ele>
        <time>2022-07-16T07:49:12.308Z</time>
      </trkpt>
      <trkpt lat="46.06821" lon="7.07341">
        <ele>871</ele>
        <time>2022-07-16T07:49:14.281Z</time>
      </trkpt>
      <trkpt lat="46.06807" lon="7.07333">
        <ele>874</ele>
        <time>2022-07-16T07:49:22.006Z</time>
      </trkpt>
      <trkpt lat="46.06758" lon="7.07324">
        <ele>886</ele>
        <time>2022-07-16T07:49:47.344Z</time>
      </trkpt>
      <trkpt lat="46.06733" lon="7.07308">
        <ele>880</ele>
        <time>2022-07-16T07:49:49.408Z</time>
      </trkpt>
      <trkpt lat="46.06729" lon="7.07312">
        <ele>882</ele>
        <time>2022-07-16T07:49:51.905Z</time>
      </trkpt>
      <trkpt lat="46.06729" lon="7.07318">
        <ele>886</ele>
        <time>2022-07-16T07:49:54.041Z</time>
      </trkpt>
      <trkpt lat="46.06733" lon="7.07325">
        <ele>890</ele>
        <time>2022-07-16T07:49:57.268Z</time>
      </trkpt>
      <trkpt lat="46.06793" lon="7.07357">
        <ele>884</ele>
        <time>2022-07-16T07:50:02.097Z</time>
      </trkpt>
      <trkpt lat="46.06804" lon="7.07369">
        <ele>883</ele>
        <time>2022-07-16T07:50:03.138Z</time>
      </trkpt>
      <trkpt lat="46.06807" lon="7.07376">
        <ele>883</ele>
        <time>2022-07-16T07:50:03.897Z</time>
      </trkpt>
      <trkpt lat="46.06819" lon="7.07441">
        <ele>887</ele>
        <time>2022-07-16T07:50:18.064Z</time>
      </trkpt>
      <trkpt lat="46.0683" lon="7.07464">
        <ele>884</ele>
        <time>2022-07-16T07:50:19.527Z</time>
      </trkpt>
      <trkpt lat="46.0683" lon="7.07482">
        <ele>885</ele>
        <time>2022-07-16T07:50:23.143Z</time>
      </trkpt>
      <trkpt lat="46.0681" lon="7.0751">
        <ele>893</ele>
        <time>2022-07-16T07:50:37.445Z</time>
      </trkpt>
      <trkpt lat="46.06804" lon="7.07522">
        <ele>896</ele>
        <time>2022-07-16T07:50:42.709Z</time>
      </trkpt>
      <trkpt lat="46.068" lon="7.07534">
        <ele>899</ele>
        <time>2022-07-16T07:50:47.447Z</time>
      </trkpt>
      <trkpt lat="46.06796" lon="7.0757">
        <ele>904</ele>
        <time>2022-07-16T07:51:00.422Z</time>
      </trkpt>
      <trkpt lat="46.06791" lon="7.0758">
        <ele>907</ele>
        <time>2022-07-16T07:51:04.809Z</time>
      </trkpt>
      <trkpt lat="46.06786" lon="7.07581">
        <ele>909</ele>
        <time>2022-07-16T07:51:07.399Z</time>
      </trkpt>
      <trkpt lat="46.06778" lon="7.0757">
        <ele>911</ele>
        <time>2022-07-16T07:51:13.070Z</time>
      </trkpt>
      <trkpt lat="46.0675" lon="7.07506">
        <ele>911</ele>
        <time>2022-07-16T07:51:20.051Z</time>
      </trkpt>
      <trkpt lat="46.06749" lon="7.07495">
        <ele>911</ele>
        <time>2022-07-16T07:51:21.075Z</time>
      </trkpt>
      <trkpt lat="46.06755" lon="7.07478">
        <ele>909</ele>
        <time>2022-07-16T07:51:22.073Z</time>
      </trkpt>
      <trkpt lat="46.06769" lon="7.07459">
        <ele>905</ele>
        <time>2022-07-16T07:51:23.525Z</time>
      </trkpt>
      <trkpt lat="46.06773" lon="7.07449">
        <ele>904</ele>
        <time>2022-07-16T07:51:24.129Z</time>
      </trkpt>
      <trkpt lat="46.06771" lon="7.07438">
        <ele>905</ele>
        <time>2022-07-16T07:51:27.820Z</time>
      </trkpt>
      <trkpt lat="46.06766" lon="7.07436">
        <ele>906</ele>
        <time>2022-07-16T07:51:30.481Z</time>
      </trkpt>
      <trkpt lat="46.06746" lon="7.07448">
        <ele>913</ele>
        <time>2022-07-16T07:51:41.594Z</time>
      </trkpt>
      <trkpt lat="46.06721" lon="7.07466">
        <ele>922</ele>
        <time>2022-07-16T07:51:55.928Z</time>
      </trkpt>
      <trkpt lat="46.06716" lon="7.07476">
        <ele>925</ele>
        <time>2022-07-16T07:52:00.315Z</time>
      </trkpt>
      <trkpt lat="46.06713" lon="7.07504">
        <ele>928</ele>
        <time>2022-07-16T07:52:10.398Z</time>
      </trkpt>
      <trkpt lat="46.06721" lon="7.0754">
        <ele>931</ele>
        <time>2022-07-16T07:52:20.947Z</time>
      </trkpt>
      <trkpt lat="46.0672" lon="7.07551">
        <ele>934</ele>
        <time>2022-07-16T07:52:24.896Z</time>
      </trkpt>
      <trkpt lat="46.06716" lon="7.07554">
        <ele>937</ele>
        <time>2022-07-16T07:52:27.208Z</time>
      </trkpt>
      <trkpt lat="46.06713" lon="7.07553">
        <ele>938</ele>
        <time>2022-07-16T07:52:28.788Z</time>
      </trkpt>
      <trkpt lat="46.06708" lon="7.07545">
        <ele>939</ele>
        <time>2022-07-16T07:52:32.620Z</time>
      </trkpt>
      <trkpt lat="46.06689" lon="7.07498">
        <ele>938</ele>
        <time>2022-07-16T07:52:36.372Z</time>
      </trkpt>
      <trkpt lat="46.06685" lon="7.07485">
        <ele>938</ele>
        <time>2022-07-16T07:52:37.684Z</time>
      </trkpt>
      <trkpt lat="46.06684" lon="7.07471">
        <ele>937</ele>
        <time>2022-07-16T07:52:38.421Z</time>
      </trkpt>
      <trkpt lat="46.06686" lon="7.07446">
        <ele>933</ele>
        <time>2022-07-16T07:52:39.739Z</time>
      </trkpt>
      <trkpt lat="46.06682" lon="7.07441">
        <ele>934</ele>
        <time>2022-07-16T07:52:42.455Z</time>
      </trkpt>
      <trkpt lat="46.06678" lon="7.07441">
        <ele>935</ele>
        <time>2022-07-16T07:52:44.507Z</time>
      </trkpt>
      <trkpt lat="46.06669" lon="7.07468">
        <ele>942</ele>
        <time>2022-07-16T07:52:55.167Z</time>
      </trkpt>
      <trkpt lat="46.06668" lon="7.07486">
        <ele>946</ele>
        <time>2022-07-16T07:53:01.594Z</time>
      </trkpt>
      <trkpt lat="46.06679" lon="7.07542">
        <ele>953</ele>
        <time>2022-07-16T07:53:22.307Z</time>
      </trkpt>
      <trkpt lat="46.06697" lon="7.07598">
        <ele>956</ele>
        <time>2022-07-16T07:53:33.771Z</time>
      </trkpt>
      <trkpt lat="46.06699" lon="7.07611">
        <ele>959</ele>
        <time>2022-07-16T07:53:38.510Z</time>
      </trkpt>
      <trkpt lat="46.06697" lon="7.07613">
        <ele>960</ele>
        <time>2022-07-16T07:53:39.759Z</time>
      </trkpt>
      <trkpt lat="46.06692" lon="7.07614">
        <ele>963</ele>
        <time>2022-07-16T07:53:42.348Z</time>
      </trkpt>
      <trkpt lat="46.06688" lon="7.0761">
        <ele>964</ele>
        <time>2022-07-16T07:53:44.845Z</time>
      </trkpt>
      <trkpt lat="46.06643" lon="7.07514">
        <ele>962</ele>
        <time>2022-07-16T07:53:52.980Z</time>
      </trkpt>
      <trkpt lat="46.06637" lon="7.07515">
        <ele>964</ele>
        <time>2022-07-16T07:53:56.078Z</time>
      </trkpt>
      <trkpt lat="46.06636" lon="7.07518">
        <ele>965</ele>
        <time>2022-07-16T07:53:57.262Z</time>
      </trkpt>
      <trkpt lat="46.06654" lon="7.0757">
        <ele>971</ele>
        <time>2022-07-16T07:54:17.944Z</time>
      </trkpt>
      <trkpt lat="46.06655" lon="7.07575">
        <ele>972</ele>
        <time>2022-07-16T07:54:19.796Z</time>
      </trkpt>
      <trkpt lat="46.06651" lon="7.07582">
        <ele>975</ele>
        <time>2022-07-16T07:54:23.024Z</time>
      </trkpt>
      <trkpt lat="46.06644" lon="7.07578">
        <ele>977</ele>
        <time>2022-07-16T07:54:26.886Z</time>
      </trkpt>
      <trkpt lat="46.06635" lon="7.07551">
        <ele>974</ele>
        <time>2022-07-16T07:54:28.455Z</time>
      </trkpt>
      <trkpt lat="46.06616" lon="7.07509">
        <ele>971</ele>
        <time>2022-07-16T07:54:31.081Z</time>
      </trkpt>
      <trkpt lat="46.06609" lon="7.07505">
        <ele>973</ele>
        <time>2022-07-16T07:54:34.943Z</time>
      </trkpt>
      <trkpt lat="46.06604" lon="7.07505">
        <ele>975</ele>
        <time>2022-07-16T07:54:37.508Z</time>
      </trkpt>
      <trkpt lat="46.06517" lon="7.07514">
        <ele>985</ele>
        <time>2022-07-16T07:55:12.695Z</time>
      </trkpt>
      <trkpt lat="46.06507" lon="7.07518">
        <ele>987</ele>
        <time>2022-07-16T07:55:18.018Z</time>
      </trkpt>
      <trkpt lat="46.06503" lon="7.07522">
        <ele>988</ele>
        <time>2022-07-16T07:55:20.516Z</time>
      </trkpt>
      <trkpt lat="46.0649" lon="7.07553">
        <ele>999</ele>
        <time>2022-07-16T07:55:33.407Z</time>
      </trkpt>
      <trkpt lat="46.06482" lon="7.07564">
        <ele>1002</ele>
        <time>2022-07-16T07:55:39.079Z</time>
      </trkpt>
      <trkpt lat="46.06466" lon="7.07575">
        <ele>1004</ele>
        <time>2022-07-16T07:55:46.085Z</time>
      </trkpt>
      <trkpt lat="46.06459" lon="7.07576">
        <ele>1003</ele>
        <time>2022-07-16T07:55:46.616Z</time>
      </trkpt>
      <trkpt lat="46.06444" lon="7.07572">
        <ele>997</ele>
        <time>2022-07-16T07:55:47.767Z</time>
      </trkpt>
      <trkpt lat="46.06435" lon="7.07573">
        <ele>995</ele>
        <time>2022-07-16T07:55:48.448Z</time>
      </trkpt>
      <trkpt lat="46.06432" lon="7.07575">
        <ele>996</ele>
        <time>2022-07-16T07:55:50.144Z</time>
      </trkpt>
      <trkpt lat="46.06414" lon="7.07609">
        <ele>1007</ele>
        <time>2022-07-16T07:56:05.365Z</time>
      </trkpt>
      <trkpt lat="46.06376" lon="7.07628">
        <ele>1008</ele>
        <time>2022-07-16T07:56:12.291Z</time>
      </trkpt>
      <trkpt lat="46.06377" lon="7.07637">
        <ele>1013</ele>
        <time>2022-07-16T07:56:15.535Z</time>
      </trkpt>
      <trkpt lat="46.06384" lon="7.0764">
        <ele>1015</ele>
        <time>2022-07-16T07:56:19.281Z</time>
      </trkpt>
      <trkpt lat="46.06416" lon="7.07634">
        <ele>1016</ele>
        <time>2022-07-16T07:56:25.274Z</time>
      </trkpt>
      <trkpt lat="46.06422" lon="7.0763">
        <ele>1015</ele>
        <time>2022-07-16T07:56:25.773Z</time>
      </trkpt>
      <trkpt lat="46.06438" lon="7.0761">
        <ele>1010</ele>
        <time>2022-07-16T07:56:27.371Z</time>
      </trkpt>
      <trkpt lat="46.06445" lon="7.07607">
        <ele>1010</ele>
        <time>2022-07-16T07:56:28.342Z</time>
      </trkpt>
      <trkpt lat="46.0645" lon="7.07607">
        <ele>1011</ele>
        <time>2022-07-16T07:56:30.907Z</time>
      </trkpt>
      <trkpt lat="46.06469" lon="7.07616">
        <ele>1016</ele>
        <time>2022-07-16T07:56:41.166Z</time>
      </trkpt>
      <trkpt lat="46.06476" lon="7.07617">
        <ele>1017</ele>
        <time>2022-07-16T07:56:44.774Z</time>
      </trkpt>
      <trkpt lat="46.06485" lon="7.07617">
        <ele>1018</ele>
        <time>2022-07-16T07:56:48.265Z</time>
      </trkpt>
      <trkpt lat="46.06503" lon="7.07612">
        <ele>1018</ele>
        <time>2022-07-16T07:56:50.703Z</time>
      </trkpt>
      <trkpt lat="46.06507" lon="7.07614">
        <ele>1018</ele>
        <time>2022-07-16T07:56:51.266Z</time>
      </trkpt>
      <trkpt lat="46.06512" lon="7.07622">
        <ele>1018</ele>
        <time>2022-07-16T07:56:52.259Z</time>
      </trkpt>
      <trkpt lat="46.06516" lon="7.07643">
        <ele>1020</ele>
        <time>2022-07-16T07:56:59.892Z</time>
      </trkpt>
      <trkpt lat="46.06518" lon="7.07697">
        <ele>1030</ele>
        <time>2022-07-16T07:57:19.138Z</time>
      </trkpt>
      <trkpt lat="46.0652" lon="7.07704">
        <ele>1031</ele>
        <time>2022-07-16T07:57:21.832Z</time>
      </trkpt>
      <trkpt lat="46.06527" lon="7.07713">
        <ele>1032</ele>
        <time>2022-07-16T07:57:25.299Z</time>
      </trkpt>
      <trkpt lat="46.06556" lon="7.07733">
        <ele>1031</ele>
        <time>2022-07-16T07:57:28.343Z</time>
      </trkpt>
      <trkpt lat="46.06567" lon="7.07745">
        <ele>1032</ele>
        <time>2022-07-16T07:57:32.105Z</time>
      </trkpt>
      <trkpt lat="46.06592" lon="7.0778">
        <ele>1042</ele>
        <time>2022-07-16T07:57:49.983Z</time>
      </trkpt>
      <trkpt lat="46.06593" lon="7.07788">
        <ele>1045</ele>
        <time>2022-07-16T07:57:52.876Z</time>
      </trkpt>
      <trkpt lat="46.06591" lon="7.07791">
        <ele>1047</ele>
        <time>2022-07-16T07:57:54.356Z</time>
      </trkpt>
      <trkpt lat="46.06585" lon="7.07793">
        <ele>1049</ele>
        <time>2022-07-16T07:57:57.515Z</time>
      </trkpt>
      <trkpt lat="46.06559" lon="7.07782">
        <ele>1049</ele>
        <time>2022-07-16T07:58:01.119Z</time>
      </trkpt>
      <trkpt lat="46.06532" lon="7.07777">
        <ele>1050</ele>
        <time>2022-07-16T07:58:06.575Z</time>
      </trkpt>
      <trkpt lat="46.0649" lon="7.07774">
        <ele>1054</ele>
        <time>2022-07-16T07:58:20.458Z</time>
      </trkpt>
      <trkpt lat="46.06465" lon="7.07775">
        <ele>1054</ele>
        <time>2022-07-16T07:58:23.784Z</time>
      </trkpt>
      <trkpt lat="46.06233" lon="7.07834">
        <ele>1078</ele>
        <time>2022-07-16T07:59:46.772Z</time>
      </trkpt>
      <trkpt lat="46.06203" lon="7.07844">
        <ele>1085</ele>
        <time>2022-07-16T08:00:02.567Z</time>
      </trkpt>
      <trkpt lat="46.06178" lon="7.07846">
        <ele>1088</ele>
        <time>2022-07-16T08:00:13.298Z</time>
      </trkpt>
      <trkpt lat="46.06119" lon="7.07857">
        <ele>1093</ele>
        <time>2022-07-16T08:00:31.104Z</time>
      </trkpt>
      <trkpt lat="46.0608" lon="7.07872">
        <ele>1098</ele>
        <time>2022-07-16T08:00:49.294Z</time>
      </trkpt>
      <trkpt lat="46.06035" lon="7.07885">
        <ele>1102</ele>
        <time>2022-07-16T08:01:03.401Z</time>
      </trkpt>
      <trkpt lat="46.06023" lon="7.07885">
        <ele>1102</ele>
        <time>2022-07-16T08:01:04.997Z</time>
      </trkpt>
      <trkpt lat="46.06012" lon="7.07882">
        <ele>1102</ele>
        <time>2022-07-16T08:01:06.485Z</time>
      </trkpt>
      <trkpt lat="46.06002" lon="7.07874">
        <ele>1100</ele>
        <time>2022-07-16T08:01:07.349Z</time>
      </trkpt>
      <trkpt lat="46.05994" lon="7.07861">
        <ele>1097</ele>
        <time>2022-07-16T08:01:08.259Z</time>
      </trkpt>
      <trkpt lat="46.05982" lon="7.07848">
        <ele>1095</ele>
        <time>2022-07-16T08:01:09.392Z</time>
      </trkpt>
      <trkpt lat="46.05962" lon="7.07838">
        <ele>1094</ele>
        <time>2022-07-16T08:01:11.108Z</time>
      </trkpt>
      <trkpt lat="46.0595" lon="7.07835">
        <ele>1094</ele>
        <time>2022-07-16T08:01:12.728Z</time>
      </trkpt>
      <trkpt lat="46.05944" lon="7.07836">
        <ele>1095</ele>
        <time>2022-07-16T08:01:15.826Z</time>
      </trkpt>
      <trkpt lat="46.05935" lon="7.07839">
        <ele>1096</ele>
        <time>2022-07-16T08:01:19.300Z</time>
      </trkpt>
      <trkpt lat="46.05911" lon="7.07866">
        <ele>1101</ele>
        <time>2022-07-16T08:01:34.918Z</time>
      </trkpt>
      <trkpt lat="46.05876" lon="7.07895">
        <ele>1104</ele>
        <time>2022-07-16T08:01:46.084Z</time>
      </trkpt>
      <trkpt lat="46.05854" lon="7.0792">
        <ele>1110</ele>
        <time>2022-07-16T08:02:00.456Z</time>
      </trkpt>
      <trkpt lat="46.05829" lon="7.07956">
        <ele>1127</ele>
        <time>2022-07-16T08:02:18.585Z</time>
      </trkpt>
      <trkpt lat="46.05815" lon="7.07969">
        <ele>1133</ele>
        <time>2022-07-16T08:02:27.128Z</time>
      </trkpt>
      <trkpt lat="46.05801" lon="7.07977">
        <ele>1137</ele>
        <time>2022-07-16T08:02:34.853Z</time>
      </trkpt>
      <trkpt lat="46.05774" lon="7.07984">
        <ele>1141</ele>
        <time>2022-07-16T08:02:48.925Z</time>
      </trkpt>
      <trkpt lat="46.05713" lon="7.0801">
        <ele>1149</ele>
        <time>2022-07-16T08:03:18.298Z</time>
      </trkpt>
      <trkpt lat="46.05681" lon="7.08011">
        <ele>1145</ele>
        <time>2022-07-16T08:03:20.713Z</time>
      </trkpt>
      <trkpt lat="46.05671" lon="7.08014">
        <ele>1145</ele>
        <time>2022-07-16T08:03:22.072Z</time>
      </trkpt>
      <trkpt lat="46.0565" lon="7.08027">
        <ele>1147</ele>
        <time>2022-07-16T08:03:29.118Z</time>
      </trkpt>
      <trkpt lat="46.05609" lon="7.08058">
        <ele>1152</ele>
        <time>2022-07-16T08:03:46.482Z</time>
      </trkpt>
      <trkpt lat="46.05581" lon="7.08065">
        <ele>1149</ele>
        <time>2022-07-16T08:03:48.627Z</time>
      </trkpt>
      <trkpt lat="46.05513" lon="7.08114">
        <ele>1158</ele>
        <time>2022-07-16T08:04:20.656Z</time>
      </trkpt>
      <trkpt lat="46.05424" lon="7.08156">
        <ele>1161</ele>
        <time>2022-07-16T08:04:38.282Z</time>
      </trkpt>
      <trkpt lat="46.05387" lon="7.08163">
        <ele>1164</ele>
        <time>2022-07-16T08:04:49.117Z</time>
      </trkpt>
      <trkpt lat="46.05347" lon="7.08167">
        <ele>1168</ele>
        <time>2022-07-16T08:05:02.951Z</time>
      </trkpt>
      <trkpt lat="46.05341" lon="7.08175">
        <ele>1170</ele>
        <time>2022-07-16T08:05:07.144Z</time>
      </trkpt>
      <trkpt lat="46.05342" lon="7.08187">
        <ele>1171</ele>
        <time>2022-07-16T08:05:10.714Z</time>
      </trkpt>
      <trkpt lat="46.05378" lon="7.08201">
        <ele>1172</ele>
        <time>2022-07-16T08:05:17.287Z</time>
      </trkpt>
      <trkpt lat="46.05414" lon="7.08228">
        <ele>1176</ele>
        <time>2022-07-16T08:05:31.129Z</time>
      </trkpt>
      <trkpt lat="46.05429" lon="7.08231">
        <ele>1180</ele>
        <time>2022-07-16T08:05:38.897Z</time>
      </trkpt>
      <trkpt lat="46.05436" lon="7.0823">
        <ele>1181</ele>
        <time>2022-07-16T08:05:42.505Z</time>
      </trkpt>
      <trkpt lat="46.05465" lon="7.0822">
        <ele>1184</ele>
        <time>2022-07-16T08:05:52.879Z</time>
      </trkpt>
      <trkpt lat="46.05481" lon="7.08217">
        <ele>1187</ele>
        <time>2022-07-16T08:06:01.155Z</time>
      </trkpt>
      <trkpt lat="46.05488" lon="7.0822">
        <ele>1189</ele>
        <time>2022-07-16T08:06:04.901Z</time>
      </trkpt>
      <trkpt lat="46.05487" lon="7.08234">
        <ele>1194</ele>
        <time>2022-07-16T08:06:09.911Z</time>
      </trkpt>
      <trkpt lat="46.05484" lon="7.08238">
        <ele>1195</ele>
        <time>2022-07-16T08:06:12.007Z</time>
      </trkpt>
      <trkpt lat="46.05468" lon="7.08246">
        <ele>1193</ele>
        <time>2022-07-16T08:06:13.286Z</time>
      </trkpt>
      <trkpt lat="46.05433" lon="7.08279">
        <ele>1198</ele>
        <time>2022-07-16T08:06:31.153Z</time>
      </trkpt>
      <trkpt lat="46.05417" lon="7.0829">
        <ele>1198</ele>
        <time>2022-07-16T08:06:33.511Z</time>
      </trkpt>
      <trkpt lat="46.05397" lon="7.08299">
        <ele>1201</ele>
        <time>2022-07-16T08:06:44.258Z</time>
      </trkpt>
      <trkpt lat="46.05378" lon="7.08302">
        <ele>1200</ele>
        <time>2022-07-16T08:06:45.741Z</time>
      </trkpt>
      <trkpt lat="46.05318" lon="7.08318">
        <ele>1202</ele>
        <time>2022-07-16T08:06:57.337Z</time>
      </trkpt>
      <trkpt lat="46.05282" lon="7.08342">
        <ele>1210</ele>
        <time>2022-07-16T08:07:17.684Z</time>
      </trkpt>
      <trkpt lat="46.05278" lon="7.08348">
        <ele>1212</ele>
        <time>2022-07-16T08:07:20.646Z</time>
      </trkpt>
      <trkpt lat="46.05278" lon="7.08356">
        <ele>1215</ele>
        <time>2022-07-16T08:07:23.494Z</time>
      </trkpt>
      <trkpt lat="46.05279" lon="7.08358">
        <ele>1216</ele>
        <time>2022-07-16T08:07:24.371Z</time>
      </trkpt>
      <trkpt lat="46.05286" lon="7.08359">
        <ele>1216</ele>
        <time>2022-07-16T08:07:25.307Z</time>
      </trkpt>
      <trkpt lat="46.05302" lon="7.08353">
        <ele>1214</ele>
        <time>2022-07-16T08:07:26.554Z</time>
      </trkpt>
      <trkpt lat="46.05322" lon="7.08353">
        <ele>1215</ele>
        <time>2022-07-16T08:07:31.205Z</time>
      </trkpt>
      <trkpt lat="46.05349" lon="7.08363">
        <ele>1222</ele>
        <time>2022-07-16T08:07:45.505Z</time>
      </trkpt>
      <trkpt lat="46.05363" lon="7.08363">
        <ele>1224</ele>
        <time>2022-07-16T08:07:52.686Z</time>
      </trkpt>
      <trkpt lat="46.05425" lon="7.0835">
        <ele>1228</ele>
        <time>2022-07-16T08:08:08.709Z</time>
      </trkpt>
      <trkpt lat="46.05428" lon="7.08351">
        <ele>1229</ele>
        <time>2022-07-16T08:08:10.288Z</time>
      </trkpt>
      <trkpt lat="46.0543" lon="7.08361">
        <ele>1235</ele>
        <time>2022-07-16T08:08:13.993Z</time>
      </trkpt>
      <trkpt lat="46.05426" lon="7.08367">
        <ele>1238</ele>
        <time>2022-07-16T08:08:16.954Z</time>
      </trkpt>
      <trkpt lat="46.05395" lon="7.08378">
        <ele>1238</ele>
        <time>2022-07-16T08:08:21.200Z</time>
      </trkpt>
      <trkpt lat="46.05372" lon="7.08395">
        <ele>1242</ele>
        <time>2022-07-16T08:08:34.459Z</time>
      </trkpt>
      <trkpt lat="46.05351" lon="7.08418">
        <ele>1248</ele>
        <time>2022-07-16T08:08:47.990Z</time>
      </trkpt>
      <trkpt lat="46.05272" lon="7.08486">
        <ele>1259</ele>
        <time>2022-07-16T08:09:27.297Z</time>
      </trkpt>
      <trkpt lat="46.05231" lon="7.08534">
        <ele>1265</ele>
        <time>2022-07-16T08:09:48.352Z</time>
      </trkpt>
      <trkpt lat="46.05176" lon="7.08555">
        <ele>1267</ele>
        <time>2022-07-16T08:09:59.512Z</time>
      </trkpt>
      <trkpt lat="46.05103" lon="7.086">
        <ele>1277</ele>
        <time>2022-07-16T08:10:36.262Z</time>
      </trkpt>
      <trkpt lat="46.05093" lon="7.08603">
        <ele>1277</ele>
        <time>2022-07-16T08:10:37.621Z</time>
      </trkpt>
      <trkpt lat="46.05078" lon="7.08602">
        <ele>1276</ele>
        <time>2022-07-16T08:10:38.659Z</time>
      </trkpt>
      <trkpt lat="46.05046" lon="7.08582">
        <ele>1273</ele>
        <time>2022-07-16T08:10:41.292Z</time>
      </trkpt>
      <trkpt lat="46.05029" lon="7.08578">
        <ele>1274</ele>
        <time>2022-07-16T08:10:45.521Z</time>
      </trkpt>
      <trkpt lat="46.04975" lon="7.08586">
        <ele>1281</ele>
        <time>2022-07-16T08:11:11.671Z</time>
      </trkpt>
      <trkpt lat="46.04964" lon="7.08592">
        <ele>1284</ele>
        <time>2022-07-16T08:11:17.704Z</time>
      </trkpt>
      <trkpt lat="46.04962" lon="7.08596">
        <ele>1285</ele>
        <time>2022-07-16T08:11:19.459Z</time>
      </trkpt>
      <trkpt lat="46.04963" lon="7.08605">
        <ele>1286</ele>
        <time>2022-07-16T08:11:22.704Z</time>
      </trkpt>
      <trkpt lat="46.04966" lon="7.08608">
        <ele>1287</ele>
        <time>2022-07-16T08:11:24.577Z</time>
      </trkpt>
      <trkpt lat="46.04974" lon="7.0861">
        <ele>1286</ele>
        <time>2022-07-16T08:11:25.190Z</time>
      </trkpt>
      <trkpt lat="46.04987" lon="7.08609">
        <ele>1285</ele>
        <time>2022-07-16T08:11:26.173Z</time>
      </trkpt>
      <trkpt lat="46.05019" lon="7.08627">
        <ele>1287</ele>
        <time>2022-07-16T08:11:34.616Z</time>
      </trkpt>
      <trkpt lat="46.05028" lon="7.08635">
        <ele>1289</ele>
        <time>2022-07-16T08:11:40.040Z</time>
      </trkpt>
      <trkpt lat="46.05035" lon="7.08642">
        <ele>1290</ele>
        <time>2022-07-16T08:11:43.587Z</time>
      </trkpt>
      <trkpt lat="46.05039" lon="7.0865">
        <ele>1292</ele>
        <time>2022-07-16T08:11:47.097Z</time>
      </trkpt>
      <trkpt lat="46.05039" lon="7.08664">
        <ele>1296</ele>
        <time>2022-07-16T08:11:52.081Z</time>
      </trkpt>
      <trkpt lat="46.05032" lon="7.08668">
        <ele>1298</ele>
        <time>2022-07-16T08:11:55.944Z</time>
      </trkpt>
      <trkpt lat="46.05005" lon="7.08655">
        <ele>1296</ele>
        <time>2022-07-16T08:11:58.092Z</time>
      </trkpt>
      <trkpt lat="46.04984" lon="7.08655">
        <ele>1296</ele>
        <time>2022-07-16T08:12:00.885Z</time>
      </trkpt>
      <trkpt lat="46.04949" lon="7.08675">
        <ele>1300</ele>
        <time>2022-07-16T08:12:14.749Z</time>
      </trkpt>
      <trkpt lat="46.04935" lon="7.08679">
        <ele>1301</ele>
        <time>2022-07-16T08:12:18.570Z</time>
      </trkpt>
      <trkpt lat="46.04917" lon="7.08689">
        <ele>1302</ele>
        <time>2022-07-16T08:12:23.110Z</time>
      </trkpt>
      <trkpt lat="46.04863" lon="7.08753">
        <ele>1308</ele>
        <time>2022-07-16T08:12:44.354Z</time>
      </trkpt>
      <trkpt lat="46.04826" lon="7.08792">
        <ele>1313</ele>
        <time>2022-07-16T08:13:01.745Z</time>
      </trkpt>
      <trkpt lat="46.04817" lon="7.08809">
        <ele>1317</ele>
        <time>2022-07-16T08:13:09.357Z</time>
      </trkpt>
      <trkpt lat="46.04769" lon="7.08865">
        <ele>1328</ele>
        <time>2022-07-16T08:13:41.038Z</time>
      </trkpt>
      <trkpt lat="46.04767" lon="7.08873">
        <ele>1328</ele>
        <time>2022-07-16T08:13:41.823Z</time>
      </trkpt>
      <trkpt lat="46.0477" lon="7.08881">
        <ele>1328</ele>
        <time>2022-07-16T08:13:42.662Z</time>
      </trkpt>
      <trkpt lat="46.04773" lon="7.08882">
        <ele>1328</ele>
        <time>2022-07-16T08:13:43.072Z</time>
      </trkpt>
      <trkpt lat="46.0483" lon="7.08873">
        <ele>1326</ele>
        <time>2022-07-16T08:13:48.295Z</time>
      </trkpt>
      <trkpt lat="46.04847" lon="7.08868">
        <ele>1328</ele>
        <time>2022-07-16T08:13:55.344Z</time>
      </trkpt>
      <trkpt lat="46.04866" lon="7.08851">
        <ele>1328</ele>
        <time>2022-07-16T08:13:58.318Z</time>
      </trkpt>
      <trkpt lat="46.04925" lon="7.08815">
        <ele>1331</ele>
        <time>2022-07-16T08:14:12.914Z</time>
      </trkpt>
      <trkpt lat="46.04932" lon="7.08815">
        <ele>1333</ele>
        <time>2022-07-16T08:14:16.504Z</time>
      </trkpt>
      <trkpt lat="46.04935" lon="7.08818">
        <ele>1335</ele>
        <time>2022-07-16T08:14:18.377Z</time>
      </trkpt>
      <trkpt lat="46.04933" lon="7.08835">
        <ele>1339</ele>
        <time>2022-07-16T08:14:24.516Z</time>
      </trkpt>
      <trkpt lat="46.04904" lon="7.08868">
        <ele>1341</ele>
        <time>2022-07-16T08:14:33.347Z</time>
      </trkpt>
      <trkpt lat="46.04847" lon="7.08981">
        <ele>1347</ele>
        <time>2022-07-16T08:14:57.796Z</time>
      </trkpt>
      <trkpt lat="46.04833" lon="7.0902">
        <ele>1349</ele>
        <time>2022-07-16T08:15:05.691Z</time>
      </trkpt>
      <trkpt lat="46.04822" lon="7.0908">
        <ele>1358</ele>
        <time>2022-07-16T08:15:27.785Z</time>
      </trkpt>
      <trkpt lat="46.04818" lon="7.09091">
        <ele>1360</ele>
        <time>2022-07-16T08:15:32.206Z</time>
      </trkpt>
      <trkpt lat="46.04802" lon="7.09115">
        <ele>1364</ele>
        <time>2022-07-16T08:15:44.053Z</time>
      </trkpt>
      <trkpt lat="46.04793" lon="7.09124">
        <ele>1364</ele>
        <time>2022-07-16T08:15:45.510Z</time>
      </trkpt>
      <trkpt lat="46.04749" lon="7.09153">
        <ele>1361</ele>
        <time>2022-07-16T08:15:48.978Z</time>
      </trkpt>
      <trkpt lat="46.04665" lon="7.09255">
        <ele>1368</ele>
        <time>2022-07-16T08:16:17.046Z</time>
      </trkpt>
      <trkpt lat="46.0465" lon="7.09281">
        <ele>1372</ele>
        <time>2022-07-16T08:16:29.083Z</time>
      </trkpt>
      <trkpt lat="46.04622" lon="7.09365">
        <ele>1391</ele>
        <time>2022-07-16T08:17:02.260Z</time>
      </trkpt>
      <trkpt lat="46.04616" lon="7.09372">
        <ele>1393</ele>
        <time>2022-07-16T08:17:06.220Z</time>
      </trkpt>
      <trkpt lat="46.04603" lon="7.09378">
        <ele>1393</ele>
        <time>2022-07-16T08:17:08.035Z</time>
      </trkpt>
      <trkpt lat="46.04597" lon="7.09377">
        <ele>1391</ele>
        <time>2022-07-16T08:17:08.491Z</time>
      </trkpt>
      <trkpt lat="46.04562" lon="7.09363">
        <ele>1382</ele>
        <time>2022-07-16T08:17:11.233Z</time>
      </trkpt>
      <trkpt lat="46.04535" lon="7.09358">
        <ele>1381</ele>
        <time>2022-07-16T08:17:13.667Z</time>
      </trkpt>
      <trkpt lat="46.04523" lon="7.09358">
        <ele>1381</ele>
        <time>2022-07-16T08:17:15.263Z</time>
      </trkpt>
      <trkpt lat="46.04477" lon="7.0937">
        <ele>1384</ele>
        <time>2022-07-16T08:17:27.246Z</time>
      </trkpt>
      <trkpt lat="46.04405" lon="7.09415">
        <ele>1387</ele>
        <time>2022-07-16T08:17:43.307Z</time>
      </trkpt>
      <trkpt lat="46.04379" lon="7.09443">
        <ele>1389</ele>
        <time>2022-07-16T08:17:51.477Z</time>
      </trkpt>
      <trkpt lat="46.04356" lon="7.0948">
        <ele>1393</ele>
        <time>2022-07-16T08:18:05.606Z</time>
      </trkpt>
      <trkpt lat="46.0434" lon="7.09519">
        <ele>1397</ele>
        <time>2022-07-16T08:18:20.403Z</time>
      </trkpt>
      <trkpt lat="46.04323" lon="7.09575">
        <ele>1404</ele>
        <time>2022-07-16T08:18:42.165Z</time>
      </trkpt>
      <trkpt lat="46.04313" lon="7.09598">
        <ele>1409</ele>
        <time>2022-07-16T08:18:51.828Z</time>
      </trkpt>
      <trkpt lat="46.04292" lon="7.09622">
        <ele>1413</ele>
        <time>2022-07-16T08:19:05.578Z</time>
      </trkpt>
      <trkpt lat="46.04261" lon="7.09641">
        <ele>1414</ele>
        <time>2022-07-16T08:19:11.731Z</time>
      </trkpt>
      <trkpt lat="46.04237" lon="7.09652">
        <ele>1416</ele>
        <time>2022-07-16T08:19:18.986Z</time>
      </trkpt>
      <trkpt lat="46.04225" lon="7.09654">
        <ele>1417</ele>
        <time>2022-07-16T08:19:22.563Z</time>
      </trkpt>
      <trkpt lat="46.04196" lon="7.09651">
        <ele>1418</ele>
        <time>2022-07-16T08:19:28.208Z</time>
      </trkpt>
      <trkpt lat="46.04158" lon="7.0964">
        <ele>1417</ele>
        <time>2022-07-16T08:19:32.091Z</time>
      </trkpt>
      <trkpt lat="46.04145" lon="7.09643">
        <ele>1417</ele>
        <time>2022-07-16T08:19:33.842Z</time>
      </trkpt>
      <trkpt lat="46.04081" lon="7.09663">
        <ele>1419</ele>
        <time>2022-07-16T08:19:45.933Z</time>
      </trkpt>
      <trkpt lat="46.04062" lon="7.09671">
        <ele>1419</ele>
        <time>2022-07-16T08:19:48.566Z</time>
      </trkpt>
      <trkpt lat="46.04029" lon="7.097">
        <ele>1424</ele>
        <time>2022-07-16T08:20:07.288Z</time>
      </trkpt>
      <trkpt lat="46.03966" lon="7.09795">
        <ele>1435</ele>
        <time>2022-07-16T08:20:46.756Z</time>
      </trkpt>
      <trkpt lat="46.03939" lon="7.09857">
        <ele>1440</ele>
        <time>2022-07-16T08:21:04.059Z</time>
      </trkpt>
      <trkpt lat="46.03906" lon="7.09986">
        <ele>1454</ele>
        <time>2022-07-16T08:21:53.012Z</time>
      </trkpt>
      <trkpt lat="46.03894" lon="7.10047">
        <ele>1462</ele>
        <time>2022-07-16T08:22:15.587Z</time>
      </trkpt>
      <trkpt lat="46.03887" lon="7.1006">
        <ele>1463</ele>
        <time>2022-07-16T08:22:19.110Z</time>
      </trkpt>
      <trkpt lat="46.03831" lon="7.10125">
        <ele>1467</ele>
        <time>2022-07-16T08:22:36.472Z</time>
      </trkpt>
      <trkpt lat="46.03776" lon="7.10196">
        <ele>1478</ele>
        <time>2022-07-16T08:23:14.355Z</time>
      </trkpt>
      <trkpt lat="46.0374" lon="7.10233">
        <ele>1481</ele>
        <time>2022-07-16T08:23:25.999Z</time>
      </trkpt>
      <trkpt lat="46.0373" lon="7.10237">
        <ele>1481</ele>
        <time>2022-07-16T08:23:27.380Z</time>
      </trkpt>
      <trkpt lat="46.03693" lon="7.10229">
        <ele>1476</ele>
        <time>2022-07-16T08:23:30.204Z</time>
      </trkpt>
      <trkpt lat="46.03669" lon="7.10232">
        <ele>1475</ele>
        <time>2022-07-16T08:23:32.262Z</time>
      </trkpt>
      <trkpt lat="46.03646" lon="7.1024">
        <ele>1476</ele>
        <time>2022-07-16T08:23:37.396Z</time>
      </trkpt>
      <trkpt lat="46.03582" lon="7.10287">
        <ele>1483</ele>
        <time>2022-07-16T08:24:01.635Z</time>
      </trkpt>
      <trkpt lat="46.03551" lon="7.10305">
        <ele>1489</ele>
        <time>2022-07-16T08:24:18.780Z</time>
      </trkpt>
      <trkpt lat="46.03534" lon="7.10304">
        <ele>1490</ele>
        <time>2022-07-16T08:24:22.978Z</time>
      </trkpt>
      <trkpt lat="46.03508" lon="7.10294">
        <ele>1489</ele>
        <time>2022-07-16T08:24:25.374Z</time>
      </trkpt>
      <trkpt lat="46.0349" lon="7.1029">
        <ele>1491</ele>
        <time>2022-07-16T08:24:32.339Z</time>
      </trkpt>
      <trkpt lat="46.03413" lon="7.10287">
        <ele>1502</ele>
        <time>2022-07-16T08:25:11.850Z</time>
      </trkpt>
      <trkpt lat="46.03383" lon="7.10292">
        <ele>1504</ele>
        <time>2022-07-16T08:25:19.708Z</time>
      </trkpt>
      <trkpt lat="46.03361" lon="7.103">
        <ele>1506</ele>
        <time>2022-07-16T08:25:26.743Z</time>
      </trkpt>
      <trkpt lat="46.03334" lon="7.10315">
        <ele>1507</ele>
        <time>2022-07-16T08:25:32.373Z</time>
      </trkpt>
      <trkpt lat="46.03316" lon="7.10329">
        <ele>1509</ele>
        <time>2022-07-16T08:25:39.297Z</time>
      </trkpt>
      <trkpt lat="46.03305" lon="7.10342">
        <ele>1511</ele>
        <time>2022-07-16T08:25:46.596Z</time>
      </trkpt>
      <trkpt lat="46.03291" lon="7.10366">
        <ele>1512</ele>
        <time>2022-07-16T08:25:51.526Z</time>
      </trkpt>
      <trkpt lat="46.03251" lon="7.10422">
        <ele>1509</ele>
        <time>2022-07-16T08:25:55.800Z</time>
      </trkpt>
      <trkpt lat="46.03245" lon="7.10437">
        <ele>1508</ele>
        <time>2022-07-16T08:25:56.707Z</time>
      </trkpt>
      <trkpt lat="46.03242" lon="7.10481">
        <ele>1504</ele>
        <time>2022-07-16T08:25:59.024Z</time>
      </trkpt>
      <trkpt lat="46.0325" lon="7.10599">
        <ele>1503</ele>
        <time>2022-07-16T08:26:08.723Z</time>
      </trkpt>
      <trkpt lat="46.03249" lon="7.10613">
        <ele>1504</ele>
        <time>2022-07-16T08:26:12.181Z</time>
      </trkpt>
      <trkpt lat="46.03244" lon="7.10629">
        <ele>1505</ele>
        <time>2022-07-16T08:26:15.768Z</time>
      </trkpt>
      <trkpt lat="46.03229" lon="7.10651">
        <ele>1506</ele>
        <time>2022-07-16T08:26:20.641Z</time>
      </trkpt>
      <trkpt lat="46.03215" lon="7.10662">
        <ele>1505</ele>
        <time>2022-07-16T08:26:21.778Z</time>
      </trkpt>
      <trkpt lat="46.03181" lon="7.10681">
        <ele>1502</ele>
        <time>2022-07-16T08:26:24.530Z</time>
      </trkpt>
      <trkpt lat="46.03168" lon="7.10695">
        <ele>1501</ele>
        <time>2022-07-16T08:26:25.697Z</time>
      </trkpt>
      <trkpt lat="46.03159" lon="7.10716">
        <ele>1501</ele>
        <time>2022-07-16T08:26:27.976Z</time>
      </trkpt>
      <trkpt lat="46.03149" lon="7.10756">
        <ele>1500</ele>
        <time>2022-07-16T08:26:30.691Z</time>
      </trkpt>
      <trkpt lat="46.03145" lon="7.10781">
        <ele>1496</ele>
        <time>2022-07-16T08:26:32.036Z</time>
      </trkpt>
      <trkpt lat="46.03148" lon="7.10793">
        <ele>1494</ele>
        <time>2022-07-16T08:26:32.704Z</time>
      </trkpt>
      <trkpt lat="46.03159" lon="7.10805">
        <ele>1493</ele>
        <time>2022-07-16T08:26:33.746Z</time>
      </trkpt>
      <trkpt lat="46.03187" lon="7.1082">
        <ele>1494</ele>
        <time>2022-07-16T08:26:39.475Z</time>
      </trkpt>
      <trkpt lat="46.03193" lon="7.10828">
        <ele>1493</ele>
        <time>2022-07-16T08:26:40.092Z</time>
      </trkpt>
      <trkpt lat="46.03196" lon="7.10838">
        <ele>1492</ele>
        <time>2022-07-16T08:26:40.663Z</time>
      </trkpt>
      <trkpt lat="46.03198" lon="7.10854">
        <ele>1492</ele>
        <time>2022-07-16T08:26:42.164Z</time>
      </trkpt>
      <trkpt lat="46.03192" lon="7.10891">
        <ele>1490</ele>
        <time>2022-07-16T08:26:44.155Z</time>
      </trkpt>
      <trkpt lat="46.03196" lon="7.10983">
        <ele>1491</ele>
        <time>2022-07-16T08:26:54.087Z</time>
      </trkpt>
      <trkpt lat="46.03194" lon="7.11">
        <ele>1491</ele>
        <time>2022-07-16T08:26:55.679Z</time>
      </trkpt>
      <trkpt lat="46.03154" lon="7.11185">
        <ele>1491</ele>
        <time>2022-07-16T08:27:13.569Z</time>
      </trkpt>
      <trkpt lat="46.03138" lon="7.11245">
        <ele>1488</ele>
        <time>2022-07-16T08:27:16.937Z</time>
      </trkpt>
      <trkpt lat="46.03101" lon="7.11365">
        <ele>1479</ele>
        <time>2022-07-16T08:27:23.817Z</time>
      </trkpt>
      <trkpt lat="46.03065" lon="7.11527">
        <ele>1475</ele>
        <time>2022-07-16T08:27:34.684Z</time>
      </trkpt>
      <trkpt lat="46.03048" lon="7.11584">
        <ele>1477</ele>
        <time>2022-07-16T08:27:44.471Z</time>
      </trkpt>
      <trkpt lat="46.03036" lon="7.11615">
        <ele>1478</ele>
        <time>2022-07-16T08:27:49.686Z</time>
      </trkpt>
      <trkpt lat="46.0301" lon="7.11663">
        <ele>1474</ele>
        <time>2022-07-16T08:27:52.877Z</time>
      </trkpt>
      <trkpt lat="46.02991" lon="7.11687">
        <ele>1474</ele>
        <time>2022-07-16T08:27:56.237Z</time>
      </trkpt>
      <trkpt lat="46.0295" lon="7.11713">
        <ele>1474</ele>
        <time>2022-07-16T08:28:02.195Z</time>
      </trkpt>
      <trkpt lat="46.02942" lon="7.11721">
        <ele>1474</ele>
        <time>2022-07-16T08:28:03.490Z</time>
      </trkpt>
      <trkpt lat="46.02913" lon="7.11763">
        <ele>1475</ele>
        <time>2022-07-16T08:28:10.526Z</time>
      </trkpt>
      <trkpt lat="46.02867" lon="7.11812">
        <ele>1476</ele>
        <time>2022-07-16T08:28:19.585Z</time>
      </trkpt>
      <trkpt lat="46.02848" lon="7.11838">
        <ele>1475</ele>
        <time>2022-07-16T08:28:21.897Z</time>
      </trkpt>
      <trkpt lat="46.02833" lon="7.11881">
        <ele>1475</ele>
        <time>2022-07-16T08:28:26.340Z</time>
      </trkpt>
      <trkpt lat="46.02828" lon="7.11911">
        <ele>1476</ele>
        <time>2022-07-16T08:28:31.215Z</time>
      </trkpt>
      <trkpt lat="46.02823" lon="7.11975">
        <ele>1477</ele>
        <time>2022-07-16T08:28:38.694Z</time>
      </trkpt>
      <trkpt lat="46.0282" lon="7.11987">
        <ele>1477</ele>
        <time>2022-07-16T08:28:39.872Z</time>
      </trkpt>
      <trkpt lat="46.02801" lon="7.12025">
        <ele>1482</ele>
        <time>2022-07-16T08:28:56.549Z</time>
      </trkpt>
      <trkpt lat="46.02792" lon="7.12038">
        <ele>1483</ele>
        <time>2022-07-16T08:29:00.192Z</time>
      </trkpt>
      <trkpt lat="46.02772" lon="7.12046">
        <ele>1480</ele>
        <time>2022-07-16T08:29:01.759Z</time>
      </trkpt>
      <trkpt lat="46.02733" lon="7.12055">
        <ele>1475</ele>
        <time>2022-07-16T08:29:04.740Z</time>
      </trkpt>
      <trkpt lat="46.02721" lon="7.1206">
        <ele>1475</ele>
        <time>2022-07-16T08:29:06.401Z</time>
      </trkpt>
      <trkpt lat="46.02705" lon="7.12071">
        <ele>1474</ele>
        <time>2022-07-16T08:29:07.731Z</time>
      </trkpt>
      <trkpt lat="46.02692" lon="7.12088">
        <ele>1473</ele>
        <time>2022-07-16T08:29:09.041Z</time>
      </trkpt>
      <trkpt lat="46.02649" lon="7.12182">
        <ele>1478</ele>
        <time>2022-07-16T08:29:29.047Z</time>
      </trkpt>
      <trkpt lat="46.02644" lon="7.12189">
        <ele>1479</ele>
        <time>2022-07-16T08:29:32.624Z</time>
      </trkpt>
      <trkpt lat="46.02635" lon="7.12192">
        <ele>1478</ele>
        <time>2022-07-16T08:29:33.321Z</time>
      </trkpt>
      <trkpt lat="46.02629" lon="7.12188">
        <ele>1476</ele>
        <time>2022-07-16T08:29:33.820Z</time>
      </trkpt>
      <trkpt lat="46.02625" lon="7.1218">
        <ele>1474</ele>
        <time>2022-07-16T08:29:34.337Z</time>
      </trkpt>
      <trkpt lat="46.02625" lon="7.12166">
        <ele>1471</ele>
        <time>2022-07-16T08:29:35.071Z</time>
      </trkpt>
      <trkpt lat="46.02638" lon="7.12141">
        <ele>1470</ele>
        <time>2022-07-16T08:29:36.847Z</time>
      </trkpt>
      <trkpt lat="46.02641" lon="7.12128">
        <ele>1469</ele>
        <time>2022-07-16T08:29:37.565Z</time>
      </trkpt>
      <trkpt lat="46.02641" lon="7.12101">
        <ele>1466</ele>
        <time>2022-07-16T08:29:38.980Z</time>
      </trkpt>
      <trkpt lat="46.02636" lon="7.12081">
        <ele>1463</ele>
        <time>2022-07-16T08:29:40.094Z</time>
      </trkpt>
      <trkpt lat="46.02614" lon="7.12023">
        <ele>1458</ele>
        <time>2022-07-16T08:29:43.557Z</time>
      </trkpt>
      <trkpt lat="46.02602" lon="7.11955">
        <ele>1455</ele>
        <time>2022-07-16T08:29:47.060Z</time>
      </trkpt>
      <trkpt lat="46.02596" lon="7.11952">
        <ele>1454</ele>
        <time>2022-07-16T08:29:47.540Z</time>
      </trkpt>
      <trkpt lat="46.02592" lon="7.11959">
        <ele>1453</ele>
        <time>2022-07-16T08:29:48.015Z</time>
      </trkpt>
      <trkpt lat="46.02594" lon="7.12007">
        <ele>1452</ele>
        <time>2022-07-16T08:29:51.214Z</time>
      </trkpt>
      <trkpt lat="46.02591" lon="7.12026">
        <ele>1452</ele>
        <time>2022-07-16T08:29:53.013Z</time>
      </trkpt>
      <trkpt lat="46.02584" lon="7.12037">
        <ele>1451</ele>
        <time>2022-07-16T08:29:53.795Z</time>
      </trkpt>
      <trkpt lat="46.02564" lon="7.12051">
        <ele>1449</ele>
        <time>2022-07-16T08:29:55.473Z</time>
      </trkpt>
      <trkpt lat="46.02556" lon="7.12061">
        <ele>1449</ele>
        <time>2022-07-16T08:29:56.882Z</time>
      </trkpt>
      <trkpt lat="46.02526" lon="7.12113">
        <ele>1451</ele>
        <time>2022-07-16T08:30:07.120Z</time>
      </trkpt>
      <trkpt lat="46.02512" lon="7.12128">
        <ele>1452</ele>
        <time>2022-07-16T08:30:11.382Z</time>
      </trkpt>
      <trkpt lat="46.02493" lon="7.12142">
        <ele>1451</ele>
        <time>2022-07-16T08:30:13.118Z</time>
      </trkpt>
      <trkpt lat="46.02471" lon="7.12143">
        <ele>1447</ele>
        <time>2022-07-16T08:30:14.779Z</time>
      </trkpt>
      <trkpt lat="46.02459" lon="7.12135">
        <ele>1443</ele>
        <time>2022-07-16T08:30:15.778Z</time>
      </trkpt>
      <trkpt lat="46.02447" lon="7.12102">
        <ele>1436</ele>
        <time>2022-07-16T08:30:17.730Z</time>
      </trkpt>
      <trkpt lat="46.0244" lon="7.12095">
        <ele>1433</ele>
        <time>2022-07-16T08:30:18.373Z</time>
      </trkpt>
      <trkpt lat="46.02419" lon="7.12092">
        <ele>1429</ele>
        <time>2022-07-16T08:30:19.966Z</time>
      </trkpt>
      <trkpt lat="46.02403" lon="7.12093">
        <ele>1425</ele>
        <time>2022-07-16T08:30:21.174Z</time>
      </trkpt>
      <trkpt lat="46.02384" lon="7.121">
        <ele>1421</ele>
        <time>2022-07-16T08:30:22.655Z</time>
      </trkpt>
      <trkpt lat="46.0237" lon="7.12108">
        <ele>1419</ele>
        <time>2022-07-16T08:30:23.791Z</time>
      </trkpt>
      <trkpt lat="46.0236" lon="7.12119">
        <ele>1417</ele>
        <time>2022-07-16T08:30:24.741Z</time>
      </trkpt>
      <trkpt lat="46.02351" lon="7.1213">
        <ele>1415</ele>
        <time>2022-07-16T08:30:25.632Z</time>
      </trkpt>
      <trkpt lat="46.02344" lon="7.12146">
        <ele>1413</ele>
        <time>2022-07-16T08:30:26.623Z</time>
      </trkpt>
      <trkpt lat="46.02334" lon="7.12179">
        <ele>1411</ele>
        <time>2022-07-16T08:30:28.510Z</time>
      </trkpt>
      <trkpt lat="46.02333" lon="7.12217">
        <ele>1412</ele>
        <time>2022-07-16T08:30:33.887Z</time>
      </trkpt>
      <trkpt lat="46.0234" lon="7.12254">
        <ele>1415</ele>
        <time>2022-07-16T08:30:44.392Z</time>
      </trkpt>
      <trkpt lat="46.02385" lon="7.12352">
        <ele>1408</ele>
        <time>2022-07-16T08:30:50.549Z</time>
      </trkpt>
      <trkpt lat="46.02402" lon="7.12378">
        <ele>1403</ele>
        <time>2022-07-16T08:30:52.421Z</time>
      </trkpt>
      <trkpt lat="46.02418" lon="7.12395">
        <ele>1402</ele>
        <time>2022-07-16T08:30:53.990Z</time>
      </trkpt>
      <trkpt lat="46.02463" lon="7.12426">
        <ele>1405</ele>
        <time>2022-07-16T08:31:06.416Z</time>
      </trkpt>
      <trkpt lat="46.02486" lon="7.12445">
        <ele>1404</ele>
        <time>2022-07-16T08:31:08.764Z</time>
      </trkpt>
      <trkpt lat="46.02518" lon="7.12481">
        <ele>1398</ele>
        <time>2022-07-16T08:31:11.829Z</time>
      </trkpt>
      <trkpt lat="46.02609" lon="7.12595">
        <ele>1385</ele>
        <time>2022-07-16T08:31:20.932Z</time>
      </trkpt>
      <trkpt lat="46.02634" lon="7.1263">
        <ele>1383</ele>
        <time>2022-07-16T08:31:23.526Z</time>
      </trkpt>
      <trkpt lat="46.02652" lon="7.12645">
        <ele>1384</ele>
        <time>2022-07-16T08:31:28.301Z</time>
      </trkpt>
      <trkpt lat="46.02688" lon="7.12667">
        <ele>1388</ele>
        <time>2022-07-16T08:31:42.134Z</time>
      </trkpt>
      <trkpt lat="46.02701" lon="7.1268">
        <ele>1388</ele>
        <time>2022-07-16T08:31:44.238Z</time>
      </trkpt>
      <trkpt lat="46.02808" lon="7.1286">
        <ele>1364</ele>
        <time>2022-07-16T08:31:56.656Z</time>
      </trkpt>
      <trkpt lat="46.02833" lon="7.12914">
        <ele>1357</ele>
        <time>2022-07-16T08:32:00.057Z</time>
      </trkpt>
      <trkpt lat="46.02848" lon="7.12933">
        <ele>1354</ele>
        <time>2022-07-16T08:32:01.565Z</time>
      </trkpt>
      <trkpt lat="46.02873" lon="7.12954">
        <ele>1353</ele>
        <time>2022-07-16T08:32:04.210Z</time>
      </trkpt>
      <trkpt lat="46.02891" lon="7.12993">
        <ele>1342</ele>
        <time>2022-07-16T08:32:06.664Z</time>
      </trkpt>
      <trkpt lat="46.02897" lon="7.12999">
        <ele>1342</ele>
        <time>2022-07-16T08:32:07.635Z</time>
      </trkpt>
      <trkpt lat="46.02908" lon="7.13004">
        <ele>1343</ele>
        <time>2022-07-16T08:32:11.166Z</time>
      </trkpt>
      <trkpt lat="46.02931" lon="7.1301">
        <ele>1345</ele>
        <time>2022-07-16T08:32:18.253Z</time>
      </trkpt>
      <trkpt lat="46.02954" lon="7.12999">
        <ele>1352</ele>
        <time>2022-07-16T08:32:30.684Z</time>
      </trkpt>
      <trkpt lat="46.02959" lon="7.13003">
        <ele>1351</ele>
        <time>2022-07-16T08:32:31.116Z</time>
      </trkpt>
      <trkpt lat="46.0296" lon="7.13011">
        <ele>1348</ele>
        <time>2022-07-16T08:32:31.542Z</time>
      </trkpt>
      <trkpt lat="46.02956" lon="7.13022">
        <ele>1343</ele>
        <time>2022-07-16T08:32:32.192Z</time>
      </trkpt>
      <trkpt lat="46.0294" lon="7.13029">
        <ele>1339</ele>
        <time>2022-07-16T08:32:33.455Z</time>
      </trkpt>
      <trkpt lat="46.0292" lon="7.13028">
        <ele>1338</ele>
        <time>2022-07-16T08:32:35.039Z</time>
      </trkpt>
      <trkpt lat="46.02909" lon="7.13023">
        <ele>1337</ele>
        <time>2022-07-16T08:32:35.909Z</time>
      </trkpt>
      <trkpt lat="46.02877" lon="7.1302">
        <ele>1329</ele>
        <time>2022-07-16T08:32:38.330Z</time>
      </trkpt>
      <trkpt lat="46.02866" lon="7.13014">
        <ele>1328</ele>
        <time>2022-07-16T08:32:39.217Z</time>
      </trkpt>
      <trkpt lat="46.02835" lon="7.12977">
        <ele>1333</ele>
        <time>2022-07-16T08:32:57.435Z</time>
      </trkpt>
      <trkpt lat="46.02801" lon="7.12958">
        <ele>1325</ele>
        <time>2022-07-16T08:33:00.188Z</time>
      </trkpt>
      <trkpt lat="46.02763" lon="7.12913">
        <ele>1323</ele>
        <time>2022-07-16T08:33:04.425Z</time>
      </trkpt>
      <trkpt lat="46.02738" lon="7.12896">
        <ele>1317</ele>
        <time>2022-07-16T08:33:06.511Z</time>
      </trkpt>
      <trkpt lat="46.02715" lon="7.12855">
        <ele>1320</ele>
        <time>2022-07-16T08:33:17.277Z</time>
      </trkpt>
      <trkpt lat="46.02668" lon="7.12799">
        <ele>1320</ele>
        <time>2022-07-16T08:33:25.389Z</time>
      </trkpt>
      <trkpt lat="46.02644" lon="7.12782">
        <ele>1319</ele>
        <time>2022-07-16T08:33:27.765Z</time>
      </trkpt>
      <trkpt lat="46.02614" lon="7.12774">
        <ele>1313</ele>
        <time>2022-07-16T08:33:30.068Z</time>
      </trkpt>
      <trkpt lat="46.026" lon="7.12766">
        <ele>1311</ele>
        <time>2022-07-16T08:33:31.205Z</time>
      </trkpt>
      <trkpt lat="46.02576" lon="7.12744">
        <ele>1312</ele>
        <time>2022-07-16T08:33:36.785Z</time>
      </trkpt>
      <trkpt lat="46.02535" lon="7.12714">
        <ele>1310</ele>
        <time>2022-07-16T08:33:40.642Z</time>
      </trkpt>
      <trkpt lat="46.02512" lon="7.12686">
        <ele>1311</ele>
        <time>2022-07-16T08:33:46.398Z</time>
      </trkpt>
      <trkpt lat="46.0251" lon="7.12685">
        <ele>1310</ele>
        <time>2022-07-16T08:33:46.558Z</time>
      </trkpt>
      <trkpt lat="46.02505" lon="7.12688">
        <ele>1307</ele>
        <time>2022-07-16T08:33:46.966Z</time>
      </trkpt>
      <trkpt lat="46.02504" lon="7.12695">
        <ele>1305</ele>
        <time>2022-07-16T08:33:47.341Z</time>
      </trkpt>
      <trkpt lat="46.02506" lon="7.127">
        <ele>1304</ele>
        <time>2022-07-16T08:33:47.643Z</time>
      </trkpt>
      <trkpt lat="46.02523" lon="7.12719">
        <ele>1304</ele>
        <time>2022-07-16T08:33:50.505Z</time>
      </trkpt>
      <trkpt lat="46.02557" lon="7.1275">
        <ele>1304</ele>
        <time>2022-07-16T08:33:55.856Z</time>
      </trkpt>
      <trkpt lat="46.0257" lon="7.12766">
        <ele>1302</ele>
        <time>2022-07-16T08:33:57.147Z</time>
      </trkpt>
      <trkpt lat="46.02598" lon="7.12812">
        <ele>1293</ele>
        <time>2022-07-16T08:34:00.353Z</time>
      </trkpt>
      <trkpt lat="46.0263" lon="7.12841">
        <ele>1292</ele>
        <time>2022-07-16T08:34:04.113Z</time>
      </trkpt>
      <trkpt lat="46.02695" lon="7.12968">
        <ele>1276</ele>
        <time>2022-07-16T08:34:12.381Z</time>
      </trkpt>
      <trkpt lat="46.02713" lon="7.13007">
        <ele>1272</ele>
        <time>2022-07-16T08:34:14.836Z</time>
      </trkpt>
      <trkpt lat="46.02727" lon="7.13045">
        <ele>1267</ele>
        <time>2022-07-16T08:34:17.090Z</time>
      </trkpt>
      <trkpt lat="46.0278" lon="7.13119">
        <ele>1263</ele>
        <time>2022-07-16T08:34:22.727Z</time>
      </trkpt>
      <trkpt lat="46.02791" lon="7.13141">
        <ele>1259</ele>
        <time>2022-07-16T08:34:24.148Z</time>
      </trkpt>
      <trkpt lat="46.02813" lon="7.13175">
        <ele>1255</ele>
        <time>2022-07-16T08:34:26.583Z</time>
      </trkpt>
      <trkpt lat="46.0283" lon="7.13213">
        <ele>1249</ele>
        <time>2022-07-16T08:34:28.952Z</time>
      </trkpt>
      <trkpt lat="46.02884" lon="7.1328">
        <ele>1243</ele>
        <time>2022-07-16T08:34:34.331Z</time>
      </trkpt>
      <trkpt lat="46.02901" lon="7.13287">
        <ele>1244</ele>
        <time>2022-07-16T08:34:38.627Z</time>
      </trkpt>
      <trkpt lat="46.02927" lon="7.13288">
        <ele>1247</ele>
        <time>2022-07-16T08:34:49.204Z</time>
      </trkpt>
      <trkpt lat="46.02972" lon="7.13305">
        <ele>1240</ele>
        <time>2022-07-16T08:34:52.715Z</time>
      </trkpt>
      <trkpt lat="46.02987" lon="7.13307">
        <ele>1239</ele>
        <time>2022-07-16T08:34:53.759Z</time>
      </trkpt>
      <trkpt lat="46.03001" lon="7.13304">
        <ele>1240</ele>
        <time>2022-07-16T08:34:57.565Z</time>
      </trkpt>
      <trkpt lat="46.03021" lon="7.13292">
        <ele>1242</ele>
        <time>2022-07-16T08:35:04.536Z</time>
      </trkpt>
      <trkpt lat="46.03048" lon="7.13267">
        <ele>1249</ele>
        <time>2022-07-16T08:35:21.000Z</time>
      </trkpt>
      <trkpt lat="46.03058" lon="7.13261">
        <ele>1250</ele>
        <time>2022-07-16T08:35:24.485Z</time>
      </trkpt>
      <trkpt lat="46.03072" lon="7.1326">
        <ele>1249</ele>
        <time>2022-07-16T08:35:25.543Z</time>
      </trkpt>
      <trkpt lat="46.03081" lon="7.13266">
        <ele>1246</ele>
        <time>2022-07-16T08:35:26.292Z</time>
      </trkpt>
      <trkpt lat="46.0309" lon="7.13279">
        <ele>1241</ele>
        <time>2022-07-16T08:35:27.254Z</time>
      </trkpt>
      <trkpt lat="46.03141" lon="7.13366">
        <ele>1224</ele>
        <time>2022-07-16T08:35:33.220Z</time>
      </trkpt>
      <trkpt lat="46.03147" lon="7.13371">
        <ele>1224</ele>
        <time>2022-07-16T08:35:34.142Z</time>
      </trkpt>
      <trkpt lat="46.03156" lon="7.13374">
        <ele>1225</ele>
        <time>2022-07-16T08:35:37.616Z</time>
      </trkpt>
      <trkpt lat="46.03173" lon="7.13372">
        <ele>1229</ele>
        <time>2022-07-16T08:35:46.365Z</time>
      </trkpt>
      <trkpt lat="46.03199" lon="7.13358">
        <ele>1235</ele>
        <time>2022-07-16T08:36:00.603Z</time>
      </trkpt>
      <trkpt lat="46.03212" lon="7.13355">
        <ele>1236</ele>
        <time>2022-07-16T08:36:04.292Z</time>
      </trkpt>
      <trkpt lat="46.03222" lon="7.13363">
        <ele>1234</ele>
        <time>2022-07-16T08:36:05.156Z</time>
      </trkpt>
      <trkpt lat="46.03234" lon="7.13394">
        <ele>1222</ele>
        <time>2022-07-16T08:36:07.015Z</time>
      </trkpt>
      <trkpt lat="46.03245" lon="7.13407">
        <ele>1217</ele>
        <time>2022-07-16T08:36:08.089Z</time>
      </trkpt>
      <trkpt lat="46.03288" lon="7.1342">
        <ele>1210</ele>
        <time>2022-07-16T08:36:11.405Z</time>
      </trkpt>
      <trkpt lat="46.03318" lon="7.13419">
        <ele>1208</ele>
        <time>2022-07-16T08:36:13.481Z</time>
      </trkpt>
      <trkpt lat="46.03333" lon="7.13415">
        <ele>1209</ele>
        <time>2022-07-16T08:36:17.430Z</time>
      </trkpt>
      <trkpt lat="46.03356" lon="7.13396">
        <ele>1216</ele>
        <time>2022-07-16T08:36:31.031Z</time>
      </trkpt>
      <trkpt lat="46.0337" lon="7.1339">
        <ele>1218</ele>
        <time>2022-07-16T08:36:38.523Z</time>
      </trkpt>
      <trkpt lat="46.0338" lon="7.13391">
        <ele>1217</ele>
        <time>2022-07-16T08:36:39.280Z</time>
      </trkpt>
      <trkpt lat="46.03416" lon="7.13404">
        <ele>1209</ele>
        <time>2022-07-16T08:36:42.081Z</time>
      </trkpt>
      <trkpt lat="46.03421" lon="7.13414">
        <ele>1204</ele>
        <time>2022-07-16T08:36:42.727Z</time>
      </trkpt>
      <trkpt lat="46.03418" lon="7.13422">
        <ele>1201</ele>
        <time>2022-07-16T08:36:43.203Z</time>
      </trkpt>
      <trkpt lat="46.03409" lon="7.13423">
        <ele>1202</ele>
        <time>2022-07-16T08:36:46.691Z</time>
      </trkpt>
      <trkpt lat="46.03381" lon="7.13416">
        <ele>1205</ele>
        <time>2022-07-16T08:36:57.083Z</time>
      </trkpt>
      <trkpt lat="46.03368" lon="7.13418">
        <ele>1206</ele>
        <time>2022-07-16T08:37:00.761Z</time>
      </trkpt>
      <trkpt lat="46.03351" lon="7.13435">
        <ele>1202</ele>
        <time>2022-07-16T08:37:02.323Z</time>
      </trkpt>
      <trkpt lat="46.03342" lon="7.13453">
        <ele>1199</ele>
        <time>2022-07-16T08:37:03.486Z</time>
      </trkpt>
      <trkpt lat="46.03323" lon="7.1348">
        <ele>1193</ele>
        <time>2022-07-16T08:37:05.500Z</time>
      </trkpt>
      <trkpt lat="46.03307" lon="7.13488">
        <ele>1189</ele>
        <time>2022-07-16T08:37:06.778Z</time>
      </trkpt>
      <trkpt lat="46.03292" lon="7.13491">
        <ele>1186</ele>
        <time>2022-07-16T08:37:07.921Z</time>
      </trkpt>
      <trkpt lat="46.0328" lon="7.13489">
        <ele>1186</ele>
        <time>2022-07-16T08:37:09.528Z</time>
      </trkpt>
      <trkpt lat="46.03261" lon="7.13473">
        <ele>1190</ele>
        <time>2022-07-16T08:37:20.817Z</time>
      </trkpt>
      <trkpt lat="46.03214" lon="7.13441">
        <ele>1203</ele>
        <time>2022-07-16T08:37:47.484Z</time>
      </trkpt>
      <trkpt lat="46.03208" lon="7.13438">
        <ele>1204</ele>
        <time>2022-07-16T08:37:50.741Z</time>
      </trkpt>
      <trkpt lat="46.03196" lon="7.13437">
        <ele>1204</ele>
        <time>2022-07-16T08:37:52.340Z</time>
      </trkpt>
      <trkpt lat="46.03185" lon="7.13451">
        <ele>1199</ele>
        <time>2022-07-16T08:37:53.448Z</time>
      </trkpt>
      <trkpt lat="46.03167" lon="7.1349">
        <ele>1182</ele>
        <time>2022-07-16T08:37:55.902Z</time>
      </trkpt>
      <trkpt lat="46.03139" lon="7.13524">
        <ele>1171</ele>
        <time>2022-07-16T08:37:58.666Z</time>
      </trkpt>
      <trkpt lat="46.03131" lon="7.13548">
        <ele>1164</ele>
        <time>2022-07-16T08:38:00.061Z</time>
      </trkpt>
      <trkpt lat="46.03127" lon="7.1357">
        <ele>1159</ele>
        <time>2022-07-16T08:38:01.253Z</time>
      </trkpt>
      <trkpt lat="46.03118" lon="7.13577">
        <ele>1157</ele>
        <time>2022-07-16T08:38:02.025Z</time>
      </trkpt>
      <trkpt lat="46.03109" lon="7.13574">
        <ele>1159</ele>
        <time>2022-07-16T08:38:06.763Z</time>
      </trkpt>
      <trkpt lat="46.03062" lon="7.13484">
        <ele>1178</ele>
        <time>2022-07-16T08:38:46.869Z</time>
      </trkpt>
      <trkpt lat="46.03051" lon="7.13473">
        <ele>1180</ele>
        <time>2022-07-16T08:38:53.738Z</time>
      </trkpt>
      <trkpt lat="46.03045" lon="7.13471">
        <ele>1180</ele>
        <time>2022-07-16T08:38:54.557Z</time>
      </trkpt>
      <trkpt lat="46.03036" lon="7.13473">
        <ele>1179</ele>
        <time>2022-07-16T08:38:55.245Z</time>
      </trkpt>
      <trkpt lat="46.03025" lon="7.13483">
        <ele>1176</ele>
        <time>2022-07-16T08:38:56.226Z</time>
      </trkpt>
      <trkpt lat="46.03011" lon="7.13505">
        <ele>1169</ele>
        <time>2022-07-16T08:38:57.790Z</time>
      </trkpt>
      <trkpt lat="46.02983" lon="7.13541">
        <ele>1156</ele>
        <time>2022-07-16T08:39:00.623Z</time>
      </trkpt>
      <trkpt lat="46.02975" lon="7.13547">
        <ele>1154</ele>
        <time>2022-07-16T08:39:01.304Z</time>
      </trkpt>
      <trkpt lat="46.02963" lon="7.1355">
        <ele>1152</ele>
        <time>2022-07-16T08:39:02.223Z</time>
      </trkpt>
      <trkpt lat="46.02959" lon="7.13548">
        <ele>1153</ele>
        <time>2022-07-16T08:39:04.395Z</time>
      </trkpt>
      <trkpt lat="46.02946" lon="7.13534">
        <ele>1156</ele>
        <time>2022-07-16T08:39:12.721Z</time>
      </trkpt>
      <trkpt lat="46.02936" lon="7.13527">
        <ele>1157</ele>
        <time>2022-07-16T08:39:16.223Z</time>
      </trkpt>
      <trkpt lat="46.02912" lon="7.13528">
        <ele>1156</ele>
        <time>2022-07-16T08:39:18.272Z</time>
      </trkpt>
      <trkpt lat="46.0289" lon="7.13535">
        <ele>1154</ele>
        <time>2022-07-16T08:39:19.972Z</time>
      </trkpt>
      <trkpt lat="46.02848" lon="7.13574">
        <ele>1142</ele>
        <time>2022-07-16T08:39:23.744Z</time>
      </trkpt>
      <trkpt lat="46.02838" lon="7.13574">
        <ele>1141</ele>
        <time>2022-07-16T08:39:24.498Z</time>
      </trkpt>
      <trkpt lat="46.02805" lon="7.1355">
        <ele>1140</ele>
        <time>2022-07-16T08:39:28.152Z</time>
      </trkpt>
      <trkpt lat="46.02788" lon="7.13526">
        <ele>1143</ele>
        <time>2022-07-16T08:39:39.181Z</time>
      </trkpt>
      <trkpt lat="46.02721" lon="7.13473">
        <ele>1140</ele>
        <time>2022-07-16T08:39:45.853Z</time>
      </trkpt>
      <trkpt lat="46.0267" lon="7.13422">
        <ele>1136</ele>
        <time>2022-07-16T08:39:50.220Z</time>
      </trkpt>
      <trkpt lat="46.02613" lon="7.13359">
        <ele>1130</ele>
        <time>2022-07-16T08:39:55.643Z</time>
      </trkpt>
      <trkpt lat="46.02573" lon="7.13305">
        <ele>1127</ele>
        <time>2022-07-16T08:39:59.811Z</time>
      </trkpt>
      <trkpt lat="46.02554" lon="7.13289">
        <ele>1124</ele>
        <time>2022-07-16T08:40:01.473Z</time>
      </trkpt>
      <trkpt lat="46.02542" lon="7.13275">
        <ele>1122</ele>
        <time>2022-07-16T08:40:02.638Z</time>
      </trkpt>
      <trkpt lat="46.02527" lon="7.13255">
        <ele>1120</ele>
        <time>2022-07-16T08:40:04.181Z</time>
      </trkpt>
      <trkpt lat="46.02518" lon="7.13226">
        <ele>1124</ele>
        <time>2022-07-16T08:40:15.494Z</time>
      </trkpt>
      <trkpt lat="46.02512" lon="7.13216">
        <ele>1125</ele>
        <time>2022-07-16T08:40:18.972Z</time>
      </trkpt>
      <trkpt lat="46.02506" lon="7.13211">
        <ele>1124</ele>
        <time>2022-07-16T08:40:19.495Z</time>
      </trkpt>
      <trkpt lat="46.02497" lon="7.13208">
        <ele>1122</ele>
        <time>2022-07-16T08:40:20.192Z</time>
      </trkpt>
      <trkpt lat="46.02472" lon="7.13203">
        <ele>1115</ele>
        <time>2022-07-16T08:40:22.097Z</time>
      </trkpt>
      <trkpt lat="46.02459" lon="7.13191">
        <ele>1113</ele>
        <time>2022-07-16T08:40:23.263Z</time>
      </trkpt>
      <trkpt lat="46.02446" lon="7.13166">
        <ele>1114</ele>
        <time>2022-07-16T08:40:28.181Z</time>
      </trkpt>
      <trkpt lat="46.02437" lon="7.13138">
        <ele>1119</ele>
        <time>2022-07-16T08:40:39.170Z</time>
      </trkpt>
      <trkpt lat="46.024" lon="7.13083">
        <ele>1118</ele>
        <time>2022-07-16T08:40:44.940Z</time>
      </trkpt>
      <trkpt lat="46.02383" lon="7.13048">
        <ele>1120</ele>
        <time>2022-07-16T08:40:52.726Z</time>
      </trkpt>
      <trkpt lat="46.0238" lon="7.13046">
        <ele>1119</ele>
        <time>2022-07-16T08:40:52.975Z</time>
      </trkpt>
      <trkpt lat="46.02374" lon="7.13048">
        <ele>1116</ele>
        <time>2022-07-16T08:40:53.440Z</time>
      </trkpt>
      <trkpt lat="46.02371" lon="7.13054">
        <ele>1114</ele>
        <time>2022-07-16T08:40:53.827Z</time>
      </trkpt>
      <trkpt lat="46.02371" lon="7.13064">
        <ele>1111</ele>
        <time>2022-07-16T08:40:54.351Z</time>
      </trkpt>
      <trkpt lat="46.02376" lon="7.13075">
        <ele>1111</ele>
        <time>2022-07-16T08:40:55.565Z</time>
      </trkpt>
      <trkpt lat="46.02392" lon="7.13097">
        <ele>1112</ele>
        <time>2022-07-16T08:41:00.553Z</time>
      </trkpt>
      <trkpt lat="46.02405" lon="7.13126">
        <ele>1110</ele>
        <time>2022-07-16T08:41:02.362Z</time>
      </trkpt>
      <trkpt lat="46.02415" lon="7.13154">
        <ele>1106</ele>
        <time>2022-07-16T08:41:04.012Z</time>
      </trkpt>
      <trkpt lat="46.02432" lon="7.13217">
        <ele>1098</ele>
        <time>2022-07-16T08:41:07.554Z</time>
      </trkpt>
      <trkpt lat="46.02442" lon="7.13239">
        <ele>1096</ele>
        <time>2022-07-16T08:41:08.932Z</time>
      </trkpt>
      <trkpt lat="46.02468" lon="7.13278">
        <ele>1095</ele>
        <time>2022-07-16T08:41:12.658Z</time>
      </trkpt>
      <trkpt lat="46.02479" lon="7.13306">
        <ele>1093</ele>
        <time>2022-07-16T08:41:14.344Z</time>
      </trkpt>
      <trkpt lat="46.02491" lon="7.13351">
        <ele>1088</ele>
        <time>2022-07-16T08:41:16.871Z</time>
      </trkpt>
      <trkpt lat="46.02512" lon="7.13396">
        <ele>1088</ele>
        <time>2022-07-16T08:41:21.877Z</time>
      </trkpt>
      <trkpt lat="46.02555" lon="7.13469">
        <ele>1084</ele>
        <time>2022-07-16T08:41:26.711Z</time>
      </trkpt>
      <trkpt lat="46.02649" lon="7.13607">
        <ele>1078</ele>
        <time>2022-07-16T08:41:37.845Z</time>
      </trkpt>
      <trkpt lat="46.02685" lon="7.13654">
        <ele>1073</ele>
        <time>2022-07-16T08:41:41.513Z</time>
      </trkpt>
      <trkpt lat="46.0272" lon="7.13689">
        <ele>1067</ele>
        <time>2022-07-16T08:41:44.729Z</time>
      </trkpt>
      <trkpt lat="46.02786" lon="7.13744">
        <ele>1060</ele>
        <time>2022-07-16T08:41:50.484Z</time>
      </trkpt>
      <trkpt lat="46.02859" lon="7.13799">
        <ele>1058</ele>
        <time>2022-07-16T08:41:58.877Z</time>
      </trkpt>
      <trkpt lat="46.02863" lon="7.13807">
        <ele>1057</ele>
        <time>2022-07-16T08:41:59.393Z</time>
      </trkpt>
      <trkpt lat="46.02864" lon="7.13816">
        <ele>1054</ele>
        <time>2022-07-16T08:41:59.871Z</time>
      </trkpt>
      <trkpt lat="46.02861" lon="7.13823">
        <ele>1051</ele>
        <time>2022-07-16T08:42:00.302Z</time>
      </trkpt>
      <trkpt lat="46.02857" lon="7.13826">
        <ele>1050</ele>
        <time>2022-07-16T08:42:00.643Z</time>
      </trkpt>
      <trkpt lat="46.02852" lon="7.13826">
        <ele>1049</ele>
        <time>2022-07-16T08:42:01.020Z</time>
      </trkpt>
      <trkpt lat="46.02842" lon="7.13819">
        <ele>1049</ele>
        <time>2022-07-16T08:42:02.498Z</time>
      </trkpt>
      <trkpt lat="46.02831" lon="7.13805">
        <ele>1050</ele>
        <time>2022-07-16T08:42:06.372Z</time>
      </trkpt>
      <trkpt lat="46.02806" lon="7.13782">
        <ele>1051</ele>
        <time>2022-07-16T08:42:12.079Z</time>
      </trkpt>
      <trkpt lat="46.02791" lon="7.13773">
        <ele>1051</ele>
        <time>2022-07-16T08:42:14.240Z</time>
      </trkpt>
      <trkpt lat="46.02763" lon="7.13761">
        <ele>1049</ele>
        <time>2022-07-16T08:42:16.445Z</time>
      </trkpt>
      <trkpt lat="46.02711" lon="7.13744">
        <ele>1043</ele>
        <time>2022-07-16T08:42:20.470Z</time>
      </trkpt>
      <trkpt lat="46.02677" lon="7.13739">
        <ele>1037</ele>
        <time>2022-07-16T08:42:23.049Z</time>
      </trkpt>
      <trkpt lat="46.02641" lon="7.13724">
        <ele>1036</ele>
        <time>2022-07-16T08:42:26.767Z</time>
      </trkpt>
      <trkpt lat="46.02624" lon="7.13714">
        <ele>1037</ele>
        <time>2022-07-16T08:42:31.166Z</time>
      </trkpt>
      <trkpt lat="46.02607" lon="7.13709">
        <ele>1035</ele>
        <time>2022-07-16T08:42:32.475Z</time>
      </trkpt>
      <trkpt lat="46.02606" lon="7.13714">
        <ele>1033</ele>
        <time>2022-07-16T08:42:32.748Z</time>
      </trkpt>
      <trkpt lat="46.02596" lon="7.13715">
        <ele>1031</ele>
        <time>2022-07-16T08:42:33.504Z</time>
      </trkpt>
      <trkpt lat="46.02571" lon="7.13697">
        <ele>1030</ele>
        <time>2022-07-16T08:42:36.028Z</time>
      </trkpt>
      <trkpt lat="46.02508" lon="7.13695">
        <ele>1016</ele>
        <time>2022-07-16T08:42:40.784Z</time>
      </trkpt>
      <trkpt lat="46.02496" lon="7.1369">
        <ele>1015</ele>
        <time>2022-07-16T08:42:41.727Z</time>
      </trkpt>
      <trkpt lat="46.02483" lon="7.13679">
        <ele>1014</ele>
        <time>2022-07-16T08:42:42.772Z</time>
      </trkpt>
      <trkpt lat="46.02454" lon="7.13641">
        <ele>1016</ele>
        <time>2022-07-16T08:42:51.950Z</time>
      </trkpt>
      <trkpt lat="46.02446" lon="7.13626">
        <ele>1018</ele>
        <time>2022-07-16T08:42:58.686Z</time>
      </trkpt>
      <trkpt lat="46.02427" lon="7.13604">
        <ele>1019</ele>
        <time>2022-07-16T08:43:03.880Z</time>
      </trkpt>
      <trkpt lat="46.02378" lon="7.13581">
        <ele>1011</ele>
        <time>2022-07-16T08:43:07.769Z</time>
      </trkpt>
      <trkpt lat="46.02363" lon="7.13565">
        <ele>1011</ele>
        <time>2022-07-16T08:43:10.252Z</time>
      </trkpt>
      <trkpt lat="46.02344" lon="7.13532">
        <ele>1014</ele>
        <time>2022-07-16T08:43:20.625Z</time>
      </trkpt>
      <trkpt lat="46.02332" lon="7.13519">
        <ele>1014</ele>
        <time>2022-07-16T08:43:22.622Z</time>
      </trkpt>
      <trkpt lat="46.02282" lon="7.13488">
        <ele>1007</ele>
        <time>2022-07-16T08:43:26.731Z</time>
      </trkpt>
      <trkpt lat="46.02252" lon="7.13451">
        <ele>1005</ele>
        <time>2022-07-16T08:43:29.840Z</time>
      </trkpt>
      <trkpt lat="46.0222" lon="7.13417">
        <ele>1001</ele>
        <time>2022-07-16T08:43:32.841Z</time>
      </trkpt>
      <trkpt lat="46.02173" lon="7.1333">
        <ele>1000</ele>
        <time>2022-07-16T08:43:41.755Z</time>
      </trkpt>
      <trkpt lat="46.02163" lon="7.13318">
        <ele>1002</ele>
        <time>2022-07-16T08:43:48.432Z</time>
      </trkpt>
      <trkpt lat="46.02145" lon="7.13307">
        <ele>1002</ele>
        <time>2022-07-16T08:43:51.032Z</time>
      </trkpt>
      <trkpt lat="46.02089" lon="7.1329">
        <ele>988</ele>
        <time>2022-07-16T08:43:55.352Z</time>
      </trkpt>
      <trkpt lat="46.0207" lon="7.13276">
        <ele>986</ele>
        <time>2022-07-16T08:43:56.962Z</time>
      </trkpt>
      <trkpt lat="46.02056" lon="7.13199">
        <ele>997</ele>
        <time>2022-07-16T08:44:25.314Z</time>
      </trkpt>
      <trkpt lat="46.02049" lon="7.13181">
        <ele>999</ele>
        <time>2022-07-16T08:44:32.662Z</time>
      </trkpt>
      <trkpt lat="46.0203" lon="7.13158">
        <ele>995</ele>
        <time>2022-07-16T08:44:34.536Z</time>
      </trkpt>
      <trkpt lat="46.01969" lon="7.13124">
        <ele>983</ele>
        <time>2022-07-16T08:44:39.472Z</time>
      </trkpt>
      <trkpt lat="46.01952" lon="7.13105">
        <ele>982</ele>
        <time>2022-07-16T08:44:41.229Z</time>
      </trkpt>
      <trkpt lat="46.01933" lon="7.13074">
        <ele>982</ele>
        <time>2022-07-16T08:44:45.048Z</time>
      </trkpt>
      <trkpt lat="46.01926" lon="7.13067">
        <ele>981</ele>
        <time>2022-07-16T08:44:45.691Z</time>
      </trkpt>
      <trkpt lat="46.01918" lon="7.13064">
        <ele>980</ele>
        <time>2022-07-16T08:44:46.315Z</time>
      </trkpt>
      <trkpt lat="46.01902" lon="7.13068">
        <ele>979</ele>
        <time>2022-07-16T08:44:47.483Z</time>
      </trkpt>
      <trkpt lat="46.01893" lon="7.13078">
        <ele>978</ele>
        <time>2022-07-16T08:44:48.341Z</time>
      </trkpt>
      <trkpt lat="46.01888" lon="7.13089">
        <ele>977</ele>
        <time>2022-07-16T08:44:49.030Z</time>
      </trkpt>
      <trkpt lat="46.01874" lon="7.13106">
        <ele>975</ele>
        <time>2022-07-16T08:44:50.412Z</time>
      </trkpt>
      <trkpt lat="46.01863" lon="7.13129">
        <ele>972</ele>
        <time>2022-07-16T08:44:51.876Z</time>
      </trkpt>
      <trkpt lat="46.01856" lon="7.13156">
        <ele>968</ele>
        <time>2022-07-16T08:44:53.386Z</time>
      </trkpt>
      <trkpt lat="46.01862" lon="7.13174">
        <ele>967</ele>
        <time>2022-07-16T08:44:54.433Z</time>
      </trkpt>
      <trkpt lat="46.01872" lon="7.13242">
        <ele>968</ele>
        <time>2022-07-16T08:45:02.355Z</time>
      </trkpt>
      <trkpt lat="46.01876" lon="7.13253">
        <ele>968</ele>
        <time>2022-07-16T08:45:03.502Z</time>
      </trkpt>
      <trkpt lat="46.01884" lon="7.13264">
        <ele>967</ele>
        <time>2022-07-16T08:45:04.337Z</time>
      </trkpt>
      <trkpt lat="46.0201" lon="7.13393">
        <ele>961</ele>
        <time>2022-07-16T08:45:17.887Z</time>
      </trkpt>
      <trkpt lat="46.02083" lon="7.13474">
        <ele>957</ele>
        <time>2022-07-16T08:45:25.623Z</time>
      </trkpt>
      <trkpt lat="46.02238" lon="7.1369">
        <ele>955</ele>
        <time>2022-07-16T08:45:52.019Z</time>
      </trkpt>
      <trkpt lat="46.02277" lon="7.13757">
        <ele>950</ele>
        <time>2022-07-16T08:45:56.601Z</time>
      </trkpt>
      <trkpt lat="46.02329" lon="7.13828">
        <ele>945</ele>
        <time>2022-07-16T08:46:02.009Z</time>
      </trkpt>
      <trkpt lat="46.0238" lon="7.13886">
        <ele>942</ele>
        <time>2022-07-16T08:46:07.329Z</time>
      </trkpt>
      <trkpt lat="46.02495" lon="7.14003">
        <ele>936</ele>
        <time>2022-07-16T08:46:19.235Z</time>
      </trkpt>
      <trkpt lat="46.02575" lon="7.141">
        <ele>927</ele>
        <time>2022-07-16T08:46:27.128Z</time>
      </trkpt>
      <trkpt lat="46.02594" lon="7.14112">
        <ele>926</ele>
        <time>2022-07-16T08:46:28.796Z</time>
      </trkpt>
      <trkpt lat="46.02693" lon="7.1415">
        <ele>922</ele>
        <time>2022-07-16T08:46:37.756Z</time>
      </trkpt>
      <trkpt lat="46.02723" lon="7.14167">
        <ele>920</ele>
        <time>2022-07-16T08:46:40.066Z</time>
      </trkpt>
      <trkpt lat="46.02767" lon="7.14201">
        <ele>919</ele>
        <time>2022-07-16T08:46:45.407Z</time>
      </trkpt>
      <trkpt lat="46.02858" lon="7.14295">
        <ele>910</ele>
        <time>2022-07-16T08:46:53.859Z</time>
      </trkpt>
      <trkpt lat="46.0289" lon="7.14324">
        <ele>907</ele>
        <time>2022-07-16T08:46:56.712Z</time>
      </trkpt>
      <trkpt lat="46.02902" lon="7.14328">
        <ele>906</ele>
        <time>2022-07-16T08:46:57.642Z</time>
      </trkpt>
      <trkpt lat="46.02958" lon="7.1433">
        <ele>907</ele>
        <time>2022-07-16T08:47:06.548Z</time>
      </trkpt>
      <trkpt lat="46.02993" lon="7.1434">
        <ele>906</ele>
        <time>2022-07-16T08:47:10.037Z</time>
      </trkpt>
      <trkpt lat="46.03013" lon="7.14352">
        <ele>906</ele>
        <time>2022-07-16T08:47:12.918Z</time>
      </trkpt>
      <trkpt lat="46.03089" lon="7.14418">
        <ele>898</ele>
        <time>2022-07-16T08:47:19.616Z</time>
      </trkpt>
      <trkpt lat="46.03164" lon="7.14472">
        <ele>889</ele>
        <time>2022-07-16T08:47:25.945Z</time>
      </trkpt>
      <trkpt lat="46.03184" lon="7.1449">
        <ele>886</ele>
        <time>2022-07-16T08:47:27.725Z</time>
      </trkpt>
      <trkpt lat="46.03215" lon="7.14529">
        <ele>883</ele>
        <time>2022-07-16T08:47:30.831Z</time>
      </trkpt>
      <trkpt lat="46.03223" lon="7.14547">
        <ele>882</ele>
        <time>2022-07-16T08:47:31.951Z</time>
      </trkpt>
      <trkpt lat="46.03207" lon="7.14568">
        <ele>882</ele>
        <time>2022-07-16T08:47:34.830Z</time>
      </trkpt>
      <trkpt lat="46.03183" lon="7.14618">
        <ele>885</ele>
        <time>2022-07-16T08:47:46.216Z</time>
      </trkpt>
      <trkpt lat="46.03173" lon="7.14628">
        <ele>887</ele>
        <time>2022-07-16T08:47:52.461Z</time>
      </trkpt>
      <trkpt lat="46.03125" lon="7.14637">
        <ele>890</ele>
        <time>2022-07-16T08:48:04.675Z</time>
      </trkpt>
      <trkpt lat="46.03101" lon="7.14638">
        <ele>891</ele>
        <time>2022-07-16T08:48:09.838Z</time>
      </trkpt>
      <trkpt lat="46.03079" lon="7.1463">
        <ele>892</ele>
        <time>2022-07-16T08:48:14.898Z</time>
      </trkpt>
      <trkpt lat="46.03063" lon="7.14629">
        <ele>892</ele>
        <time>2022-07-16T08:48:17.028Z</time>
      </trkpt>
      <trkpt lat="46.03051" lon="7.1465">
        <ele>894</ele>
        <time>2022-07-16T08:48:23.958Z</time>
      </trkpt>
      <trkpt lat="46.03042" lon="7.14689">
        <ele>900</ele>
        <time>2022-07-16T08:48:38.594Z</time>
      </trkpt>
      <trkpt lat="46.03033" lon="7.14701">
        <ele>903</ele>
        <time>2022-07-16T08:48:44.885Z</time>
      </trkpt>
      <trkpt lat="46.03026" lon="7.14704">
        <ele>904</ele>
        <time>2022-07-16T08:48:48.631Z</time>
      </trkpt>
      <trkpt lat="46.03014" lon="7.14705">
        <ele>905</ele>
        <time>2022-07-16T08:48:52.203Z</time>
      </trkpt>
      <trkpt lat="46.02985" lon="7.14699">
        <ele>905</ele>
        <time>2022-07-16T08:48:56.099Z</time>
      </trkpt>
      <trkpt lat="46.02971" lon="7.14692">
        <ele>904</ele>
        <time>2022-07-16T08:48:57.218Z</time>
      </trkpt>
      <trkpt lat="46.0293" lon="7.14659">
        <ele>900</ele>
        <time>2022-07-16T08:49:00.762Z</time>
      </trkpt>
      <trkpt lat="46.0292" lon="7.14658">
        <ele>900</ele>
        <time>2022-07-16T08:49:02.096Z</time>
      </trkpt>
      <trkpt lat="46.02909" lon="7.14663">
        <ele>900</ele>
        <time>2022-07-16T08:49:03.630Z</time>
      </trkpt>
      <trkpt lat="46.02869" lon="7.14706">
        <ele>911</ele>
        <time>2022-07-16T08:49:29.232Z</time>
      </trkpt>
      <trkpt lat="46.02855" lon="7.14712">
        <ele>913</ele>
        <time>2022-07-16T08:49:36.725Z</time>
      </trkpt>
      <trkpt lat="46.02661" lon="7.14703">
        <ele>920</ele>
        <time>2022-07-16T08:50:15.271Z</time>
      </trkpt>
      <trkpt lat="46.02579" lon="7.14711">
        <ele>928</ele>
        <time>2022-07-16T08:50:42.975Z</time>
      </trkpt>
      <trkpt lat="46.02537" lon="7.14718">
        <ele>932</ele>
        <time>2022-07-16T08:50:56.867Z</time>
      </trkpt>
      <trkpt lat="46.02507" lon="7.14733">
        <ele>936</ele>
        <time>2022-07-16T08:51:11.568Z</time>
      </trkpt>
      <trkpt lat="46.02333" lon="7.14849">
        <ele>953</ele>
        <time>2022-07-16T08:52:11.280Z</time>
      </trkpt>
      <trkpt lat="46.02285" lon="7.14885">
        <ele>959</ele>
        <time>2022-07-16T08:52:32.213Z</time>
      </trkpt>
      <trkpt lat="46.02269" lon="7.14881">
        <ele>958</ele>
        <time>2022-07-16T08:52:33.381Z</time>
      </trkpt>
      <trkpt lat="46.02265" lon="7.14878">
        <ele>958</ele>
        <time>2022-07-16T08:52:33.981Z</time>
      </trkpt>
      <trkpt lat="46.02259" lon="7.1487">
        <ele>957</ele>
        <time>2022-07-16T08:52:34.598Z</time>
      </trkpt>
      <trkpt lat="46.02255" lon="7.14858">
        <ele>957</ele>
        <time>2022-07-16T08:52:35.827Z</time>
      </trkpt>
      <trkpt lat="46.02254" lon="7.14844">
        <ele>956</ele>
        <time>2022-07-16T08:52:36.565Z</time>
      </trkpt>
      <trkpt lat="46.02259" lon="7.14829">
        <ele>954</ele>
        <time>2022-07-16T08:52:37.437Z</time>
      </trkpt>
      <trkpt lat="46.02265" lon="7.14821">
        <ele>953</ele>
        <time>2022-07-16T08:52:38.054Z</time>
      </trkpt>
      <trkpt lat="46.02271" lon="7.14818">
        <ele>953</ele>
        <time>2022-07-16T08:52:38.898Z</time>
      </trkpt>
      <trkpt lat="46.02284" lon="7.14819">
        <ele>952</ele>
        <time>2022-07-16T08:52:39.881Z</time>
      </trkpt>
      <trkpt lat="46.02312" lon="7.14832">
        <ele>952</ele>
        <time>2022-07-16T08:52:43.793Z</time>
      </trkpt>
      <trkpt lat="46.02325" lon="7.14851">
        <ele>954</ele>
        <time>2022-07-16T08:52:50.739Z</time>
      </trkpt>
      <trkpt lat="46.02338" lon="7.14864">
        <ele>955</ele>
        <time>2022-07-16T08:52:54.767Z</time>
      </trkpt>
      <trkpt lat="46.02362" lon="7.14879">
        <ele>958</ele>
        <time>2022-07-16T08:53:05.324Z</time>
      </trkpt>
      <trkpt lat="46.02406" lon="7.14891">
        <ele>962</ele>
        <time>2022-07-16T08:53:19.351Z</time>
      </trkpt>
      <trkpt lat="46.0244" lon="7.14894">
        <ele>966</ele>
        <time>2022-07-16T08:53:33.541Z</time>
      </trkpt>
      <trkpt lat="46.02513" lon="7.14889">
        <ele>974</ele>
        <time>2022-07-16T08:54:01.384Z</time>
      </trkpt>
      <trkpt lat="46.02608" lon="7.14865">
        <ele>969</ele>
        <time>2022-07-16T08:54:08.897Z</time>
      </trkpt>
      <trkpt lat="46.02647" lon="7.14858">
        <ele>968</ele>
        <time>2022-07-16T08:54:12.849Z</time>
      </trkpt>
      <trkpt lat="46.02689" lon="7.14854">
        <ele>970</ele>
        <time>2022-07-16T08:54:22.480Z</time>
      </trkpt>
      <trkpt lat="46.02729" lon="7.14859">
        <ele>974</ele>
        <time>2022-07-16T08:54:36.315Z</time>
      </trkpt>
      <trkpt lat="46.02744" lon="7.14867">
        <ele>977</ele>
        <time>2022-07-16T08:54:44.520Z</time>
      </trkpt>
      <trkpt lat="46.0276" lon="7.14887">
        <ele>980</ele>
        <time>2022-07-16T08:54:55.387Z</time>
      </trkpt>
      <trkpt lat="46.02769" lon="7.14904">
        <ele>982</ele>
        <time>2022-07-16T08:55:03.001Z</time>
      </trkpt>
      <trkpt lat="46.02777" lon="7.14933">
        <ele>983</ele>
        <time>2022-07-16T08:55:07.915Z</time>
      </trkpt>
      <trkpt lat="46.02778" lon="7.14951">
        <ele>984</ele>
        <time>2022-07-16T08:55:11.537Z</time>
      </trkpt>
      <trkpt lat="46.02772" lon="7.14985">
        <ele>987</ele>
        <time>2022-07-16T08:55:22.416Z</time>
      </trkpt>
      <trkpt lat="46.02761" lon="7.15007">
        <ele>989</ele>
        <time>2022-07-16T08:55:29.348Z</time>
      </trkpt>
      <trkpt lat="46.02752" lon="7.15018">
        <ele>991</ele>
        <time>2022-07-16T08:55:35.403Z</time>
      </trkpt>
      <trkpt lat="46.02742" lon="7.15027">
        <ele>993</ele>
        <time>2022-07-16T08:55:41.451Z</time>
      </trkpt>
      <trkpt lat="46.02731" lon="7.15032">
        <ele>994</ele>
        <time>2022-07-16T08:55:44.983Z</time>
      </trkpt>
      <trkpt lat="46.02717" lon="7.15035">
        <ele>996</ele>
        <time>2022-07-16T08:55:52.243Z</time>
      </trkpt>
      <trkpt lat="46.02648" lon="7.15026">
        <ele>998</ele>
        <time>2022-07-16T08:56:04.769Z</time>
      </trkpt>
      <trkpt lat="46.02625" lon="7.15028">
        <ele>999</ele>
        <time>2022-07-16T08:56:09.855Z</time>
      </trkpt>
      <trkpt lat="46.02599" lon="7.15034">
        <ele>1002</ele>
        <time>2022-07-16T08:56:20.392Z</time>
      </trkpt>
      <trkpt lat="46.02543" lon="7.15054">
        <ele>1006</ele>
        <time>2022-07-16T08:56:35.753Z</time>
      </trkpt>
      <trkpt lat="46.02519" lon="7.1506">
        <ele>1007</ele>
        <time>2022-07-16T08:56:40.945Z</time>
      </trkpt>
      <trkpt lat="46.02485" lon="7.15066">
        <ele>1008</ele>
        <time>2022-07-16T08:56:47.163Z</time>
      </trkpt>
      <trkpt lat="46.02417" lon="7.15068">
        <ele>1011</ele>
        <time>2022-07-16T08:57:02.340Z</time>
      </trkpt>
      <trkpt lat="46.02386" lon="7.15072">
        <ele>1012</ele>
        <time>2022-07-16T08:57:08.205Z</time>
      </trkpt>
      <trkpt lat="46.0235" lon="7.15084">
        <ele>1016</ele>
        <time>2022-07-16T08:57:22.101Z</time>
      </trkpt>
      <trkpt lat="46.02301" lon="7.15116">
        <ele>1019</ele>
        <time>2022-07-16T08:57:35.103Z</time>
      </trkpt>
      <trkpt lat="46.0225" lon="7.15167">
        <ele>1031</ele>
        <time>2022-07-16T08:58:06.952Z</time>
      </trkpt>
      <trkpt lat="46.02218" lon="7.15192">
        <ele>1035</ele>
        <time>2022-07-16T08:58:20.882Z</time>
      </trkpt>
      <trkpt lat="46.02172" lon="7.15216">
        <ele>1038</ele>
        <time>2022-07-16T08:58:33.170Z</time>
      </trkpt>
      <trkpt lat="46.02146" lon="7.15233">
        <ele>1038</ele>
        <time>2022-07-16T08:58:36.968Z</time>
      </trkpt>
      <trkpt lat="46.02097" lon="7.15285">
        <ele>1043</ele>
        <time>2022-07-16T08:58:54.898Z</time>
      </trkpt>
      <trkpt lat="46.0208" lon="7.15306">
        <ele>1045</ele>
        <time>2022-07-16T08:59:01.912Z</time>
      </trkpt>
      <trkpt lat="46.02066" lon="7.15331">
        <ele>1045</ele>
        <time>2022-07-16T08:59:04.878Z</time>
      </trkpt>
      <trkpt lat="46.02043" lon="7.15384">
        <ele>1050</ele>
        <time>2022-07-16T08:59:22.498Z</time>
      </trkpt>
      <trkpt lat="46.02004" lon="7.15445">
        <ele>1053</ele>
        <time>2022-07-16T08:59:36.074Z</time>
      </trkpt>
      <trkpt lat="46.0197" lon="7.15536">
        <ele>1067</ele>
        <time>2022-07-16T09:00:12.882Z</time>
      </trkpt>
      <trkpt lat="46.01949" lon="7.15575">
        <ele>1072</ele>
        <time>2022-07-16T09:00:30.461Z</time>
      </trkpt>
      <trkpt lat="46.01898" lon="7.15639">
        <ele>1074</ele>
        <time>2022-07-16T09:00:42.798Z</time>
      </trkpt>
      <trkpt lat="46.0188" lon="7.15667">
        <ele>1076</ele>
        <time>2022-07-16T09:00:50.194Z</time>
      </trkpt>
      <trkpt lat="46.01853" lon="7.15747">
        <ele>1076</ele>
        <time>2022-07-16T09:00:58.409Z</time>
      </trkpt>
      <trkpt lat="46.0181" lon="7.15926">
        <ele>1103</ele>
        <time>2022-07-16T09:02:05.877Z</time>
      </trkpt>
      <trkpt lat="46.01776" lon="7.15973">
        <ele>1100</ele>
        <time>2022-07-16T09:02:09.212Z</time>
      </trkpt>
      <trkpt lat="46.01765" lon="7.16003">
        <ele>1102</ele>
        <time>2022-07-16T09:02:16.314Z</time>
      </trkpt>
      <trkpt lat="46.01754" lon="7.16047">
        <ele>1108</ele>
        <time>2022-07-16T09:02:32.972Z</time>
      </trkpt>
      <trkpt lat="46.01739" lon="7.16076">
        <ele>1113</ele>
        <time>2022-07-16T09:02:45.853Z</time>
      </trkpt>
      <trkpt lat="46.01731" lon="7.16098">
        <ele>1115</ele>
        <time>2022-07-16T09:02:52.916Z</time>
      </trkpt>
      <trkpt lat="46.01729" lon="7.16107">
        <ele>1116</ele>
        <time>2022-07-16T09:02:56.282Z</time>
      </trkpt>
      <trkpt lat="46.0173" lon="7.16156">
        <ele>1121</ele>
        <time>2022-07-16T09:03:13.744Z</time>
      </trkpt>
      <trkpt lat="46.01727" lon="7.16167">
        <ele>1122</ele>
        <time>2022-07-16T09:03:17.350Z</time>
      </trkpt>
      <trkpt lat="46.01717" lon="7.16175">
        <ele>1123</ele>
        <time>2022-07-16T09:03:20.874Z</time>
      </trkpt>
      <trkpt lat="46.01705" lon="7.16172">
        <ele>1122</ele>
        <time>2022-07-16T09:03:21.793Z</time>
      </trkpt>
      <trkpt lat="46.01694" lon="7.16159">
        <ele>1119</ele>
        <time>2022-07-16T09:03:22.867Z</time>
      </trkpt>
      <trkpt lat="46.01666" lon="7.16113">
        <ele>1112</ele>
        <time>2022-07-16T09:03:26.073Z</time>
      </trkpt>
      <trkpt lat="46.01657" lon="7.16104">
        <ele>1110</ele>
        <time>2022-07-16T09:03:26.900Z</time>
      </trkpt>
      <trkpt lat="46.01639" lon="7.16102">
        <ele>1108</ele>
        <time>2022-07-16T09:03:28.263Z</time>
      </trkpt>
      <trkpt lat="46.0163" lon="7.16108">
        <ele>1107</ele>
        <time>2022-07-16T09:03:29.011Z</time>
      </trkpt>
      <trkpt lat="46.01622" lon="7.16123">
        <ele>1108</ele>
        <time>2022-07-16T09:03:32.697Z</time>
      </trkpt>
      <trkpt lat="46.01619" lon="7.16137">
        <ele>1109</ele>
        <time>2022-07-16T09:03:36.158Z</time>
      </trkpt>
      <trkpt lat="46.01604" lon="7.16254">
        <ele>1120</ele>
        <time>2022-07-16T09:04:18.356Z</time>
      </trkpt>
      <trkpt lat="46.01579" lon="7.16318">
        <ele>1126</ele>
        <time>2022-07-16T09:04:39.657Z</time>
      </trkpt>
      <trkpt lat="46.01565" lon="7.16343">
        <ele>1126</ele>
        <time>2022-07-16T09:04:42.623Z</time>
      </trkpt>
      <trkpt lat="46.01511" lon="7.1642">
        <ele>1123</ele>
        <time>2022-07-16T09:04:49.242Z</time>
      </trkpt>
      <trkpt lat="46.01491" lon="7.16454">
        <ele>1129</ele>
        <time>2022-07-16T09:05:05.115Z</time>
      </trkpt>
      <trkpt lat="46.0147" lon="7.16477">
        <ele>1131</ele>
        <time>2022-07-16T09:05:12.498Z</time>
      </trkpt>
      <trkpt lat="46.01447" lon="7.16498">
        <ele>1132</ele>
        <time>2022-07-16T09:05:17.955Z</time>
      </trkpt>
      <trkpt lat="46.01415" lon="7.16522">
        <ele>1131</ele>
        <time>2022-07-16T09:05:21.495Z</time>
      </trkpt>
      <trkpt lat="46.01376" lon="7.16545">
        <ele>1134</ele>
        <time>2022-07-16T09:05:32.875Z</time>
      </trkpt>
      <trkpt lat="46.01334" lon="7.16564">
        <ele>1135</ele>
        <time>2022-07-16T09:05:40.267Z</time>
      </trkpt>
      <trkpt lat="46.0131" lon="7.16578">
        <ele>1133</ele>
        <time>2022-07-16T09:05:42.222Z</time>
      </trkpt>
      <trkpt lat="46.01291" lon="7.16596">
        <ele>1133</ele>
        <time>2022-07-16T09:05:45.246Z</time>
      </trkpt>
      <trkpt lat="46.0128" lon="7.16614">
        <ele>1135</ele>
        <time>2022-07-16T09:05:52.408Z</time>
      </trkpt>
      <trkpt lat="46.01273" lon="7.16632">
        <ele>1138</ele>
        <time>2022-07-16T09:05:59.758Z</time>
      </trkpt>
      <trkpt lat="46.01246" lon="7.16714">
        <ele>1150</ele>
        <time>2022-07-16T09:06:32.086Z</time>
      </trkpt>
      <trkpt lat="46.01211" lon="7.16767">
        <ele>1155</ele>
        <time>2022-07-16T09:06:49.389Z</time>
      </trkpt>
      <trkpt lat="46.01195" lon="7.16785">
        <ele>1157</ele>
        <time>2022-07-16T09:06:56.310Z</time>
      </trkpt>
      <trkpt lat="46.01164" lon="7.16808">
        <ele>1157</ele>
        <time>2022-07-16T09:07:00.948Z</time>
      </trkpt>
      <trkpt lat="46.01109" lon="7.16835">
        <ele>1159</ele>
        <time>2022-07-16T09:07:12.233Z</time>
      </trkpt>
      <trkpt lat="46.01049" lon="7.1686">
        <ele>1161</ele>
        <time>2022-07-16T09:07:23.987Z</time>
      </trkpt>
      <trkpt lat="46.00989" lon="7.16881">
        <ele>1164</ele>
        <time>2022-07-16T09:07:38.214Z</time>
      </trkpt>
      <trkpt lat="46.00958" lon="7.16899">
        <ele>1166</ele>
        <time>2022-07-16T09:07:46.522Z</time>
      </trkpt>
      <trkpt lat="46.00902" lon="7.1694">
        <ele>1170</ele>
        <time>2022-07-16T09:08:02.568Z</time>
      </trkpt>
      <trkpt lat="46.00881" lon="7.16946">
        <ele>1171</ele>
        <time>2022-07-16T09:08:07.441Z</time>
      </trkpt>
      <trkpt lat="46.00865" lon="7.16946">
        <ele>1171</ele>
        <time>2022-07-16T09:08:09.569Z</time>
      </trkpt>
      <trkpt lat="46.00811" lon="7.16938">
        <ele>1178</ele>
        <time>2022-07-16T09:08:35.719Z</time>
      </trkpt>
      <trkpt lat="46.008" lon="7.16941">
        <ele>1182</ele>
        <time>2022-07-16T09:08:41.462Z</time>
      </trkpt>
      <trkpt lat="46.00792" lon="7.16949">
        <ele>1186</ele>
        <time>2022-07-16T09:08:46.458Z</time>
      </trkpt>
      <trkpt lat="46.00791" lon="7.16971">
        <ele>1190</ele>
        <time>2022-07-16T09:08:54.313Z</time>
      </trkpt>
      <trkpt lat="46.00795" lon="7.16979">
        <ele>1189</ele>
        <time>2022-07-16T09:08:54.830Z</time>
      </trkpt>
      <trkpt lat="46.00807" lon="7.16989">
        <ele>1187</ele>
        <time>2022-07-16T09:08:55.876Z</time>
      </trkpt>
      <trkpt lat="46.00851" lon="7.16996">
        <ele>1178</ele>
        <time>2022-07-16T09:08:59.217Z</time>
      </trkpt>
      <trkpt lat="46.00861" lon="7.16999">
        <ele>1179</ele>
        <time>2022-07-16T09:09:02.679Z</time>
      </trkpt>
      <trkpt lat="46.00899" lon="7.17019">
        <ele>1183</ele>
        <time>2022-07-16T09:09:16.518Z</time>
      </trkpt>
      <trkpt lat="46.00918" lon="7.17026">
        <ele>1185</ele>
        <time>2022-07-16T09:09:23.434Z</time>
      </trkpt>
      <trkpt lat="46.00937" lon="7.17028">
        <ele>1188</ele>
        <time>2022-07-16T09:09:33.206Z</time>
      </trkpt>
      <trkpt lat="46.0096" lon="7.17022">
        <ele>1190</ele>
        <time>2022-07-16T09:09:40.293Z</time>
      </trkpt>
      <trkpt lat="46.00979" lon="7.1701">
        <ele>1191</ele>
        <time>2022-07-16T09:09:45.061Z</time>
      </trkpt>
      <trkpt lat="46.00994" lon="7.16993">
        <ele>1189</ele>
        <time>2022-07-16T09:09:46.502Z</time>
      </trkpt>
      <trkpt lat="46.01025" lon="7.16944">
        <ele>1181</ele>
        <time>2022-07-16T09:09:49.976Z</time>
      </trkpt>
      <trkpt lat="46.01032" lon="7.1694">
        <ele>1181</ele>
        <time>2022-07-16T09:09:50.978Z</time>
      </trkpt>
      <trkpt lat="46.01038" lon="7.1694">
        <ele>1181</ele>
        <time>2022-07-16T09:09:51.776Z</time>
      </trkpt>
      <trkpt lat="46.01048" lon="7.16947">
        <ele>1184</ele>
        <time>2022-07-16T09:09:57.479Z</time>
      </trkpt>
      <trkpt lat="46.01052" lon="7.16962">
        <ele>1189</ele>
        <time>2022-07-16T09:10:03.203Z</time>
      </trkpt>
      <trkpt lat="46.01051" lon="7.16972">
        <ele>1192</ele>
        <time>2022-07-16T09:10:06.803Z</time>
      </trkpt>
      <trkpt lat="46.01045" lon="7.16984">
        <ele>1195</ele>
        <time>2022-07-16T09:10:12.070Z</time>
      </trkpt>
      <trkpt lat="46.01004" lon="7.17025">
        <ele>1197</ele>
        <time>2022-07-16T09:10:22.558Z</time>
      </trkpt>
      <trkpt lat="46.00945" lon="7.1707">
        <ele>1200</ele>
        <time>2022-07-16T09:10:37.584Z</time>
      </trkpt>
      <trkpt lat="46.00891" lon="7.17128">
        <ele>1209</ele>
        <time>2022-07-16T09:11:12.142Z</time>
      </trkpt>
      <trkpt lat="46.00872" lon="7.17141">
        <ele>1211</ele>
        <time>2022-07-16T09:11:19.084Z</time>
      </trkpt>
      <trkpt lat="46.00851" lon="7.17148">
        <ele>1212</ele>
        <time>2022-07-16T09:11:23.980Z</time>
      </trkpt>
      <trkpt lat="46.0083" lon="7.17149">
        <ele>1212</ele>
        <time>2022-07-16T09:11:26.774Z</time>
      </trkpt>
      <trkpt lat="46.00807" lon="7.17141">
        <ele>1213</ele>
        <time>2022-07-16T09:11:31.909Z</time>
      </trkpt>
      <trkpt lat="46.00789" lon="7.17127">
        <ele>1213</ele>
        <time>2022-07-16T09:11:34.629Z</time>
      </trkpt>
      <trkpt lat="46.00774" lon="7.17107">
        <ele>1214</ele>
        <time>2022-07-16T09:11:39.350Z</time>
      </trkpt>
      <trkpt lat="46.00743" lon="7.17034">
        <ele>1214</ele>
        <time>2022-07-16T09:11:47.253Z</time>
      </trkpt>
      <trkpt lat="46.00722" lon="7.17001">
        <ele>1214</ele>
        <time>2022-07-16T09:11:51.387Z</time>
      </trkpt>
      <trkpt lat="46.00712" lon="7.1699">
        <ele>1213</ele>
        <time>2022-07-16T09:11:52.337Z</time>
      </trkpt>
      <trkpt lat="46.00687" lon="7.16979">
        <ele>1216</ele>
        <time>2022-07-16T09:12:02.896Z</time>
      </trkpt>
      <trkpt lat="46.00668" lon="7.16975">
        <ele>1218</ele>
        <time>2022-07-16T09:12:09.817Z</time>
      </trkpt>
      <trkpt lat="46.00657" lon="7.16975">
        <ele>1218</ele>
        <time>2022-07-16T09:12:11.280Z</time>
      </trkpt>
      <trkpt lat="46.00629" lon="7.16982">
        <ele>1217</ele>
        <time>2022-07-16T09:12:13.861Z</time>
      </trkpt>
      <trkpt lat="46.00583" lon="7.17012">
        <ele>1223</ele>
        <time>2022-07-16T09:12:35.245Z</time>
      </trkpt>
      <trkpt lat="46.00559" lon="7.17045">
        <ele>1223</ele>
        <time>2022-07-16T09:12:39.659Z</time>
      </trkpt>
      <trkpt lat="46.00521" lon="7.1711">
        <ele>1232</ele>
        <time>2022-07-16T09:13:09.929Z</time>
      </trkpt>
      <trkpt lat="46.00498" lon="7.17135">
        <ele>1235</ele>
        <time>2022-07-16T09:13:20.310Z</time>
      </trkpt>
      <trkpt lat="46.00461" lon="7.17163">
        <ele>1236</ele>
        <time>2022-07-16T09:13:27.429Z</time>
      </trkpt>
      <trkpt lat="46.0043" lon="7.17191">
        <ele>1236</ele>
        <time>2022-07-16T09:13:32.296Z</time>
      </trkpt>
      <trkpt lat="46.00403" lon="7.17228">
        <ele>1238</ele>
        <time>2022-07-16T09:13:41.176Z</time>
      </trkpt>
      <trkpt lat="46.00345" lon="7.17334">
        <ele>1250</ele>
        <time>2022-07-16T09:14:25.770Z</time>
      </trkpt>
      <trkpt lat="46.00322" lon="7.17363">
        <ele>1252</ele>
        <time>2022-07-16T09:14:33.679Z</time>
      </trkpt>
      <trkpt lat="46.00305" lon="7.17378">
        <ele>1252</ele>
        <time>2022-07-16T09:14:36.330Z</time>
      </trkpt>
      <trkpt lat="46.00212" lon="7.17445">
        <ele>1258</ele>
        <time>2022-07-16T09:15:01.797Z</time>
      </trkpt>
      <trkpt lat="46.00167" lon="7.17485">
        <ele>1264</ele>
        <time>2022-07-16T09:15:22.845Z</time>
      </trkpt>
      <trkpt lat="46.00141" lon="7.17505">
        <ele>1266</ele>
        <time>2022-07-16T09:15:30.608Z</time>
      </trkpt>
      <trkpt lat="46.00099" lon="7.17533">
        <ele>1269</ele>
        <time>2022-07-16T09:15:42.528Z</time>
      </trkpt>
      <trkpt lat="45.99993" lon="7.17592">
        <ele>1275</ele>
        <time>2022-07-16T09:16:09.448Z</time>
      </trkpt>
      <trkpt lat="45.99923" lon="7.17645">
        <ele>1283</ele>
        <time>2022-07-16T09:16:37.110Z</time>
      </trkpt>
      <trkpt lat="45.99836" lon="7.17687">
        <ele>1283</ele>
        <time>2022-07-16T09:16:49.313Z</time>
      </trkpt>
      <trkpt lat="45.99818" lon="7.17709">
        <ele>1286</ele>
        <time>2022-07-16T09:17:00.402Z</time>
      </trkpt>
      <trkpt lat="45.99788" lon="7.17783">
        <ele>1297</ele>
        <time>2022-07-16T09:17:30.933Z</time>
      </trkpt>
      <trkpt lat="45.9977" lon="7.17814">
        <ele>1300</ele>
        <time>2022-07-16T09:17:41.337Z</time>
      </trkpt>
      <trkpt lat="45.99755" lon="7.17831">
        <ele>1302</ele>
        <time>2022-07-16T09:17:48.261Z</time>
      </trkpt>
      <trkpt lat="45.99729" lon="7.17844">
        <ele>1303</ele>
        <time>2022-07-16T09:17:53.747Z</time>
      </trkpt>
      <trkpt lat="45.99704" lon="7.17846">
        <ele>1303</ele>
        <time>2022-07-16T09:17:57.077Z</time>
      </trkpt>
      <trkpt lat="45.99692" lon="7.17843">
        <ele>1303</ele>
        <time>2022-07-16T09:17:58.696Z</time>
      </trkpt>
      <trkpt lat="45.99681" lon="7.17837">
        <ele>1302</ele>
        <time>2022-07-16T09:17:59.584Z</time>
      </trkpt>
      <trkpt lat="45.9966" lon="7.17818">
        <ele>1299</ele>
        <time>2022-07-16T09:18:01.456Z</time>
      </trkpt>
      <trkpt lat="45.99625" lon="7.17775">
        <ele>1292</ele>
        <time>2022-07-16T09:18:04.929Z</time>
      </trkpt>
      <trkpt lat="45.99612" lon="7.17769">
        <ele>1291</ele>
        <time>2022-07-16T09:18:05.960Z</time>
      </trkpt>
      <trkpt lat="45.99601" lon="7.17775">
        <ele>1292</ele>
        <time>2022-07-16T09:18:09.509Z</time>
      </trkpt>
      <trkpt lat="45.99591" lon="7.17794">
        <ele>1294</ele>
        <time>2022-07-16T09:18:16.690Z</time>
      </trkpt>
      <trkpt lat="45.99519" lon="7.17995">
        <ele>1307</ele>
        <time>2022-07-16T09:19:03.202Z</time>
      </trkpt>
      <trkpt lat="45.99397" lon="7.18262">
        <ele>1314</ele>
        <time>2022-07-16T09:19:44.717Z</time>
      </trkpt>
      <trkpt lat="45.99347" lon="7.18365">
        <ele>1321</ele>
        <time>2022-07-16T09:20:10.021Z</time>
      </trkpt>
      <trkpt lat="45.9933" lon="7.18381">
        <ele>1321</ele>
        <time>2022-07-16T09:20:12.722Z</time>
      </trkpt>
      <trkpt lat="45.99244" lon="7.18429">
        <ele>1325</ele>
        <time>2022-07-16T09:20:33.072Z</time>
      </trkpt>
      <trkpt lat="45.99233" lon="7.18431">
        <ele>1325</ele>
        <time>2022-07-16T09:20:34.547Z</time>
      </trkpt>
      <trkpt lat="45.99214" lon="7.18432">
        <ele>1327</ele>
        <time>2022-07-16T09:20:41.472Z</time>
      </trkpt>
      <trkpt lat="45.9914" lon="7.18402">
        <ele>1326</ele>
        <time>2022-07-16T09:20:50.432Z</time>
      </trkpt>
      <trkpt lat="45.99135" lon="7.18397">
        <ele>1325</ele>
        <time>2022-07-16T09:20:50.892Z</time>
      </trkpt>
      <trkpt lat="45.99121" lon="7.18394">
        <ele>1323</ele>
        <time>2022-07-16T09:20:51.960Z</time>
      </trkpt>
      <trkpt lat="45.99113" lon="7.18393">
        <ele>1323</ele>
        <time>2022-07-16T09:20:53.028Z</time>
      </trkpt>
      <trkpt lat="45.991" lon="7.18396">
        <ele>1323</ele>
        <time>2022-07-16T09:20:54.779Z</time>
      </trkpt>
      <trkpt lat="45.99083" lon="7.18411">
        <ele>1327</ele>
        <time>2022-07-16T09:21:05.007Z</time>
      </trkpt>
      <trkpt lat="45.99058" lon="7.18469">
        <ele>1332</ele>
        <time>2022-07-16T09:21:22.325Z</time>
      </trkpt>
      <trkpt lat="45.99058" lon="7.18476">
        <ele>1334</ele>
        <time>2022-07-16T09:21:24.819Z</time>
      </trkpt>
      <trkpt lat="45.99026" lon="7.18569">
        <ele>1341</ele>
        <time>2022-07-16T09:21:49.066Z</time>
      </trkpt>
      <trkpt lat="45.99011" lon="7.18599">
        <ele>1344</ele>
        <time>2022-07-16T09:21:59.688Z</time>
      </trkpt>
      <trkpt lat="45.99003" lon="7.18608">
        <ele>1345</ele>
        <time>2022-07-16T09:22:03.148Z</time>
      </trkpt>
      <trkpt lat="45.98945" lon="7.18654">
        <ele>1350</ele>
        <time>2022-07-16T09:22:21.637Z</time>
      </trkpt>
      <trkpt lat="45.98871" lon="7.1871">
        <ele>1355</ele>
        <time>2022-07-16T09:22:42.413Z</time>
      </trkpt>
      <trkpt lat="45.98863" lon="7.18719">
        <ele>1356</ele>
        <time>2022-07-16T09:22:45.873Z</time>
      </trkpt>
      <trkpt lat="45.98833" lon="7.18769">
        <ele>1363</ele>
        <time>2022-07-16T09:23:09.418Z</time>
      </trkpt>
      <trkpt lat="45.98819" lon="7.18788">
        <ele>1365</ele>
        <time>2022-07-16T09:23:16.338Z</time>
      </trkpt>
      <trkpt lat="45.98734" lon="7.18861">
        <ele>1368</ele>
        <time>2022-07-16T09:23:34.560Z</time>
      </trkpt>
      <trkpt lat="45.98712" lon="7.18887">
        <ele>1369</ele>
        <time>2022-07-16T09:23:40.142Z</time>
      </trkpt>
      <trkpt lat="45.98674" lon="7.18947">
        <ele>1375</ele>
        <time>2022-07-16T09:24:00.940Z</time>
      </trkpt>
      <trkpt lat="45.98634" lon="7.18994">
        <ele>1380</ele>
        <time>2022-07-16T09:24:18.263Z</time>
      </trkpt>
      <trkpt lat="45.98614" lon="7.1901">
        <ele>1384</ele>
        <time>2022-07-16T09:24:30.000Z</time>
      </trkpt>
      <trkpt lat="45.98538" lon="7.19057">
        <ele>1387</ele>
        <time>2022-07-16T09:24:46.473Z</time>
      </trkpt>
      <trkpt lat="45.98499" lon="7.19084">
        <ele>1389</ele>
        <time>2022-07-16T09:24:56.293Z</time>
      </trkpt>
      <trkpt lat="45.98477" lon="7.19101">
        <ele>1391</ele>
        <time>2022-07-16T09:25:03.526Z</time>
      </trkpt>
      <trkpt lat="45.98457" lon="7.19122">
        <ele>1393</ele>
        <time>2022-07-16T09:25:10.737Z</time>
      </trkpt>
      <trkpt lat="45.98438" lon="7.19153">
        <ele>1398</ele>
        <time>2022-07-16T09:25:25.470Z</time>
      </trkpt>
      <trkpt lat="45.98382" lon="7.19265">
        <ele>1406</ele>
        <time>2022-07-16T09:25:54.021Z</time>
      </trkpt>
      <trkpt lat="45.98339" lon="7.19369">
        <ele>1419</ele>
        <time>2022-07-16T09:26:37.155Z</time>
      </trkpt>
      <trkpt lat="45.98317" lon="7.19414">
        <ele>1425</ele>
        <time>2022-07-16T09:26:56.767Z</time>
      </trkpt>
      <trkpt lat="45.98299" lon="7.19445">
        <ele>1426</ele>
        <time>2022-07-16T09:27:02.308Z</time>
      </trkpt>
      <trkpt lat="45.98257" lon="7.195">
        <ele>1422</ele>
        <time>2022-07-16T09:27:06.594Z</time>
      </trkpt>
      <trkpt lat="45.9823" lon="7.19542">
        <ele>1423</ele>
        <time>2022-07-16T09:27:13.464Z</time>
      </trkpt>
      <trkpt lat="45.98177" lon="7.1965">
        <ele>1431</ele>
        <time>2022-07-16T09:27:41.683Z</time>
      </trkpt>
      <trkpt lat="45.98162" lon="7.1967">
        <ele>1431</ele>
        <time>2022-07-16T09:27:44.403Z</time>
      </trkpt>
      <trkpt lat="45.98149" lon="7.19684">
        <ele>1434</ele>
        <time>2022-07-16T09:27:52.732Z</time>
      </trkpt>
      <trkpt lat="45.98118" lon="7.19703">
        <ele>1436</ele>
        <time>2022-07-16T09:28:01.079Z</time>
      </trkpt>
      <trkpt lat="45.98021" lon="7.19722">
        <ele>1433</ele>
        <time>2022-07-16T09:28:10.389Z</time>
      </trkpt>
      <trkpt lat="45.97992" lon="7.19739">
        <ele>1435</ele>
        <time>2022-07-16T09:28:18.399Z</time>
      </trkpt>
      <trkpt lat="45.97968" lon="7.19762">
        <ele>1434</ele>
        <time>2022-07-16T09:28:21.031Z</time>
      </trkpt>
      <trkpt lat="45.97944" lon="7.19798">
        <ele>1436</ele>
        <time>2022-07-16T09:28:29.520Z</time>
      </trkpt>
      <trkpt lat="45.97899" lon="7.19896">
        <ele>1450</ele>
        <time>2022-07-16T09:29:11.390Z</time>
      </trkpt>
      <trkpt lat="45.97873" lon="7.1994">
        <ele>1457</ele>
        <time>2022-07-16T09:29:31.978Z</time>
      </trkpt>
      <trkpt lat="45.97821" lon="7.20016">
        <ele>1468</ele>
        <time>2022-07-16T09:30:09.996Z</time>
      </trkpt>
      <trkpt lat="45.97778" lon="7.20061">
        <ele>1473</ele>
        <time>2022-07-16T09:30:27.375Z</time>
      </trkpt>
      <trkpt lat="45.97735" lon="7.20096">
        <ele>1469</ele>
        <time>2022-07-16T09:30:31.103Z</time>
      </trkpt>
      <trkpt lat="45.97647" lon="7.2019">
        <ele>1473</ele>
        <time>2022-07-16T09:30:52.998Z</time>
      </trkpt>
      <trkpt lat="45.97582" lon="7.20255">
        <ele>1472</ele>
        <time>2022-07-16T09:31:02.267Z</time>
      </trkpt>
      <trkpt lat="45.97517" lon="7.20344">
        <ele>1479</ele>
        <time>2022-07-16T09:31:27.822Z</time>
      </trkpt>
      <trkpt lat="45.975" lon="7.20363">
        <ele>1480</ele>
        <time>2022-07-16T09:31:32.714Z</time>
      </trkpt>
      <trkpt lat="45.97469" lon="7.2039">
        <ele>1483</ele>
        <time>2022-07-16T09:31:43.446Z</time>
      </trkpt>
      <trkpt lat="45.97436" lon="7.20424">
        <ele>1484</ele>
        <time>2022-07-16T09:31:50.417Z</time>
      </trkpt>
      <trkpt lat="45.97415" lon="7.20462">
        <ele>1486</ele>
        <time>2022-07-16T09:31:58.770Z</time>
      </trkpt>
      <trkpt lat="45.97406" lon="7.20485">
        <ele>1489</ele>
        <time>2022-07-16T09:32:08.180Z</time>
      </trkpt>
      <trkpt lat="45.97362" lon="7.20648">
        <ele>1506</ele>
        <time>2022-07-16T09:33:10.518Z</time>
      </trkpt>
      <trkpt lat="45.97353" lon="7.20669">
        <ele>1507</ele>
        <time>2022-07-16T09:33:14.735Z</time>
      </trkpt>
      <trkpt lat="45.97322" lon="7.20717">
        <ele>1507</ele>
        <time>2022-07-16T09:33:20.791Z</time>
      </trkpt>
      <trkpt lat="45.97287" lon="7.20753">
        <ele>1508</ele>
        <time>2022-07-16T09:33:28.060Z</time>
      </trkpt>
      <trkpt lat="45.97272" lon="7.20763">
        <ele>1510</ele>
        <time>2022-07-16T09:33:35.246Z</time>
      </trkpt>
      <trkpt lat="45.97247" lon="7.20777">
        <ele>1512</ele>
        <time>2022-07-16T09:33:42.680Z</time>
      </trkpt>
      <trkpt lat="45.97194" lon="7.208">
        <ele>1513</ele>
        <time>2022-07-16T09:33:51.502Z</time>
      </trkpt>
      <trkpt lat="45.97102" lon="7.20862">
        <ele>1523</ele>
        <time>2022-07-16T09:34:26.107Z</time>
      </trkpt>
      <trkpt lat="45.9707" lon="7.20874">
        <ele>1525</ele>
        <time>2022-07-16T09:34:34.364Z</time>
      </trkpt>
      <trkpt lat="45.97024" lon="7.20887">
        <ele>1531</ele>
        <time>2022-07-16T09:34:56.656Z</time>
      </trkpt>
      <trkpt lat="45.96979" lon="7.2089">
        <ele>1533</ele>
        <time>2022-07-16T09:35:06.753Z</time>
      </trkpt>
      <trkpt lat="45.96936" lon="7.2089">
        <ele>1538</ele>
        <time>2022-07-16T09:35:24.428Z</time>
      </trkpt>
      <trkpt lat="45.96837" lon="7.20883">
        <ele>1544</ele>
        <time>2022-07-16T09:35:49.185Z</time>
      </trkpt>
      <trkpt lat="45.96803" lon="7.20885">
        <ele>1545</ele>
        <time>2022-07-16T09:35:55.377Z</time>
      </trkpt>
      <trkpt lat="45.96756" lon="7.20895">
        <ele>1548</ele>
        <time>2022-07-16T09:36:07.466Z</time>
      </trkpt>
      <trkpt lat="45.96635" lon="7.2095">
        <ele>1558</ele>
        <time>2022-07-16T09:36:43.838Z</time>
      </trkpt>
      <trkpt lat="45.96617" lon="7.20955">
        <ele>1559</ele>
        <time>2022-07-16T09:36:48.232Z</time>
      </trkpt>
      <trkpt lat="45.96562" lon="7.20962">
        <ele>1560</ele>
        <time>2022-07-16T09:36:57.036Z</time>
      </trkpt>
      <trkpt lat="45.96528" lon="7.20962">
        <ele>1563</ele>
        <time>2022-07-16T09:37:07.584Z</time>
      </trkpt>
      <trkpt lat="45.96471" lon="7.20953">
        <ele>1565</ele>
        <time>2022-07-16T09:37:18.790Z</time>
      </trkpt>
      <trkpt lat="45.964" lon="7.20947">
        <ele>1570</ele>
        <time>2022-07-16T09:37:37.866Z</time>
      </trkpt>
      <trkpt lat="45.96339" lon="7.20952">
        <ele>1578</ele>
        <time>2022-07-16T09:38:08.114Z</time>
      </trkpt>
      <trkpt lat="45.96277" lon="7.20962">
        <ele>1584</ele>
        <time>2022-07-16T09:38:28.914Z</time>
      </trkpt>
      <trkpt lat="45.96252" lon="7.20962">
        <ele>1585</ele>
        <time>2022-07-16T09:38:34.161Z</time>
      </trkpt>
      <trkpt lat="45.96219" lon="7.20958">
        <ele>1588</ele>
        <time>2022-07-16T09:38:44.652Z</time>
      </trkpt>
      <trkpt lat="45.96188" lon="7.20949">
        <ele>1590</ele>
        <time>2022-07-16T09:38:52.705Z</time>
      </trkpt>
      <trkpt lat="45.96079" lon="7.20903">
        <ele>1590</ele>
        <time>2022-07-16T09:39:07.811Z</time>
      </trkpt>
      <trkpt lat="45.95997" lon="7.20877">
        <ele>1595</ele>
        <time>2022-07-16T09:39:28.640Z</time>
      </trkpt>
      <trkpt lat="45.95957" lon="7.20871">
        <ele>1595</ele>
        <time>2022-07-16T09:39:33.988Z</time>
      </trkpt>
      <trkpt lat="45.9589" lon="7.20868">
        <ele>1595</ele>
        <time>2022-07-16T09:39:42.902Z</time>
      </trkpt>
      <trkpt lat="45.95831" lon="7.2087">
        <ele>1597</ele>
        <time>2022-07-16T09:39:54.284Z</time>
      </trkpt>
      <trkpt lat="45.95776" lon="7.20883">
        <ele>1601</ele>
        <time>2022-07-16T09:40:09.400Z</time>
      </trkpt>
      <trkpt lat="45.95691" lon="7.20917">
        <ele>1609</ele>
        <time>2022-07-16T09:40:37.370Z</time>
      </trkpt>
      <trkpt lat="45.95586" lon="7.20964">
        <ele>1615</ele>
        <time>2022-07-16T09:41:03.729Z</time>
      </trkpt>
      <trkpt lat="45.95525" lon="7.2098">
        <ele>1617</ele>
        <time>2022-07-16T09:41:15.433Z</time>
      </trkpt>
      <trkpt lat="45.95457" lon="7.20979">
        <ele>1623</ele>
        <time>2022-07-16T09:41:36.531Z</time>
      </trkpt>
      <trkpt lat="45.95432" lon="7.20976">
        <ele>1626</ele>
        <time>2022-07-16T09:41:47.253Z</time>
      </trkpt>
      <trkpt lat="45.95403" lon="7.20971">
        <ele>1629</ele>
        <time>2022-07-16T09:41:57.629Z</time>
      </trkpt>
      <trkpt lat="45.95269" lon="7.20933">
        <ele>1638</ele>
        <time>2022-07-16T09:42:33.080Z</time>
      </trkpt>
      <trkpt lat="45.95228" lon="7.20926">
        <ele>1638</ele>
        <time>2022-07-16T09:42:38.571Z</time>
      </trkpt>
      <trkpt lat="45.95196" lon="7.20925">
        <ele>1639</ele>
        <time>2022-07-16T09:42:44.534Z</time>
      </trkpt>
      <trkpt lat="45.95139" lon="7.20925">
        <ele>1643</ele>
        <time>2022-07-16T09:42:59.808Z</time>
      </trkpt>
      <trkpt lat="45.95077" lon="7.20933">
        <ele>1650</ele>
        <time>2022-07-16T09:43:24.308Z</time>
      </trkpt>
      <trkpt lat="45.94949" lon="7.20967">
        <ele>1655</ele>
        <time>2022-07-16T09:43:51.015Z</time>
      </trkpt>
      <trkpt lat="45.94899" lon="7.20973">
        <ele>1658</ele>
        <time>2022-07-16T09:44:03.482Z</time>
      </trkpt>
      <trkpt lat="45.94861" lon="7.20971">
        <ele>1664</ele>
        <time>2022-07-16T09:44:22.987Z</time>
      </trkpt>
      <trkpt lat="45.94778" lon="7.20958">
        <ele>1670</ele>
        <time>2022-07-16T09:44:45.648Z</time>
      </trkpt>
      <trkpt lat="45.94672" lon="7.20962">
        <ele>1675</ele>
        <time>2022-07-16T09:45:09.854Z</time>
      </trkpt>
      <trkpt lat="45.94641" lon="7.20957">
        <ele>1681</ele>
        <time>2022-07-16T09:45:25.855Z</time>
      </trkpt>
      <trkpt lat="45.94503" lon="7.209">
        <ele>1711</ele>
        <time>2022-07-16T09:46:39.504Z</time>
      </trkpt>
      <trkpt lat="45.94453" lon="7.20887">
        <ele>1710</ele>
        <time>2022-07-16T09:46:44.960Z</time>
      </trkpt>
      <trkpt lat="45.94428" lon="7.20883">
        <ele>1710</ele>
        <time>2022-07-16T09:46:48.305Z</time>
      </trkpt>
      <trkpt lat="45.94386" lon="7.20882">
        <ele>1711</ele>
        <time>2022-07-16T09:46:55.449Z</time>
      </trkpt>
      <trkpt lat="45.94331" lon="7.20886">
        <ele>1714</ele>
        <time>2022-07-16T09:47:08.642Z</time>
      </trkpt>
      <trkpt lat="45.94196" lon="7.20921">
        <ele>1734</ele>
        <time>2022-07-16T09:48:19.007Z</time>
      </trkpt>
      <trkpt lat="45.94154" lon="7.2092">
        <ele>1734</ele>
        <time>2022-07-16T09:48:24.593Z</time>
      </trkpt>
      <trkpt lat="45.9413" lon="7.20913">
        <ele>1734</ele>
        <time>2022-07-16T09:48:27.850Z</time>
      </trkpt>
      <trkpt lat="45.94033" lon="7.20859">
        <ele>1734</ele>
        <time>2022-07-16T09:48:41.682Z</time>
      </trkpt>
      <trkpt lat="45.93988" lon="7.20847">
        <ele>1737</ele>
        <time>2022-07-16T09:48:53.532Z</time>
      </trkpt>
      <trkpt lat="45.93952" lon="7.20844">
        <ele>1738</ele>
        <time>2022-07-16T09:48:59.960Z</time>
      </trkpt>
      <trkpt lat="45.93804" lon="7.20862">
        <ele>1769</ele>
        <time>2022-07-16T09:50:16.148Z</time>
      </trkpt>
      <trkpt lat="45.93761" lon="7.20862">
        <ele>1776</ele>
        <time>2022-07-16T09:50:38.205Z</time>
      </trkpt>
      <trkpt lat="45.93722" lon="7.20858">
        <ele>1774</ele>
        <time>2022-07-16T09:50:41.268Z</time>
      </trkpt>
      <trkpt lat="45.93688" lon="7.20851">
        <ele>1769</ele>
        <time>2022-07-16T09:50:43.861Z</time>
      </trkpt>
      <trkpt lat="45.93651" lon="7.2084">
        <ele>1767</ele>
        <time>2022-07-16T09:50:46.777Z</time>
      </trkpt>
      <trkpt lat="45.93549" lon="7.20792">
        <ele>1769</ele>
        <time>2022-07-16T09:51:03.987Z</time>
      </trkpt>
      <trkpt lat="45.93525" lon="7.20785">
        <ele>1769</ele>
        <time>2022-07-16T09:51:07.244Z</time>
      </trkpt>
      <trkpt lat="45.93435" lon="7.2077">
        <ele>1783</ele>
        <time>2022-07-16T09:51:53.718Z</time>
      </trkpt>
      <trkpt lat="45.93412" lon="7.20763">
        <ele>1786</ele>
        <time>2022-07-16T09:52:04.841Z</time>
      </trkpt>
      <trkpt lat="45.9337" lon="7.20743">
        <ele>1784</ele>
        <time>2022-07-16T09:52:08.494Z</time>
      </trkpt>
      <trkpt lat="45.93317" lon="7.2071">
        <ele>1781</ele>
        <time>2022-07-16T09:52:12.989Z</time>
      </trkpt>
      <trkpt lat="45.93229" lon="7.20673">
        <ele>1792</ele>
        <time>2022-07-16T09:52:52.361Z</time>
      </trkpt>
      <trkpt lat="45.93193" lon="7.20652">
        <ele>1797</ele>
        <time>2022-07-16T09:53:11.013Z</time>
      </trkpt>
      <trkpt lat="45.9314" lon="7.20614">
        <ele>1797</ele>
        <time>2022-07-16T09:53:18.889Z</time>
      </trkpt>
      <trkpt lat="45.93109" lon="7.20595">
        <ele>1797</ele>
        <time>2022-07-16T09:53:23.370Z</time>
      </trkpt>
      <trkpt lat="45.93097" lon="7.20589">
        <ele>1798</ele>
        <time>2022-07-16T09:53:27.009Z</time>
      </trkpt>
      <trkpt lat="45.93017" lon="7.20563">
        <ele>1806</ele>
        <time>2022-07-16T09:53:54.709Z</time>
      </trkpt>
      <trkpt lat="45.9299" lon="7.20551">
        <ele>1809</ele>
        <time>2022-07-16T09:54:05.106Z</time>
      </trkpt>
      <trkpt lat="45.92972" lon="7.20539">
        <ele>1811</ele>
        <time>2022-07-16T09:54:12.022Z</time>
      </trkpt>
      <trkpt lat="45.92953" lon="7.2052">
        <ele>1810</ele>
        <time>2022-07-16T09:54:13.968Z</time>
      </trkpt>
      <trkpt lat="45.929" lon="7.20461">
        <ele>1806</ele>
        <time>2022-07-16T09:54:18.862Z</time>
      </trkpt>
      <trkpt lat="45.92876" lon="7.20442">
        <ele>1807</ele>
        <time>2022-07-16T09:54:24.336Z</time>
      </trkpt>
      <trkpt lat="45.92851" lon="7.20427">
        <ele>1810</ele>
        <time>2022-07-16T09:54:34.800Z</time>
      </trkpt>
      <trkpt lat="45.92808" lon="7.20412">
        <ele>1817</ele>
        <time>2022-07-16T09:54:57.497Z</time>
      </trkpt>
      <trkpt lat="45.92686" lon="7.20383">
        <ele>1834</ele>
        <time>2022-07-16T09:56:00.926Z</time>
      </trkpt>
      <trkpt lat="45.92648" lon="7.2037">
        <ele>1839</ele>
        <time>2022-07-16T09:56:19.505Z</time>
      </trkpt>
      <trkpt lat="45.92606" lon="7.2035">
        <ele>1847</ele>
        <time>2022-07-16T09:56:42.199Z</time>
      </trkpt>
      <trkpt lat="45.92584" lon="7.20336">
        <ele>1852</ele>
        <time>2022-07-16T09:56:54.540Z</time>
      </trkpt>
      <trkpt lat="45.92539" lon="7.20299">
        <ele>1857</ele>
        <time>2022-07-16T09:57:11.869Z</time>
      </trkpt>
      <trkpt lat="45.92505" lon="7.20267">
        <ele>1868</ele>
        <time>2022-07-16T09:57:32.714Z</time>
      </trkpt>
      <trkpt lat="45.9248" lon="7.20232">
        <ele>1868</ele>
        <time>2022-07-16T09:57:37.355Z</time>
      </trkpt>
      <trkpt lat="45.92444" lon="7.20159">
        <ele>1859</ele>
        <time>2022-07-16T09:57:42.053Z</time>
      </trkpt>
      <trkpt lat="45.92428" lon="7.20143">
        <ele>1856</ele>
        <time>2022-07-16T09:57:43.524Z</time>
      </trkpt>
      <trkpt lat="45.92409" lon="7.20132">
        <ele>1854</ele>
        <time>2022-07-16T09:57:45.070Z</time>
      </trkpt>
      <trkpt lat="45.92392" lon="7.20128">
        <ele>1853</ele>
        <time>2022-07-16T09:57:46.344Z</time>
      </trkpt>
      <trkpt lat="45.92305" lon="7.20128">
        <ele>1858</ele>
        <time>2022-07-16T09:58:07.616Z</time>
      </trkpt>
      <trkpt lat="45.92208" lon="7.20116">
        <ele>1851</ele>
        <time>2022-07-16T09:58:14.964Z</time>
      </trkpt>
      <trkpt lat="45.92157" lon="7.20116">
        <ele>1852</ele>
        <time>2022-07-16T09:58:23.232Z</time>
      </trkpt>
      <trkpt lat="45.92131" lon="7.2012">
        <ele>1855</ele>
        <time>2022-07-16T09:58:33.790Z</time>
      </trkpt>
      <trkpt lat="45.92087" lon="7.20133">
        <ele>1863</ele>
        <time>2022-07-16T09:58:56.832Z</time>
      </trkpt>
      <trkpt lat="45.92024" lon="7.20147">
        <ele>1867</ele>
        <time>2022-07-16T09:59:13.006Z</time>
      </trkpt>
      <trkpt lat="45.91985" lon="7.20148">
        <ele>1864</ele>
        <time>2022-07-16T09:59:15.950Z</time>
      </trkpt>
      <trkpt lat="45.91944" lon="7.20145">
        <ele>1861</ele>
        <time>2022-07-16T09:59:19.049Z</time>
      </trkpt>
      <trkpt lat="45.91893" lon="7.20147">
        <ele>1858</ele>
        <time>2022-07-16T09:59:22.800Z</time>
      </trkpt>
      <trkpt lat="45.91864" lon="7.20154">
        <ele>1858</ele>
        <time>2022-07-16T09:59:26.711Z</time>
      </trkpt>
      <trkpt lat="45.91777" lon="7.20186">
        <ele>1869</ele>
        <time>2022-07-16T10:00:06.484Z</time>
      </trkpt>
      <trkpt lat="45.91738" lon="7.20192">
        <ele>1871</ele>
        <time>2022-07-16T10:00:15.664Z</time>
      </trkpt>
      <trkpt lat="45.91703" lon="7.20188">
        <ele>1873</ele>
        <time>2022-07-16T10:00:24.219Z</time>
      </trkpt>
      <trkpt lat="45.9161" lon="7.20157">
        <ele>1863</ele>
        <time>2022-07-16T10:00:31.424Z</time>
      </trkpt>
      <trkpt lat="45.91576" lon="7.20152">
        <ele>1860</ele>
        <time>2022-07-16T10:00:34.004Z</time>
      </trkpt>
      <trkpt lat="45.91476" lon="7.20165">
        <ele>1872</ele>
        <time>2022-07-16T10:01:16.881Z</time>
      </trkpt>
      <trkpt lat="45.91451" lon="7.20165">
        <ele>1874</ele>
        <time>2022-07-16T10:01:24.116Z</time>
      </trkpt>
      <trkpt lat="45.91378" lon="7.20156">
        <ele>1876</ele>
        <time>2022-07-16T10:01:37.108Z</time>
      </trkpt>
      <trkpt lat="45.91355" lon="7.20157">
        <ele>1878</ele>
        <time>2022-07-16T10:01:44.166Z</time>
      </trkpt>
      <trkpt lat="45.91264" lon="7.20171">
        <ele>1886</ele>
        <time>2022-07-16T10:02:12.359Z</time>
      </trkpt>
      <trkpt lat="45.9124" lon="7.20172">
        <ele>1888</ele>
        <time>2022-07-16T10:02:19.500Z</time>
      </trkpt>
      <trkpt lat="45.91212" lon="7.20168">
        <ele>1892</ele>
        <time>2022-07-16T10:02:33.933Z</time>
      </trkpt>
      <trkpt lat="45.91131" lon="7.20141">
        <ele>1893</ele>
        <time>2022-07-16T10:02:46.360Z</time>
      </trkpt>
      <trkpt lat="45.91074" lon="7.20119">
        <ele>1891</ele>
        <time>2022-07-16T10:02:51.790Z</time>
      </trkpt>
      <trkpt lat="45.91023" lon="7.20108">
        <ele>1893</ele>
        <time>2022-07-16T10:03:02.427Z</time>
      </trkpt>
      <trkpt lat="45.90975" lon="7.20104">
        <ele>1894</ele>
        <time>2022-07-16T10:03:10.326Z</time>
      </trkpt>
      <trkpt lat="45.90928" lon="7.20104">
        <ele>1895</ele>
        <time>2022-07-16T10:03:18.089Z</time>
      </trkpt>
      <trkpt lat="45.90816" lon="7.20087">
        <ele>1893</ele>
        <time>2022-07-16T10:03:30.463Z</time>
      </trkpt>
      <trkpt lat="45.90712" lon="7.201">
        <ele>1904</ele>
        <time>2022-07-16T10:04:08.560Z</time>
      </trkpt>
      <trkpt lat="45.90666" lon="7.20103">
        <ele>1907</ele>
        <time>2022-07-16T10:04:20.447Z</time>
      </trkpt>
      <trkpt lat="45.90624" lon="7.20101">
        <ele>1913</ele>
        <time>2022-07-16T10:04:42.003Z</time>
      </trkpt>
      <trkpt lat="45.90494" lon="7.20079">
        <ele>1921</ele>
        <time>2022-07-16T10:05:14.833Z</time>
      </trkpt>
      <trkpt lat="45.90425" lon="7.20052">
        <ele>1923</ele>
        <time>2022-07-16T10:05:27.618Z</time>
      </trkpt>
      <trkpt lat="45.90392" lon="7.20027">
        <ele>1921</ele>
        <time>2022-07-16T10:05:30.481Z</time>
      </trkpt>
      <trkpt lat="45.90372" lon="7.20001">
        <ele>1916</ele>
        <time>2022-07-16T10:05:32.516Z</time>
      </trkpt>
      <trkpt lat="45.90353" lon="7.1997">
        <ele>1915</ele>
        <time>2022-07-16T10:05:35.137Z</time>
      </trkpt>
      <trkpt lat="45.90315" lon="7.1988">
        <ele>1915</ele>
        <time>2022-07-16T10:05:44.879Z</time>
      </trkpt>
      <trkpt lat="45.90297" lon="7.19818">
        <ele>1916</ele>
        <time>2022-07-16T10:05:52.611Z</time>
      </trkpt>
      <trkpt lat="45.90279" lon="7.19778">
        <ele>1918</ele>
        <time>2022-07-16T10:06:00.879Z</time>
      </trkpt>
      <trkpt lat="45.90279" lon="7.19744">
        <ele>1916</ele>
        <time>2022-07-16T10:06:02.665Z</time>
      </trkpt>
      <trkpt lat="45.90274" lon="7.19702">
        <ele>1915</ele>
        <time>2022-07-16T10:06:05.397Z</time>
      </trkpt>
      <trkpt lat="45.9027" lon="7.19687">
        <ele>1915</ele>
        <time>2022-07-16T10:06:06.884Z</time>
      </trkpt>
      <trkpt lat="45.90246" lon="7.19637">
        <ele>1915</ele>
        <time>2022-07-16T10:06:12.505Z</time>
      </trkpt>
      <trkpt lat="45.90219" lon="7.19601">
        <ele>1915</ele>
        <time>2022-07-16T10:06:17.403Z</time>
      </trkpt>
      <trkpt lat="45.90206" lon="7.19591">
        <ele>1916</ele>
        <time>2022-07-16T10:06:21.285Z</time>
      </trkpt>
      <trkpt lat="45.90177" lon="7.19577">
        <ele>1918</ele>
        <time>2022-07-16T10:06:29.196Z</time>
      </trkpt>
      <trkpt lat="45.90137" lon="7.19571">
        <ele>1921</ele>
        <time>2022-07-16T10:06:40.344Z</time>
      </trkpt>
      <trkpt lat="45.89924" lon="7.19572">
        <ele>1932</ele>
        <time>2022-07-16T10:07:30.414Z</time>
      </trkpt>
      <trkpt lat="45.89896" lon="7.19561">
        <ele>1937</ele>
        <time>2022-07-16T10:07:45.303Z</time>
      </trkpt>
      <trkpt lat="45.89871" lon="7.1954">
        <ele>1940</ele>
        <time>2022-07-16T10:07:55.682Z</time>
      </trkpt>
      <trkpt lat="45.89855" lon="7.19519">
        <ele>1940</ele>
        <time>2022-07-16T10:07:58.564Z</time>
      </trkpt>
      <trkpt lat="45.89838" lon="7.19487">
        <ele>1938</ele>
        <time>2022-07-16T10:08:00.678Z</time>
      </trkpt>
      <trkpt lat="45.89817" lon="7.19436">
        <ele>1943</ele>
        <time>2022-07-16T10:08:18.663Z</time>
      </trkpt>
      <trkpt lat="45.89803" lon="7.19382">
        <ele>1949</ele>
        <time>2022-07-16T10:08:39.234Z</time>
      </trkpt>
      <trkpt lat="45.898" lon="7.1936">
        <ele>1951</ele>
        <time>2022-07-16T10:08:46.673Z</time>
      </trkpt>
      <trkpt lat="45.89801" lon="7.19345">
        <ele>1951</ele>
        <time>2022-07-16T10:08:48.068Z</time>
      </trkpt>
      <trkpt lat="45.89816" lon="7.19281">
        <ele>1949</ele>
        <time>2022-07-16T10:08:52.044Z</time>
      </trkpt>
      <trkpt lat="45.89822" lon="7.19242">
        <ele>1950</ele>
        <time>2022-07-16T10:08:57.557Z</time>
      </trkpt>
      <trkpt lat="45.89842" lon="7.19201">
        <ele>1949</ele>
        <time>2022-07-16T10:09:00.940Z</time>
      </trkpt>
      <trkpt lat="45.89853" lon="7.19152">
        <ele>1954</ele>
        <time>2022-07-16T10:09:19.320Z</time>
      </trkpt>
      <trkpt lat="45.89873" lon="7.19128">
        <ele>1952</ele>
        <time>2022-07-16T10:09:21.286Z</time>
      </trkpt>
      <trkpt lat="45.89883" lon="7.19111">
        <ele>1952</ele>
        <time>2022-07-16T10:09:23.346Z</time>
      </trkpt>
      <trkpt lat="45.89899" lon="7.1902">
        <ele>1960</ele>
        <time>2022-07-16T10:09:52.271Z</time>
      </trkpt>
      <trkpt lat="45.899" lon="7.19001">
        <ele>1962</ele>
        <time>2022-07-16T10:09:59.073Z</time>
      </trkpt>
      <trkpt lat="45.89892" lon="7.18958">
        <ele>1969</ele>
        <time>2022-07-16T10:10:14.961Z</time>
      </trkpt>
      <trkpt lat="45.89863" lon="7.18861">
        <ele>1987</ele>
        <time>2022-07-16T10:10:52.648Z</time>
      </trkpt>
      <trkpt lat="45.89826" lon="7.18776">
        <ele>1990</ele>
        <time>2022-07-16T10:11:07.956Z</time>
      </trkpt>
      <trkpt lat="45.89815" lon="7.1876">
        <ele>1989</ele>
        <time>2022-07-16T10:11:09.061Z</time>
      </trkpt>
      <trkpt lat="45.89784" lon="7.18748">
        <ele>1991</ele>
        <time>2022-07-16T10:11:17.181Z</time>
      </trkpt>
      <trkpt lat="45.8975" lon="7.18729">
        <ele>1995</ele>
        <time>2022-07-16T10:11:31.106Z</time>
      </trkpt>
      <trkpt lat="45.89734" lon="7.18724">
        <ele>1997</ele>
        <time>2022-07-16T10:11:38.327Z</time>
      </trkpt>
      <trkpt lat="45.89706" lon="7.18721">
        <ele>2001</ele>
        <time>2022-07-16T10:11:52.729Z</time>
      </trkpt>
      <trkpt lat="45.89633" lon="7.18693">
        <ele>2004</ele>
        <time>2022-07-16T10:12:08.521Z</time>
      </trkpt>
      <trkpt lat="45.89545" lon="7.18677">
        <ele>2009</ele>
        <time>2022-07-16T10:12:30.045Z</time>
      </trkpt>
      <trkpt lat="45.89513" lon="7.18667">
        <ele>2010</ele>
        <time>2022-07-16T10:12:36.091Z</time>
      </trkpt>
      <trkpt lat="45.89467" lon="7.18648">
        <ele>2013</ele>
        <time>2022-07-16T10:12:48.229Z</time>
      </trkpt>
      <trkpt lat="45.89457" lon="7.18646">
        <ele>2015</ele>
        <time>2022-07-16T10:12:53.408Z</time>
      </trkpt>
      <trkpt lat="45.8938" lon="7.18649">
        <ele>2025</ele>
        <time>2022-07-16T10:13:30.960Z</time>
      </trkpt>
      <trkpt lat="45.89301" lon="7.18647">
        <ele>2031</ele>
        <time>2022-07-16T10:13:53.095Z</time>
      </trkpt>
      <trkpt lat="45.89244" lon="7.18663">
        <ele>2039</ele>
        <time>2022-07-16T10:14:22.886Z</time>
      </trkpt>
      <trkpt lat="45.89162" lon="7.18692">
        <ele>2050</ele>
        <time>2022-07-16T10:15:04.302Z</time>
      </trkpt>
      <trkpt lat="45.89098" lon="7.18753">
        <ele>2061</ele>
        <time>2022-07-16T10:15:43.698Z</time>
      </trkpt>
      <trkpt lat="45.89022" lon="7.18799">
        <ele>2066</ele>
        <time>2022-07-16T10:16:04.310Z</time>
      </trkpt>
      <trkpt lat="45.88963" lon="7.18864">
        <ele>2082</ele>
        <time>2022-07-16T10:16:42.448Z</time>
      </trkpt>
      <trkpt lat="45.88954" lon="7.18868">
        <ele>2083</ele>
        <time>2022-07-16T10:16:45.913Z</time>
      </trkpt>
      <trkpt lat="45.88918" lon="7.18872">
        <ele>2084</ele>
        <time>2022-07-16T10:16:52.347Z</time>
      </trkpt>
      <trkpt lat="45.88874" lon="7.18873">
        <ele>2088</ele>
        <time>2022-07-16T10:17:06.326Z</time>
      </trkpt>
      <trkpt lat="45.88821" lon="7.18881">
        <ele>2095</ele>
        <time>2022-07-16T10:17:32.864Z</time>
      </trkpt>
      <trkpt lat="45.88752" lon="7.18876">
        <ele>2104</ele>
        <time>2022-07-16T10:18:06.752Z</time>
      </trkpt>
      <trkpt lat="45.88741" lon="7.18869">
        <ele>2104</ele>
        <time>2022-07-16T10:18:08.352Z</time>
      </trkpt>
      <trkpt lat="45.88694" lon="7.18806">
        <ele>2104</ele>
        <time>2022-07-16T10:18:16.901Z</time>
      </trkpt>
      <trkpt lat="45.8866" lon="7.18776">
        <ele>2109</ele>
        <time>2022-07-16T10:18:35.217Z</time>
      </trkpt>
      <trkpt lat="45.88633" lon="7.18715">
        <ele>2113</ele>
        <time>2022-07-16T10:18:49.721Z</time>
      </trkpt>
      <trkpt lat="45.88627" lon="7.1871">
        <ele>2115</ele>
        <time>2022-07-16T10:18:53.279Z</time>
      </trkpt>
      <trkpt lat="45.88621" lon="7.18711">
        <ele>2116</ele>
        <time>2022-07-16T10:18:56.377Z</time>
      </trkpt>
      <trkpt lat="45.8862" lon="7.18724">
        <ele>2115</ele>
        <time>2022-07-16T10:18:57.064Z</time>
      </trkpt>
      <trkpt lat="45.88624" lon="7.18745">
        <ele>2113</ele>
        <time>2022-07-16T10:18:58.208Z</time>
      </trkpt>
      <trkpt lat="45.88626" lon="7.18779">
        <ele>2117</ele>
        <time>2022-07-16T10:19:10.391Z</time>
      </trkpt>
      <trkpt lat="45.88633" lon="7.1881">
        <ele>2120</ele>
        <time>2022-07-16T10:19:21.831Z</time>
      </trkpt>
      <trkpt lat="45.88632" lon="7.18814">
        <ele>2121</ele>
        <time>2022-07-16T10:19:23.348Z</time>
      </trkpt>
      <trkpt lat="45.88624" lon="7.18817">
        <ele>2123</ele>
        <time>2022-07-16T10:19:27.589Z</time>
      </trkpt>
      <trkpt lat="45.88594" lon="7.18749">
        <ele>2119</ele>
        <time>2022-07-16T10:19:31.819Z</time>
      </trkpt>
      <trkpt lat="45.88505" lon="7.18566">
        <ele>2147</ele>
        <time>2022-07-16T10:20:51.529Z</time>
      </trkpt>
      <trkpt lat="45.8849" lon="7.18549">
        <ele>2150</ele>
        <time>2022-07-16T10:21:01.330Z</time>
      </trkpt>
      <trkpt lat="45.88473" lon="7.18536">
        <ele>2152</ele>
        <time>2022-07-16T10:21:08.250Z</time>
      </trkpt>
      <trkpt lat="45.88458" lon="7.18532">
        <ele>2154</ele>
        <time>2022-07-16T10:21:15.819Z</time>
      </trkpt>
      <trkpt lat="45.88417" lon="7.18529">
        <ele>2157</ele>
        <time>2022-07-16T10:21:27.066Z</time>
      </trkpt>
      <trkpt lat="45.88302" lon="7.18545">
        <ele>2179</ele>
        <time>2022-07-16T10:22:26.331Z</time>
      </trkpt>
      <trkpt lat="45.88282" lon="7.18545">
        <ele>2181</ele>
        <time>2022-07-16T10:22:33.248Z</time>
      </trkpt>
      <trkpt lat="45.88265" lon="7.18537">
        <ele>2181</ele>
        <time>2022-07-16T10:22:35.627Z</time>
      </trkpt>
      <trkpt lat="45.88256" lon="7.1853">
        <ele>2181</ele>
        <time>2022-07-16T10:22:36.988Z</time>
      </trkpt>
      <trkpt lat="45.8818" lon="7.18447">
        <ele>2185</ele>
        <time>2022-07-16T10:22:57.591Z</time>
      </trkpt>
      <trkpt lat="45.88161" lon="7.18434">
        <ele>2185</ele>
        <time>2022-07-16T10:23:00.390Z</time>
      </trkpt>
      <trkpt lat="45.88127" lon="7.18418">
        <ele>2189</ele>
        <time>2022-07-16T10:23:14.371Z</time>
      </trkpt>
      <trkpt lat="45.88082" lon="7.18405">
        <ele>2196</ele>
        <time>2022-07-16T10:23:37.916Z</time>
      </trkpt>
      <trkpt lat="45.88074" lon="7.184">
        <ele>2197</ele>
        <time>2022-07-16T10:23:41.434Z</time>
      </trkpt>
      <trkpt lat="45.8807" lon="7.18394">
        <ele>2197</ele>
        <time>2022-07-16T10:23:42.203Z</time>
      </trkpt>
      <trkpt lat="45.88058" lon="7.18275">
        <ele>2200</ele>
        <time>2022-07-16T10:23:58.776Z</time>
      </trkpt>
      <trkpt lat="45.88051" lon="7.18262">
        <ele>2202</ele>
        <time>2022-07-16T10:24:04.644Z</time>
      </trkpt>
      <trkpt lat="45.88042" lon="7.18263">
        <ele>2203</ele>
        <time>2022-07-16T10:24:08.133Z</time>
      </trkpt>
      <trkpt lat="45.88013" lon="7.18314">
        <ele>2201</ele>
        <time>2022-07-16T10:24:11.973Z</time>
      </trkpt>
      <trkpt lat="45.88006" lon="7.18318">
        <ele>2201</ele>
        <time>2022-07-16T10:24:12.975Z</time>
      </trkpt>
      <trkpt lat="45.88" lon="7.18316">
        <ele>2202</ele>
        <time>2022-07-16T10:24:16.134Z</time>
      </trkpt>
      <trkpt lat="45.87995" lon="7.18309">
        <ele>2203</ele>
        <time>2022-07-16T10:24:19.716Z</time>
      </trkpt>
      <trkpt lat="45.87977" lon="7.18257">
        <ele>2210</ele>
        <time>2022-07-16T10:24:40.453Z</time>
      </trkpt>
      <trkpt lat="45.87965" lon="7.18247">
        <ele>2212</ele>
        <time>2022-07-16T10:24:47.570Z</time>
      </trkpt>
      <trkpt lat="45.87958" lon="7.18246">
        <ele>2213</ele>
        <time>2022-07-16T10:24:51.178Z</time>
      </trkpt>
      <trkpt lat="45.87949" lon="7.18248">
        <ele>2214</ele>
        <time>2022-07-16T10:24:54.660Z</time>
      </trkpt>
      <trkpt lat="45.8789" lon="7.18278">
        <ele>2221</ele>
        <time>2022-07-16T10:25:19.129Z</time>
      </trkpt>
      <trkpt lat="45.87856" lon="7.18292">
        <ele>2225</ele>
        <time>2022-07-16T10:25:33.149Z</time>
      </trkpt>
      <trkpt lat="45.87775" lon="7.18309">
        <ele>2234</ele>
        <time>2022-07-16T10:26:04.497Z</time>
      </trkpt>
      <trkpt lat="45.87765" lon="7.18307">
        <ele>2236</ele>
        <time>2022-07-16T10:26:09.676Z</time>
      </trkpt>
      <trkpt lat="45.8775" lon="7.18297">
        <ele>2239</ele>
        <time>2022-07-16T10:26:18.158Z</time>
      </trkpt>
      <trkpt lat="45.87714" lon="7.18263">
        <ele>2244</ele>
        <time>2022-07-16T10:26:35.821Z</time>
      </trkpt>
      <trkpt lat="45.8763" lon="7.18197">
        <ele>2252</ele>
        <time>2022-07-16T10:27:04.359Z</time>
      </trkpt>
      <trkpt lat="45.87607" lon="7.18171">
        <ele>2254</ele>
        <time>2022-07-16T10:27:12.095Z</time>
      </trkpt>
      <trkpt lat="45.87594" lon="7.18161">
        <ele>2255</ele>
        <time>2022-07-16T10:27:15.977Z</time>
      </trkpt>
      <trkpt lat="45.87533" lon="7.18131">
        <ele>2263</ele>
        <time>2022-07-16T10:27:45.110Z</time>
      </trkpt>
      <trkpt lat="45.87489" lon="7.18123">
        <ele>2266</ele>
        <time>2022-07-16T10:27:56.771Z</time>
      </trkpt>
      <trkpt lat="45.87445" lon="7.18095">
        <ele>2274</ele>
        <time>2022-07-16T10:28:21.457Z</time>
      </trkpt>
      <trkpt lat="45.87404" lon="7.18092">
        <ele>2280</ele>
        <time>2022-07-16T10:28:42.515Z</time>
      </trkpt>
      <trkpt lat="45.87397" lon="7.18086">
        <ele>2281</ele>
        <time>2022-07-16T10:28:46.133Z</time>
      </trkpt>
      <trkpt lat="45.87396" lon="7.18073">
        <ele>2285</ele>
        <time>2022-07-16T10:28:50.804Z</time>
      </trkpt>
      <trkpt lat="45.87403" lon="7.18061">
        <ele>2287</ele>
        <time>2022-07-16T10:28:56.395Z</time>
      </trkpt>
      <trkpt lat="45.87433" lon="7.18031">
        <ele>2292</ele>
        <time>2022-07-16T10:29:15.146Z</time>
      </trkpt>
      <trkpt lat="45.87453" lon="7.18015">
        <ele>2294</ele>
        <time>2022-07-16T10:29:22.195Z</time>
      </trkpt>
      <trkpt lat="45.87471" lon="7.1801">
        <ele>2293</ele>
        <time>2022-07-16T10:29:23.591Z</time>
      </trkpt>
      <trkpt lat="45.87491" lon="7.1801">
        <ele>2290</ele>
        <time>2022-07-16T10:29:25.101Z</time>
      </trkpt>
      <trkpt lat="45.87515" lon="7.18014">
        <ele>2290</ele>
        <time>2022-07-16T10:29:28.314Z</time>
      </trkpt>
      <trkpt lat="45.87525" lon="7.18012">
        <ele>2291</ele>
        <time>2022-07-16T10:29:31.773Z</time>
      </trkpt>
      <trkpt lat="45.87558" lon="7.17995">
        <ele>2301</ele>
        <time>2022-07-16T10:29:49.756Z</time>
      </trkpt>
      <trkpt lat="45.87571" lon="7.17993">
        <ele>2303</ele>
        <time>2022-07-16T10:29:56.463Z</time>
      </trkpt>
      <trkpt lat="45.87611" lon="7.18018">
        <ele>2298</ele>
        <time>2022-07-16T10:29:59.755Z</time>
      </trkpt>
      <trkpt lat="45.87645" lon="7.18029">
        <ele>2297</ele>
        <time>2022-07-16T10:30:03.139Z</time>
      </trkpt>
      <trkpt lat="45.87671" lon="7.18029">
        <ele>2300</ele>
        <time>2022-07-16T10:30:13.716Z</time>
      </trkpt>
      <trkpt lat="45.87677" lon="7.18028">
        <ele>2300</ele>
        <time>2022-07-16T10:30:14.520Z</time>
      </trkpt>
      <trkpt lat="45.87681" lon="7.18024">
        <ele>2302</ele>
        <time>2022-07-16T10:30:17.020Z</time>
      </trkpt>
      <trkpt lat="45.87682" lon="7.18013">
        <ele>2307</ele>
        <time>2022-07-16T10:30:20.981Z</time>
      </trkpt>
      <trkpt lat="45.87676" lon="7.18003">
        <ele>2311</ele>
        <time>2022-07-16T10:30:25.696Z</time>
      </trkpt>
      <trkpt lat="45.87667" lon="7.18002">
        <ele>2312</ele>
        <time>2022-07-16T10:30:29.184Z</time>
      </trkpt>
      <trkpt lat="45.87653" lon="7.18005">
        <ele>2309</ele>
        <time>2022-07-16T10:30:30.252Z</time>
      </trkpt>
      <trkpt lat="45.87634" lon="7.18002">
        <ele>2307</ele>
        <time>2022-07-16T10:30:31.695Z</time>
      </trkpt>
      <trkpt lat="45.87621" lon="7.17995">
        <ele>2309</ele>
        <time>2022-07-16T10:30:38.817Z</time>
      </trkpt>
      <trkpt lat="45.87564" lon="7.17931">
        <ele>2333</ele>
        <time>2022-07-16T10:31:15.928Z</time>
      </trkpt>
      <trkpt lat="45.87537" lon="7.17924">
        <ele>2332</ele>
        <time>2022-07-16T10:31:18.389Z</time>
      </trkpt>
      <trkpt lat="45.87512" lon="7.17932">
        <ele>2324</ele>
        <time>2022-07-16T10:31:20.322Z</time>
      </trkpt>
      <trkpt lat="45.87501" lon="7.17928">
        <ele>2324</ele>
        <time>2022-07-16T10:31:21.831Z</time>
      </trkpt>
      <trkpt lat="45.87471" lon="7.17909">
        <ele>2337</ele>
        <time>2022-07-16T10:31:38.649Z</time>
      </trkpt>
      <trkpt lat="45.87465" lon="7.1791">
        <ele>2338</ele>
        <time>2022-07-16T10:31:41.747Z</time>
      </trkpt>
      <trkpt lat="45.87439" lon="7.17928">
        <ele>2332</ele>
        <time>2022-07-16T10:31:43.926Z</time>
      </trkpt>
      <trkpt lat="45.87403" lon="7.17923">
        <ele>2339</ele>
        <time>2022-07-16T10:32:02.478Z</time>
      </trkpt>
      <trkpt lat="45.87379" lon="7.17912">
        <ele>2348</ele>
        <time>2022-07-16T10:32:15.400Z</time>
      </trkpt>
      <trkpt lat="45.87358" lon="7.17913">
        <ele>2350</ele>
        <time>2022-07-16T10:32:22.341Z</time>
      </trkpt>
      <trkpt lat="45.87341" lon="7.17919">
        <ele>2350</ele>
        <time>2022-07-16T10:32:24.669Z</time>
      </trkpt>
      <trkpt lat="45.87322" lon="7.1792">
        <ele>2352</ele>
        <time>2022-07-16T10:32:31.595Z</time>
      </trkpt>
      <trkpt lat="45.87305" lon="7.17917">
        <ele>2355</ele>
        <time>2022-07-16T10:32:40.381Z</time>
      </trkpt>
      <trkpt lat="45.87295" lon="7.17911">
        <ele>2358</ele>
        <time>2022-07-16T10:32:45.940Z</time>
      </trkpt>
      <trkpt lat="45.87276" lon="7.17906">
        <ele>2361</ele>
        <time>2022-07-16T10:32:55.848Z</time>
      </trkpt>
      <trkpt lat="45.87263" lon="7.1791">
        <ele>2361</ele>
        <time>2022-07-16T10:32:57.616Z</time>
      </trkpt>
      <trkpt lat="45.87212" lon="7.17954">
        <ele>2348</ele>
        <time>2022-07-16T10:33:02.106Z</time>
      </trkpt>
      <trkpt lat="45.872" lon="7.17952">
        <ele>2350</ele>
        <time>2022-07-16T10:33:08.303Z</time>
      </trkpt>
      <trkpt lat="45.87191" lon="7.17943">
        <ele>2353</ele>
        <time>2022-07-16T10:33:13.928Z</time>
      </trkpt>
      <trkpt lat="45.87149" lon="7.1789">
        <ele>2369</ele>
        <time>2022-07-16T10:33:42.607Z</time>
      </trkpt>
      <trkpt lat="45.87114" lon="7.17839">
        <ele>2378</ele>
        <time>2022-07-16T10:34:08.182Z</time>
      </trkpt>
      <trkpt lat="45.8704" lon="7.17722">
        <ele>2391</ele>
        <time>2022-07-16T10:34:54.405Z</time>
      </trkpt>
      <trkpt lat="45.8704" lon="7.17708">
        <ele>2395</ele>
        <time>2022-07-16T10:34:59.405Z</time>
      </trkpt>
      <trkpt lat="45.87043" lon="7.17704">
        <ele>2397</ele>
        <time>2022-07-16T10:35:01.505Z</time>
      </trkpt>
      <trkpt lat="45.87049" lon="7.17703">
        <ele>2400</ele>
        <time>2022-07-16T10:35:04.603Z</time>
      </trkpt>
      <trkpt lat="45.87065" lon="7.17737">
        <ele>2395</ele>
        <time>2022-07-16T10:35:06.760Z</time>
      </trkpt>
      <trkpt lat="45.8708" lon="7.17758">
        <ele>2394</ele>
        <time>2022-07-16T10:35:08.451Z</time>
      </trkpt>
      <trkpt lat="45.87122" lon="7.17795">
        <ele>2392</ele>
        <time>2022-07-16T10:35:12.697Z</time>
      </trkpt>
      <trkpt lat="45.87162" lon="7.1784">
        <ele>2389</ele>
        <time>2022-07-16T10:35:16.426Z</time>
      </trkpt>
      <trkpt lat="45.87172" lon="7.17844">
        <ele>2388</ele>
        <time>2022-07-16T10:35:17.209Z</time>
      </trkpt>
      <trkpt lat="45.8718" lon="7.17838">
        <ele>2389</ele>
        <time>2022-07-16T10:35:20.697Z</time>
      </trkpt>
      <trkpt lat="45.87182" lon="7.17825">
        <ele>2392</ele>
        <time>2022-07-16T10:35:25.452Z</time>
      </trkpt>
      <trkpt lat="45.87178" lon="7.17811">
        <ele>2396</ele>
        <time>2022-07-16T10:35:30.857Z</time>
      </trkpt>
      <trkpt lat="45.87114" lon="7.17754">
        <ele>2401</ele>
        <time>2022-07-16T10:35:50.476Z</time>
      </trkpt>
      <trkpt lat="45.871" lon="7.17738">
        <ele>2404</ele>
        <time>2022-07-16T10:35:59.653Z</time>
      </trkpt>
      <trkpt lat="45.87085" lon="7.17714">
        <ele>2409</ele>
        <time>2022-07-16T10:36:11.172Z</time>
      </trkpt>
      <trkpt lat="45.87078" lon="7.17695">
        <ele>2413</ele>
        <time>2022-07-16T10:36:18.849Z</time>
      </trkpt>
      <trkpt lat="45.87073" lon="7.17661">
        <ele>2422</ele>
        <time>2022-07-16T10:36:31.261Z</time>
      </trkpt>
      <trkpt lat="45.87067" lon="7.17642">
        <ele>2425</ele>
        <time>2022-07-16T10:36:38.712Z</time>
      </trkpt>
      <trkpt lat="45.87025" lon="7.17578">
        <ele>2424</ele>
        <time>2022-07-16T10:36:45.558Z</time>
      </trkpt>
      <trkpt lat="45.87015" lon="7.17558">
        <ele>2424</ele>
        <time>2022-07-16T10:36:47.838Z</time>
      </trkpt>
      <trkpt lat="45.87013" lon="7.17511">
        <ele>2434</ele>
        <time>2022-07-16T10:37:04.656Z</time>
      </trkpt>
      <trkpt lat="45.86997" lon="7.17456">
        <ele>2443</ele>
        <time>2022-07-16T10:37:25.945Z</time>
      </trkpt>
      <trkpt lat="45.86988" lon="7.17408">
        <ele>2453</ele>
        <time>2022-07-16T10:37:43.699Z</time>
      </trkpt>
      <trkpt lat="45.8694" lon="7.17313">
        <ele>2456</ele>
        <time>2022-07-16T10:38:00.074Z</time>
      </trkpt>
      <trkpt lat="45.86939" lon="7.17296">
        <ele>2460</ele>
        <time>2022-07-16T10:38:06.167Z</time>
      </trkpt>
      <trkpt lat="45.86943" lon="7.17244">
        <ele>2475</ele>
        <time>2022-07-16T10:38:24.853Z</time>
      </trkpt>
      <trkpt lat="45.86938" lon="7.17212">
        <ele>2477</ele>
        <time>2022-07-16T10:38:31.897Z</time>
      </trkpt>
      <trkpt lat="45.86916" lon="7.17173">
        <ele>2472</ele>
        <time>2022-07-16T10:38:34.535Z</time>
      </trkpt>
      <trkpt lat="45.86908" lon="7.17154">
        <ele>2475</ele>
        <time>2022-07-16T10:38:42.466Z</time>
      </trkpt>
      <trkpt lat="45.86894" lon="7.17091">
        <ele>2478</ele>
        <time>2022-07-16T10:38:54.353Z</time>
      </trkpt>
      <trkpt lat="45.86911" lon="7.17043">
        <ele>2475</ele>
        <time>2022-07-16T10:38:57.183Z</time>
      </trkpt>
      <trkpt lat="45.86932" lon="7.17006">
        <ele>2478</ele>
        <time>2022-07-16T10:39:07.682Z</time>
      </trkpt>
      <trkpt lat="45.8694" lon="7.1698">
        <ele>2478</ele>
        <time>2022-07-16T10:39:10.314Z</time>
      </trkpt>
      <trkpt lat="45.86957" lon="7.16889">
        <ele>2476</ele>
        <time>2022-07-16T10:39:16.564Z</time>
      </trkpt>
      <trkpt lat="45.86962" lon="7.16847">
        <ele>2476</ele>
        <time>2022-07-16T10:39:20.509Z</time>
      </trkpt>
      <trkpt lat="45.86932" lon="7.16727">
        <ele>2465</ele>
        <time>2022-07-16T10:39:27.210Z</time>
      </trkpt>
      <trkpt lat="45.86927" lon="7.16631">
        <ele>2463</ele>
        <time>2022-07-16T10:39:33.639Z</time>
      </trkpt>
      <trkpt lat="45.86923" lon="7.16609">
        <ele>2461</ele>
        <time>2022-07-16T10:39:34.834Z</time>
      </trkpt>
      <trkpt lat="45.86909" lon="7.16573">
        <ele>2459</ele>
        <time>2022-07-16T10:39:37.001Z</time>
      </trkpt>
      <trkpt lat="45.86896" lon="7.16558">
        <ele>2459</ele>
        <time>2022-07-16T10:39:39.219Z</time>
      </trkpt>
      <trkpt lat="45.8688" lon="7.16546">
        <ele>2458</ele>
        <time>2022-07-16T10:39:40.584Z</time>
      </trkpt>
      <trkpt lat="45.86867" lon="7.16538">
        <ele>2457</ele>
        <time>2022-07-16T10:39:41.651Z</time>
      </trkpt>
      <trkpt lat="45.86845" lon="7.16531">
        <ele>2455</ele>
        <time>2022-07-16T10:39:43.352Z</time>
      </trkpt>
      <trkpt lat="45.86818" lon="7.16528">
        <ele>2454</ele>
        <time>2022-07-16T10:39:45.769Z</time>
      </trkpt>
      <trkpt lat="45.86787" lon="7.1652">
        <ele>2454</ele>
        <time>2022-07-16T10:39:49.958Z</time>
      </trkpt>
      <trkpt lat="45.86757" lon="7.16504">
        <ele>2453</ele>
        <time>2022-07-16T10:39:52.982Z</time>
      </trkpt>
      <trkpt lat="45.86733" lon="7.16486">
        <ele>2451</ele>
        <time>2022-07-16T10:39:55.026Z</time>
      </trkpt>
      <trkpt lat="45.86724" lon="7.16475">
        <ele>2449</ele>
        <time>2022-07-16T10:39:55.918Z</time>
      </trkpt>
      <trkpt lat="45.86714" lon="7.16453">
        <ele>2445</ele>
        <time>2022-07-16T10:39:57.299Z</time>
      </trkpt>
      <trkpt lat="45.86706" lon="7.16408">
        <ele>2438</ele>
        <time>2022-07-16T10:39:59.740Z</time>
      </trkpt>
      <trkpt lat="45.86705" lon="7.16394">
        <ele>2435</ele>
        <time>2022-07-16T10:40:00.479Z</time>
      </trkpt>
      <trkpt lat="45.86708" lon="7.16385">
        <ele>2434</ele>
        <time>2022-07-16T10:40:01.004Z</time>
      </trkpt>
      <trkpt lat="45.86735" lon="7.16328">
        <ele>2434</ele>
        <time>2022-07-16T10:40:07.388Z</time>
      </trkpt>
      <trkpt lat="45.86738" lon="7.16317">
        <ele>2433</ele>
        <time>2022-07-16T10:40:08.008Z</time>
      </trkpt>
      <trkpt lat="45.86742" lon="7.16276">
        <ele>2426</ele>
        <time>2022-07-16T10:40:10.184Z</time>
      </trkpt>
      <trkpt lat="45.8675" lon="7.16248">
        <ele>2424</ele>
        <time>2022-07-16T10:40:11.775Z</time>
      </trkpt>
      <trkpt lat="45.86781" lon="7.16181">
        <ele>2405</ele>
        <time>2022-07-16T10:40:16.002Z</time>
      </trkpt>
      <trkpt lat="45.86795" lon="7.1616">
        <ele>2400</ele>
        <time>2022-07-16T10:40:17.530Z</time>
      </trkpt>
      <trkpt lat="45.86802" lon="7.16156">
        <ele>2400</ele>
        <time>2022-07-16T10:40:18.532Z</time>
      </trkpt>
      <trkpt lat="45.8686" lon="7.16151">
        <ele>2421</ele>
        <time>2022-07-16T10:40:48.337Z</time>
      </trkpt>
      <trkpt lat="45.86878" lon="7.16147">
        <ele>2426</ele>
        <time>2022-07-16T10:40:57.680Z</time>
      </trkpt>
      <trkpt lat="45.86885" lon="7.16142">
        <ele>2427</ele>
        <time>2022-07-16T10:41:01.394Z</time>
      </trkpt>
      <trkpt lat="45.87042" lon="7.15852">
        <ele>2402</ele>
        <time>2022-07-16T10:41:20.699Z</time>
      </trkpt>
      <trkpt lat="45.87055" lon="7.15817">
        <ele>2398</ele>
        <time>2022-07-16T10:41:22.783Z</time>
      </trkpt>
      <trkpt lat="45.87058" lon="7.15803">
        <ele>2397</ele>
        <time>2022-07-16T10:41:23.553Z</time>
      </trkpt>
      <trkpt lat="45.87058" lon="7.1578">
        <ele>2394</ele>
        <time>2022-07-16T10:41:24.762Z</time>
      </trkpt>
      <trkpt lat="45.87054" lon="7.15758">
        <ele>2390</ele>
        <time>2022-07-16T10:41:25.957Z</time>
      </trkpt>
      <trkpt lat="45.87045" lon="7.15726">
        <ele>2390</ele>
        <time>2022-07-16T10:41:29.152Z</time>
      </trkpt>
      <trkpt lat="45.87032" lon="7.15694">
        <ele>2392</ele>
        <time>2022-07-16T10:41:36.471Z</time>
      </trkpt>
      <trkpt lat="45.87026" lon="7.15687">
        <ele>2393</ele>
        <time>2022-07-16T10:41:40.216Z</time>
      </trkpt>
      <trkpt lat="45.87017" lon="7.15685">
        <ele>2392</ele>
        <time>2022-07-16T10:41:40.903Z</time>
      </trkpt>
      <trkpt lat="45.86959" lon="7.15697">
        <ele>2376</ele>
        <time>2022-07-16T10:41:45.326Z</time>
      </trkpt>
      <trkpt lat="45.86934" lon="7.15698">
        <ele>2369</ele>
        <time>2022-07-16T10:41:47.214Z</time>
      </trkpt>
      <trkpt lat="45.8692" lon="7.15688">
        <ele>2367</ele>
        <time>2022-07-16T10:41:48.394Z</time>
      </trkpt>
      <trkpt lat="45.86913" lon="7.15677">
        <ele>2366</ele>
        <time>2022-07-16T10:41:49.177Z</time>
      </trkpt>
      <trkpt lat="45.86907" lon="7.1566">
        <ele>2366</ele>
        <time>2022-07-16T10:41:50.942Z</time>
      </trkpt>
      <trkpt lat="45.86906" lon="7.15632">
        <ele>2366</ele>
        <time>2022-07-16T10:41:53.538Z</time>
      </trkpt>
      <trkpt lat="45.86909" lon="7.15613">
        <ele>2368</ele>
        <time>2022-07-16T10:42:00.496Z</time>
      </trkpt>
      <trkpt lat="45.86918" lon="7.15587">
        <ele>2371</ele>
        <time>2022-07-16T10:42:10.867Z</time>
      </trkpt>
      <trkpt lat="45.86923" lon="7.15563">
        <ele>2372</ele>
        <time>2022-07-16T10:42:15.128Z</time>
      </trkpt>
      <trkpt lat="45.86917" lon="7.15505">
        <ele>2366</ele>
        <time>2022-07-16T10:42:18.209Z</time>
      </trkpt>
      <trkpt lat="45.86927" lon="7.15411">
        <ele>2362</ele>
        <time>2022-07-16T10:42:23.015Z</time>
      </trkpt>
      <trkpt lat="45.86928" lon="7.15388">
        <ele>2365</ele>
        <time>2022-07-16T10:42:31.246Z</time>
      </trkpt>
      <trkpt lat="45.86926" lon="7.15383">
        <ele>2365</ele>
        <time>2022-07-16T10:42:31.780Z</time>
      </trkpt>
      <trkpt lat="45.86917" lon="7.15374">
        <ele>2363</ele>
        <time>2022-07-16T10:42:32.608Z</time>
      </trkpt>
      <trkpt lat="45.8691" lon="7.15375">
        <ele>2362</ele>
        <time>2022-07-16T10:42:33.139Z</time>
      </trkpt>
      <trkpt lat="45.8685" lon="7.15404">
        <ele>2350</ele>
        <time>2022-07-16T10:42:37.917Z</time>
      </trkpt>
      <trkpt lat="45.86828" lon="7.15411">
        <ele>2345</ele>
        <time>2022-07-16T10:42:39.617Z</time>
      </trkpt>
      <trkpt lat="45.86818" lon="7.15412">
        <ele>2343</ele>
        <time>2022-07-16T10:42:40.374Z</time>
      </trkpt>
      <trkpt lat="45.86803" lon="7.15404">
        <ele>2340</ele>
        <time>2022-07-16T10:42:41.582Z</time>
      </trkpt>
      <trkpt lat="45.86791" lon="7.15389">
        <ele>2339</ele>
        <time>2022-07-16T10:42:42.714Z</time>
      </trkpt>
      <trkpt lat="45.86783" lon="7.1537">
        <ele>2338</ele>
        <time>2022-07-16T10:42:43.800Z</time>
      </trkpt>
      <trkpt lat="45.86771" lon="7.153">
        <ele>2335</ele>
        <time>2022-07-16T10:42:47.462Z</time>
      </trkpt>
      <trkpt lat="45.86774" lon="7.1527">
        <ele>2335</ele>
        <time>2022-07-16T10:42:50.269Z</time>
      </trkpt>
      <trkpt lat="45.86786" lon="7.15224">
        <ele>2340</ele>
        <time>2022-07-16T10:43:07.814Z</time>
      </trkpt>
      <trkpt lat="45.86785" lon="7.15205">
        <ele>2341</ele>
        <time>2022-07-16T10:43:11.514Z</time>
      </trkpt>
      <trkpt lat="45.86778" lon="7.15193">
        <ele>2340</ele>
        <time>2022-07-16T10:43:12.337Z</time>
      </trkpt>
      <trkpt lat="45.86767" lon="7.15181">
        <ele>2337</ele>
        <time>2022-07-16T10:43:13.380Z</time>
      </trkpt>
      <trkpt lat="45.86737" lon="7.15155">
        <ele>2335</ele>
        <time>2022-07-16T10:43:15.992Z</time>
      </trkpt>
      <trkpt lat="45.86727" lon="7.15151">
        <ele>2334</ele>
        <time>2022-07-16T10:43:16.776Z</time>
      </trkpt>
      <trkpt lat="45.86722" lon="7.15152">
        <ele>2333</ele>
        <time>2022-07-16T10:43:17.157Z</time>
      </trkpt>
      <trkpt lat="45.86693" lon="7.15168">
        <ele>2324</ele>
        <time>2022-07-16T10:43:19.501Z</time>
      </trkpt>
      <trkpt lat="45.86688" lon="7.15168">
        <ele>2323</ele>
        <time>2022-07-16T10:43:19.879Z</time>
      </trkpt>
      <trkpt lat="45.8667" lon="7.15146">
        <ele>2324</ele>
        <time>2022-07-16T10:43:25.011Z</time>
      </trkpt>
      <trkpt lat="45.8666" lon="7.15143">
        <ele>2324</ele>
        <time>2022-07-16T10:43:26.370Z</time>
      </trkpt>
      <trkpt lat="45.86655" lon="7.15147">
        <ele>2324</ele>
        <time>2022-07-16T10:43:27.131Z</time>
      </trkpt>
      <trkpt lat="45.86608" lon="7.15244">
        <ele>2315</ele>
        <time>2022-07-16T10:43:33.341Z</time>
      </trkpt>
      <trkpt lat="45.86553" lon="7.15344">
        <ele>2308</ele>
        <time>2022-07-16T10:43:40.039Z</time>
      </trkpt>
      <trkpt lat="45.86535" lon="7.15372">
        <ele>2307</ele>
        <time>2022-07-16T10:43:42.390Z</time>
      </trkpt>
      <trkpt lat="45.86497" lon="7.15404">
        <ele>2303</ele>
        <time>2022-07-16T10:43:45.715Z</time>
      </trkpt>
      <trkpt lat="45.86472" lon="7.1542">
        <ele>2300</ele>
        <time>2022-07-16T10:43:47.781Z</time>
      </trkpt>
      <trkpt lat="45.86444" lon="7.15427">
        <ele>2300</ele>
        <time>2022-07-16T10:43:51.560Z</time>
      </trkpt>
      <trkpt lat="45.86431" lon="7.15434">
        <ele>2299</ele>
        <time>2022-07-16T10:43:52.608Z</time>
      </trkpt>
      <trkpt lat="45.86427" lon="7.15448">
        <ele>2297</ele>
        <time>2022-07-16T10:43:53.403Z</time>
      </trkpt>
      <trkpt lat="45.86443" lon="7.15518">
        <ele>2287</ele>
        <time>2022-07-16T10:43:57.276Z</time>
      </trkpt>
      <trkpt lat="45.8644" lon="7.15542">
        <ele>2284</ele>
        <time>2022-07-16T10:43:58.557Z</time>
      </trkpt>
      <trkpt lat="45.86428" lon="7.15573">
        <ele>2280</ele>
        <time>2022-07-16T10:44:00.421Z</time>
      </trkpt>
      <trkpt lat="45.86424" lon="7.15577">
        <ele>2279</ele>
        <time>2022-07-16T10:44:00.789Z</time>
      </trkpt>
      <trkpt lat="45.86415" lon="7.15577">
        <ele>2279</ele>
        <time>2022-07-16T10:44:01.986Z</time>
      </trkpt>
      <trkpt lat="45.86397" lon="7.15561">
        <ele>2278</ele>
        <time>2022-07-16T10:44:03.703Z</time>
      </trkpt>
      <trkpt lat="45.86361" lon="7.15548">
        <ele>2273</ele>
        <time>2022-07-16T10:44:06.504Z</time>
      </trkpt>
      <trkpt lat="45.86348" lon="7.15546">
        <ele>2271</ele>
        <time>2022-07-16T10:44:07.491Z</time>
      </trkpt>
      <trkpt lat="45.86338" lon="7.15551">
        <ele>2268</ele>
        <time>2022-07-16T10:44:08.290Z</time>
      </trkpt>
      <trkpt lat="45.86337" lon="7.15566">
        <ele>2267</ele>
        <time>2022-07-16T10:44:09.082Z</time>
      </trkpt>
      <trkpt lat="45.86343" lon="7.15579">
        <ele>2266</ele>
        <time>2022-07-16T10:44:09.902Z</time>
      </trkpt>
      <trkpt lat="45.86375" lon="7.15591">
        <ele>2270</ele>
        <time>2022-07-16T10:44:24.273Z</time>
      </trkpt>
      <trkpt lat="45.86389" lon="7.15606">
        <ele>2271</ele>
        <time>2022-07-16T10:44:28.537Z</time>
      </trkpt>
      <trkpt lat="45.86397" lon="7.15619">
        <ele>2271</ele>
        <time>2022-07-16T10:44:30.144Z</time>
      </trkpt>
      <trkpt lat="45.86411" lon="7.1565">
        <ele>2271</ele>
        <time>2022-07-16T10:44:33.565Z</time>
      </trkpt>
      <trkpt lat="45.86431" lon="7.15724">
        <ele>2265</ele>
        <time>2022-07-16T10:44:37.737Z</time>
      </trkpt>
      <trkpt lat="45.86443" lon="7.15741">
        <ele>2265</ele>
        <time>2022-07-16T10:44:39.979Z</time>
      </trkpt>
      <trkpt lat="45.86503" lon="7.15788">
        <ele>2264</ele>
        <time>2022-07-16T10:44:47.782Z</time>
      </trkpt>
      <trkpt lat="45.86538" lon="7.1581">
        <ele>2264</ele>
        <time>2022-07-16T10:44:52.863Z</time>
      </trkpt>
      <trkpt lat="45.86549" lon="7.15821">
        <ele>2264</ele>
        <time>2022-07-16T10:44:54.646Z</time>
      </trkpt>
      <trkpt lat="45.86554" lon="7.15834">
        <ele>2262</ele>
        <time>2022-07-16T10:44:55.426Z</time>
      </trkpt>
      <trkpt lat="45.86554" lon="7.15841">
        <ele>2262</ele>
        <time>2022-07-16T10:44:56.075Z</time>
      </trkpt>
      <trkpt lat="45.86542" lon="7.159">
        <ele>2255</ele>
        <time>2022-07-16T10:44:59.305Z</time>
      </trkpt>
      <trkpt lat="45.86536" lon="7.15914">
        <ele>2253</ele>
        <time>2022-07-16T10:45:00.169Z</time>
      </trkpt>
      <trkpt lat="45.86532" lon="7.15918">
        <ele>2252</ele>
        <time>2022-07-16T10:45:00.537Z</time>
      </trkpt>
      <trkpt lat="45.86483" lon="7.15921">
        <ele>2247</ele>
        <time>2022-07-16T10:45:04.238Z</time>
      </trkpt>
      <trkpt lat="45.86457" lon="7.1592">
        <ele>2245</ele>
        <time>2022-07-16T10:45:06.202Z</time>
      </trkpt>
      <trkpt lat="45.86425" lon="7.15914">
        <ele>2243</ele>
        <time>2022-07-16T10:45:08.515Z</time>
      </trkpt>
      <trkpt lat="45.8639" lon="7.15937">
        <ele>2238</ele>
        <time>2022-07-16T10:45:11.420Z</time>
      </trkpt>
      <trkpt lat="45.86326" lon="7.15946">
        <ele>2230</ele>
        <time>2022-07-16T10:45:16.274Z</time>
      </trkpt>
      <trkpt lat="45.86312" lon="7.15951">
        <ele>2228</ele>
        <time>2022-07-16T10:45:17.363Z</time>
      </trkpt>
      <trkpt lat="45.86308" lon="7.15959">
        <ele>2227</ele>
        <time>2022-07-16T10:45:17.880Z</time>
      </trkpt>
      <trkpt lat="45.86306" lon="7.1602">
        <ele>2229</ele>
        <time>2022-07-16T10:45:27.580Z</time>
      </trkpt>
      <trkpt lat="45.86302" lon="7.16029">
        <ele>2229</ele>
        <time>2022-07-16T10:45:28.569Z</time>
      </trkpt>
      <trkpt lat="45.86276" lon="7.16054">
        <ele>2228</ele>
        <time>2022-07-16T10:45:31.505Z</time>
      </trkpt>
      <trkpt lat="45.86265" lon="7.16068">
        <ele>2228</ele>
        <time>2022-07-16T10:45:33.460Z</time>
      </trkpt>
      <trkpt lat="45.86242" lon="7.16086">
        <ele>2226</ele>
        <time>2022-07-16T10:45:35.437Z</time>
      </trkpt>
      <trkpt lat="45.86221" lon="7.16088">
        <ele>2224</ele>
        <time>2022-07-16T10:45:37.025Z</time>
      </trkpt>
      <trkpt lat="45.86198" lon="7.16087">
        <ele>2221</ele>
        <time>2022-07-16T10:45:38.762Z</time>
      </trkpt>
      <trkpt lat="45.86183" lon="7.16078">
        <ele>2218</ele>
        <time>2022-07-16T10:45:39.989Z</time>
      </trkpt>
      <trkpt lat="45.86157" lon="7.16057">
        <ele>2213</ele>
        <time>2022-07-16T10:45:42.240Z</time>
      </trkpt>
      <trkpt lat="45.86127" lon="7.16044">
        <ele>2206</ele>
        <time>2022-07-16T10:45:44.605Z</time>
      </trkpt>
      <trkpt lat="45.8612" lon="7.16039">
        <ele>2204</ele>
        <time>2022-07-16T10:45:45.196Z</time>
      </trkpt>
      <trkpt lat="45.86115" lon="7.1603">
        <ele>2202</ele>
        <time>2022-07-16T10:45:45.801Z</time>
      </trkpt>
      <trkpt lat="45.86115" lon="7.16015">
        <ele>2201</ele>
        <time>2022-07-16T10:45:46.589Z</time>
      </trkpt>
      <trkpt lat="45.86118" lon="7.16002">
        <ele>2201</ele>
        <time>2022-07-16T10:45:47.857Z</time>
      </trkpt>
      <trkpt lat="45.86168" lon="7.15934">
        <ele>2207</ele>
        <time>2022-07-16T10:46:09.019Z</time>
      </trkpt>
      <trkpt lat="45.86172" lon="7.15923">
        <ele>2206</ele>
        <time>2022-07-16T10:46:09.671Z</time>
      </trkpt>
      <trkpt lat="45.86169" lon="7.15907">
        <ele>2206</ele>
        <time>2022-07-16T10:46:11.205Z</time>
      </trkpt>
      <trkpt lat="45.86161" lon="7.15892">
        <ele>2205</ele>
        <time>2022-07-16T10:46:12.199Z</time>
      </trkpt>
      <trkpt lat="45.86125" lon="7.15883">
        <ele>2200</ele>
        <time>2022-07-16T10:46:14.957Z</time>
      </trkpt>
      <trkpt lat="45.86114" lon="7.15875">
        <ele>2199</ele>
        <time>2022-07-16T10:46:15.887Z</time>
      </trkpt>
      <trkpt lat="45.86091" lon="7.15875">
        <ele>2195</ele>
        <time>2022-07-16T10:46:17.623Z</time>
      </trkpt>
      <trkpt lat="45.86082" lon="7.15873">
        <ele>2194</ele>
        <time>2022-07-16T10:46:18.310Z</time>
      </trkpt>
      <trkpt lat="45.86074" lon="7.15868">
        <ele>2192</ele>
        <time>2022-07-16T10:46:18.969Z</time>
      </trkpt>
      <trkpt lat="45.86059" lon="7.1585">
        <ele>2189</ele>
        <time>2022-07-16T10:46:20.444Z</time>
      </trkpt>
      <trkpt lat="45.86047" lon="7.15829">
        <ele>2185</ele>
        <time>2022-07-16T10:46:21.872Z</time>
      </trkpt>
      <trkpt lat="45.86042" lon="7.15808">
        <ele>2178</ele>
        <time>2022-07-16T10:46:23.039Z</time>
      </trkpt>
      <trkpt lat="45.86045" lon="7.15796">
        <ele>2176</ele>
        <time>2022-07-16T10:46:23.709Z</time>
      </trkpt>
      <trkpt lat="45.86049" lon="7.1579">
        <ele>2176</ele>
        <time>2022-07-16T10:46:24.478Z</time>
      </trkpt>
      <trkpt lat="45.86073" lon="7.15765">
        <ele>2178</ele>
        <time>2022-07-16T10:46:32.263Z</time>
      </trkpt>
      <trkpt lat="45.86113" lon="7.15729">
        <ele>2183</ele>
        <time>2022-07-16T10:46:49.588Z</time>
      </trkpt>
      <trkpt lat="45.86123" lon="7.15709">
        <ele>2182</ele>
        <time>2022-07-16T10:46:50.853Z</time>
      </trkpt>
      <trkpt lat="45.86137" lon="7.15651">
        <ele>2179</ele>
        <time>2022-07-16T10:46:54.080Z</time>
      </trkpt>
      <trkpt lat="45.86141" lon="7.15625">
        <ele>2181</ele>
        <time>2022-07-16T10:47:01.024Z</time>
      </trkpt>
      <trkpt lat="45.86139" lon="7.15604">
        <ele>2181</ele>
        <time>2022-07-16T10:47:02.987Z</time>
      </trkpt>
      <trkpt lat="45.86128" lon="7.1558">
        <ele>2178</ele>
        <time>2022-07-16T10:47:04.497Z</time>
      </trkpt>
      <trkpt lat="45.861" lon="7.15552">
        <ele>2174</ele>
        <time>2022-07-16T10:47:07.072Z</time>
      </trkpt>
      <trkpt lat="45.86046" lon="7.15514">
        <ele>2165</ele>
        <time>2022-07-16T10:47:11.611Z</time>
      </trkpt>
      <trkpt lat="45.86015" lon="7.15503">
        <ele>2157</ele>
        <time>2022-07-16T10:47:14.021Z</time>
      </trkpt>
      <trkpt lat="45.85991" lon="7.15489">
        <ele>2153</ele>
        <time>2022-07-16T10:47:15.976Z</time>
      </trkpt>
      <trkpt lat="45.85967" lon="7.15457">
        <ele>2154</ele>
        <time>2022-07-16T10:47:22.023Z</time>
      </trkpt>
      <trkpt lat="45.85938" lon="7.15441">
        <ele>2144</ele>
        <time>2022-07-16T10:47:24.368Z</time>
      </trkpt>
      <trkpt lat="45.85918" lon="7.15426">
        <ele>2137</ele>
        <time>2022-07-16T10:47:26.071Z</time>
      </trkpt>
      <trkpt lat="45.85904" lon="7.15409">
        <ele>2136</ele>
        <time>2022-07-16T10:47:27.467Z</time>
      </trkpt>
      <trkpt lat="45.85877" lon="7.15347">
        <ele>2144</ele>
        <time>2022-07-16T10:47:53.589Z</time>
      </trkpt>
      <trkpt lat="45.85859" lon="7.15328">
        <ele>2134</ele>
        <time>2022-07-16T10:47:55.275Z</time>
      </trkpt>
      <trkpt lat="45.85851" lon="7.15314">
        <ele>2129</ele>
        <time>2022-07-16T10:47:56.227Z</time>
      </trkpt>
      <trkpt lat="45.85845" lon="7.15288">
        <ele>2129</ele>
        <time>2022-07-16T10:47:58.764Z</time>
      </trkpt>
      <trkpt lat="45.85851" lon="7.15204">
        <ele>2147</ele>
        <time>2022-07-16T10:48:28.929Z</time>
      </trkpt>
      <trkpt lat="45.85832" lon="7.15135">
        <ele>2129</ele>
        <time>2022-07-16T10:48:32.829Z</time>
      </trkpt>
      <trkpt lat="45.85807" lon="7.14875">
        <ele>2114</ele>
        <time>2022-07-16T10:48:46.625Z</time>
      </trkpt>
      <trkpt lat="45.8578" lon="7.1472">
        <ele>2108</ele>
        <time>2022-07-16T10:48:55.142Z</time>
      </trkpt>
      <trkpt lat="45.85766" lon="7.14658">
        <ele>2105</ele>
        <time>2022-07-16T10:48:58.294Z</time>
      </trkpt>
      <trkpt lat="45.85715" lon="7.1458">
        <ele>2093</ele>
        <time>2022-07-16T10:49:03.918Z</time>
      </trkpt>
      <trkpt lat="45.85693" lon="7.14524">
        <ele>2100</ele>
        <time>2022-07-16T10:49:26.887Z</time>
      </trkpt>
      <trkpt lat="45.85615" lon="7.14492">
        <ele>2084</ele>
        <time>2022-07-16T10:49:33.010Z</time>
      </trkpt>
      <trkpt lat="45.85592" lon="7.14475">
        <ele>2082</ele>
        <time>2022-07-16T10:49:34.962Z</time>
      </trkpt>
      <trkpt lat="45.85561" lon="7.14459">
        <ele>2081</ele>
        <time>2022-07-16T10:49:38.105Z</time>
      </trkpt>
      <trkpt lat="45.85543" lon="7.14441">
        <ele>2084</ele>
        <time>2022-07-16T10:49:49.356Z</time>
      </trkpt>
      <trkpt lat="45.85532" lon="7.14442">
        <ele>2081</ele>
        <time>2022-07-16T10:49:50.188Z</time>
      </trkpt>
      <trkpt lat="45.85529" lon="7.14449">
        <ele>2079</ele>
        <time>2022-07-16T10:49:50.620Z</time>
      </trkpt>
      <trkpt lat="45.8553" lon="7.1446">
        <ele>2076</ele>
        <time>2022-07-16T10:49:51.204Z</time>
      </trkpt>
      <trkpt lat="45.85537" lon="7.14468">
        <ele>2075</ele>
        <time>2022-07-16T10:49:51.879Z</time>
      </trkpt>
      <trkpt lat="45.85566" lon="7.14482">
        <ele>2075</ele>
        <time>2022-07-16T10:49:55.948Z</time>
      </trkpt>
      <trkpt lat="45.85608" lon="7.14526">
        <ele>2071</ele>
        <time>2022-07-16T10:49:59.872Z</time>
      </trkpt>
      <trkpt lat="45.85633" lon="7.14542">
        <ele>2074</ele>
        <time>2022-07-16T10:50:10.315Z</time>
      </trkpt>
      <trkpt lat="45.85652" lon="7.14566">
        <ele>2073</ele>
        <time>2022-07-16T10:50:12.518Z</time>
      </trkpt>
      <trkpt lat="45.85664" lon="7.14595">
        <ele>2069</ele>
        <time>2022-07-16T10:50:14.291Z</time>
      </trkpt>
      <trkpt lat="45.85672" lon="7.1466">
        <ele>2059</ele>
        <time>2022-07-16T10:50:17.761Z</time>
      </trkpt>
      <trkpt lat="45.85686" lon="7.14716">
        <ele>2057</ele>
        <time>2022-07-16T10:50:21.090Z</time>
      </trkpt>
      <trkpt lat="45.85698" lon="7.14778">
        <ele>2054</ele>
        <time>2022-07-16T10:50:24.473Z</time>
      </trkpt>
      <trkpt lat="45.85699" lon="7.14809">
        <ele>2049</ele>
        <time>2022-07-16T10:50:26.104Z</time>
      </trkpt>
      <trkpt lat="45.85695" lon="7.14874">
        <ele>2039</ele>
        <time>2022-07-16T10:50:29.534Z</time>
      </trkpt>
      <trkpt lat="45.85711" lon="7.15003">
        <ele>2036</ele>
        <time>2022-07-16T10:50:38.016Z</time>
      </trkpt>
      <trkpt lat="45.85706" lon="7.15072">
        <ele>2029</ele>
        <time>2022-07-16T10:50:41.663Z</time>
      </trkpt>
      <trkpt lat="45.85709" lon="7.15141">
        <ele>2029</ele>
        <time>2022-07-16T10:50:48.066Z</time>
      </trkpt>
      <trkpt lat="45.85688" lon="7.15271">
        <ele>2014</ele>
        <time>2022-07-16T10:50:55.081Z</time>
      </trkpt>
      <trkpt lat="45.85687" lon="7.15294">
        <ele>2010</ele>
        <time>2022-07-16T10:50:56.292Z</time>
      </trkpt>
      <trkpt lat="45.85698" lon="7.15324">
        <ele>2013</ele>
        <time>2022-07-16T10:51:07.381Z</time>
      </trkpt>
      <trkpt lat="45.85714" lon="7.15356">
        <ele>2018</ele>
        <time>2022-07-16T10:51:21.454Z</time>
      </trkpt>
      <trkpt lat="45.85721" lon="7.15384">
        <ele>2019</ele>
        <time>2022-07-16T10:51:26.218Z</time>
      </trkpt>
      <trkpt lat="45.85722" lon="7.15436">
        <ele>2012</ele>
        <time>2022-07-16T10:51:28.952Z</time>
      </trkpt>
      <trkpt lat="45.8572" lon="7.15466">
        <ele>2005</ele>
        <time>2022-07-16T10:51:30.537Z</time>
      </trkpt>
      <trkpt lat="45.85716" lon="7.1548">
        <ele>2000</ele>
        <time>2022-07-16T10:51:31.332Z</time>
      </trkpt>
      <trkpt lat="45.85713" lon="7.15482">
        <ele>1998</ele>
        <time>2022-07-16T10:51:31.582Z</time>
      </trkpt>
      <trkpt lat="45.85707" lon="7.15481">
        <ele>1994</ele>
        <time>2022-07-16T10:51:32.038Z</time>
      </trkpt>
      <trkpt lat="45.85702" lon="7.15474">
        <ele>1992</ele>
        <time>2022-07-16T10:51:32.565Z</time>
      </trkpt>
      <trkpt lat="45.85705" lon="7.15427">
        <ele>2003</ele>
        <time>2022-07-16T10:51:49.425Z</time>
      </trkpt>
      <trkpt lat="45.85701" lon="7.15404">
        <ele>2004</ele>
        <time>2022-07-16T10:51:53.550Z</time>
      </trkpt>
      <trkpt lat="45.85684" lon="7.1536">
        <ele>2000</ele>
        <time>2022-07-16T10:51:56.195Z</time>
      </trkpt>
      <trkpt lat="45.85654" lon="7.15309">
        <ele>1989</ele>
        <time>2022-07-16T10:51:59.704Z</time>
      </trkpt>
      <trkpt lat="45.85651" lon="7.15293">
        <ele>1990</ele>
        <time>2022-07-16T10:52:03.236Z</time>
      </trkpt>
      <trkpt lat="45.85652" lon="7.15139">
        <ele>1993</ele>
        <time>2022-07-16T10:52:22.413Z</time>
      </trkpt>
      <trkpt lat="45.85639" lon="7.15085">
        <ele>1992</ele>
        <time>2022-07-16T10:52:26.429Z</time>
      </trkpt>
      <trkpt lat="45.8563" lon="7.15058">
        <ele>1991</ele>
        <time>2022-07-16T10:52:28.108Z</time>
      </trkpt>
      <trkpt lat="45.85626" lon="7.15051">
        <ele>1991</ele>
        <time>2022-07-16T10:52:28.947Z</time>
      </trkpt>
      <trkpt lat="45.85622" lon="7.15049">
        <ele>1990</ele>
        <time>2022-07-16T10:52:29.266Z</time>
      </trkpt>
      <trkpt lat="45.85617" lon="7.15049">
        <ele>1988</ele>
        <time>2022-07-16T10:52:29.644Z</time>
      </trkpt>
      <trkpt lat="45.85607" lon="7.15063">
        <ele>1983</ele>
        <time>2022-07-16T10:52:30.698Z</time>
      </trkpt>
      <trkpt lat="45.85583" lon="7.15124">
        <ele>1968</ele>
        <time>2022-07-16T10:52:34.381Z</time>
      </trkpt>
      <trkpt lat="45.85574" lon="7.15132">
        <ele>1966</ele>
        <time>2022-07-16T10:52:35.180Z</time>
      </trkpt>
      <trkpt lat="45.8557" lon="7.15132">
        <ele>1965</ele>
        <time>2022-07-16T10:52:35.482Z</time>
      </trkpt>
      <trkpt lat="45.85564" lon="7.15131">
        <ele>1964</ele>
        <time>2022-07-16T10:52:35.938Z</time>
      </trkpt>
      <trkpt lat="45.85511" lon="7.15079">
        <ele>1962</ele>
        <time>2022-07-16T10:52:42.011Z</time>
      </trkpt>
      <trkpt lat="45.855" lon="7.15071">
        <ele>1962</ele>
        <time>2022-07-16T10:52:43.650Z</time>
      </trkpt>
      <trkpt lat="45.85475" lon="7.15056">
        <ele>1967</ele>
        <time>2022-07-16T10:52:57.549Z</time>
      </trkpt>
      <trkpt lat="45.85466" lon="7.15048">
        <ele>1970</ele>
        <time>2022-07-16T10:53:02.978Z</time>
      </trkpt>
      <trkpt lat="45.85456" lon="7.15044">
        <ele>1971</ele>
        <time>2022-07-16T10:53:06.444Z</time>
      </trkpt>
      <trkpt lat="45.85447" lon="7.15044">
        <ele>1972</ele>
        <time>2022-07-16T10:53:09.935Z</time>
      </trkpt>
      <trkpt lat="45.85435" lon="7.15061">
        <ele>1969</ele>
        <time>2022-07-16T10:53:11.207Z</time>
      </trkpt>
      <trkpt lat="45.8543" lon="7.1508">
        <ele>1965</ele>
        <time>2022-07-16T10:53:12.275Z</time>
      </trkpt>
      <trkpt lat="45.85413" lon="7.15107">
        <ele>1960</ele>
        <time>2022-07-16T10:53:14.188Z</time>
      </trkpt>
      <trkpt lat="45.85396" lon="7.1515">
        <ele>1954</ele>
        <time>2022-07-16T10:53:16.787Z</time>
      </trkpt>
      <trkpt lat="45.85387" lon="7.15166">
        <ele>1952</ele>
        <time>2022-07-16T10:53:17.869Z</time>
      </trkpt>
      <trkpt lat="45.85372" lon="7.1519">
        <ele>1949</ele>
        <time>2022-07-16T10:53:19.564Z</time>
      </trkpt>
      <trkpt lat="45.85341" lon="7.1523">
        <ele>1943</ele>
        <time>2022-07-16T10:53:22.709Z</time>
      </trkpt>
      <trkpt lat="45.85325" lon="7.15238">
        <ele>1943</ele>
        <time>2022-07-16T10:53:24.963Z</time>
      </trkpt>
      <trkpt lat="45.85309" lon="7.1524">
        <ele>1945</ele>
        <time>2022-07-16T10:53:32.261Z</time>
      </trkpt>
      <trkpt lat="45.85266" lon="7.15236">
        <ele>1953</ele>
        <time>2022-07-16T10:53:54.364Z</time>
      </trkpt>
      <trkpt lat="45.8525" lon="7.15252">
        <ele>1951</ele>
        <time>2022-07-16T10:53:55.836Z</time>
      </trkpt>
      <trkpt lat="45.85244" lon="7.15271">
        <ele>1950</ele>
        <time>2022-07-16T10:53:56.933Z</time>
      </trkpt>
      <trkpt lat="45.85246" lon="7.1529">
        <ele>1944</ele>
        <time>2022-07-16T10:53:57.943Z</time>
      </trkpt>
      <trkpt lat="45.85252" lon="7.15313">
        <ele>1937</ele>
        <time>2022-07-16T10:53:59.234Z</time>
      </trkpt>
      <trkpt lat="45.85251" lon="7.15342">
        <ele>1931</ele>
        <time>2022-07-16T10:54:00.760Z</time>
      </trkpt>
      <trkpt lat="45.85239" lon="7.15359">
        <ele>1933</ele>
        <time>2022-07-16T10:54:07.884Z</time>
      </trkpt>
      <trkpt lat="45.85216" lon="7.15375">
        <ele>1940</ele>
        <time>2022-07-16T10:54:20.994Z</time>
      </trkpt>
      <trkpt lat="45.85211" lon="7.15382">
        <ele>1941</ele>
        <time>2022-07-16T10:54:24.576Z</time>
      </trkpt>
      <trkpt lat="45.85202" lon="7.15407">
        <ele>1939</ele>
        <time>2022-07-16T10:54:26.056Z</time>
      </trkpt>
      <trkpt lat="45.85196" lon="7.15435">
        <ele>1935</ele>
        <time>2022-07-16T10:54:27.596Z</time>
      </trkpt>
      <trkpt lat="45.85159" lon="7.15527">
        <ele>1929</ele>
        <time>2022-07-16T10:54:33.181Z</time>
      </trkpt>
      <trkpt lat="45.85104" lon="7.15626">
        <ele>1925</ele>
        <time>2022-07-16T10:54:40.455Z</time>
      </trkpt>
      <trkpt lat="45.85072" lon="7.15675">
        <ele>1927</ele>
        <time>2022-07-16T10:54:50.680Z</time>
      </trkpt>
      <trkpt lat="45.85061" lon="7.15702">
        <ele>1927</ele>
        <time>2022-07-16T10:54:53.578Z</time>
      </trkpt>
      <trkpt lat="45.85047" lon="7.15753">
        <ele>1921</ele>
        <time>2022-07-16T10:54:56.460Z</time>
      </trkpt>
      <trkpt lat="45.8504" lon="7.15807">
        <ele>1913</ele>
        <time>2022-07-16T10:54:59.347Z</time>
      </trkpt>
      <trkpt lat="45.85033" lon="7.15837">
        <ele>1911</ele>
        <time>2022-07-16T10:55:01.011Z</time>
      </trkpt>
      <trkpt lat="45.85026" lon="7.15896">
        <ele>1906</ele>
        <time>2022-07-16T10:55:04.157Z</time>
      </trkpt>
      <trkpt lat="45.84999" lon="7.1596">
        <ele>1908</ele>
        <time>2022-07-16T10:55:14.845Z</time>
      </trkpt>
      <trkpt lat="45.84982" lon="7.16037">
        <ele>1897</ele>
        <time>2022-07-16T10:55:19.091Z</time>
      </trkpt>
      <trkpt lat="45.84963" lon="7.16073">
        <ele>1894</ele>
        <time>2022-07-16T10:55:21.466Z</time>
      </trkpt>
      <trkpt lat="45.84931" lon="7.16102">
        <ele>1898</ele>
        <time>2022-07-16T10:55:35.323Z</time>
      </trkpt>
      <trkpt lat="45.84897" lon="7.16147">
        <ele>1902</ele>
        <time>2022-07-16T10:55:49.456Z</time>
      </trkpt>
      <trkpt lat="45.84889" lon="7.16186">
        <ele>1898</ele>
        <time>2022-07-16T10:55:51.593Z</time>
      </trkpt>
      <trkpt lat="45.84861" lon="7.16267">
        <ele>1892</ele>
        <time>2022-07-16T10:55:56.347Z</time>
      </trkpt>
      <trkpt lat="45.84854" lon="7.16284">
        <ele>1890</ele>
        <time>2022-07-16T10:55:57.385Z</time>
      </trkpt>
      <trkpt lat="45.84834" lon="7.16316">
        <ele>1891</ele>
        <time>2022-07-16T10:56:03.123Z</time>
      </trkpt>
      <trkpt lat="45.84812" lon="7.16386">
        <ele>1887</ele>
        <time>2022-07-16T10:56:07.160Z</time>
      </trkpt>
      <trkpt lat="45.84779" lon="7.16468">
        <ele>1880</ele>
        <time>2022-07-16T10:56:12.139Z</time>
      </trkpt>
      <trkpt lat="45.84738" lon="7.16537">
        <ele>1882</ele>
        <time>2022-07-16T10:56:23.972Z</time>
      </trkpt>
      <trkpt lat="45.84735" lon="7.16562">
        <ele>1878</ele>
        <time>2022-07-16T10:56:25.305Z</time>
      </trkpt>
      <trkpt lat="45.84735" lon="7.16627">
        <ele>1867</ele>
        <time>2022-07-16T10:56:28.723Z</time>
      </trkpt>
      <trkpt lat="45.84728" lon="7.1672">
        <ele>1859</ele>
        <time>2022-07-16T10:56:33.641Z</time>
      </trkpt>
      <trkpt lat="45.84717" lon="7.16751">
        <ele>1859</ele>
        <time>2022-07-16T10:56:36.863Z</time>
      </trkpt>
      <trkpt lat="45.84685" lon="7.16799">
        <ele>1861</ele>
        <time>2022-07-16T10:56:47.051Z</time>
      </trkpt>
      <trkpt lat="45.8467" lon="7.16841">
        <ele>1858</ele>
        <time>2022-07-16T10:56:49.532Z</time>
      </trkpt>
      <trkpt lat="45.84659" lon="7.16856">
        <ele>1860</ele>
        <time>2022-07-16T10:56:57.137Z</time>
      </trkpt>
      <trkpt lat="45.84648" lon="7.16883">
        <ele>1859</ele>
        <time>2022-07-16T10:56:58.925Z</time>
      </trkpt>
      <trkpt lat="45.84618" lon="7.16977">
        <ele>1853</ele>
        <time>2022-07-16T10:57:04.362Z</time>
      </trkpt>
      <trkpt lat="45.84615" lon="7.17018">
        <ele>1845</ele>
        <time>2022-07-16T10:57:06.529Z</time>
      </trkpt>
      <trkpt lat="45.84612" lon="7.17033">
        <ele>1843</ele>
        <time>2022-07-16T10:57:07.349Z</time>
      </trkpt>
      <trkpt lat="45.84605" lon="7.17049">
        <ele>1842</ele>
        <time>2022-07-16T10:57:08.343Z</time>
      </trkpt>
      <trkpt lat="45.84589" lon="7.17069">
        <ele>1846</ele>
        <time>2022-07-16T10:57:19.225Z</time>
      </trkpt>
      <trkpt lat="45.84553" lon="7.1716">
        <ele>1833</ele>
        <time>2022-07-16T10:57:24.727Z</time>
      </trkpt>
      <trkpt lat="45.84531" lon="7.17197">
        <ele>1832</ele>
        <time>2022-07-16T10:57:27.989Z</time>
      </trkpt>
      <trkpt lat="45.84518" lon="7.17212">
        <ele>1834</ele>
        <time>2022-07-16T10:57:35.146Z</time>
      </trkpt>
      <trkpt lat="45.84505" lon="7.17234">
        <ele>1834</ele>
        <time>2022-07-16T10:57:37.818Z</time>
      </trkpt>
      <trkpt lat="45.84463" lon="7.1732">
        <ele>1829</ele>
        <time>2022-07-16T10:57:43.340Z</time>
      </trkpt>
      <trkpt lat="45.84425" lon="7.17419">
        <ele>1819</ele>
        <time>2022-07-16T10:57:49.283Z</time>
      </trkpt>
      <trkpt lat="45.84383" lon="7.17475">
        <ele>1817</ele>
        <time>2022-07-16T10:57:54.504Z</time>
      </trkpt>
      <trkpt lat="45.84367" lon="7.1751">
        <ele>1813</ele>
        <time>2022-07-16T10:57:56.705Z</time>
      </trkpt>
      <trkpt lat="45.84357" lon="7.17527">
        <ele>1811</ele>
        <time>2022-07-16T10:57:57.875Z</time>
      </trkpt>
      <trkpt lat="45.84338" lon="7.17551">
        <ele>1811</ele>
        <time>2022-07-16T10:58:01.241Z</time>
      </trkpt>
      <trkpt lat="45.84323" lon="7.17581">
        <ele>1808</ele>
        <time>2022-07-16T10:58:03.182Z</time>
      </trkpt>
      <trkpt lat="45.84304" lon="7.17607">
        <ele>1805</ele>
        <time>2022-07-16T10:58:05.164Z</time>
      </trkpt>
      <trkpt lat="45.84281" lon="7.17632">
        <ele>1802</ele>
        <time>2022-07-16T10:58:07.341Z</time>
      </trkpt>
      <trkpt lat="45.84187" lon="7.1772">
        <ele>1794</ele>
        <time>2022-07-16T10:58:15.811Z</time>
      </trkpt>
      <trkpt lat="45.84139" lon="7.17769">
        <ele>1786</ele>
        <time>2022-07-16T10:58:20.257Z</time>
      </trkpt>
      <trkpt lat="45.84113" lon="7.1778">
        <ele>1787</ele>
        <time>2022-07-16T10:58:25.701Z</time>
      </trkpt>
      <trkpt lat="45.8409" lon="7.17782">
        <ele>1790</ele>
        <time>2022-07-16T10:58:36.992Z</time>
      </trkpt>
      <trkpt lat="45.84086" lon="7.17785">
        <ele>1789</ele>
        <time>2022-07-16T10:58:37.333Z</time>
      </trkpt>
      <trkpt lat="45.84082" lon="7.1779">
        <ele>1788</ele>
        <time>2022-07-16T10:58:37.733Z</time>
      </trkpt>
      <trkpt lat="45.84084" lon="7.17805">
        <ele>1783</ele>
        <time>2022-07-16T10:58:38.536Z</time>
      </trkpt>
      <trkpt lat="45.84097" lon="7.17807">
        <ele>1780</ele>
        <time>2022-07-16T10:58:39.523Z</time>
      </trkpt>
      <trkpt lat="45.84137" lon="7.17794">
        <ele>1778</ele>
        <time>2022-07-16T10:58:42.804Z</time>
      </trkpt>
      <trkpt lat="45.84188" lon="7.17764">
        <ele>1778</ele>
        <time>2022-07-16T10:58:50.134Z</time>
      </trkpt>
      <trkpt lat="45.84229" lon="7.1775">
        <ele>1774</ele>
        <time>2022-07-16T10:58:53.315Z</time>
      </trkpt>
      <trkpt lat="45.84297" lon="7.17707">
        <ele>1770</ele>
        <time>2022-07-16T10:58:59.006Z</time>
      </trkpt>
      <trkpt lat="45.84371" lon="7.17684">
        <ele>1757</ele>
        <time>2022-07-16T10:59:04.721Z</time>
      </trkpt>
      <trkpt lat="45.8439" lon="7.17667">
        <ele>1756</ele>
        <time>2022-07-16T10:59:06.578Z</time>
      </trkpt>
      <trkpt lat="45.84427" lon="7.17627">
        <ele>1757</ele>
        <time>2022-07-16T10:59:14.257Z</time>
      </trkpt>
      <trkpt lat="45.84447" lon="7.17594">
        <ele>1758</ele>
        <time>2022-07-16T10:59:20.050Z</time>
      </trkpt>
      <trkpt lat="45.84462" lon="7.17575">
        <ele>1757</ele>
        <time>2022-07-16T10:59:21.634Z</time>
      </trkpt>
      <trkpt lat="45.84505" lon="7.17537">
        <ele>1751</ele>
        <time>2022-07-16T10:59:25.445Z</time>
      </trkpt>
      <trkpt lat="45.84525" lon="7.17523">
        <ele>1749</ele>
        <time>2022-07-16T10:59:27.124Z</time>
      </trkpt>
      <trkpt lat="45.84531" lon="7.17525">
        <ele>1748</ele>
        <time>2022-07-16T10:59:27.589Z</time>
      </trkpt>
      <trkpt lat="45.84539" lon="7.17533">
        <ele>1745</ele>
        <time>2022-07-16T10:59:28.325Z</time>
      </trkpt>
      <trkpt lat="45.84563" lon="7.17569">
        <ele>1741</ele>
        <time>2022-07-16T10:59:30.945Z</time>
      </trkpt>
      <trkpt lat="45.84563" lon="7.17582">
        <ele>1741</ele>
        <time>2022-07-16T10:59:32.149Z</time>
      </trkpt>
      <trkpt lat="45.84556" lon="7.17598">
        <ele>1744</ele>
        <time>2022-07-16T10:59:38.900Z</time>
      </trkpt>
      <trkpt lat="45.84507" lon="7.17633">
        <ele>1742</ele>
        <time>2022-07-16T10:59:43.804Z</time>
      </trkpt>
      <trkpt lat="45.84441" lon="7.17692">
        <ele>1744</ele>
        <time>2022-07-16T10:59:57.331Z</time>
      </trkpt>
      <trkpt lat="45.84399" lon="7.17735">
        <ele>1737</ele>
        <time>2022-07-16T11:00:01.225Z</time>
      </trkpt>
      <trkpt lat="45.84368" lon="7.17772">
        <ele>1738</ele>
        <time>2022-07-16T11:00:08.163Z</time>
      </trkpt>
      <trkpt lat="45.8435" lon="7.17814">
        <ele>1734</ele>
        <time>2022-07-16T11:00:10.755Z</time>
      </trkpt>
      <trkpt lat="45.84307" lon="7.17875">
        <ele>1730</ele>
        <time>2022-07-16T11:00:14.951Z</time>
      </trkpt>
      <trkpt lat="45.84291" lon="7.17942">
        <ele>1727</ele>
        <time>2022-07-16T11:00:18.521Z</time>
      </trkpt>
      <trkpt lat="45.84277" lon="7.17973">
        <ele>1725</ele>
        <time>2022-07-16T11:00:20.464Z</time>
      </trkpt>
      <trkpt lat="45.84268" lon="7.17983">
        <ele>1722</ele>
        <time>2022-07-16T11:00:21.323Z</time>
      </trkpt>
      <trkpt lat="45.84244" lon="7.17996">
        <ele>1714</ele>
        <time>2022-07-16T11:00:23.259Z</time>
      </trkpt>
      <trkpt lat="45.84135" lon="7.18022">
        <ele>1712</ele>
        <time>2022-07-16T11:00:35.350Z</time>
      </trkpt>
      <trkpt lat="45.84081" lon="7.18045">
        <ele>1711</ele>
        <time>2022-07-16T11:00:41.539Z</time>
      </trkpt>
      <trkpt lat="45.84039" lon="7.18084">
        <ele>1706</ele>
        <time>2022-07-16T11:00:45.314Z</time>
      </trkpt>
      <trkpt lat="45.84003" lon="7.1811">
        <ele>1705</ele>
        <time>2022-07-16T11:00:49.395Z</time>
      </trkpt>
      <trkpt lat="45.83962" lon="7.18152">
        <ele>1703</ele>
        <time>2022-07-16T11:00:53.773Z</time>
      </trkpt>
      <trkpt lat="45.83929" lon="7.18181">
        <ele>1696</ele>
        <time>2022-07-16T11:00:56.693Z</time>
      </trkpt>
      <trkpt lat="45.83881" lon="7.18243">
        <ele>1695</ele>
        <time>2022-07-16T11:01:03.988Z</time>
      </trkpt>
      <trkpt lat="45.83848" lon="7.1826">
        <ele>1687</ele>
        <time>2022-07-16T11:01:06.634Z</time>
      </trkpt>
      <trkpt lat="45.83797" lon="7.18298">
        <ele>1685</ele>
        <time>2022-07-16T11:01:11.872Z</time>
      </trkpt>
      <trkpt lat="45.83778" lon="7.18315">
        <ele>1682</ele>
        <time>2022-07-16T11:01:13.562Z</time>
      </trkpt>
      <trkpt lat="45.83742" lon="7.18355">
        <ele>1678</ele>
        <time>2022-07-16T11:01:16.998Z</time>
      </trkpt>
      <trkpt lat="45.83692" lon="7.18397">
        <ele>1673</ele>
        <time>2022-07-16T11:01:21.370Z</time>
      </trkpt>
      <trkpt lat="45.83676" lon="7.18409">
        <ele>1670</ele>
        <time>2022-07-16T11:01:22.733Z</time>
      </trkpt>
      <trkpt lat="45.83628" lon="7.1843">
        <ele>1659</ele>
        <time>2022-07-16T11:01:26.520Z</time>
      </trkpt>
      <trkpt lat="45.8361" lon="7.18442">
        <ele>1658</ele>
        <time>2022-07-16T11:01:28.086Z</time>
      </trkpt>
      <trkpt lat="45.83502" lon="7.18531">
        <ele>1650</ele>
        <time>2022-07-16T11:01:36.858Z</time>
      </trkpt>
      <trkpt lat="45.83467" lon="7.18546">
        <ele>1643</ele>
        <time>2022-07-16T11:01:39.615Z</time>
      </trkpt>
      <trkpt lat="45.83434" lon="7.18567">
        <ele>1638</ele>
        <time>2022-07-16T11:01:42.339Z</time>
      </trkpt>
      <trkpt lat="45.83387" lon="7.18602">
        <ele>1629</ele>
        <time>2022-07-16T11:01:46.336Z</time>
      </trkpt>
      <trkpt lat="45.83366" lon="7.1862">
        <ele>1624</ele>
        <time>2022-07-16T11:01:48.182Z</time>
      </trkpt>
      <trkpt lat="45.83353" lon="7.18642">
        <ele>1624</ele>
        <time>2022-07-16T11:01:50.855Z</time>
      </trkpt>
      <trkpt lat="45.83333" lon="7.1869">
        <ele>1626</ele>
        <time>2022-07-16T11:01:59.995Z</time>
      </trkpt>
      <trkpt lat="45.83325" lon="7.18735">
        <ele>1633</ele>
        <time>2022-07-16T11:02:16.593Z</time>
      </trkpt>
      <trkpt lat="45.83317" lon="7.18748">
        <ele>1632</ele>
        <time>2022-07-16T11:02:17.506Z</time>
      </trkpt>
      <trkpt lat="45.83313" lon="7.18749">
        <ele>1631</ele>
        <time>2022-07-16T11:02:17.812Z</time>
      </trkpt>
      <trkpt lat="45.83308" lon="7.18745">
        <ele>1628</ele>
        <time>2022-07-16T11:02:18.244Z</time>
      </trkpt>
      <trkpt lat="45.83307" lon="7.18733">
        <ele>1625</ele>
        <time>2022-07-16T11:02:18.880Z</time>
      </trkpt>
      <trkpt lat="45.8332" lon="7.18708">
        <ele>1625</ele>
        <time>2022-07-16T11:02:21.770Z</time>
      </trkpt>
      <trkpt lat="45.83322" lon="7.18691">
        <ele>1622</ele>
        <time>2022-07-16T11:02:22.677Z</time>
      </trkpt>
      <trkpt lat="45.83336" lon="7.18633">
        <ele>1612</ele>
        <time>2022-07-16T11:02:25.905Z</time>
      </trkpt>
      <trkpt lat="45.83352" lon="7.18593">
        <ele>1608</ele>
        <time>2022-07-16T11:02:28.330Z</time>
      </trkpt>
      <trkpt lat="45.83383" lon="7.18558">
        <ele>1613</ele>
        <time>2022-07-16T11:02:46.784Z</time>
      </trkpt>
      <trkpt lat="45.83456" lon="7.18498">
        <ele>1615</ele>
        <time>2022-07-16T11:03:01.086Z</time>
      </trkpt>
      <trkpt lat="45.83451" lon="7.18479">
        <ele>1614</ele>
        <time>2022-07-16T11:03:02.154Z</time>
      </trkpt>
      <trkpt lat="45.83441" lon="7.18482">
        <ele>1611</ele>
        <time>2022-07-16T11:03:02.925Z</time>
      </trkpt>
      <trkpt lat="45.83347" lon="7.18572">
        <ele>1601</ele>
        <time>2022-07-16T11:03:11.453Z</time>
      </trkpt>
      <trkpt lat="45.83335" lon="7.18587">
        <ele>1598</ele>
        <time>2022-07-16T11:03:12.654Z</time>
      </trkpt>
      <trkpt lat="45.83293" lon="7.18661">
        <ele>1604</ele>
        <time>2022-07-16T11:03:33.652Z</time>
      </trkpt>
      <trkpt lat="45.83238" lon="7.18714">
        <ele>1595</ele>
        <time>2022-07-16T11:03:38.652Z</time>
      </trkpt>
      <trkpt lat="45.83211" lon="7.18761">
        <ele>1601</ele>
        <time>2022-07-16T11:04:00.423Z</time>
      </trkpt>
      <trkpt lat="45.83198" lon="7.18774">
        <ele>1603</ele>
        <time>2022-07-16T11:04:07.784Z</time>
      </trkpt>
      <trkpt lat="45.83185" lon="7.18779">
        <ele>1602</ele>
        <time>2022-07-16T11:04:08.800Z</time>
      </trkpt>
      <trkpt lat="45.83152" lon="7.18785">
        <ele>1599</ele>
        <time>2022-07-16T11:04:11.311Z</time>
      </trkpt>
      <trkpt lat="45.82957" lon="7.18793">
        <ele>1577</ele>
        <time>2022-07-16T11:04:26.034Z</time>
      </trkpt>
      <trkpt lat="45.82899" lon="7.18805">
        <ele>1575</ele>
        <time>2022-07-16T11:04:31.412Z</time>
      </trkpt>
      <trkpt lat="45.82818" lon="7.18816">
        <ele>1566</ele>
        <time>2022-07-16T11:04:37.553Z</time>
      </trkpt>
      <trkpt lat="45.8278" lon="7.1883">
        <ele>1568</ele>
        <time>2022-07-16T11:04:46.735Z</time>
      </trkpt>
      <trkpt lat="45.82616" lon="7.18817">
        <ele>1551</ele>
        <time>2022-07-16T11:04:59.132Z</time>
      </trkpt>
      <trkpt lat="45.82534" lon="7.18817">
        <ele>1546</ele>
        <time>2022-07-16T11:05:05.057Z</time>
      </trkpt>
      <trkpt lat="45.82523" lon="7.18815">
        <ele>1544</ele>
        <time>2022-07-16T11:05:05.894Z</time>
      </trkpt>
      <trkpt lat="45.82507" lon="7.18808">
        <ele>1538</ele>
        <time>2022-07-16T11:05:07.156Z</time>
      </trkpt>
      <trkpt lat="45.82497" lon="7.18807">
        <ele>1536</ele>
        <time>2022-07-16T11:05:07.913Z</time>
      </trkpt>
      <trkpt lat="45.82484" lon="7.18811">
        <ele>1533</ele>
        <time>2022-07-16T11:05:08.916Z</time>
      </trkpt>
      <trkpt lat="45.82462" lon="7.18835">
        <ele>1535</ele>
        <time>2022-07-16T11:05:16.446Z</time>
      </trkpt>
      <trkpt lat="45.82455" lon="7.18837">
        <ele>1533</ele>
        <time>2022-07-16T11:05:16.985Z</time>
      </trkpt>
      <trkpt lat="45.82451" lon="7.18834">
        <ele>1530</ele>
        <time>2022-07-16T11:05:17.326Z</time>
      </trkpt>
      <trkpt lat="45.82451" lon="7.18823">
        <ele>1526</ele>
        <time>2022-07-16T11:05:17.904Z</time>
      </trkpt>
      <trkpt lat="45.82456" lon="7.18813">
        <ele>1524</ele>
        <time>2022-07-16T11:05:18.552Z</time>
      </trkpt>
      <trkpt lat="45.82482" lon="7.188">
        <ele>1528</ele>
        <time>2022-07-16T11:05:32.675Z</time>
      </trkpt>
      <trkpt lat="45.82497" lon="7.18796">
        <ele>1531</ele>
        <time>2022-07-16T11:05:40.501Z</time>
      </trkpt>
      <trkpt lat="45.82528" lon="7.18798">
        <ele>1536</ele>
        <time>2022-07-16T11:05:56.418Z</time>
      </trkpt>
      <trkpt lat="45.82542" lon="7.18796">
        <ele>1536</ele>
        <time>2022-07-16T11:05:58.289Z</time>
      </trkpt>
      <trkpt lat="45.82557" lon="7.18791">
        <ele>1535</ele>
        <time>2022-07-16T11:05:59.368Z</time>
      </trkpt>
      <trkpt lat="45.82582" lon="7.18778">
        <ele>1531</ele>
        <time>2022-07-16T11:06:01.375Z</time>
      </trkpt>
      <trkpt lat="45.82616" lon="7.18768">
        <ele>1527</ele>
        <time>2022-07-16T11:06:03.994Z</time>
      </trkpt>
      <trkpt lat="45.82643" lon="7.18763">
        <ele>1526</ele>
        <time>2022-07-16T11:06:06.429Z</time>
      </trkpt>
      <trkpt lat="45.82699" lon="7.18773">
        <ele>1535</ele>
        <time>2022-07-16T11:06:35.376Z</time>
      </trkpt>
      <trkpt lat="45.82704" lon="7.1877">
        <ele>1534</ele>
        <time>2022-07-16T11:06:35.785Z</time>
      </trkpt>
      <trkpt lat="45.82706" lon="7.18762">
        <ele>1531</ele>
        <time>2022-07-16T11:06:36.232Z</time>
      </trkpt>
      <trkpt lat="45.82704" lon="7.18755">
        <ele>1528</ele>
        <time>2022-07-16T11:06:36.630Z</time>
      </trkpt>
      <trkpt lat="45.82701" lon="7.18753">
        <ele>1527</ele>
        <time>2022-07-16T11:06:36.880Z</time>
      </trkpt>
      <trkpt lat="45.82597" lon="7.18755">
        <ele>1520</ele>
        <time>2022-07-16T11:06:44.730Z</time>
      </trkpt>
      <trkpt lat="45.82555" lon="7.18764">
        <ele>1521</ele>
        <time>2022-07-16T11:06:51.930Z</time>
      </trkpt>
      <trkpt lat="45.82534" lon="7.18761">
        <ele>1517</ele>
        <time>2022-07-16T11:06:53.523Z</time>
      </trkpt>
      <trkpt lat="45.82514" lon="7.18752">
        <ele>1511</ele>
        <time>2022-07-16T11:06:55.105Z</time>
      </trkpt>
      <trkpt lat="45.82504" lon="7.18751">
        <ele>1510</ele>
        <time>2022-07-16T11:06:55.862Z</time>
      </trkpt>
      <trkpt lat="45.82462" lon="7.18756">
        <ele>1504</ele>
        <time>2022-07-16T11:06:59.042Z</time>
      </trkpt>
      <trkpt lat="45.82416" lon="7.18788">
        <ele>1503</ele>
        <time>2022-07-16T11:07:04.540Z</time>
      </trkpt>
      <trkpt lat="45.82409" lon="7.18791">
        <ele>1501</ele>
        <time>2022-07-16T11:07:05.091Z</time>
      </trkpt>
      <trkpt lat="45.82397" lon="7.18788">
        <ele>1494</ele>
        <time>2022-07-16T11:07:06.011Z</time>
      </trkpt>
      <trkpt lat="45.82307" lon="7.18968">
        <ele>1491</ele>
        <time>2022-07-16T11:07:22.638Z</time>
      </trkpt>
      <trkpt lat="45.82286" lon="7.19015">
        <ele>1486</ele>
        <time>2022-07-16T11:07:25.575Z</time>
      </trkpt>
      <trkpt lat="45.82271" lon="7.19069">
        <ele>1482</ele>
        <time>2022-07-16T11:07:28.632Z</time>
      </trkpt>
      <trkpt lat="45.82238" lon="7.19312">
        <ele>1471</ele>
        <time>2022-07-16T11:07:40.830Z</time>
      </trkpt>
      <trkpt lat="45.82223" lon="7.19369">
        <ele>1463</ele>
        <time>2022-07-16T11:07:44.035Z</time>
      </trkpt>
      <trkpt lat="45.82223" lon="7.19453">
        <ele>1465</ele>
        <time>2022-07-16T11:07:55.366Z</time>
      </trkpt>
      <trkpt lat="45.82212" lon="7.19665">
        <ele>1457</ele>
        <time>2022-07-16T11:08:06.697Z</time>
      </trkpt>
      <trkpt lat="45.82214" lon="7.19803">
        <ele>1448</ele>
        <time>2022-07-16T11:08:13.957Z</time>
      </trkpt>
      <trkpt lat="45.82231" lon="7.19893">
        <ele>1442</ele>
        <time>2022-07-16T11:08:18.862Z</time>
      </trkpt>
      <trkpt lat="45.82237" lon="7.19914">
        <ele>1441</ele>
        <time>2022-07-16T11:08:19.985Z</time>
      </trkpt>
      <trkpt lat="45.82255" lon="7.19958">
        <ele>1442</ele>
        <time>2022-07-16T11:08:26.354Z</time>
      </trkpt>
      <trkpt lat="45.82266" lon="7.19998">
        <ele>1440</ele>
        <time>2022-07-16T11:08:28.616Z</time>
      </trkpt>
      <trkpt lat="45.82284" lon="7.20124">
        <ele>1433</ele>
        <time>2022-07-16T11:08:35.381Z</time>
      </trkpt>
      <trkpt lat="45.82285" lon="7.20145">
        <ele>1431</ele>
        <time>2022-07-16T11:08:36.488Z</time>
      </trkpt>
      <trkpt lat="45.82282" lon="7.20187">
        <ele>1423</ele>
        <time>2022-07-16T11:08:38.709Z</time>
      </trkpt>
      <trkpt lat="45.82284" lon="7.20219">
        <ele>1420</ele>
        <time>2022-07-16T11:08:40.399Z</time>
      </trkpt>
      <trkpt lat="45.823" lon="7.20299">
        <ele>1416</ele>
        <time>2022-07-16T11:08:44.776Z</time>
      </trkpt>
      <trkpt lat="45.82333" lon="7.20378">
        <ele>1421</ele>
        <time>2022-07-16T11:09:03.040Z</time>
      </trkpt>
      <trkpt lat="45.82332" lon="7.20408">
        <ele>1416</ele>
        <time>2022-07-16T11:09:04.620Z</time>
      </trkpt>
      <trkpt lat="45.82329" lon="7.20421">
        <ele>1414</ele>
        <time>2022-07-16T11:09:05.340Z</time>
      </trkpt>
      <trkpt lat="45.82313" lon="7.20461">
        <ele>1404</ele>
        <time>2022-07-16T11:09:07.766Z</time>
      </trkpt>
      <trkpt lat="45.8231" lon="7.20484">
        <ele>1401</ele>
        <time>2022-07-16T11:09:08.997Z</time>
      </trkpt>
      <trkpt lat="45.82312" lon="7.20497">
        <ele>1402</ele>
        <time>2022-07-16T11:09:12.469Z</time>
      </trkpt>
      <trkpt lat="45.82329" lon="7.20534">
        <ele>1405</ele>
        <time>2022-07-16T11:09:22.860Z</time>
      </trkpt>
      <trkpt lat="45.82344" lon="7.20584">
        <ele>1406</ele>
        <time>2022-07-16T11:09:29.510Z</time>
      </trkpt>
      <trkpt lat="45.82354" lon="7.20641">
        <ele>1403</ele>
        <time>2022-07-16T11:09:32.602Z</time>
      </trkpt>
      <trkpt lat="45.82396" lon="7.20815">
        <ele>1396</ele>
        <time>2022-07-16T11:09:42.372Z</time>
      </trkpt>
      <trkpt lat="45.82397" lon="7.20843">
        <ele>1393</ele>
        <time>2022-07-16T11:09:43.846Z</time>
      </trkpt>
      <trkpt lat="45.82386" lon="7.20903">
        <ele>1385</ele>
        <time>2022-07-16T11:09:47.110Z</time>
      </trkpt>
      <trkpt lat="45.82423" lon="7.21104">
        <ele>1379</ele>
        <time>2022-07-16T11:09:59.498Z</time>
      </trkpt>
      <trkpt lat="45.82449" lon="7.21318">
        <ele>1374</ele>
        <time>2022-07-16T11:10:13.546Z</time>
      </trkpt>
      <trkpt lat="45.82493" lon="7.21447">
        <ele>1369</ele>
        <time>2022-07-16T11:10:21.470Z</time>
      </trkpt>
      <trkpt lat="45.825" lon="7.21486">
        <ele>1368</ele>
        <time>2022-07-16T11:10:24.007Z</time>
      </trkpt>
      <trkpt lat="45.82499" lon="7.21502">
        <ele>1367</ele>
        <time>2022-07-16T11:10:24.852Z</time>
      </trkpt>
      <trkpt lat="45.82469" lon="7.21593">
        <ele>1359</ele>
        <time>2022-07-16T11:10:30.147Z</time>
      </trkpt>
      <trkpt lat="45.82466" lon="7.21615">
        <ele>1357</ele>
        <time>2022-07-16T11:10:31.326Z</time>
      </trkpt>
      <trkpt lat="45.82464" lon="7.2165">
        <ele>1355</ele>
        <time>2022-07-16T11:10:33.173Z</time>
      </trkpt>
      <trkpt lat="45.82466" lon="7.21674">
        <ele>1355</ele>
        <time>2022-07-16T11:10:35.413Z</time>
      </trkpt>
      <trkpt lat="45.82484" lon="7.21826">
        <ele>1354</ele>
        <time>2022-07-16T11:10:48.555Z</time>
      </trkpt>
      <trkpt lat="45.82484" lon="7.21853">
        <ele>1353</ele>
        <time>2022-07-16T11:10:50.005Z</time>
      </trkpt>
      <trkpt lat="45.8248" lon="7.21879">
        <ele>1352</ele>
        <time>2022-07-16T11:10:51.425Z</time>
      </trkpt>
      <trkpt lat="45.8247" lon="7.21918">
        <ele>1348</ele>
        <time>2022-07-16T11:10:53.611Z</time>
      </trkpt>
      <trkpt lat="45.82365" lon="7.22099">
        <ele>1332</ele>
        <time>2022-07-16T11:11:05.998Z</time>
      </trkpt>
      <trkpt lat="45.82254" lon="7.22284">
        <ele>1322</ele>
        <time>2022-07-16T11:11:18.508Z</time>
      </trkpt>
      <trkpt lat="45.82239" lon="7.22324">
        <ele>1321</ele>
        <time>2022-07-16T11:11:21.490Z</time>
      </trkpt>
      <trkpt lat="45.82233" lon="7.22351">
        <ele>1320</ele>
        <time>2022-07-16T11:11:23.044Z</time>
      </trkpt>
      <trkpt lat="45.82142" lon="7.22963">
        <ele>1282</ele>
        <time>2022-07-16T11:11:55.959Z</time>
      </trkpt>
      <trkpt lat="45.82121" lon="7.23032">
        <ele>1280</ele>
        <time>2022-07-16T11:12:00.589Z</time>
      </trkpt>
      <trkpt lat="45.82114" lon="7.23045">
        <ele>1279</ele>
        <time>2022-07-16T11:12:01.453Z</time>
      </trkpt>
      <trkpt lat="45.8211" lon="7.23047">
        <ele>1278</ele>
        <time>2022-07-16T11:12:01.773Z</time>
      </trkpt>
      <trkpt lat="45.821" lon="7.23046">
        <ele>1275</ele>
        <time>2022-07-16T11:12:02.529Z</time>
      </trkpt>
      <trkpt lat="45.82095" lon="7.23033">
        <ele>1273</ele>
        <time>2022-07-16T11:12:03.310Z</time>
      </trkpt>
      <trkpt lat="45.82097" lon="7.23014">
        <ele>1273</ele>
        <time>2022-07-16T11:12:05.091Z</time>
      </trkpt>
      <trkpt lat="45.82123" lon="7.22957">
        <ele>1277</ele>
        <time>2022-07-16T11:12:19.326Z</time>
      </trkpt>
      <trkpt lat="45.82128" lon="7.22939">
        <ele>1278</ele>
        <time>2022-07-16T11:12:23.053Z</time>
      </trkpt>
      <trkpt lat="45.82127" lon="7.22921">
        <ele>1277</ele>
        <time>2022-07-16T11:12:24.003Z</time>
      </trkpt>
      <trkpt lat="45.8212" lon="7.22913">
        <ele>1276</ele>
        <time>2022-07-16T11:12:24.678Z</time>
      </trkpt>
      <trkpt lat="45.82113" lon="7.22915">
        <ele>1274</ele>
        <time>2022-07-16T11:12:25.217Z</time>
      </trkpt>
      <trkpt lat="45.82104" lon="7.22923">
        <ele>1272</ele>
        <time>2022-07-16T11:12:26.016Z</time>
      </trkpt>
      <trkpt lat="45.82076" lon="7.22966">
        <ele>1268</ele>
        <time>2022-07-16T11:12:29.112Z</time>
      </trkpt>
      <trkpt lat="45.82065" lon="7.2298">
        <ele>1267</ele>
        <time>2022-07-16T11:12:30.221Z</time>
      </trkpt>
      <trkpt lat="45.82057" lon="7.22986">
        <ele>1267</ele>
        <time>2022-07-16T11:12:31.422Z</time>
      </trkpt>
      <trkpt lat="45.82028" lon="7.22996">
        <ele>1264</ele>
        <time>2022-07-16T11:12:33.673Z</time>
      </trkpt>
      <trkpt lat="45.81948" lon="7.22997">
        <ele>1265</ele>
        <time>2022-07-16T11:12:45.688Z</time>
      </trkpt>
      <trkpt lat="45.81943" lon="7.22994">
        <ele>1265</ele>
        <time>2022-07-16T11:12:46.409Z</time>
      </trkpt>
      <trkpt lat="45.81932" lon="7.22994">
        <ele>1266</ele>
        <time>2022-07-16T11:12:49.903Z</time>
      </trkpt>
      <trkpt lat="45.81927" lon="7.23">
        <ele>1266</ele>
        <time>2022-07-16T11:12:50.770Z</time>
      </trkpt>
      <trkpt lat="45.81923" lon="7.23018">
        <ele>1267</ele>
        <time>2022-07-16T11:12:54.459Z</time>
      </trkpt>
      <trkpt lat="45.81919" lon="7.23109">
        <ele>1268</ele>
        <time>2022-07-16T11:13:04.333Z</time>
      </trkpt>
      <trkpt lat="45.81906" lon="7.23178">
        <ele>1271</ele>
        <time>2022-07-16T11:13:16.748Z</time>
      </trkpt>
      <trkpt lat="45.81849" lon="7.23317">
        <ele>1273</ele>
        <time>2022-07-16T11:13:34.606Z</time>
      </trkpt>
      <trkpt lat="45.81683" lon="7.23693">
        <ele>1264</ele>
        <time>2022-07-16T11:14:04.621Z</time>
      </trkpt>
      <trkpt lat="45.81656" lon="7.23741">
        <ele>1262</ele>
        <time>2022-07-16T11:14:08.129Z</time>
      </trkpt>
      <trkpt lat="45.81635" lon="7.23762">
        <ele>1258</ele>
        <time>2022-07-16T11:14:10.061Z</time>
      </trkpt>
      <trkpt lat="45.81621" lon="7.23772">
        <ele>1256</ele>
        <time>2022-07-16T11:14:11.241Z</time>
      </trkpt>
      <trkpt lat="45.81585" lon="7.23784">
        <ele>1254</ele>
        <time>2022-07-16T11:14:14.066Z</time>
      </trkpt>
      <trkpt lat="45.8153" lon="7.23785">
        <ele>1256</ele>
        <time>2022-07-16T11:14:25.033Z</time>
      </trkpt>
      <trkpt lat="45.81466" lon="7.23779">
        <ele>1257</ele>
        <time>2022-07-16T11:14:34.984Z</time>
      </trkpt>
      <trkpt lat="45.81358" lon="7.23774">
        <ele>1255</ele>
        <time>2022-07-16T11:14:46.750Z</time>
      </trkpt>
      <trkpt lat="45.81319" lon="7.23776">
        <ele>1254</ele>
        <time>2022-07-16T11:14:50.667Z</time>
      </trkpt>
      <trkpt lat="45.81287" lon="7.23786">
        <ele>1253</ele>
        <time>2022-07-16T11:14:53.785Z</time>
      </trkpt>
      <trkpt lat="45.8118" lon="7.23843">
        <ele>1247</ele>
        <time>2022-07-16T11:15:02.621Z</time>
      </trkpt>
      <trkpt lat="45.81096" lon="7.23896">
        <ele>1243</ele>
        <time>2022-07-16T11:15:10.311Z</time>
      </trkpt>
      <trkpt lat="45.81069" lon="7.23924">
        <ele>1241</ele>
        <time>2022-07-16T11:15:12.737Z</time>
      </trkpt>
      <trkpt lat="45.81042" lon="7.23963">
        <ele>1240</ele>
        <time>2022-07-16T11:15:16.562Z</time>
      </trkpt>
      <trkpt lat="45.81008" lon="7.24029">
        <ele>1236</ele>
        <time>2022-07-16T11:15:20.880Z</time>
      </trkpt>
      <trkpt lat="45.80858" lon="7.24403">
        <ele>1227</ele>
        <time>2022-07-16T11:15:49.703Z</time>
      </trkpt>
      <trkpt lat="45.80839" lon="7.24446">
        <ele>1224</ele>
        <time>2022-07-16T11:15:52.382Z</time>
      </trkpt>
      <trkpt lat="45.80833" lon="7.2445">
        <ele>1225</ele>
        <time>2022-07-16T11:15:55.775Z</time>
      </trkpt>
      <trkpt lat="45.80821" lon="7.24477">
        <ele>1224</ele>
        <time>2022-07-16T11:15:57.625Z</time>
      </trkpt>
      <trkpt lat="45.80802" lon="7.24524">
        <ele>1223</ele>
        <time>2022-07-16T11:16:01.394Z</time>
      </trkpt>
      <trkpt lat="45.80788" lon="7.24569">
        <ele>1223</ele>
        <time>2022-07-16T11:16:05.962Z</time>
      </trkpt>
      <trkpt lat="45.80777" lon="7.24631">
        <ele>1225</ele>
        <time>2022-07-16T11:16:15.994Z</time>
      </trkpt>
      <trkpt lat="45.80775" lon="7.24663">
        <ele>1225</ele>
        <time>2022-07-16T11:16:18.972Z</time>
      </trkpt>
      <trkpt lat="45.80776" lon="7.24693">
        <ele>1224</ele>
        <time>2022-07-16T11:16:20.662Z</time>
      </trkpt>
      <trkpt lat="45.80778" lon="7.24713">
        <ele>1223</ele>
        <time>2022-07-16T11:16:21.725Z</time>
      </trkpt>
      <trkpt lat="45.80781" lon="7.2472">
        <ele>1222</ele>
        <time>2022-07-16T11:16:22.157Z</time>
      </trkpt>
      <trkpt lat="45.80788" lon="7.24811">
        <ele>1219</ele>
        <time>2022-07-16T11:16:27.342Z</time>
      </trkpt>
      <trkpt lat="45.80787" lon="7.2488">
        <ele>1217</ele>
        <time>2022-07-16T11:16:31.450Z</time>
      </trkpt>
      <trkpt lat="45.80774" lon="7.24951">
        <ele>1217</ele>
        <time>2022-07-16T11:16:38.255Z</time>
      </trkpt>
      <trkpt lat="45.80754" lon="7.25016">
        <ele>1217</ele>
        <time>2022-07-16T11:16:44.841Z</time>
      </trkpt>
      <trkpt lat="45.80689" lon="7.25177">
        <ele>1212</ele>
        <time>2022-07-16T11:16:56.237Z</time>
      </trkpt>
      <trkpt lat="45.80581" lon="7.25392">
        <ele>1215</ele>
        <time>2022-07-16T11:17:25.097Z</time>
      </trkpt>
      <trkpt lat="45.80501" lon="7.25537">
        <ele>1216</ele>
        <time>2022-07-16T11:17:43.551Z</time>
      </trkpt>
      <trkpt lat="45.80465" lon="7.25615">
        <ele>1218</ele>
        <time>2022-07-16T11:17:55.611Z</time>
      </trkpt>
      <trkpt lat="45.80414" lon="7.25766">
        <ele>1217</ele>
        <time>2022-07-16T11:18:10.066Z</time>
      </trkpt>
      <trkpt lat="45.80354" lon="7.2599">
        <ele>1224</ele>
        <time>2022-07-16T11:18:46.139Z</time>
      </trkpt>
      <trkpt lat="45.80334" lon="7.26106">
        <ele>1214</ele>
        <time>2022-07-16T11:18:52.427Z</time>
      </trkpt>
      <trkpt lat="45.80318" lon="7.26223">
        <ele>1208</ele>
        <time>2022-07-16T11:18:58.700Z</time>
      </trkpt>
      <trkpt lat="45.803" lon="7.2632">
        <ele>1204</ele>
        <time>2022-07-16T11:19:03.914Z</time>
      </trkpt>
      <trkpt lat="45.80262" lon="7.26495">
        <ele>1197</ele>
        <time>2022-07-16T11:19:13.624Z</time>
      </trkpt>
      <trkpt lat="45.80187" lon="7.2689">
        <ele>1183</ele>
        <time>2022-07-16T11:19:36.397Z</time>
      </trkpt>
      <trkpt lat="45.80173" lon="7.26937">
        <ele>1187</ele>
        <time>2022-07-16T11:19:50.392Z</time>
      </trkpt>
      <trkpt lat="45.80148" lon="7.26996">
        <ele>1190</ele>
        <time>2022-07-16T11:20:02.568Z</time>
      </trkpt>
      <trkpt lat="45.80097" lon="7.27144">
        <ele>1186</ele>
        <time>2022-07-16T11:20:13.065Z</time>
      </trkpt>
      <trkpt lat="45.80078" lon="7.27232">
        <ele>1176</ele>
        <time>2022-07-16T11:20:17.912Z</time>
      </trkpt>
      <trkpt lat="45.80068" lon="7.27257">
        <ele>1175</ele>
        <time>2022-07-16T11:20:19.506Z</time>
      </trkpt>
      <trkpt lat="45.80051" lon="7.27296">
        <ele>1175</ele>
        <time>2022-07-16T11:20:23.770Z</time>
      </trkpt>
      <trkpt lat="45.80011" lon="7.27369">
        <ele>1176</ele>
        <time>2022-07-16T11:20:33.797Z</time>
      </trkpt>
      <trkpt lat="45.7997" lon="7.27426">
        <ele>1181</ele>
        <time>2022-07-16T11:20:51.410Z</time>
      </trkpt>
      <trkpt lat="45.79951" lon="7.27448">
        <ele>1183</ele>
        <time>2022-07-16T11:20:58.589Z</time>
      </trkpt>
      <trkpt lat="45.79915" lon="7.27501">
        <ele>1183</ele>
        <time>2022-07-16T11:21:05.450Z</time>
      </trkpt>
      <trkpt lat="45.79901" lon="7.27536">
        <ele>1182</ele>
        <time>2022-07-16T11:21:07.995Z</time>
      </trkpt>
      <trkpt lat="45.79826" lon="7.27778">
        <ele>1175</ele>
        <time>2022-07-16T11:21:24.319Z</time>
      </trkpt>
      <trkpt lat="45.79796" lon="7.2786">
        <ele>1170</ele>
        <time>2022-07-16T11:21:29.192Z</time>
      </trkpt>
      <trkpt lat="45.79784" lon="7.27885">
        <ele>1168</ele>
        <time>2022-07-16T11:21:30.789Z</time>
      </trkpt>
      <trkpt lat="45.79739" lon="7.2796">
        <ele>1163</ele>
        <time>2022-07-16T11:21:35.996Z</time>
      </trkpt>
      <trkpt lat="45.79711" lon="7.28002">
        <ele>1163</ele>
        <time>2022-07-16T11:21:41.384Z</time>
      </trkpt>
      <trkpt lat="45.79693" lon="7.28034">
        <ele>1163</ele>
        <time>2022-07-16T11:21:45.196Z</time>
      </trkpt>
      <trkpt lat="45.7967" lon="7.28083">
        <ele>1157</ele>
        <time>2022-07-16T11:21:48.305Z</time>
      </trkpt>
      <trkpt lat="45.79649" lon="7.28147">
        <ele>1148</ele>
        <time>2022-07-16T11:21:52.027Z</time>
      </trkpt>
      <trkpt lat="45.79615" lon="7.28276">
        <ele>1131</ele>
        <time>2022-07-16T11:21:59.284Z</time>
      </trkpt>
      <trkpt lat="45.79594" lon="7.28329">
        <ele>1129</ele>
        <time>2022-07-16T11:22:02.736Z</time>
      </trkpt>
      <trkpt lat="45.79426" lon="7.28589">
        <ele>1110</ele>
        <time>2022-07-16T11:22:21.390Z</time>
      </trkpt>
      <trkpt lat="45.79344" lon="7.2873">
        <ele>1098</ele>
        <time>2022-07-16T11:22:31.052Z</time>
      </trkpt>
      <trkpt lat="45.79331" lon="7.28745">
        <ele>1096</ele>
        <time>2022-07-16T11:22:32.312Z</time>
      </trkpt>
      <trkpt lat="45.79319" lon="7.28754">
        <ele>1093</ele>
        <time>2022-07-16T11:22:33.334Z</time>
      </trkpt>
      <trkpt lat="45.79302" lon="7.28755">
        <ele>1090</ele>
        <time>2022-07-16T11:22:34.618Z</time>
      </trkpt>
      <trkpt lat="45.79285" lon="7.28748">
        <ele>1089</ele>
        <time>2022-07-16T11:22:35.943Z</time>
      </trkpt>
      <trkpt lat="45.79274" lon="7.28734">
        <ele>1089</ele>
        <time>2022-07-16T11:22:37.898Z</time>
      </trkpt>
      <trkpt lat="45.79264" lon="7.28709">
        <ele>1090</ele>
        <time>2022-07-16T11:22:42.564Z</time>
      </trkpt>
      <trkpt lat="45.79249" lon="7.28639">
        <ele>1096</ele>
        <time>2022-07-16T11:23:03.855Z</time>
      </trkpt>
      <trkpt lat="45.79233" lon="7.28583">
        <ele>1098</ele>
        <time>2022-07-16T11:23:13.502Z</time>
      </trkpt>
      <trkpt lat="45.79192" lon="7.28513">
        <ele>1099</ele>
        <time>2022-07-16T11:23:23.402Z</time>
      </trkpt>
      <trkpt lat="45.79167" lon="7.28478">
        <ele>1101</ele>
        <time>2022-07-16T11:23:31.931Z</time>
      </trkpt>
      <trkpt lat="45.79154" lon="7.28466">
        <ele>1106</ele>
        <time>2022-07-16T11:23:39.861Z</time>
      </trkpt>
      <trkpt lat="45.79144" lon="7.28463">
        <ele>1108</ele>
        <time>2022-07-16T11:23:45.102Z</time>
      </trkpt>
      <trkpt lat="45.79129" lon="7.2847">
        <ele>1107</ele>
        <time>2022-07-16T11:23:46.220Z</time>
      </trkpt>
      <trkpt lat="45.7912" lon="7.28483">
        <ele>1105</ele>
        <time>2022-07-16T11:23:47.184Z</time>
      </trkpt>
      <trkpt lat="45.79114" lon="7.28505">
        <ele>1102</ele>
        <time>2022-07-16T11:23:48.427Z</time>
      </trkpt>
      <trkpt lat="45.79133" lon="7.28568">
        <ele>1090</ele>
        <time>2022-07-16T11:23:52.040Z</time>
      </trkpt>
      <trkpt lat="45.79136" lon="7.28591">
        <ele>1087</ele>
        <time>2022-07-16T11:23:53.271Z</time>
      </trkpt>
      <trkpt lat="45.79135" lon="7.28627">
        <ele>1082</ele>
        <time>2022-07-16T11:23:55.167Z</time>
      </trkpt>
      <trkpt lat="45.79128" lon="7.28654">
        <ele>1080</ele>
        <time>2022-07-16T11:23:56.683Z</time>
      </trkpt>
      <trkpt lat="45.79092" lon="7.2876">
        <ele>1076</ele>
        <time>2022-07-16T11:24:03.266Z</time>
      </trkpt>
      <trkpt lat="45.7908" lon="7.28807">
        <ele>1077</ele>
        <time>2022-07-16T11:24:09.559Z</time>
      </trkpt>
      <trkpt lat="45.79076" lon="7.28857">
        <ele>1076</ele>
        <time>2022-07-16T11:24:12.973Z</time>
      </trkpt>
      <trkpt lat="45.79076" lon="7.28886">
        <ele>1074</ele>
        <time>2022-07-16T11:24:14.500Z</time>
      </trkpt>
      <trkpt lat="45.79084" lon="7.28948">
        <ele>1070</ele>
        <time>2022-07-16T11:24:17.818Z</time>
      </trkpt>
      <trkpt lat="45.79102" lon="7.29032">
        <ele>1064</ele>
        <time>2022-07-16T11:24:22.443Z</time>
      </trkpt>
      <trkpt lat="45.79126" lon="7.29175">
        <ele>1053</ele>
        <time>2022-07-16T11:24:30.183Z</time>
      </trkpt>
      <trkpt lat="45.79127" lon="7.29203">
        <ele>1050</ele>
        <time>2022-07-16T11:24:31.659Z</time>
      </trkpt>
      <trkpt lat="45.79124" lon="7.29229">
        <ele>1048</ele>
        <time>2022-07-16T11:24:33.046Z</time>
      </trkpt>
      <trkpt lat="45.79114" lon="7.29261">
        <ele>1045</ele>
        <time>2022-07-16T11:24:34.891Z</time>
      </trkpt>
      <trkpt lat="45.79105" lon="7.29277">
        <ele>1044</ele>
        <time>2022-07-16T11:24:35.973Z</time>
      </trkpt>
      <trkpt lat="45.79085" lon="7.293">
        <ele>1044</ele>
        <time>2022-07-16T11:24:39.382Z</time>
      </trkpt>
      <trkpt lat="45.7902" lon="7.29344">
        <ele>1041</ele>
        <time>2022-07-16T11:24:45.510Z</time>
      </trkpt>
      <trkpt lat="45.78898" lon="7.29432">
        <ele>1032</ele>
        <time>2022-07-16T11:24:55.007Z</time>
      </trkpt>
      <trkpt lat="45.7882" lon="7.29479">
        <ele>1023</ele>
        <time>2022-07-16T11:25:01.393Z</time>
      </trkpt>
      <trkpt lat="45.78792" lon="7.29491">
        <ele>1021</ele>
        <time>2022-07-16T11:25:03.598Z</time>
      </trkpt>
      <trkpt lat="45.78513" lon="7.29574">
        <ele>999</ele>
        <time>2022-07-16T11:25:25.104Z</time>
      </trkpt>
      <trkpt lat="45.78407" lon="7.29609">
        <ele>995</ele>
        <time>2022-07-16T11:25:34.829Z</time>
      </trkpt>
      <trkpt lat="45.78386" lon="7.29621">
        <ele>993</ele>
        <time>2022-07-16T11:25:36.535Z</time>
      </trkpt>
      <trkpt lat="45.7837" lon="7.29635">
        <ele>992</ele>
        <time>2022-07-16T11:25:37.976Z</time>
      </trkpt>
      <trkpt lat="45.78333" lon="7.29682">
        <ele>988</ele>
        <time>2022-07-16T11:25:41.707Z</time>
      </trkpt>
      <trkpt lat="45.78317" lon="7.29708">
        <ele>983</ele>
        <time>2022-07-16T11:25:43.532Z</time>
      </trkpt>
      <trkpt lat="45.78291" lon="7.29741">
        <ele>978</ele>
        <time>2022-07-16T11:25:46.153Z</time>
      </trkpt>
      <trkpt lat="45.78279" lon="7.29752">
        <ele>977</ele>
        <time>2022-07-16T11:25:47.228Z</time>
      </trkpt>
      <trkpt lat="45.78237" lon="7.29774">
        <ele>974</ele>
        <time>2022-07-16T11:25:50.603Z</time>
      </trkpt>
      <trkpt lat="45.78167" lon="7.29799">
        <ele>967</ele>
        <time>2022-07-16T11:25:56.047Z</time>
      </trkpt>
      <trkpt lat="45.78153" lon="7.298">
        <ele>965</ele>
        <time>2022-07-16T11:25:57.105Z</time>
      </trkpt>
      <trkpt lat="45.78145" lon="7.29798">
        <ele>964</ele>
        <time>2022-07-16T11:25:57.718Z</time>
      </trkpt>
      <trkpt lat="45.78128" lon="7.29786">
        <ele>964</ele>
        <time>2022-07-16T11:26:00.238Z</time>
      </trkpt>
      <trkpt lat="45.78118" lon="7.29769">
        <ele>965</ele>
        <time>2022-07-16T11:26:04.223Z</time>
      </trkpt>
      <trkpt lat="45.7811" lon="7.29747">
        <ele>967</ele>
        <time>2022-07-16T11:26:11.278Z</time>
      </trkpt>
      <trkpt lat="45.78108" lon="7.2971">
        <ele>965</ele>
        <time>2022-07-16T11:26:13.232Z</time>
      </trkpt>
      <trkpt lat="45.78125" lon="7.29642">
        <ele>967</ele>
        <time>2022-07-16T11:26:23.760Z</time>
      </trkpt>
      <trkpt lat="45.78128" lon="7.29619">
        <ele>967</ele>
        <time>2022-07-16T11:26:25.930Z</time>
      </trkpt>
      <trkpt lat="45.78122" lon="7.29579">
        <ele>964</ele>
        <time>2022-07-16T11:26:28.083Z</time>
      </trkpt>
      <trkpt lat="45.78114" lon="7.29564">
        <ele>964</ele>
        <time>2022-07-16T11:26:29.835Z</time>
      </trkpt>
      <trkpt lat="45.781" lon="7.29551">
        <ele>963</ele>
        <time>2022-07-16T11:26:31.050Z</time>
      </trkpt>
      <trkpt lat="45.78051" lon="7.29521">
        <ele>960</ele>
        <time>2022-07-16T11:26:35.048Z</time>
      </trkpt>
      <trkpt lat="45.78011" lon="7.29502">
        <ele>958</ele>
        <time>2022-07-16T11:26:38.458Z</time>
      </trkpt>
      <trkpt lat="45.78001" lon="7.295">
        <ele>957</ele>
        <time>2022-07-16T11:26:39.220Z</time>
      </trkpt>
      <trkpt lat="45.77971" lon="7.29508">
        <ele>955</ele>
        <time>2022-07-16T11:26:41.348Z</time>
      </trkpt>
      <trkpt lat="45.77919" lon="7.29535">
        <ele>949</ele>
        <time>2022-07-16T11:26:45.522Z</time>
      </trkpt>
      <trkpt lat="45.77897" lon="7.2954">
        <ele>948</ele>
        <time>2022-07-16T11:26:47.366Z</time>
      </trkpt>
      <trkpt lat="45.77837" lon="7.29544">
        <ele>946</ele>
        <time>2022-07-16T11:26:52.925Z</time>
      </trkpt>
      <trkpt lat="45.77813" lon="7.29548">
        <ele>946</ele>
        <time>2022-07-16T11:26:56.139Z</time>
      </trkpt>
      <trkpt lat="45.77786" lon="7.29558">
        <ele>947</ele>
        <time>2022-07-16T11:27:01.661Z</time>
      </trkpt>
      <trkpt lat="45.77776" lon="7.29566">
        <ele>946</ele>
        <time>2022-07-16T11:27:02.525Z</time>
      </trkpt>
      <trkpt lat="45.77715" lon="7.29637">
        <ele>948</ele>
        <time>2022-07-16T11:27:16.151Z</time>
      </trkpt>
      <trkpt lat="45.77538" lon="7.29801">
        <ele>935</ele>
        <time>2022-07-16T11:27:31.294Z</time>
      </trkpt>
      <trkpt lat="45.77513" lon="7.29829">
        <ele>928</ele>
        <time>2022-07-16T11:27:33.688Z</time>
      </trkpt>
      <trkpt lat="45.77492" lon="7.29856">
        <ele>926</ele>
        <time>2022-07-16T11:27:35.817Z</time>
      </trkpt>
      <trkpt lat="45.7741" lon="7.29997">
        <ele>922</ele>
        <time>2022-07-16T11:27:47.921Z</time>
      </trkpt>
      <trkpt lat="45.77336" lon="7.30074">
        <ele>916</ele>
        <time>2022-07-16T11:27:54.294Z</time>
      </trkpt>
      <trkpt lat="45.77117" lon="7.30267">
        <ele>907</ele>
        <time>2022-07-16T11:28:17.679Z</time>
      </trkpt>
      <trkpt lat="45.76963" lon="7.3042">
        <ele>902</ele>
        <time>2022-07-16T11:28:36.267Z</time>
      </trkpt>
      <trkpt lat="45.76932" lon="7.30446">
        <ele>901</ele>
        <time>2022-07-16T11:28:39.786Z</time>
      </trkpt>
      <trkpt lat="45.7689" lon="7.30474">
        <ele>897</ele>
        <time>2022-07-16T11:28:43.282Z</time>
      </trkpt>
      <trkpt lat="45.76864" lon="7.30488">
        <ele>895</ele>
        <time>2022-07-16T11:28:45.378Z</time>
      </trkpt>
      <trkpt lat="45.7675" lon="7.30528">
        <ele>899</ele>
        <time>2022-07-16T11:29:08.070Z</time>
      </trkpt>
      <trkpt lat="45.76741" lon="7.30533">
        <ele>900</ele>
        <time>2022-07-16T11:29:11.530Z</time>
      </trkpt>
      <trkpt lat="45.76727" lon="7.30549">
        <ele>900</ele>
        <time>2022-07-16T11:29:13.911Z</time>
      </trkpt>
      <trkpt lat="45.76723" lon="7.30557">
        <ele>899</ele>
        <time>2022-07-16T11:29:14.429Z</time>
      </trkpt>
      <trkpt lat="45.76717" lon="7.30593">
        <ele>893</ele>
        <time>2022-07-16T11:29:16.378Z</time>
      </trkpt>
      <trkpt lat="45.76719" lon="7.30609">
        <ele>889</ele>
        <time>2022-07-16T11:29:17.233Z</time>
      </trkpt>
      <trkpt lat="45.76726" lon="7.30632">
        <ele>883</ele>
        <time>2022-07-16T11:29:18.555Z</time>
      </trkpt>
      <trkpt lat="45.76738" lon="7.3065">
        <ele>878</ele>
        <time>2022-07-16T11:29:19.865Z</time>
      </trkpt>
      <trkpt lat="45.7675" lon="7.30657">
        <ele>875</ele>
        <time>2022-07-16T11:29:20.843Z</time>
      </trkpt>
      <trkpt lat="45.76765" lon="7.30659">
        <ele>873</ele>
        <time>2022-07-16T11:29:21.980Z</time>
      </trkpt>
      <trkpt lat="45.76779" lon="7.30657">
        <ele>872</ele>
        <time>2022-07-16T11:29:23.042Z</time>
      </trkpt>
      <trkpt lat="45.77036" lon="7.30494">
        <ele>883</ele>
        <time>2022-07-16T11:30:21.304Z</time>
      </trkpt>
      <trkpt lat="45.77041" lon="7.30494">
        <ele>883</ele>
        <time>2022-07-16T11:30:21.969Z</time>
      </trkpt>
      <trkpt lat="45.77051" lon="7.30489">
        <ele>882</ele>
        <time>2022-07-16T11:30:22.768Z</time>
      </trkpt>
      <trkpt lat="45.77134" lon="7.30442">
        <ele>878</ele>
        <time>2022-07-16T11:30:30.163Z</time>
      </trkpt>
      <trkpt lat="45.7715" lon="7.30439">
        <ele>877</ele>
        <time>2022-07-16T11:30:31.320Z</time>
      </trkpt>
      <trkpt lat="45.77158" lon="7.3044">
        <ele>876</ele>
        <time>2022-07-16T11:30:31.926Z</time>
      </trkpt>
      <trkpt lat="45.77164" lon="7.30442">
        <ele>875</ele>
        <time>2022-07-16T11:30:32.391Z</time>
      </trkpt>
      <trkpt lat="45.77179" lon="7.30454">
        <ele>874</ele>
        <time>2022-07-16T11:30:33.660Z</time>
      </trkpt>
      <trkpt lat="45.7719" lon="7.30476">
        <ele>873</ele>
        <time>2022-07-16T11:30:35.116Z</time>
      </trkpt>
      <trkpt lat="45.77192" lon="7.30489">
        <ele>872</ele>
        <time>2022-07-16T11:30:35.817Z</time>
      </trkpt>
      <trkpt lat="45.77192" lon="7.30573">
        <ele>870</ele>
        <time>2022-07-16T11:30:41.194Z</time>
      </trkpt>
      <trkpt lat="45.77182" lon="7.30648">
        <ele>862</ele>
        <time>2022-07-16T11:30:45.214Z</time>
      </trkpt>
      <trkpt lat="45.77175" lon="7.30661">
        <ele>861</ele>
        <time>2022-07-16T11:30:46.079Z</time>
      </trkpt>
      <trkpt lat="45.77158" lon="7.30681">
        <ele>859</ele>
        <time>2022-07-16T11:30:47.739Z</time>
      </trkpt>
      <trkpt lat="45.77145" lon="7.30693">
        <ele>858</ele>
        <time>2022-07-16T11:30:48.824Z</time>
      </trkpt>
      <trkpt lat="45.77128" lon="7.30699">
        <ele>858</ele>
        <time>2022-07-16T11:30:51.152Z</time>
      </trkpt>
      <trkpt lat="45.77114" lon="7.30701">
        <ele>859</ele>
        <time>2022-07-16T11:30:54.948Z</time>
      </trkpt>
      <trkpt lat="45.77098" lon="7.30699">
        <ele>860</ele>
        <time>2022-07-16T11:30:59.009Z</time>
      </trkpt>
      <trkpt lat="45.7706" lon="7.30688">
        <ele>863</ele>
        <time>2022-07-16T11:31:09.995Z</time>
      </trkpt>
      <trkpt lat="45.77044" lon="7.30688">
        <ele>863</ele>
        <time>2022-07-16T11:31:12.123Z</time>
      </trkpt>
      <trkpt lat="45.7703" lon="7.30694">
        <ele>862</ele>
        <time>2022-07-16T11:31:13.226Z</time>
      </trkpt>
      <trkpt lat="45.7702" lon="7.3071">
        <ele>859</ele>
        <time>2022-07-16T11:31:14.357Z</time>
      </trkpt>
      <trkpt lat="45.77017" lon="7.30721">
        <ele>858</ele>
        <time>2022-07-16T11:31:14.978Z</time>
      </trkpt>
      <trkpt lat="45.77017" lon="7.30733">
        <ele>856</ele>
        <time>2022-07-16T11:31:15.610Z</time>
      </trkpt>
      <trkpt lat="45.77029" lon="7.30759">
        <ele>851</ele>
        <time>2022-07-16T11:31:17.252Z</time>
      </trkpt>
      <trkpt lat="45.77039" lon="7.30765">
        <ele>849</ele>
        <time>2022-07-16T11:31:18.070Z</time>
      </trkpt>
      <trkpt lat="45.77057" lon="7.30765">
        <ele>848</ele>
        <time>2022-07-16T11:31:19.429Z</time>
      </trkpt>
      <trkpt lat="45.77115" lon="7.30754">
        <ele>847</ele>
        <time>2022-07-16T11:31:25.909Z</time>
      </trkpt>
      <trkpt lat="45.77148" lon="7.30744">
        <ele>846</ele>
        <time>2022-07-16T11:31:29.151Z</time>
      </trkpt>
      <trkpt lat="45.77194" lon="7.3073">
        <ele>843</ele>
        <time>2022-07-16T11:31:32.474Z</time>
      </trkpt>
      <trkpt lat="45.773" lon="7.30677">
        <ele>843</ele>
        <time>2022-07-16T11:31:47.404Z</time>
      </trkpt>
      <trkpt lat="45.77312" lon="7.30673">
        <ele>843</ele>
        <time>2022-07-16T11:31:49.042Z</time>
      </trkpt>
      <trkpt lat="45.77334" lon="7.30675">
        <ele>840</ele>
        <time>2022-07-16T11:31:50.706Z</time>
      </trkpt>
      <trkpt lat="45.77343" lon="7.30679">
        <ele>838</ele>
        <time>2022-07-16T11:31:51.417Z</time>
      </trkpt>
      <trkpt lat="45.77355" lon="7.3069">
        <ele>834</ele>
        <time>2022-07-16T11:31:52.492Z</time>
      </trkpt>
      <trkpt lat="45.7736" lon="7.30712">
        <ele>830</ele>
        <time>2022-07-16T11:31:53.710Z</time>
      </trkpt>
      <trkpt lat="45.77359" lon="7.30728">
        <ele>827</ele>
        <time>2022-07-16T11:31:54.556Z</time>
      </trkpt>
      <trkpt lat="45.77357" lon="7.30736">
        <ele>826</ele>
        <time>2022-07-16T11:31:55.003Z</time>
      </trkpt>
      <trkpt lat="45.77342" lon="7.30759">
        <ele>825</ele>
        <time>2022-07-16T11:31:56.812Z</time>
      </trkpt>
      <trkpt lat="45.77316" lon="7.3077">
        <ele>825</ele>
        <time>2022-07-16T11:32:00.417Z</time>
      </trkpt>
      <trkpt lat="45.77233" lon="7.30791">
        <ele>823</ele>
        <time>2022-07-16T11:32:09.056Z</time>
      </trkpt>
      <trkpt lat="45.77116" lon="7.3084">
        <ele>821</ele>
        <time>2022-07-16T11:32:22.670Z</time>
      </trkpt>
      <trkpt lat="45.7708" lon="7.30858">
        <ele>818</ele>
        <time>2022-07-16T11:32:25.547Z</time>
      </trkpt>
      <trkpt lat="45.76901" lon="7.30975">
        <ele>802</ele>
        <time>2022-07-16T11:32:40.395Z</time>
      </trkpt>
      <trkpt lat="45.76848" lon="7.31015">
        <ele>799</ele>
        <time>2022-07-16T11:32:45.132Z</time>
      </trkpt>
      <trkpt lat="45.76648" lon="7.31142">
        <ele>789</ele>
        <time>2022-07-16T11:33:03.112Z</time>
      </trkpt>
      <trkpt lat="45.7662" lon="7.31157">
        <ele>788</ele>
        <time>2022-07-16T11:33:05.874Z</time>
      </trkpt>
      <trkpt lat="45.76574" lon="7.31177">
        <ele>786</ele>
        <time>2022-07-16T11:33:09.977Z</time>
      </trkpt>
      <trkpt lat="45.76559" lon="7.31181">
        <ele>786</ele>
        <time>2022-07-16T11:33:12.006Z</time>
      </trkpt>
      <trkpt lat="45.76481" lon="7.31196">
        <ele>786</ele>
        <time>2022-07-16T11:33:22.472Z</time>
      </trkpt>
      <trkpt lat="45.76477" lon="7.31194">
        <ele>786</ele>
        <time>2022-07-16T11:33:23.035Z</time>
      </trkpt>
      <trkpt lat="45.76458" lon="7.31196">
        <ele>788</ele>
        <time>2022-07-16T11:33:29.960Z</time>
      </trkpt>
      <trkpt lat="45.76435" lon="7.31213">
        <ele>785</ele>
        <time>2022-07-16T11:33:31.913Z</time>
      </trkpt>
      <trkpt lat="45.76341" lon="7.31303">
        <ele>779</ele>
        <time>2022-07-16T11:33:40.626Z</time>
      </trkpt>
      <trkpt lat="45.76313" lon="7.31321">
        <ele>780</ele>
        <time>2022-07-16T11:33:46.443Z</time>
      </trkpt>
      <trkpt lat="45.76287" lon="7.31343">
        <ele>779</ele>
        <time>2022-07-16T11:33:49.243Z</time>
      </trkpt>
      <trkpt lat="45.76269" lon="7.31362">
        <ele>778</ele>
        <time>2022-07-16T11:33:51.097Z</time>
      </trkpt>
      <trkpt lat="45.76246" lon="7.31404">
        <ele>771</ele>
        <time>2022-07-16T11:33:53.908Z</time>
      </trkpt>
      <trkpt lat="45.76218" lon="7.31433">
        <ele>766</ele>
        <time>2022-07-16T11:33:56.515Z</time>
      </trkpt>
      <trkpt lat="45.76189" lon="7.31452">
        <ele>764</ele>
        <time>2022-07-16T11:33:58.788Z</time>
      </trkpt>
      <trkpt lat="45.7614" lon="7.31473">
        <ele>760</ele>
        <time>2022-07-16T11:34:02.648Z</time>
      </trkpt>
      <trkpt lat="45.76093" lon="7.31487">
        <ele>757</ele>
        <time>2022-07-16T11:34:06.075Z</time>
      </trkpt>
      <trkpt lat="45.76016" lon="7.31505">
        <ele>750</ele>
        <time>2022-07-16T11:34:11.964Z</time>
      </trkpt>
      <trkpt lat="45.75989" lon="7.31515">
        <ele>748</ele>
        <time>2022-07-16T11:34:14.069Z</time>
      </trkpt>
      <trkpt lat="45.75984" lon="7.31518">
        <ele>747</ele>
        <time>2022-07-16T11:34:14.478Z</time>
      </trkpt>
      <trkpt lat="45.75982" lon="7.31523">
        <ele>747</ele>
        <time>2022-07-16T11:34:15.012Z</time>
      </trkpt>
      <trkpt lat="45.75916" lon="7.31543">
        <ele>744</ele>
        <time>2022-07-16T11:34:20.620Z</time>
      </trkpt>
      <trkpt lat="45.75862" lon="7.31563">
        <ele>741</ele>
        <time>2022-07-16T11:34:24.894Z</time>
      </trkpt>
      <trkpt lat="45.75827" lon="7.31582">
        <ele>737</ele>
        <time>2022-07-16T11:34:27.718Z</time>
      </trkpt>
      <trkpt lat="45.75678" lon="7.31678">
        <ele>728</ele>
        <time>2022-07-16T11:34:40.100Z</time>
      </trkpt>
      <trkpt lat="45.75651" lon="7.31692">
        <ele>726</ele>
        <time>2022-07-16T11:34:42.267Z</time>
      </trkpt>
      <trkpt lat="45.75548" lon="7.31717">
        <ele>719</ele>
        <time>2022-07-16T11:34:50.152Z</time>
      </trkpt>
      <trkpt lat="45.75448" lon="7.31729">
        <ele>718</ele>
        <time>2022-07-16T11:35:02.320Z</time>
      </trkpt>
      <trkpt lat="45.75427" lon="7.3174">
        <ele>717</ele>
        <time>2022-07-16T11:35:04.174Z</time>
      </trkpt>
      <trkpt lat="45.75405" lon="7.31762">
        <ele>714</ele>
        <time>2022-07-16T11:35:06.199Z</time>
      </trkpt>
      <trkpt lat="45.75396" lon="7.31769">
        <ele>713</ele>
        <time>2022-07-16T11:35:06.972Z</time>
      </trkpt>
      <trkpt lat="45.75388" lon="7.31771">
        <ele>712</ele>
        <time>2022-07-16T11:35:07.584Z</time>
      </trkpt>
      <trkpt lat="45.75375" lon="7.3177">
        <ele>713</ele>
        <time>2022-07-16T11:35:11.257Z</time>
      </trkpt>
      <trkpt lat="45.75358" lon="7.31759">
        <ele>715</ele>
        <time>2022-07-16T11:35:18.196Z</time>
      </trkpt>
      <trkpt lat="45.75342" lon="7.31753">
        <ele>717</ele>
        <time>2022-07-16T11:35:25.381Z</time>
      </trkpt>
      <trkpt lat="45.75336" lon="7.31754">
        <ele>717</ele>
        <time>2022-07-16T11:35:26.184Z</time>
      </trkpt>
      <trkpt lat="45.75288" lon="7.31777">
        <ele>711</ele>
        <time>2022-07-16T11:35:30.004Z</time>
      </trkpt>
      <trkpt lat="45.75275" lon="7.31779">
        <ele>711</ele>
        <time>2022-07-16T11:35:31.743Z</time>
      </trkpt>
      <trkpt lat="45.752" lon="7.31773">
        <ele>711</ele>
        <time>2022-07-16T11:35:41.733Z</time>
      </trkpt>
      <trkpt lat="45.75178" lon="7.31781">
        <ele>709</ele>
        <time>2022-07-16T11:35:43.446Z</time>
      </trkpt>
      <trkpt lat="45.75139" lon="7.3182">
        <ele>701</ele>
        <time>2022-07-16T11:35:47.035Z</time>
      </trkpt>
      <trkpt lat="45.75126" lon="7.3183">
        <ele>699</ele>
        <time>2022-07-16T11:35:48.149Z</time>
      </trkpt>
      <trkpt lat="45.75109" lon="7.31834">
        <ele>697</ele>
        <time>2022-07-16T11:35:49.449Z</time>
      </trkpt>
      <trkpt lat="45.75032" lon="7.31843">
        <ele>696</ele>
        <time>2022-07-16T11:35:58.460Z</time>
      </trkpt>
      <trkpt lat="45.75015" lon="7.3186">
        <ele>695</ele>
        <time>2022-07-16T11:36:00.126Z</time>
      </trkpt>
      <trkpt lat="45.74987" lon="7.31898">
        <ele>692</ele>
        <time>2022-07-16T11:36:03.036Z</time>
      </trkpt>
      <trkpt lat="45.74899" lon="7.31933">
        <ele>688</ele>
        <time>2022-07-16T11:36:10.675Z</time>
      </trkpt>
      <trkpt lat="45.74888" lon="7.31935">
        <ele>686</ele>
        <time>2022-07-16T11:36:11.512Z</time>
      </trkpt>
      <trkpt lat="45.74873" lon="7.31931">
        <ele>684</ele>
        <time>2022-07-16T11:36:12.663Z</time>
      </trkpt>
      <trkpt lat="45.74845" lon="7.319">
        <ele>682</ele>
        <time>2022-07-16T11:36:15.313Z</time>
      </trkpt>
      <trkpt lat="45.74786" lon="7.31796">
        <ele>679</ele>
        <time>2022-07-16T11:36:24.078Z</time>
      </trkpt>
      <trkpt lat="45.74758" lon="7.31741">
        <ele>677</ele>
        <time>2022-07-16T11:36:28.115Z</time>
      </trkpt>
      <trkpt lat="45.74727" lon="7.3169">
        <ele>673</ele>
        <time>2022-07-16T11:36:31.677Z</time>
      </trkpt>
      <trkpt lat="45.74716" lon="7.31683">
        <ele>671</ele>
        <time>2022-07-16T11:36:32.586Z</time>
      </trkpt>
      <trkpt lat="45.74704" lon="7.31686">
        <ele>669</ele>
        <time>2022-07-16T11:36:33.505Z</time>
      </trkpt>
      <trkpt lat="45.747" lon="7.31691">
        <ele>668</ele>
        <time>2022-07-16T11:36:33.906Z</time>
      </trkpt>
      <trkpt lat="45.74698" lon="7.31709">
        <ele>668</ele>
        <time>2022-07-16T11:36:35.597Z</time>
      </trkpt>
      <trkpt lat="45.74717" lon="7.31788">
        <ele>668</ele>
        <time>2022-07-16T11:36:43.352Z</time>
      </trkpt>
      <trkpt lat="45.74715" lon="7.31817">
        <ele>667</ele>
        <time>2022-07-16T11:36:44.973Z</time>
      </trkpt>
      <trkpt lat="45.74707" lon="7.31844">
        <ele>665</ele>
        <time>2022-07-16T11:36:46.518Z</time>
      </trkpt>
      <trkpt lat="45.74698" lon="7.31864">
        <ele>662</ele>
        <time>2022-07-16T11:36:47.771Z</time>
      </trkpt>
      <trkpt lat="45.74694" lon="7.31888">
        <ele>661</ele>
        <time>2022-07-16T11:36:49.044Z</time>
      </trkpt>
      <trkpt lat="45.74697" lon="7.3191">
        <ele>660</ele>
        <time>2022-07-16T11:36:50.149Z</time>
      </trkpt>
      <trkpt lat="45.74716" lon="7.31976">
        <ele>658</ele>
        <time>2022-07-16T11:36:54.461Z</time>
      </trkpt>
      <trkpt lat="45.74718" lon="7.31993">
        <ele>657</ele>
        <time>2022-07-16T11:36:55.369Z</time>
      </trkpt>
      <trkpt lat="45.74712" lon="7.32091">
        <ele>655</ele>
        <time>2022-07-16T11:37:02.002Z</time>
      </trkpt>
      <trkpt lat="45.74707" lon="7.32121">
        <ele>650</ele>
        <time>2022-07-16T11:37:03.627Z</time>
      </trkpt>
      <trkpt lat="45.74695" lon="7.32137">
        <ele>646</ele>
        <time>2022-07-16T11:37:04.864Z</time>
      </trkpt>
      <trkpt lat="45.74682" lon="7.32144">
        <ele>644</ele>
        <time>2022-07-16T11:37:05.912Z</time>
      </trkpt>
      <trkpt lat="45.74642" lon="7.32156">
        <ele>642</ele>
        <time>2022-07-16T11:37:09.177Z</time>
      </trkpt>
      <trkpt lat="45.74631" lon="7.32163">
        <ele>641</ele>
        <time>2022-07-16T11:37:10.085Z</time>
      </trkpt>
      <trkpt lat="45.74608" lon="7.32187">
        <ele>636</ele>
        <time>2022-07-16T11:37:12.232Z</time>
      </trkpt>
      <trkpt lat="45.74567" lon="7.3222">
        <ele>628</ele>
        <time>2022-07-16T11:37:15.782Z</time>
      </trkpt>
      <trkpt lat="45.74528" lon="7.32236">
        <ele>624</ele>
        <time>2022-07-16T11:37:18.843Z</time>
      </trkpt>
      <trkpt lat="45.74513" lon="7.32237">
        <ele>623</ele>
        <time>2022-07-16T11:37:19.882Z</time>
      </trkpt>
      <trkpt lat="45.74483" lon="7.32229">
        <ele>620</ele>
        <time>2022-07-16T11:37:22.185Z</time>
      </trkpt>
      <trkpt lat="45.74478" lon="7.32225">
        <ele>620</ele>
        <time>2022-07-16T11:37:22.947Z</time>
      </trkpt>
      <trkpt lat="45.74472" lon="7.32212">
        <ele>620</ele>
        <time>2022-07-16T11:37:24.393Z</time>
      </trkpt>
      <trkpt lat="45.7447" lon="7.32176">
        <ele>624</ele>
        <time>2022-07-16T11:37:37.321Z</time>
      </trkpt>
      <trkpt lat="45.74473" lon="7.31961">
        <ele>627</ele>
        <time>2022-07-16T11:38:01.752Z</time>
      </trkpt>
      <trkpt lat="45.74469" lon="7.31926">
        <ele>625</ele>
        <time>2022-07-16T11:38:03.620Z</time>
      </trkpt>
      <trkpt lat="45.74451" lon="7.31849">
        <ele>621</ele>
        <time>2022-07-16T11:38:07.897Z</time>
      </trkpt>
      <trkpt lat="45.7444" lon="7.31786">
        <ele>621</ele>
        <time>2022-07-16T11:38:13.924Z</time>
      </trkpt>
      <trkpt lat="45.74427" lon="7.31751">
        <ele>620</ele>
        <time>2022-07-16T11:38:16.413Z</time>
      </trkpt>
      <trkpt lat="45.74387" lon="7.31691">
        <ele>613</ele>
        <time>2022-07-16T11:38:20.783Z</time>
      </trkpt>
      <trkpt lat="45.74349" lon="7.31621">
        <ele>610</ele>
        <time>2022-07-16T11:38:25.747Z</time>
      </trkpt>
      <trkpt lat="45.74338" lon="7.31611">
        <ele>609</ele>
        <time>2022-07-16T11:38:26.730Z</time>
      </trkpt>
      <trkpt lat="45.74297" lon="7.31601">
        <ele>606</ele>
        <time>2022-07-16T11:38:29.869Z</time>
      </trkpt>
      <trkpt lat="45.74281" lon="7.31592">
        <ele>605</ele>
        <time>2022-07-16T11:38:31.140Z</time>
      </trkpt>
      <trkpt lat="45.74275" lon="7.31584">
        <ele>604</ele>
        <time>2022-07-16T11:38:31.758Z</time>
      </trkpt>
      <trkpt lat="45.74246" lon="7.31504">
        <ele>602</ele>
        <time>2022-07-16T11:38:37.671Z</time>
      </trkpt>
      <trkpt lat="45.74237" lon="7.3149">
        <ele>602</ele>
        <time>2022-07-16T11:38:39.438Z</time>
      </trkpt>
      <trkpt lat="45.74191" lon="7.31441">
        <ele>598</ele>
        <time>2022-07-16T11:38:43.764Z</time>
      </trkpt>
      <trkpt lat="45.74187" lon="7.31433">
        <ele>597</ele>
        <time>2022-07-16T11:38:44.282Z</time>
      </trkpt>
      <trkpt lat="45.74172" lon="7.31424">
        <ele>596</ele>
        <time>2022-07-16T11:38:45.453Z</time>
      </trkpt>
      <trkpt lat="45.74165" lon="7.31424">
        <ele>595</ele>
        <time>2022-07-16T11:38:45.981Z</time>
      </trkpt>
      <trkpt lat="45.74161" lon="7.31411">
        <ele>595</ele>
        <time>2022-07-16T11:38:47.300Z</time>
      </trkpt>
      <trkpt lat="45.74155" lon="7.31407">
        <ele>595</ele>
        <time>2022-07-16T11:38:48.180Z</time>
      </trkpt>
      <trkpt lat="45.74151" lon="7.31408">
        <ele>594</ele>
        <time>2022-07-16T11:38:48.486Z</time>
      </trkpt>
      <trkpt lat="45.74155" lon="7.31361">
        <ele>596</ele>
        <time>2022-07-16T11:38:56.739Z</time>
      </trkpt>
      <trkpt lat="45.74153" lon="7.31355">
        <ele>596</ele>
        <time>2022-07-16T11:38:57.356Z</time>
      </trkpt>
      <trkpt lat="45.74154" lon="7.31298">
        <ele>597</ele>
        <time>2022-07-16T11:39:04.231Z</time>
      </trkpt>
      <trkpt lat="45.74142" lon="7.31261">
        <ele>596</ele>
        <time>2022-07-16T11:39:06.818Z</time>
      </trkpt>
      <trkpt lat="45.74128" lon="7.31232">
        <ele>595</ele>
        <time>2022-07-16T11:39:08.938Z</time>
      </trkpt>
      <trkpt lat="45.74076" lon="7.31148">
        <ele>592</ele>
        <time>2022-07-16T11:39:15.841Z</time>
      </trkpt>
      <trkpt lat="45.74037" lon="7.31091">
        <ele>590</ele>
        <time>2022-07-16T11:39:20.865Z</time>
      </trkpt>
      <trkpt lat="45.74034" lon="7.31082">
        <ele>591</ele>
        <time>2022-07-16T11:39:24.435Z</time>
      </trkpt>
      <trkpt lat="45.74006" lon="7.31043">
        <ele>591</ele>
        <time>2022-07-16T11:39:29.628Z</time>
      </trkpt>
      <trkpt lat="45.74007" lon="7.31036">
        <ele>591</ele>
        <time>2022-07-16T11:39:30.292Z</time>
      </trkpt>
      <trkpt lat="45.74005" lon="7.31031">
        <ele>591</ele>
        <time>2022-07-16T11:39:30.826Z</time>
      </trkpt>
      <trkpt lat="45.74002" lon="7.31028">
        <ele>591</ele>
        <time>2022-07-16T11:39:31.313Z</time>
      </trkpt>
      <trkpt lat="45.73996" lon="7.31029">
        <ele>590</ele>
        <time>2022-07-16T11:39:31.769Z</time>
      </trkpt>
      <trkpt lat="45.73975" lon="7.30996">
        <ele>591</ele>
        <time>2022-07-16T11:39:37.639Z</time>
      </trkpt>
      <trkpt lat="45.73971" lon="7.30994">
        <ele>591</ele>
        <time>2022-07-16T11:39:38.202Z</time>
      </trkpt>
      <trkpt lat="45.73934" lon="7.30935">
        <ele>589</ele>
        <time>2022-07-16T11:39:43.183Z</time>
      </trkpt>
      <trkpt lat="45.73926" lon="7.30913">
        <ele>588</ele>
        <time>2022-07-16T11:39:44.467Z</time>
      </trkpt>
      <trkpt lat="45.73921" lon="7.30893">
        <ele>588</ele>
        <time>2022-07-16T11:39:46.438Z</time>
      </trkpt>
      <trkpt lat="45.73919" lon="7.30866">
        <ele>587</ele>
        <time>2022-07-16T11:39:47.903Z</time>
      </trkpt>
      <trkpt lat="45.73922" lon="7.30756">
        <ele>587</ele>
        <time>2022-07-16T11:39:58.120Z</time>
      </trkpt>
      <trkpt lat="45.73918" lon="7.30675">
        <ele>588</ele>
        <time>2022-07-16T11:40:07.110Z</time>
      </trkpt>
      <trkpt lat="45.739" lon="7.30622">
        <ele>590</ele>
        <time>2022-07-16T11:40:16.590Z</time>
      </trkpt>
      <trkpt lat="45.73881" lon="7.30583">
        <ele>590</ele>
        <time>2022-07-16T11:40:21.004Z</time>
      </trkpt>
      <trkpt lat="45.73812" lon="7.30474">
        <ele>588</ele>
        <time>2022-07-16T11:40:32.061Z</time>
      </trkpt>
      <trkpt lat="45.73771" lon="7.30371">
        <ele>586</ele>
        <time>2022-07-16T11:40:40.502Z</time>
      </trkpt>
      <trkpt lat="45.73699" lon="7.30205">
        <ele>587</ele>
        <time>2022-07-16T11:40:59.949Z</time>
      </trkpt>
      <trkpt lat="45.73697" lon="7.30193">
        <ele>587</ele>
        <time>2022-07-16T11:41:01.094Z</time>
      </trkpt>
      <trkpt lat="45.7368" lon="7.3015">
        <ele>587</ele>
        <time>2022-07-16T11:41:05.681Z</time>
      </trkpt>
      <trkpt lat="45.73687" lon="7.30141">
        <ele>587</ele>
        <time>2022-07-16T11:41:06.931Z</time>
      </trkpt>
      <trkpt lat="45.73683" lon="7.30119">
        <ele>588</ele>
        <time>2022-07-16T11:41:10.965Z</time>
      </trkpt>
      <trkpt lat="45.73676" lon="7.30105">
        <ele>587</ele>
        <time>2022-07-16T11:41:11.873Z</time>
      </trkpt>
      <trkpt lat="45.73669" lon="7.30098">
        <ele>587</ele>
        <time>2022-07-16T11:41:13.008Z</time>
      </trkpt>
      <trkpt lat="45.73662" lon="7.30097">
        <ele>587</ele>
        <time>2022-07-16T11:41:13.943Z</time>
      </trkpt>
      <trkpt lat="45.73649" lon="7.3007">
        <ele>586</ele>
        <time>2022-07-16T11:41:15.860Z</time>
      </trkpt>
      <trkpt lat="45.73644" lon="7.30066">
        <ele>586</ele>
        <time>2022-07-16T11:41:16.622Z</time>
      </trkpt>
      <trkpt lat="45.73638" lon="7.3005">
        <ele>586</ele>
        <time>2022-07-16T11:41:18.308Z</time>
      </trkpt>
      <trkpt lat="45.73627" lon="7.30004">
        <ele>586</ele>
        <time>2022-07-16T11:41:22.821Z</time>
      </trkpt>
      <trkpt lat="45.73555" lon="7.29536">
        <ele>589</ele>
        <time>2022-07-16T11:42:11.285Z</time>
      </trkpt>
      <trkpt lat="45.73544" lon="7.29495">
        <ele>590</ele>
        <time>2022-07-16T11:42:17.100Z</time>
      </trkpt>
      <trkpt lat="45.73528" lon="7.29457">
        <ele>592</ele>
        <time>2022-07-16T11:42:25.062Z</time>
      </trkpt>
      <trkpt lat="45.73464" lon="7.29355">
        <ele>592</ele>
        <time>2022-07-16T11:42:37.793Z</time>
      </trkpt>
      <trkpt lat="45.73332" lon="7.29168">
        <ele>592</ele>
        <time>2022-07-16T11:43:02.481Z</time>
      </trkpt>
      <trkpt lat="45.73174" lon="7.29027">
        <ele>594</ele>
        <time>2022-07-16T11:43:29.938Z</time>
      </trkpt>
      <trkpt lat="45.73044" lon="7.28907">
        <ele>593</ele>
        <time>2022-07-16T11:43:48.650Z</time>
      </trkpt>
      <trkpt lat="45.73026" lon="7.28893">
        <ele>592</ele>
        <time>2022-07-16T11:43:50.288Z</time>
      </trkpt>
      <trkpt lat="45.73006" lon="7.28871">
        <ele>592</ele>
        <time>2022-07-16T11:43:53.641Z</time>
      </trkpt>
      <trkpt lat="45.72999" lon="7.2886">
        <ele>592</ele>
        <time>2022-07-16T11:43:55.023Z</time>
      </trkpt>
      <trkpt lat="45.72984" lon="7.28825">
        <ele>591</ele>
        <time>2022-07-16T11:43:57.634Z</time>
      </trkpt>
      <trkpt lat="45.7297" lon="7.28765">
        <ele>590</ele>
        <time>2022-07-16T11:44:02.217Z</time>
      </trkpt>
      <trkpt lat="45.7297" lon="7.28695">
        <ele>589</ele>
        <time>2022-07-16T11:44:07.416Z</time>
      </trkpt>
      <trkpt lat="45.72979" lon="7.28515">
        <ele>589</ele>
        <time>2022-07-16T11:44:24.168Z</time>
      </trkpt>
      <trkpt lat="45.72964" lon="7.28415">
        <ele>589</ele>
        <time>2022-07-16T11:44:33.663Z</time>
      </trkpt>
      <trkpt lat="45.72945" lon="7.28349">
        <ele>589</ele>
        <time>2022-07-16T11:44:40.291Z</time>
      </trkpt>
      <trkpt lat="45.72927" lon="7.28304">
        <ele>588</ele>
        <time>2022-07-16T11:44:43.846Z</time>
      </trkpt>
      <trkpt lat="45.72851" lon="7.28175">
        <ele>587</ele>
        <time>2022-07-16T11:44:58.421Z</time>
      </trkpt>
      <trkpt lat="45.72629" lon="7.27818">
        <ele>596</ele>
        <time>2022-07-16T11:45:57.365Z</time>
      </trkpt>
      <trkpt lat="45.72466" lon="7.27548">
        <ele>599</ele>
        <time>2022-07-16T11:46:34.611Z</time>
      </trkpt>
      <trkpt lat="45.72446" lon="7.27508">
        <ele>600</ele>
        <time>2022-07-16T11:46:40.840Z</time>
      </trkpt>
      <trkpt lat="45.72434" lon="7.2748">
        <ele>600</ele>
        <time>2022-07-16T11:46:43.890Z</time>
      </trkpt>
      <trkpt lat="45.72422" lon="7.27441">
        <ele>601</ele>
        <time>2022-07-16T11:46:49.607Z</time>
      </trkpt>
      <trkpt lat="45.72415" lon="7.27401">
        <ele>602</ele>
        <time>2022-07-16T11:46:55.222Z</time>
      </trkpt>
      <trkpt lat="45.72401" lon="7.2721">
        <ele>602</ele>
        <time>2022-07-16T11:47:13.052Z</time>
      </trkpt>
      <trkpt lat="45.7239" lon="7.27129">
        <ele>600</ele>
        <time>2022-07-16T11:47:18.308Z</time>
      </trkpt>
      <trkpt lat="45.72377" lon="7.27085">
        <ele>598</ele>
        <time>2022-07-16T11:47:20.738Z</time>
      </trkpt>
      <trkpt lat="45.7236" lon="7.27039">
        <ele>598</ele>
        <time>2022-07-16T11:47:25.570Z</time>
      </trkpt>
      <trkpt lat="45.72336" lon="7.26994">
        <ele>598</ele>
        <time>2022-07-16T11:47:30.827Z</time>
      </trkpt>
      <trkpt lat="45.722" lon="7.26789">
        <ele>600</ele>
        <time>2022-07-16T11:47:59.768Z</time>
      </trkpt>
      <trkpt lat="45.72192" lon="7.26774">
        <ele>600</ele>
        <time>2022-07-16T11:48:01.521Z</time>
      </trkpt>
      <trkpt lat="45.72171" lon="7.26727">
        <ele>600</ele>
        <time>2022-07-16T11:48:06.702Z</time>
      </trkpt>
      <trkpt lat="45.72129" lon="7.26596">
        <ele>602</ele>
        <time>2022-07-16T11:48:23.064Z</time>
      </trkpt>
      <trkpt lat="45.72109" lon="7.26558">
        <ele>602</ele>
        <time>2022-07-16T11:48:27.482Z</time>
      </trkpt>
      <trkpt lat="45.72012" lon="7.26441">
        <ele>602</ele>
        <time>2022-07-16T11:48:44.346Z</time>
      </trkpt>
      <trkpt lat="45.71845" lon="7.26251">
        <ele>604</ele>
        <time>2022-07-16T11:49:15.374Z</time>
      </trkpt>
      <trkpt lat="45.71752" lon="7.26141">
        <ele>611</ele>
        <time>2022-07-16T11:49:44.980Z</time>
      </trkpt>
      <trkpt lat="45.71435" lon="7.25737">
        <ele>612</ele>
        <time>2022-07-16T11:50:42.656Z</time>
      </trkpt>
      <trkpt lat="45.7143" lon="7.25722">
        <ele>613</ele>
        <time>2022-07-16T11:50:46.192Z</time>
      </trkpt>
      <trkpt lat="45.71318" lon="7.2558">
        <ele>618</ele>
        <time>2022-07-16T11:51:14.863Z</time>
      </trkpt>
      <trkpt lat="45.71244" lon="7.25494">
        <ele>621</ele>
        <time>2022-07-16T11:51:32.672Z</time>
      </trkpt>
      <trkpt lat="45.71231" lon="7.25486">
        <ele>619</ele>
        <time>2022-07-16T11:51:33.740Z</time>
      </trkpt>
      <trkpt lat="45.71217" lon="7.25466">
        <ele>618</ele>
        <time>2022-07-16T11:51:35.297Z</time>
      </trkpt>
      <trkpt lat="45.71202" lon="7.25438">
        <ele>618</ele>
        <time>2022-07-16T11:51:38.574Z</time>
      </trkpt>
      <trkpt lat="45.71192" lon="7.25399">
        <ele>617</ele>
        <time>2022-07-16T11:51:41.228Z</time>
      </trkpt>
      <trkpt lat="45.71187" lon="7.25364">
        <ele>616</ele>
        <time>2022-07-16T11:51:43.388Z</time>
      </trkpt>
      <trkpt lat="45.71188" lon="7.25324">
        <ele>616</ele>
        <time>2022-07-16T11:51:47.104Z</time>
      </trkpt>
      <trkpt lat="45.71194" lon="7.25266">
        <ele>618</ele>
        <time>2022-07-16T11:51:56.553Z</time>
      </trkpt>
      <trkpt lat="45.71199" lon="7.2524">
        <ele>620</ele>
        <time>2022-07-16T11:52:03.485Z</time>
      </trkpt>
      <trkpt lat="45.71214" lon="7.25196">
        <ele>624</ele>
        <time>2022-07-16T11:52:17.656Z</time>
      </trkpt>
      <trkpt lat="45.71262" lon="7.25093">
        <ele>631</ele>
        <time>2022-07-16T11:52:42.878Z</time>
      </trkpt>
      <trkpt lat="45.71271" lon="7.25051">
        <ele>633</ele>
        <time>2022-07-16T11:52:50.800Z</time>
      </trkpt>
      <trkpt lat="45.71274" lon="7.24991">
        <ele>635</ele>
        <time>2022-07-16T11:53:00.417Z</time>
      </trkpt>
      <trkpt lat="45.71252" lon="7.24766">
        <ele>638</ele>
        <time>2022-07-16T11:53:25.934Z</time>
      </trkpt>
      <trkpt lat="45.71207" lon="7.24564">
        <ele>655</ele>
        <time>2022-07-16T11:54:25.780Z</time>
      </trkpt>
      <trkpt lat="45.71192" lon="7.24456">
        <ele>672</ele>
        <time>2022-07-16T11:55:05.221Z</time>
      </trkpt>
      <trkpt lat="45.71182" lon="7.24413">
        <ele>677</ele>
        <time>2022-07-16T11:55:21.454Z</time>
      </trkpt>
      <trkpt lat="45.71169" lon="7.24375">
        <ele>678</ele>
        <time>2022-07-16T11:55:27.149Z</time>
      </trkpt>
      <trkpt lat="45.7115" lon="7.24335">
        <ele>676</ele>
        <time>2022-07-16T11:55:29.625Z</time>
      </trkpt>
      <trkpt lat="45.71135" lon="7.24314">
        <ele>673</ele>
        <time>2022-07-16T11:55:31.208Z</time>
      </trkpt>
      <trkpt lat="45.71051" lon="7.24233">
        <ele>657</ele>
        <time>2022-07-16T11:55:38.851Z</time>
      </trkpt>
      <trkpt lat="45.71021" lon="7.24215">
        <ele>653</ele>
        <time>2022-07-16T11:55:41.306Z</time>
      </trkpt>
      <trkpt lat="45.70982" lon="7.24213">
        <ele>650</ele>
        <time>2022-07-16T11:55:44.252Z</time>
      </trkpt>
      <trkpt lat="45.70932" lon="7.24217">
        <ele>652</ele>
        <time>2022-07-16T11:55:54.753Z</time>
      </trkpt>
      <trkpt lat="45.70914" lon="7.24216">
        <ele>654</ele>
        <time>2022-07-16T11:56:01.733Z</time>
      </trkpt>
      <trkpt lat="45.70898" lon="7.24212">
        <ele>654</ele>
        <time>2022-07-16T11:56:03.893Z</time>
      </trkpt>
      <trkpt lat="45.70877" lon="7.24202">
        <ele>656</ele>
        <time>2022-07-16T11:56:10.890Z</time>
      </trkpt>
      <trkpt lat="45.70859" lon="7.2419">
        <ele>657</ele>
        <time>2022-07-16T11:56:15.518Z</time>
      </trkpt>
      <trkpt lat="45.70837" lon="7.24165">
        <ele>659</ele>
        <time>2022-07-16T11:56:23.103Z</time>
      </trkpt>
      <trkpt lat="45.70815" lon="7.2413">
        <ele>656</ele>
        <time>2022-07-16T11:56:25.585Z</time>
      </trkpt>
      <trkpt lat="45.70803" lon="7.24096">
        <ele>656</ele>
        <time>2022-07-16T11:56:29.123Z</time>
      </trkpt>
      <trkpt lat="45.70795" lon="7.24045">
        <ele>657</ele>
        <time>2022-07-16T11:56:35.603Z</time>
      </trkpt>
      <trkpt lat="45.70796" lon="7.23971">
        <ele>661</ele>
        <time>2022-07-16T11:56:50.250Z</time>
      </trkpt>
      <trkpt lat="45.70802" lon="7.23839">
        <ele>665</ele>
        <time>2022-07-16T11:57:10.610Z</time>
      </trkpt>
      <trkpt lat="45.70809" lon="7.23749">
        <ele>669</ele>
        <time>2022-07-16T11:57:26.714Z</time>
      </trkpt>
      <trkpt lat="45.70816" lon="7.2371">
        <ele>669</ele>
        <time>2022-07-16T11:57:30.453Z</time>
      </trkpt>
      <trkpt lat="45.7084" lon="7.23642">
        <ele>669</ele>
        <time>2022-07-16T11:57:37.529Z</time>
      </trkpt>
      <trkpt lat="45.70901" lon="7.23501">
        <ele>668</ele>
        <time>2022-07-16T11:57:51.826Z</time>
      </trkpt>
      <trkpt lat="45.70997" lon="7.23255">
        <ele>674</ele>
        <time>2022-07-16T11:58:28.137Z</time>
      </trkpt>
      <trkpt lat="45.71009" lon="7.23191">
        <ele>676</ele>
        <time>2022-07-16T11:58:38.324Z</time>
      </trkpt>
      <trkpt lat="45.71013" lon="7.23136">
        <ele>678</ele>
        <time>2022-07-16T11:58:47.410Z</time>
      </trkpt>
      <trkpt lat="45.7101" lon="7.23102">
        <ele>679</ele>
        <time>2022-07-16T11:58:52.566Z</time>
      </trkpt>
      <trkpt lat="45.7097" lon="7.2284">
        <ele>682</ele>
        <time>2022-07-16T11:59:21.754Z</time>
      </trkpt>
      <trkpt lat="45.70963" lon="7.22779">
        <ele>685</ele>
        <time>2022-07-16T11:59:33.262Z</time>
      </trkpt>
      <trkpt lat="45.70937" lon="7.22705">
        <ele>682</ele>
        <time>2022-07-16T11:59:37.767Z</time>
      </trkpt>
      <trkpt lat="45.70917" lon="7.22666">
        <ele>677</ele>
        <time>2022-07-16T11:59:40.317Z</time>
      </trkpt>
      <trkpt lat="45.70894" lon="7.22633">
        <ele>678</ele>
        <time>2022-07-16T11:59:46.342Z</time>
      </trkpt>
      <trkpt lat="45.7082" lon="7.22561">
        <ele>678</ele>
        <time>2022-07-16T11:59:58.239Z</time>
      </trkpt>
      <trkpt lat="45.70701" lon="7.22456">
        <ele>679</ele>
        <time>2022-07-16T12:00:18.131Z</time>
      </trkpt>
      <trkpt lat="45.70647" lon="7.22404">
        <ele>676</ele>
        <time>2022-07-16T12:00:23.462Z</time>
      </trkpt>
      <trkpt lat="45.70623" lon="7.22363">
        <ele>675</ele>
        <time>2022-07-16T12:00:27.165Z</time>
      </trkpt>
      <trkpt lat="45.70608" lon="7.22321">
        <ele>675</ele>
        <time>2022-07-16T12:00:31.546Z</time>
      </trkpt>
      <trkpt lat="45.70596" lon="7.22264">
        <ele>676</ele>
        <time>2022-07-16T12:00:38.637Z</time>
      </trkpt>
      <trkpt lat="45.70594" lon="7.22242">
        <ele>676</ele>
        <time>2022-07-16T12:00:40.697Z</time>
      </trkpt>
      <trkpt lat="45.70599" lon="7.21895">
        <ele>670</ele>
        <time>2022-07-16T12:01:05.258Z</time>
      </trkpt>
      <trkpt lat="45.70597" lon="7.21628">
        <ele>664</ele>
        <time>2022-07-16T12:01:22.715Z</time>
      </trkpt>
      <trkpt lat="45.70603" lon="7.21558">
        <ele>660</ele>
        <time>2022-07-16T12:01:26.432Z</time>
      </trkpt>
      <trkpt lat="45.70624" lon="7.2145">
        <ele>656</ele>
        <time>2022-07-16T12:01:32.570Z</time>
      </trkpt>
      <trkpt lat="45.70624" lon="7.21417">
        <ele>655</ele>
        <time>2022-07-16T12:01:34.504Z</time>
      </trkpt>
      <trkpt lat="45.70606" lon="7.2128">
        <ele>658</ele>
        <time>2022-07-16T12:01:52.542Z</time>
      </trkpt>
      <trkpt lat="45.70595" lon="7.21244">
        <ele>658</ele>
        <time>2022-07-16T12:01:56.192Z</time>
      </trkpt>
      <trkpt lat="45.70575" lon="7.21202">
        <ele>658</ele>
        <time>2022-07-16T12:02:00.913Z</time>
      </trkpt>
      <trkpt lat="45.70437" lon="7.20991">
        <ele>659</ele>
        <time>2022-07-16T12:02:29.037Z</time>
      </trkpt>
      <trkpt lat="45.70423" lon="7.20953">
        <ele>659</ele>
        <time>2022-07-16T12:02:33.027Z</time>
      </trkpt>
      <trkpt lat="45.70415" lon="7.20915">
        <ele>660</ele>
        <time>2022-07-16T12:02:38.532Z</time>
      </trkpt>
      <trkpt lat="45.70398" lon="7.20653">
        <ele>681</ele>
        <time>2022-07-16T12:03:52.354Z</time>
      </trkpt>
      <trkpt lat="45.70396" lon="7.20577">
        <ele>684</ele>
        <time>2022-07-16T12:04:05.253Z</time>
      </trkpt>
      <trkpt lat="45.70392" lon="7.20553">
        <ele>685</ele>
        <time>2022-07-16T12:04:09.483Z</time>
      </trkpt>
      <trkpt lat="45.70384" lon="7.20526">
        <ele>685</ele>
        <time>2022-07-16T12:04:12.206Z</time>
      </trkpt>
      <trkpt lat="45.7037" lon="7.205">
        <ele>682</ele>
        <time>2022-07-16T12:04:13.937Z</time>
      </trkpt>
      <trkpt lat="45.70306" lon="7.20441">
        <ele>668</ele>
        <time>2022-07-16T12:04:19.682Z</time>
      </trkpt>
      <trkpt lat="45.70287" lon="7.20416">
        <ele>669</ele>
        <time>2022-07-16T12:04:25.002Z</time>
      </trkpt>
      <trkpt lat="45.70275" lon="7.20396">
        <ele>669</ele>
        <time>2022-07-16T12:04:27.451Z</time>
      </trkpt>
      <trkpt lat="45.7026" lon="7.20354">
        <ele>669</ele>
        <time>2022-07-16T12:04:31.832Z</time>
      </trkpt>
      <trkpt lat="45.7001" lon="7.19393">
        <ele>676</ele>
        <time>2022-07-16T12:06:16.444Z</time>
      </trkpt>
      <trkpt lat="45.69972" lon="7.19256">
        <ele>676</ele>
        <time>2022-07-16T12:06:30.135Z</time>
      </trkpt>
      <trkpt lat="45.69964" lon="7.19195">
        <ele>676</ele>
        <time>2022-07-16T12:06:35.900Z</time>
      </trkpt>
      <trkpt lat="45.69965" lon="7.19167">
        <ele>675</ele>
        <time>2022-07-16T12:06:37.435Z</time>
      </trkpt>
      <trkpt lat="45.69968" lon="7.1913">
        <ele>675</ele>
        <time>2022-07-16T12:06:40.895Z</time>
      </trkpt>
      <trkpt lat="45.69989" lon="7.1906">
        <ele>676</ele>
        <time>2022-07-16T12:06:49.443Z</time>
      </trkpt>
      <trkpt lat="45.69999" lon="7.19037">
        <ele>676</ele>
        <time>2022-07-16T12:06:51.959Z</time>
      </trkpt>
      <trkpt lat="45.70185" lon="7.18707">
        <ele>697</ele>
        <time>2022-07-16T12:08:11.759Z</time>
      </trkpt>
      <trkpt lat="45.70244" lon="7.18598">
        <ele>710</ele>
        <time>2022-07-16T12:09:01.162Z</time>
      </trkpt>
      <trkpt lat="45.70288" lon="7.18523">
        <ele>715</ele>
        <time>2022-07-16T12:09:19.905Z</time>
      </trkpt>
      <trkpt lat="45.70298" lon="7.18502">
        <ele>715</ele>
        <time>2022-07-16T12:09:22.265Z</time>
      </trkpt>
      <trkpt lat="45.70309" lon="7.18465">
        <ele>715</ele>
        <time>2022-07-16T12:09:26.000Z</time>
      </trkpt>
      <trkpt lat="45.70316" lon="7.18414">
        <ele>717</ele>
        <time>2022-07-16T12:09:34.732Z</time>
      </trkpt>
      <trkpt lat="45.70309" lon="7.18267">
        <ele>731</ele>
        <time>2022-07-16T12:10:27.515Z</time>
      </trkpt>
      <trkpt lat="45.70312" lon="7.18215">
        <ele>734</ele>
        <time>2022-07-16T12:10:38.265Z</time>
      </trkpt>
      <trkpt lat="45.70317" lon="7.1819">
        <ele>734</ele>
        <time>2022-07-16T12:10:40.681Z</time>
      </trkpt>
      <trkpt lat="45.70329" lon="7.18156">
        <ele>732</ele>
        <time>2022-07-16T12:10:42.689Z</time>
      </trkpt>
      <trkpt lat="45.70355" lon="7.18116">
        <ele>733</ele>
        <time>2022-07-16T12:10:49.367Z</time>
      </trkpt>
      <trkpt lat="45.7039" lon="7.18089">
        <ele>730</ele>
        <time>2022-07-16T12:10:52.367Z</time>
      </trkpt>
      <trkpt lat="45.70442" lon="7.18043">
        <ele>729</ele>
        <time>2022-07-16T12:10:59.198Z</time>
      </trkpt>
      <trkpt lat="45.70484" lon="7.17995">
        <ele>729</ele>
        <time>2022-07-16T12:11:06.344Z</time>
      </trkpt>
      <trkpt lat="45.70567" lon="7.17868">
        <ele>731</ele>
        <time>2022-07-16T12:11:25.367Z</time>
      </trkpt>
      <trkpt lat="45.70579" lon="7.17833">
        <ele>735</ele>
        <time>2022-07-16T12:11:39.334Z</time>
      </trkpt>
      <trkpt lat="45.70587" lon="7.17792">
        <ele>741</ele>
        <time>2022-07-16T12:11:54.583Z</time>
      </trkpt>
      <trkpt lat="45.70588" lon="7.17757">
        <ele>747</ele>
        <time>2022-07-16T12:12:07.131Z</time>
      </trkpt>
      <trkpt lat="45.70585" lon="7.17724">
        <ele>751</ele>
        <time>2022-07-16T12:12:19.052Z</time>
      </trkpt>
      <trkpt lat="45.70571" lon="7.17624">
        <ele>757</ele>
        <time>2022-07-16T12:12:40.405Z</time>
      </trkpt>
      <trkpt lat="45.70557" lon="7.17549">
        <ele>753</ele>
        <time>2022-07-16T12:12:44.497Z</time>
      </trkpt>
      <trkpt lat="45.70536" lon="7.17449">
        <ele>745</ele>
        <time>2022-07-16T12:12:50.001Z</time>
      </trkpt>
      <trkpt lat="45.70469" lon="7.17215">
        <ele>754</ele>
        <time>2022-07-16T12:13:31.330Z</time>
      </trkpt>
      <trkpt lat="45.70449" lon="7.17164">
        <ele>759</ele>
        <time>2022-07-16T12:13:49.402Z</time>
      </trkpt>
      <trkpt lat="45.70438" lon="7.17143">
        <ele>759</ele>
        <time>2022-07-16T12:13:51.840Z</time>
      </trkpt>
      <trkpt lat="45.7042" lon="7.17118">
        <ele>761</ele>
        <time>2022-07-16T12:13:59.083Z</time>
      </trkpt>
      <trkpt lat="45.70391" lon="7.17085">
        <ele>767</ele>
        <time>2022-07-16T12:14:18.084Z</time>
      </trkpt>
      <trkpt lat="45.70357" lon="7.1703">
        <ele>769</ele>
        <time>2022-07-16T12:14:28.695Z</time>
      </trkpt>
      <trkpt lat="45.70345" lon="7.16991">
        <ele>761</ele>
        <time>2022-07-16T12:14:30.942Z</time>
      </trkpt>
      <trkpt lat="45.70334" lon="7.16942">
        <ele>758</ele>
        <time>2022-07-16T12:14:33.655Z</time>
      </trkpt>
      <trkpt lat="45.7033" lon="7.16873">
        <ele>755</ele>
        <time>2022-07-16T12:14:37.119Z</time>
      </trkpt>
      <trkpt lat="45.70332" lon="7.16848">
        <ele>754</ele>
        <time>2022-07-16T12:14:38.431Z</time>
      </trkpt>
      <trkpt lat="45.70387" lon="7.16544">
        <ele>752</ele>
        <time>2022-07-16T12:15:05.327Z</time>
      </trkpt>
      <trkpt lat="45.70389" lon="7.16488">
        <ele>752</ele>
        <time>2022-07-16T12:15:10.535Z</time>
      </trkpt>
      <trkpt lat="45.70386" lon="7.1647">
        <ele>752</ele>
        <time>2022-07-16T12:15:12.253Z</time>
      </trkpt>
      <trkpt lat="45.70375" lon="7.1643">
        <ele>752</ele>
        <time>2022-07-16T12:15:16.246Z</time>
      </trkpt>
      <trkpt lat="45.7036" lon="7.164">
        <ele>750</ele>
        <time>2022-07-16T12:15:18.191Z</time>
      </trkpt>
      <trkpt lat="45.70329" lon="7.16358">
        <ele>747</ele>
        <time>2022-07-16T12:15:21.412Z</time>
      </trkpt>
      <trkpt lat="45.70249" lon="7.16269">
        <ele>747</ele>
        <time>2022-07-16T12:15:34.884Z</time>
      </trkpt>
      <trkpt lat="45.70252" lon="7.16254">
        <ele>745</ele>
        <time>2022-07-16T12:15:35.707Z</time>
      </trkpt>
      <trkpt lat="45.70246" lon="7.16241">
        <ele>744</ele>
        <time>2022-07-16T12:15:36.528Z</time>
      </trkpt>
      <trkpt lat="45.7024" lon="7.16238">
        <ele>744</ele>
        <time>2022-07-16T12:15:37.373Z</time>
      </trkpt>
      <trkpt lat="45.70231" lon="7.16241">
        <ele>746</ele>
        <time>2022-07-16T12:15:42.113Z</time>
      </trkpt>
      <trkpt lat="45.70209" lon="7.16185">
        <ele>742</ele>
        <time>2022-07-16T12:15:45.500Z</time>
      </trkpt>
      <trkpt lat="45.70199" lon="7.16149">
        <ele>740</ele>
        <time>2022-07-16T12:15:47.542Z</time>
      </trkpt>
      <trkpt lat="45.70191" lon="7.16096">
        <ele>737</ele>
        <time>2022-07-16T12:15:50.400Z</time>
      </trkpt>
      <trkpt lat="45.70191" lon="7.16062">
        <ele>732</ele>
        <time>2022-07-16T12:15:52.193Z</time>
      </trkpt>
      <trkpt lat="45.7023" lon="7.15717">
        <ele>736</ele>
        <time>2022-07-16T12:16:30.385Z</time>
      </trkpt>
      <trkpt lat="45.70244" lon="7.15624">
        <ele>740</ele>
        <time>2022-07-16T12:16:46.942Z</time>
      </trkpt>
      <trkpt lat="45.70253" lon="7.15593">
        <ele>741</ele>
        <time>2022-07-16T12:16:52.059Z</time>
      </trkpt>
      <trkpt lat="45.70317" lon="7.15436">
        <ele>742</ele>
        <time>2022-07-16T12:17:10.256Z</time>
      </trkpt>
      <trkpt lat="45.70346" lon="7.15353">
        <ele>755</ele>
        <time>2022-07-16T12:17:43.502Z</time>
      </trkpt>
      <trkpt lat="45.70414" lon="7.14943">
        <ele>782</ele>
        <time>2022-07-16T12:19:17.701Z</time>
      </trkpt>
      <trkpt lat="45.70435" lon="7.14847">
        <ele>772</ele>
        <time>2022-07-16T12:19:23.004Z</time>
      </trkpt>
      <trkpt lat="45.70515" lon="7.14576">
        <ele>762</ele>
        <time>2022-07-16T12:19:39.455Z</time>
      </trkpt>
      <trkpt lat="45.70538" lon="7.14481">
        <ele>765</ele>
        <time>2022-07-16T12:19:54.797Z</time>
      </trkpt>
      <trkpt lat="45.70615" lon="7.14065">
        <ele>768</ele>
        <time>2022-07-16T12:20:38.787Z</time>
      </trkpt>
      <trkpt lat="45.70636" lon="7.1397">
        <ele>771</ele>
        <time>2022-07-16T12:20:54.080Z</time>
      </trkpt>
      <trkpt lat="45.7066" lon="7.13878">
        <ele>775</ele>
        <time>2022-07-16T12:21:10.948Z</time>
      </trkpt>
      <trkpt lat="45.70663" lon="7.13857">
        <ele>778</ele>
        <time>2022-07-16T12:21:18.626Z</time>
      </trkpt>
      <trkpt lat="45.70665" lon="7.138">
        <ele>788</ele>
        <time>2022-07-16T12:21:39.070Z</time>
      </trkpt>
      <trkpt lat="45.70661" lon="7.13702">
        <ele>794</ele>
        <time>2022-07-16T12:22:00.208Z</time>
      </trkpt>
      <trkpt lat="45.70639" lon="7.13595">
        <ele>792</ele>
        <time>2022-07-16T12:22:08.021Z</time>
      </trkpt>
      <trkpt lat="45.70642" lon="7.13595">
        <ele>791</ele>
        <time>2022-07-16T12:22:08.247Z</time>
      </trkpt>
      <trkpt lat="45.70648" lon="7.13589">
        <ele>788</ele>
        <time>2022-07-16T12:22:08.800Z</time>
      </trkpt>
      <trkpt lat="45.70651" lon="7.13581">
        <ele>786</ele>
        <time>2022-07-16T12:22:09.278Z</time>
      </trkpt>
      <trkpt lat="45.70651" lon="7.13572">
        <ele>786</ele>
        <time>2022-07-16T12:22:10.114Z</time>
      </trkpt>
      <trkpt lat="45.70648" lon="7.13564">
        <ele>788</ele>
        <time>2022-07-16T12:22:13.367Z</time>
      </trkpt>
      <trkpt lat="45.70642" lon="7.13558">
        <ele>790</ele>
        <time>2022-07-16T12:22:17.121Z</time>
      </trkpt>
      <trkpt lat="45.70633" lon="7.13558">
        <ele>793</ele>
        <time>2022-07-16T12:22:21.737Z</time>
      </trkpt>
      <trkpt lat="45.70626" lon="7.13567">
        <ele>796</ele>
        <time>2022-07-16T12:22:26.563Z</time>
      </trkpt>
      <trkpt lat="45.70609" lon="7.13552">
        <ele>801</ele>
        <time>2022-07-16T12:22:36.806Z</time>
      </trkpt>
      <trkpt lat="45.70596" lon="7.13531">
        <ele>801</ele>
        <time>2022-07-16T12:22:39.412Z</time>
      </trkpt>
      <trkpt lat="45.70571" lon="7.13444">
        <ele>800</ele>
        <time>2022-07-16T12:22:46.858Z</time>
      </trkpt>
      <trkpt lat="45.70549" lon="7.13163">
        <ele>814</ele>
        <time>2022-07-16T12:23:40.060Z</time>
      </trkpt>
      <trkpt lat="45.70547" lon="7.13088">
        <ele>809</ele>
        <time>2022-07-16T12:23:44.016Z</time>
      </trkpt>
      <trkpt lat="45.7055" lon="7.13041">
        <ele>808</ele>
        <time>2022-07-16T12:23:47.161Z</time>
      </trkpt>
      <trkpt lat="45.70564" lon="7.12971">
        <ele>804</ele>
        <time>2022-07-16T12:23:50.999Z</time>
      </trkpt>
      <trkpt lat="45.70678" lon="7.12561">
        <ele>798</ele>
        <time>2022-07-16T12:24:24.176Z</time>
      </trkpt>
      <trkpt lat="45.70726" lon="7.12444">
        <ele>799</ele>
        <time>2022-07-16T12:24:38.127Z</time>
      </trkpt>
      <trkpt lat="45.70748" lon="7.12408">
        <ele>802</ele>
        <time>2022-07-16T12:24:48.635Z</time>
      </trkpt>
      <trkpt lat="45.70781" lon="7.12361">
        <ele>813</ele>
        <time>2022-07-16T12:25:12.509Z</time>
      </trkpt>
      <trkpt lat="45.70887" lon="7.12244">
        <ele>852</ele>
        <time>2022-07-16T12:26:21.159Z</time>
      </trkpt>
      <trkpt lat="45.71049" lon="7.11995">
        <ele>818</ele>
        <time>2022-07-16T12:26:39.096Z</time>
      </trkpt>
      <trkpt lat="45.71066" lon="7.11956">
        <ele>813</ele>
        <time>2022-07-16T12:26:41.519Z</time>
      </trkpt>
      <trkpt lat="45.7114" lon="7.11747">
        <ele>812</ele>
        <time>2022-07-16T12:27:01.416Z</time>
      </trkpt>
      <trkpt lat="45.71172" lon="7.1168">
        <ele>805</ele>
        <time>2022-07-16T12:27:05.694Z</time>
      </trkpt>
      <trkpt lat="45.71207" lon="7.11624">
        <ele>804</ele>
        <time>2022-07-16T12:27:11.371Z</time>
      </trkpt>
      <trkpt lat="45.71233" lon="7.11577">
        <ele>801</ele>
        <time>2022-07-16T12:27:14.532Z</time>
      </trkpt>
      <trkpt lat="45.71259" lon="7.1152">
        <ele>798</ele>
        <time>2022-07-16T12:27:17.910Z</time>
      </trkpt>
      <trkpt lat="45.71301" lon="7.11416">
        <ele>801</ele>
        <time>2022-07-16T12:27:34.501Z</time>
      </trkpt>
      <trkpt lat="45.71315" lon="7.11388">
        <ele>802</ele>
        <time>2022-07-16T12:27:39.666Z</time>
      </trkpt>
      <trkpt lat="45.71357" lon="7.11324">
        <ele>802</ele>
        <time>2022-07-16T12:27:47.822Z</time>
      </trkpt>
      <trkpt lat="45.71494" lon="7.1114">
        <ele>802</ele>
        <time>2022-07-16T12:28:12.799Z</time>
      </trkpt>
      <trkpt lat="45.71509" lon="7.11124">
        <ele>801</ele>
        <time>2022-07-16T12:28:14.236Z</time>
      </trkpt>
      <trkpt lat="45.71547" lon="7.11106">
        <ele>796</ele>
        <time>2022-07-16T12:28:17.257Z</time>
      </trkpt>
      <trkpt lat="45.71567" lon="7.11105">
        <ele>791</ele>
        <time>2022-07-16T12:28:18.767Z</time>
      </trkpt>
      <trkpt lat="45.71589" lon="7.11108">
        <ele>787</ele>
        <time>2022-07-16T12:28:20.435Z</time>
      </trkpt>
      <trkpt lat="45.71611" lon="7.11105">
        <ele>789</ele>
        <time>2022-07-16T12:28:27.430Z</time>
      </trkpt>
      <trkpt lat="45.71618" lon="7.11102">
        <ele>790</ele>
        <time>2022-07-16T12:28:31.178Z</time>
      </trkpt>
      <trkpt lat="45.71651" lon="7.11076">
        <ele>790</ele>
        <time>2022-07-16T12:28:36.187Z</time>
      </trkpt>
      <trkpt lat="45.71699" lon="7.11013">
        <ele>793</ele>
        <time>2022-07-16T12:28:50.947Z</time>
      </trkpt>
      <trkpt lat="45.71721" lon="7.10977">
        <ele>793</ele>
        <time>2022-07-16T12:28:55.389Z</time>
      </trkpt>
      <trkpt lat="45.71741" lon="7.10935">
        <ele>791</ele>
        <time>2022-07-16T12:28:58.052Z</time>
      </trkpt>
      <trkpt lat="45.71748" lon="7.10915">
        <ele>788</ele>
        <time>2022-07-16T12:28:59.231Z</time>
      </trkpt>
      <trkpt lat="45.71777" lon="7.10801">
        <ele>800</ele>
        <time>2022-07-16T12:29:42.684Z</time>
      </trkpt>
      <trkpt lat="45.71786" lon="7.10774">
        <ele>798</ele>
        <time>2022-07-16T12:29:44.261Z</time>
      </trkpt>
      <trkpt lat="45.71808" lon="7.10723">
        <ele>796</ele>
        <time>2022-07-16T12:29:47.638Z</time>
      </trkpt>
      <trkpt lat="45.72015" lon="7.10341">
        <ele>796</ele>
        <time>2022-07-16T12:30:32.536Z</time>
      </trkpt>
      <trkpt lat="45.72047" lon="7.10287">
        <ele>799</ele>
        <time>2022-07-16T12:30:44.899Z</time>
      </trkpt>
      <trkpt lat="45.72122" lon="7.1019">
        <ele>801</ele>
        <time>2022-07-16T12:31:01.313Z</time>
      </trkpt>
      <trkpt lat="45.72173" lon="7.10107">
        <ele>800</ele>
        <time>2022-07-16T12:31:10.315Z</time>
      </trkpt>
      <trkpt lat="45.72388" lon="7.09742">
        <ele>799</ele>
        <time>2022-07-16T12:31:52.705Z</time>
      </trkpt>
      <trkpt lat="45.72612" lon="7.09368">
        <ele>819</ele>
        <time>2022-07-16T12:33:17.206Z</time>
      </trkpt>
      <trkpt lat="45.72687" lon="7.09225">
        <ele>818</ele>
        <time>2022-07-16T12:33:32.750Z</time>
      </trkpt>
      <trkpt lat="45.72789" lon="7.0904">
        <ele>823</ele>
        <time>2022-07-16T12:34:03.074Z</time>
      </trkpt>
      <trkpt lat="45.728" lon="7.09023">
        <ele>823</ele>
        <time>2022-07-16T12:34:05.226Z</time>
      </trkpt>
      <trkpt lat="45.72812" lon="7.0901">
        <ele>823</ele>
        <time>2022-07-16T12:34:07.227Z</time>
      </trkpt>
      <trkpt lat="45.72853" lon="7.08972">
        <ele>825</ele>
        <time>2022-07-16T12:34:17.620Z</time>
      </trkpt>
      <trkpt lat="45.72882" lon="7.08928">
        <ele>822</ele>
        <time>2022-07-16T12:34:20.808Z</time>
      </trkpt>
      <trkpt lat="45.72892" lon="7.08903">
        <ele>821</ele>
        <time>2022-07-16T12:34:22.404Z</time>
      </trkpt>
      <trkpt lat="45.72899" lon="7.08877">
        <ele>821</ele>
        <time>2022-07-16T12:34:24.991Z</time>
      </trkpt>
      <trkpt lat="45.72923" lon="7.08749">
        <ele>819</ele>
        <time>2022-07-16T12:34:34.705Z</time>
      </trkpt>
      <trkpt lat="45.72935" lon="7.08706">
        <ele>820</ele>
        <time>2022-07-16T12:34:40.703Z</time>
      </trkpt>
      <trkpt lat="45.72942" lon="7.08688">
        <ele>821</ele>
        <time>2022-07-16T12:34:44.539Z</time>
      </trkpt>
      <trkpt lat="45.72984" lon="7.08606">
        <ele>824</ele>
        <time>2022-07-16T12:34:59.942Z</time>
      </trkpt>
      <trkpt lat="45.72988" lon="7.08604">
        <ele>825</ele>
        <time>2022-07-16T12:35:02.115Z</time>
      </trkpt>
      <trkpt lat="45.73004" lon="7.08573">
        <ele>825</ele>
        <time>2022-07-16T12:35:05.694Z</time>
      </trkpt>
      <trkpt lat="45.73036" lon="7.08504">
        <ele>827</ele>
        <time>2022-07-16T12:35:16.950Z</time>
      </trkpt>
      <trkpt lat="45.73059" lon="7.08436">
        <ele>831</ele>
        <time>2022-07-16T12:35:31.715Z</time>
      </trkpt>
      <trkpt lat="45.73087" lon="7.08203">
        <ele>837</ele>
        <time>2022-07-16T12:36:04.620Z</time>
      </trkpt>
      <trkpt lat="45.73091" lon="7.08143">
        <ele>836</ele>
        <time>2022-07-16T12:36:08.931Z</time>
      </trkpt>
      <trkpt lat="45.73101" lon="7.08094">
        <ele>838</ele>
        <time>2022-07-16T12:36:17.563Z</time>
      </trkpt>
      <trkpt lat="45.73123" lon="7.08009">
        <ele>845</ele>
        <time>2022-07-16T12:36:41.974Z</time>
      </trkpt>
      <trkpt lat="45.73137" lon="7.07926">
        <ele>848</ele>
        <time>2022-07-16T12:36:55.864Z</time>
      </trkpt>
      <trkpt lat="45.7314" lon="7.07868">
        <ele>847</ele>
        <time>2022-07-16T12:36:59.983Z</time>
      </trkpt>
      <trkpt lat="45.7314" lon="7.07758">
        <ele>847</ele>
        <time>2022-07-16T12:37:10.194Z</time>
      </trkpt>
      <trkpt lat="45.73143" lon="7.07728">
        <ele>847</ele>
        <time>2022-07-16T12:37:13.008Z</time>
      </trkpt>
      <trkpt lat="45.73151" lon="7.07695">
        <ele>846</ele>
        <time>2022-07-16T12:37:15.101Z</time>
      </trkpt>
      <trkpt lat="45.7316" lon="7.07672">
        <ele>844</ele>
        <time>2022-07-16T12:37:16.490Z</time>
      </trkpt>
      <trkpt lat="45.73172" lon="7.0765">
        <ele>845</ele>
        <time>2022-07-16T12:37:21.061Z</time>
      </trkpt>
      <trkpt lat="45.73304" lon="7.07483">
        <ele>854</ele>
        <time>2022-07-16T12:38:02.310Z</time>
      </trkpt>
      <trkpt lat="45.73333" lon="7.0745">
        <ele>849</ele>
        <time>2022-07-16T12:38:05.105Z</time>
      </trkpt>
      <trkpt lat="45.73449" lon="7.07288">
        <ele>855</ele>
        <time>2022-07-16T12:38:37.710Z</time>
      </trkpt>
      <trkpt lat="45.73481" lon="7.07253">
        <ele>856</ele>
        <time>2022-07-16T12:38:44.641Z</time>
      </trkpt>
      <trkpt lat="45.73661" lon="7.07102">
        <ele>860</ele>
        <time>2022-07-16T12:39:18.290Z</time>
      </trkpt>
      <trkpt lat="45.73745" lon="7.07017">
        <ele>864</ele>
        <time>2022-07-16T12:39:39.536Z</time>
      </trkpt>
      <trkpt lat="45.73805" lon="7.06952">
        <ele>873</ele>
        <time>2022-07-16T12:40:11.709Z</time>
      </trkpt>
      <trkpt lat="45.7386" lon="7.06899">
        <ele>872</ele>
        <time>2022-07-16T12:40:19.234Z</time>
      </trkpt>
      <trkpt lat="45.73895" lon="7.06879">
        <ele>874</ele>
        <time>2022-07-16T12:40:28.177Z</time>
      </trkpt>
      <trkpt lat="45.73999" lon="7.06848">
        <ele>875</ele>
        <time>2022-07-16T12:40:43.636Z</time>
      </trkpt>
      <trkpt lat="45.74016" lon="7.06841">
        <ele>876</ele>
        <time>2022-07-16T12:40:47.934Z</time>
      </trkpt>
      <trkpt lat="45.74033" lon="7.0683">
        <ele>877</ele>
        <time>2022-07-16T12:40:52.376Z</time>
      </trkpt>
      <trkpt lat="45.74051" lon="7.06812">
        <ele>880</ele>
        <time>2022-07-16T12:41:03.635Z</time>
      </trkpt>
      <trkpt lat="45.74076" lon="7.06774">
        <ele>880</ele>
        <time>2022-07-16T12:41:08.482Z</time>
      </trkpt>
      <trkpt lat="45.74088" lon="7.06744">
        <ele>879</ele>
        <time>2022-07-16T12:41:10.545Z</time>
      </trkpt>
      <trkpt lat="45.74094" lon="7.06722">
        <ele>881</ele>
        <time>2022-07-16T12:41:17.742Z</time>
      </trkpt>
      <trkpt lat="45.74107" lon="7.06633">
        <ele>883</ele>
        <time>2022-07-16T12:41:29.606Z</time>
      </trkpt>
      <trkpt lat="45.74124" lon="7.06572">
        <ele>885</ele>
        <time>2022-07-16T12:41:39.760Z</time>
      </trkpt>
      <trkpt lat="45.7419" lon="7.06449">
        <ele>887</ele>
        <time>2022-07-16T12:41:57.092Z</time>
      </trkpt>
      <trkpt lat="45.74204" lon="7.06404">
        <ele>886</ele>
        <time>2022-07-16T12:42:00.417Z</time>
      </trkpt>
      <trkpt lat="45.7422" lon="7.06319">
        <ele>890</ele>
        <time>2022-07-16T12:42:16.273Z</time>
      </trkpt>
      <trkpt lat="45.74227" lon="7.06299">
        <ele>890</ele>
        <time>2022-07-16T12:42:18.350Z</time>
      </trkpt>
      <trkpt lat="45.74243" lon="7.0626">
        <ele>891</ele>
        <time>2022-07-16T12:42:24.264Z</time>
      </trkpt>
      <trkpt lat="45.74259" lon="7.06234">
        <ele>891</ele>
        <time>2022-07-16T12:42:27.481Z</time>
      </trkpt>
      <trkpt lat="45.74272" lon="7.06219">
        <ele>892</ele>
        <time>2022-07-16T12:42:31.632Z</time>
      </trkpt>
      <trkpt lat="45.74302" lon="7.06195">
        <ele>892</ele>
        <time>2022-07-16T12:42:36.202Z</time>
      </trkpt>
      <trkpt lat="45.74322" lon="7.06186">
        <ele>892</ele>
        <time>2022-07-16T12:42:38.989Z</time>
      </trkpt>
      <trkpt lat="45.7438" lon="7.06168">
        <ele>893</ele>
        <time>2022-07-16T12:42:48.322Z</time>
      </trkpt>
      <trkpt lat="45.74384" lon="7.06171">
        <ele>893</ele>
        <time>2022-07-16T12:42:48.922Z</time>
      </trkpt>
      <trkpt lat="45.74449" lon="7.0615">
        <ele>893</ele>
        <time>2022-07-16T12:42:57.783Z</time>
      </trkpt>
      <trkpt lat="45.74452" lon="7.06156">
        <ele>893</ele>
        <time>2022-07-16T12:42:58.468Z</time>
      </trkpt>
      <trkpt lat="45.74459" lon="7.06157">
        <ele>893</ele>
        <time>2022-07-16T12:42:59.404Z</time>
      </trkpt>
      <trkpt lat="45.74465" lon="7.06148">
        <ele>893</ele>
        <time>2022-07-16T12:43:00.559Z</time>
      </trkpt>
      <trkpt lat="45.74482" lon="7.06145">
        <ele>893</ele>
        <time>2022-07-16T12:43:02.837Z</time>
      </trkpt>
      <trkpt lat="45.74525" lon="7.06127">
        <ele>894</ele>
        <time>2022-07-16T12:43:10.326Z</time>
      </trkpt>
      <trkpt lat="45.74559" lon="7.06102">
        <ele>895</ele>
        <time>2022-07-16T12:43:17.010Z</time>
      </trkpt>
      <trkpt lat="45.74578" lon="7.06081">
        <ele>895</ele>
        <time>2022-07-16T12:43:20.201Z</time>
      </trkpt>
      <trkpt lat="45.74606" lon="7.06039">
        <ele>896</ele>
        <time>2022-07-16T12:43:27.165Z</time>
      </trkpt>
      <trkpt lat="45.74619" lon="7.06017">
        <ele>896</ele>
        <time>2022-07-16T12:43:29.840Z</time>
      </trkpt>
      <trkpt lat="45.7462" lon="7.06011">
        <ele>896</ele>
        <time>2022-07-16T12:43:30.413Z</time>
      </trkpt>
      <trkpt lat="45.74705" lon="7.05884">
        <ele>895</ele>
        <time>2022-07-16T12:43:45.672Z</time>
      </trkpt>
      <trkpt lat="45.7472" lon="7.05858">
        <ele>895</ele>
        <time>2022-07-16T12:43:48.803Z</time>
      </trkpt>
      <trkpt lat="45.74751" lon="7.05791">
        <ele>894</ele>
        <time>2022-07-16T12:43:54.962Z</time>
      </trkpt>
      <trkpt lat="45.74964" lon="7.05308">
        <ele>898</ele>
        <time>2022-07-16T12:44:53.350Z</time>
      </trkpt>
      <trkpt lat="45.7497" lon="7.05303">
        <ele>898</ele>
        <time>2022-07-16T12:44:54.273Z</time>
      </trkpt>
      <trkpt lat="45.75054" lon="7.0512">
        <ele>902</ele>
        <time>2022-07-16T12:45:21.008Z</time>
      </trkpt>
      <trkpt lat="45.75166" lon="7.04855">
        <ele>909</ele>
        <time>2022-07-16T12:46:01.880Z</time>
      </trkpt>
      <trkpt lat="45.75169" lon="7.04842">
        <ele>909</ele>
        <time>2022-07-16T12:46:03.151Z</time>
      </trkpt>
      <trkpt lat="45.75315" lon="7.04508">
        <ele>915</ele>
        <time>2022-07-16T12:46:48.857Z</time>
      </trkpt>
      <trkpt lat="45.75357" lon="7.04417">
        <ele>916</ele>
        <time>2022-07-16T12:47:00.366Z</time>
      </trkpt>
      <trkpt lat="45.75367" lon="7.04418">
        <ele>917</ele>
        <time>2022-07-16T12:47:03.825Z</time>
      </trkpt>
      <trkpt lat="45.75374" lon="7.04413">
        <ele>917</ele>
        <time>2022-07-16T12:47:04.865Z</time>
      </trkpt>
      <trkpt lat="45.75379" lon="7.04404">
        <ele>917</ele>
        <time>2022-07-16T12:47:05.932Z</time>
      </trkpt>
      <trkpt lat="45.75381" lon="7.04394">
        <ele>917</ele>
        <time>2022-07-16T12:47:06.898Z</time>
      </trkpt>
      <trkpt lat="45.7538" lon="7.04382">
        <ele>917</ele>
        <time>2022-07-16T12:47:08.019Z</time>
      </trkpt>
      <trkpt lat="45.75375" lon="7.04372">
        <ele>916</ele>
        <time>2022-07-16T12:47:08.667Z</time>
      </trkpt>
      <trkpt lat="45.75383" lon="7.04358">
        <ele>917</ele>
        <time>2022-07-16T12:47:12.298Z</time>
      </trkpt>
      <trkpt lat="45.75612" lon="7.03836">
        <ele>923</ele>
        <time>2022-07-16T12:48:17.891Z</time>
      </trkpt>
      <trkpt lat="45.75787" lon="7.03632">
        <ele>925</ele>
        <time>2022-07-16T12:48:50.541Z</time>
      </trkpt>
      <trkpt lat="45.75817" lon="7.03586">
        <ele>924</ele>
        <time>2022-07-16T12:48:55.093Z</time>
      </trkpt>
      <trkpt lat="45.75845" lon="7.03525">
        <ele>926</ele>
        <time>2022-07-16T12:49:05.673Z</time>
      </trkpt>
      <trkpt lat="45.75864" lon="7.03461">
        <ele>928</ele>
        <time>2022-07-16T12:49:16.040Z</time>
      </trkpt>
      <trkpt lat="45.75953" lon="7.03082">
        <ele>930</ele>
        <time>2022-07-16T12:49:55.750Z</time>
      </trkpt>
      <trkpt lat="45.75961" lon="7.03083">
        <ele>931</ele>
        <time>2022-07-16T12:49:59.399Z</time>
      </trkpt>
      <trkpt lat="45.75965" lon="7.03081">
        <ele>931</ele>
        <time>2022-07-16T12:49:59.963Z</time>
      </trkpt>
      <trkpt lat="45.75971" lon="7.03072">
        <ele>931</ele>
        <time>2022-07-16T12:50:01.118Z</time>
      </trkpt>
      <trkpt lat="45.75973" lon="7.03059">
        <ele>931</ele>
        <time>2022-07-16T12:50:02.353Z</time>
      </trkpt>
      <trkpt lat="45.7597" lon="7.03048">
        <ele>931</ele>
        <time>2022-07-16T12:50:03.449Z</time>
      </trkpt>
      <trkpt lat="45.75967" lon="7.03045">
        <ele>931</ele>
        <time>2022-07-16T12:50:03.935Z</time>
      </trkpt>
      <trkpt lat="45.75987" lon="7.03004">
        <ele>932</ele>
        <time>2022-07-16T12:50:10.228Z</time>
      </trkpt>
      <trkpt lat="45.76018" lon="7.02928">
        <ele>933</ele>
        <time>2022-07-16T12:50:19.828Z</time>
      </trkpt>
      <trkpt lat="45.7603" lon="7.02886">
        <ele>935</ele>
        <time>2022-07-16T12:50:27.886Z</time>
      </trkpt>
      <trkpt lat="45.76033" lon="7.02867">
        <ele>936</ele>
        <time>2022-07-16T12:50:31.624Z</time>
      </trkpt>
      <trkpt lat="45.76038" lon="7.02809">
        <ele>937</ele>
        <time>2022-07-16T12:50:38.617Z</time>
      </trkpt>
      <trkpt lat="45.76036" lon="7.02769">
        <ele>938</ele>
        <time>2022-07-16T12:50:44.149Z</time>
      </trkpt>
      <trkpt lat="45.7602" lon="7.02617">
        <ele>939</ele>
        <time>2022-07-16T12:50:59.743Z</time>
      </trkpt>
      <trkpt lat="45.76032" lon="7.02267">
        <ele>947</ele>
        <time>2022-07-16T12:51:46.171Z</time>
      </trkpt>
      <trkpt lat="45.76039" lon="7.02218">
        <ele>948</ele>
        <time>2022-07-16T12:51:52.463Z</time>
      </trkpt>
      <trkpt lat="45.76066" lon="7.02085">
        <ele>951</ele>
        <time>2022-07-16T12:52:10.421Z</time>
      </trkpt>
      <trkpt lat="45.76067" lon="7.02061">
        <ele>952</ele>
        <time>2022-07-16T12:52:14.584Z</time>
      </trkpt>
      <trkpt lat="45.76066" lon="7.01988">
        <ele>956</ele>
        <time>2022-07-16T12:52:29.152Z</time>
      </trkpt>
      <trkpt lat="45.76058" lon="7.0192">
        <ele>960</ele>
        <time>2022-07-16T12:52:43.442Z</time>
      </trkpt>
      <trkpt lat="45.76046" lon="7.01861">
        <ele>960</ele>
        <time>2022-07-16T12:52:49.144Z</time>
      </trkpt>
      <trkpt lat="45.76034" lon="7.0177">
        <ele>961</ele>
        <time>2022-07-16T12:52:59.156Z</time>
      </trkpt>
      <trkpt lat="45.76034" lon="7.01738">
        <ele>962</ele>
        <time>2022-07-16T12:53:04.176Z</time>
      </trkpt>
      <trkpt lat="45.76052" lon="7.01611">
        <ele>965</ele>
        <time>2022-07-16T12:53:21.450Z</time>
      </trkpt>
      <trkpt lat="45.76092" lon="7.01391">
        <ele>973</ele>
        <time>2022-07-16T12:53:58.438Z</time>
      </trkpt>
      <trkpt lat="45.7612" lon="7.01291">
        <ele>976</ele>
        <time>2022-07-16T12:54:14.195Z</time>
      </trkpt>
      <trkpt lat="45.76138" lon="7.01199">
        <ele>976</ele>
        <time>2022-07-16T12:54:23.060Z</time>
      </trkpt>
      <trkpt lat="45.76148" lon="7.01106">
        <ele>976</ele>
        <time>2022-07-16T12:54:31.791Z</time>
      </trkpt>
      <trkpt lat="45.76155" lon="7.00979">
        <ele>969</ele>
        <time>2022-07-16T12:54:38.499Z</time>
      </trkpt>
      <trkpt lat="45.76153" lon="7.00941">
        <ele>966</ele>
        <time>2022-07-16T12:54:40.505Z</time>
      </trkpt>
      <trkpt lat="45.76141" lon="7.00864">
        <ele>966</ele>
        <time>2022-07-16T12:54:47.825Z</time>
      </trkpt>
      <trkpt lat="45.76143" lon="7.00775">
        <ele>973</ele>
        <time>2022-07-16T12:55:12.338Z</time>
      </trkpt>
      <trkpt lat="45.7616" lon="7.00684">
        <ele>974</ele>
        <time>2022-07-16T12:55:22.494Z</time>
      </trkpt>
      <trkpt lat="45.76185" lon="7.00603">
        <ele>976</ele>
        <time>2022-07-16T12:55:34.174Z</time>
      </trkpt>
      <trkpt lat="45.76197" lon="7.00578">
        <ele>977</ele>
        <time>2022-07-16T12:55:39.009Z</time>
      </trkpt>
      <trkpt lat="45.76218" lon="7.00518">
        <ele>979</ele>
        <time>2022-07-16T12:55:49.239Z</time>
      </trkpt>
      <trkpt lat="45.76226" lon="7.00491">
        <ele>980</ele>
        <time>2022-07-16T12:55:53.963Z</time>
      </trkpt>
      <trkpt lat="45.76243" lon="7.0041">
        <ele>983</ele>
        <time>2022-07-16T12:56:07.760Z</time>
      </trkpt>
      <trkpt lat="45.76253" lon="7.0031">
        <ele>989</ele>
        <time>2022-07-16T12:56:29.049Z</time>
      </trkpt>
      <trkpt lat="45.76243" lon="7.00193">
        <ele>999</ele>
        <time>2022-07-16T12:57:05.072Z</time>
      </trkpt>
      <trkpt lat="45.76246" lon="7.00166">
        <ele>999</ele>
        <time>2022-07-16T12:57:07.609Z</time>
      </trkpt>
      <trkpt lat="45.76253" lon="7.00133">
        <ele>1004</ele>
        <time>2022-07-16T12:57:19.952Z</time>
      </trkpt>
      <trkpt lat="45.76319" lon="6.99969">
        <ele>1015</ele>
        <time>2022-07-16T12:57:59.231Z</time>
      </trkpt>
      <trkpt lat="45.76343" lon="6.99901">
        <ele>1018</ele>
        <time>2022-07-16T12:58:12.137Z</time>
      </trkpt>
      <trkpt lat="45.76359" lon="6.99842">
        <ele>1016</ele>
        <time>2022-07-16T12:58:15.781Z</time>
      </trkpt>
      <trkpt lat="45.76362" lon="6.99822">
        <ele>1015</ele>
        <time>2022-07-16T12:58:16.858Z</time>
      </trkpt>
      <trkpt lat="45.7636" lon="6.99762">
        <ele>1015</ele>
        <time>2022-07-16T12:58:22.431Z</time>
      </trkpt>
      <trkpt lat="45.76348" lon="6.99701">
        <ele>1011</ele>
        <time>2022-07-16T12:58:25.768Z</time>
      </trkpt>
      <trkpt lat="45.7634" lon="6.99673">
        <ele>1008</ele>
        <time>2022-07-16T12:58:27.361Z</time>
      </trkpt>
      <trkpt lat="45.7633" lon="6.99642">
        <ele>1005</ele>
        <time>2022-07-16T12:58:29.159Z</time>
      </trkpt>
      <trkpt lat="45.76283" lon="6.99546">
        <ele>1014</ele>
        <time>2022-07-16T12:59:00.510Z</time>
      </trkpt>
      <trkpt lat="45.76269" lon="6.99499">
        <ele>1014</ele>
        <time>2022-07-16T12:59:05.251Z</time>
      </trkpt>
      <trkpt lat="45.76265" lon="6.99438">
        <ele>1018</ele>
        <time>2022-07-16T12:59:19.163Z</time>
      </trkpt>
      <trkpt lat="45.76274" lon="6.99291">
        <ele>1020</ele>
        <time>2022-07-16T12:59:35.817Z</time>
      </trkpt>
      <trkpt lat="45.76272" lon="6.9925">
        <ele>1021</ele>
        <time>2022-07-16T12:59:41.420Z</time>
      </trkpt>
      <trkpt lat="45.76266" lon="6.99213">
        <ele>1020</ele>
        <time>2022-07-16T12:59:43.767Z</time>
      </trkpt>
      <trkpt lat="45.76234" lon="6.99111">
        <ele>1023</ele>
        <time>2022-07-16T12:59:59.784Z</time>
      </trkpt>
      <trkpt lat="45.76231" lon="6.99082">
        <ele>1021</ele>
        <time>2022-07-16T13:00:01.328Z</time>
      </trkpt>
      <trkpt lat="45.76232" lon="6.99054">
        <ele>1019</ele>
        <time>2022-07-16T13:00:02.804Z</time>
      </trkpt>
      <trkpt lat="45.76249" lon="6.99009">
        <ele>1009</ele>
        <time>2022-07-16T13:00:05.499Z</time>
      </trkpt>
      <trkpt lat="45.76261" lon="6.98991">
        <ele>1008</ele>
        <time>2022-07-16T13:00:06.788Z</time>
      </trkpt>
      <trkpt lat="45.76304" lon="6.98943">
        <ele>1007</ele>
        <time>2022-07-16T13:00:12.734Z</time>
      </trkpt>
      <trkpt lat="45.76332" lon="6.98918">
        <ele>1007</ele>
        <time>2022-07-16T13:00:17.121Z</time>
      </trkpt>
      <trkpt lat="45.76346" lon="6.98898">
        <ele>1008</ele>
        <time>2022-07-16T13:00:21.735Z</time>
      </trkpt>
      <trkpt lat="45.76346" lon="6.9886">
        <ele>1010</ele>
        <time>2022-07-16T13:00:29.133Z</time>
      </trkpt>
      <trkpt lat="45.76388" lon="6.98664">
        <ele>1017</ele>
        <time>2022-07-16T13:01:02.165Z</time>
      </trkpt>
      <trkpt lat="45.76397" lon="6.98638">
        <ele>1019</ele>
        <time>2022-07-16T13:01:09.085Z</time>
      </trkpt>
      <trkpt lat="45.76428" lon="6.98587">
        <ele>1020</ele>
        <time>2022-07-16T13:01:16.872Z</time>
      </trkpt>
      <trkpt lat="45.76469" lon="6.98488">
        <ele>1026</ele>
        <time>2022-07-16T13:01:39.155Z</time>
      </trkpt>
      <trkpt lat="45.76487" lon="6.98459">
        <ele>1028</ele>
        <time>2022-07-16T13:01:46.618Z</time>
      </trkpt>
      <trkpt lat="45.76623" lon="6.9832">
        <ele>1039</ele>
        <time>2022-07-16T13:02:29.962Z</time>
      </trkpt>
      <trkpt lat="45.7663" lon="6.98311">
        <ele>1041</ele>
        <time>2022-07-16T13:02:34.785Z</time>
      </trkpt>
      <trkpt lat="45.7663" lon="6.983">
        <ele>1044</ele>
        <time>2022-07-16T13:02:38.721Z</time>
      </trkpt>
      <trkpt lat="45.76623" lon="6.98296">
        <ele>1047</ele>
        <time>2022-07-16T13:02:42.586Z</time>
      </trkpt>
      <trkpt lat="45.76604" lon="6.98305">
        <ele>1047</ele>
        <time>2022-07-16T13:02:45.247Z</time>
      </trkpt>
      <trkpt lat="45.7658" lon="6.98321">
        <ele>1044</ele>
        <time>2022-07-16T13:02:47.245Z</time>
      </trkpt>
      <trkpt lat="45.7656" lon="6.98324">
        <ele>1046</ele>
        <time>2022-07-16T13:02:54.163Z</time>
      </trkpt>
      <trkpt lat="45.76439" lon="6.98331">
        <ele>1054</ele>
        <time>2022-07-16T13:03:25.635Z</time>
      </trkpt>
      <trkpt lat="45.76383" lon="6.98332">
        <ele>1056</ele>
        <time>2022-07-16T13:03:36.703Z</time>
      </trkpt>
      <trkpt lat="45.76355" lon="6.98326">
        <ele>1059</ele>
        <time>2022-07-16T13:03:47.098Z</time>
      </trkpt>
      <trkpt lat="45.76316" lon="6.98312">
        <ele>1066</ele>
        <time>2022-07-16T13:04:07.721Z</time>
      </trkpt>
      <trkpt lat="45.76302" lon="6.9831">
        <ele>1069</ele>
        <time>2022-07-16T13:04:14.938Z</time>
      </trkpt>
      <trkpt lat="45.76282" lon="6.98311">
        <ele>1071</ele>
        <time>2022-07-16T13:04:21.855Z</time>
      </trkpt>
      <trkpt lat="45.76213" lon="6.98338">
        <ele>1078</ele>
        <time>2022-07-16T13:04:46.087Z</time>
      </trkpt>
      <trkpt lat="45.76129" lon="6.98396">
        <ele>1089</ele>
        <time>2022-07-16T13:05:25.180Z</time>
      </trkpt>
      <trkpt lat="45.76112" lon="6.98419">
        <ele>1088</ele>
        <time>2022-07-16T13:05:27.154Z</time>
      </trkpt>
      <trkpt lat="45.7608" lon="6.98446">
        <ele>1088</ele>
        <time>2022-07-16T13:05:32.092Z</time>
      </trkpt>
      <trkpt lat="45.7607" lon="6.98448">
        <ele>1092</ele>
        <time>2022-07-16T13:05:37.271Z</time>
      </trkpt>
      <trkpt lat="45.76065" lon="6.98441">
        <ele>1097</ele>
        <time>2022-07-16T13:05:40.856Z</time>
      </trkpt>
      <trkpt lat="45.76065" lon="6.98433">
        <ele>1099</ele>
        <time>2022-07-16T13:05:43.719Z</time>
      </trkpt>
      <trkpt lat="45.76074" lon="6.98426">
        <ele>1098</ele>
        <time>2022-07-16T13:05:44.492Z</time>
      </trkpt>
      <trkpt lat="45.76092" lon="6.98421">
        <ele>1094</ele>
        <time>2022-07-16T13:05:45.876Z</time>
      </trkpt>
      <trkpt lat="45.76104" lon="6.98411">
        <ele>1093</ele>
        <time>2022-07-16T13:05:46.923Z</time>
      </trkpt>
      <trkpt lat="45.76108" lon="6.98404">
        <ele>1094</ele>
        <time>2022-07-16T13:05:50.161Z</time>
      </trkpt>
      <trkpt lat="45.76119" lon="6.98366">
        <ele>1101</ele>
        <time>2022-07-16T13:06:04.884Z</time>
      </trkpt>
      <trkpt lat="45.7613" lon="6.98345">
        <ele>1103</ele>
        <time>2022-07-16T13:06:11.842Z</time>
      </trkpt>
      <trkpt lat="45.76152" lon="6.98333">
        <ele>1099</ele>
        <time>2022-07-16T13:06:13.618Z</time>
      </trkpt>
      <trkpt lat="45.76186" lon="6.983">
        <ele>1096</ele>
        <time>2022-07-16T13:06:16.717Z</time>
      </trkpt>
      <trkpt lat="45.76196" lon="6.98285">
        <ele>1097</ele>
        <time>2022-07-16T13:06:20.564Z</time>
      </trkpt>
      <trkpt lat="45.76193" lon="6.98277">
        <ele>1100</ele>
        <time>2022-07-16T13:06:23.814Z</time>
      </trkpt>
      <trkpt lat="45.76179" lon="6.98276">
        <ele>1104</ele>
        <time>2022-07-16T13:06:31.005Z</time>
      </trkpt>
      <trkpt lat="45.76156" lon="6.98306">
        <ele>1104</ele>
        <time>2022-07-16T13:06:35.140Z</time>
      </trkpt>
      <trkpt lat="45.76146" lon="6.98315">
        <ele>1105</ele>
        <time>2022-07-16T13:06:38.694Z</time>
      </trkpt>
      <trkpt lat="45.7612" lon="6.98329">
        <ele>1110</ele>
        <time>2022-07-16T13:06:52.940Z</time>
      </trkpt>
      <trkpt lat="45.76109" lon="6.98346">
        <ele>1109</ele>
        <time>2022-07-16T13:06:54.101Z</time>
      </trkpt>
      <trkpt lat="45.76104" lon="6.9836">
        <ele>1107</ele>
        <time>2022-07-16T13:06:54.929Z</time>
      </trkpt>
      <trkpt lat="45.76089" lon="6.98386">
        <ele>1105</ele>
        <time>2022-07-16T13:06:56.706Z</time>
      </trkpt>
      <trkpt lat="45.76073" lon="6.98395">
        <ele>1108</ele>
        <time>2022-07-16T13:07:05.523Z</time>
      </trkpt>
      <trkpt lat="45.7606" lon="6.98397">
        <ele>1112</ele>
        <time>2022-07-16T13:07:12.229Z</time>
      </trkpt>
      <trkpt lat="45.76054" lon="6.98395">
        <ele>1114</ele>
        <time>2022-07-16T13:07:15.389Z</time>
      </trkpt>
      <trkpt lat="45.76052" lon="6.98388">
        <ele>1117</ele>
        <time>2022-07-16T13:07:18.096Z</time>
      </trkpt>
      <trkpt lat="45.76053" lon="6.9838">
        <ele>1118</ele>
        <time>2022-07-16T13:07:21.004Z</time>
      </trkpt>
      <trkpt lat="45.76057" lon="6.98375">
        <ele>1118</ele>
        <time>2022-07-16T13:07:21.710Z</time>
      </trkpt>
      <trkpt lat="45.76081" lon="6.98368">
        <ele>1112</ele>
        <time>2022-07-16T13:07:23.559Z</time>
      </trkpt>
      <trkpt lat="45.76092" lon="6.9836">
        <ele>1111</ele>
        <time>2022-07-16T13:07:24.490Z</time>
      </trkpt>
      <trkpt lat="45.76104" lon="6.98321">
        <ele>1117</ele>
        <time>2022-07-16T13:07:39.743Z</time>
      </trkpt>
      <trkpt lat="45.76112" lon="6.98304">
        <ele>1119</ele>
        <time>2022-07-16T13:07:47.082Z</time>
      </trkpt>
      <trkpt lat="45.76128" lon="6.98287">
        <ele>1117</ele>
        <time>2022-07-16T13:07:48.585Z</time>
      </trkpt>
      <trkpt lat="45.76152" lon="6.98267">
        <ele>1114</ele>
        <time>2022-07-16T13:07:50.680Z</time>
      </trkpt>
      <trkpt lat="45.76175" lon="6.98236">
        <ele>1117</ele>
        <time>2022-07-16T13:08:01.094Z</time>
      </trkpt>
      <trkpt lat="45.76178" lon="6.98227">
        <ele>1120</ele>
        <time>2022-07-16T13:08:04.663Z</time>
      </trkpt>
      <trkpt lat="45.76177" lon="6.98221">
        <ele>1123</ele>
        <time>2022-07-16T13:08:06.871Z</time>
      </trkpt>
      <trkpt lat="45.76171" lon="6.98216">
        <ele>1127</ele>
        <time>2022-07-16T13:08:10.431Z</time>
      </trkpt>
      <trkpt lat="45.76166" lon="6.98215">
        <ele>1128</ele>
        <time>2022-07-16T13:08:13.020Z</time>
      </trkpt>
      <trkpt lat="45.76161" lon="6.9822">
        <ele>1128</ele>
        <time>2022-07-16T13:08:13.831Z</time>
      </trkpt>
      <trkpt lat="45.76137" lon="6.98262">
        <ele>1120</ele>
        <time>2022-07-16T13:08:16.690Z</time>
      </trkpt>
      <trkpt lat="45.76122" lon="6.98276">
        <ele>1122</ele>
        <time>2022-07-16T13:08:23.679Z</time>
      </trkpt>
      <trkpt lat="45.76108" lon="6.98281">
        <ele>1125</ele>
        <time>2022-07-16T13:08:31.080Z</time>
      </trkpt>
      <trkpt lat="45.76098" lon="6.98288">
        <ele>1127</ele>
        <time>2022-07-16T13:08:36.788Z</time>
      </trkpt>
      <trkpt lat="45.76077" lon="6.98327">
        <ele>1124</ele>
        <time>2022-07-16T13:08:39.382Z</time>
      </trkpt>
      <trkpt lat="45.76072" lon="6.98329">
        <ele>1125</ele>
        <time>2022-07-16T13:08:42.045Z</time>
      </trkpt>
      <trkpt lat="45.76043" lon="6.9833">
        <ele>1132</ele>
        <time>2022-07-16T13:08:56.925Z</time>
      </trkpt>
      <trkpt lat="45.75998" lon="6.98364">
        <ele>1139</ele>
        <time>2022-07-16T13:09:23.018Z</time>
      </trkpt>
      <trkpt lat="45.7599" lon="6.98379">
        <ele>1142</ele>
        <time>2022-07-16T13:09:29.775Z</time>
      </trkpt>
      <trkpt lat="45.75988" lon="6.98389">
        <ele>1141</ele>
        <time>2022-07-16T13:09:30.323Z</time>
      </trkpt>
      <trkpt lat="45.75983" lon="6.98441">
        <ele>1138</ele>
        <time>2022-07-16T13:09:33.087Z</time>
      </trkpt>
      <trkpt lat="45.75979" lon="6.98448">
        <ele>1140</ele>
        <time>2022-07-16T13:09:36.325Z</time>
      </trkpt>
      <trkpt lat="45.75976" lon="6.98448">
        <ele>1142</ele>
        <time>2022-07-16T13:09:37.864Z</time>
      </trkpt>
      <trkpt lat="45.75973" lon="6.98446">
        <ele>1144</ele>
        <time>2022-07-16T13:09:39.561Z</time>
      </trkpt>
      <trkpt lat="45.75971" lon="6.98433">
        <ele>1147</ele>
        <time>2022-07-16T13:09:44.325Z</time>
      </trkpt>
      <trkpt lat="45.75972" lon="6.98409">
        <ele>1149</ele>
        <time>2022-07-16T13:09:51.464Z</time>
      </trkpt>
      <trkpt lat="45.75983" lon="6.98365">
        <ele>1147</ele>
        <time>2022-07-16T13:09:53.814Z</time>
      </trkpt>
      <trkpt lat="45.76007" lon="6.98303">
        <ele>1148</ele>
        <time>2022-07-16T13:10:01.887Z</time>
      </trkpt>
      <trkpt lat="45.76016" lon="6.98294">
        <ele>1147</ele>
        <time>2022-07-16T13:10:02.715Z</time>
      </trkpt>
      <trkpt lat="45.76072" lon="6.98264">
        <ele>1140</ele>
        <time>2022-07-16T13:10:07.228Z</time>
      </trkpt>
      <trkpt lat="45.76117" lon="6.98199">
        <ele>1152</ele>
        <time>2022-07-16T13:10:39.998Z</time>
      </trkpt>
      <trkpt lat="45.76148" lon="6.98182">
        <ele>1149</ele>
        <time>2022-07-16T13:10:42.503Z</time>
      </trkpt>
      <trkpt lat="45.76145" lon="6.98167">
        <ele>1157</ele>
        <time>2022-07-16T13:10:48.087Z</time>
      </trkpt>
      <trkpt lat="45.76135" lon="6.98164">
        <ele>1162</ele>
        <time>2022-07-16T13:10:53.328Z</time>
      </trkpt>
      <trkpt lat="45.76103" lon="6.98199">
        <ele>1157</ele>
        <time>2022-07-16T13:10:56.366Z</time>
      </trkpt>
      <trkpt lat="45.76078" lon="6.9822">
        <ele>1156</ele>
        <time>2022-07-16T13:10:59.015Z</time>
      </trkpt>
      <trkpt lat="45.76065" lon="6.98227">
        <ele>1155</ele>
        <time>2022-07-16T13:11:00.063Z</time>
      </trkpt>
      <trkpt lat="45.75999" lon="6.98245">
        <ele>1163</ele>
        <time>2022-07-16T13:11:28.602Z</time>
      </trkpt>
      <trkpt lat="45.75981" lon="6.98254">
        <ele>1167</ele>
        <time>2022-07-16T13:11:38.381Z</time>
      </trkpt>
      <trkpt lat="45.75975" lon="6.98261">
        <ele>1168</ele>
        <time>2022-07-16T13:11:42.124Z</time>
      </trkpt>
      <trkpt lat="45.75966" lon="6.98273">
        <ele>1170</ele>
        <time>2022-07-16T13:11:48.429Z</time>
      </trkpt>
      <trkpt lat="45.75951" lon="6.98304">
        <ele>1171</ele>
        <time>2022-07-16T13:11:53.797Z</time>
      </trkpt>
      <trkpt lat="45.7594" lon="6.98428">
        <ele>1167</ele>
        <time>2022-07-16T13:12:00.956Z</time>
      </trkpt>
      <trkpt lat="45.75938" lon="6.98437">
        <ele>1168</ele>
        <time>2022-07-16T13:12:04.336Z</time>
      </trkpt>
      <trkpt lat="45.75931" lon="6.98441">
        <ele>1172</ele>
        <time>2022-07-16T13:12:08.201Z</time>
      </trkpt>
      <trkpt lat="45.75927" lon="6.9844">
        <ele>1175</ele>
        <time>2022-07-16T13:12:10.284Z</time>
      </trkpt>
      <trkpt lat="45.75925" lon="6.98435">
        <ele>1176</ele>
        <time>2022-07-16T13:12:12.347Z</time>
      </trkpt>
      <trkpt lat="45.75926" lon="6.98405">
        <ele>1177</ele>
        <time>2022-07-16T13:12:17.148Z</time>
      </trkpt>
      <trkpt lat="45.75935" lon="6.98332">
        <ele>1174</ele>
        <time>2022-07-16T13:12:20.975Z</time>
      </trkpt>
      <trkpt lat="45.75934" lon="6.98269">
        <ele>1183</ele>
        <time>2022-07-16T13:12:43.527Z</time>
      </trkpt>
      <trkpt lat="45.75942" lon="6.98255">
        <ele>1182</ele>
        <time>2022-07-16T13:12:44.480Z</time>
      </trkpt>
      <trkpt lat="45.75977" lon="6.98215">
        <ele>1181</ele>
        <time>2022-07-16T13:12:49.141Z</time>
      </trkpt>
      <trkpt lat="45.76006" lon="6.98201">
        <ele>1178</ele>
        <time>2022-07-16T13:12:51.450Z</time>
      </trkpt>
      <trkpt lat="45.76038" lon="6.98192">
        <ele>1176</ele>
        <time>2022-07-16T13:12:53.800Z</time>
      </trkpt>
      <trkpt lat="45.76041" lon="6.98187">
        <ele>1177</ele>
        <time>2022-07-16T13:12:56.160Z</time>
      </trkpt>
      <trkpt lat="45.7604" lon="6.98175">
        <ele>1182</ele>
        <time>2022-07-16T13:13:00.485Z</time>
      </trkpt>
      <trkpt lat="45.76032" lon="6.98172">
        <ele>1185</ele>
        <time>2022-07-16T13:13:04.727Z</time>
      </trkpt>
      <trkpt lat="45.7601" lon="6.98187">
        <ele>1183</ele>
        <time>2022-07-16T13:13:06.566Z</time>
      </trkpt>
      <trkpt lat="45.75973" lon="6.98196">
        <ele>1189</ele>
        <time>2022-07-16T13:13:25.816Z</time>
      </trkpt>
      <trkpt lat="45.75965" lon="6.982">
        <ele>1190</ele>
        <time>2022-07-16T13:13:29.371Z</time>
      </trkpt>
      <trkpt lat="45.7593" lon="6.98226">
        <ele>1193</ele>
        <time>2022-07-16T13:13:40.429Z</time>
      </trkpt>
      <trkpt lat="45.75921" lon="6.98238">
        <ele>1193</ele>
        <time>2022-07-16T13:13:42.063Z</time>
      </trkpt>
      <trkpt lat="45.75917" lon="6.9825">
        <ele>1192</ele>
        <time>2022-07-16T13:13:42.764Z</time>
      </trkpt>
      <trkpt lat="45.7591" lon="6.98292">
        <ele>1190</ele>
        <time>2022-07-16T13:13:44.851Z</time>
      </trkpt>
      <trkpt lat="45.75905" lon="6.98308">
        <ele>1191</ele>
        <time>2022-07-16T13:13:48.443Z</time>
      </trkpt>
      <trkpt lat="45.75888" lon="6.98332">
        <ele>1196</ele>
        <time>2022-07-16T13:14:00.682Z</time>
      </trkpt>
      <trkpt lat="45.7588" lon="6.98337">
        <ele>1199</ele>
        <time>2022-07-16T13:14:05.159Z</time>
      </trkpt>
      <trkpt lat="45.75801" lon="6.98361">
        <ele>1209</ele>
        <time>2022-07-16T13:14:41.534Z</time>
      </trkpt>
      <trkpt lat="45.75752" lon="6.98383">
        <ele>1184</ele>
        <time>2022-07-16T13:14:45.409Z</time>
      </trkpt>
      <trkpt lat="45.75734" lon="6.98384">
        <ele>1181</ele>
        <time>2022-07-16T13:14:46.769Z</time>
      </trkpt>
      <trkpt lat="45.75723" lon="6.98379">
        <ele>1183</ele>
        <time>2022-07-16T13:14:52.688Z</time>
      </trkpt>
      <trkpt lat="45.75711" lon="6.98369">
        <ele>1188</ele>
        <time>2022-07-16T13:14:59.808Z</time>
      </trkpt>
      <trkpt lat="45.75701" lon="6.98356">
        <ele>1193</ele>
        <time>2022-07-16T13:15:06.734Z</time>
      </trkpt>
      <trkpt lat="45.75659" lon="6.98289">
        <ele>1207</ele>
        <time>2022-07-16T13:15:38.969Z</time>
      </trkpt>
      <trkpt lat="45.75648" lon="6.98277">
        <ele>1208</ele>
        <time>2022-07-16T13:15:42.734Z</time>
      </trkpt>
      <trkpt lat="45.75603" lon="6.98262">
        <ele>1199</ele>
        <time>2022-07-16T13:15:46.222Z</time>
      </trkpt>
      <trkpt lat="45.75598" lon="6.98257">
        <ele>1198</ele>
        <time>2022-07-16T13:15:46.682Z</time>
      </trkpt>
      <trkpt lat="45.75571" lon="6.98206">
        <ele>1204</ele>
        <time>2022-07-16T13:16:09.594Z</time>
      </trkpt>
      <trkpt lat="45.75552" lon="6.98156">
        <ele>1211</ele>
        <time>2022-07-16T13:16:29.971Z</time>
      </trkpt>
      <trkpt lat="45.7553" lon="6.98108">
        <ele>1207</ele>
        <time>2022-07-16T13:16:32.995Z</time>
      </trkpt>
      <trkpt lat="45.75516" lon="6.98069">
        <ele>1205</ele>
        <time>2022-07-16T13:16:35.132Z</time>
      </trkpt>
      <trkpt lat="45.75489" lon="6.98009">
        <ele>1213</ele>
        <time>2022-07-16T13:17:00.685Z</time>
      </trkpt>
      <trkpt lat="45.75474" lon="6.97984">
        <ele>1218</ele>
        <time>2022-07-16T13:17:12.485Z</time>
      </trkpt>
      <trkpt lat="45.75416" lon="6.9794">
        <ele>1211</ele>
        <time>2022-07-16T13:17:17.438Z</time>
      </trkpt>
      <trkpt lat="45.75391" lon="6.97894">
        <ele>1219</ele>
        <time>2022-07-16T13:17:38.307Z</time>
      </trkpt>
      <trkpt lat="45.75227" lon="6.97689">
        <ele>1225</ele>
        <time>2022-07-16T13:18:17.025Z</time>
      </trkpt>
      <trkpt lat="45.7516" lon="6.97573">
        <ele>1225</ele>
        <time>2022-07-16T13:18:30.999Z</time>
      </trkpt>
      <trkpt lat="45.7511" lon="6.975">
        <ele>1230</ele>
        <time>2022-07-16T13:18:50.107Z</time>
      </trkpt>
      <trkpt lat="45.75081" lon="6.97434">
        <ele>1233</ele>
        <time>2022-07-16T13:19:03.201Z</time>
      </trkpt>
      <trkpt lat="45.75059" lon="6.97401">
        <ele>1233</ele>
        <time>2022-07-16T13:19:07.437Z</time>
      </trkpt>
      <trkpt lat="45.75039" lon="6.97363">
        <ele>1233</ele>
        <time>2022-07-16T13:19:11.854Z</time>
      </trkpt>
      <trkpt lat="45.7502" lon="6.97303">
        <ele>1237</ele>
        <time>2022-07-16T13:19:25.966Z</time>
      </trkpt>
      <trkpt lat="45.74999" lon="6.97262">
        <ele>1238</ele>
        <time>2022-07-16T13:19:32.328Z</time>
      </trkpt>
      <trkpt lat="45.74984" lon="6.97244">
        <ele>1240</ele>
        <time>2022-07-16T13:19:39.244Z</time>
      </trkpt>
      <trkpt lat="45.74969" lon="6.97232">
        <ele>1242</ele>
        <time>2022-07-16T13:19:46.316Z</time>
      </trkpt>
      <trkpt lat="45.74956" lon="6.97225">
        <ele>1241</ele>
        <time>2022-07-16T13:19:47.365Z</time>
      </trkpt>
      <trkpt lat="45.74896" lon="6.97207">
        <ele>1242</ele>
        <time>2022-07-16T13:19:56.949Z</time>
      </trkpt>
      <trkpt lat="45.74879" lon="6.97197">
        <ele>1246</ele>
        <time>2022-07-16T13:20:06.375Z</time>
      </trkpt>
      <trkpt lat="45.74862" lon="6.97179">
        <ele>1249</ele>
        <time>2022-07-16T13:20:17.217Z</time>
      </trkpt>
      <trkpt lat="45.74783" lon="6.97085">
        <ele>1260</ele>
        <time>2022-07-16T13:20:55.378Z</time>
      </trkpt>
      <trkpt lat="45.7474" lon="6.97022">
        <ele>1262</ele>
        <time>2022-07-16T13:21:07.026Z</time>
      </trkpt>
      <trkpt lat="45.74674" lon="6.96913">
        <ele>1267</ele>
        <time>2022-07-16T13:21:30.390Z</time>
      </trkpt>
      <trkpt lat="45.74658" lon="6.96892">
        <ele>1270</ele>
        <time>2022-07-16T13:21:41.520Z</time>
      </trkpt>
      <trkpt lat="45.74619" lon="6.9686">
        <ele>1273</ele>
        <time>2022-07-16T13:21:53.258Z</time>
      </trkpt>
      <trkpt lat="45.74509" lon="6.96781">
        <ele>1276</ele>
        <time>2022-07-16T13:22:14.327Z</time>
      </trkpt>
      <trkpt lat="45.744" lon="6.96753">
        <ele>1272</ele>
        <time>2022-07-16T13:22:24.290Z</time>
      </trkpt>
      <trkpt lat="45.74383" lon="6.96737">
        <ele>1273</ele>
        <time>2022-07-16T13:22:28.994Z</time>
      </trkpt>
      <trkpt lat="45.74368" lon="6.96718">
        <ele>1274</ele>
        <time>2022-07-16T13:22:33.648Z</time>
      </trkpt>
      <trkpt lat="45.74335" lon="6.96667">
        <ele>1272</ele>
        <time>2022-07-16T13:22:37.806Z</time>
      </trkpt>
      <trkpt lat="45.74316" lon="6.96606">
        <ele>1280</ele>
        <time>2022-07-16T13:23:01.719Z</time>
      </trkpt>
      <trkpt lat="45.74304" lon="6.96581">
        <ele>1281</ele>
        <time>2022-07-16T13:23:06.555Z</time>
      </trkpt>
      <trkpt lat="45.74279" lon="6.96538">
        <ele>1287</ele>
        <time>2022-07-16T13:23:26.590Z</time>
      </trkpt>
      <trkpt lat="45.74252" lon="6.96504">
        <ele>1290</ele>
        <time>2022-07-16T13:23:37.295Z</time>
      </trkpt>
      <trkpt lat="45.74196" lon="6.9645">
        <ele>1297</ele>
        <time>2022-07-16T13:24:01.513Z</time>
      </trkpt>
      <trkpt lat="45.74159" lon="6.96409">
        <ele>1298</ele>
        <time>2022-07-16T13:24:09.248Z</time>
      </trkpt>
      <trkpt lat="45.7411" lon="6.9637">
        <ele>1301</ele>
        <time>2022-07-16T13:24:22.590Z</time>
      </trkpt>
      <trkpt lat="45.74084" lon="6.96354">
        <ele>1299</ele>
        <time>2022-07-16T13:24:24.726Z</time>
      </trkpt>
      <trkpt lat="45.7401" lon="6.96329">
        <ele>1297</ele>
        <time>2022-07-16T13:24:32.299Z</time>
      </trkpt>
      <trkpt lat="45.7398" lon="6.96323">
        <ele>1300</ele>
        <time>2022-07-16T13:24:42.678Z</time>
      </trkpt>
      <trkpt lat="45.73955" lon="6.96305">
        <ele>1306</ele>
        <time>2022-07-16T13:24:57.030Z</time>
      </trkpt>
      <trkpt lat="45.73938" lon="6.96278">
        <ele>1307</ele>
        <time>2022-07-16T13:25:02.311Z</time>
      </trkpt>
      <trkpt lat="45.73898" lon="6.96176">
        <ele>1311</ele>
        <time>2022-07-16T13:25:21.173Z</time>
      </trkpt>
      <trkpt lat="45.73829" lon="6.96099">
        <ele>1313</ele>
        <time>2022-07-16T13:25:35.886Z</time>
      </trkpt>
      <trkpt lat="45.73766" lon="6.96017">
        <ele>1327</ele>
        <time>2022-07-16T13:26:19.545Z</time>
      </trkpt>
      <trkpt lat="45.73742" lon="6.95995">
        <ele>1327</ele>
        <time>2022-07-16T13:26:23.334Z</time>
      </trkpt>
      <trkpt lat="45.73727" lon="6.9599">
        <ele>1327</ele>
        <time>2022-07-16T13:26:25.382Z</time>
      </trkpt>
      <trkpt lat="45.73714" lon="6.95991">
        <ele>1325</ele>
        <time>2022-07-16T13:26:26.365Z</time>
      </trkpt>
      <trkpt lat="45.73699" lon="6.95999">
        <ele>1320</ele>
        <time>2022-07-16T13:26:27.573Z</time>
      </trkpt>
      <trkpt lat="45.7368" lon="6.96016">
        <ele>1316</ele>
        <time>2022-07-16T13:26:29.264Z</time>
      </trkpt>
      <trkpt lat="45.73671" lon="6.96021">
        <ele>1315</ele>
        <time>2022-07-16T13:26:29.992Z</time>
      </trkpt>
      <trkpt lat="45.7366" lon="6.96023">
        <ele>1314</ele>
        <time>2022-07-16T13:26:30.829Z</time>
      </trkpt>
      <trkpt lat="45.73629" lon="6.9601">
        <ele>1315</ele>
        <time>2022-07-16T13:26:36.825Z</time>
      </trkpt>
      <trkpt lat="45.73598" lon="6.95986">
        <ele>1317</ele>
        <time>2022-07-16T13:26:45.398Z</time>
      </trkpt>
      <trkpt lat="45.73584" lon="6.95979">
        <ele>1318</ele>
        <time>2022-07-16T13:26:49.291Z</time>
      </trkpt>
      <trkpt lat="45.73531" lon="6.95964">
        <ele>1316</ele>
        <time>2022-07-16T13:26:54.109Z</time>
      </trkpt>
      <trkpt lat="45.7352" lon="6.95965">
        <ele>1316</ele>
        <time>2022-07-16T13:26:55.575Z</time>
      </trkpt>
      <trkpt lat="45.73511" lon="6.95983">
        <ele>1313</ele>
        <time>2022-07-16T13:26:56.741Z</time>
      </trkpt>
      <trkpt lat="45.73506" lon="6.96008">
        <ele>1311</ele>
        <time>2022-07-16T13:26:58.111Z</time>
      </trkpt>
      <trkpt lat="45.73503" lon="6.96024">
        <ele>1313</ele>
        <time>2022-07-16T13:27:04.043Z</time>
      </trkpt>
      <trkpt lat="45.73502" lon="6.96059">
        <ele>1316</ele>
        <time>2022-07-16T13:27:14.900Z</time>
      </trkpt>
      <trkpt lat="45.73509" lon="6.96073">
        <ele>1317</ele>
        <time>2022-07-16T13:27:18.472Z</time>
      </trkpt>
      <trkpt lat="45.73517" lon="6.96081">
        <ele>1317</ele>
        <time>2022-07-16T13:27:19.770Z</time>
      </trkpt>
      <trkpt lat="45.73578" lon="6.96109">
        <ele>1320</ele>
        <time>2022-07-16T13:27:34.362Z</time>
      </trkpt>
      <trkpt lat="45.73582" lon="6.96125">
        <ele>1325</ele>
        <time>2022-07-16T13:27:40.447Z</time>
      </trkpt>
      <trkpt lat="45.73577" lon="6.96135">
        <ele>1329</ele>
        <time>2022-07-16T13:27:44.851Z</time>
      </trkpt>
      <trkpt lat="45.7357" lon="6.96139">
        <ele>1331</ele>
        <time>2022-07-16T13:27:48.716Z</time>
      </trkpt>
      <trkpt lat="45.73565" lon="6.96139">
        <ele>1332</ele>
        <time>2022-07-16T13:27:51.281Z</time>
      </trkpt>
      <trkpt lat="45.73531" lon="6.96113">
        <ele>1328</ele>
        <time>2022-07-16T13:27:54.190Z</time>
      </trkpt>
      <trkpt lat="45.73476" lon="6.96093">
        <ele>1330</ele>
        <time>2022-07-16T13:28:05.334Z</time>
      </trkpt>
      <trkpt lat="45.73455" lon="6.96083">
        <ele>1332</ele>
        <time>2022-07-16T13:28:12.331Z</time>
      </trkpt>
      <trkpt lat="45.73424" lon="6.96061">
        <ele>1334</ele>
        <time>2022-07-16T13:28:20.809Z</time>
      </trkpt>
      <trkpt lat="45.73329" lon="6.96016">
        <ele>1335</ele>
        <time>2022-07-16T13:28:35.457Z</time>
      </trkpt>
      <trkpt lat="45.73297" lon="6.96006">
        <ele>1337</ele>
        <time>2022-07-16T13:28:43.668Z</time>
      </trkpt>
      <trkpt lat="45.73268" lon="6.96005">
        <ele>1341</ele>
        <time>2022-07-16T13:28:58.548Z</time>
      </trkpt>
      <trkpt lat="45.73257" lon="6.96002">
        <ele>1342</ele>
        <time>2022-07-16T13:29:02.055Z</time>
      </trkpt>
      <trkpt lat="45.73203" lon="6.9596">
        <ele>1345</ele>
        <time>2022-07-16T13:29:16.234Z</time>
      </trkpt>
      <trkpt lat="45.73165" lon="6.95951">
        <ele>1350</ele>
        <time>2022-07-16T13:29:35.009Z</time>
      </trkpt>
      <trkpt lat="45.73129" lon="6.95936">
        <ele>1354</ele>
        <time>2022-07-16T13:29:48.879Z</time>
      </trkpt>
      <trkpt lat="45.73045" lon="6.95868">
        <ele>1363</ele>
        <time>2022-07-16T13:30:20.195Z</time>
      </trkpt>
      <trkpt lat="45.72972" lon="6.95794">
        <ele>1370</ele>
        <time>2022-07-16T13:30:45.719Z</time>
      </trkpt>
      <trkpt lat="45.72925" lon="6.95722">
        <ele>1371</ele>
        <time>2022-07-16T13:30:56.275Z</time>
      </trkpt>
      <trkpt lat="45.72919" lon="6.957">
        <ele>1370</ele>
        <time>2022-07-16T13:30:57.470Z</time>
      </trkpt>
      <trkpt lat="45.72911" lon="6.95639">
        <ele>1364</ele>
        <time>2022-07-16T13:31:00.740Z</time>
      </trkpt>
      <trkpt lat="45.72893" lon="6.95594">
        <ele>1365</ele>
        <time>2022-07-16T13:31:07.185Z</time>
      </trkpt>
      <trkpt lat="45.7289" lon="6.95589">
        <ele>1365</ele>
        <time>2022-07-16T13:31:07.797Z</time>
      </trkpt>
      <trkpt lat="45.72885" lon="6.95588">
        <ele>1368</ele>
        <time>2022-07-16T13:31:10.387Z</time>
      </trkpt>
      <trkpt lat="45.72882" lon="6.95593">
        <ele>1371</ele>
        <time>2022-07-16T13:31:12.747Z</time>
      </trkpt>
      <trkpt lat="45.72889" lon="6.95722">
        <ele>1390</ele>
        <time>2022-07-16T13:31:59.077Z</time>
      </trkpt>
      <trkpt lat="45.72893" lon="6.95743">
        <ele>1391</ele>
        <time>2022-07-16T13:32:03.019Z</time>
      </trkpt>
      <trkpt lat="45.72901" lon="6.95763">
        <ele>1390</ele>
        <time>2022-07-16T13:32:04.171Z</time>
      </trkpt>
      <trkpt lat="45.72922" lon="6.95798">
        <ele>1390</ele>
        <time>2022-07-16T13:32:08.456Z</time>
      </trkpt>
      <trkpt lat="45.7292" lon="6.95811">
        <ele>1394</ele>
        <time>2022-07-16T13:32:13.222Z</time>
      </trkpt>
      <trkpt lat="45.72917" lon="6.95814">
        <ele>1396</ele>
        <time>2022-07-16T13:32:15.099Z</time>
      </trkpt>
      <trkpt lat="45.7291" lon="6.95812">
        <ele>1399</ele>
        <time>2022-07-16T13:32:18.760Z</time>
      </trkpt>
      <trkpt lat="45.72891" lon="6.95786">
        <ele>1402</ele>
        <time>2022-07-16T13:32:29.303Z</time>
      </trkpt>
      <trkpt lat="45.72876" lon="6.95756">
        <ele>1403</ele>
        <time>2022-07-16T13:32:34.619Z</time>
      </trkpt>
      <trkpt lat="45.72825" lon="6.95542">
        <ele>1389</ele>
        <time>2022-07-16T13:32:46.533Z</time>
      </trkpt>
      <trkpt lat="45.72808" lon="6.95509">
        <ele>1392</ele>
        <time>2022-07-16T13:32:56.919Z</time>
      </trkpt>
      <trkpt lat="45.72776" lon="6.95468">
        <ele>1404</ele>
        <time>2022-07-16T13:33:18.940Z</time>
      </trkpt>
      <trkpt lat="45.72698" lon="6.9538">
        <ele>1416</ele>
        <time>2022-07-16T13:34:02.039Z</time>
      </trkpt>
      <trkpt lat="45.72639" lon="6.95287">
        <ele>1416</ele>
        <time>2022-07-16T13:34:13.705Z</time>
      </trkpt>
      <trkpt lat="45.72492" lon="6.95091">
        <ele>1432</ele>
        <time>2022-07-16T13:35:11.673Z</time>
      </trkpt>
      <trkpt lat="45.72364" lon="6.94911">
        <ele>1501</ele>
        <time>2022-07-16T13:36:43.682Z</time>
      </trkpt>
      <trkpt lat="45.72243" lon="6.94766">
        <ele>1489</ele>
        <time>2022-07-16T13:36:55.589Z</time>
      </trkpt>
      <trkpt lat="45.72215" lon="6.94746">
        <ele>1468</ele>
        <time>2022-07-16T13:36:57.951Z</time>
      </trkpt>
      <trkpt lat="45.72188" lon="6.9474">
        <ele>1466</ele>
        <time>2022-07-16T13:37:00.013Z</time>
      </trkpt>
      <trkpt lat="45.7217" lon="6.94739">
        <ele>1466</ele>
        <time>2022-07-16T13:37:02.409Z</time>
      </trkpt>
      <trkpt lat="45.72071" lon="6.94753">
        <ele>1444</ele>
        <time>2022-07-16T13:37:09.917Z</time>
      </trkpt>
      <trkpt lat="45.72033" lon="6.94761">
        <ele>1449</ele>
        <time>2022-07-16T13:37:28.734Z</time>
      </trkpt>
      <trkpt lat="45.72017" lon="6.94761">
        <ele>1448</ele>
        <time>2022-07-16T13:37:29.876Z</time>
      </trkpt>
      <trkpt lat="45.71901" lon="6.94724">
        <ele>1439</ele>
        <time>2022-07-16T13:37:38.846Z</time>
      </trkpt>
      <trkpt lat="45.71872" lon="6.94719">
        <ele>1440</ele>
        <time>2022-07-16T13:37:44.505Z</time>
      </trkpt>
      <trkpt lat="45.71859" lon="6.9472">
        <ele>1440</ele>
        <time>2022-07-16T13:37:46.236Z</time>
      </trkpt>
      <trkpt lat="45.71816" lon="6.9474">
        <ele>1442</ele>
        <time>2022-07-16T13:37:56.344Z</time>
      </trkpt>
      <trkpt lat="45.71782" lon="6.94766">
        <ele>1444</ele>
        <time>2022-07-16T13:38:05.419Z</time>
      </trkpt>
      <trkpt lat="45.71734" lon="6.94813">
        <ele>1448</ele>
        <time>2022-07-16T13:38:20.839Z</time>
      </trkpt>
      <trkpt lat="45.71676" lon="6.94876">
        <ele>1452</ele>
        <time>2022-07-16T13:38:38.333Z</time>
      </trkpt>
      <trkpt lat="45.71671" lon="6.94879">
        <ele>1452</ele>
        <time>2022-07-16T13:38:39.054Z</time>
      </trkpt>
      <trkpt lat="45.71664" lon="6.94877">
        <ele>1452</ele>
        <time>2022-07-16T13:38:40.003Z</time>
      </trkpt>
      <trkpt lat="45.71646" lon="6.94784">
        <ele>1452</ele>
        <time>2022-07-16T13:38:48.964Z</time>
      </trkpt>
      <trkpt lat="45.71656" lon="6.94736">
        <ele>1454</ele>
        <time>2022-07-16T13:38:57.499Z</time>
      </trkpt>
      <trkpt lat="45.71675" lon="6.94668">
        <ele>1454</ele>
        <time>2022-07-16T13:39:04.300Z</time>
      </trkpt>
      <trkpt lat="45.71674" lon="6.9465">
        <ele>1454</ele>
        <time>2022-07-16T13:39:05.976Z</time>
      </trkpt>
      <trkpt lat="45.71669" lon="6.94638">
        <ele>1454</ele>
        <time>2022-07-16T13:39:07.274Z</time>
      </trkpt>
      <trkpt lat="45.7166" lon="6.94626">
        <ele>1455</ele>
        <time>2022-07-16T13:39:10.871Z</time>
      </trkpt>
      <trkpt lat="45.71537" lon="6.94523">
        <ele>1466</ele>
        <time>2022-07-16T13:39:51.190Z</time>
      </trkpt>
      <trkpt lat="45.71408" lon="6.94448">
        <ele>1475</ele>
        <time>2022-07-16T13:40:27.000Z</time>
      </trkpt>
      <trkpt lat="45.71326" lon="6.94355">
        <ele>1483</ele>
        <time>2022-07-16T13:40:56.429Z</time>
      </trkpt>
      <trkpt lat="45.7131" lon="6.9433">
        <ele>1485</ele>
        <time>2022-07-16T13:41:03.542Z</time>
      </trkpt>
      <trkpt lat="45.7131" lon="6.94319">
        <ele>1486</ele>
        <time>2022-07-16T13:41:07.305Z</time>
      </trkpt>
      <trkpt lat="45.71335" lon="6.94278">
        <ele>1488</ele>
        <time>2022-07-16T13:41:16.298Z</time>
      </trkpt>
      <trkpt lat="45.71345" lon="6.9427">
        <ele>1488</ele>
        <time>2022-07-16T13:41:17.821Z</time>
      </trkpt>
      <trkpt lat="45.71398" lon="6.9424">
        <ele>1493</ele>
        <time>2022-07-16T13:41:35.426Z</time>
      </trkpt>
      <trkpt lat="45.7142" lon="6.94237">
        <ele>1494</ele>
        <time>2022-07-16T13:41:40.410Z</time>
      </trkpt>
      <trkpt lat="45.71451" lon="6.9425">
        <ele>1493</ele>
        <time>2022-07-16T13:41:43.472Z</time>
      </trkpt>
      <trkpt lat="45.71458" lon="6.9425">
        <ele>1493</ele>
        <time>2022-07-16T13:41:44.403Z</time>
      </trkpt>
      <trkpt lat="45.71483" lon="6.94233">
        <ele>1497</ele>
        <time>2022-07-16T13:41:58.599Z</time>
      </trkpt>
      <trkpt lat="45.71496" lon="6.9423">
        <ele>1498</ele>
        <time>2022-07-16T13:42:02.288Z</time>
      </trkpt>
      <trkpt lat="45.71566" lon="6.94254">
        <ele>1495</ele>
        <time>2022-07-16T13:42:08.427Z</time>
      </trkpt>
      <trkpt lat="45.71571" lon="6.94254">
        <ele>1496</ele>
        <time>2022-07-16T13:42:10.992Z</time>
      </trkpt>
      <trkpt lat="45.71575" lon="6.94251">
        <ele>1496</ele>
        <time>2022-07-16T13:42:11.592Z</time>
      </trkpt>
      <trkpt lat="45.71576" lon="6.94244">
        <ele>1499</ele>
        <time>2022-07-16T13:42:14.151Z</time>
      </trkpt>
      <trkpt lat="45.7157" lon="6.94236">
        <ele>1501</ele>
        <time>2022-07-16T13:42:18.356Z</time>
      </trkpt>
      <trkpt lat="45.71525" lon="6.94215">
        <ele>1504</ele>
        <time>2022-07-16T13:42:30.420Z</time>
      </trkpt>
      <trkpt lat="45.7146" lon="6.94172">
        <ele>1508</ele>
        <time>2022-07-16T13:42:47.735Z</time>
      </trkpt>
      <trkpt lat="45.71407" lon="6.94156">
        <ele>1507</ele>
        <time>2022-07-16T13:42:53.636Z</time>
      </trkpt>
      <trkpt lat="45.71397" lon="6.9415">
        <ele>1508</ele>
        <time>2022-07-16T13:42:57.122Z</time>
      </trkpt>
      <trkpt lat="45.7139" lon="6.94138">
        <ele>1509</ele>
        <time>2022-07-16T13:43:00.612Z</time>
      </trkpt>
      <trkpt lat="45.71367" lon="6.94058">
        <ele>1518</ele>
        <time>2022-07-16T13:43:31.599Z</time>
      </trkpt>
      <trkpt lat="45.71359" lon="6.94038">
        <ele>1519</ele>
        <time>2022-07-16T13:43:35.664Z</time>
      </trkpt>
      <trkpt lat="45.71348" lon="6.9402">
        <ele>1519</ele>
        <time>2022-07-16T13:43:37.885Z</time>
      </trkpt>
      <trkpt lat="45.71309" lon="6.93975">
        <ele>1518</ele>
        <time>2022-07-16T13:43:43.246Z</time>
      </trkpt>
      <trkpt lat="45.71308" lon="6.93964">
        <ele>1520</ele>
        <time>2022-07-16T13:43:47.219Z</time>
      </trkpt>
      <trkpt lat="45.71312" lon="6.93958">
        <ele>1522</ele>
        <time>2022-07-16T13:43:50.190Z</time>
      </trkpt>
      <trkpt lat="45.71324" lon="6.93962">
        <ele>1524</ele>
        <time>2022-07-16T13:43:56.510Z</time>
      </trkpt>
      <trkpt lat="45.71372" lon="6.93994">
        <ele>1528</ele>
        <time>2022-07-16T13:44:11.297Z</time>
      </trkpt>
      <trkpt lat="45.71409" lon="6.94035">
        <ele>1528</ele>
        <time>2022-07-16T13:44:17.518Z</time>
      </trkpt>
      <trkpt lat="45.71437" lon="6.94056">
        <ele>1529</ele>
        <time>2022-07-16T13:44:23.437Z</time>
      </trkpt>
      <trkpt lat="45.71452" lon="6.94063">
        <ele>1530</ele>
        <time>2022-07-16T13:44:27.458Z</time>
      </trkpt>
      <trkpt lat="45.7148" lon="6.94071">
        <ele>1532</ele>
        <time>2022-07-16T13:44:35.101Z</time>
      </trkpt>
      <trkpt lat="45.71486" lon="6.94075">
        <ele>1532</ele>
        <time>2022-07-16T13:44:35.981Z</time>
      </trkpt>
      <trkpt lat="45.71509" lon="6.94094">
        <ele>1532</ele>
        <time>2022-07-16T13:44:39.513Z</time>
      </trkpt>
      <trkpt lat="45.71539" lon="6.94136">
        <ele>1527</ele>
        <time>2022-07-16T13:44:42.679Z</time>
      </trkpt>
      <trkpt lat="45.71547" lon="6.94135">
        <ele>1529</ele>
        <time>2022-07-16T13:44:46.798Z</time>
      </trkpt>
      <trkpt lat="45.71551" lon="6.94131">
        <ele>1531</ele>
        <time>2022-07-16T13:44:49.301Z</time>
      </trkpt>
      <trkpt lat="45.71553" lon="6.94123">
        <ele>1534</ele>
        <time>2022-07-16T13:44:52.344Z</time>
      </trkpt>
      <trkpt lat="45.71551" lon="6.94112">
        <ele>1537</ele>
        <time>2022-07-16T13:44:56.415Z</time>
      </trkpt>
      <trkpt lat="45.71522" lon="6.94062">
        <ele>1544</ele>
        <time>2022-07-16T13:45:19.695Z</time>
      </trkpt>
      <trkpt lat="45.71494" lon="6.94027">
        <ele>1546</ele>
        <time>2022-07-16T13:45:28.559Z</time>
      </trkpt>
      <trkpt lat="45.71483" lon="6.94022">
        <ele>1545</ele>
        <time>2022-07-16T13:45:29.430Z</time>
      </trkpt>
      <trkpt lat="45.71454" lon="6.94023">
        <ele>1539</ele>
        <time>2022-07-16T13:45:31.619Z</time>
      </trkpt>
      <trkpt lat="45.71412" lon="6.93972">
        <ele>1544</ele>
        <time>2022-07-16T13:45:49.096Z</time>
      </trkpt>
      <trkpt lat="45.71385" lon="6.93935">
        <ele>1547</ele>
        <time>2022-07-16T13:45:59.936Z</time>
      </trkpt>
      <trkpt lat="45.71339" lon="6.93834">
        <ele>1562</ele>
        <time>2022-07-16T13:46:43.126Z</time>
      </trkpt>
      <trkpt lat="45.713" lon="6.93762">
        <ele>1566</ele>
        <time>2022-07-16T13:46:59.284Z</time>
      </trkpt>
      <trkpt lat="45.71287" lon="6.93743">
        <ele>1567</ele>
        <time>2022-07-16T13:47:03.714Z</time>
      </trkpt>
      <trkpt lat="45.71224" lon="6.93683">
        <ele>1560</ele>
        <time>2022-07-16T13:47:09.425Z</time>
      </trkpt>
      <trkpt lat="45.712" lon="6.93655">
        <ele>1559</ele>
        <time>2022-07-16T13:47:12.319Z</time>
      </trkpt>
      <trkpt lat="45.71199" lon="6.9364">
        <ele>1561</ele>
        <time>2022-07-16T13:47:17.716Z</time>
      </trkpt>
      <trkpt lat="45.71206" lon="6.93622">
        <ele>1566</ele>
        <time>2022-07-16T13:47:25.095Z</time>
      </trkpt>
      <trkpt lat="45.71215" lon="6.93618">
        <ele>1569</ele>
        <time>2022-07-16T13:47:29.929Z</time>
      </trkpt>
      <trkpt lat="45.71223" lon="6.93621">
        <ele>1570</ele>
        <time>2022-07-16T13:47:33.522Z</time>
      </trkpt>
      <trkpt lat="45.71256" lon="6.93648">
        <ele>1575</ele>
        <time>2022-07-16T13:47:52.502Z</time>
      </trkpt>
      <trkpt lat="45.71308" lon="6.93679">
        <ele>1583</ele>
        <time>2022-07-16T13:48:21.394Z</time>
      </trkpt>
      <trkpt lat="45.71318" lon="6.93692">
        <ele>1583</ele>
        <time>2022-07-16T13:48:23.190Z</time>
      </trkpt>
      <trkpt lat="45.7134" lon="6.93751">
        <ele>1579</ele>
        <time>2022-07-16T13:48:26.715Z</time>
      </trkpt>
      <trkpt lat="45.71344" lon="6.93755">
        <ele>1579</ele>
        <time>2022-07-16T13:48:27.364Z</time>
      </trkpt>
      <trkpt lat="45.7135" lon="6.93753">
        <ele>1582</ele>
        <time>2022-07-16T13:48:30.524Z</time>
      </trkpt>
      <trkpt lat="45.71351" lon="6.93742">
        <ele>1584</ele>
        <time>2022-07-16T13:48:34.497Z</time>
      </trkpt>
      <trkpt lat="45.71333" lon="6.93687">
        <ele>1588</ele>
        <time>2022-07-16T13:48:48.394Z</time>
      </trkpt>
      <trkpt lat="45.71295" lon="6.93587">
        <ele>1591</ele>
        <time>2022-07-16T13:49:04.551Z</time>
      </trkpt>
      <trkpt lat="45.71273" lon="6.93537">
        <ele>1593</ele>
        <time>2022-07-16T13:49:14.052Z</time>
      </trkpt>
      <trkpt lat="45.71262" lon="6.93518">
        <ele>1593</ele>
        <time>2022-07-16T13:49:16.343Z</time>
      </trkpt>
      <trkpt lat="45.71215" lon="6.93452">
        <ele>1588</ele>
        <time>2022-07-16T13:49:21.312Z</time>
      </trkpt>
      <trkpt lat="45.71203" lon="6.9343">
        <ele>1587</ele>
        <time>2022-07-16T13:49:22.837Z</time>
      </trkpt>
      <trkpt lat="45.71188" lon="6.93388">
        <ele>1587</ele>
        <time>2022-07-16T13:49:27.218Z</time>
      </trkpt>
      <trkpt lat="45.71134" lon="6.93199">
        <ele>1602</ele>
        <time>2022-07-16T13:50:19.160Z</time>
      </trkpt>
      <trkpt lat="45.71125" lon="6.93184">
        <ele>1604</ele>
        <time>2022-07-16T13:50:26.244Z</time>
      </trkpt>
      <trkpt lat="45.711" lon="6.93155">
        <ele>1608</ele>
        <time>2022-07-16T13:50:40.828Z</time>
      </trkpt>
      <trkpt lat="45.71084" lon="6.93106">
        <ele>1615</ele>
        <time>2022-07-16T13:51:00.203Z</time>
      </trkpt>
      <trkpt lat="45.71079" lon="6.93099">
        <ele>1617</ele>
        <time>2022-07-16T13:51:03.789Z</time>
      </trkpt>
      <trkpt lat="45.71072" lon="6.93093">
        <ele>1620</ele>
        <time>2022-07-16T13:51:07.974Z</time>
      </trkpt>
      <trkpt lat="45.71062" lon="6.93091">
        <ele>1624</ele>
        <time>2022-07-16T13:51:13.153Z</time>
      </trkpt>
      <trkpt lat="45.71052" lon="6.93101">
        <ele>1626</ele>
        <time>2022-07-16T13:51:19.410Z</time>
      </trkpt>
      <trkpt lat="45.71049" lon="6.93114">
        <ele>1625</ele>
        <time>2022-07-16T13:51:20.131Z</time>
      </trkpt>
      <trkpt lat="45.71044" lon="6.93189">
        <ele>1620</ele>
        <time>2022-07-16T13:51:24.102Z</time>
      </trkpt>
      <trkpt lat="45.71038" lon="6.93222">
        <ele>1621</ele>
        <time>2022-07-16T13:51:29.248Z</time>
      </trkpt>
      <trkpt lat="45.71028" lon="6.93237">
        <ele>1624</ele>
        <time>2022-07-16T13:51:36.676Z</time>
      </trkpt>
      <trkpt lat="45.71007" lon="6.93251">
        <ele>1633</ele>
        <time>2022-07-16T13:51:48.558Z</time>
      </trkpt>
      <trkpt lat="45.70999" lon="6.93266">
        <ele>1635</ele>
        <time>2022-07-16T13:51:55.319Z</time>
      </trkpt>
      <trkpt lat="45.70994" lon="6.93278">
        <ele>1636</ele>
        <time>2022-07-16T13:51:58.777Z</time>
      </trkpt>
      <trkpt lat="45.70985" lon="6.93333">
        <ele>1634</ele>
        <time>2022-07-16T13:52:01.880Z</time>
      </trkpt>
      <trkpt lat="45.70975" lon="6.93367">
        <ele>1633</ele>
        <time>2022-07-16T13:52:04.138Z</time>
      </trkpt>
      <trkpt lat="45.70948" lon="6.9342">
        <ele>1636</ele>
        <time>2022-07-16T13:52:15.994Z</time>
      </trkpt>
      <trkpt lat="45.70944" lon="6.93421">
        <ele>1638</ele>
        <time>2022-07-16T13:52:18.077Z</time>
      </trkpt>
      <trkpt lat="45.70942" lon="6.93418">
        <ele>1639</ele>
        <time>2022-07-16T13:52:19.562Z</time>
      </trkpt>
      <trkpt lat="45.70944" lon="6.93398">
        <ele>1641</ele>
        <time>2022-07-16T13:52:26.799Z</time>
      </trkpt>
      <trkpt lat="45.70967" lon="6.9332">
        <ele>1642</ele>
        <time>2022-07-16T13:52:36.103Z</time>
      </trkpt>
      <trkpt lat="45.70969" lon="6.93306">
        <ele>1643</ele>
        <time>2022-07-16T13:52:39.562Z</time>
      </trkpt>
      <trkpt lat="45.70971" lon="6.9327">
        <ele>1646</ele>
        <time>2022-07-16T13:52:50.259Z</time>
      </trkpt>
      <trkpt lat="45.7097" lon="6.93227">
        <ele>1650</ele>
        <time>2022-07-16T13:53:05.605Z</time>
      </trkpt>
      <trkpt lat="45.70961" lon="6.93149">
        <ele>1658</ele>
        <time>2022-07-16T13:53:33.923Z</time>
      </trkpt>
      <trkpt lat="45.70962" lon="6.93138">
        <ele>1658</ele>
        <time>2022-07-16T13:53:34.953Z</time>
      </trkpt>
      <trkpt lat="45.70977" lon="6.93092">
        <ele>1654</ele>
        <time>2022-07-16T13:53:37.629Z</time>
      </trkpt>
      <trkpt lat="45.70985" lon="6.93047">
        <ele>1652</ele>
        <time>2022-07-16T13:53:39.959Z</time>
      </trkpt>
      <trkpt lat="45.70984" lon="6.93038">
        <ele>1653</ele>
        <time>2022-07-16T13:53:43.223Z</time>
      </trkpt>
      <trkpt lat="45.70979" lon="6.93033">
        <ele>1656</ele>
        <time>2022-07-16T13:53:46.351Z</time>
      </trkpt>
      <trkpt lat="45.70975" lon="6.93034">
        <ele>1657</ele>
        <time>2022-07-16T13:53:48.434Z</time>
      </trkpt>
      <trkpt lat="45.70971" lon="6.93044">
        <ele>1659</ele>
        <time>2022-07-16T13:53:52.562Z</time>
      </trkpt>
      <trkpt lat="45.70968" lon="6.93083">
        <ele>1659</ele>
        <time>2022-07-16T13:53:56.206Z</time>
      </trkpt>
      <trkpt lat="45.70947" lon="6.93143">
        <ele>1665</ele>
        <time>2022-07-16T13:54:18.502Z</time>
      </trkpt>
      <trkpt lat="45.70942" lon="6.93192">
        <ele>1664</ele>
        <time>2022-07-16T13:54:21.851Z</time>
      </trkpt>
      <trkpt lat="45.70935" lon="6.93218">
        <ele>1665</ele>
        <time>2022-07-16T13:54:26.418Z</time>
      </trkpt>
      <trkpt lat="45.70902" lon="6.93284">
        <ele>1670</ele>
        <time>2022-07-16T13:54:44.001Z</time>
      </trkpt>
      <trkpt lat="45.70893" lon="6.93295">
        <ele>1672</ele>
        <time>2022-07-16T13:54:50.070Z</time>
      </trkpt>
      <trkpt lat="45.70868" lon="6.93317">
        <ele>1678</ele>
        <time>2022-07-16T13:55:05.122Z</time>
      </trkpt>
      <trkpt lat="45.70855" lon="6.93343">
        <ele>1682</ele>
        <time>2022-07-16T13:55:16.576Z</time>
      </trkpt>
      <trkpt lat="45.70849" lon="6.93345">
        <ele>1684</ele>
        <time>2022-07-16T13:55:19.736Z</time>
      </trkpt>
      <trkpt lat="45.70843" lon="6.93339">
        <ele>1686</ele>
        <time>2022-07-16T13:55:23.490Z</time>
      </trkpt>
      <trkpt lat="45.70843" lon="6.93325">
        <ele>1687</ele>
        <time>2022-07-16T13:55:26.948Z</time>
      </trkpt>
      <trkpt lat="45.70873" lon="6.9327">
        <ele>1680</ele>
        <time>2022-07-16T13:55:30.626Z</time>
      </trkpt>
      <trkpt lat="45.70889" lon="6.93191">
        <ele>1682</ele>
        <time>2022-07-16T13:55:41.842Z</time>
      </trkpt>
      <trkpt lat="45.7089" lon="6.93125">
        <ele>1688</ele>
        <time>2022-07-16T13:56:04.418Z</time>
      </trkpt>
      <trkpt lat="45.70897" lon="6.93078">
        <ele>1690</ele>
        <time>2022-07-16T13:56:12.745Z</time>
      </trkpt>
      <trkpt lat="45.70898" lon="6.93053">
        <ele>1690</ele>
        <time>2022-07-16T13:56:15.071Z</time>
      </trkpt>
      <trkpt lat="45.70892" lon="6.92945">
        <ele>1695</ele>
        <time>2022-07-16T13:56:34.736Z</time>
      </trkpt>
      <trkpt lat="45.70889" lon="6.9293">
        <ele>1697</ele>
        <time>2022-07-16T13:56:40.325Z</time>
      </trkpt>
      <trkpt lat="45.70885" lon="6.92927">
        <ele>1698</ele>
        <time>2022-07-16T13:56:42.642Z</time>
      </trkpt>
      <trkpt lat="45.70878" lon="6.92926">
        <ele>1700</ele>
        <time>2022-07-16T13:56:46.250Z</time>
      </trkpt>
      <trkpt lat="45.70876" lon="6.92931">
        <ele>1701</ele>
        <time>2022-07-16T13:56:48.314Z</time>
      </trkpt>
      <trkpt lat="45.70877" lon="6.92986">
        <ele>1700</ele>
        <time>2022-07-16T13:56:52.153Z</time>
      </trkpt>
      <trkpt lat="45.70874" lon="6.93009">
        <ele>1700</ele>
        <time>2022-07-16T13:56:54.326Z</time>
      </trkpt>
      <trkpt lat="45.70855" lon="6.93042">
        <ele>1704</ele>
        <time>2022-07-16T13:57:09.646Z</time>
      </trkpt>
      <trkpt lat="45.70784" lon="6.93146">
        <ele>1725</ele>
        <time>2022-07-16T13:58:01.743Z</time>
      </trkpt>
      <trkpt lat="45.70777" lon="6.93216">
        <ele>1722</ele>
        <time>2022-07-16T13:58:05.318Z</time>
      </trkpt>
      <trkpt lat="45.70768" lon="6.93383">
        <ele>1724</ele>
        <time>2022-07-16T13:58:23.762Z</time>
      </trkpt>
      <trkpt lat="45.70766" lon="6.93388">
        <ele>1725</ele>
        <time>2022-07-16T13:58:25.826Z</time>
      </trkpt>
      <trkpt lat="45.7076" lon="6.93389">
        <ele>1728</ele>
        <time>2022-07-16T13:58:28.924Z</time>
      </trkpt>
      <trkpt lat="45.70759" lon="6.93385">
        <ele>1728</ele>
        <time>2022-07-16T13:58:29.319Z</time>
      </trkpt>
      <trkpt lat="45.70744" lon="6.93119">
        <ele>1746</ele>
        <time>2022-07-16T13:59:31.693Z</time>
      </trkpt>
      <trkpt lat="45.70749" lon="6.93045">
        <ele>1750</ele>
        <time>2022-07-16T13:59:46.366Z</time>
      </trkpt>
      <trkpt lat="45.70756" lon="6.92999">
        <ele>1750</ele>
        <time>2022-07-16T13:59:50.738Z</time>
      </trkpt>
      <trkpt lat="45.70761" lon="6.92943">
        <ele>1752</ele>
        <time>2022-07-16T13:59:59.950Z</time>
      </trkpt>
      <trkpt lat="45.70763" lon="6.92868">
        <ele>1755</ele>
        <time>2022-07-16T14:00:12.744Z</time>
      </trkpt>
      <trkpt lat="45.70759" lon="6.9276">
        <ele>1767</ele>
        <time>2022-07-16T14:00:51.485Z</time>
      </trkpt>
      <trkpt lat="45.7076" lon="6.9269">
        <ele>1771</ele>
        <time>2022-07-16T14:01:05.848Z</time>
      </trkpt>
      <trkpt lat="45.70756" lon="6.92644">
        <ele>1774</ele>
        <time>2022-07-16T14:01:16.297Z</time>
      </trkpt>
      <trkpt lat="45.70728" lon="6.92592">
        <ele>1783</ele>
        <time>2022-07-16T14:01:39.818Z</time>
      </trkpt>
      <trkpt lat="45.70727" lon="6.92585">
        <ele>1784</ele>
        <time>2022-07-16T14:01:42.377Z</time>
      </trkpt>
      <trkpt lat="45.70733" lon="6.92573">
        <ele>1781</ele>
        <time>2022-07-16T14:01:43.155Z</time>
      </trkpt>
      <trkpt lat="45.70758" lon="6.92561">
        <ele>1771</ele>
        <time>2022-07-16T14:01:45.145Z</time>
      </trkpt>
      <trkpt lat="45.70763" lon="6.92552">
        <ele>1769</ele>
        <time>2022-07-16T14:01:45.751Z</time>
      </trkpt>
      <trkpt lat="45.70763" lon="6.92539">
        <ele>1769</ele>
        <time>2022-07-16T14:01:46.958Z</time>
      </trkpt>
      <trkpt lat="45.70743" lon="6.92441">
        <ele>1775</ele>
        <time>2022-07-16T14:02:08.317Z</time>
      </trkpt>
      <trkpt lat="45.70723" lon="6.92364">
        <ele>1790</ele>
        <time>2022-07-16T14:02:37.745Z</time>
      </trkpt>
      <trkpt lat="45.70722" lon="6.92349">
        <ele>1792</ele>
        <time>2022-07-16T14:02:43.143Z</time>
      </trkpt>
      <trkpt lat="45.70724" lon="6.92314">
        <ele>1798</ele>
        <time>2022-07-16T14:02:55.722Z</time>
      </trkpt>
      <trkpt lat="45.70737" lon="6.92291">
        <ele>1799</ele>
        <time>2022-07-16T14:03:00.477Z</time>
      </trkpt>
      <trkpt lat="45.70741" lon="6.92287">
        <ele>1798</ele>
        <time>2022-07-16T14:03:00.845Z</time>
      </trkpt>
      <trkpt lat="45.70748" lon="6.92289">
        <ele>1795</ele>
        <time>2022-07-16T14:03:01.384Z</time>
      </trkpt>
      <trkpt lat="45.70766" lon="6.92309">
        <ele>1784</ele>
        <time>2022-07-16T14:03:03.103Z</time>
      </trkpt>
      <trkpt lat="45.70771" lon="6.92308">
        <ele>1782</ele>
        <time>2022-07-16T14:03:03.484Z</time>
      </trkpt>
      <trkpt lat="45.70776" lon="6.92303">
        <ele>1781</ele>
        <time>2022-07-16T14:03:03.945Z</time>
      </trkpt>
      <trkpt lat="45.70777" lon="6.92292">
        <ele>1783</ele>
        <time>2022-07-16T14:03:07.918Z</time>
      </trkpt>
      <trkpt lat="45.70758" lon="6.92197">
        <ele>1802</ele>
        <time>2022-07-16T14:03:43.316Z</time>
      </trkpt>
      <trkpt lat="45.70743" lon="6.92105">
        <ele>1804</ele>
        <time>2022-07-16T14:03:55.462Z</time>
      </trkpt>
      <trkpt lat="45.70736" lon="6.92096">
        <ele>1805</ele>
        <time>2022-07-16T14:03:58.928Z</time>
      </trkpt>
      <trkpt lat="45.70723" lon="6.9209">
        <ele>1808</ele>
        <time>2022-07-16T14:04:05.934Z</time>
      </trkpt>
      <trkpt lat="45.70684" lon="6.92089">
        <ele>1817</ele>
        <time>2022-07-16T14:04:25.942Z</time>
      </trkpt>
      <trkpt lat="45.70677" lon="6.92082">
        <ele>1819</ele>
        <time>2022-07-16T14:04:30.322Z</time>
      </trkpt>
      <trkpt lat="45.70673" lon="6.92073">
        <ele>1821</ele>
        <time>2022-07-16T14:04:34.143Z</time>
      </trkpt>
      <trkpt lat="45.70673" lon="6.92064">
        <ele>1823</ele>
        <time>2022-07-16T14:04:37.367Z</time>
      </trkpt>
      <trkpt lat="45.70674" lon="6.92059">
        <ele>1823</ele>
        <time>2022-07-16T14:04:37.850Z</time>
      </trkpt>
      <trkpt lat="45.70681" lon="6.9205">
        <ele>1823</ele>
        <time>2022-07-16T14:04:39.101Z</time>
      </trkpt>
      <trkpt lat="45.70694" lon="6.92046">
        <ele>1820</ele>
        <time>2022-07-16T14:04:40.105Z</time>
      </trkpt>
      <trkpt lat="45.70708" lon="6.92046">
        <ele>1817</ele>
        <time>2022-07-16T14:04:41.162Z</time>
      </trkpt>
      <trkpt lat="45.70723" lon="6.92041">
        <ele>1813</ele>
        <time>2022-07-16T14:04:42.324Z</time>
      </trkpt>
      <trkpt lat="45.70735" lon="6.92021">
        <ele>1813</ele>
        <time>2022-07-16T14:04:44.773Z</time>
      </trkpt>
      <trkpt lat="45.70736" lon="6.91955">
        <ele>1822</ele>
        <time>2022-07-16T14:05:08.420Z</time>
      </trkpt>
      <trkpt lat="45.7074" lon="6.91894">
        <ele>1827</ele>
        <time>2022-07-16T14:05:26.126Z</time>
      </trkpt>
      <trkpt lat="45.70739" lon="6.9183">
        <ele>1833</ele>
        <time>2022-07-16T14:05:49.057Z</time>
      </trkpt>
      <trkpt lat="45.70741" lon="6.91823">
        <ele>1833</ele>
        <time>2022-07-16T14:05:49.759Z</time>
      </trkpt>
      <trkpt lat="45.70743" lon="6.91821">
        <ele>1833</ele>
        <time>2022-07-16T14:05:50.083Z</time>
      </trkpt>
      <trkpt lat="45.70756" lon="6.9182">
        <ele>1830</ele>
        <time>2022-07-16T14:05:51.066Z</time>
      </trkpt>
      <trkpt lat="45.70779" lon="6.91826">
        <ele>1828</ele>
        <time>2022-07-16T14:05:52.830Z</time>
      </trkpt>
      <trkpt lat="45.70784" lon="6.91825">
        <ele>1828</ele>
        <time>2022-07-16T14:05:53.502Z</time>
      </trkpt>
      <trkpt lat="45.70791" lon="6.91822">
        <ele>1828</ele>
        <time>2022-07-16T14:05:54.474Z</time>
      </trkpt>
      <trkpt lat="45.70808" lon="6.91803">
        <ele>1829</ele>
        <time>2022-07-16T14:05:59.372Z</time>
      </trkpt>
      <trkpt lat="45.70818" lon="6.91796">
        <ele>1829</ele>
        <time>2022-07-16T14:06:00.852Z</time>
      </trkpt>
      <trkpt lat="45.7083" lon="6.91795">
        <ele>1828</ele>
        <time>2022-07-16T14:06:01.759Z</time>
      </trkpt>
      <trkpt lat="45.70854" lon="6.91799">
        <ele>1827</ele>
        <time>2022-07-16T14:06:03.826Z</time>
      </trkpt>
      <trkpt lat="45.7086" lon="6.91798">
        <ele>1827</ele>
        <time>2022-07-16T14:06:04.629Z</time>
      </trkpt>
      <trkpt lat="45.70874" lon="6.91789">
        <ele>1828</ele>
        <time>2022-07-16T14:06:08.591Z</time>
      </trkpt>
      <trkpt lat="45.70903" lon="6.91756">
        <ele>1831</ele>
        <time>2022-07-16T14:06:19.399Z</time>
      </trkpt>
      <trkpt lat="45.70913" lon="6.91739">
        <ele>1832</ele>
        <time>2022-07-16T14:06:23.385Z</time>
      </trkpt>
      <trkpt lat="45.70921" lon="6.91688">
        <ele>1833</ele>
        <time>2022-07-16T14:06:29.866Z</time>
      </trkpt>
      <trkpt lat="45.7091" lon="6.91568">
        <ele>1842</ele>
        <time>2022-07-16T14:07:01.067Z</time>
      </trkpt>
      <trkpt lat="45.7091" lon="6.91546">
        <ele>1843</ele>
        <time>2022-07-16T14:07:05.031Z</time>
      </trkpt>
      <trkpt lat="45.70923" lon="6.91422">
        <ele>1848</ele>
        <time>2022-07-16T14:07:26.386Z</time>
      </trkpt>
      <trkpt lat="45.70926" lon="6.91407">
        <ele>1848</ele>
        <time>2022-07-16T14:07:27.835Z</time>
      </trkpt>
      <trkpt lat="45.70932" lon="6.91399">
        <ele>1848</ele>
        <time>2022-07-16T14:07:28.925Z</time>
      </trkpt>
      <trkpt lat="45.70963" lon="6.91392">
        <ele>1844</ele>
        <time>2022-07-16T14:07:31.294Z</time>
      </trkpt>
      <trkpt lat="45.70974" lon="6.91377">
        <ele>1843</ele>
        <time>2022-07-16T14:07:32.351Z</time>
      </trkpt>
      <trkpt lat="45.7099" lon="6.91311">
        <ele>1847</ele>
        <time>2022-07-16T14:07:46.704Z</time>
      </trkpt>
      <trkpt lat="45.71005" lon="6.91277">
        <ele>1848</ele>
        <time>2022-07-16T14:07:52.246Z</time>
      </trkpt>
      <trkpt lat="45.71008" lon="6.91262">
        <ele>1848</ele>
        <time>2022-07-16T14:07:53.695Z</time>
      </trkpt>
      <trkpt lat="45.71003" lon="6.91242">
        <ele>1851</ele>
        <time>2022-07-16T14:08:01.304Z</time>
      </trkpt>
      <trkpt lat="45.70962" lon="6.91148">
        <ele>1863</ele>
        <time>2022-07-16T14:08:41.002Z</time>
      </trkpt>
      <trkpt lat="45.70959" lon="6.9113">
        <ele>1864</ele>
        <time>2022-07-16T14:08:44.664Z</time>
      </trkpt>
      <trkpt lat="45.70969" lon="6.90956">
        <ele>1860</ele>
        <time>2022-07-16T14:08:56.004Z</time>
      </trkpt>
      <trkpt lat="45.70968" lon="6.90941">
        <ele>1860</ele>
        <time>2022-07-16T14:08:57.403Z</time>
      </trkpt>
      <trkpt lat="45.70963" lon="6.90927">
        <ele>1861</ele>
        <time>2022-07-16T14:09:00.896Z</time>
      </trkpt>
      <trkpt lat="45.70956" lon="6.9092">
        <ele>1862</ele>
        <time>2022-07-16T14:09:04.441Z</time>
      </trkpt>
      <trkpt lat="45.70946" lon="6.90921">
        <ele>1863</ele>
        <time>2022-07-16T14:09:07.899Z</time>
      </trkpt>
      <trkpt lat="45.7094" lon="6.90927">
        <ele>1865</ele>
        <time>2022-07-16T14:09:11.653Z</time>
      </trkpt>
      <trkpt lat="45.70939" lon="6.90943">
        <ele>1866</ele>
        <time>2022-07-16T14:09:15.161Z</time>
      </trkpt>
      <trkpt lat="45.70942" lon="6.90978">
        <ele>1867</ele>
        <time>2022-07-16T14:09:20.375Z</time>
      </trkpt>
      <trkpt lat="45.7093" lon="6.91134">
        <ele>1873</ele>
        <time>2022-07-16T14:09:46.678Z</time>
      </trkpt>
      <trkpt lat="45.70924" lon="6.91155">
        <ele>1874</ele>
        <time>2022-07-16T14:09:50.709Z</time>
      </trkpt>
      <trkpt lat="45.70854" lon="6.91238">
        <ele>1885</ele>
        <time>2022-07-16T14:10:30.243Z</time>
      </trkpt>
      <trkpt lat="45.7083" lon="6.91303">
        <ele>1880</ele>
        <time>2022-07-16T14:10:34.118Z</time>
      </trkpt>
      <trkpt lat="45.70821" lon="6.91316">
        <ele>1881</ele>
        <time>2022-07-16T14:10:37.765Z</time>
      </trkpt>
      <trkpt lat="45.708" lon="6.91339">
        <ele>1885</ele>
        <time>2022-07-16T14:10:51.326Z</time>
      </trkpt>
      <trkpt lat="45.70768" lon="6.91354">
        <ele>1893</ele>
        <time>2022-07-16T14:11:08.598Z</time>
      </trkpt>
      <trkpt lat="45.70758" lon="6.91363">
        <ele>1895</ele>
        <time>2022-07-16T14:11:14.656Z</time>
      </trkpt>
      <trkpt lat="45.70739" lon="6.9139">
        <ele>1896</ele>
        <time>2022-07-16T14:11:20.068Z</time>
      </trkpt>
      <trkpt lat="45.70726" lon="6.91415">
        <ele>1896</ele>
        <time>2022-07-16T14:11:22.962Z</time>
      </trkpt>
      <trkpt lat="45.70716" lon="6.91481">
        <ele>1892</ele>
        <time>2022-07-16T14:11:26.522Z</time>
      </trkpt>
      <trkpt lat="45.70708" lon="6.91494">
        <ele>1892</ele>
        <time>2022-07-16T14:11:28.131Z</time>
      </trkpt>
      <trkpt lat="45.70699" lon="6.91497">
        <ele>1894</ele>
        <time>2022-07-16T14:11:32.871Z</time>
      </trkpt>
      <trkpt lat="45.70694" lon="6.91496">
        <ele>1895</ele>
        <time>2022-07-16T14:11:35.461Z</time>
      </trkpt>
      <trkpt lat="45.70687" lon="6.91489">
        <ele>1897</ele>
        <time>2022-07-16T14:11:39.840Z</time>
      </trkpt>
      <trkpt lat="45.70685" lon="6.91471">
        <ele>1900</ele>
        <time>2022-07-16T14:11:46.369Z</time>
      </trkpt>
      <trkpt lat="45.70689" lon="6.91457">
        <ele>1901</ele>
        <time>2022-07-16T14:11:49.842Z</time>
      </trkpt>
      <trkpt lat="45.70702" lon="6.91446">
        <ele>1899</ele>
        <time>2022-07-16T14:11:50.981Z</time>
      </trkpt>
      <trkpt lat="45.70709" lon="6.91432">
        <ele>1899</ele>
        <time>2022-07-16T14:11:52.581Z</time>
      </trkpt>
      <trkpt lat="45.70708" lon="6.91366">
        <ele>1908</ele>
        <time>2022-07-16T14:12:16.228Z</time>
      </trkpt>
      <trkpt lat="45.70713" lon="6.91339">
        <ele>1911</ele>
        <time>2022-07-16T14:12:26.234Z</time>
      </trkpt>
      <trkpt lat="45.70739" lon="6.91294">
        <ele>1916</ele>
        <time>2022-07-16T14:12:44.320Z</time>
      </trkpt>
      <trkpt lat="45.7076" lon="6.91271">
        <ele>1916</ele>
        <time>2022-07-16T14:12:47.836Z</time>
      </trkpt>
      <trkpt lat="45.70765" lon="6.91261">
        <ele>1916</ele>
        <time>2022-07-16T14:12:48.978Z</time>
      </trkpt>
      <trkpt lat="45.70806" lon="6.9116">
        <ele>1924</ele>
        <time>2022-07-16T14:13:16.669Z</time>
      </trkpt>
      <trkpt lat="45.70834" lon="6.91068">
        <ele>1927</ele>
        <time>2022-07-16T14:13:32.000Z</time>
      </trkpt>
      <trkpt lat="45.70833" lon="6.9105">
        <ele>1931</ele>
        <time>2022-07-16T14:13:38.468Z</time>
      </trkpt>
      <trkpt lat="45.70831" lon="6.91049">
        <ele>1932</ele>
        <time>2022-07-16T14:13:39.555Z</time>
      </trkpt>
      <trkpt lat="45.70826" lon="6.91052">
        <ele>1935</ele>
        <time>2022-07-16T14:13:42.335Z</time>
      </trkpt>
      <trkpt lat="45.70797" lon="6.91135">
        <ele>1935</ele>
        <time>2022-07-16T14:13:50.954Z</time>
      </trkpt>
      <trkpt lat="45.70757" lon="6.91207">
        <ele>1935</ele>
        <time>2022-07-16T14:13:59.499Z</time>
      </trkpt>
      <trkpt lat="45.70749" lon="6.91214">
        <ele>1937</ele>
        <time>2022-07-16T14:14:04.308Z</time>
      </trkpt>
      <trkpt lat="45.70709" lon="6.91227">
        <ele>1945</ele>
        <time>2022-07-16T14:14:25.347Z</time>
      </trkpt>
      <trkpt lat="45.70699" lon="6.91234">
        <ele>1945</ele>
        <time>2022-07-16T14:14:26.828Z</time>
      </trkpt>
      <trkpt lat="45.70677" lon="6.91266">
        <ele>1941</ele>
        <time>2022-07-16T14:14:29.195Z</time>
      </trkpt>
      <trkpt lat="45.70667" lon="6.91269">
        <ele>1942</ele>
        <time>2022-07-16T14:14:32.656Z</time>
      </trkpt>
      <trkpt lat="45.70654" lon="6.91269">
        <ele>1943</ele>
        <time>2022-07-16T14:14:36.327Z</time>
      </trkpt>
      <trkpt lat="45.70649" lon="6.91271">
        <ele>1943</ele>
        <time>2022-07-16T14:14:37.017Z</time>
      </trkpt>
      <trkpt lat="45.70631" lon="6.91287">
        <ele>1939</ele>
        <time>2022-07-16T14:14:38.616Z</time>
      </trkpt>
      <trkpt lat="45.70619" lon="6.91288">
        <ele>1939</ele>
        <time>2022-07-16T14:14:40.215Z</time>
      </trkpt>
      <trkpt lat="45.70605" lon="6.91277">
        <ele>1943</ele>
        <time>2022-07-16T14:14:48.406Z</time>
      </trkpt>
      <trkpt lat="45.7057" lon="6.9124">
        <ele>1955</ele>
        <time>2022-07-16T14:15:10.722Z</time>
      </trkpt>
      <trkpt lat="45.7054" lon="6.91178">
        <ele>1965</ele>
        <time>2022-07-16T14:15:37.741Z</time>
      </trkpt>
      <trkpt lat="45.70523" lon="6.91159">
        <ele>1966</ele>
        <time>2022-07-16T14:15:42.639Z</time>
      </trkpt>
      <trkpt lat="45.70511" lon="6.91153">
        <ele>1966</ele>
        <time>2022-07-16T14:15:44.330Z</time>
      </trkpt>
      <trkpt lat="45.705" lon="6.91152">
        <ele>1964</ele>
        <time>2022-07-16T14:15:45.162Z</time>
      </trkpt>
      <trkpt lat="45.70494" lon="6.91155">
        <ele>1962</ele>
        <time>2022-07-16T14:15:45.641Z</time>
      </trkpt>
      <trkpt lat="45.70478" lon="6.91176">
        <ele>1956</ele>
        <time>2022-07-16T14:15:47.279Z</time>
      </trkpt>
      <trkpt lat="45.70469" lon="6.91176">
        <ele>1955</ele>
        <time>2022-07-16T14:15:47.959Z</time>
      </trkpt>
      <trkpt lat="45.70461" lon="6.91169">
        <ele>1956</ele>
        <time>2022-07-16T14:15:51.426Z</time>
      </trkpt>
      <trkpt lat="45.7043" lon="6.91111">
        <ele>1966</ele>
        <time>2022-07-16T14:16:17.590Z</time>
      </trkpt>
      <trkpt lat="45.70393" lon="6.91012">
        <ele>1981</ele>
        <time>2022-07-16T14:16:57.813Z</time>
      </trkpt>
      <trkpt lat="45.7034" lon="6.90903">
        <ele>1992</ele>
        <time>2022-07-16T14:17:36.988Z</time>
      </trkpt>
      <trkpt lat="45.70281" lon="6.90769">
        <ele>2000</ele>
        <time>2022-07-16T14:18:07.118Z</time>
      </trkpt>
      <trkpt lat="45.70206" lon="6.90665">
        <ele>2004</ele>
        <time>2022-07-16T14:18:28.510Z</time>
      </trkpt>
      <trkpt lat="45.70193" lon="6.90634">
        <ele>2004</ele>
        <time>2022-07-16T14:18:31.868Z</time>
      </trkpt>
      <trkpt lat="45.7019" lon="6.90631">
        <ele>2004</ele>
        <time>2022-07-16T14:18:32.355Z</time>
      </trkpt>
      <trkpt lat="45.7018" lon="6.90631">
        <ele>2002</ele>
        <time>2022-07-16T14:18:33.109Z</time>
      </trkpt>
      <trkpt lat="45.7016" lon="6.9065">
        <ele>2000</ele>
        <time>2022-07-16T14:18:34.921Z</time>
      </trkpt>
      <trkpt lat="45.70154" lon="6.90653">
        <ele>2000</ele>
        <time>2022-07-16T14:18:35.766Z</time>
      </trkpt>
      <trkpt lat="45.7011" lon="6.90641">
        <ele>2008</ele>
        <time>2022-07-16T14:18:58.742Z</time>
      </trkpt>
      <trkpt lat="45.70103" lon="6.90642">
        <ele>2009</ele>
        <time>2022-07-16T14:19:02.350Z</time>
      </trkpt>
      <trkpt lat="45.70095" lon="6.90652">
        <ele>2009</ele>
        <time>2022-07-16T14:19:03.762Z</time>
      </trkpt>
      <trkpt lat="45.70079" lon="6.90696">
        <ele>2002</ele>
        <time>2022-07-16T14:19:06.377Z</time>
      </trkpt>
      <trkpt lat="45.70073" lon="6.90706">
        <ele>2001</ele>
        <time>2022-07-16T14:19:07.072Z</time>
      </trkpt>
      <trkpt lat="45.70062" lon="6.90705">
        <ele>2001</ele>
        <time>2022-07-16T14:19:08.538Z</time>
      </trkpt>
      <trkpt lat="45.70053" lon="6.90696">
        <ele>2003</ele>
        <time>2022-07-16T14:19:14.169Z</time>
      </trkpt>
      <trkpt lat="45.70011" lon="6.90639">
        <ele>2014</ele>
        <time>2022-07-16T14:19:43.853Z</time>
      </trkpt>
      <trkpt lat="45.69981" lon="6.90584">
        <ele>2022</ele>
        <time>2022-07-16T14:20:08.854Z</time>
      </trkpt>
      <trkpt lat="45.69973" lon="6.90567">
        <ele>2023</ele>
        <time>2022-07-16T14:20:12.680Z</time>
      </trkpt>
      <trkpt lat="45.69932" lon="6.90443">
        <ele>2027</ele>
        <time>2022-07-16T14:20:33.312Z</time>
      </trkpt>
      <trkpt lat="45.6991" lon="6.90413">
        <ele>2026</ele>
        <time>2022-07-16T14:20:36.135Z</time>
      </trkpt>
      <trkpt lat="45.69878" lon="6.90346">
        <ele>2034</ele>
        <time>2022-07-16T14:21:05.214Z</time>
      </trkpt>
      <trkpt lat="45.69852" lon="6.90319">
        <ele>2034</ele>
        <time>2022-07-16T14:21:09.485Z</time>
      </trkpt>
      <trkpt lat="45.69842" lon="6.90302">
        <ele>2035</ele>
        <time>2022-07-16T14:21:13.472Z</time>
      </trkpt>
      <trkpt lat="45.69829" lon="6.90265">
        <ele>2041</ele>
        <time>2022-07-16T14:21:28.310Z</time>
      </trkpt>
      <trkpt lat="45.69822" lon="6.90231">
        <ele>2043</ele>
        <time>2022-07-16T14:21:35.522Z</time>
      </trkpt>
      <trkpt lat="45.69817" lon="6.90223">
        <ele>2043</ele>
        <time>2022-07-16T14:21:36.519Z</time>
      </trkpt>
      <trkpt lat="45.69748" lon="6.9015">
        <ele>2048</ele>
        <time>2022-07-16T14:21:57.613Z</time>
      </trkpt>
      <trkpt lat="45.69635" lon="6.8996">
        <ele>2045</ele>
        <time>2022-07-16T14:22:16.891Z</time>
      </trkpt>
      <trkpt lat="45.69622" lon="6.89943">
        <ele>2048</ele>
        <time>2022-07-16T14:22:25.922Z</time>
      </trkpt>
      <trkpt lat="45.69592" lon="6.89912">
        <ele>2057</ele>
        <time>2022-07-16T14:22:44.900Z</time>
      </trkpt>
      <trkpt lat="45.69546" lon="6.89882">
        <ele>2058</ele>
        <time>2022-07-16T14:22:53.110Z</time>
      </trkpt>
      <trkpt lat="45.69529" lon="6.89868">
        <ele>2059</ele>
        <time>2022-07-16T14:22:57.700Z</time>
      </trkpt>
      <trkpt lat="45.69518" lon="6.89853">
        <ele>2059</ele>
        <time>2022-07-16T14:22:59.720Z</time>
      </trkpt>
      <trkpt lat="45.69498" lon="6.89801">
        <ele>2058</ele>
        <time>2022-07-16T14:23:03.952Z</time>
      </trkpt>
      <trkpt lat="45.69469" lon="6.89689">
        <ele>2060</ele>
        <time>2022-07-16T14:23:18.169Z</time>
      </trkpt>
      <trkpt lat="45.69437" lon="6.89629">
        <ele>2065</ele>
        <time>2022-07-16T14:23:35.529Z</time>
      </trkpt>
      <trkpt lat="45.69394" lon="6.89512">
        <ele>2070</ele>
        <time>2022-07-16T14:23:57.602Z</time>
      </trkpt>
      <trkpt lat="45.6939" lon="6.89419">
        <ele>2069</ele>
        <time>2022-07-16T14:24:04.965Z</time>
      </trkpt>
      <trkpt lat="45.69348" lon="6.89315">
        <ele>2072</ele>
        <time>2022-07-16T14:24:21.558Z</time>
      </trkpt>
      <trkpt lat="45.69345" lon="6.8929">
        <ele>2073</ele>
        <time>2022-07-16T14:24:25.860Z</time>
      </trkpt>
      <trkpt lat="45.69347" lon="6.8924">
        <ele>2074</ele>
        <time>2022-07-16T14:24:32.162Z</time>
      </trkpt>
      <trkpt lat="45.69345" lon="6.89185">
        <ele>2077</ele>
        <time>2022-07-16T14:24:43.116Z</time>
      </trkpt>
      <trkpt lat="45.69341" lon="6.89179">
        <ele>2078</ele>
        <time>2022-07-16T14:24:46.088Z</time>
      </trkpt>
      <trkpt lat="45.69321" lon="6.89162">
        <ele>2081</ele>
        <time>2022-07-16T14:24:57.297Z</time>
      </trkpt>
      <trkpt lat="45.69307" lon="6.89124">
        <ele>2088</ele>
        <time>2022-07-16T14:25:12.690Z</time>
      </trkpt>
      <trkpt lat="45.69291" lon="6.89092">
        <ele>2093</ele>
        <time>2022-07-16T14:25:26.790Z</time>
      </trkpt>
      <trkpt lat="45.69277" lon="6.89072">
        <ele>2095</ele>
        <time>2022-07-16T14:25:33.706Z</time>
      </trkpt>
      <trkpt lat="45.69255" lon="6.89048">
        <ele>2097</ele>
        <time>2022-07-16T14:25:41.238Z</time>
      </trkpt>
      <trkpt lat="45.69239" lon="6.89035">
        <ele>2099</ele>
        <time>2022-07-16T14:25:48.191Z</time>
      </trkpt>
      <trkpt lat="45.692" lon="6.89012">
        <ele>2101</ele>
        <time>2022-07-16T14:25:57.836Z</time>
      </trkpt>
      <trkpt lat="45.69181" lon="6.89005">
        <ele>2101</ele>
        <time>2022-07-16T14:26:00.445Z</time>
      </trkpt>
      <trkpt lat="45.69165" lon="6.89007">
        <ele>2101</ele>
        <time>2022-07-16T14:26:02.581Z</time>
      </trkpt>
      <trkpt lat="45.6916" lon="6.89012">
        <ele>2102</ele>
        <time>2022-07-16T14:26:05.709Z</time>
      </trkpt>
      <trkpt lat="45.69159" lon="6.89017">
        <ele>2103</ele>
        <time>2022-07-16T14:26:07.573Z</time>
      </trkpt>
      <trkpt lat="45.69163" lon="6.89066">
        <ele>2103</ele>
        <time>2022-07-16T14:26:12.156Z</time>
      </trkpt>
      <trkpt lat="45.69158" lon="6.89067">
        <ele>2104</ele>
        <time>2022-07-16T14:26:14.745Z</time>
      </trkpt>
      <trkpt lat="45.69132" lon="6.89014">
        <ele>2107</ele>
        <time>2022-07-16T14:26:26.524Z</time>
      </trkpt>
      <trkpt lat="45.69108" lon="6.88935">
        <ele>2107</ele>
        <time>2022-07-16T14:26:34.527Z</time>
      </trkpt>
      <trkpt lat="45.69093" lon="6.88915">
        <ele>2107</ele>
        <time>2022-07-16T14:26:37.253Z</time>
      </trkpt>
      <trkpt lat="45.69095" lon="6.88918">
        <ele>2107</ele>
        <time>2022-07-16T14:26:37.638Z</time>
      </trkpt>
      <trkpt lat="45.6909" lon="6.88914">
        <ele>2107</ele>
        <time>2022-07-16T14:26:38.400Z</time>
      </trkpt>
      <trkpt lat="45.69082" lon="6.88913">
        <ele>2108</ele>
        <time>2022-07-16T14:26:42.049Z</time>
      </trkpt>
      <trkpt lat="45.69078" lon="6.8892">
        <ele>2110</ele>
        <time>2022-07-16T14:26:45.290Z</time>
      </trkpt>
      <trkpt lat="45.69079" lon="6.88965">
        <ele>2112</ele>
        <time>2022-07-16T14:26:53.318Z</time>
      </trkpt>
      <trkpt lat="45.6909" lon="6.89034">
        <ele>2115</ele>
        <time>2022-07-16T14:27:05.679Z</time>
      </trkpt>
      <trkpt lat="45.69114" lon="6.89118">
        <ele>2115</ele>
        <time>2022-07-16T14:27:14.110Z</time>
      </trkpt>
      <trkpt lat="45.69115" lon="6.89133">
        <ele>2115</ele>
        <time>2022-07-16T14:27:15.510Z</time>
      </trkpt>
      <trkpt lat="45.6911" lon="6.89145">
        <ele>2117</ele>
        <time>2022-07-16T14:27:20.516Z</time>
      </trkpt>
      <trkpt lat="45.69104" lon="6.89151">
        <ele>2119</ele>
        <time>2022-07-16T14:27:24.270Z</time>
      </trkpt>
      <trkpt lat="45.69094" lon="6.89153">
        <ele>2121</ele>
        <time>2022-07-16T14:27:29.450Z</time>
      </trkpt>
      <trkpt lat="45.69083" lon="6.89151">
        <ele>2124</ele>
        <time>2022-07-16T14:27:35.137Z</time>
      </trkpt>
      <trkpt lat="45.69041" lon="6.89118">
        <ele>2132</ele>
        <time>2022-07-16T14:27:59.713Z</time>
      </trkpt>
      <trkpt lat="45.69034" lon="6.89106">
        <ele>2133</ele>
        <time>2022-07-16T14:28:03.203Z</time>
      </trkpt>
      <trkpt lat="45.69031" lon="6.8909">
        <ele>2133</ele>
        <time>2022-07-16T14:28:04.742Z</time>
      </trkpt>
      <trkpt lat="45.69028" lon="6.89011">
        <ele>2131</ele>
        <time>2022-07-16T14:28:09.711Z</time>
      </trkpt>
      <trkpt lat="45.69024" lon="6.88992">
        <ele>2131</ele>
        <time>2022-07-16T14:28:11.554Z</time>
      </trkpt>
      <trkpt lat="45.69015" lon="6.88973">
        <ele>2132</ele>
        <time>2022-07-16T14:28:15.612Z</time>
      </trkpt>
      <trkpt lat="45.69006" lon="6.88963">
        <ele>2134</ele>
        <time>2022-07-16T14:28:21.456Z</time>
      </trkpt>
      <trkpt lat="45.68858" lon="6.88876">
        <ele>2143</ele>
        <time>2022-07-16T14:29:00.249Z</time>
      </trkpt>
      <trkpt lat="45.6884" lon="6.8887">
        <ele>2144</ele>
        <time>2022-07-16T14:29:04.665Z</time>
      </trkpt>
      <trkpt lat="45.68814" lon="6.88864">
        <ele>2146</ele>
        <time>2022-07-16T14:29:12.043Z</time>
      </trkpt>
      <trkpt lat="45.68791" lon="6.88864">
        <ele>2148</ele>
        <time>2022-07-16T14:29:19.101Z</time>
      </trkpt>
      <trkpt lat="45.68757" lon="6.88875">
        <ele>2154</ele>
        <time>2022-07-16T14:29:36.981Z</time>
      </trkpt>
      <trkpt lat="45.68744" lon="6.88874">
        <ele>2156</ele>
        <time>2022-07-16T14:29:43.659Z</time>
      </trkpt>
      <trkpt lat="45.68715" lon="6.88863">
        <ele>2157</ele>
        <time>2022-07-16T14:29:49.402Z</time>
      </trkpt>
      <trkpt lat="45.6867" lon="6.88859">
        <ele>2163</ele>
        <time>2022-07-16T14:30:12.410Z</time>
      </trkpt>
      <trkpt lat="45.68623" lon="6.88827">
        <ele>2165</ele>
        <time>2022-07-16T14:30:23.091Z</time>
      </trkpt>
      <trkpt lat="45.68597" lon="6.88816">
        <ele>2168</ele>
        <time>2022-07-16T14:30:33.554Z</time>
      </trkpt>
      <trkpt lat="45.68573" lon="6.888">
        <ele>2169</ele>
        <time>2022-07-16T14:30:38.937Z</time>
      </trkpt>
      <trkpt lat="45.68555" lon="6.88783">
        <ele>2168</ele>
        <time>2022-07-16T14:30:40.699Z</time>
      </trkpt>
      <trkpt lat="45.68491" lon="6.88757">
        <ele>2174</ele>
        <time>2022-07-16T14:31:01.699Z</time>
      </trkpt>
      <trkpt lat="45.68001" lon="6.88361">
        <ele>2192</ele>
        <time>2022-07-16T14:32:47.545Z</time>
      </trkpt>
      <trkpt lat="45.67966" lon="6.88331">
        <ele>2191</ele>
        <time>2022-07-16T14:32:51.690Z</time>
      </trkpt>
      <trkpt lat="45.67953" lon="6.88309">
        <ele>2190</ele>
        <time>2022-07-16T14:32:53.288Z</time>
      </trkpt>
      <trkpt lat="45.67929" lon="6.88297">
        <ele>2189</ele>
        <time>2022-07-16T14:32:55.505Z</time>
      </trkpt>
      <trkpt lat="45.67894" lon="6.8827">
        <ele>2188</ele>
        <time>2022-07-16T14:32:59.516Z</time>
      </trkpt>
      <trkpt lat="45.67673" lon="6.88159">
        <ele>2174</ele>
        <time>2022-07-16T14:33:16.603Z</time>
      </trkpt>
      <trkpt lat="45.67657" lon="6.88144">
        <ele>2174</ele>
        <time>2022-07-16T14:33:19.146Z</time>
      </trkpt>
      <trkpt lat="45.67173" lon="6.87603">
        <ele>2151</ele>
        <time>2022-07-16T14:34:13.686Z</time>
      </trkpt>
      <trkpt lat="45.66957" lon="6.87358">
        <ele>2128</ele>
        <time>2022-07-16T14:34:34.489Z</time>
      </trkpt>
      <trkpt lat="45.66946" lon="6.87343">
        <ele>2127</ele>
        <time>2022-07-16T14:34:35.546Z</time>
      </trkpt>
      <trkpt lat="45.66943" lon="6.87325">
        <ele>2126</ele>
        <time>2022-07-16T14:34:36.522Z</time>
      </trkpt>
      <trkpt lat="45.66949" lon="6.87318">
        <ele>2126</ele>
        <time>2022-07-16T14:34:37.552Z</time>
      </trkpt>
      <trkpt lat="45.66959" lon="6.87317">
        <ele>2126</ele>
        <time>2022-07-16T14:34:38.885Z</time>
      </trkpt>
      <trkpt lat="45.66984" lon="6.87327">
        <ele>2127</ele>
        <time>2022-07-16T14:34:44.219Z</time>
      </trkpt>
      <trkpt lat="45.67018" lon="6.8736">
        <ele>2131</ele>
        <time>2022-07-16T14:34:58.071Z</time>
      </trkpt>
      <trkpt lat="45.6704" lon="6.87373">
        <ele>2133</ele>
        <time>2022-07-16T14:35:05.194Z</time>
      </trkpt>
      <trkpt lat="45.67051" lon="6.87376">
        <ele>2133</ele>
        <time>2022-07-16T14:35:06.683Z</time>
      </trkpt>
      <trkpt lat="45.67057" lon="6.87375">
        <ele>2134</ele>
        <time>2022-07-16T14:35:09.782Z</time>
      </trkpt>
      <trkpt lat="45.67067" lon="6.87368">
        <ele>2133</ele>
        <time>2022-07-16T14:35:10.622Z</time>
      </trkpt>
      <trkpt lat="45.67069" lon="6.87362">
        <ele>2132</ele>
        <time>2022-07-16T14:35:10.973Z</time>
      </trkpt>
      <trkpt lat="45.67067" lon="6.87345">
        <ele>2130</ele>
        <time>2022-07-16T14:35:11.882Z</time>
      </trkpt>
      <trkpt lat="45.67026" lon="6.87304">
        <ele>2128</ele>
        <time>2022-07-16T14:35:16.217Z</time>
      </trkpt>
      <trkpt lat="45.67009" lon="6.87291">
        <ele>2127</ele>
        <time>2022-07-16T14:35:17.718Z</time>
      </trkpt>
      <trkpt lat="45.66974" lon="6.87277">
        <ele>2124</ele>
        <time>2022-07-16T14:35:20.461Z</time>
      </trkpt>
      <trkpt lat="45.66954" lon="6.87263">
        <ele>2122</ele>
        <time>2022-07-16T14:35:22.141Z</time>
      </trkpt>
      <trkpt lat="45.66939" lon="6.87249">
        <ele>2120</ele>
        <time>2022-07-16T14:35:23.493Z</time>
      </trkpt>
      <trkpt lat="45.66925" lon="6.87249">
        <ele>2119</ele>
        <time>2022-07-16T14:35:24.550Z</time>
      </trkpt>
      <trkpt lat="45.66889" lon="6.87273">
        <ele>2118</ele>
        <time>2022-07-16T14:35:28.555Z</time>
      </trkpt>
      <trkpt lat="45.66879" lon="6.87275">
        <ele>2117</ele>
        <time>2022-07-16T14:35:29.317Z</time>
      </trkpt>
      <trkpt lat="45.66871" lon="6.87272">
        <ele>2116</ele>
        <time>2022-07-16T14:35:29.941Z</time>
      </trkpt>
      <trkpt lat="45.66862" lon="6.87262">
        <ele>2114</ele>
        <time>2022-07-16T14:35:30.801Z</time>
      </trkpt>
      <trkpt lat="45.66849" lon="6.87239">
        <ele>2110</ele>
        <time>2022-07-16T14:35:32.362Z</time>
      </trkpt>
      <trkpt lat="45.66834" lon="6.8723">
        <ele>2107</ele>
        <time>2022-07-16T14:35:33.589Z</time>
      </trkpt>
      <trkpt lat="45.66824" lon="6.87228">
        <ele>2106</ele>
        <time>2022-07-16T14:35:34.351Z</time>
      </trkpt>
      <trkpt lat="45.66795" lon="6.87236">
        <ele>2106</ele>
        <time>2022-07-16T14:35:38.279Z</time>
      </trkpt>
      <trkpt lat="45.66774" lon="6.87237">
        <ele>2105</ele>
        <time>2022-07-16T14:35:39.977Z</time>
      </trkpt>
      <trkpt lat="45.66753" lon="6.87231">
        <ele>2103</ele>
        <time>2022-07-16T14:35:41.594Z</time>
      </trkpt>
      <trkpt lat="45.6672" lon="6.8721">
        <ele>2100</ele>
        <time>2022-07-16T14:35:44.319Z</time>
      </trkpt>
      <trkpt lat="45.66706" lon="6.87204">
        <ele>2100</ele>
        <time>2022-07-16T14:35:46.263Z</time>
      </trkpt>
      <trkpt lat="45.66642" lon="6.87189">
        <ele>2100</ele>
        <time>2022-07-16T14:35:54.888Z</time>
      </trkpt>
      <trkpt lat="45.66624" lon="6.87178">
        <ele>2098</ele>
        <time>2022-07-16T14:35:56.365Z</time>
      </trkpt>
      <trkpt lat="45.66601" lon="6.87159">
        <ele>2093</ele>
        <time>2022-07-16T14:35:58.369Z</time>
      </trkpt>
      <trkpt lat="45.66582" lon="6.87149">
        <ele>2092</ele>
        <time>2022-07-16T14:35:59.980Z</time>
      </trkpt>
      <trkpt lat="45.6657" lon="6.87144">
        <ele>2092</ele>
        <time>2022-07-16T14:36:01.642Z</time>
      </trkpt>
      <trkpt lat="45.66531" lon="6.87139">
        <ele>2094</ele>
        <time>2022-07-16T14:36:10.812Z</time>
      </trkpt>
      <trkpt lat="45.66505" lon="6.87131">
        <ele>2093</ele>
        <time>2022-07-16T14:36:13.170Z</time>
      </trkpt>
      <trkpt lat="45.6649" lon="6.87119">
        <ele>2091</ele>
        <time>2022-07-16T14:36:14.467Z</time>
      </trkpt>
      <trkpt lat="45.6646" lon="6.87088">
        <ele>2083</ele>
        <time>2022-07-16T14:36:17.260Z</time>
      </trkpt>
      <trkpt lat="45.66426" lon="6.87068">
        <ele>2080</ele>
        <time>2022-07-16T14:36:20.035Z</time>
      </trkpt>
      <trkpt lat="45.66393" lon="6.87053">
        <ele>2077</ele>
        <time>2022-07-16T14:36:22.648Z</time>
      </trkpt>
      <trkpt lat="45.66356" lon="6.87048">
        <ele>2076</ele>
        <time>2022-07-16T14:36:26.326Z</time>
      </trkpt>
      <trkpt lat="45.66337" lon="6.8704">
        <ele>2074</ele>
        <time>2022-07-16T14:36:27.821Z</time>
      </trkpt>
      <trkpt lat="45.66328" lon="6.8704">
        <ele>2074</ele>
        <time>2022-07-16T14:36:29.018Z</time>
      </trkpt>
      <trkpt lat="45.663" lon="6.87049">
        <ele>2075</ele>
        <time>2022-07-16T14:36:34.624Z</time>
      </trkpt>
      <trkpt lat="45.66248" lon="6.87075">
        <ele>2077</ele>
        <time>2022-07-16T14:36:45.599Z</time>
      </trkpt>
      <trkpt lat="45.66239" lon="6.87076">
        <ele>2078</ele>
        <time>2022-07-16T14:36:49.087Z</time>
      </trkpt>
      <trkpt lat="45.66234" lon="6.87072">
        <ele>2078</ele>
        <time>2022-07-16T14:36:49.849Z</time>
      </trkpt>
      <trkpt lat="45.66229" lon="6.87057">
        <ele>2077</ele>
        <time>2022-07-16T14:36:50.726Z</time>
      </trkpt>
      <trkpt lat="45.6623" lon="6.87047">
        <ele>2075</ele>
        <time>2022-07-16T14:36:51.259Z</time>
      </trkpt>
      <trkpt lat="45.66245" lon="6.86988">
        <ele>2064</ele>
        <time>2022-07-16T14:36:54.570Z</time>
      </trkpt>
      <trkpt lat="45.66245" lon="6.86956">
        <ele>2060</ele>
        <time>2022-07-16T14:36:56.258Z</time>
      </trkpt>
      <trkpt lat="45.66236" lon="6.86928">
        <ele>2058</ele>
        <time>2022-07-16T14:36:57.884Z</time>
      </trkpt>
      <trkpt lat="45.66221" lon="6.86913">
        <ele>2059</ele>
        <time>2022-07-16T14:37:02.273Z</time>
      </trkpt>
      <trkpt lat="45.66187" lon="6.86892">
        <ele>2062</ele>
        <time>2022-07-16T14:37:13.080Z</time>
      </trkpt>
      <trkpt lat="45.66179" lon="6.86879">
        <ele>2062</ele>
        <time>2022-07-16T14:37:14.690Z</time>
      </trkpt>
      <trkpt lat="45.66162" lon="6.86832">
        <ele>2060</ele>
        <time>2022-07-16T14:37:17.517Z</time>
      </trkpt>
      <trkpt lat="45.66138" lon="6.86791">
        <ele>2056</ele>
        <time>2022-07-16T14:37:20.338Z</time>
      </trkpt>
      <trkpt lat="45.66118" lon="6.86764">
        <ele>2053</ele>
        <time>2022-07-16T14:37:22.414Z</time>
      </trkpt>
      <trkpt lat="45.66057" lon="6.86698">
        <ele>2049</ele>
        <time>2022-07-16T14:37:28.348Z</time>
      </trkpt>
      <trkpt lat="45.66002" lon="6.86614">
        <ele>2046</ele>
        <time>2022-07-16T14:37:35.503Z</time>
      </trkpt>
      <trkpt lat="45.65977" lon="6.8659">
        <ele>2049</ele>
        <time>2022-07-16T14:37:45.879Z</time>
      </trkpt>
      <trkpt lat="45.65966" lon="6.8657">
        <ele>2048</ele>
        <time>2022-07-16T14:37:47.215Z</time>
      </trkpt>
      <trkpt lat="45.65926" lon="6.86474">
        <ele>2034</ele>
        <time>2022-07-16T14:37:53.111Z</time>
      </trkpt>
      <trkpt lat="45.65909" lon="6.86439">
        <ele>2029</ele>
        <time>2022-07-16T14:37:55.359Z</time>
      </trkpt>
      <trkpt lat="45.65904" lon="6.86433">
        <ele>2028</ele>
        <time>2022-07-16T14:37:55.851Z</time>
      </trkpt>
      <trkpt lat="45.65879" lon="6.86417">
        <ele>2030</ele>
        <time>2022-07-16T14:38:03.351Z</time>
      </trkpt>
      <trkpt lat="45.65853" lon="6.86407">
        <ele>2034</ele>
        <time>2022-07-16T14:38:17.162Z</time>
      </trkpt>
      <trkpt lat="45.65838" lon="6.86398">
        <ele>2036</ele>
        <time>2022-07-16T14:38:24.408Z</time>
      </trkpt>
      <trkpt lat="45.65801" lon="6.8636">
        <ele>2034</ele>
        <time>2022-07-16T14:38:28.213Z</time>
      </trkpt>
      <trkpt lat="45.65777" lon="6.86343">
        <ele>2032</ele>
        <time>2022-07-16T14:38:30.235Z</time>
      </trkpt>
      <trkpt lat="45.65765" lon="6.8634">
        <ele>2033</ele>
        <time>2022-07-16T14:38:33.822Z</time>
      </trkpt>
      <trkpt lat="45.65752" lon="6.86333">
        <ele>2032</ele>
        <time>2022-07-16T14:38:34.870Z</time>
      </trkpt>
      <trkpt lat="45.65729" lon="6.86312">
        <ele>2033</ele>
        <time>2022-07-16T14:38:40.332Z</time>
      </trkpt>
      <trkpt lat="45.65703" lon="6.86283">
        <ele>2032</ele>
        <time>2022-07-16T14:38:43.478Z</time>
      </trkpt>
      <trkpt lat="45.65688" lon="6.86262">
        <ele>2029</ele>
        <time>2022-07-16T14:38:45.062Z</time>
      </trkpt>
      <trkpt lat="45.65676" lon="6.86231">
        <ele>2022</ele>
        <time>2022-07-16T14:38:46.931Z</time>
      </trkpt>
      <trkpt lat="45.65671" lon="6.86206">
        <ele>2017</ele>
        <time>2022-07-16T14:38:48.303Z</time>
      </trkpt>
      <trkpt lat="45.65666" lon="6.86194">
        <ele>2015</ele>
        <time>2022-07-16T14:38:49.040Z</time>
      </trkpt>
      <trkpt lat="45.65628" lon="6.86143">
        <ele>2012</ele>
        <time>2022-07-16T14:38:52.909Z</time>
      </trkpt>
      <trkpt lat="45.65622" lon="6.86137">
        <ele>2011</ele>
        <time>2022-07-16T14:38:53.462Z</time>
      </trkpt>
      <trkpt lat="45.65609" lon="6.8613">
        <ele>2012</ele>
        <time>2022-07-16T14:38:57.236Z</time>
      </trkpt>
      <trkpt lat="45.65581" lon="6.86125">
        <ele>2018</ele>
        <time>2022-07-16T14:39:11.710Z</time>
      </trkpt>
      <trkpt lat="45.65562" lon="6.86115">
        <ele>2019</ele>
        <time>2022-07-16T14:39:16.399Z</time>
      </trkpt>
      <trkpt lat="45.65545" lon="6.86099">
        <ele>2017</ele>
        <time>2022-07-16T14:39:17.934Z</time>
      </trkpt>
      <trkpt lat="45.65536" lon="6.86085">
        <ele>2014</ele>
        <time>2022-07-16T14:39:18.938Z</time>
      </trkpt>
      <trkpt lat="45.65504" lon="6.86014">
        <ele>1999</ele>
        <time>2022-07-16T14:39:23.395Z</time>
      </trkpt>
      <trkpt lat="45.6549" lon="6.8599">
        <ele>1996</ele>
        <time>2022-07-16T14:39:25.044Z</time>
      </trkpt>
      <trkpt lat="45.65475" lon="6.85973">
        <ele>1994</ele>
        <time>2022-07-16T14:39:26.488Z</time>
      </trkpt>
      <trkpt lat="45.65463" lon="6.85968">
        <ele>1996</ele>
        <time>2022-07-16T14:39:32.899Z</time>
      </trkpt>
      <trkpt lat="45.65434" lon="6.85962">
        <ele>2003</ele>
        <time>2022-07-16T14:39:47.930Z</time>
      </trkpt>
      <trkpt lat="45.65405" lon="6.85941">
        <ele>2004</ele>
        <time>2022-07-16T14:39:53.948Z</time>
      </trkpt>
      <trkpt lat="45.65356" lon="6.85865">
        <ele>1990</ele>
        <time>2022-07-16T14:39:59.403Z</time>
      </trkpt>
      <trkpt lat="45.65331" lon="6.85837">
        <ele>1987</ele>
        <time>2022-07-16T14:40:01.799Z</time>
      </trkpt>
      <trkpt lat="45.65293" lon="6.85813">
        <ele>1991</ele>
        <time>2022-07-16T14:40:15.664Z</time>
      </trkpt>
      <trkpt lat="45.6527" lon="6.85806">
        <ele>1996</ele>
        <time>2022-07-16T14:40:27.726Z</time>
      </trkpt>
      <trkpt lat="45.65247" lon="6.85795">
        <ele>1999</ele>
        <time>2022-07-16T14:40:38.632Z</time>
      </trkpt>
      <trkpt lat="45.65227" lon="6.85776">
        <ele>1995</ele>
        <time>2022-07-16T14:40:40.444Z</time>
      </trkpt>
      <trkpt lat="45.65207" lon="6.85749">
        <ele>1989</ele>
        <time>2022-07-16T14:40:42.520Z</time>
      </trkpt>
      <trkpt lat="45.6518" lon="6.85719">
        <ele>1985</ele>
        <time>2022-07-16T14:40:45.100Z</time>
      </trkpt>
      <trkpt lat="45.651" lon="6.85666">
        <ele>1983</ele>
        <time>2022-07-16T14:40:54.244Z</time>
      </trkpt>
      <trkpt lat="45.65073" lon="6.85652">
        <ele>1988</ele>
        <time>2022-07-16T14:41:08.975Z</time>
      </trkpt>
      <trkpt lat="45.65056" lon="6.85636">
        <ele>1990</ele>
        <time>2022-07-16T14:41:15.897Z</time>
      </trkpt>
      <trkpt lat="45.6505" lon="6.85628">
        <ele>1990</ele>
        <time>2022-07-16T14:41:16.988Z</time>
      </trkpt>
      <trkpt lat="45.65033" lon="6.85582">
        <ele>1979</ele>
        <time>2022-07-16T14:41:19.733Z</time>
      </trkpt>
      <trkpt lat="45.65022" lon="6.85559">
        <ele>1979</ele>
        <time>2022-07-16T14:41:22.324Z</time>
      </trkpt>
      <trkpt lat="45.64994" lon="6.85517">
        <ele>1982</ele>
        <time>2022-07-16T14:41:33.513Z</time>
      </trkpt>
      <trkpt lat="45.64976" lon="6.85483">
        <ele>1981</ele>
        <time>2022-07-16T14:41:36.266Z</time>
      </trkpt>
      <trkpt lat="45.64972" lon="6.85472">
        <ele>1980</ele>
        <time>2022-07-16T14:41:36.920Z</time>
      </trkpt>
      <trkpt lat="45.64964" lon="6.85421">
        <ele>1973</ele>
        <time>2022-07-16T14:41:39.678Z</time>
      </trkpt>
      <trkpt lat="45.64959" lon="6.85405">
        <ele>1972</ele>
        <time>2022-07-16T14:41:40.602Z</time>
      </trkpt>
      <trkpt lat="45.64944" lon="6.85377">
        <ele>1972</ele>
        <time>2022-07-16T14:41:43.882Z</time>
      </trkpt>
      <trkpt lat="45.64913" lon="6.85302">
        <ele>1968</ele>
        <time>2022-07-16T14:41:48.125Z</time>
      </trkpt>
      <trkpt lat="45.64903" lon="6.85286">
        <ele>1966</ele>
        <time>2022-07-16T14:41:49.258Z</time>
      </trkpt>
      <trkpt lat="45.64896" lon="6.85279">
        <ele>1966</ele>
        <time>2022-07-16T14:41:50.393Z</time>
      </trkpt>
      <trkpt lat="45.64859" lon="6.85268">
        <ele>1968</ele>
        <time>2022-07-16T14:41:59.353Z</time>
      </trkpt>
      <trkpt lat="45.64838" lon="6.85258">
        <ele>1968</ele>
        <time>2022-07-16T14:42:02.296Z</time>
      </trkpt>
      <trkpt lat="45.6477" lon="6.85214">
        <ele>1966</ele>
        <time>2022-07-16T14:42:09.691Z</time>
      </trkpt>
      <trkpt lat="45.6475" lon="6.85209">
        <ele>1967</ele>
        <time>2022-07-16T14:42:14.389Z</time>
      </trkpt>
      <trkpt lat="45.64731" lon="6.85208">
        <ele>1972</ele>
        <time>2022-07-16T14:42:24.142Z</time>
      </trkpt>
      <trkpt lat="45.64714" lon="6.852">
        <ele>1974</ele>
        <time>2022-07-16T14:42:31.132Z</time>
      </trkpt>
      <trkpt lat="45.64616" lon="6.85066">
        <ele>1955</ele>
        <time>2022-07-16T14:42:41.364Z</time>
      </trkpt>
      <trkpt lat="45.64583" lon="6.85028">
        <ele>1955</ele>
        <time>2022-07-16T14:42:46.998Z</time>
      </trkpt>
      <trkpt lat="45.64555" lon="6.84981">
        <ele>1952</ele>
        <time>2022-07-16T14:42:50.256Z</time>
      </trkpt>
      <trkpt lat="45.64544" lon="6.84947">
        <ele>1948</ele>
        <time>2022-07-16T14:42:52.233Z</time>
      </trkpt>
      <trkpt lat="45.64539" lon="6.84941">
        <ele>1948</ele>
        <time>2022-07-16T14:42:53.101Z</time>
      </trkpt>
      <trkpt lat="45.64524" lon="6.84932">
        <ele>1953</ele>
        <time>2022-07-16T14:43:01.444Z</time>
      </trkpt>
      <trkpt lat="45.64508" lon="6.84915">
        <ele>1955</ele>
        <time>2022-07-16T14:43:08.361Z</time>
      </trkpt>
      <trkpt lat="45.64494" lon="6.84892">
        <ele>1952</ele>
        <time>2022-07-16T14:43:09.970Z</time>
      </trkpt>
      <trkpt lat="45.64468" lon="6.84837">
        <ele>1943</ele>
        <time>2022-07-16T14:43:13.473Z</time>
      </trkpt>
      <trkpt lat="45.64452" lon="6.84812">
        <ele>1942</ele>
        <time>2022-07-16T14:43:15.484Z</time>
      </trkpt>
      <trkpt lat="45.64423" lon="6.84781">
        <ele>1944</ele>
        <time>2022-07-16T14:43:24.202Z</time>
      </trkpt>
      <trkpt lat="45.64413" lon="6.84774">
        <ele>1945</ele>
        <time>2022-07-16T14:43:27.705Z</time>
      </trkpt>
      <trkpt lat="45.64386" lon="6.84769">
        <ele>1948</ele>
        <time>2022-07-16T14:43:38.159Z</time>
      </trkpt>
      <trkpt lat="45.64377" lon="6.84764">
        <ele>1949</ele>
        <time>2022-07-16T14:43:41.618Z</time>
      </trkpt>
      <trkpt lat="45.64327" lon="6.84712">
        <ele>1944</ele>
        <time>2022-07-16T14:43:46.284Z</time>
      </trkpt>
      <trkpt lat="45.64288" lon="6.84647">
        <ele>1936</ele>
        <time>2022-07-16T14:43:50.804Z</time>
      </trkpt>
      <trkpt lat="45.64218" lon="6.84547">
        <ele>1934</ele>
        <time>2022-07-16T14:44:01.362Z</time>
      </trkpt>
      <trkpt lat="45.64187" lon="6.84448">
        <ele>1919</ele>
        <time>2022-07-16T14:44:07.086Z</time>
      </trkpt>
      <trkpt lat="45.64181" lon="6.84433">
        <ele>1917</ele>
        <time>2022-07-16T14:44:07.998Z</time>
      </trkpt>
      <trkpt lat="45.64176" lon="6.84428">
        <ele>1917</ele>
        <time>2022-07-16T14:44:08.809Z</time>
      </trkpt>
      <trkpt lat="45.64158" lon="6.84432">
        <ele>1920</ele>
        <time>2022-07-16T14:44:18.153Z</time>
      </trkpt>
      <trkpt lat="45.6413" lon="6.8445">
        <ele>1920</ele>
        <time>2022-07-16T14:44:22.235Z</time>
      </trkpt>
      <trkpt lat="45.6406" lon="6.8452">
        <ele>1925</ele>
        <time>2022-07-16T14:44:43.274Z</time>
      </trkpt>
      <trkpt lat="45.64032" lon="6.84532">
        <ele>1920</ele>
        <time>2022-07-16T14:44:45.480Z</time>
      </trkpt>
      <trkpt lat="45.64002" lon="6.84556">
        <ele>1918</ele>
        <time>2022-07-16T14:44:48.020Z</time>
      </trkpt>
      <trkpt lat="45.6396" lon="6.84599">
        <ele>1920</ele>
        <time>2022-07-16T14:44:58.664Z</time>
      </trkpt>
      <trkpt lat="45.63947" lon="6.84619">
        <ele>1922</ele>
        <time>2022-07-16T14:45:05.587Z</time>
      </trkpt>
      <trkpt lat="45.63944" lon="6.84628">
        <ele>1924</ele>
        <time>2022-07-16T14:45:09.163Z</time>
      </trkpt>
      <trkpt lat="45.63933" lon="6.8464">
        <ele>1925</ele>
        <time>2022-07-16T14:45:12.930Z</time>
      </trkpt>
      <trkpt lat="45.63854" lon="6.84669">
        <ele>1911</ele>
        <time>2022-07-16T14:45:19.086Z</time>
      </trkpt>
      <trkpt lat="45.63825" lon="6.84669">
        <ele>1904</ele>
        <time>2022-07-16T14:45:21.275Z</time>
      </trkpt>
      <trkpt lat="45.63805" lon="6.84674">
        <ele>1903</ele>
        <time>2022-07-16T14:45:22.892Z</time>
      </trkpt>
      <trkpt lat="45.63789" lon="6.84685">
        <ele>1902</ele>
        <time>2022-07-16T14:45:24.224Z</time>
      </trkpt>
      <trkpt lat="45.63777" lon="6.84702">
        <ele>1902</ele>
        <time>2022-07-16T14:45:26.470Z</time>
      </trkpt>
      <trkpt lat="45.63772" lon="6.84724">
        <ele>1904</ele>
        <time>2022-07-16T14:45:33.739Z</time>
      </trkpt>
      <trkpt lat="45.63772" lon="6.84734">
        <ele>1905</ele>
        <time>2022-07-16T14:45:37.326Z</time>
      </trkpt>
      <trkpt lat="45.63782" lon="6.84757">
        <ele>1911</ele>
        <time>2022-07-16T14:45:47.039Z</time>
      </trkpt>
      <trkpt lat="45.63799" lon="6.84781">
        <ele>1917</ele>
        <time>2022-07-16T14:45:59.292Z</time>
      </trkpt>
      <trkpt lat="45.63802" lon="6.8479">
        <ele>1919</ele>
        <time>2022-07-16T14:46:02.868Z</time>
      </trkpt>
      <trkpt lat="45.63802" lon="6.84807">
        <ele>1920</ele>
        <time>2022-07-16T14:46:06.428Z</time>
      </trkpt>
      <trkpt lat="45.63799" lon="6.84816">
        <ele>1920</ele>
        <time>2022-07-16T14:46:07.355Z</time>
      </trkpt>
      <trkpt lat="45.63787" lon="6.84834">
        <ele>1916</ele>
        <time>2022-07-16T14:46:08.668Z</time>
      </trkpt>
      <trkpt lat="45.6376" lon="6.84852">
        <ele>1908</ele>
        <time>2022-07-16T14:46:10.916Z</time>
      </trkpt>
      <trkpt lat="45.63732" lon="6.84882">
        <ele>1904</ele>
        <time>2022-07-16T14:46:13.557Z</time>
      </trkpt>
      <trkpt lat="45.63707" lon="6.84936">
        <ele>1906</ele>
        <time>2022-07-16T14:46:23.670Z</time>
      </trkpt>
      <trkpt lat="45.63665" lon="6.84974">
        <ele>1897</ele>
        <time>2022-07-16T14:46:27.421Z</time>
      </trkpt>
      <trkpt lat="45.63606" lon="6.85043">
        <ele>1903</ele>
        <time>2022-07-16T14:46:49.253Z</time>
      </trkpt>
      <trkpt lat="45.6359" lon="6.85053">
        <ele>1902</ele>
        <time>2022-07-16T14:46:50.553Z</time>
      </trkpt>
      <trkpt lat="45.63531" lon="6.85024">
        <ele>1893</ele>
        <time>2022-07-16T14:46:55.261Z</time>
      </trkpt>
      <trkpt lat="45.63519" lon="6.85021">
        <ele>1893</ele>
        <time>2022-07-16T14:46:56.881Z</time>
      </trkpt>
      <trkpt lat="45.63491" lon="6.85005">
        <ele>1890</ele>
        <time>2022-07-16T14:46:59.157Z</time>
      </trkpt>
      <trkpt lat="45.63477" lon="6.84981">
        <ele>1886</ele>
        <time>2022-07-16T14:47:00.807Z</time>
      </trkpt>
      <trkpt lat="45.63467" lon="6.84953">
        <ele>1879</ele>
        <time>2022-07-16T14:47:02.466Z</time>
      </trkpt>
      <trkpt lat="45.63459" lon="6.84939">
        <ele>1876</ele>
        <time>2022-07-16T14:47:03.420Z</time>
      </trkpt>
      <trkpt lat="45.63451" lon="6.8493">
        <ele>1875</ele>
        <time>2022-07-16T14:47:04.188Z</time>
      </trkpt>
      <trkpt lat="45.6343" lon="6.84917">
        <ele>1875</ele>
        <time>2022-07-16T14:47:07.231Z</time>
      </trkpt>
      <trkpt lat="45.63419" lon="6.84913">
        <ele>1876</ele>
        <time>2022-07-16T14:47:10.749Z</time>
      </trkpt>
      <trkpt lat="45.63339" lon="6.84904">
        <ele>1874</ele>
        <time>2022-07-16T14:47:18.865Z</time>
      </trkpt>
      <trkpt lat="45.63304" lon="6.8491">
        <ele>1881</ele>
        <time>2022-07-16T14:47:36.947Z</time>
      </trkpt>
      <trkpt lat="45.63281" lon="6.84905">
        <ele>1882</ele>
        <time>2022-07-16T14:47:42.050Z</time>
      </trkpt>
      <trkpt lat="45.63253" lon="6.84892">
        <ele>1880</ele>
        <time>2022-07-16T14:47:44.272Z</time>
      </trkpt>
      <trkpt lat="45.63225" lon="6.84863">
        <ele>1874</ele>
        <time>2022-07-16T14:47:46.882Z</time>
      </trkpt>
      <trkpt lat="45.63209" lon="6.84836">
        <ele>1867</ele>
        <time>2022-07-16T14:47:48.749Z</time>
      </trkpt>
      <trkpt lat="45.63182" lon="6.84802">
        <ele>1862</ele>
        <time>2022-07-16T14:47:51.465Z</time>
      </trkpt>
      <trkpt lat="45.6314" lon="6.84772">
        <ele>1860</ele>
        <time>2022-07-16T14:47:55.435Z</time>
      </trkpt>
      <trkpt lat="45.63118" lon="6.84741">
        <ele>1855</ele>
        <time>2022-07-16T14:47:57.766Z</time>
      </trkpt>
      <trkpt lat="45.6311" lon="6.84734">
        <ele>1855</ele>
        <time>2022-07-16T14:47:59.013Z</time>
      </trkpt>
      <trkpt lat="45.63078" lon="6.84718">
        <ele>1857</ele>
        <time>2022-07-16T14:48:07.390Z</time>
      </trkpt>
      <trkpt lat="45.63052" lon="6.84697">
        <ele>1854</ele>
        <time>2022-07-16T14:48:09.644Z</time>
      </trkpt>
      <trkpt lat="45.63031" lon="6.84669">
        <ele>1852</ele>
        <time>2022-07-16T14:48:11.811Z</time>
      </trkpt>
      <trkpt lat="45.63024" lon="6.84663">
        <ele>1852</ele>
        <time>2022-07-16T14:48:12.896Z</time>
      </trkpt>
      <trkpt lat="45.63012" lon="6.84663">
        <ele>1854</ele>
        <time>2022-07-16T14:48:19.051Z</time>
      </trkpt>
      <trkpt lat="45.63006" lon="6.84667">
        <ele>1856</ele>
        <time>2022-07-16T14:48:22.447Z</time>
      </trkpt>
      <trkpt lat="45.62996" lon="6.84678">
        <ele>1857</ele>
        <time>2022-07-16T14:48:26.077Z</time>
      </trkpt>
      <trkpt lat="45.6296" lon="6.8473">
        <ele>1858</ele>
        <time>2022-07-16T14:48:34.365Z</time>
      </trkpt>
      <trkpt lat="45.62888" lon="6.84809">
        <ele>1856</ele>
        <time>2022-07-16T14:48:43.848Z</time>
      </trkpt>
      <trkpt lat="45.62866" lon="6.84823">
        <ele>1854</ele>
        <time>2022-07-16T14:48:45.665Z</time>
      </trkpt>
      <trkpt lat="45.62826" lon="6.84841">
        <ele>1851</ele>
        <time>2022-07-16T14:48:48.830Z</time>
      </trkpt>
      <trkpt lat="45.62794" lon="6.84859">
        <ele>1848</ele>
        <time>2022-07-16T14:48:51.426Z</time>
      </trkpt>
      <trkpt lat="45.62782" lon="6.8487">
        <ele>1847</ele>
        <time>2022-07-16T14:48:52.502Z</time>
      </trkpt>
      <trkpt lat="45.62771" lon="6.84883">
        <ele>1847</ele>
        <time>2022-07-16T14:48:54.399Z</time>
      </trkpt>
      <trkpt lat="45.62741" lon="6.8494">
        <ele>1847</ele>
        <time>2022-07-16T14:49:01.034Z</time>
      </trkpt>
      <trkpt lat="45.62733" lon="6.84951">
        <ele>1846</ele>
        <time>2022-07-16T14:49:01.872Z</time>
      </trkpt>
      <trkpt lat="45.6271" lon="6.84971">
        <ele>1843</ele>
        <time>2022-07-16T14:49:03.903Z</time>
      </trkpt>
      <trkpt lat="45.62692" lon="6.84993">
        <ele>1842</ele>
        <time>2022-07-16T14:49:05.913Z</time>
      </trkpt>
      <trkpt lat="45.6268" lon="6.85017">
        <ele>1841</ele>
        <time>2022-07-16T14:49:07.568Z</time>
      </trkpt>
      <trkpt lat="45.62675" lon="6.85035">
        <ele>1842</ele>
        <time>2022-07-16T14:49:11.300Z</time>
      </trkpt>
      <trkpt lat="45.62663" lon="6.85062">
        <ele>1841</ele>
        <time>2022-07-16T14:49:13.156Z</time>
      </trkpt>
      <trkpt lat="45.62627" lon="6.85102">
        <ele>1838</ele>
        <time>2022-07-16T14:49:16.329Z</time>
      </trkpt>
      <trkpt lat="45.62619" lon="6.85113">
        <ele>1837</ele>
        <time>2022-07-16T14:49:17.167Z</time>
      </trkpt>
      <trkpt lat="45.62613" lon="6.85128">
        <ele>1838</ele>
        <time>2022-07-16T14:49:20.744Z</time>
      </trkpt>
      <trkpt lat="45.62584" lon="6.85236">
        <ele>1837</ele>
        <time>2022-07-16T14:49:30.252Z</time>
      </trkpt>
      <trkpt lat="45.62578" lon="6.85297">
        <ele>1835</ele>
        <time>2022-07-16T14:49:33.770Z</time>
      </trkpt>
      <trkpt lat="45.62577" lon="6.85357">
        <ele>1835</ele>
        <time>2022-07-16T14:49:39.352Z</time>
      </trkpt>
      <trkpt lat="45.62568" lon="6.85426">
        <ele>1830</ele>
        <time>2022-07-16T14:49:43.057Z</time>
      </trkpt>
      <trkpt lat="45.62568" lon="6.85482">
        <ele>1829</ele>
        <time>2022-07-16T14:49:46.991Z</time>
      </trkpt>
      <trkpt lat="45.62565" lon="6.85512">
        <ele>1829</ele>
        <time>2022-07-16T14:49:49.810Z</time>
      </trkpt>
      <trkpt lat="45.62561" lon="6.85524">
        <ele>1828</ele>
        <time>2022-07-16T14:49:50.512Z</time>
      </trkpt>
      <trkpt lat="45.62538" lon="6.85561">
        <ele>1823</ele>
        <time>2022-07-16T14:49:53.125Z</time>
      </trkpt>
      <trkpt lat="45.625" lon="6.85659">
        <ele>1818</ele>
        <time>2022-07-16T14:49:58.663Z</time>
      </trkpt>
      <trkpt lat="45.62485" lon="6.85687">
        <ele>1818</ele>
        <time>2022-07-16T14:50:01.944Z</time>
      </trkpt>
      <trkpt lat="45.62457" lon="6.85716">
        <ele>1815</ele>
        <time>2022-07-16T14:50:04.553Z</time>
      </trkpt>
      <trkpt lat="45.62435" lon="6.85745">
        <ele>1813</ele>
        <time>2022-07-16T14:50:06.811Z</time>
      </trkpt>
      <trkpt lat="45.62423" lon="6.85765">
        <ele>1811</ele>
        <time>2022-07-16T14:50:08.202Z</time>
      </trkpt>
      <trkpt lat="45.62417" lon="6.85784">
        <ele>1811</ele>
        <time>2022-07-16T14:50:10.141Z</time>
      </trkpt>
      <trkpt lat="45.62413" lon="6.8581">
        <ele>1811</ele>
        <time>2022-07-16T14:50:12.617Z</time>
      </trkpt>
      <trkpt lat="45.62407" lon="6.85811">
        <ele>1809</ele>
        <time>2022-07-16T14:50:13.073Z</time>
      </trkpt>
      <trkpt lat="45.62404" lon="6.85818">
        <ele>1808</ele>
        <time>2022-07-16T14:50:13.507Z</time>
      </trkpt>
      <trkpt lat="45.62404" lon="6.85824">
        <ele>1808</ele>
        <time>2022-07-16T14:50:14.065Z</time>
      </trkpt>
      <trkpt lat="45.62407" lon="6.85828">
        <ele>1810</ele>
        <time>2022-07-16T14:50:16.169Z</time>
      </trkpt>
      <trkpt lat="45.62402" lon="6.8588">
        <ele>1808</ele>
        <time>2022-07-16T14:50:18.965Z</time>
      </trkpt>
      <trkpt lat="45.62404" lon="6.85935">
        <ele>1808</ele>
        <time>2022-07-16T14:50:24.087Z</time>
      </trkpt>
      <trkpt lat="45.62399" lon="6.86026">
        <ele>1801</ele>
        <time>2022-07-16T14:50:28.906Z</time>
      </trkpt>
      <trkpt lat="45.62415" lon="6.86253">
        <ele>1793</ele>
        <time>2022-07-16T14:50:41.518Z</time>
      </trkpt>
      <trkpt lat="45.62414" lon="6.86282">
        <ele>1791</ele>
        <time>2022-07-16T14:50:43.051Z</time>
      </trkpt>
      <trkpt lat="45.62405" lon="6.86354">
        <ele>1783</ele>
        <time>2022-07-16T14:50:46.911Z</time>
      </trkpt>
      <trkpt lat="45.62401" lon="6.86439">
        <ele>1778</ele>
        <time>2022-07-16T14:50:51.408Z</time>
      </trkpt>
      <trkpt lat="45.62405" lon="6.86465">
        <ele>1778</ele>
        <time>2022-07-16T14:50:53.884Z</time>
      </trkpt>
      <trkpt lat="45.62424" lon="6.8651">
        <ele>1782</ele>
        <time>2022-07-16T14:51:07.791Z</time>
      </trkpt>
      <trkpt lat="45.62422" lon="6.86523">
        <ele>1780</ele>
        <time>2022-07-16T14:51:08.494Z</time>
      </trkpt>
      <trkpt lat="45.62415" lon="6.86528">
        <ele>1777</ele>
        <time>2022-07-16T14:51:09.085Z</time>
      </trkpt>
      <trkpt lat="45.62402" lon="6.8652">
        <ele>1772</ele>
        <time>2022-07-16T14:51:10.153Z</time>
      </trkpt>
      <trkpt lat="45.62397" lon="6.86508">
        <ele>1771</ele>
        <time>2022-07-16T14:51:10.890Z</time>
      </trkpt>
      <trkpt lat="45.6239" lon="6.86474">
        <ele>1771</ele>
        <time>2022-07-16T14:51:14.187Z</time>
      </trkpt>
      <trkpt lat="45.62366" lon="6.86311">
        <ele>1768</ele>
        <time>2022-07-16T14:51:25.862Z</time>
      </trkpt>
      <trkpt lat="45.62347" lon="6.86228">
        <ele>1767</ele>
        <time>2022-07-16T14:51:32.687Z</time>
      </trkpt>
      <trkpt lat="45.62331" lon="6.86132">
        <ele>1768</ele>
        <time>2022-07-16T14:51:43.270Z</time>
      </trkpt>
      <trkpt lat="45.62316" lon="6.86084">
        <ele>1766</ele>
        <time>2022-07-16T14:51:46.073Z</time>
      </trkpt>
      <trkpt lat="45.6228" lon="6.86009">
        <ele>1758</ele>
        <time>2022-07-16T14:51:50.875Z</time>
      </trkpt>
      <trkpt lat="45.62273" lon="6.85988">
        <ele>1757</ele>
        <time>2022-07-16T14:51:52.046Z</time>
      </trkpt>
      <trkpt lat="45.62262" lon="6.85829">
        <ele>1750</ele>
        <time>2022-07-16T14:52:00.015Z</time>
      </trkpt>
      <trkpt lat="45.62261" lon="6.85806">
        <ele>1748</ele>
        <time>2022-07-16T14:52:01.232Z</time>
      </trkpt>
      <trkpt lat="45.62264" lon="6.85782">
        <ele>1748</ele>
        <time>2022-07-16T14:52:03.499Z</time>
      </trkpt>
      <trkpt lat="45.62289" lon="6.8574">
        <ele>1756</ele>
        <time>2022-07-16T14:52:23.285Z</time>
      </trkpt>
      <trkpt lat="45.62295" lon="6.85718">
        <ele>1757</ele>
        <time>2022-07-16T14:52:27.411Z</time>
      </trkpt>
      <trkpt lat="45.62298" lon="6.85686">
        <ele>1754</ele>
        <time>2022-07-16T14:52:29.115Z</time>
      </trkpt>
      <trkpt lat="45.62309" lon="6.85545">
        <ele>1745</ele>
        <time>2022-07-16T14:52:36.604Z</time>
      </trkpt>
      <trkpt lat="45.62303" lon="6.85471">
        <ele>1738</ele>
        <time>2022-07-16T14:52:40.536Z</time>
      </trkpt>
      <trkpt lat="45.62286" lon="6.85359">
        <ele>1733</ele>
        <time>2022-07-16T14:52:46.264Z</time>
      </trkpt>
      <trkpt lat="45.62286" lon="6.85334">
        <ele>1734</ele>
        <time>2022-07-16T14:52:50.531Z</time>
      </trkpt>
      <trkpt lat="45.623" lon="6.85236">
        <ele>1733</ele>
        <time>2022-07-16T14:52:58.552Z</time>
      </trkpt>
      <trkpt lat="45.6232" lon="6.85176">
        <ele>1732</ele>
        <time>2022-07-16T14:53:03.438Z</time>
      </trkpt>
      <trkpt lat="45.62336" lon="6.85106">
        <ele>1730</ele>
        <time>2022-07-16T14:53:07.952Z</time>
      </trkpt>
      <trkpt lat="45.62339" lon="6.85086">
        <ele>1729</ele>
        <time>2022-07-16T14:53:09.032Z</time>
      </trkpt>
      <trkpt lat="45.62334" lon="6.85074">
        <ele>1727</ele>
        <time>2022-07-16T14:53:09.769Z</time>
      </trkpt>
      <trkpt lat="45.6233" lon="6.85072">
        <ele>1725</ele>
        <time>2022-07-16T14:53:10.089Z</time>
      </trkpt>
      <trkpt lat="45.62324" lon="6.85075">
        <ele>1723</ele>
        <time>2022-07-16T14:53:10.568Z</time>
      </trkpt>
      <trkpt lat="45.62318" lon="6.85086">
        <ele>1722</ele>
        <time>2022-07-16T14:53:11.305Z</time>
      </trkpt>
      <trkpt lat="45.6231" lon="6.85159">
        <ele>1726</ele>
        <time>2022-07-16T14:53:25.951Z</time>
      </trkpt>
      <trkpt lat="45.62269" lon="6.85272">
        <ele>1725</ele>
        <time>2022-07-16T14:53:36.568Z</time>
      </trkpt>
      <trkpt lat="45.62263" lon="6.85299">
        <ele>1724</ele>
        <time>2022-07-16T14:53:38.130Z</time>
      </trkpt>
      <trkpt lat="45.62255" lon="6.85341">
        <ele>1721</ele>
        <time>2022-07-16T14:53:40.428Z</time>
      </trkpt>
      <trkpt lat="45.62254" lon="6.85399">
        <ele>1718</ele>
        <time>2022-07-16T14:53:43.490Z</time>
      </trkpt>
      <trkpt lat="45.62257" lon="6.85446">
        <ele>1719</ele>
        <time>2022-07-16T14:53:49.566Z</time>
      </trkpt>
      <trkpt lat="45.6225" lon="6.85469">
        <ele>1716</ele>
        <time>2022-07-16T14:53:50.890Z</time>
      </trkpt>
      <trkpt lat="45.62241" lon="6.85533">
        <ele>1714</ele>
        <time>2022-07-16T14:53:54.708Z</time>
      </trkpt>
      <trkpt lat="45.62232" lon="6.85553">
        <ele>1712</ele>
        <time>2022-07-16T14:53:55.964Z</time>
      </trkpt>
      <trkpt lat="45.62204" lon="6.85596">
        <ele>1704</ele>
        <time>2022-07-16T14:53:59.065Z</time>
      </trkpt>
      <trkpt lat="45.62197" lon="6.85617">
        <ele>1703</ele>
        <time>2022-07-16T14:54:00.236Z</time>
      </trkpt>
      <trkpt lat="45.62196" lon="6.85641">
        <ele>1705</ele>
        <time>2022-07-16T14:54:07.368Z</time>
      </trkpt>
      <trkpt lat="45.62201" lon="6.8568">
        <ele>1710</ele>
        <time>2022-07-16T14:54:21.592Z</time>
      </trkpt>
      <trkpt lat="45.62199" lon="6.85695">
        <ele>1711</ele>
        <time>2022-07-16T14:54:25.070Z</time>
      </trkpt>
      <trkpt lat="45.62193" lon="6.85713">
        <ele>1710</ele>
        <time>2022-07-16T14:54:26.122Z</time>
      </trkpt>
      <trkpt lat="45.62164" lon="6.85739">
        <ele>1700</ele>
        <time>2022-07-16T14:54:28.706Z</time>
      </trkpt>
      <trkpt lat="45.62151" lon="6.85758">
        <ele>1695</ele>
        <time>2022-07-16T14:54:30.109Z</time>
      </trkpt>
      <trkpt lat="45.62146" lon="6.85773">
        <ele>1694</ele>
        <time>2022-07-16T14:54:30.986Z</time>
      </trkpt>
      <trkpt lat="45.62125" lon="6.8591">
        <ele>1696</ele>
        <time>2022-07-16T14:54:47.027Z</time>
      </trkpt>
      <trkpt lat="45.62119" lon="6.85969">
        <ele>1695</ele>
        <time>2022-07-16T14:54:51.289Z</time>
      </trkpt>
      <trkpt lat="45.62111" lon="6.85978">
        <ele>1692</ele>
        <time>2022-07-16T14:54:52.057Z</time>
      </trkpt>
      <trkpt lat="45.62107" lon="6.85978">
        <ele>1691</ele>
        <time>2022-07-16T14:54:52.359Z</time>
      </trkpt>
      <trkpt lat="45.62102" lon="6.85974">
        <ele>1689</ele>
        <time>2022-07-16T14:54:52.791Z</time>
      </trkpt>
      <trkpt lat="45.62115" lon="6.85869">
        <ele>1688</ele>
        <time>2022-07-16T14:55:01.439Z</time>
      </trkpt>
      <trkpt lat="45.62122" lon="6.85779">
        <ele>1683</ele>
        <time>2022-07-16T14:55:06.219Z</time>
      </trkpt>
      <trkpt lat="45.62129" lon="6.85755">
        <ele>1684</ele>
        <time>2022-07-16T14:55:10.591Z</time>
      </trkpt>
      <trkpt lat="45.6214" lon="6.85736">
        <ele>1687</ele>
        <time>2022-07-16T14:55:19.439Z</time>
      </trkpt>
      <trkpt lat="45.62149" lon="6.85713">
        <ele>1690</ele>
        <time>2022-07-16T14:55:28.894Z</time>
      </trkpt>
      <trkpt lat="45.6215" lon="6.85704">
        <ele>1690</ele>
        <time>2022-07-16T14:55:29.742Z</time>
      </trkpt>
      <trkpt lat="45.62144" lon="6.8567">
        <ele>1683</ele>
        <time>2022-07-16T14:55:31.593Z</time>
      </trkpt>
      <trkpt lat="45.62142" lon="6.85639">
        <ele>1680</ele>
        <time>2022-07-16T14:55:33.236Z</time>
      </trkpt>
      <trkpt lat="45.62173" lon="6.85499">
        <ele>1681</ele>
        <time>2022-07-16T14:55:48.232Z</time>
      </trkpt>
      <trkpt lat="45.6217" lon="6.85471">
        <ele>1680</ele>
        <time>2022-07-16T14:55:49.794Z</time>
      </trkpt>
      <trkpt lat="45.62155" lon="6.85432">
        <ele>1674</ele>
        <time>2022-07-16T14:55:52.143Z</time>
      </trkpt>
      <trkpt lat="45.62152" lon="6.85418">
        <ele>1672</ele>
        <time>2022-07-16T14:55:52.916Z</time>
      </trkpt>
      <trkpt lat="45.62144" lon="6.85258">
        <ele>1671</ele>
        <time>2022-07-16T14:56:06.712Z</time>
      </trkpt>
      <trkpt lat="45.62144" lon="6.8523">
        <ele>1669</ele>
        <time>2022-07-16T14:56:08.191Z</time>
      </trkpt>
      <trkpt lat="45.62156" lon="6.85132">
        <ele>1664</ele>
        <time>2022-07-16T14:56:13.442Z</time>
      </trkpt>
      <trkpt lat="45.62177" lon="6.8507">
        <ele>1666</ele>
        <time>2022-07-16T14:56:23.781Z</time>
      </trkpt>
      <trkpt lat="45.62183" lon="6.85043">
        <ele>1665</ele>
        <time>2022-07-16T14:56:25.342Z</time>
      </trkpt>
      <trkpt lat="45.62174" lon="6.84916">
        <ele>1653</ele>
        <time>2022-07-16T14:56:32.081Z</time>
      </trkpt>
      <trkpt lat="45.6218" lon="6.84804">
        <ele>1652</ele>
        <time>2022-07-16T14:56:41.269Z</time>
      </trkpt>
      <trkpt lat="45.62178" lon="6.8474">
        <ele>1650</ele>
        <time>2022-07-16T14:56:44.988Z</time>
      </trkpt>
      <trkpt lat="45.62171" lon="6.84656">
        <ele>1644</ele>
        <time>2022-07-16T14:56:49.453Z</time>
      </trkpt>
      <trkpt lat="45.6218" lon="6.84624">
        <ele>1643</ele>
        <time>2022-07-16T14:56:51.515Z</time>
      </trkpt>
      <trkpt lat="45.62195" lon="6.84598">
        <ele>1644</ele>
        <time>2022-07-16T14:56:56.642Z</time>
      </trkpt>
      <trkpt lat="45.6221" lon="6.84554">
        <ele>1641</ele>
        <time>2022-07-16T14:56:59.226Z</time>
      </trkpt>
      <trkpt lat="45.62245" lon="6.84511">
        <ele>1645</ele>
        <time>2022-07-16T14:57:13.352Z</time>
      </trkpt>
      <trkpt lat="45.62258" lon="6.84491">
        <ele>1646</ele>
        <time>2022-07-16T14:57:17.862Z</time>
      </trkpt>
      <trkpt lat="45.62291" lon="6.84401">
        <ele>1642</ele>
        <time>2022-07-16T14:57:23.196Z</time>
      </trkpt>
      <trkpt lat="45.62312" lon="6.84363">
        <ele>1642</ele>
        <time>2022-07-16T14:57:27.701Z</time>
      </trkpt>
      <trkpt lat="45.62316" lon="6.84341">
        <ele>1640</ele>
        <time>2022-07-16T14:57:28.900Z</time>
      </trkpt>
      <trkpt lat="45.62315" lon="6.84302">
        <ele>1635</ele>
        <time>2022-07-16T14:57:30.960Z</time>
      </trkpt>
      <trkpt lat="45.62321" lon="6.84269">
        <ele>1634</ele>
        <time>2022-07-16T14:57:32.990Z</time>
      </trkpt>
      <trkpt lat="45.6235" lon="6.84203">
        <ele>1630</ele>
        <time>2022-07-16T14:57:37.104Z</time>
      </trkpt>
      <trkpt lat="45.62372" lon="6.84176">
        <ele>1630</ele>
        <time>2022-07-16T14:57:40.960Z</time>
      </trkpt>
      <trkpt lat="45.62425" lon="6.84138">
        <ele>1633</ele>
        <time>2022-07-16T14:57:54.801Z</time>
      </trkpt>
      <trkpt lat="45.62439" lon="6.84125">
        <ele>1633</ele>
        <time>2022-07-16T14:57:57.021Z</time>
      </trkpt>
      <trkpt lat="45.62455" lon="6.84079">
        <ele>1626</ele>
        <time>2022-07-16T14:57:59.733Z</time>
      </trkpt>
      <trkpt lat="45.62468" lon="6.84058">
        <ele>1624</ele>
        <time>2022-07-16T14:58:01.213Z</time>
      </trkpt>
      <trkpt lat="45.62505" lon="6.84011">
        <ele>1621</ele>
        <time>2022-07-16T14:58:04.799Z</time>
      </trkpt>
      <trkpt lat="45.62524" lon="6.83999">
        <ele>1623</ele>
        <time>2022-07-16T14:58:11.732Z</time>
      </trkpt>
      <trkpt lat="45.62549" lon="6.83992">
        <ele>1629</ele>
        <time>2022-07-16T14:58:24.799Z</time>
      </trkpt>
      <trkpt lat="45.62559" lon="6.83979">
        <ele>1628</ele>
        <time>2022-07-16T14:58:25.819Z</time>
      </trkpt>
      <trkpt lat="45.62585" lon="6.83917">
        <ele>1617</ele>
        <time>2022-07-16T14:58:29.635Z</time>
      </trkpt>
      <trkpt lat="45.62601" lon="6.83886">
        <ele>1615</ele>
        <time>2022-07-16T14:58:31.669Z</time>
      </trkpt>
      <trkpt lat="45.62614" lon="6.8385">
        <ele>1610</ele>
        <time>2022-07-16T14:58:33.807Z</time>
      </trkpt>
      <trkpt lat="45.62655" lon="6.83806">
        <ele>1615</ele>
        <time>2022-07-16T14:58:51.120Z</time>
      </trkpt>
      <trkpt lat="45.62678" lon="6.83774">
        <ele>1615</ele>
        <time>2022-07-16T14:58:55.388Z</time>
      </trkpt>
      <trkpt lat="45.62709" lon="6.83703">
        <ele>1610</ele>
        <time>2022-07-16T14:58:59.806Z</time>
      </trkpt>
      <trkpt lat="45.62726" lon="6.83655">
        <ele>1602</ele>
        <time>2022-07-16T14:59:02.645Z</time>
      </trkpt>
      <trkpt lat="45.62744" lon="6.83635">
        <ele>1602</ele>
        <time>2022-07-16T14:59:05.677Z</time>
      </trkpt>
      <trkpt lat="45.62765" lon="6.8362">
        <ele>1605</ele>
        <time>2022-07-16T14:59:16.811Z</time>
      </trkpt>
      <trkpt lat="45.62772" lon="6.83612">
        <ele>1605</ele>
        <time>2022-07-16T14:59:18.003Z</time>
      </trkpt>
      <trkpt lat="45.62783" lon="6.83591">
        <ele>1602</ele>
        <time>2022-07-16T14:59:19.388Z</time>
      </trkpt>
      <trkpt lat="45.62805" lon="6.83537">
        <ele>1597</ele>
        <time>2022-07-16T14:59:22.686Z</time>
      </trkpt>
      <trkpt lat="45.6282" lon="6.83519">
        <ele>1597</ele>
        <time>2022-07-16T14:59:25.291Z</time>
      </trkpt>
      <trkpt lat="45.62825" lon="6.83509">
        <ele>1596</ele>
        <time>2022-07-16T14:59:25.939Z</time>
      </trkpt>
      <trkpt lat="45.62826" lon="6.83502">
        <ele>1594</ele>
        <time>2022-07-16T14:59:26.317Z</time>
      </trkpt>
      <trkpt lat="45.62821" lon="6.83493">
        <ele>1590</ele>
        <time>2022-07-16T14:59:26.923Z</time>
      </trkpt>
      <trkpt lat="45.62814" lon="6.83492">
        <ele>1587</ele>
        <time>2022-07-16T14:59:27.454Z</time>
      </trkpt>
      <trkpt lat="45.62805" lon="6.83501">
        <ele>1587</ele>
        <time>2022-07-16T14:59:28.915Z</time>
      </trkpt>
      <trkpt lat="45.62781" lon="6.83556">
        <ele>1592</ele>
        <time>2022-07-16T14:59:46.340Z</time>
      </trkpt>
      <trkpt lat="45.62765" lon="6.83584">
        <ele>1592</ele>
        <time>2022-07-16T14:59:49.703Z</time>
      </trkpt>
      <trkpt lat="45.62751" lon="6.83603">
        <ele>1593</ele>
        <time>2022-07-16T14:59:54.245Z</time>
      </trkpt>
      <trkpt lat="45.6271" lon="6.83639">
        <ele>1591</ele>
        <time>2022-07-16T14:59:58.353Z</time>
      </trkpt>
      <trkpt lat="45.6267" lon="6.83665">
        <ele>1586</ele>
        <time>2022-07-16T15:00:01.670Z</time>
      </trkpt>
      <trkpt lat="45.62645" lon="6.83697">
        <ele>1585</ele>
        <time>2022-07-16T15:00:04.889Z</time>
      </trkpt>
      <trkpt lat="45.62622" lon="6.83753">
        <ele>1586</ele>
        <time>2022-07-16T15:00:12.455Z</time>
      </trkpt>
      <trkpt lat="45.62609" lon="6.83778">
        <ele>1588</ele>
        <time>2022-07-16T15:00:19.432Z</time>
      </trkpt>
      <trkpt lat="45.62585" lon="6.83802">
        <ele>1584</ele>
        <time>2022-07-16T15:00:21.642Z</time>
      </trkpt>
      <trkpt lat="45.62565" lon="6.83836">
        <ele>1585</ele>
        <time>2022-07-16T15:00:27.502Z</time>
      </trkpt>
      <trkpt lat="45.62548" lon="6.83857">
        <ele>1586</ele>
        <time>2022-07-16T15:00:32.544Z</time>
      </trkpt>
      <trkpt lat="45.62534" lon="6.83868">
        <ele>1585</ele>
        <time>2022-07-16T15:00:33.684Z</time>
      </trkpt>
      <trkpt lat="45.62516" lon="6.83878">
        <ele>1584</ele>
        <time>2022-07-16T15:00:35.189Z</time>
      </trkpt>
      <trkpt lat="45.62473" lon="6.83874">
        <ele>1570</ele>
        <time>2022-07-16T15:00:38.441Z</time>
      </trkpt>
      <trkpt lat="45.62458" lon="6.83875">
        <ele>1567</ele>
        <time>2022-07-16T15:00:39.574Z</time>
      </trkpt>
      <trkpt lat="45.62449" lon="6.83878">
        <ele>1566</ele>
        <time>2022-07-16T15:00:40.272Z</time>
      </trkpt>
      <trkpt lat="45.62411" lon="6.83902">
        <ele>1565</ele>
        <time>2022-07-16T15:00:44.514Z</time>
      </trkpt>
      <trkpt lat="45.62382" lon="6.83935">
        <ele>1562</ele>
        <time>2022-07-16T15:00:47.311Z</time>
      </trkpt>
      <trkpt lat="45.6235" lon="6.83991">
        <ele>1562</ele>
        <time>2022-07-16T15:00:54.037Z</time>
      </trkpt>
      <trkpt lat="45.62315" lon="6.84034">
        <ele>1563</ele>
        <time>2022-07-16T15:01:01.693Z</time>
      </trkpt>
      <trkpt lat="45.62299" lon="6.84046">
        <ele>1562</ele>
        <time>2022-07-16T15:01:03.060Z</time>
      </trkpt>
      <trkpt lat="45.62244" lon="6.84062">
        <ele>1552</ele>
        <time>2022-07-16T15:01:07.296Z</time>
      </trkpt>
      <trkpt lat="45.622" lon="6.84088">
        <ele>1547</ele>
        <time>2022-07-16T15:01:10.889Z</time>
      </trkpt>
      <trkpt lat="45.62169" lon="6.84147">
        <ele>1555</ele>
        <time>2022-07-16T15:01:37.363Z</time>
      </trkpt>
      <trkpt lat="45.62122" lon="6.84197">
        <ele>1548</ele>
        <time>2022-07-16T15:01:41.785Z</time>
      </trkpt>
      <trkpt lat="45.62094" lon="6.84246">
        <ele>1548</ele>
        <time>2022-07-16T15:01:47.670Z</time>
      </trkpt>
      <trkpt lat="45.62054" lon="6.84334">
        <ele>1545</ele>
        <time>2022-07-16T15:01:53.979Z</time>
      </trkpt>
      <trkpt lat="45.62035" lon="6.84392">
        <ele>1546</ele>
        <time>2022-07-16T15:02:01.468Z</time>
      </trkpt>
      <trkpt lat="45.61991" lon="6.84472">
        <ele>1540</ele>
        <time>2022-07-16T15:02:06.840Z</time>
      </trkpt>
      <trkpt lat="45.61982" lon="6.84508">
        <ele>1542</ele>
        <time>2022-07-16T15:02:14.264Z</time>
      </trkpt>
      <trkpt lat="45.61976" lon="6.84514">
        <ele>1541</ele>
        <time>2022-07-16T15:02:14.817Z</time>
      </trkpt>
      <trkpt lat="45.6197" lon="6.84514">
        <ele>1538</ele>
        <time>2022-07-16T15:02:15.269Z</time>
      </trkpt>
      <trkpt lat="45.61967" lon="6.84512">
        <ele>1536</ele>
        <time>2022-07-16T15:02:15.519Z</time>
      </trkpt>
      <trkpt lat="45.61965" lon="6.84502">
        <ele>1534</ele>
        <time>2022-07-16T15:02:16.068Z</time>
      </trkpt>
      <trkpt lat="45.61966" lon="6.84494">
        <ele>1533</ele>
        <time>2022-07-16T15:02:16.497Z</time>
      </trkpt>
      <trkpt lat="45.61983" lon="6.84452">
        <ele>1533</ele>
        <time>2022-07-16T15:02:21.011Z</time>
      </trkpt>
      <trkpt lat="45.62018" lon="6.84388">
        <ele>1537</ele>
        <time>2022-07-16T15:02:36.262Z</time>
      </trkpt>
      <trkpt lat="45.62062" lon="6.84235">
        <ele>1532</ele>
        <time>2022-07-16T15:02:45.991Z</time>
      </trkpt>
      <trkpt lat="45.62094" lon="6.84146">
        <ele>1524</ele>
        <time>2022-07-16T15:02:51.274Z</time>
      </trkpt>
      <trkpt lat="45.62137" lon="6.84094">
        <ele>1524</ele>
        <time>2022-07-16T15:02:58.764Z</time>
      </trkpt>
      <trkpt lat="45.62247" lon="6.83942">
        <ele>1514</ele>
        <time>2022-07-16T15:03:09.446Z</time>
      </trkpt>
      <trkpt lat="45.62269" lon="6.83897">
        <ele>1511</ele>
        <time>2022-07-16T15:03:12.344Z</time>
      </trkpt>
      <trkpt lat="45.62285" lon="6.83846">
        <ele>1507</ele>
        <time>2022-07-16T15:03:15.294Z</time>
      </trkpt>
      <trkpt lat="45.62294" lon="6.83822">
        <ele>1504</ele>
        <time>2022-07-16T15:03:16.732Z</time>
      </trkpt>
      <trkpt lat="45.62302" lon="6.83808">
        <ele>1503</ele>
        <time>2022-07-16T15:03:17.686Z</time>
      </trkpt>
      <trkpt lat="45.62316" lon="6.83795">
        <ele>1503</ele>
        <time>2022-07-16T15:03:19.906Z</time>
      </trkpt>
      <trkpt lat="45.62362" lon="6.83767">
        <ele>1509</ele>
        <time>2022-07-16T15:03:41.384Z</time>
      </trkpt>
      <trkpt lat="45.62364" lon="6.83768">
        <ele>1509</ele>
        <time>2022-07-16T15:03:41.666Z</time>
      </trkpt>
      <trkpt lat="45.6237" lon="6.83756">
        <ele>1507</ele>
        <time>2022-07-16T15:03:42.445Z</time>
      </trkpt>
      <trkpt lat="45.62374" lon="6.83737">
        <ele>1504</ele>
        <time>2022-07-16T15:03:43.492Z</time>
      </trkpt>
      <trkpt lat="45.62381" lon="6.83719">
        <ele>1503</ele>
        <time>2022-07-16T15:03:44.579Z</time>
      </trkpt>
      <trkpt lat="45.62385" lon="6.83713">
        <ele>1503</ele>
        <time>2022-07-16T15:03:45.350Z</time>
      </trkpt>
      <trkpt lat="45.62406" lon="6.83697">
        <ele>1505</ele>
        <time>2022-07-16T15:03:52.473Z</time>
      </trkpt>
      <trkpt lat="45.62412" lon="6.83687">
        <ele>1505</ele>
        <time>2022-07-16T15:03:53.698Z</time>
      </trkpt>
      <trkpt lat="45.62426" lon="6.83641">
        <ele>1501</ele>
        <time>2022-07-16T15:03:56.346Z</time>
      </trkpt>
      <trkpt lat="45.62427" lon="6.83605">
        <ele>1494</ele>
        <time>2022-07-16T15:03:58.248Z</time>
      </trkpt>
      <trkpt lat="45.62429" lon="6.83598">
        <ele>1493</ele>
        <time>2022-07-16T15:03:58.647Z</time>
      </trkpt>
      <trkpt lat="45.6244" lon="6.83585">
        <ele>1495</ele>
        <time>2022-07-16T15:04:05.967Z</time>
      </trkpt>
      <trkpt lat="45.6246" lon="6.8357">
        <ele>1497</ele>
        <time>2022-07-16T15:04:12.994Z</time>
      </trkpt>
      <trkpt lat="45.62547" lon="6.83493">
        <ele>1497</ele>
        <time>2022-07-16T15:04:26.601Z</time>
      </trkpt>
      <trkpt lat="45.62564" lon="6.83472">
        <ele>1497</ele>
        <time>2022-07-16T15:04:29.588Z</time>
      </trkpt>
      <trkpt lat="45.62568" lon="6.83463">
        <ele>1496</ele>
        <time>2022-07-16T15:04:30.151Z</time>
      </trkpt>
      <trkpt lat="45.62574" lon="6.83428">
        <ele>1489</ele>
        <time>2022-07-16T15:04:32.053Z</time>
      </trkpt>
      <trkpt lat="45.62577" lon="6.8339">
        <ele>1482</ele>
        <time>2022-07-16T15:04:34.072Z</time>
      </trkpt>
      <trkpt lat="45.62583" lon="6.83367">
        <ele>1480</ele>
        <time>2022-07-16T15:04:35.368Z</time>
      </trkpt>
      <trkpt lat="45.62628" lon="6.83323">
        <ele>1487</ele>
        <time>2022-07-16T15:05:01.436Z</time>
      </trkpt>
      <trkpt lat="45.62635" lon="6.8331">
        <ele>1487</ele>
        <time>2022-07-16T15:05:02.962Z</time>
      </trkpt>
      <trkpt lat="45.62685" lon="6.83163">
        <ele>1476</ele>
        <time>2022-07-16T15:05:11.590Z</time>
      </trkpt>
      <trkpt lat="45.6269" lon="6.83106">
        <ele>1473</ele>
        <time>2022-07-16T15:05:14.623Z</time>
      </trkpt>
      <trkpt lat="45.62706" lon="6.83048">
        <ele>1476</ele>
        <time>2022-07-16T15:05:26.186Z</time>
      </trkpt>
      <trkpt lat="45.62707" lon="6.83036">
        <ele>1476</ele>
        <time>2022-07-16T15:05:27.310Z</time>
      </trkpt>
      <trkpt lat="45.62704" lon="6.83019">
        <ele>1474</ele>
        <time>2022-07-16T15:05:28.236Z</time>
      </trkpt>
      <trkpt lat="45.62686" lon="6.82964">
        <ele>1468</ele>
        <time>2022-07-16T15:05:31.441Z</time>
      </trkpt>
      <trkpt lat="45.62654" lon="6.82883">
        <ele>1461</ele>
        <time>2022-07-16T15:05:36.351Z</time>
      </trkpt>
      <trkpt lat="45.62639" lon="6.82835">
        <ele>1457</ele>
        <time>2022-07-16T15:05:39.126Z</time>
      </trkpt>
      <trkpt lat="45.62636" lon="6.82819">
        <ele>1455</ele>
        <time>2022-07-16T15:05:40.001Z</time>
      </trkpt>
      <trkpt lat="45.62636" lon="6.82805">
        <ele>1453</ele>
        <time>2022-07-16T15:05:40.740Z</time>
      </trkpt>
      <trkpt lat="45.62639" lon="6.82793">
        <ele>1453</ele>
        <time>2022-07-16T15:05:41.925Z</time>
      </trkpt>
      <trkpt lat="45.62646" lon="6.82785">
        <ele>1454</ele>
        <time>2022-07-16T15:05:45.418Z</time>
      </trkpt>
      <trkpt lat="45.62679" lon="6.82763">
        <ele>1458</ele>
        <time>2022-07-16T15:05:59.349Z</time>
      </trkpt>
      <trkpt lat="45.62709" lon="6.82751">
        <ele>1461</ele>
        <time>2022-07-16T15:06:09.747Z</time>
      </trkpt>
      <trkpt lat="45.62718" lon="6.82741">
        <ele>1461</ele>
        <time>2022-07-16T15:06:11.263Z</time>
      </trkpt>
      <trkpt lat="45.62736" lon="6.82706">
        <ele>1456</ele>
        <time>2022-07-16T15:06:13.556Z</time>
      </trkpt>
      <trkpt lat="45.62744" lon="6.82698">
        <ele>1455</ele>
        <time>2022-07-16T15:06:14.293Z</time>
      </trkpt>
      <trkpt lat="45.62753" lon="6.82694">
        <ele>1455</ele>
        <time>2022-07-16T15:06:15.546Z</time>
      </trkpt>
      <trkpt lat="45.62764" lon="6.82695">
        <ele>1456</ele>
        <time>2022-07-16T15:06:19.042Z</time>
      </trkpt>
      <trkpt lat="45.62801" lon="6.82707">
        <ele>1461</ele>
        <time>2022-07-16T15:06:38.051Z</time>
      </trkpt>
      <trkpt lat="45.62811" lon="6.82708">
        <ele>1461</ele>
        <time>2022-07-16T15:06:39.384Z</time>
      </trkpt>
      <trkpt lat="45.62817" lon="6.82705">
        <ele>1461</ele>
        <time>2022-07-16T15:06:40.230Z</time>
      </trkpt>
      <trkpt lat="45.62821" lon="6.8269">
        <ele>1460</ele>
        <time>2022-07-16T15:06:41.077Z</time>
      </trkpt>
      <trkpt lat="45.62819" lon="6.82684">
        <ele>1459</ele>
        <time>2022-07-16T15:06:41.428Z</time>
      </trkpt>
      <trkpt lat="45.62812" lon="6.82678">
        <ele>1458</ele>
        <time>2022-07-16T15:06:42.044Z</time>
      </trkpt>
      <trkpt lat="45.62762" lon="6.82667">
        <ele>1451</ele>
        <time>2022-07-16T15:06:45.862Z</time>
      </trkpt>
      <trkpt lat="45.6274" lon="6.82665">
        <ele>1448</ele>
        <time>2022-07-16T15:06:47.526Z</time>
      </trkpt>
      <trkpt lat="45.6273" lon="6.82669">
        <ele>1448</ele>
        <time>2022-07-16T15:06:48.907Z</time>
      </trkpt>
      <trkpt lat="45.62704" lon="6.82687">
        <ele>1449</ele>
        <time>2022-07-16T15:06:54.532Z</time>
      </trkpt>
      <trkpt lat="45.62692" lon="6.82691">
        <ele>1448</ele>
        <time>2022-07-16T15:06:55.462Z</time>
      </trkpt>
      <trkpt lat="45.62649" lon="6.82695">
        <ele>1443</ele>
        <time>2022-07-16T15:06:58.714Z</time>
      </trkpt>
      <trkpt lat="45.62628" lon="6.82702">
        <ele>1440</ele>
        <time>2022-07-16T15:07:00.342Z</time>
      </trkpt>
      <trkpt lat="45.62598" lon="6.82722">
        <ele>1437</ele>
        <time>2022-07-16T15:07:02.840Z</time>
      </trkpt>
      <trkpt lat="45.62579" lon="6.82748">
        <ele>1436</ele>
        <time>2022-07-16T15:07:05.162Z</time>
      </trkpt>
      <trkpt lat="45.62572" lon="6.82761">
        <ele>1434</ele>
        <time>2022-07-16T15:07:06.028Z</time>
      </trkpt>
      <trkpt lat="45.62566" lon="6.82791">
        <ele>1432</ele>
        <time>2022-07-16T15:07:07.675Z</time>
      </trkpt>
      <trkpt lat="45.62566" lon="6.82826">
        <ele>1432</ele>
        <time>2022-07-16T15:07:10.931Z</time>
      </trkpt>
      <trkpt lat="45.62577" lon="6.82874">
        <ele>1434</ele>
        <time>2022-07-16T15:07:19.517Z</time>
      </trkpt>
      <trkpt lat="45.62578" lon="6.82888">
        <ele>1434</ele>
        <time>2022-07-16T15:07:20.826Z</time>
      </trkpt>
      <trkpt lat="45.62577" lon="6.82905">
        <ele>1432</ele>
        <time>2022-07-16T15:07:21.726Z</time>
      </trkpt>
      <trkpt lat="45.62563" lon="6.82964">
        <ele>1425</ele>
        <time>2022-07-16T15:07:25.015Z</time>
      </trkpt>
      <trkpt lat="45.62564" lon="6.83014">
        <ele>1424</ele>
        <time>2022-07-16T15:07:28.415Z</time>
      </trkpt>
      <trkpt lat="45.62577" lon="6.83102">
        <ele>1423</ele>
        <time>2022-07-16T15:07:35.485Z</time>
      </trkpt>
      <trkpt lat="45.62575" lon="6.83135">
        <ele>1424</ele>
        <time>2022-07-16T15:07:40.580Z</time>
      </trkpt>
      <trkpt lat="45.6257" lon="6.8315">
        <ele>1424</ele>
        <time>2022-07-16T15:07:42.125Z</time>
      </trkpt>
      <trkpt lat="45.62563" lon="6.83161">
        <ele>1422</ele>
        <time>2022-07-16T15:07:42.910Z</time>
      </trkpt>
      <trkpt lat="45.62516" lon="6.83199">
        <ele>1415</ele>
        <time>2022-07-16T15:07:46.986Z</time>
      </trkpt>
      <trkpt lat="45.62508" lon="6.83198">
        <ele>1412</ele>
        <time>2022-07-16T15:07:47.592Z</time>
      </trkpt>
      <trkpt lat="45.62504" lon="6.83192">
        <ele>1410</ele>
        <time>2022-07-16T15:07:48.029Z</time>
      </trkpt>
      <trkpt lat="45.62506" lon="6.83174">
        <ele>1407</ele>
        <time>2022-07-16T15:07:48.991Z</time>
      </trkpt>
      <trkpt lat="45.62537" lon="6.83153">
        <ele>1414</ele>
        <time>2022-07-16T15:08:06.587Z</time>
      </trkpt>
      <trkpt lat="45.62545" lon="6.83144">
        <ele>1415</ele>
        <time>2022-07-16T15:08:10.048Z</time>
      </trkpt>
      <trkpt lat="45.62553" lon="6.83122">
        <ele>1416</ele>
        <time>2022-07-16T15:08:14.294Z</time>
      </trkpt>
      <trkpt lat="45.62553" lon="6.83092">
        <ele>1413</ele>
        <time>2022-07-16T15:08:15.877Z</time>
      </trkpt>
      <trkpt lat="45.62545" lon="6.83062">
        <ele>1412</ele>
        <time>2022-07-16T15:08:17.742Z</time>
      </trkpt>
      <trkpt lat="45.62539" lon="6.83048">
        <ele>1410</ele>
        <time>2022-07-16T15:08:18.609Z</time>
      </trkpt>
      <trkpt lat="45.62515" lon="6.83015">
        <ele>1403</ele>
        <time>2022-07-16T15:08:21.122Z</time>
      </trkpt>
      <trkpt lat="45.6251" lon="6.83003">
        <ele>1402</ele>
        <time>2022-07-16T15:08:21.859Z</time>
      </trkpt>
      <trkpt lat="45.62511" lon="6.82901">
        <ele>1405</ele>
        <time>2022-07-16T15:08:37.291Z</time>
      </trkpt>
      <trkpt lat="45.62516" lon="6.82881">
        <ele>1408</ele>
        <time>2022-07-16T15:08:44.910Z</time>
      </trkpt>
      <trkpt lat="45.62519" lon="6.82834">
        <ele>1411</ele>
        <time>2022-07-16T15:08:55.394Z</time>
      </trkpt>
      <trkpt lat="45.62517" lon="6.82794">
        <ele>1411</ele>
        <time>2022-07-16T15:08:59.124Z</time>
      </trkpt>
      <trkpt lat="45.62508" lon="6.82763">
        <ele>1409</ele>
        <time>2022-07-16T15:09:00.895Z</time>
      </trkpt>
      <trkpt lat="45.62485" lon="6.8272">
        <ele>1397</ele>
        <time>2022-07-16T15:09:03.753Z</time>
      </trkpt>
      <trkpt lat="45.62482" lon="6.82705">
        <ele>1394</ele>
        <time>2022-07-16T15:09:04.576Z</time>
      </trkpt>
      <trkpt lat="45.62482" lon="6.82692">
        <ele>1393</ele>
        <time>2022-07-16T15:09:05.263Z</time>
      </trkpt>
      <trkpt lat="45.62491" lon="6.82666">
        <ele>1396</ele>
        <time>2022-07-16T15:09:15.670Z</time>
      </trkpt>
      <trkpt lat="45.62505" lon="6.8264">
        <ele>1398</ele>
        <time>2022-07-16T15:09:22.723Z</time>
      </trkpt>
      <trkpt lat="45.62527" lon="6.82584">
        <ele>1395</ele>
        <time>2022-07-16T15:09:26.113Z</time>
      </trkpt>
      <trkpt lat="45.62544" lon="6.82556">
        <ele>1392</ele>
        <time>2022-07-16T15:09:28.070Z</time>
      </trkpt>
      <trkpt lat="45.62562" lon="6.82535">
        <ele>1389</ele>
        <time>2022-07-16T15:09:29.824Z</time>
      </trkpt>
      <trkpt lat="45.62583" lon="6.82517">
        <ele>1388</ele>
        <time>2022-07-16T15:09:31.929Z</time>
      </trkpt>
      <trkpt lat="45.62679" lon="6.82447">
        <ele>1383</ele>
        <time>2022-07-16T15:09:40.732Z</time>
      </trkpt>
      <trkpt lat="45.62705" lon="6.82437">
        <ele>1383</ele>
        <time>2022-07-16T15:09:44.312Z</time>
      </trkpt>
      <trkpt lat="45.62739" lon="6.82436">
        <ele>1386</ele>
        <time>2022-07-16T15:09:54.862Z</time>
      </trkpt>
      <trkpt lat="45.62749" lon="6.82432">
        <ele>1386</ele>
        <time>2022-07-16T15:09:56.243Z</time>
      </trkpt>
      <trkpt lat="45.62787" lon="6.82408">
        <ele>1380</ele>
        <time>2022-07-16T15:09:59.378Z</time>
      </trkpt>
      <trkpt lat="45.62821" lon="6.82394">
        <ele>1378</ele>
        <time>2022-07-16T15:10:02.028Z</time>
      </trkpt>
      <trkpt lat="45.62869" lon="6.82383">
        <ele>1380</ele>
        <time>2022-07-16T15:10:12.403Z</time>
      </trkpt>
      <trkpt lat="45.62893" lon="6.8236">
        <ele>1375</ele>
        <time>2022-07-16T15:10:14.583Z</time>
      </trkpt>
      <trkpt lat="45.62909" lon="6.82318">
        <ele>1366</ele>
        <time>2022-07-16T15:10:17.108Z</time>
      </trkpt>
      <trkpt lat="45.62921" lon="6.82295">
        <ele>1362</ele>
        <time>2022-07-16T15:10:18.622Z</time>
      </trkpt>
      <trkpt lat="45.62931" lon="6.82287">
        <ele>1360</ele>
        <time>2022-07-16T15:10:19.487Z</time>
      </trkpt>
      <trkpt lat="45.62971" lon="6.82275">
        <ele>1358</ele>
        <time>2022-07-16T15:10:22.752Z</time>
      </trkpt>
      <trkpt lat="45.62975" lon="6.82268">
        <ele>1357</ele>
        <time>2022-07-16T15:10:23.229Z</time>
      </trkpt>
      <trkpt lat="45.62975" lon="6.82258">
        <ele>1355</ele>
        <time>2022-07-16T15:10:23.757Z</time>
      </trkpt>
      <trkpt lat="45.62965" lon="6.82248">
        <ele>1353</ele>
        <time>2022-07-16T15:10:24.678Z</time>
      </trkpt>
      <trkpt lat="45.62938" lon="6.82256">
        <ele>1354</ele>
        <time>2022-07-16T15:10:30.169Z</time>
      </trkpt>
      <trkpt lat="45.62929" lon="6.82263">
        <ele>1355</ele>
        <time>2022-07-16T15:10:33.631Z</time>
      </trkpt>
      <trkpt lat="45.62907" lon="6.82293">
        <ele>1359</ele>
        <time>2022-07-16T15:10:48.818Z</time>
      </trkpt>
      <trkpt lat="45.62882" lon="6.82336">
        <ele>1365</ele>
        <time>2022-07-16T15:11:08.877Z</time>
      </trkpt>
      <trkpt lat="45.62865" lon="6.82344">
        <ele>1365</ele>
        <time>2022-07-16T15:11:11.257Z</time>
      </trkpt>
      <trkpt lat="45.62821" lon="6.82352">
        <ele>1361</ele>
        <time>2022-07-16T15:11:14.604Z</time>
      </trkpt>
      <trkpt lat="45.62774" lon="6.82357">
        <ele>1358</ele>
        <time>2022-07-16T15:11:17.939Z</time>
      </trkpt>
      <trkpt lat="45.62719" lon="6.82354">
        <ele>1352</ele>
        <time>2022-07-16T15:11:22.093Z</time>
      </trkpt>
      <trkpt lat="45.62675" lon="6.82362">
        <ele>1352</ele>
        <time>2022-07-16T15:11:27.992Z</time>
      </trkpt>
      <trkpt lat="45.62664" lon="6.82362">
        <ele>1351</ele>
        <time>2022-07-16T15:11:28.822Z</time>
      </trkpt>
      <trkpt lat="45.62654" lon="6.82358">
        <ele>1348</ele>
        <time>2022-07-16T15:11:29.606Z</time>
      </trkpt>
      <trkpt lat="45.62645" lon="6.8235">
        <ele>1343</ele>
        <time>2022-07-16T15:11:30.406Z</time>
      </trkpt>
      <trkpt lat="45.62625" lon="6.82344">
        <ele>1339</ele>
        <time>2022-07-16T15:11:31.948Z</time>
      </trkpt>
      <trkpt lat="45.62615" lon="6.82345">
        <ele>1338</ele>
        <time>2022-07-16T15:11:32.705Z</time>
      </trkpt>
      <trkpt lat="45.62607" lon="6.82349">
        <ele>1338</ele>
        <time>2022-07-16T15:11:33.832Z</time>
      </trkpt>
      <trkpt lat="45.62589" lon="6.82365">
        <ele>1340</ele>
        <time>2022-07-16T15:11:40.780Z</time>
      </trkpt>
      <trkpt lat="45.6258" lon="6.82369">
        <ele>1340</ele>
        <time>2022-07-16T15:11:42.033Z</time>
      </trkpt>
      <trkpt lat="45.62559" lon="6.82372">
        <ele>1338</ele>
        <time>2022-07-16T15:11:43.626Z</time>
      </trkpt>
      <trkpt lat="45.62495" lon="6.82393">
        <ele>1331</ele>
        <time>2022-07-16T15:11:48.582Z</time>
      </trkpt>
      <trkpt lat="45.62476" lon="6.82393">
        <ele>1328</ele>
        <time>2022-07-16T15:11:50.016Z</time>
      </trkpt>
      <trkpt lat="45.62448" lon="6.82381">
        <ele>1320</ele>
        <time>2022-07-16T15:11:52.222Z</time>
      </trkpt>
      <trkpt lat="45.6244" lon="6.82382">
        <ele>1319</ele>
        <time>2022-07-16T15:11:52.828Z</time>
      </trkpt>
      <trkpt lat="45.62433" lon="6.82387">
        <ele>1319</ele>
        <time>2022-07-16T15:11:53.869Z</time>
      </trkpt>
      <trkpt lat="45.62413" lon="6.82425">
        <ele>1323</ele>
        <time>2022-07-16T15:12:08.202Z</time>
      </trkpt>
      <trkpt lat="45.62406" lon="6.82434">
        <ele>1323</ele>
        <time>2022-07-16T15:12:09.453Z</time>
      </trkpt>
      <trkpt lat="45.62363" lon="6.82474">
        <ele>1314</ele>
        <time>2022-07-16T15:12:13.325Z</time>
      </trkpt>
      <trkpt lat="45.62356" lon="6.82484">
        <ele>1313</ele>
        <time>2022-07-16T15:12:14.072Z</time>
      </trkpt>
      <trkpt lat="45.62328" lon="6.82537">
        <ele>1309</ele>
        <time>2022-07-16T15:12:17.578Z</time>
      </trkpt>
      <trkpt lat="45.62315" lon="6.8257">
        <ele>1307</ele>
        <time>2022-07-16T15:12:19.577Z</time>
      </trkpt>
      <trkpt lat="45.62312" lon="6.82588">
        <ele>1307</ele>
        <time>2022-07-16T15:12:21.298Z</time>
      </trkpt>
      <trkpt lat="45.62312" lon="6.82625">
        <ele>1307</ele>
        <time>2022-07-16T15:12:24.740Z</time>
      </trkpt>
      <trkpt lat="45.62319" lon="6.8269">
        <ele>1311</ele>
        <time>2022-07-16T15:12:38.854Z</time>
      </trkpt>
      <trkpt lat="45.62318" lon="6.82725">
        <ele>1311</ele>
        <time>2022-07-16T15:12:42.112Z</time>
      </trkpt>
      <trkpt lat="45.62311" lon="6.82765">
        <ele>1309</ele>
        <time>2022-07-16T15:12:44.288Z</time>
      </trkpt>
      <trkpt lat="45.62294" lon="6.82834">
        <ele>1305</ele>
        <time>2022-07-16T15:12:48.150Z</time>
      </trkpt>
      <trkpt lat="45.62289" lon="6.82839">
        <ele>1303</ele>
        <time>2022-07-16T15:12:48.610Z</time>
      </trkpt>
      <trkpt lat="45.62284" lon="6.82839">
        <ele>1300</ele>
        <time>2022-07-16T15:12:48.988Z</time>
      </trkpt>
      <trkpt lat="45.62278" lon="6.82834">
        <ele>1297</ele>
        <time>2022-07-16T15:12:49.512Z</time>
      </trkpt>
      <trkpt lat="45.62276" lon="6.82825">
        <ele>1296</ele>
        <time>2022-07-16T15:12:50.010Z</time>
      </trkpt>
      <trkpt lat="45.62284" lon="6.82796">
        <ele>1298</ele>
        <time>2022-07-16T15:12:56.988Z</time>
      </trkpt>
      <trkpt lat="45.62301" lon="6.82753">
        <ele>1303</ele>
        <time>2022-07-16T15:13:14.708Z</time>
      </trkpt>
      <trkpt lat="45.62303" lon="6.82707">
        <ele>1304</ele>
        <time>2022-07-16T15:13:20.697Z</time>
      </trkpt>
      <trkpt lat="45.62287" lon="6.82644">
        <ele>1296</ele>
        <time>2022-07-16T15:13:24.235Z</time>
      </trkpt>
      <trkpt lat="45.62277" lon="6.82615">
        <ele>1291</ele>
        <time>2022-07-16T15:13:25.941Z</time>
      </trkpt>
      <trkpt lat="45.62277" lon="6.82587">
        <ele>1291</ele>
        <time>2022-07-16T15:13:28.546Z</time>
      </trkpt>
      <trkpt lat="45.62292" lon="6.82521">
        <ele>1291</ele>
        <time>2022-07-16T15:13:35.000Z</time>
      </trkpt>
      <trkpt lat="45.62308" lon="6.82473">
        <ele>1292</ele>
        <time>2022-07-16T15:13:41.562Z</time>
      </trkpt>
      <trkpt lat="45.62362" lon="6.82347">
        <ele>1288</ele>
        <time>2022-07-16T15:13:50.630Z</time>
      </trkpt>
      <trkpt lat="45.62384" lon="6.82302">
        <ele>1283</ele>
        <time>2022-07-16T15:13:53.528Z</time>
      </trkpt>
      <trkpt lat="45.62408" lon="6.82269">
        <ele>1281</ele>
        <time>2022-07-16T15:13:55.951Z</time>
      </trkpt>
      <trkpt lat="45.62435" lon="6.82238">
        <ele>1279</ele>
        <time>2022-07-16T15:13:58.519Z</time>
      </trkpt>
      <trkpt lat="45.62449" lon="6.82226">
        <ele>1278</ele>
        <time>2022-07-16T15:13:59.696Z</time>
      </trkpt>
      <trkpt lat="45.62474" lon="6.82218">
        <ele>1280</ele>
        <time>2022-07-16T15:14:06.995Z</time>
      </trkpt>
      <trkpt lat="45.62496" lon="6.82216">
        <ele>1285</ele>
        <time>2022-07-16T15:14:18.303Z</time>
      </trkpt>
      <trkpt lat="45.62529" lon="6.822">
        <ele>1281</ele>
        <time>2022-07-16T15:14:20.933Z</time>
      </trkpt>
      <trkpt lat="45.62547" lon="6.82188">
        <ele>1277</ele>
        <time>2022-07-16T15:14:22.432Z</time>
      </trkpt>
      <trkpt lat="45.62566" lon="6.8218">
        <ele>1275</ele>
        <time>2022-07-16T15:14:23.927Z</time>
      </trkpt>
      <trkpt lat="45.62577" lon="6.8218">
        <ele>1276</ele>
        <time>2022-07-16T15:14:27.421Z</time>
      </trkpt>
      <trkpt lat="45.62609" lon="6.82186">
        <ele>1280</ele>
        <time>2022-07-16T15:14:41.979Z</time>
      </trkpt>
      <trkpt lat="45.62638" lon="6.82175">
        <ele>1278</ele>
        <time>2022-07-16T15:14:44.053Z</time>
      </trkpt>
      <trkpt lat="45.62681" lon="6.82147">
        <ele>1274</ele>
        <time>2022-07-16T15:14:47.619Z</time>
      </trkpt>
      <trkpt lat="45.62697" lon="6.82127">
        <ele>1271</ele>
        <time>2022-07-16T15:14:49.223Z</time>
      </trkpt>
      <trkpt lat="45.62708" lon="6.82099">
        <ele>1264</ele>
        <time>2022-07-16T15:14:50.918Z</time>
      </trkpt>
      <trkpt lat="45.62724" lon="6.82084">
        <ele>1263</ele>
        <time>2022-07-16T15:14:52.403Z</time>
      </trkpt>
      <trkpt lat="45.62809" lon="6.82045">
        <ele>1258</ele>
        <time>2022-07-16T15:14:59.118Z</time>
      </trkpt>
      <trkpt lat="45.62837" lon="6.82039">
        <ele>1258</ele>
        <time>2022-07-16T15:15:02.883Z</time>
      </trkpt>
      <trkpt lat="45.62868" lon="6.82023">
        <ele>1260</ele>
        <time>2022-07-16T15:15:11.124Z</time>
      </trkpt>
      <trkpt lat="45.62875" lon="6.82016">
        <ele>1259</ele>
        <time>2022-07-16T15:15:11.768Z</time>
      </trkpt>
      <trkpt lat="45.62877" lon="6.82003">
        <ele>1255</ele>
        <time>2022-07-16T15:15:12.471Z</time>
      </trkpt>
      <trkpt lat="45.62868" lon="6.81996">
        <ele>1251</ele>
        <time>2022-07-16T15:15:13.244Z</time>
      </trkpt>
      <trkpt lat="45.62831" lon="6.82015">
        <ele>1249</ele>
        <time>2022-07-16T15:15:16.332Z</time>
      </trkpt>
      <trkpt lat="45.62801" lon="6.82027">
        <ele>1251</ele>
        <time>2022-07-16T15:15:24.319Z</time>
      </trkpt>
      <trkpt lat="45.62767" lon="6.82033">
        <ele>1251</ele>
        <time>2022-07-16T15:15:28.875Z</time>
      </trkpt>
      <trkpt lat="45.62742" lon="6.8203">
        <ele>1248</ele>
        <time>2022-07-16T15:15:30.769Z</time>
      </trkpt>
      <trkpt lat="45.62711" lon="6.8202">
        <ele>1241</ele>
        <time>2022-07-16T15:15:33.167Z</time>
      </trkpt>
      <trkpt lat="45.627" lon="6.82022">
        <ele>1240</ele>
        <time>2022-07-16T15:15:34.004Z</time>
      </trkpt>
      <trkpt lat="45.62693" lon="6.82026">
        <ele>1240</ele>
        <time>2022-07-16T15:15:35.007Z</time>
      </trkpt>
      <trkpt lat="45.62659" lon="6.82063">
        <ele>1245</ele>
        <time>2022-07-16T15:15:52.721Z</time>
      </trkpt>
      <trkpt lat="45.62629" lon="6.82083">
        <ele>1245</ele>
        <time>2022-07-16T15:15:57.123Z</time>
      </trkpt>
      <trkpt lat="45.62617" lon="6.82088">
        <ele>1245</ele>
        <time>2022-07-16T15:15:58.786Z</time>
      </trkpt>
      <trkpt lat="45.62581" lon="6.82092">
        <ele>1241</ele>
        <time>2022-07-16T15:16:01.511Z</time>
      </trkpt>
      <trkpt lat="45.62544" lon="6.82093">
        <ele>1237</ele>
        <time>2022-07-16T15:16:04.304Z</time>
      </trkpt>
      <trkpt lat="45.62495" lon="6.82103">
        <ele>1235</ele>
        <time>2022-07-16T15:16:08.577Z</time>
      </trkpt>
      <trkpt lat="45.62457" lon="6.82104">
        <ele>1230</ele>
        <time>2022-07-16T15:16:11.445Z</time>
      </trkpt>
      <trkpt lat="45.62422" lon="6.82116">
        <ele>1230</ele>
        <time>2022-07-16T15:16:16.232Z</time>
      </trkpt>
      <trkpt lat="45.62366" lon="6.82149">
        <ele>1226</ele>
        <time>2022-07-16T15:16:20.440Z</time>
      </trkpt>
      <trkpt lat="45.6229" lon="6.82221">
        <ele>1225</ele>
        <time>2022-07-16T15:16:31.349Z</time>
      </trkpt>
      <trkpt lat="45.62224" lon="6.8227">
        <ele>1213</ele>
        <time>2022-07-16T15:16:36.962Z</time>
      </trkpt>
      <trkpt lat="45.62198" lon="6.82295">
        <ele>1210</ele>
        <time>2022-07-16T15:16:39.326Z</time>
      </trkpt>
      <trkpt lat="45.62166" lon="6.82338">
        <ele>1209</ele>
        <time>2022-07-16T15:16:43.877Z</time>
      </trkpt>
      <trkpt lat="45.62124" lon="6.82384">
        <ele>1201</ele>
        <time>2022-07-16T15:16:47.870Z</time>
      </trkpt>
      <trkpt lat="45.6211" lon="6.82404">
        <ele>1200</ele>
        <time>2022-07-16T15:16:49.429Z</time>
      </trkpt>
      <trkpt lat="45.6208" lon="6.82481">
        <ele>1199</ele>
        <time>2022-07-16T15:16:56.330Z</time>
      </trkpt>
      <trkpt lat="45.62051" lon="6.82543">
        <ele>1194</ele>
        <time>2022-07-16T15:17:00.267Z</time>
      </trkpt>
      <trkpt lat="45.62045" lon="6.82551">
        <ele>1192</ele>
        <time>2022-07-16T15:17:00.886Z</time>
      </trkpt>
      <trkpt lat="45.62038" lon="6.82553">
        <ele>1190</ele>
        <time>2022-07-16T15:17:01.425Z</time>
      </trkpt>
      <trkpt lat="45.62032" lon="6.8255">
        <ele>1187</ele>
        <time>2022-07-16T15:17:01.905Z</time>
      </trkpt>
      <trkpt lat="45.62031" lon="6.8254">
        <ele>1186</ele>
        <time>2022-07-16T15:17:02.438Z</time>
      </trkpt>
      <trkpt lat="45.62034" lon="6.8253">
        <ele>1186</ele>
        <time>2022-07-16T15:17:03.450Z</time>
      </trkpt>
      <trkpt lat="45.62053" lon="6.82499">
        <ele>1191</ele>
        <time>2022-07-16T15:17:18.238Z</time>
      </trkpt>
      <trkpt lat="45.62065" lon="6.82474">
        <ele>1192</ele>
        <time>2022-07-16T15:17:23.079Z</time>
      </trkpt>
      <trkpt lat="45.62119" lon="6.82317">
        <ele>1186</ele>
        <time>2022-07-16T15:17:32.845Z</time>
      </trkpt>
      <trkpt lat="45.62131" lon="6.82301">
        <ele>1186</ele>
        <time>2022-07-16T15:17:35.027Z</time>
      </trkpt>
      <trkpt lat="45.62168" lon="6.82272">
        <ele>1193</ele>
        <time>2022-07-16T15:17:56.671Z</time>
      </trkpt>
      <trkpt lat="45.62183" lon="6.82247">
        <ele>1192</ele>
        <time>2022-07-16T15:17:58.604Z</time>
      </trkpt>
      <trkpt lat="45.62194" lon="6.82216">
        <ele>1190</ele>
        <time>2022-07-16T15:18:00.439Z</time>
      </trkpt>
      <trkpt lat="45.62203" lon="6.82171">
        <ele>1183</ele>
        <time>2022-07-16T15:18:02.910Z</time>
      </trkpt>
      <trkpt lat="45.62208" lon="6.82157">
        <ele>1181</ele>
        <time>2022-07-16T15:18:03.740Z</time>
      </trkpt>
      <trkpt lat="45.62219" lon="6.82134">
        <ele>1177</ele>
        <time>2022-07-16T15:18:05.211Z</time>
      </trkpt>
      <trkpt lat="45.62228" lon="6.82121">
        <ele>1176</ele>
        <time>2022-07-16T15:18:06.176Z</time>
      </trkpt>
      <trkpt lat="45.62248" lon="6.82104">
        <ele>1178</ele>
        <time>2022-07-16T15:18:13.254Z</time>
      </trkpt>
      <trkpt lat="45.62278" lon="6.82086">
        <ele>1181</ele>
        <time>2022-07-16T15:18:23.712Z</time>
      </trkpt>
      <trkpt lat="45.62297" lon="6.82078">
        <ele>1183</ele>
        <time>2022-07-16T15:18:30.627Z</time>
      </trkpt>
      <trkpt lat="45.62304" lon="6.82071">
        <ele>1183</ele>
        <time>2022-07-16T15:18:31.763Z</time>
      </trkpt>
      <trkpt lat="45.6232" lon="6.8203">
        <ele>1173</ele>
        <time>2022-07-16T15:18:34.242Z</time>
      </trkpt>
      <trkpt lat="45.62343" lon="6.81992">
        <ele>1166</ele>
        <time>2022-07-16T15:18:36.894Z</time>
      </trkpt>
      <trkpt lat="45.62374" lon="6.81955">
        <ele>1164</ele>
        <time>2022-07-16T15:18:40.103Z</time>
      </trkpt>
      <trkpt lat="45.62402" lon="6.81927">
        <ele>1163</ele>
        <time>2022-07-16T15:18:43.400Z</time>
      </trkpt>
      <trkpt lat="45.62453" lon="6.81893">
        <ele>1163</ele>
        <time>2022-07-16T15:18:50.884Z</time>
      </trkpt>
      <trkpt lat="45.62527" lon="6.81827">
        <ele>1156</ele>
        <time>2022-07-16T15:18:57.466Z</time>
      </trkpt>
      <trkpt lat="45.6254" lon="6.8182">
        <ele>1155</ele>
        <time>2022-07-16T15:18:58.515Z</time>
      </trkpt>
      <trkpt lat="45.62572" lon="6.81816">
        <ele>1157</ele>
        <time>2022-07-16T15:19:06.637Z</time>
      </trkpt>
      <trkpt lat="45.62585" lon="6.8181">
        <ele>1157</ele>
        <time>2022-07-16T15:19:08.454Z</time>
      </trkpt>
      <trkpt lat="45.62597" lon="6.81799">
        <ele>1155</ele>
        <time>2022-07-16T15:19:09.529Z</time>
      </trkpt>
      <trkpt lat="45.62618" lon="6.81762">
        <ele>1149</ele>
        <time>2022-07-16T15:19:12.045Z</time>
      </trkpt>
      <trkpt lat="45.62649" lon="6.81723">
        <ele>1146</ele>
        <time>2022-07-16T15:19:15.161Z</time>
      </trkpt>
      <trkpt lat="45.62666" lon="6.81692">
        <ele>1145</ele>
        <time>2022-07-16T15:19:17.635Z</time>
      </trkpt>
      <trkpt lat="45.62689" lon="6.81636">
        <ele>1145</ele>
        <time>2022-07-16T15:19:23.675Z</time>
      </trkpt>
      <trkpt lat="45.62706" lon="6.81602">
        <ele>1147</ele>
        <time>2022-07-16T15:19:31.405Z</time>
      </trkpt>
      <trkpt lat="45.62707" lon="6.81594">
        <ele>1147</ele>
        <time>2022-07-16T15:19:32.161Z</time>
      </trkpt>
      <trkpt lat="45.62704" lon="6.81587">
        <ele>1145</ele>
        <time>2022-07-16T15:19:32.594Z</time>
      </trkpt>
      <trkpt lat="45.62699" lon="6.81586">
        <ele>1144</ele>
        <time>2022-07-16T15:19:32.975Z</time>
      </trkpt>
      <trkpt lat="45.62693" lon="6.81589">
        <ele>1142</ele>
        <time>2022-07-16T15:19:33.455Z</time>
      </trkpt>
      <trkpt lat="45.62682" lon="6.81602">
        <ele>1140</ele>
        <time>2022-07-16T15:19:34.532Z</time>
      </trkpt>
      <trkpt lat="45.62638" lon="6.81668">
        <ele>1136</ele>
        <time>2022-07-16T15:19:39.077Z</time>
      </trkpt>
      <trkpt lat="45.62578" lon="6.81722">
        <ele>1134</ele>
        <time>2022-07-16T15:19:45.996Z</time>
      </trkpt>
      <trkpt lat="45.6256" lon="6.81732">
        <ele>1134</ele>
        <time>2022-07-16T15:19:48.564Z</time>
      </trkpt>
      <trkpt lat="45.6255" lon="6.81736">
        <ele>1134</ele>
        <time>2022-07-16T15:19:49.945Z</time>
      </trkpt>
      <trkpt lat="45.62519" lon="6.81739">
        <ele>1131</ele>
        <time>2022-07-16T15:19:52.290Z</time>
      </trkpt>
      <trkpt lat="45.62467" lon="6.81738">
        <ele>1125</ele>
        <time>2022-07-16T15:19:56.215Z</time>
      </trkpt>
      <trkpt lat="45.62417" lon="6.81751">
        <ele>1123</ele>
        <time>2022-07-16T15:20:00.646Z</time>
      </trkpt>
      <trkpt lat="45.62364" lon="6.8177">
        <ele>1118</ele>
        <time>2022-07-16T15:20:04.770Z</time>
      </trkpt>
      <trkpt lat="45.62345" lon="6.81778">
        <ele>1116</ele>
        <time>2022-07-16T15:20:06.265Z</time>
      </trkpt>
      <trkpt lat="45.62336" lon="6.81786">
        <ele>1116</ele>
        <time>2022-07-16T15:20:07.674Z</time>
      </trkpt>
      <trkpt lat="45.62329" lon="6.81793">
        <ele>1116</ele>
        <time>2022-07-16T15:20:08.810Z</time>
      </trkpt>
      <trkpt lat="45.62307" lon="6.81833">
        <ele>1119</ele>
        <time>2022-07-16T15:20:19.485Z</time>
      </trkpt>
      <trkpt lat="45.62279" lon="6.81875">
        <ele>1119</ele>
        <time>2022-07-16T15:20:24.881Z</time>
      </trkpt>
      <trkpt lat="45.62262" lon="6.81887">
        <ele>1117</ele>
        <time>2022-07-16T15:20:26.312Z</time>
      </trkpt>
      <trkpt lat="45.62216" lon="6.81901">
        <ele>1109</ele>
        <time>2022-07-16T15:20:29.862Z</time>
      </trkpt>
      <trkpt lat="45.62204" lon="6.81907">
        <ele>1107</ele>
        <time>2022-07-16T15:20:30.821Z</time>
      </trkpt>
      <trkpt lat="45.62195" lon="6.81916">
        <ele>1106</ele>
        <time>2022-07-16T15:20:31.650Z</time>
      </trkpt>
      <trkpt lat="45.6208" lon="6.8207">
        <ele>1103</ele>
        <time>2022-07-16T15:20:48.699Z</time>
      </trkpt>
      <trkpt lat="45.62059" lon="6.82093">
        <ele>1102</ele>
        <time>2022-07-16T15:20:51.040Z</time>
      </trkpt>
      <trkpt lat="45.62044" lon="6.82104">
        <ele>1099</ele>
        <time>2022-07-16T15:20:52.313Z</time>
      </trkpt>
      <trkpt lat="45.62028" lon="6.82124">
        <ele>1098</ele>
        <time>2022-07-16T15:20:54.039Z</time>
      </trkpt>
      <trkpt lat="45.6202" lon="6.82136">
        <ele>1098</ele>
        <time>2022-07-16T15:20:55.581Z</time>
      </trkpt>
      <trkpt lat="45.62006" lon="6.82166">
        <ele>1100</ele>
        <time>2022-07-16T15:21:02.839Z</time>
      </trkpt>
      <trkpt lat="45.61992" lon="6.82186">
        <ele>1098</ele>
        <time>2022-07-16T15:21:04.333Z</time>
      </trkpt>
      <trkpt lat="45.61977" lon="6.82204">
        <ele>1096</ele>
        <time>2022-07-16T15:21:05.811Z</time>
      </trkpt>
      <trkpt lat="45.6194" lon="6.82238">
        <ele>1086</ele>
        <time>2022-07-16T15:21:09.130Z</time>
      </trkpt>
      <trkpt lat="45.6193" lon="6.82253">
        <ele>1085</ele>
        <time>2022-07-16T15:21:10.224Z</time>
      </trkpt>
      <trkpt lat="45.61922" lon="6.82272">
        <ele>1085</ele>
        <time>2022-07-16T15:21:12.287Z</time>
      </trkpt>
      <trkpt lat="45.61916" lon="6.82289">
        <ele>1086</ele>
        <time>2022-07-16T15:21:15.993Z</time>
      </trkpt>
      <trkpt lat="45.61913" lon="6.82309">
        <ele>1089</ele>
        <time>2022-07-16T15:21:23.332Z</time>
      </trkpt>
      <trkpt lat="45.61906" lon="6.82323">
        <ele>1089</ele>
        <time>2022-07-16T15:21:24.933Z</time>
      </trkpt>
      <trkpt lat="45.61902" lon="6.82325">
        <ele>1087</ele>
        <time>2022-07-16T15:21:25.252Z</time>
      </trkpt>
      <trkpt lat="45.61895" lon="6.82324">
        <ele>1084</ele>
        <time>2022-07-16T15:21:25.783Z</time>
      </trkpt>
      <trkpt lat="45.61894" lon="6.82308">
        <ele>1080</ele>
        <time>2022-07-16T15:21:26.631Z</time>
      </trkpt>
      <trkpt lat="45.61902" lon="6.82279">
        <ele>1077</ele>
        <time>2022-07-16T15:21:28.277Z</time>
      </trkpt>
      <trkpt lat="45.6193" lon="6.82206">
        <ele>1077</ele>
        <time>2022-07-16T15:21:36.021Z</time>
      </trkpt>
      <trkpt lat="45.61966" lon="6.82131">
        <ele>1076</ele>
        <time>2022-07-16T15:21:43.188Z</time>
      </trkpt>
      <trkpt lat="45.62021" lon="6.82028">
        <ele>1072</ele>
        <time>2022-07-16T15:21:50.745Z</time>
      </trkpt>
      <trkpt lat="45.62058" lon="6.81965">
        <ele>1072</ele>
        <time>2022-07-16T15:21:58.397Z</time>
      </trkpt>
      <trkpt lat="45.62065" lon="6.81948">
        <ele>1071</ele>
        <time>2022-07-16T15:21:59.438Z</time>
      </trkpt>
      <trkpt lat="45.62086" lon="6.81838">
        <ele>1064</ele>
        <time>2022-07-16T15:22:05.457Z</time>
      </trkpt>
      <trkpt lat="45.62108" lon="6.81764">
        <ele>1057</ele>
        <time>2022-07-16T15:22:09.702Z</time>
      </trkpt>
      <trkpt lat="45.6212" lon="6.81738">
        <ele>1055</ele>
        <time>2022-07-16T15:22:11.346Z</time>
      </trkpt>
      <trkpt lat="45.62146" lon="6.81699">
        <ele>1054</ele>
        <time>2022-07-16T15:22:15.091Z</time>
      </trkpt>
      <trkpt lat="45.62215" lon="6.81634">
        <ele>1057</ele>
        <time>2022-07-16T15:22:31.554Z</time>
      </trkpt>
      <trkpt lat="45.62228" lon="6.81618">
        <ele>1057</ele>
        <time>2022-07-16T15:22:33.836Z</time>
      </trkpt>
      <trkpt lat="45.62244" lon="6.81544">
        <ele>1045</ele>
        <time>2022-07-16T15:22:37.924Z</time>
      </trkpt>
      <trkpt lat="45.62249" lon="6.81532">
        <ele>1044</ele>
        <time>2022-07-16T15:22:38.662Z</time>
      </trkpt>
      <trkpt lat="45.62319" lon="6.8147">
        <ele>1042</ele>
        <time>2022-07-16T15:22:47.049Z</time>
      </trkpt>
      <trkpt lat="45.62336" lon="6.81458">
        <ele>1042</ele>
        <time>2022-07-16T15:22:49.570Z</time>
      </trkpt>
      <trkpt lat="45.62346" lon="6.81452">
        <ele>1042</ele>
        <time>2022-07-16T15:22:51.012Z</time>
      </trkpt>
      <trkpt lat="45.62383" lon="6.81438">
        <ele>1045</ele>
        <time>2022-07-16T15:23:01.946Z</time>
      </trkpt>
      <trkpt lat="45.62408" lon="6.81412">
        <ele>1042</ele>
        <time>2022-07-16T15:23:04.279Z</time>
      </trkpt>
      <trkpt lat="45.62434" lon="6.81353">
        <ele>1033</ele>
        <time>2022-07-16T15:23:07.960Z</time>
      </trkpt>
      <trkpt lat="45.62447" lon="6.81339">
        <ele>1033</ele>
        <time>2022-07-16T15:23:10.124Z</time>
      </trkpt>
      <trkpt lat="45.6251" lon="6.81289">
        <ele>1030</ele>
        <time>2022-07-16T15:23:16.273Z</time>
      </trkpt>
      <trkpt lat="45.62528" lon="6.8127">
        <ele>1026</ele>
        <time>2022-07-16T15:23:17.961Z</time>
      </trkpt>
      <trkpt lat="45.62535" lon="6.81268">
        <ele>1025</ele>
        <time>2022-07-16T15:23:18.500Z</time>
      </trkpt>
      <trkpt lat="45.62543" lon="6.81269">
        <ele>1026</ele>
        <time>2022-07-16T15:23:22.149Z</time>
      </trkpt>
      <trkpt lat="45.62592" lon="6.81305">
        <ele>1040</ele>
        <time>2022-07-16T15:23:50.408Z</time>
      </trkpt>
      <trkpt lat="45.626" lon="6.81305">
        <ele>1041</ele>
        <time>2022-07-16T15:23:54.065Z</time>
      </trkpt>
      <trkpt lat="45.62613" lon="6.813">
        <ele>1040</ele>
        <time>2022-07-16T15:23:55.081Z</time>
      </trkpt>
      <trkpt lat="45.62627" lon="6.81291">
        <ele>1038</ele>
        <time>2022-07-16T15:23:56.240Z</time>
      </trkpt>
      <trkpt lat="45.62665" lon="6.81254">
        <ele>1025</ele>
        <time>2022-07-16T15:23:59.710Z</time>
      </trkpt>
      <trkpt lat="45.62681" lon="6.81234">
        <ele>1023</ele>
        <time>2022-07-16T15:24:01.314Z</time>
      </trkpt>
      <trkpt lat="45.6269" lon="6.81181">
        <ele>1019</ele>
        <time>2022-07-16T15:24:04.192Z</time>
      </trkpt>
      <trkpt lat="45.6269" lon="6.81153">
        <ele>1018</ele>
        <time>2022-07-16T15:24:05.728Z</time>
      </trkpt>
      <trkpt lat="45.62679" lon="6.81084">
        <ele>1015</ele>
        <time>2022-07-16T15:24:09.314Z</time>
      </trkpt>
      <trkpt lat="45.62677" lon="6.81031">
        <ele>1012</ele>
        <time>2022-07-16T15:24:12.116Z</time>
      </trkpt>
      <trkpt lat="45.62682" lon="6.80934">
        <ele>1008</ele>
        <time>2022-07-16T15:24:17.117Z</time>
      </trkpt>
      <trkpt lat="45.6268" lon="6.8092">
        <ele>1007</ele>
        <time>2022-07-16T15:24:17.871Z</time>
      </trkpt>
      <trkpt lat="45.62675" lon="6.80909">
        <ele>1006</ele>
        <time>2022-07-16T15:24:18.563Z</time>
      </trkpt>
      <trkpt lat="45.62662" lon="6.80904">
        <ele>1004</ele>
        <time>2022-07-16T15:24:19.580Z</time>
      </trkpt>
      <trkpt lat="45.62653" lon="6.80906">
        <ele>1003</ele>
        <time>2022-07-16T15:24:20.267Z</time>
      </trkpt>
      <trkpt lat="45.62647" lon="6.80912">
        <ele>1002</ele>
        <time>2022-07-16T15:24:20.820Z</time>
      </trkpt>
      <trkpt lat="45.62597" lon="6.80997">
        <ele>999</ele>
        <time>2022-07-16T15:24:27.640Z</time>
      </trkpt>
      <trkpt lat="45.62577" lon="6.81051">
        <ele>998</ele>
        <time>2022-07-16T15:24:32.037Z</time>
      </trkpt>
      <trkpt lat="45.62545" lon="6.81153">
        <ele>998</ele>
        <time>2022-07-16T15:24:42.434Z</time>
      </trkpt>
      <trkpt lat="45.62539" lon="6.81161">
        <ele>997</ele>
        <time>2022-07-16T15:24:43.053Z</time>
      </trkpt>
      <trkpt lat="45.62533" lon="6.81164">
        <ele>997</ele>
        <time>2022-07-16T15:24:43.898Z</time>
      </trkpt>
      <trkpt lat="45.62529" lon="6.81165">
        <ele>997</ele>
        <time>2022-07-16T15:24:44.438Z</time>
      </trkpt>
      <trkpt lat="45.62524" lon="6.81161">
        <ele>996</ele>
        <time>2022-07-16T15:24:44.871Z</time>
      </trkpt>
      <trkpt lat="45.62515" lon="6.81122">
        <ele>992</ele>
        <time>2022-07-16T15:24:47.038Z</time>
      </trkpt>
      <trkpt lat="45.62473" lon="6.80852">
        <ele>971</ele>
        <time>2022-07-16T15:25:01.638Z</time>
      </trkpt>
      <trkpt lat="45.62464" lon="6.80809">
        <ele>969</ele>
        <time>2022-07-16T15:25:03.859Z</time>
      </trkpt>
      <trkpt lat="45.62459" lon="6.80798">
        <ele>968</ele>
        <time>2022-07-16T15:25:04.551Z</time>
      </trkpt>
      <trkpt lat="45.62453" lon="6.80794">
        <ele>967</ele>
        <time>2022-07-16T15:25:05.051Z</time>
      </trkpt>
      <trkpt lat="45.62446" lon="6.80795">
        <ele>967</ele>
        <time>2022-07-16T15:25:05.986Z</time>
      </trkpt>
      <trkpt lat="45.6244" lon="6.808">
        <ele>966</ele>
        <time>2022-07-16T15:25:06.510Z</time>
      </trkpt>
      <trkpt lat="45.62434" lon="6.80811">
        <ele>966</ele>
        <time>2022-07-16T15:25:07.808Z</time>
      </trkpt>
      <trkpt lat="45.62371" lon="6.80966">
        <ele>962</ele>
        <time>2022-07-16T15:25:19.578Z</time>
      </trkpt>
      <trkpt lat="45.6231" lon="6.81098">
        <ele>956</ele>
        <time>2022-07-16T15:25:28.026Z</time>
      </trkpt>
      <trkpt lat="45.62304" lon="6.81098">
        <ele>955</ele>
        <time>2022-07-16T15:25:28.478Z</time>
      </trkpt>
      <trkpt lat="45.62299" lon="6.81095">
        <ele>954</ele>
        <time>2022-07-16T15:25:28.888Z</time>
      </trkpt>
      <trkpt lat="45.62295" lon="6.81088">
        <ele>953</ele>
        <time>2022-07-16T15:25:29.365Z</time>
      </trkpt>
      <trkpt lat="45.62281" lon="6.81004">
        <ele>948</ele>
        <time>2022-07-16T15:25:33.923Z</time>
      </trkpt>
      <trkpt lat="45.62258" lon="6.80826">
        <ele>941</ele>
        <time>2022-07-16T15:25:43.502Z</time>
      </trkpt>
      <trkpt lat="45.62253" lon="6.80808">
        <ele>941</ele>
        <time>2022-07-16T15:25:45.303Z</time>
      </trkpt>
      <trkpt lat="45.62245" lon="6.80802">
        <ele>940</ele>
        <time>2022-07-16T15:25:45.985Z</time>
      </trkpt>
      <trkpt lat="45.62237" lon="6.80806">
        <ele>939</ele>
        <time>2022-07-16T15:25:46.625Z</time>
      </trkpt>
      <trkpt lat="45.62231" lon="6.80817">
        <ele>938</ele>
        <time>2022-07-16T15:25:47.361Z</time>
      </trkpt>
      <trkpt lat="45.62182" lon="6.81045">
        <ele>933</ele>
        <time>2022-07-16T15:26:03.340Z</time>
      </trkpt>
      <trkpt lat="45.62174" lon="6.81058">
        <ele>933</ele>
        <time>2022-07-16T15:26:04.950Z</time>
      </trkpt>
      <trkpt lat="45.62165" lon="6.81063">
        <ele>931</ele>
        <time>2022-07-16T15:26:05.679Z</time>
      </trkpt>
      <trkpt lat="45.62151" lon="6.81065">
        <ele>929</ele>
        <time>2022-07-16T15:26:06.741Z</time>
      </trkpt>
      <trkpt lat="45.6214" lon="6.81058">
        <ele>928</ele>
        <time>2022-07-16T15:26:07.650Z</time>
      </trkpt>
      <trkpt lat="45.62132" lon="6.81047">
        <ele>926</ele>
        <time>2022-07-16T15:26:08.487Z</time>
      </trkpt>
      <trkpt lat="45.62126" lon="6.81025">
        <ele>925</ele>
        <time>2022-07-16T15:26:09.685Z</time>
      </trkpt>
      <trkpt lat="45.62114" lon="6.80819">
        <ele>921</ele>
        <time>2022-07-16T15:26:23.876Z</time>
      </trkpt>
      <trkpt lat="45.62097" lon="6.80614">
        <ele>914</ele>
        <time>2022-07-16T15:26:35.455Z</time>
      </trkpt>
      <trkpt lat="45.62092" lon="6.80511">
        <ele>909</ele>
        <time>2022-07-16T15:26:40.905Z</time>
      </trkpt>
      <trkpt lat="45.62093" lon="6.80478">
        <ele>908</ele>
        <time>2022-07-16T15:26:42.846Z</time>
      </trkpt>
      <trkpt lat="45.62107" lon="6.80408">
        <ele>906</ele>
        <time>2022-07-16T15:26:47.290Z</time>
      </trkpt>
      <trkpt lat="45.62191" lon="6.80136">
        <ele>896</ele>
        <time>2022-07-16T15:27:04.025Z</time>
      </trkpt>
      <trkpt lat="45.62194" lon="6.80107">
        <ele>895</ele>
        <time>2022-07-16T15:27:05.665Z</time>
      </trkpt>
      <trkpt lat="45.62213" lon="6.80065">
        <ele>894</ele>
        <time>2022-07-16T15:27:09.066Z</time>
      </trkpt>
      <trkpt lat="45.62228" lon="6.8004">
        <ele>893</ele>
        <time>2022-07-16T15:27:10.999Z</time>
      </trkpt>
      <trkpt lat="45.62294" lon="6.79947">
        <ele>891</ele>
        <time>2022-07-16T15:27:20.732Z</time>
      </trkpt>
      <trkpt lat="45.62324" lon="6.79875">
        <ele>887</ele>
        <time>2022-07-16T15:27:25.156Z</time>
      </trkpt>
      <trkpt lat="45.62378" lon="6.79763">
        <ele>881</ele>
        <time>2022-07-16T15:27:31.919Z</time>
      </trkpt>
      <trkpt lat="45.62431" lon="6.79645">
        <ele>875</ele>
        <time>2022-07-16T15:27:38.995Z</time>
      </trkpt>
      <trkpt lat="45.62489" lon="6.7953">
        <ele>871</ele>
        <time>2022-07-16T15:27:47.560Z</time>
      </trkpt>
      <trkpt lat="45.62499" lon="6.79521">
        <ele>871</ele>
        <time>2022-07-16T15:27:49.132Z</time>
      </trkpt>
      <trkpt lat="45.62526" lon="6.79471">
        <ele>870</ele>
        <time>2022-07-16T15:27:53.716Z</time>
      </trkpt>
      <trkpt lat="45.62532" lon="6.79472">
        <ele>870</ele>
        <time>2022-07-16T15:27:54.520Z</time>
      </trkpt>
      <trkpt lat="45.62543" lon="6.79463">
        <ele>870</ele>
        <time>2022-07-16T15:27:56.205Z</time>
      </trkpt>
      <trkpt lat="45.62543" lon="6.79449">
        <ele>869</ele>
        <time>2022-07-16T15:27:56.944Z</time>
      </trkpt>
      <trkpt lat="45.62578" lon="6.79408">
        <ele>868</ele>
        <time>2022-07-16T15:28:01.668Z</time>
      </trkpt>
      <trkpt lat="45.62595" lon="6.79383">
        <ele>870</ele>
        <time>2022-07-16T15:28:08.844Z</time>
      </trkpt>
      <trkpt lat="45.6261" lon="6.79359">
        <ele>873</ele>
        <time>2022-07-16T15:28:20.364Z</time>
      </trkpt>
      <trkpt lat="45.62628" lon="6.7931">
        <ele>874</ele>
        <time>2022-07-16T15:28:27.107Z</time>
      </trkpt>
      <trkpt lat="45.62638" lon="6.79266">
        <ele>872</ele>
        <time>2022-07-16T15:28:29.430Z</time>
      </trkpt>
      <trkpt lat="45.62647" lon="6.79207">
        <ele>868</ele>
        <time>2022-07-16T15:28:32.617Z</time>
      </trkpt>
      <trkpt lat="45.62667" lon="6.79134">
        <ele>861</ele>
        <time>2022-07-16T15:28:36.755Z</time>
      </trkpt>
      <trkpt lat="45.62674" lon="6.791">
        <ele>860</ele>
        <time>2022-07-16T15:28:38.896Z</time>
      </trkpt>
      <trkpt lat="45.62686" lon="6.79025">
        <ele>858</ele>
        <time>2022-07-16T15:28:43.688Z</time>
      </trkpt>
      <trkpt lat="45.62704" lon="6.78769">
        <ele>840</ele>
        <time>2022-07-16T15:28:57.268Z</time>
      </trkpt>
      <trkpt lat="45.62713" lon="6.78717">
        <ele>839</ele>
        <time>2022-07-16T15:29:00.984Z</time>
      </trkpt>
      <trkpt lat="45.62714" lon="6.78697">
        <ele>838</ele>
        <time>2022-07-16T15:29:02.042Z</time>
      </trkpt>
      <trkpt lat="45.62709" lon="6.78654">
        <ele>838</ele>
        <time>2022-07-16T15:29:06.096Z</time>
      </trkpt>
      <trkpt lat="45.62698" lon="6.78619">
        <ele>840</ele>
        <time>2022-07-16T15:29:13.531Z</time>
      </trkpt>
      <trkpt lat="45.62695" lon="6.78613">
        <ele>840</ele>
        <time>2022-07-16T15:29:14.217Z</time>
      </trkpt>
      <trkpt lat="45.62651" lon="6.78567">
        <ele>837</ele>
        <time>2022-07-16T15:29:18.350Z</time>
      </trkpt>
      <trkpt lat="45.6263" lon="6.78541">
        <ele>836</ele>
        <time>2022-07-16T15:29:20.853Z</time>
      </trkpt>
      <trkpt lat="45.62623" lon="6.78527">
        <ele>835</ele>
        <time>2022-07-16T15:29:21.761Z</time>
      </trkpt>
      <trkpt lat="45.62612" lon="6.78492">
        <ele>835</ele>
        <time>2022-07-16T15:29:25.330Z</time>
      </trkpt>
      <trkpt lat="45.62578" lon="6.78375">
        <ele>835</ele>
        <time>2022-07-16T15:29:37.113Z</time>
      </trkpt>
      <trkpt lat="45.62566" lon="6.78316">
        <ele>836</ele>
        <time>2022-07-16T15:29:44.376Z</time>
      </trkpt>
      <trkpt lat="45.62564" lon="6.78288">
        <ele>835</ele>
        <time>2022-07-16T15:29:45.923Z</time>
      </trkpt>
      <trkpt lat="45.62567" lon="6.78213">
        <ele>833</ele>
        <time>2022-07-16T15:29:50.560Z</time>
      </trkpt>
      <trkpt lat="45.62559" lon="6.78157">
        <ele>830</ele>
        <time>2022-07-16T15:29:53.577Z</time>
      </trkpt>
      <trkpt lat="45.62545" lon="6.7811">
        <ele>828</ele>
        <time>2022-07-16T15:29:56.265Z</time>
      </trkpt>
      <trkpt lat="45.62519" lon="6.78045">
        <ele>822</ele>
        <time>2022-07-16T15:30:00.218Z</time>
      </trkpt>
      <trkpt lat="45.62504" lon="6.78017">
        <ele>819</ele>
        <time>2022-07-16T15:30:02.080Z</time>
      </trkpt>
      <trkpt lat="45.62458" lon="6.77952">
        <ele>818</ele>
        <time>2022-07-16T15:30:09.387Z</time>
      </trkpt>
      <trkpt lat="45.62398" lon="6.77878">
        <ele>813</ele>
        <time>2022-07-16T15:30:15.018Z</time>
      </trkpt>
      <trkpt lat="45.62358" lon="6.77838">
        <ele>812</ele>
        <time>2022-07-16T15:30:20.211Z</time>
      </trkpt>
      <trkpt lat="45.62355" lon="6.77825">
        <ele>812</ele>
        <time>2022-07-16T15:30:21.484Z</time>
      </trkpt>
      <trkpt lat="45.62346" lon="6.77818">
        <ele>811</ele>
        <time>2022-07-16T15:30:22.257Z</time>
      </trkpt>
      <trkpt lat="45.62341" lon="6.77818">
        <ele>811</ele>
        <time>2022-07-16T15:30:22.922Z</time>
      </trkpt>
      <trkpt lat="45.62334" lon="6.77808">
        <ele>811</ele>
        <time>2022-07-16T15:30:24.238Z</time>
      </trkpt>
      <trkpt lat="45.62276" lon="6.77674">
        <ele>809</ele>
        <time>2022-07-16T15:30:36.291Z</time>
      </trkpt>
      <trkpt lat="45.62205" lon="6.77525">
        <ele>808</ele>
        <time>2022-07-16T15:30:52.006Z</time>
      </trkpt>
      <trkpt lat="45.62194" lon="6.77514">
        <ele>808</ele>
        <time>2022-07-16T15:30:53.791Z</time>
      </trkpt>
      <trkpt lat="45.62132" lon="6.77344">
        <ele>810</ele>
        <time>2022-07-16T15:31:14.445Z</time>
      </trkpt>
      <trkpt lat="45.62068" lon="6.77191">
        <ele>814</ele>
        <time>2022-07-16T15:31:37.927Z</time>
      </trkpt>
      <trkpt lat="45.62058" lon="6.77163">
        <ele>814</ele>
        <time>2022-07-16T15:31:40.851Z</time>
      </trkpt>
      <trkpt lat="45.62058" lon="6.77156">
        <ele>814</ele>
        <time>2022-07-16T15:31:41.502Z</time>
      </trkpt>
      <trkpt lat="45.62045" lon="6.77126">
        <ele>815</ele>
        <time>2022-07-16T15:31:46.722Z</time>
      </trkpt>
      <trkpt lat="45.62048" lon="6.77118">
        <ele>815</ele>
        <time>2022-07-16T15:31:47.566Z</time>
      </trkpt>
      <trkpt lat="45.62047" lon="6.77105">
        <ele>815</ele>
        <time>2022-07-16T15:31:48.782Z</time>
      </trkpt>
      <trkpt lat="45.62069" lon="6.77089">
        <ele>816</ele>
        <time>2022-07-16T15:31:54.002Z</time>
      </trkpt>
      <trkpt lat="45.6208" lon="6.77088">
        <ele>816</ele>
        <time>2022-07-16T15:31:55.468Z</time>
      </trkpt>
      <trkpt lat="45.62139" lon="6.77085">
        <ele>817</ele>
        <time>2022-07-16T15:32:04.761Z</time>
      </trkpt>
      <trkpt lat="45.62193" lon="6.77086">
        <ele>818</ele>
        <time>2022-07-16T15:32:13.409Z</time>
      </trkpt>
      <trkpt lat="45.62233" lon="6.77091">
        <ele>820</ele>
        <time>2022-07-16T15:32:22.735Z</time>
      </trkpt>
      <trkpt lat="45.62247" lon="6.77094">
        <ele>821</ele>
        <time>2022-07-16T15:32:26.541Z</time>
      </trkpt>
      <trkpt lat="45.62274" lon="6.77106">
        <ele>823</ele>
        <time>2022-07-16T15:32:34.150Z</time>
      </trkpt>
      <trkpt lat="45.62304" lon="6.77124">
        <ele>826</ele>
        <time>2022-07-16T15:32:44.607Z</time>
      </trkpt>
      <trkpt lat="45.62328" lon="6.77145">
        <ele>829</ele>
        <time>2022-07-16T15:32:55.009Z</time>
      </trkpt>
      <trkpt lat="45.6234" lon="6.7716">
        <ele>833</ele>
        <time>2022-07-16T15:33:03.185Z</time>
      </trkpt>
      <trkpt lat="45.62392" lon="6.77256">
        <ele>842</ele>
        <time>2022-07-16T15:33:34.371Z</time>
      </trkpt>
      <trkpt lat="45.62459" lon="6.77429">
        <ele>848</ele>
        <time>2022-07-16T15:34:04.892Z</time>
      </trkpt>
      <trkpt lat="45.62464" lon="6.77455">
        <ele>848</ele>
        <time>2022-07-16T15:34:07.400Z</time>
      </trkpt>
      <trkpt lat="45.62475" lon="6.77487">
        <ele>849</ele>
        <time>2022-07-16T15:34:12.641Z</time>
      </trkpt>
      <trkpt lat="45.62495" lon="6.77524">
        <ele>856</ele>
        <time>2022-07-16T15:34:29.417Z</time>
      </trkpt>
      <trkpt lat="45.62507" lon="6.77561">
        <ele>861</ele>
        <time>2022-07-16T15:34:44.048Z</time>
      </trkpt>
      <trkpt lat="45.62508" lon="6.77589">
        <ele>860</ele>
        <time>2022-07-16T15:34:45.586Z</time>
      </trkpt>
      <trkpt lat="45.62497" lon="6.77636">
        <ele>853</ele>
        <time>2022-07-16T15:34:48.202Z</time>
      </trkpt>
      <trkpt lat="45.62495" lon="6.77665">
        <ele>852</ele>
        <time>2022-07-16T15:34:49.828Z</time>
      </trkpt>
      <trkpt lat="45.6251" lon="6.77729">
        <ele>855</ele>
        <time>2022-07-16T15:35:01.875Z</time>
      </trkpt>
      <trkpt lat="45.62525" lon="6.77764">
        <ele>857</ele>
        <time>2022-07-16T15:35:09.538Z</time>
      </trkpt>
      <trkpt lat="45.62536" lon="6.77782">
        <ele>858</ele>
        <time>2022-07-16T15:35:13.692Z</time>
      </trkpt>
      <trkpt lat="45.62541" lon="6.77785">
        <ele>860</ele>
        <time>2022-07-16T15:35:16.474Z</time>
      </trkpt>
      <trkpt lat="45.626" lon="6.77782">
        <ele>882</ele>
        <time>2022-07-16T15:35:46.757Z</time>
      </trkpt>
      <trkpt lat="45.62613" lon="6.77787">
        <ele>887</ele>
        <time>2022-07-16T15:35:53.662Z</time>
      </trkpt>
      <trkpt lat="45.6262" lon="6.77795">
        <ele>889</ele>
        <time>2022-07-16T15:35:58.259Z</time>
      </trkpt>
      <trkpt lat="45.6262" lon="6.77826">
        <ele>885</ele>
        <time>2022-07-16T15:35:59.895Z</time>
      </trkpt>
      <trkpt lat="45.62616" lon="6.77838">
        <ele>881</ele>
        <time>2022-07-16T15:36:00.597Z</time>
      </trkpt>
      <trkpt lat="45.62611" lon="6.77876">
        <ele>876</ele>
        <time>2022-07-16T15:36:02.638Z</time>
      </trkpt>
      <trkpt lat="45.62612" lon="6.77909">
        <ele>874</ele>
        <time>2022-07-16T15:36:04.381Z</time>
      </trkpt>
      <trkpt lat="45.62616" lon="6.7792">
        <ele>875</ele>
        <time>2022-07-16T15:36:07.906Z</time>
      </trkpt>
      <trkpt lat="45.62624" lon="6.77931">
        <ele>877</ele>
        <time>2022-07-16T15:36:13.599Z</time>
      </trkpt>
      <trkpt lat="45.62651" lon="6.77962">
        <ele>883</ele>
        <time>2022-07-16T15:36:31.361Z</time>
      </trkpt>
      <trkpt lat="45.6267" lon="6.78005">
        <ele>882</ele>
        <time>2022-07-16T15:36:34.836Z</time>
      </trkpt>
      <trkpt lat="45.6268" lon="6.78035">
        <ele>885</ele>
        <time>2022-07-16T15:36:46.052Z</time>
      </trkpt>
      <trkpt lat="45.62684" lon="6.78055">
        <ele>885</ele>
        <time>2022-07-16T15:36:47.986Z</time>
      </trkpt>
      <trkpt lat="45.62695" lon="6.78082">
        <ele>888</ele>
        <time>2022-07-16T15:36:59.196Z</time>
      </trkpt>
      <trkpt lat="45.62742" lon="6.78176">
        <ele>899</ele>
        <time>2022-07-16T15:37:40.647Z</time>
      </trkpt>
      <trkpt lat="45.62756" lon="6.78225">
        <ele>904</ele>
        <time>2022-07-16T15:37:59.635Z</time>
      </trkpt>
      <trkpt lat="45.62769" lon="6.78317">
        <ele>906</ele>
        <time>2022-07-16T15:38:11.743Z</time>
      </trkpt>
      <trkpt lat="45.62779" lon="6.78364">
        <ele>905</ele>
        <time>2022-07-16T15:38:15.064Z</time>
      </trkpt>
      <trkpt lat="45.6279" lon="6.78386">
        <ele>906</ele>
        <time>2022-07-16T15:38:19.546Z</time>
      </trkpt>
      <trkpt lat="45.6282" lon="6.78423">
        <ele>911</ele>
        <time>2022-07-16T15:38:37.946Z</time>
      </trkpt>
      <trkpt lat="45.62858" lon="6.78488">
        <ele>910</ele>
        <time>2022-07-16T15:38:44.526Z</time>
      </trkpt>
      <trkpt lat="45.62888" lon="6.78518">
        <ele>910</ele>
        <time>2022-07-16T15:38:49.394Z</time>
      </trkpt>
      <trkpt lat="45.62906" lon="6.78531">
        <ele>912</ele>
        <time>2022-07-16T15:38:56.312Z</time>
      </trkpt>
      <trkpt lat="45.62954" lon="6.78543">
        <ele>919</ele>
        <time>2022-07-16T15:39:21.307Z</time>
      </trkpt>
      <trkpt lat="45.62992" lon="6.78563">
        <ele>921</ele>
        <time>2022-07-16T15:39:30.686Z</time>
      </trkpt>
      <trkpt lat="45.62997" lon="6.78562">
        <ele>923</ele>
        <time>2022-07-16T15:39:33.276Z</time>
      </trkpt>
      <trkpt lat="45.63" lon="6.78558">
        <ele>924</ele>
        <time>2022-07-16T15:39:35.380Z</time>
      </trkpt>
      <trkpt lat="45.63" lon="6.78548">
        <ele>926</ele>
        <time>2022-07-16T15:39:38.967Z</time>
      </trkpt>
      <trkpt lat="45.62994" lon="6.7854">
        <ele>926</ele>
        <time>2022-07-16T15:39:40.058Z</time>
      </trkpt>
      <trkpt lat="45.6296" lon="6.78521">
        <ele>925</ele>
        <time>2022-07-16T15:39:43.651Z</time>
      </trkpt>
      <trkpt lat="45.62909" lon="6.78487">
        <ele>923</ele>
        <time>2022-07-16T15:39:48.743Z</time>
      </trkpt>
      <trkpt lat="45.62899" lon="6.78477">
        <ele>922</ele>
        <time>2022-07-16T15:39:49.664Z</time>
      </trkpt>
      <trkpt lat="45.62888" lon="6.7846">
        <ele>922</ele>
        <time>2022-07-16T15:39:51.818Z</time>
      </trkpt>
      <trkpt lat="45.62881" lon="6.78431">
        <ele>925</ele>
        <time>2022-07-16T15:40:02.823Z</time>
      </trkpt>
      <trkpt lat="45.62874" lon="6.78375">
        <ele>930</ele>
        <time>2022-07-16T15:40:21.174Z</time>
      </trkpt>
      <trkpt lat="45.62873" lon="6.78344">
        <ele>933</ele>
        <time>2022-07-16T15:40:32.306Z</time>
      </trkpt>
      <trkpt lat="45.62881" lon="6.78317">
        <ele>938</ele>
        <time>2022-07-16T15:40:42.824Z</time>
      </trkpt>
      <trkpt lat="45.62887" lon="6.78307">
        <ele>940</ele>
        <time>2022-07-16T15:40:47.551Z</time>
      </trkpt>
      <trkpt lat="45.62902" lon="6.78295">
        <ele>944</ele>
        <time>2022-07-16T15:40:56.367Z</time>
      </trkpt>
      <trkpt lat="45.62917" lon="6.78297">
        <ele>946</ele>
        <time>2022-07-16T15:41:04.020Z</time>
      </trkpt>
      <trkpt lat="45.62921" lon="6.783">
        <ele>947</ele>
        <time>2022-07-16T15:41:06.337Z</time>
      </trkpt>
      <trkpt lat="45.62987" lon="6.78365">
        <ele>949</ele>
        <time>2022-07-16T15:41:20.152Z</time>
      </trkpt>
      <trkpt lat="45.63006" lon="6.78379">
        <ele>950</ele>
        <time>2022-07-16T15:41:25.020Z</time>
      </trkpt>
      <trkpt lat="45.63025" lon="6.7839">
        <ele>951</ele>
        <time>2022-07-16T15:41:29.749Z</time>
      </trkpt>
      <trkpt lat="45.63069" lon="6.78409">
        <ele>953</ele>
        <time>2022-07-16T15:41:39.912Z</time>
      </trkpt>
      <trkpt lat="45.63115" lon="6.78422">
        <ele>955</ele>
        <time>2022-07-16T15:41:50.146Z</time>
      </trkpt>
      <trkpt lat="45.63202" lon="6.78413">
        <ele>966</ele>
        <time>2022-07-16T15:42:30.605Z</time>
      </trkpt>
      <trkpt lat="45.63226" lon="6.78412">
        <ele>971</ele>
        <time>2022-07-16T15:42:42.921Z</time>
      </trkpt>
      <trkpt lat="45.63236" lon="6.78415">
        <ele>971</ele>
        <time>2022-07-16T15:42:44.280Z</time>
      </trkpt>
      <trkpt lat="45.63247" lon="6.78423">
        <ele>970</ele>
        <time>2022-07-16T15:42:45.211Z</time>
      </trkpt>
      <trkpt lat="45.63274" lon="6.78457">
        <ele>963</ele>
        <time>2022-07-16T15:42:47.926Z</time>
      </trkpt>
      <trkpt lat="45.63324" lon="6.78497">
        <ele>963</ele>
        <time>2022-07-16T15:42:55.545Z</time>
      </trkpt>
      <trkpt lat="45.63363" lon="6.78512">
        <ele>968</ele>
        <time>2022-07-16T15:43:13.731Z</time>
      </trkpt>
      <trkpt lat="45.63396" lon="6.78536">
        <ele>965</ele>
        <time>2022-07-16T15:43:16.525Z</time>
      </trkpt>
      <trkpt lat="45.63416" lon="6.78544">
        <ele>967</ele>
        <time>2022-07-16T15:43:23.457Z</time>
      </trkpt>
      <trkpt lat="45.63435" lon="6.78543">
        <ele>969</ele>
        <time>2022-07-16T15:43:30.383Z</time>
      </trkpt>
      <trkpt lat="45.63457" lon="6.78535">
        <ele>975</ele>
        <time>2022-07-16T15:43:42.027Z</time>
      </trkpt>
      <trkpt lat="45.63468" lon="6.78534">
        <ele>976</ele>
        <time>2022-07-16T15:43:45.523Z</time>
      </trkpt>
      <trkpt lat="45.63503" lon="6.78546">
        <ele>970</ele>
        <time>2022-07-16T15:43:48.239Z</time>
      </trkpt>
      <trkpt lat="45.63556" lon="6.78553">
        <ele>961</ele>
        <time>2022-07-16T15:43:52.257Z</time>
      </trkpt>
      <trkpt lat="45.6357" lon="6.78551">
        <ele>961</ele>
        <time>2022-07-16T15:43:54.128Z</time>
      </trkpt>
      <trkpt lat="45.63605" lon="6.78534">
        <ele>968</ele>
        <time>2022-07-16T15:44:13.088Z</time>
      </trkpt>
      <trkpt lat="45.63651" lon="6.78521">
        <ele>974</ele>
        <time>2022-07-16T15:44:35.377Z</time>
      </trkpt>
      <trkpt lat="45.637" lon="6.7848">
        <ele>986</ele>
        <time>2022-07-16T15:45:04.497Z</time>
      </trkpt>
      <trkpt lat="45.63723" lon="6.78468">
        <ele>988</ele>
        <time>2022-07-16T15:45:11.682Z</time>
      </trkpt>
      <trkpt lat="45.6378" lon="6.78447">
        <ele>991</ele>
        <time>2022-07-16T15:45:25.456Z</time>
      </trkpt>
      <trkpt lat="45.638" lon="6.78443">
        <ele>990</ele>
        <time>2022-07-16T15:45:27.061Z</time>
      </trkpt>
      <trkpt lat="45.6383" lon="6.78451">
        <ele>982</ele>
        <time>2022-07-16T15:45:29.364Z</time>
      </trkpt>
      <trkpt lat="45.6385" lon="6.7845">
        <ele>983</ele>
        <time>2022-07-16T15:45:34.017Z</time>
      </trkpt>
      <trkpt lat="45.6387" lon="6.78445">
        <ele>988</ele>
        <time>2022-07-16T15:45:44.432Z</time>
      </trkpt>
      <trkpt lat="45.63898" lon="6.78434">
        <ele>996</ele>
        <time>2022-07-16T15:45:59.326Z</time>
      </trkpt>
      <trkpt lat="45.63908" lon="6.78434">
        <ele>997</ele>
        <time>2022-07-16T15:46:02.784Z</time>
      </trkpt>
      <trkpt lat="45.63918" lon="6.7844">
        <ele>995</ele>
        <time>2022-07-16T15:46:03.603Z</time>
      </trkpt>
      <trkpt lat="45.63948" lon="6.78474">
        <ele>984</ele>
        <time>2022-07-16T15:46:06.492Z</time>
      </trkpt>
      <trkpt lat="45.63987" lon="6.78501">
        <ele>979</ele>
        <time>2022-07-16T15:46:09.762Z</time>
      </trkpt>
      <trkpt lat="45.64037" lon="6.78501">
        <ele>994</ele>
        <time>2022-07-16T15:46:35.410Z</time>
      </trkpt>
      <trkpt lat="45.64053" lon="6.78507">
        <ele>996</ele>
        <time>2022-07-16T15:46:42.594Z</time>
      </trkpt>
      <trkpt lat="45.64116" lon="6.78547">
        <ele>994</ele>
        <time>2022-07-16T15:46:49.263Z</time>
      </trkpt>
      <trkpt lat="45.64162" lon="6.78591">
        <ele>986</ele>
        <time>2022-07-16T15:46:53.440Z</time>
      </trkpt>
      <trkpt lat="45.64178" lon="6.78602">
        <ele>989</ele>
        <time>2022-07-16T15:47:02.546Z</time>
      </trkpt>
      <trkpt lat="45.64202" lon="6.78613">
        <ele>994</ele>
        <time>2022-07-16T15:47:15.473Z</time>
      </trkpt>
      <trkpt lat="45.64234" lon="6.78617">
        <ele>1001</ele>
        <time>2022-07-16T15:47:31.950Z</time>
      </trkpt>
      <trkpt lat="45.64302" lon="6.78611">
        <ele>1004</ele>
        <time>2022-07-16T15:47:47.135Z</time>
      </trkpt>
      <trkpt lat="45.64364" lon="6.78611">
        <ele>1002</ele>
        <time>2022-07-16T15:47:52.935Z</time>
      </trkpt>
      <trkpt lat="45.64403" lon="6.78605">
        <ele>1003</ele>
        <time>2022-07-16T15:47:59.740Z</time>
      </trkpt>
      <trkpt lat="45.64467" lon="6.78589">
        <ele>1014</ele>
        <time>2022-07-16T15:48:33.067Z</time>
      </trkpt>
      <trkpt lat="45.645" lon="6.78591">
        <ele>1017</ele>
        <time>2022-07-16T15:48:43.552Z</time>
      </trkpt>
      <trkpt lat="45.64549" lon="6.78585">
        <ele>1011</ele>
        <time>2022-07-16T15:48:47.264Z</time>
      </trkpt>
      <trkpt lat="45.64567" lon="6.78586">
        <ele>1008</ele>
        <time>2022-07-16T15:48:48.623Z</time>
      </trkpt>
      <trkpt lat="45.64626" lon="6.78606">
        <ele>1008</ele>
        <time>2022-07-16T15:48:56.687Z</time>
      </trkpt>
      <trkpt lat="45.64655" lon="6.78613">
        <ele>1009</ele>
        <time>2022-07-16T15:49:02.367Z</time>
      </trkpt>
      <trkpt lat="45.64698" lon="6.78607">
        <ele>1013</ele>
        <time>2022-07-16T15:49:16.302Z</time>
      </trkpt>
      <trkpt lat="45.64724" lon="6.78609">
        <ele>1015</ele>
        <time>2022-07-16T15:49:23.647Z</time>
      </trkpt>
      <trkpt lat="45.64757" lon="6.78619">
        <ele>1015</ele>
        <time>2022-07-16T15:49:28.133Z</time>
      </trkpt>
      <trkpt lat="45.64812" lon="6.78648">
        <ele>1013</ele>
        <time>2022-07-16T15:49:33.513Z</time>
      </trkpt>
      <trkpt lat="45.64835" lon="6.78663">
        <ele>1011</ele>
        <time>2022-07-16T15:49:35.421Z</time>
      </trkpt>
      <trkpt lat="45.64877" lon="6.78698">
        <ele>1020</ele>
        <time>2022-07-16T15:50:00.354Z</time>
      </trkpt>
      <trkpt lat="45.64972" lon="6.7877">
        <ele>1025</ele>
        <time>2022-07-16T15:50:24.794Z</time>
      </trkpt>
      <trkpt lat="45.6501" lon="6.78783">
        <ele>1031</ele>
        <time>2022-07-16T15:50:44.836Z</time>
      </trkpt>
      <trkpt lat="45.65023" lon="6.78785">
        <ele>1033</ele>
        <time>2022-07-16T15:50:51.542Z</time>
      </trkpt>
      <trkpt lat="45.65061" lon="6.78782">
        <ele>1037</ele>
        <time>2022-07-16T15:51:05.393Z</time>
      </trkpt>
      <trkpt lat="45.6511" lon="6.78777">
        <ele>1045</ele>
        <time>2022-07-16T15:51:30.591Z</time>
      </trkpt>
      <trkpt lat="45.65128" lon="6.78773">
        <ele>1048</ele>
        <time>2022-07-16T15:51:39.935Z</time>
      </trkpt>
      <trkpt lat="45.65152" lon="6.78761">
        <ele>1051</ele>
        <time>2022-07-16T15:51:50.598Z</time>
      </trkpt>
      <trkpt lat="45.65189" lon="6.7873">
        <ele>1058</ele>
        <time>2022-07-16T15:52:12.592Z</time>
      </trkpt>
      <trkpt lat="45.65258" lon="6.78697">
        <ele>1060</ele>
        <time>2022-07-16T15:52:25.524Z</time>
      </trkpt>
      <trkpt lat="45.6527" lon="6.78695">
        <ele>1060</ele>
        <time>2022-07-16T15:52:27.130Z</time>
      </trkpt>
      <trkpt lat="45.6531" lon="6.78698">
        <ele>1064</ele>
        <time>2022-07-16T15:52:40.964Z</time>
      </trkpt>
      <trkpt lat="45.65329" lon="6.78697">
        <ele>1066</ele>
        <time>2022-07-16T15:52:47.890Z</time>
      </trkpt>
      <trkpt lat="45.65349" lon="6.78692">
        <ele>1068</ele>
        <time>2022-07-16T15:52:54.810Z</time>
      </trkpt>
      <trkpt lat="45.65356" lon="6.78688">
        <ele>1069</ele>
        <time>2022-07-16T15:52:58.634Z</time>
      </trkpt>
      <trkpt lat="45.6539" lon="6.78662">
        <ele>1070</ele>
        <time>2022-07-16T15:53:05.359Z</time>
      </trkpt>
      <trkpt lat="45.65433" lon="6.78624">
        <ele>1076</ele>
        <time>2022-07-16T15:53:26.736Z</time>
      </trkpt>
      <trkpt lat="45.65562" lon="6.7849">
        <ele>1089</ele>
        <time>2022-07-16T15:54:13.465Z</time>
      </trkpt>
      <trkpt lat="45.65597" lon="6.78451">
        <ele>1093</ele>
        <time>2022-07-16T15:54:27.466Z</time>
      </trkpt>
      <trkpt lat="45.6563" lon="6.78409">
        <ele>1097</ele>
        <time>2022-07-16T15:54:41.454Z</time>
      </trkpt>
      <trkpt lat="45.65651" lon="6.78388">
        <ele>1099</ele>
        <time>2022-07-16T15:54:48.754Z</time>
      </trkpt>
      <trkpt lat="45.6573" lon="6.7833">
        <ele>1100</ele>
        <time>2022-07-16T15:55:01.921Z</time>
      </trkpt>
      <trkpt lat="45.65773" lon="6.78304">
        <ele>1108</ele>
        <time>2022-07-16T15:55:25.866Z</time>
      </trkpt>
      <trkpt lat="45.65824" lon="6.78287">
        <ele>1114</ele>
        <time>2022-07-16T15:55:46.975Z</time>
      </trkpt>
      <trkpt lat="45.65857" lon="6.78273">
        <ele>1120</ele>
        <time>2022-07-16T15:56:04.631Z</time>
      </trkpt>
      <trkpt lat="45.65872" lon="6.78264">
        <ele>1121</ele>
        <time>2022-07-16T15:56:08.721Z</time>
      </trkpt>
      <trkpt lat="45.65885" lon="6.7825">
        <ele>1120</ele>
        <time>2022-07-16T15:56:09.892Z</time>
      </trkpt>
      <trkpt lat="45.6593" lon="6.78185">
        <ele>1124</ele>
        <time>2022-07-16T15:56:26.094Z</time>
      </trkpt>
      <trkpt lat="45.65936" lon="6.7818">
        <ele>1124</ele>
        <time>2022-07-16T15:56:27.017Z</time>
      </trkpt>
      <trkpt lat="45.65958" lon="6.7817">
        <ele>1126</ele>
        <time>2022-07-16T15:56:34.081Z</time>
      </trkpt>
      <trkpt lat="45.65974" lon="6.78167">
        <ele>1128</ele>
        <time>2022-07-16T15:56:41.359Z</time>
      </trkpt>
      <trkpt lat="45.65998" lon="6.78169">
        <ele>1132</ele>
        <time>2022-07-16T15:56:53.691Z</time>
      </trkpt>
      <trkpt lat="45.66014" lon="6.78173">
        <ele>1138</ele>
        <time>2022-07-16T15:57:02.023Z</time>
      </trkpt>
      <trkpt lat="45.66034" lon="6.78168">
        <ele>1141</ele>
        <time>2022-07-16T15:57:12.437Z</time>
      </trkpt>
      <trkpt lat="45.66054" lon="6.78147">
        <ele>1144</ele>
        <time>2022-07-16T15:57:23.214Z</time>
      </trkpt>
      <trkpt lat="45.66099" lon="6.78075">
        <ele>1144</ele>
        <time>2022-07-16T15:57:32.192Z</time>
      </trkpt>
      <trkpt lat="45.66127" lon="6.7805">
        <ele>1148</ele>
        <time>2022-07-16T15:57:46.577Z</time>
      </trkpt>
      <trkpt lat="45.66158" lon="6.78031">
        <ele>1149</ele>
        <time>2022-07-16T15:57:52.734Z</time>
      </trkpt>
      <trkpt lat="45.66208" lon="6.77987">
        <ele>1154</ele>
        <time>2022-07-16T15:58:10.473Z</time>
      </trkpt>
      <trkpt lat="45.66226" lon="6.77955">
        <ele>1156</ele>
        <time>2022-07-16T15:58:18.136Z</time>
      </trkpt>
      <trkpt lat="45.66244" lon="6.77929">
        <ele>1154</ele>
        <time>2022-07-16T15:58:20.066Z</time>
      </trkpt>
      <trkpt lat="45.66259" lon="6.7792">
        <ele>1154</ele>
        <time>2022-07-16T15:58:22.230Z</time>
      </trkpt>
      <trkpt lat="45.66297" lon="6.77922">
        <ele>1164</ele>
        <time>2022-07-16T15:58:41.735Z</time>
      </trkpt>
      <trkpt lat="45.66311" lon="6.77915">
        <ele>1166</ele>
        <time>2022-07-16T15:58:49.342Z</time>
      </trkpt>
      <trkpt lat="45.66317" lon="6.77909">
        <ele>1167</ele>
        <time>2022-07-16T15:58:53.097Z</time>
      </trkpt>
      <trkpt lat="45.66327" lon="6.77895">
        <ele>1167</ele>
        <time>2022-07-16T15:58:54.957Z</time>
      </trkpt>
      <trkpt lat="45.66357" lon="6.77841">
        <ele>1166</ele>
        <time>2022-07-16T15:59:00.071Z</time>
      </trkpt>
      <trkpt lat="45.66379" lon="6.77813">
        <ele>1167</ele>
        <time>2022-07-16T15:59:05.754Z</time>
      </trkpt>
      <trkpt lat="45.66399" lon="6.77793">
        <ele>1166</ele>
        <time>2022-07-16T15:59:07.849Z</time>
      </trkpt>
      <trkpt lat="45.66475" lon="6.7773">
        <ele>1174</ele>
        <time>2022-07-16T15:59:35.796Z</time>
      </trkpt>
      <trkpt lat="45.66489" lon="6.77714">
        <ele>1177</ele>
        <time>2022-07-16T15:59:44.987Z</time>
      </trkpt>
      <trkpt lat="45.66501" lon="6.77688">
        <ele>1177</ele>
        <time>2022-07-16T15:59:47.882Z</time>
      </trkpt>
      <trkpt lat="45.66528" lon="6.77591">
        <ele>1174</ele>
        <time>2022-07-16T15:59:54.140Z</time>
      </trkpt>
      <trkpt lat="45.66549" lon="6.77527">
        <ele>1178</ele>
        <time>2022-07-16T16:00:08.552Z</time>
      </trkpt>
      <trkpt lat="45.66595" lon="6.77444">
        <ele>1187</ele>
        <time>2022-07-16T16:00:40.969Z</time>
      </trkpt>
      <trkpt lat="45.66609" lon="6.77433">
        <ele>1191</ele>
        <time>2022-07-16T16:00:49.161Z</time>
      </trkpt>
      <trkpt lat="45.6662" lon="6.7744">
        <ele>1195</ele>
        <time>2022-07-16T16:00:55.336Z</time>
      </trkpt>
      <trkpt lat="45.66622" lon="6.77446">
        <ele>1195</ele>
        <time>2022-07-16T16:00:55.954Z</time>
      </trkpt>
      <trkpt lat="45.66621" lon="6.7746">
        <ele>1195</ele>
        <time>2022-07-16T16:00:57.262Z</time>
      </trkpt>
      <trkpt lat="45.66609" lon="6.77493">
        <ele>1190</ele>
        <time>2022-07-16T16:00:59.224Z</time>
      </trkpt>
      <trkpt lat="45.66611" lon="6.7751">
        <ele>1192</ele>
        <time>2022-07-16T16:01:05.404Z</time>
      </trkpt>
      <trkpt lat="45.66614" lon="6.77519">
        <ele>1193</ele>
        <time>2022-07-16T16:01:08.978Z</time>
      </trkpt>
      <trkpt lat="45.66634" lon="6.77551">
        <ele>1202</ele>
        <time>2022-07-16T16:01:24.368Z</time>
      </trkpt>
      <trkpt lat="45.6664" lon="6.77573">
        <ele>1205</ele>
        <time>2022-07-16T16:01:32.833Z</time>
      </trkpt>
      <trkpt lat="45.66641" lon="6.77601">
        <ele>1208</ele>
        <time>2022-07-16T16:01:42.883Z</time>
      </trkpt>
      <trkpt lat="45.66644" lon="6.77605">
        <ele>1209</ele>
        <time>2022-07-16T16:01:44.987Z</time>
      </trkpt>
      <trkpt lat="45.66652" lon="6.77603">
        <ele>1211</ele>
        <time>2022-07-16T16:01:49.153Z</time>
      </trkpt>
      <trkpt lat="45.6667" lon="6.7754">
        <ele>1213</ele>
        <time>2022-07-16T16:01:59.440Z</time>
      </trkpt>
      <trkpt lat="45.66679" lon="6.77516">
        <ele>1216</ele>
        <time>2022-07-16T16:02:09.204Z</time>
      </trkpt>
      <trkpt lat="45.66706" lon="6.77461">
        <ele>1224</ele>
        <time>2022-07-16T16:02:33.298Z</time>
      </trkpt>
      <trkpt lat="45.66708" lon="6.77449">
        <ele>1224</ele>
        <time>2022-07-16T16:02:34.444Z</time>
      </trkpt>
      <trkpt lat="45.66708" lon="6.77421">
        <ele>1223</ele>
        <time>2022-07-16T16:02:35.978Z</time>
      </trkpt>
      <trkpt lat="45.66704" lon="6.77405">
        <ele>1222</ele>
        <time>2022-07-16T16:02:36.874Z</time>
      </trkpt>
      <trkpt lat="45.66693" lon="6.77377">
        <ele>1219</ele>
        <time>2022-07-16T16:02:38.568Z</time>
      </trkpt>
      <trkpt lat="45.6668" lon="6.77355">
        <ele>1214</ele>
        <time>2022-07-16T16:02:40.088Z</time>
      </trkpt>
      <trkpt lat="45.66678" lon="6.77341">
        <ele>1214</ele>
        <time>2022-07-16T16:02:41.416Z</time>
      </trkpt>
      <trkpt lat="45.66681" lon="6.77309">
        <ele>1216</ele>
        <time>2022-07-16T16:02:48.441Z</time>
      </trkpt>
      <trkpt lat="45.66695" lon="6.77265">
        <ele>1224</ele>
        <time>2022-07-16T16:03:05.772Z</time>
      </trkpt>
      <trkpt lat="45.66698" lon="6.77236">
        <ele>1226</ele>
        <time>2022-07-16T16:03:12.696Z</time>
      </trkpt>
      <trkpt lat="45.66697" lon="6.77226">
        <ele>1226</ele>
        <time>2022-07-16T16:03:13.635Z</time>
      </trkpt>
      <trkpt lat="45.66701" lon="6.77214">
        <ele>1228</ele>
        <time>2022-07-16T16:03:18.401Z</time>
      </trkpt>
      <trkpt lat="45.66705" lon="6.77213">
        <ele>1230</ele>
        <time>2022-07-16T16:03:20.484Z</time>
      </trkpt>
      <trkpt lat="45.66711" lon="6.77216">
        <ele>1232</ele>
        <time>2022-07-16T16:03:23.744Z</time>
      </trkpt>
      <trkpt lat="45.66705" lon="6.77254">
        <ele>1229</ele>
        <time>2022-07-16T16:03:25.799Z</time>
      </trkpt>
      <trkpt lat="45.66706" lon="6.77279">
        <ele>1228</ele>
        <time>2022-07-16T16:03:27.103Z</time>
      </trkpt>
      <trkpt lat="45.66711" lon="6.7729">
        <ele>1230</ele>
        <time>2022-07-16T16:03:31.807Z</time>
      </trkpt>
      <trkpt lat="45.66728" lon="6.77309">
        <ele>1237</ele>
        <time>2022-07-16T16:03:42.871Z</time>
      </trkpt>
      <trkpt lat="45.66731" lon="6.77319">
        <ele>1237</ele>
        <time>2022-07-16T16:03:43.883Z</time>
      </trkpt>
      <trkpt lat="45.66728" lon="6.77353">
        <ele>1234</ele>
        <time>2022-07-16T16:03:45.690Z</time>
      </trkpt>
      <trkpt lat="45.66729" lon="6.77375">
        <ele>1233</ele>
        <time>2022-07-16T16:03:46.770Z</time>
      </trkpt>
      <trkpt lat="45.66755" lon="6.77418">
        <ele>1241</ele>
        <time>2022-07-16T16:04:07.153Z</time>
      </trkpt>
      <trkpt lat="45.66767" lon="6.7745">
        <ele>1247</ele>
        <time>2022-07-16T16:04:20.171Z</time>
      </trkpt>
      <trkpt lat="45.66774" lon="6.77481">
        <ele>1251</ele>
        <time>2022-07-16T16:04:31.848Z</time>
      </trkpt>
      <trkpt lat="45.66779" lon="6.77488">
        <ele>1254</ele>
        <time>2022-07-16T16:04:35.437Z</time>
      </trkpt>
      <trkpt lat="45.66784" lon="6.77481">
        <ele>1257</ele>
        <time>2022-07-16T16:04:39.025Z</time>
      </trkpt>
      <trkpt lat="45.66764" lon="6.77378">
        <ele>1248</ele>
        <time>2022-07-16T16:04:44.663Z</time>
      </trkpt>
      <trkpt lat="45.6676" lon="6.77338">
        <ele>1250</ele>
        <time>2022-07-16T16:04:52.267Z</time>
      </trkpt>
      <trkpt lat="45.66763" lon="6.77282">
        <ele>1254</ele>
        <time>2022-07-16T16:05:06.098Z</time>
      </trkpt>
      <trkpt lat="45.66756" lon="6.77247">
        <ele>1252</ele>
        <time>2022-07-16T16:05:08.018Z</time>
      </trkpt>
      <trkpt lat="45.66758" lon="6.77235">
        <ele>1252</ele>
        <time>2022-07-16T16:05:09.165Z</time>
      </trkpt>
      <trkpt lat="45.66766" lon="6.77227">
        <ele>1255</ele>
        <time>2022-07-16T16:05:14.171Z</time>
      </trkpt>
      <trkpt lat="45.66783" lon="6.77226">
        <ele>1264</ele>
        <time>2022-07-16T16:05:22.899Z</time>
      </trkpt>
      <trkpt lat="45.66797" lon="6.77218">
        <ele>1270</ele>
        <time>2022-07-16T16:05:30.631Z</time>
      </trkpt>
      <trkpt lat="45.66801" lon="6.77208">
        <ele>1271</ele>
        <time>2022-07-16T16:05:34.275Z</time>
      </trkpt>
      <trkpt lat="45.66803" lon="6.77174">
        <ele>1267</ele>
        <time>2022-07-16T16:05:36.075Z</time>
      </trkpt>
      <trkpt lat="45.66805" lon="6.77168">
        <ele>1268</ele>
        <time>2022-07-16T16:05:38.458Z</time>
      </trkpt>
      <trkpt lat="45.66808" lon="6.77167">
        <ele>1269</ele>
        <time>2022-07-16T16:05:40.038Z</time>
      </trkpt>
      <trkpt lat="45.66812" lon="6.7717">
        <ele>1271</ele>
        <time>2022-07-16T16:05:42.354Z</time>
      </trkpt>
      <trkpt lat="45.66814" lon="6.77176">
        <ele>1273</ele>
        <time>2022-07-16T16:05:44.737Z</time>
      </trkpt>
      <trkpt lat="45.66814" lon="6.77207">
        <ele>1277</ele>
        <time>2022-07-16T16:05:55.849Z</time>
      </trkpt>
      <trkpt lat="45.66811" lon="6.77227">
        <ele>1278</ele>
        <time>2022-07-16T16:05:59.673Z</time>
      </trkpt>
      <trkpt lat="45.66808" lon="6.77237">
        <ele>1278</ele>
        <time>2022-07-16T16:06:00.684Z</time>
      </trkpt>
      <trkpt lat="45.66793" lon="6.77265">
        <ele>1271</ele>
        <time>2022-07-16T16:06:02.545Z</time>
      </trkpt>
      <trkpt lat="45.66793" lon="6.77282">
        <ele>1270</ele>
        <time>2022-07-16T16:06:03.442Z</time>
      </trkpt>
      <trkpt lat="45.66814" lon="6.7733">
        <ele>1277</ele>
        <time>2022-07-16T16:06:23.742Z</time>
      </trkpt>
      <trkpt lat="45.66826" lon="6.77422">
        <ele>1278</ele>
        <time>2022-07-16T16:06:33.856Z</time>
      </trkpt>
      <trkpt lat="45.6684" lon="6.77445">
        <ele>1286</ele>
        <time>2022-07-16T16:06:44.789Z</time>
      </trkpt>
      <trkpt lat="45.66851" lon="6.77456">
        <ele>1293</ele>
        <time>2022-07-16T16:06:51.673Z</time>
      </trkpt>
      <trkpt lat="45.66858" lon="6.77471">
        <ele>1297</ele>
        <time>2022-07-16T16:06:58.138Z</time>
      </trkpt>
      <trkpt lat="45.6686" lon="6.7748">
        <ele>1298</ele>
        <time>2022-07-16T16:07:01.524Z</time>
      </trkpt>
      <trkpt lat="45.66859" lon="6.77493">
        <ele>1297</ele>
        <time>2022-07-16T16:07:02.213Z</time>
      </trkpt>
      <trkpt lat="45.66849" lon="6.77528">
        <ele>1296</ele>
        <time>2022-07-16T16:07:04.551Z</time>
      </trkpt>
      <trkpt lat="45.66851" lon="6.77537">
        <ele>1299</ele>
        <time>2022-07-16T16:07:07.936Z</time>
      </trkpt>
      <trkpt lat="45.66854" lon="6.77537">
        <ele>1301</ele>
        <time>2022-07-16T16:07:09.475Z</time>
      </trkpt>
      <trkpt lat="45.66858" lon="6.77535">
        <ele>1303</ele>
        <time>2022-07-16T16:07:11.649Z</time>
      </trkpt>
      <trkpt lat="45.66861" lon="6.77527">
        <ele>1303</ele>
        <time>2022-07-16T16:07:12.492Z</time>
      </trkpt>
      <trkpt lat="45.66875" lon="6.77478">
        <ele>1306</ele>
        <time>2022-07-16T16:07:23.296Z</time>
      </trkpt>
      <trkpt lat="45.66876" lon="6.77466">
        <ele>1307</ele>
        <time>2022-07-16T16:07:26.855Z</time>
      </trkpt>
      <trkpt lat="45.66875" lon="6.77457">
        <ele>1306</ele>
        <time>2022-07-16T16:07:27.335Z</time>
      </trkpt>
      <trkpt lat="45.6686" lon="6.7743">
        <ele>1297</ele>
        <time>2022-07-16T16:07:29.155Z</time>
      </trkpt>
      <trkpt lat="45.66859" lon="6.7742">
        <ele>1297</ele>
        <time>2022-07-16T16:07:30.094Z</time>
      </trkpt>
      <trkpt lat="45.66864" lon="6.77384">
        <ele>1301</ele>
        <time>2022-07-16T16:07:43.250Z</time>
      </trkpt>
      <trkpt lat="45.66865" lon="6.77358">
        <ele>1302</ele>
        <time>2022-07-16T16:07:47.624Z</time>
      </trkpt>
      <trkpt lat="45.66862" lon="6.77298">
        <ele>1304</ele>
        <time>2022-07-16T16:07:57.246Z</time>
      </trkpt>
      <trkpt lat="45.66872" lon="6.77237">
        <ele>1311</ele>
        <time>2022-07-16T16:08:19.705Z</time>
      </trkpt>
      <trkpt lat="45.66875" lon="6.77189">
        <ele>1306</ele>
        <time>2022-07-16T16:08:22.247Z</time>
      </trkpt>
      <trkpt lat="45.66877" lon="6.77183">
        <ele>1307</ele>
        <time>2022-07-16T16:08:24.629Z</time>
      </trkpt>
      <trkpt lat="45.66882" lon="6.77178">
        <ele>1309</ele>
        <time>2022-07-16T16:08:27.758Z</time>
      </trkpt>
      <trkpt lat="45.66889" lon="6.7718">
        <ele>1313</ele>
        <time>2022-07-16T16:08:31.420Z</time>
      </trkpt>
      <trkpt lat="45.66889" lon="6.77253">
        <ele>1321</ele>
        <time>2022-07-16T16:08:57.587Z</time>
      </trkpt>
      <trkpt lat="45.66893" lon="6.77295">
        <ele>1320</ele>
        <time>2022-07-16T16:09:00.315Z</time>
      </trkpt>
      <trkpt lat="45.66896" lon="6.77313">
        <ele>1321</ele>
        <time>2022-07-16T16:09:03.978Z</time>
      </trkpt>
      <trkpt lat="45.66913" lon="6.7737">
        <ele>1329</ele>
        <time>2022-07-16T16:09:26.193Z</time>
      </trkpt>
      <trkpt lat="45.66916" lon="6.77388">
        <ele>1330</ele>
        <time>2022-07-16T16:09:29.856Z</time>
      </trkpt>
      <trkpt lat="45.66916" lon="6.77408">
        <ele>1330</ele>
        <time>2022-07-16T16:09:31.715Z</time>
      </trkpt>
      <trkpt lat="45.66918" lon="6.77413">
        <ele>1331</ele>
        <time>2022-07-16T16:09:33.780Z</time>
      </trkpt>
      <trkpt lat="45.66923" lon="6.77413">
        <ele>1333</ele>
        <time>2022-07-16T16:09:36.344Z</time>
      </trkpt>
      <trkpt lat="45.66927" lon="6.77407">
        <ele>1336</ele>
        <time>2022-07-16T16:09:39.317Z</time>
      </trkpt>
      <trkpt lat="45.66924" lon="6.77318">
        <ele>1335</ele>
        <time>2022-07-16T16:09:46.301Z</time>
      </trkpt>
      <trkpt lat="45.66927" lon="6.77244">
        <ele>1339</ele>
        <time>2022-07-16T16:10:00.961Z</time>
      </trkpt>
      <trkpt lat="45.66929" lon="6.77235">
        <ele>1339</ele>
        <time>2022-07-16T16:10:01.838Z</time>
      </trkpt>
      <trkpt lat="45.66947" lon="6.77198">
        <ele>1345</ele>
        <time>2022-07-16T16:10:17.998Z</time>
      </trkpt>
      <trkpt lat="45.66956" lon="6.77166">
        <ele>1348</ele>
        <time>2022-07-16T16:10:28.943Z</time>
      </trkpt>
      <trkpt lat="45.6696" lon="6.77163">
        <ele>1351</ele>
        <time>2022-07-16T16:10:31.259Z</time>
      </trkpt>
      <trkpt lat="45.66962" lon="6.77164">
        <ele>1352</ele>
        <time>2022-07-16T16:10:32.346Z</time>
      </trkpt>
      <trkpt lat="45.66964" lon="6.77175">
        <ele>1353</ele>
        <time>2022-07-16T16:10:36.020Z</time>
      </trkpt>
      <trkpt lat="45.6696" lon="6.77209">
        <ele>1352</ele>
        <time>2022-07-16T16:10:38.079Z</time>
      </trkpt>
      <trkpt lat="45.66975" lon="6.77391">
        <ele>1361</ele>
        <time>2022-07-16T16:11:12.421Z</time>
      </trkpt>
      <trkpt lat="45.66969" lon="6.7743">
        <ele>1358</ele>
        <time>2022-07-16T16:11:14.527Z</time>
      </trkpt>
      <trkpt lat="45.6697" lon="6.77438">
        <ele>1359</ele>
        <time>2022-07-16T16:11:17.440Z</time>
      </trkpt>
      <trkpt lat="45.66976" lon="6.77438">
        <ele>1362</ele>
        <time>2022-07-16T16:11:20.518Z</time>
      </trkpt>
      <trkpt lat="45.66981" lon="6.77414">
        <ele>1365</ele>
        <time>2022-07-16T16:11:29.494Z</time>
      </trkpt>
      <trkpt lat="45.67" lon="6.77356">
        <ele>1372</ele>
        <time>2022-07-16T16:11:52.455Z</time>
      </trkpt>
      <trkpt lat="45.67005" lon="6.77334">
        <ele>1374</ele>
        <time>2022-07-16T16:11:59.726Z</time>
      </trkpt>
      <trkpt lat="45.67007" lon="6.77294">
        <ele>1374</ele>
        <time>2022-07-16T16:12:03.453Z</time>
      </trkpt>
      <trkpt lat="45.67004" lon="6.77196">
        <ele>1374</ele>
        <time>2022-07-16T16:12:12.569Z</time>
      </trkpt>
      <trkpt lat="45.67013" lon="6.7714">
        <ele>1381</ele>
        <time>2022-07-16T16:12:33.166Z</time>
      </trkpt>
      <trkpt lat="45.67018" lon="6.77121">
        <ele>1385</ele>
        <time>2022-07-16T16:12:40.443Z</time>
      </trkpt>
      <trkpt lat="45.6703" lon="6.771">
        <ele>1394</ele>
        <time>2022-07-16T16:12:50.167Z</time>
      </trkpt>
      <trkpt lat="45.67032" lon="6.77089">
        <ele>1396</ele>
        <time>2022-07-16T16:12:54.241Z</time>
      </trkpt>
      <trkpt lat="45.6703" lon="6.77078">
        <ele>1395</ele>
        <time>2022-07-16T16:12:54.840Z</time>
      </trkpt>
      <trkpt lat="45.67012" lon="6.7705">
        <ele>1384</ele>
        <time>2022-07-16T16:12:56.847Z</time>
      </trkpt>
      <trkpt lat="45.67012" lon="6.77034">
        <ele>1385</ele>
        <time>2022-07-16T16:13:00.353Z</time>
      </trkpt>
      <trkpt lat="45.6702" lon="6.77008">
        <ele>1391</ele>
        <time>2022-07-16T16:13:10.536Z</time>
      </trkpt>
      <trkpt lat="45.67056" lon="6.76956">
        <ele>1407</ele>
        <time>2022-07-16T16:13:36.773Z</time>
      </trkpt>
      <trkpt lat="45.67081" lon="6.76908">
        <ele>1415</ele>
        <time>2022-07-16T16:13:58.232Z</time>
      </trkpt>
      <trkpt lat="45.67089" lon="6.7688">
        <ele>1418</ele>
        <time>2022-07-16T16:14:09.075Z</time>
      </trkpt>
      <trkpt lat="45.67096" lon="6.76822">
        <ele>1419</ele>
        <time>2022-07-16T16:14:16.111Z</time>
      </trkpt>
      <trkpt lat="45.67104" lon="6.76787">
        <ele>1425</ele>
        <time>2022-07-16T16:14:29.311Z</time>
      </trkpt>
      <trkpt lat="45.67105" lon="6.76756">
        <ele>1426</ele>
        <time>2022-07-16T16:14:34.228Z</time>
      </trkpt>
      <trkpt lat="45.67098" lon="6.76709">
        <ele>1423</ele>
        <time>2022-07-16T16:14:36.763Z</time>
      </trkpt>
      <trkpt lat="45.67108" lon="6.76643">
        <ele>1428</ele>
        <time>2022-07-16T16:14:54.088Z</time>
      </trkpt>
      <trkpt lat="45.67105" lon="6.7653">
        <ele>1426</ele>
        <time>2022-07-16T16:15:02.046Z</time>
      </trkpt>
      <trkpt lat="45.67119" lon="6.765">
        <ele>1436</ele>
        <time>2022-07-16T16:15:14.976Z</time>
      </trkpt>
      <trkpt lat="45.67122" lon="6.76484">
        <ele>1439</ele>
        <time>2022-07-16T16:15:20.914Z</time>
      </trkpt>
      <trkpt lat="45.67122" lon="6.76469">
        <ele>1439</ele>
        <time>2022-07-16T16:15:22.308Z</time>
      </trkpt>
      <trkpt lat="45.67113" lon="6.76435">
        <ele>1434</ele>
        <time>2022-07-16T16:15:24.226Z</time>
      </trkpt>
      <trkpt lat="45.67111" lon="6.764">
        <ele>1433</ele>
        <time>2022-07-16T16:15:26.337Z</time>
      </trkpt>
      <trkpt lat="45.67109" lon="6.76385">
        <ele>1432</ele>
        <time>2022-07-16T16:15:27.143Z</time>
      </trkpt>
      <trkpt lat="45.67103" lon="6.76367">
        <ele>1428</ele>
        <time>2022-07-16T16:15:28.194Z</time>
      </trkpt>
      <trkpt lat="45.67102" lon="6.76352">
        <ele>1427</ele>
        <time>2022-07-16T16:15:28.989Z</time>
      </trkpt>
      <trkpt lat="45.67105" lon="6.76332">
        <ele>1429</ele>
        <time>2022-07-16T16:15:36.321Z</time>
      </trkpt>
      <trkpt lat="45.6712" lon="6.76281">
        <ele>1439</ele>
        <time>2022-07-16T16:15:56.155Z</time>
      </trkpt>
      <trkpt lat="45.67122" lon="6.76253">
        <ele>1441</ele>
        <time>2022-07-16T16:16:03.070Z</time>
      </trkpt>
      <trkpt lat="45.67125" lon="6.76176">
        <ele>1449</ele>
        <time>2022-07-16T16:16:30.713Z</time>
      </trkpt>
      <trkpt lat="45.6712" lon="6.76075">
        <ele>1459</ele>
        <time>2022-07-16T16:17:07.005Z</time>
      </trkpt>
      <trkpt lat="45.67104" lon="6.76036">
        <ele>1457</ele>
        <time>2022-07-16T16:17:09.248Z</time>
      </trkpt>
      <trkpt lat="45.67105" lon="6.76">
        <ele>1464</ele>
        <time>2022-07-16T16:17:22.162Z</time>
      </trkpt>
      <trkpt lat="45.67101" lon="6.75987">
        <ele>1465</ele>
        <time>2022-07-16T16:17:25.620Z</time>
      </trkpt>
      <trkpt lat="45.67087" lon="6.75962">
        <ele>1464</ele>
        <time>2022-07-16T16:17:27.477Z</time>
      </trkpt>
      <trkpt lat="45.67063" lon="6.75938">
        <ele>1458</ele>
        <time>2022-07-16T16:17:29.687Z</time>
      </trkpt>
      <trkpt lat="45.67046" lon="6.75915">
        <ele>1453</ele>
        <time>2022-07-16T16:17:31.453Z</time>
      </trkpt>
      <trkpt lat="45.67043" lon="6.75903">
        <ele>1453</ele>
        <time>2022-07-16T16:17:32.637Z</time>
      </trkpt>
      <trkpt lat="45.67043" lon="6.75888">
        <ele>1453</ele>
        <time>2022-07-16T16:17:34.031Z</time>
      </trkpt>
      <trkpt lat="45.67059" lon="6.75864">
        <ele>1461</ele>
        <time>2022-07-16T16:17:45.921Z</time>
      </trkpt>
      <trkpt lat="45.67111" lon="6.75756">
        <ele>1467</ele>
        <time>2022-07-16T16:18:09.636Z</time>
      </trkpt>
      <trkpt lat="45.67129" lon="6.75743">
        <ele>1469</ele>
        <time>2022-07-16T16:18:16.554Z</time>
      </trkpt>
      <trkpt lat="45.67137" lon="6.75744">
        <ele>1470</ele>
        <time>2022-07-16T16:18:20.204Z</time>
      </trkpt>
      <trkpt lat="45.6715" lon="6.75752">
        <ele>1472</ele>
        <time>2022-07-16T16:18:27.462Z</time>
      </trkpt>
      <trkpt lat="45.67173" lon="6.75754">
        <ele>1476</ele>
        <time>2022-07-16T16:18:39.282Z</time>
      </trkpt>
      <trkpt lat="45.67217" lon="6.7573">
        <ele>1482</ele>
        <time>2022-07-16T16:19:01.504Z</time>
      </trkpt>
      <trkpt lat="45.67234" lon="6.75716">
        <ele>1484</ele>
        <time>2022-07-16T16:19:08.420Z</time>
      </trkpt>
      <trkpt lat="45.67246" lon="6.75701">
        <ele>1484</ele>
        <time>2022-07-16T16:19:10.539Z</time>
      </trkpt>
      <trkpt lat="45.67265" lon="6.7567">
        <ele>1485</ele>
        <time>2022-07-16T16:19:16.157Z</time>
      </trkpt>
      <trkpt lat="45.67288" lon="6.75644">
        <ele>1486</ele>
        <time>2022-07-16T16:19:21.826Z</time>
      </trkpt>
      <trkpt lat="45.67297" lon="6.75628">
        <ele>1486</ele>
        <time>2022-07-16T16:19:23.735Z</time>
      </trkpt>
      <trkpt lat="45.67307" lon="6.75596">
        <ele>1482</ele>
        <time>2022-07-16T16:19:25.584Z</time>
      </trkpt>
      <trkpt lat="45.67316" lon="6.75556">
        <ele>1478</ele>
        <time>2022-07-16T16:19:27.800Z</time>
      </trkpt>
      <trkpt lat="45.67325" lon="6.7553">
        <ele>1476</ele>
        <time>2022-07-16T16:19:29.330Z</time>
      </trkpt>
      <trkpt lat="45.67335" lon="6.75514">
        <ele>1475</ele>
        <time>2022-07-16T16:19:30.367Z</time>
      </trkpt>
      <trkpt lat="45.67378" lon="6.75462">
        <ele>1485</ele>
        <time>2022-07-16T16:19:59.244Z</time>
      </trkpt>
      <trkpt lat="45.67392" lon="6.75434">
        <ele>1487</ele>
        <time>2022-07-16T16:20:06.390Z</time>
      </trkpt>
      <trkpt lat="45.67412" lon="6.75375">
        <ele>1486</ele>
        <time>2022-07-16T16:20:11.189Z</time>
      </trkpt>
      <trkpt lat="45.67415" lon="6.75353">
        <ele>1483</ele>
        <time>2022-07-16T16:20:12.371Z</time>
      </trkpt>
      <trkpt lat="45.67415" lon="6.75322">
        <ele>1480</ele>
        <time>2022-07-16T16:20:14.006Z</time>
      </trkpt>
      <trkpt lat="45.67411" lon="6.75295">
        <ele>1479</ele>
        <time>2022-07-16T16:20:15.508Z</time>
      </trkpt>
      <trkpt lat="45.67408" lon="6.75223">
        <ele>1477</ele>
        <time>2022-07-16T16:20:19.889Z</time>
      </trkpt>
      <trkpt lat="45.6741" lon="6.7519">
        <ele>1478</ele>
        <time>2022-07-16T16:20:24.983Z</time>
      </trkpt>
      <trkpt lat="45.67414" lon="6.75169">
        <ele>1479</ele>
        <time>2022-07-16T16:20:28.927Z</time>
      </trkpt>
      <trkpt lat="45.67428" lon="6.75138">
        <ele>1480</ele>
        <time>2022-07-16T16:20:34.245Z</time>
      </trkpt>
      <trkpt lat="45.67459" lon="6.75093">
        <ele>1482</ele>
        <time>2022-07-16T16:20:44.206Z</time>
      </trkpt>
      <trkpt lat="45.67489" lon="6.75054">
        <ele>1485</ele>
        <time>2022-07-16T16:20:55.391Z</time>
      </trkpt>
      <trkpt lat="45.67524" lon="6.75017">
        <ele>1492</ele>
        <time>2022-07-16T16:21:17.711Z</time>
      </trkpt>
      <trkpt lat="45.67546" lon="6.7498">
        <ele>1495</ele>
        <time>2022-07-16T16:21:28.256Z</time>
      </trkpt>
      <trkpt lat="45.67554" lon="6.74958">
        <ele>1496</ele>
        <time>2022-07-16T16:21:32.500Z</time>
      </trkpt>
      <trkpt lat="45.6756" lon="6.74931">
        <ele>1495</ele>
        <time>2022-07-16T16:21:34.059Z</time>
      </trkpt>
      <trkpt lat="45.67569" lon="6.74842">
        <ele>1494</ele>
        <time>2022-07-16T16:21:41.120Z</time>
      </trkpt>
      <trkpt lat="45.67573" lon="6.74827">
        <ele>1493</ele>
        <time>2022-07-16T16:21:41.967Z</time>
      </trkpt>
      <trkpt lat="45.67596" lon="6.74775">
        <ele>1493</ele>
        <time>2022-07-16T16:21:47.685Z</time>
      </trkpt>
      <trkpt lat="45.67605" lon="6.74746">
        <ele>1493</ele>
        <time>2022-07-16T16:21:50.634Z</time>
      </trkpt>
      <trkpt lat="45.67616" lon="6.74722">
        <ele>1496</ele>
        <time>2022-07-16T16:22:00.921Z</time>
      </trkpt>
      <trkpt lat="45.67637" lon="6.74693">
        <ele>1499</ele>
        <time>2022-07-16T16:22:11.297Z</time>
      </trkpt>
      <trkpt lat="45.67683" lon="6.74665">
        <ele>1501</ele>
        <time>2022-07-16T16:22:21.790Z</time>
      </trkpt>
      <trkpt lat="45.67704" lon="6.74641">
        <ele>1504</ele>
        <time>2022-07-16T16:22:32.272Z</time>
      </trkpt>
      <trkpt lat="45.67718" lon="6.74619">
        <ele>1504</ele>
        <time>2022-07-16T16:22:35.037Z</time>
      </trkpt>
      <trkpt lat="45.67809" lon="6.7438">
        <ele>1508</ele>
        <time>2022-07-16T16:23:06.363Z</time>
      </trkpt>
      <trkpt lat="45.67837" lon="6.74326">
        <ele>1509</ele>
        <time>2022-07-16T16:23:14.124Z</time>
      </trkpt>
      <trkpt lat="45.67873" lon="6.74272">
        <ele>1518</ele>
        <time>2022-07-16T16:23:40.874Z</time>
      </trkpt>
      <trkpt lat="45.67924" lon="6.74216">
        <ele>1522</ele>
        <time>2022-07-16T16:23:57.123Z</time>
      </trkpt>
      <trkpt lat="45.6793" lon="6.74205">
        <ele>1523</ele>
        <time>2022-07-16T16:24:00.581Z</time>
      </trkpt>
      <trkpt lat="45.67964" lon="6.74162">
        <ele>1522</ele>
        <time>2022-07-16T16:24:05.322Z</time>
      </trkpt>
      <trkpt lat="45.68002" lon="6.74118">
        <ele>1523</ele>
        <time>2022-07-16T16:24:13.321Z</time>
      </trkpt>
      <trkpt lat="45.68101" lon="6.74017">
        <ele>1534</ele>
        <time>2022-07-16T16:24:51.796Z</time>
      </trkpt>
      <trkpt lat="45.68121" lon="6.73988">
        <ele>1536</ele>
        <time>2022-07-16T16:24:59.429Z</time>
      </trkpt>
      <trkpt lat="45.68143" lon="6.73974">
        <ele>1537</ele>
        <time>2022-07-16T16:25:04.597Z</time>
      </trkpt>
      <trkpt lat="45.68193" lon="6.73952">
        <ele>1535</ele>
        <time>2022-07-16T16:25:09.207Z</time>
      </trkpt>
      <trkpt lat="45.68215" lon="6.73935">
        <ele>1535</ele>
        <time>2022-07-16T16:25:12.532Z</time>
      </trkpt>
      <trkpt lat="45.683" lon="6.73786">
        <ele>1542</ele>
        <time>2022-07-16T16:25:44.216Z</time>
      </trkpt>
      <trkpt lat="45.68311" lon="6.73774">
        <ele>1542</ele>
        <time>2022-07-16T16:25:46.055Z</time>
      </trkpt>
      <trkpt lat="45.68333" lon="6.73759">
        <ele>1539</ele>
        <time>2022-07-16T16:25:47.894Z</time>
      </trkpt>
      <trkpt lat="45.68358" lon="6.73748">
        <ele>1539</ele>
        <time>2022-07-16T16:25:51.372Z</time>
      </trkpt>
      <trkpt lat="45.68446" lon="6.73725">
        <ele>1540</ele>
        <time>2022-07-16T16:26:04.626Z</time>
      </trkpt>
      <trkpt lat="45.68498" lon="6.73691">
        <ele>1542</ele>
        <time>2022-07-16T16:26:15.813Z</time>
      </trkpt>
      <trkpt lat="45.68514" lon="6.73671">
        <ele>1542</ele>
        <time>2022-07-16T16:26:18.638Z</time>
      </trkpt>
      <trkpt lat="45.68529" lon="6.7365">
        <ele>1544</ele>
        <time>2022-07-16T16:26:25.578Z</time>
      </trkpt>
      <trkpt lat="45.68546" lon="6.73617">
        <ele>1547</ele>
        <time>2022-07-16T16:26:35.963Z</time>
      </trkpt>
      <trkpt lat="45.68575" lon="6.7355">
        <ele>1548</ele>
        <time>2022-07-16T16:26:44.747Z</time>
      </trkpt>
      <trkpt lat="45.68583" lon="6.73516">
        <ele>1547</ele>
        <time>2022-07-16T16:26:46.921Z</time>
      </trkpt>
      <trkpt lat="45.68587" lon="6.73398">
        <ele>1556</ele>
        <time>2022-07-16T16:27:18.223Z</time>
      </trkpt>
      <trkpt lat="45.68601" lon="6.73355">
        <ele>1563</ele>
        <time>2022-07-16T16:27:35.223Z</time>
      </trkpt>
      <trkpt lat="45.68618" lon="6.73331">
        <ele>1567</ele>
        <time>2022-07-16T16:27:47.471Z</time>
      </trkpt>
      <trkpt lat="45.68654" lon="6.73311">
        <ele>1569</ele>
        <time>2022-07-16T16:27:56.557Z</time>
      </trkpt>
      <trkpt lat="45.68748" lon="6.73287">
        <ele>1573</ele>
        <time>2022-07-16T16:28:17.161Z</time>
      </trkpt>
      <trkpt lat="45.68775" lon="6.73278">
        <ele>1577</ele>
        <time>2022-07-16T16:28:31.382Z</time>
      </trkpt>
      <trkpt lat="45.68801" lon="6.73277">
        <ele>1580</ele>
        <time>2022-07-16T16:28:41.958Z</time>
      </trkpt>
      <trkpt lat="45.68829" lon="6.73281">
        <ele>1581</ele>
        <time>2022-07-16T16:28:47.506Z</time>
      </trkpt>
      <trkpt lat="45.6888" lon="6.73302">
        <ele>1582</ele>
        <time>2022-07-16T16:28:56.035Z</time>
      </trkpt>
      <trkpt lat="45.68894" lon="6.73304">
        <ele>1583</ele>
        <time>2022-07-16T16:28:59.831Z</time>
      </trkpt>
      <trkpt lat="45.68932" lon="6.73303">
        <ele>1587</ele>
        <time>2022-07-16T16:29:13.683Z</time>
      </trkpt>
      <trkpt lat="45.68959" lon="6.73293">
        <ele>1589</ele>
        <time>2022-07-16T16:29:21.244Z</time>
      </trkpt>
      <trkpt lat="45.68998" lon="6.73284">
        <ele>1590</ele>
        <time>2022-07-16T16:29:28.083Z</time>
      </trkpt>
      <trkpt lat="45.69023" lon="6.73283">
        <ele>1591</ele>
        <time>2022-07-16T16:29:33.331Z</time>
      </trkpt>
      <trkpt lat="45.69046" lon="6.73272">
        <ele>1596</ele>
        <time>2022-07-16T16:29:45.770Z</time>
      </trkpt>
      <trkpt lat="45.69072" lon="6.73265">
        <ele>1599</ele>
        <time>2022-07-16T16:29:56.293Z</time>
      </trkpt>
      <trkpt lat="45.69109" lon="6.73259">
        <ele>1603</ele>
        <time>2022-07-16T16:30:10.174Z</time>
      </trkpt>
      <trkpt lat="45.69171" lon="6.73254">
        <ele>1607</ele>
        <time>2022-07-16T16:30:26.120Z</time>
      </trkpt>
      <trkpt lat="45.69244" lon="6.73235">
        <ele>1617</ele>
        <time>2022-07-16T16:31:04.180Z</time>
      </trkpt>
      <trkpt lat="45.69266" lon="6.73232">
        <ele>1615</ele>
        <time>2022-07-16T16:31:05.847Z</time>
      </trkpt>
      <trkpt lat="45.69282" lon="6.73226">
        <ele>1614</ele>
        <time>2022-07-16T16:31:07.048Z</time>
      </trkpt>
      <trkpt lat="45.69325" lon="6.73202">
        <ele>1610</ele>
        <time>2022-07-16T16:31:10.531Z</time>
      </trkpt>
      <trkpt lat="45.69335" lon="6.73184">
        <ele>1611</ele>
        <time>2022-07-16T16:31:14.593Z</time>
      </trkpt>
      <trkpt lat="45.69337" lon="6.73173">
        <ele>1613</ele>
        <time>2022-07-16T16:31:18.665Z</time>
      </trkpt>
      <trkpt lat="45.69331" lon="6.73132">
        <ele>1622</ele>
        <time>2022-07-16T16:31:33.674Z</time>
      </trkpt>
      <trkpt lat="45.69331" lon="6.73086">
        <ele>1629</ele>
        <time>2022-07-16T16:31:50.156Z</time>
      </trkpt>
      <trkpt lat="45.69352" lon="6.72974">
        <ele>1634</ele>
        <time>2022-07-16T16:32:10.559Z</time>
      </trkpt>
      <trkpt lat="45.69366" lon="6.72852">
        <ele>1636</ele>
        <time>2022-07-16T16:32:25.136Z</time>
      </trkpt>
      <trkpt lat="45.69396" lon="6.72697">
        <ele>1652</ele>
        <time>2022-07-16T16:33:22.764Z</time>
      </trkpt>
      <trkpt lat="45.694" lon="6.72665">
        <ele>1656</ele>
        <time>2022-07-16T16:33:34.411Z</time>
      </trkpt>
      <trkpt lat="45.69404" lon="6.72597">
        <ele>1660</ele>
        <time>2022-07-16T16:33:48.662Z</time>
      </trkpt>
      <trkpt lat="45.69403" lon="6.72568">
        <ele>1662</ele>
        <time>2022-07-16T16:33:55.582Z</time>
      </trkpt>
      <trkpt lat="45.69387" lon="6.72409">
        <ele>1679</ele>
        <time>2022-07-16T16:34:53.139Z</time>
      </trkpt>
      <trkpt lat="45.69387" lon="6.72366">
        <ele>1682</ele>
        <time>2022-07-16T16:35:03.514Z</time>
      </trkpt>
      <trkpt lat="45.69393" lon="6.72337">
        <ele>1682</ele>
        <time>2022-07-16T16:35:06.323Z</time>
      </trkpt>
      <trkpt lat="45.69428" lon="6.72254">
        <ele>1689</ele>
        <time>2022-07-16T16:35:30.538Z</time>
      </trkpt>
      <trkpt lat="45.6945" lon="6.72223">
        <ele>1698</ele>
        <time>2022-07-16T16:35:46.371Z</time>
      </trkpt>
      <trkpt lat="45.6946" lon="6.72213">
        <ele>1701</ele>
        <time>2022-07-16T16:35:52.628Z</time>
      </trkpt>
      <trkpt lat="45.69475" lon="6.72205">
        <ele>1705</ele>
        <time>2022-07-16T16:36:00.839Z</time>
      </trkpt>
      <trkpt lat="45.69498" lon="6.72209">
        <ele>1705</ele>
        <time>2022-07-16T16:36:03.920Z</time>
      </trkpt>
      <trkpt lat="45.69511" lon="6.72227">
        <ele>1704</ele>
        <time>2022-07-16T16:36:05.289Z</time>
      </trkpt>
      <trkpt lat="45.6952" lon="6.72246">
        <ele>1703</ele>
        <time>2022-07-16T16:36:06.435Z</time>
      </trkpt>
      <trkpt lat="45.69532" lon="6.72326">
        <ele>1702</ele>
        <time>2022-07-16T16:36:12.734Z</time>
      </trkpt>
      <trkpt lat="45.6953" lon="6.72358">
        <ele>1699</ele>
        <time>2022-07-16T16:36:14.428Z</time>
      </trkpt>
      <trkpt lat="45.69522" lon="6.72397">
        <ele>1693</ele>
        <time>2022-07-16T16:36:16.571Z</time>
      </trkpt>
      <trkpt lat="45.69521" lon="6.72419">
        <ele>1691</ele>
        <time>2022-07-16T16:36:17.733Z</time>
      </trkpt>
      <trkpt lat="45.69523" lon="6.72429">
        <ele>1691</ele>
        <time>2022-07-16T16:36:18.699Z</time>
      </trkpt>
      <trkpt lat="45.69531" lon="6.72449">
        <ele>1691</ele>
        <time>2022-07-16T16:36:20.840Z</time>
      </trkpt>
      <trkpt lat="45.69555" lon="6.72489">
        <ele>1697</ele>
        <time>2022-07-16T16:36:39.733Z</time>
      </trkpt>
      <trkpt lat="45.69571" lon="6.72523">
        <ele>1698</ele>
        <time>2022-07-16T16:36:45.332Z</time>
      </trkpt>
      <trkpt lat="45.69584" lon="6.72558">
        <ele>1698</ele>
        <time>2022-07-16T16:36:49.014Z</time>
      </trkpt>
      <trkpt lat="45.69602" lon="6.72625">
        <ele>1694</ele>
        <time>2022-07-16T16:36:52.798Z</time>
      </trkpt>
      <trkpt lat="45.69611" lon="6.72678">
        <ele>1689</ele>
        <time>2022-07-16T16:36:55.674Z</time>
      </trkpt>
      <trkpt lat="45.69619" lon="6.72692">
        <ele>1689</ele>
        <time>2022-07-16T16:36:57.354Z</time>
      </trkpt>
      <trkpt lat="45.69626" lon="6.72693">
        <ele>1690</ele>
        <time>2022-07-16T16:37:00.962Z</time>
      </trkpt>
      <trkpt lat="45.69634" lon="6.72687">
        <ele>1693</ele>
        <time>2022-07-16T16:37:05.595Z</time>
      </trkpt>
      <trkpt lat="45.6964" lon="6.72668">
        <ele>1699</ele>
        <time>2022-07-16T16:37:13.066Z</time>
      </trkpt>
      <trkpt lat="45.6964" lon="6.72651">
        <ele>1701</ele>
        <time>2022-07-16T16:37:19.156Z</time>
      </trkpt>
      <trkpt lat="45.69636" lon="6.72621">
        <ele>1704</ele>
        <time>2022-07-16T16:37:30.099Z</time>
      </trkpt>
      <trkpt lat="45.69625" lon="6.72586">
        <ele>1705</ele>
        <time>2022-07-16T16:37:35.514Z</time>
      </trkpt>
      <trkpt lat="45.69617" lon="6.72545">
        <ele>1710</ele>
        <time>2022-07-16T16:37:50.766Z</time>
      </trkpt>
      <trkpt lat="45.69612" lon="6.72455">
        <ele>1720</ele>
        <time>2022-07-16T16:38:23.112Z</time>
      </trkpt>
      <trkpt lat="45.69614" lon="6.72372">
        <ele>1728</ele>
        <time>2022-07-16T16:38:52.867Z</time>
      </trkpt>
      <trkpt lat="45.69609" lon="6.72333">
        <ele>1730</ele>
        <time>2022-07-16T16:39:00.404Z</time>
      </trkpt>
      <trkpt lat="45.69588" lon="6.72287">
        <ele>1725</ele>
        <time>2022-07-16T16:39:03.301Z</time>
      </trkpt>
      <trkpt lat="45.69588" lon="6.72274">
        <ele>1725</ele>
        <time>2022-07-16T16:39:04.509Z</time>
      </trkpt>
      <trkpt lat="45.69592" lon="6.72267">
        <ele>1727</ele>
        <time>2022-07-16T16:39:07.749Z</time>
      </trkpt>
      <trkpt lat="45.69596" lon="6.72264">
        <ele>1728</ele>
        <time>2022-07-16T16:39:10.065Z</time>
      </trkpt>
      <trkpt lat="45.69602" lon="6.72264">
        <ele>1730</ele>
        <time>2022-07-16T16:39:13.143Z</time>
      </trkpt>
      <trkpt lat="45.69608" lon="6.7227">
        <ele>1732</ele>
        <time>2022-07-16T16:39:16.897Z</time>
      </trkpt>
      <trkpt lat="45.69648" lon="6.72352">
        <ele>1741</ele>
        <time>2022-07-16T16:39:50.496Z</time>
      </trkpt>
      <trkpt lat="45.69697" lon="6.72467">
        <ele>1746</ele>
        <time>2022-07-16T16:40:12.835Z</time>
      </trkpt>
      <trkpt lat="45.69705" lon="6.72493">
        <ele>1745</ele>
        <time>2022-07-16T16:40:14.400Z</time>
      </trkpt>
      <trkpt lat="45.69711" lon="6.72507">
        <ele>1745</ele>
        <time>2022-07-16T16:40:15.925Z</time>
      </trkpt>
      <trkpt lat="45.6972" lon="6.7252">
        <ele>1745</ele>
        <time>2022-07-16T16:40:17.626Z</time>
      </trkpt>
      <trkpt lat="45.69735" lon="6.72529">
        <ele>1748</ele>
        <time>2022-07-16T16:40:25.968Z</time>
      </trkpt>
      <trkpt lat="45.6978" lon="6.72542">
        <ele>1753</ele>
        <time>2022-07-16T16:40:43.355Z</time>
      </trkpt>
      <trkpt lat="45.69792" lon="6.72541">
        <ele>1755</ele>
        <time>2022-07-16T16:40:49.521Z</time>
      </trkpt>
      <trkpt lat="45.69804" lon="6.72531">
        <ele>1759</ele>
        <time>2022-07-16T16:40:56.643Z</time>
      </trkpt>
      <trkpt lat="45.69807" lon="6.72525">
        <ele>1760</ele>
        <time>2022-07-16T16:40:59.286Z</time>
      </trkpt>
      <trkpt lat="45.69811" lon="6.72511">
        <ele>1764</ele>
        <time>2022-07-16T16:41:04.705Z</time>
      </trkpt>
      <trkpt lat="45.6981" lon="6.7249">
        <ele>1767</ele>
        <time>2022-07-16T16:41:12.246Z</time>
      </trkpt>
      <trkpt lat="45.69806" lon="6.72478">
        <ele>1768</ele>
        <time>2022-07-16T16:41:15.718Z</time>
      </trkpt>
      <trkpt lat="45.69789" lon="6.72451">
        <ele>1768</ele>
        <time>2022-07-16T16:41:19.094Z</time>
      </trkpt>
      <trkpt lat="45.69763" lon="6.72423">
        <ele>1768</ele>
        <time>2022-07-16T16:41:23.421Z</time>
      </trkpt>
      <trkpt lat="45.69753" lon="6.72409">
        <ele>1768</ele>
        <time>2022-07-16T16:41:25.281Z</time>
      </trkpt>
      <trkpt lat="45.6974" lon="6.72375">
        <ele>1766</ele>
        <time>2022-07-16T16:41:27.324Z</time>
      </trkpt>
      <trkpt lat="45.69739" lon="6.72349">
        <ele>1767</ele>
        <time>2022-07-16T16:41:31.696Z</time>
      </trkpt>
      <trkpt lat="45.69741" lon="6.72339">
        <ele>1768</ele>
        <time>2022-07-16T16:41:35.423Z</time>
      </trkpt>
      <trkpt lat="45.69767" lon="6.72272">
        <ele>1777</ele>
        <time>2022-07-16T16:42:02.883Z</time>
      </trkpt>
      <trkpt lat="45.69769" lon="6.72248">
        <ele>1778</ele>
        <time>2022-07-16T16:42:07.061Z</time>
      </trkpt>
      <trkpt lat="45.69768" lon="6.72232">
        <ele>1779</ele>
        <time>2022-07-16T16:42:10.570Z</time>
      </trkpt>
      <trkpt lat="45.6976" lon="6.72205">
        <ele>1778</ele>
        <time>2022-07-16T16:42:12.208Z</time>
      </trkpt>
      <trkpt lat="45.69753" lon="6.72193">
        <ele>1777</ele>
        <time>2022-07-16T16:42:13.032Z</time>
      </trkpt>
      <trkpt lat="45.69735" lon="6.72174">
        <ele>1773</ele>
        <time>2022-07-16T16:42:14.720Z</time>
      </trkpt>
      <trkpt lat="45.69726" lon="6.72152">
        <ele>1772</ele>
        <time>2022-07-16T16:42:16.058Z</time>
      </trkpt>
      <trkpt lat="45.69725" lon="6.72131">
        <ele>1773</ele>
        <time>2022-07-16T16:42:19.934Z</time>
      </trkpt>
      <trkpt lat="45.69735" lon="6.7206">
        <ele>1779</ele>
        <time>2022-07-16T16:42:41.303Z</time>
      </trkpt>
      <trkpt lat="45.69738" lon="6.72008">
        <ele>1782</ele>
        <time>2022-07-16T16:42:52.054Z</time>
      </trkpt>
      <trkpt lat="45.69738" lon="6.71974">
        <ele>1788</ele>
        <time>2022-07-16T16:43:04.235Z</time>
      </trkpt>
      <trkpt lat="45.69732" lon="6.71951">
        <ele>1792</ele>
        <time>2022-07-16T16:43:13.031Z</time>
      </trkpt>
      <trkpt lat="45.69721" lon="6.71935">
        <ele>1794</ele>
        <time>2022-07-16T16:43:20.444Z</time>
      </trkpt>
      <trkpt lat="45.696" lon="6.71859">
        <ele>1792</ele>
        <time>2022-07-16T16:43:35.435Z</time>
      </trkpt>
      <trkpt lat="45.69589" lon="6.71847">
        <ele>1791</ele>
        <time>2022-07-16T16:43:36.479Z</time>
      </trkpt>
      <trkpt lat="45.69576" lon="6.71817">
        <ele>1792</ele>
        <time>2022-07-16T16:43:41.696Z</time>
      </trkpt>
      <trkpt lat="45.69569" lon="6.71752">
        <ele>1798</ele>
        <time>2022-07-16T16:44:04.337Z</time>
      </trkpt>
      <trkpt lat="45.6957" lon="6.71728">
        <ele>1800</ele>
        <time>2022-07-16T16:44:11.472Z</time>
      </trkpt>
      <trkpt lat="45.69577" lon="6.71714">
        <ele>1801</ele>
        <time>2022-07-16T16:44:15.045Z</time>
      </trkpt>
      <trkpt lat="45.69587" lon="6.71674">
        <ele>1803</ele>
        <time>2022-07-16T16:44:22.833Z</time>
      </trkpt>
      <trkpt lat="45.69586" lon="6.71662">
        <ele>1804</ele>
        <time>2022-07-16T16:44:26.393Z</time>
      </trkpt>
      <trkpt lat="45.69581" lon="6.71651">
        <ele>1804</ele>
        <time>2022-07-16T16:44:27.612Z</time>
      </trkpt>
      <trkpt lat="45.69573" lon="6.71641">
        <ele>1806</ele>
        <time>2022-07-16T16:44:33.059Z</time>
      </trkpt>
      <trkpt lat="45.69567" lon="6.71636">
        <ele>1807</ele>
        <time>2022-07-16T16:44:36.620Z</time>
      </trkpt>
      <trkpt lat="45.69545" lon="6.71634">
        <ele>1808</ele>
        <time>2022-07-16T16:44:41.595Z</time>
      </trkpt>
      <trkpt lat="45.69533" lon="6.71638">
        <ele>1808</ele>
        <time>2022-07-16T16:44:43.234Z</time>
      </trkpt>
      <trkpt lat="45.6949" lon="6.71663">
        <ele>1803</ele>
        <time>2022-07-16T16:44:46.737Z</time>
      </trkpt>
      <trkpt lat="45.6947" lon="6.71666">
        <ele>1801</ele>
        <time>2022-07-16T16:44:48.254Z</time>
      </trkpt>
      <trkpt lat="45.69462" lon="6.71662">
        <ele>1801</ele>
        <time>2022-07-16T16:44:49.381Z</time>
      </trkpt>
      <trkpt lat="45.69443" lon="6.71645">
        <ele>1802</ele>
        <time>2022-07-16T16:44:54.414Z</time>
      </trkpt>
      <trkpt lat="45.69435" lon="6.7163">
        <ele>1804</ele>
        <time>2022-07-16T16:45:01.176Z</time>
      </trkpt>
      <trkpt lat="45.69431" lon="6.71616">
        <ele>1805</ele>
        <time>2022-07-16T16:45:04.649Z</time>
      </trkpt>
      <trkpt lat="45.69431" lon="6.71588">
        <ele>1808</ele>
        <time>2022-07-16T16:45:14.681Z</time>
      </trkpt>
      <trkpt lat="45.69443" lon="6.7154">
        <ele>1814</ele>
        <time>2022-07-16T16:45:32.947Z</time>
      </trkpt>
      <trkpt lat="45.69447" lon="6.71508">
        <ele>1818</ele>
        <time>2022-07-16T16:45:44.595Z</time>
      </trkpt>
      <trkpt lat="45.69446" lon="6.71474">
        <ele>1821</ele>
        <time>2022-07-16T16:45:55.635Z</time>
      </trkpt>
      <trkpt lat="45.69436" lon="6.71425">
        <ele>1824</ele>
        <time>2022-07-16T16:46:06.315Z</time>
      </trkpt>
      <trkpt lat="45.69404" lon="6.71334">
        <ele>1825</ele>
        <time>2022-07-16T16:46:17.177Z</time>
      </trkpt>
      <trkpt lat="45.69387" lon="6.7125">
        <ele>1828</ele>
        <time>2022-07-16T16:46:31.299Z</time>
      </trkpt>
      <trkpt lat="45.69296" lon="6.70461">
        <ele>1875</ele>
        <time>2022-07-16T16:49:18.618Z</time>
      </trkpt>
      <trkpt lat="45.69285" lon="6.70411">
        <ele>1875</ele>
        <time>2022-07-16T16:49:23.487Z</time>
      </trkpt>
      <trkpt lat="45.69262" lon="6.70328">
        <ele>1876</ele>
        <time>2022-07-16T16:49:33.210Z</time>
      </trkpt>
      <trkpt lat="45.69219" lon="6.70206">
        <ele>1893</ele>
        <time>2022-07-16T16:50:22.172Z</time>
      </trkpt>
      <trkpt lat="45.69212" lon="6.70136">
        <ele>1897</ele>
        <time>2022-07-16T16:50:36.583Z</time>
      </trkpt>
      <trkpt lat="45.69215" lon="6.70089">
        <ele>1899</ele>
        <time>2022-07-16T16:50:44.825Z</time>
      </trkpt>
      <trkpt lat="45.6922" lon="6.70064">
        <ele>1900</ele>
        <time>2022-07-16T16:50:49.194Z</time>
      </trkpt>
      <trkpt lat="45.69228" lon="6.7004">
        <ele>1901</ele>
        <time>2022-07-16T16:50:53.625Z</time>
      </trkpt>
      <trkpt lat="45.69342" lon="6.69771">
        <ele>1915</ele>
        <time>2022-07-16T16:51:49.771Z</time>
      </trkpt>
      <trkpt lat="45.69362" lon="6.69705">
        <ele>1917</ele>
        <time>2022-07-16T16:52:00.287Z</time>
      </trkpt>
      <trkpt lat="45.69377" lon="6.69639">
        <ele>1920</ele>
        <time>2022-07-16T16:52:12.512Z</time>
      </trkpt>
      <trkpt lat="45.6939" lon="6.69519">
        <ele>1931</ele>
        <time>2022-07-16T16:52:53.785Z</time>
      </trkpt>
      <trkpt lat="45.69387" lon="6.69443">
        <ele>1940</ele>
        <time>2022-07-16T16:53:21.058Z</time>
      </trkpt>
      <trkpt lat="45.69381" lon="6.69412">
        <ele>1943</ele>
        <time>2022-07-16T16:53:32.584Z</time>
      </trkpt>
      <trkpt lat="45.6936" lon="6.69355">
        <ele>1948</ele>
        <time>2022-07-16T16:53:50.035Z</time>
      </trkpt>
      <trkpt lat="45.69334" lon="6.69305">
        <ele>1949</ele>
        <time>2022-07-16T16:53:57.368Z</time>
      </trkpt>
      <trkpt lat="45.69312" lon="6.69272">
        <ele>1954</ele>
        <time>2022-07-16T16:54:13.712Z</time>
      </trkpt>
      <trkpt lat="45.69302" lon="6.69263">
        <ele>1955</ele>
        <time>2022-07-16T16:54:17.266Z</time>
      </trkpt>
      <trkpt lat="45.69284" lon="6.69252">
        <ele>1956</ele>
        <time>2022-07-16T16:54:21.850Z</time>
      </trkpt>
      <trkpt lat="45.69209" lon="6.69245">
        <ele>1961</ele>
        <time>2022-07-16T16:54:41.449Z</time>
      </trkpt>
      <trkpt lat="45.69192" lon="6.69239">
        <ele>1964</ele>
        <time>2022-07-16T16:54:50.430Z</time>
      </trkpt>
      <trkpt lat="45.69184" lon="6.69234">
        <ele>1965</ele>
        <time>2022-07-16T16:54:53.948Z</time>
      </trkpt>
      <trkpt lat="45.69169" lon="6.69217">
        <ele>1966</ele>
        <time>2022-07-16T16:54:58.464Z</time>
      </trkpt>
      <trkpt lat="45.69158" lon="6.69191">
        <ele>1968</ele>
        <time>2022-07-16T16:55:05.414Z</time>
      </trkpt>
      <trkpt lat="45.69144" lon="6.69133">
        <ele>1972</ele>
        <time>2022-07-16T16:55:19.332Z</time>
      </trkpt>
      <trkpt lat="45.69119" lon="6.68971">
        <ele>1970</ele>
        <time>2022-07-16T16:55:32.142Z</time>
      </trkpt>
      <trkpt lat="45.69134" lon="6.68894">
        <ele>1968</ele>
        <time>2022-07-16T16:55:37.181Z</time>
      </trkpt>
      <trkpt lat="45.69129" lon="6.68841">
        <ele>1966</ele>
        <time>2022-07-16T16:55:40.050Z</time>
      </trkpt>
      <trkpt lat="45.69132" lon="6.68825">
        <ele>1966</ele>
        <time>2022-07-16T16:55:41.589Z</time>
      </trkpt>
      <trkpt lat="45.69144" lon="6.68789">
        <ele>1966</ele>
        <time>2022-07-16T16:55:45.294Z</time>
      </trkpt>
      <trkpt lat="45.69145" lon="6.68767">
        <ele>1965</ele>
        <time>2022-07-16T16:55:46.373Z</time>
      </trkpt>
      <trkpt lat="45.69143" lon="6.68754">
        <ele>1964</ele>
        <time>2022-07-16T16:55:47.075Z</time>
      </trkpt>
      <trkpt lat="45.69135" lon="6.68735">
        <ele>1963</ele>
        <time>2022-07-16T16:55:48.164Z</time>
      </trkpt>
      <trkpt lat="45.69114" lon="6.68714">
        <ele>1959</ele>
        <time>2022-07-16T16:55:50.097Z</time>
      </trkpt>
      <trkpt lat="45.69106" lon="6.68695">
        <ele>1958</ele>
        <time>2022-07-16T16:55:51.187Z</time>
      </trkpt>
      <trkpt lat="45.69105" lon="6.68687">
        <ele>1958</ele>
        <time>2022-07-16T16:55:51.942Z</time>
      </trkpt>
      <trkpt lat="45.69117" lon="6.68507">
        <ele>1953</ele>
        <time>2022-07-16T16:56:02.930Z</time>
      </trkpt>
      <trkpt lat="45.69123" lon="6.68484">
        <ele>1953</ele>
        <time>2022-07-16T16:56:05.211Z</time>
      </trkpt>
      <trkpt lat="45.69154" lon="6.68427">
        <ele>1953</ele>
        <time>2022-07-16T16:56:11.922Z</time>
      </trkpt>
      <trkpt lat="45.69156" lon="6.68413">
        <ele>1952</ele>
        <time>2022-07-16T16:56:12.675Z</time>
      </trkpt>
      <trkpt lat="45.69154" lon="6.68396">
        <ele>1951</ele>
        <time>2022-07-16T16:56:13.584Z</time>
      </trkpt>
      <trkpt lat="45.69143" lon="6.68377">
        <ele>1949</ele>
        <time>2022-07-16T16:56:14.885Z</time>
      </trkpt>
      <trkpt lat="45.69119" lon="6.68345">
        <ele>1946</ele>
        <time>2022-07-16T16:56:17.360Z</time>
      </trkpt>
      <trkpt lat="45.69089" lon="6.68254">
        <ele>1942</ele>
        <time>2022-07-16T16:56:22.608Z</time>
      </trkpt>
      <trkpt lat="45.69066" lon="6.68229">
        <ele>1942</ele>
        <time>2022-07-16T16:56:26.449Z</time>
      </trkpt>
      <trkpt lat="45.69026" lon="6.68198">
        <ele>1941</ele>
        <time>2022-07-16T16:56:31.204Z</time>
      </trkpt>
      <trkpt lat="45.69012" lon="6.6818">
        <ele>1940</ele>
        <time>2022-07-16T16:56:32.654Z</time>
      </trkpt>
      <trkpt lat="45.69005" lon="6.68157">
        <ele>1940</ele>
        <time>2022-07-16T16:56:34.985Z</time>
      </trkpt>
      <trkpt lat="45.69002" lon="6.68123">
        <ele>1938</ele>
        <time>2022-07-16T16:56:36.792Z</time>
      </trkpt>
      <trkpt lat="45.69007" lon="6.68078">
        <ele>1937</ele>
        <time>2022-07-16T16:56:39.795Z</time>
      </trkpt>
      <trkpt lat="45.69012" lon="6.6806">
        <ele>1935</ele>
        <time>2022-07-16T16:56:40.816Z</time>
      </trkpt>
      <trkpt lat="45.6902" lon="6.68042">
        <ele>1933</ele>
        <time>2022-07-16T16:56:41.941Z</time>
      </trkpt>
      <trkpt lat="45.6903" lon="6.68027">
        <ele>1931</ele>
        <time>2022-07-16T16:56:43.034Z</time>
      </trkpt>
      <trkpt lat="45.6905" lon="6.68006">
        <ele>1927</ele>
        <time>2022-07-16T16:56:44.906Z</time>
      </trkpt>
      <trkpt lat="45.69062" lon="6.68">
        <ele>1926</ele>
        <time>2022-07-16T16:56:45.865Z</time>
      </trkpt>
      <trkpt lat="45.69074" lon="6.67997">
        <ele>1924</ele>
        <time>2022-07-16T16:56:46.785Z</time>
      </trkpt>
      <trkpt lat="45.69097" lon="6.68">
        <ele>1921</ele>
        <time>2022-07-16T16:56:48.528Z</time>
      </trkpt>
      <trkpt lat="45.69104" lon="6.68004">
        <ele>1921</ele>
        <time>2022-07-16T16:56:49.530Z</time>
      </trkpt>
      <trkpt lat="45.69156" lon="6.68053">
        <ele>1920</ele>
        <time>2022-07-16T16:56:56.513Z</time>
      </trkpt>
      <trkpt lat="45.69183" lon="6.68083">
        <ele>1920</ele>
        <time>2022-07-16T16:57:01.058Z</time>
      </trkpt>
      <trkpt lat="45.69214" lon="6.68122">
        <ele>1919</ele>
        <time>2022-07-16T16:57:05.265Z</time>
      </trkpt>
      <trkpt lat="45.69251" lon="6.68177">
        <ele>1918</ele>
        <time>2022-07-16T16:57:11.056Z</time>
      </trkpt>
      <trkpt lat="45.69354" lon="6.68237">
        <ele>1910</ele>
        <time>2022-07-16T16:57:19.449Z</time>
      </trkpt>
      <trkpt lat="45.69396" lon="6.68272">
        <ele>1910</ele>
        <time>2022-07-16T16:57:25.912Z</time>
      </trkpt>
      <trkpt lat="45.69405" lon="6.68276">
        <ele>1909</ele>
        <time>2022-07-16T16:57:26.623Z</time>
      </trkpt>
      <trkpt lat="45.69412" lon="6.68276">
        <ele>1908</ele>
        <time>2022-07-16T16:57:27.151Z</time>
      </trkpt>
      <trkpt lat="45.69423" lon="6.68267">
        <ele>1903</ele>
        <time>2022-07-16T16:57:28.107Z</time>
      </trkpt>
      <trkpt lat="45.69425" lon="6.68261">
        <ele>1902</ele>
        <time>2022-07-16T16:57:28.458Z</time>
      </trkpt>
      <trkpt lat="45.69423" lon="6.68244">
        <ele>1899</ele>
        <time>2022-07-16T16:57:29.367Z</time>
      </trkpt>
      <trkpt lat="45.69392" lon="6.68218">
        <ele>1899</ele>
        <time>2022-07-16T16:57:34.145Z</time>
      </trkpt>
      <trkpt lat="45.6935" lon="6.68172">
        <ele>1898</ele>
        <time>2022-07-16T16:57:39.875Z</time>
      </trkpt>
      <trkpt lat="45.69334" lon="6.68147">
        <ele>1898</ele>
        <time>2022-07-16T16:57:43.025Z</time>
      </trkpt>
      <trkpt lat="45.69317" lon="6.6804">
        <ele>1885</ele>
        <time>2022-07-16T16:57:48.810Z</time>
      </trkpt>
      <trkpt lat="45.693" lon="6.67974">
        <ele>1877</ele>
        <time>2022-07-16T16:57:52.519Z</time>
      </trkpt>
      <trkpt lat="45.69286" lon="6.67954">
        <ele>1876</ele>
        <time>2022-07-16T16:57:54.076Z</time>
      </trkpt>
      <trkpt lat="45.69268" lon="6.67942">
        <ele>1877</ele>
        <time>2022-07-16T16:57:58.705Z</time>
      </trkpt>
      <trkpt lat="45.6924" lon="6.67929">
        <ele>1880</ele>
        <time>2022-07-16T16:58:09.078Z</time>
      </trkpt>
      <trkpt lat="45.69226" lon="6.67918">
        <ele>1881</ele>
        <time>2022-07-16T16:58:13.126Z</time>
      </trkpt>
      <trkpt lat="45.69217" lon="6.67903">
        <ele>1880</ele>
        <time>2022-07-16T16:58:14.169Z</time>
      </trkpt>
      <trkpt lat="45.69201" lon="6.67861">
        <ele>1875</ele>
        <time>2022-07-16T16:58:16.691Z</time>
      </trkpt>
      <trkpt lat="45.69119" lon="6.67729">
        <ele>1869</ele>
        <time>2022-07-16T16:58:26.574Z</time>
      </trkpt>
      <trkpt lat="45.69113" lon="6.67708">
        <ele>1868</ele>
        <time>2022-07-16T16:58:27.701Z</time>
      </trkpt>
      <trkpt lat="45.69105" lon="6.67646">
        <ele>1864</ele>
        <time>2022-07-16T16:58:31.025Z</time>
      </trkpt>
      <trkpt lat="45.69094" lon="6.67594">
        <ele>1862</ele>
        <time>2022-07-16T16:58:33.960Z</time>
      </trkpt>
      <trkpt lat="45.69085" lon="6.67518">
        <ele>1857</ele>
        <time>2022-07-16T16:58:38.024Z</time>
      </trkpt>
      <trkpt lat="45.69087" lon="6.67478">
        <ele>1854</ele>
        <time>2022-07-16T16:58:40.138Z</time>
      </trkpt>
      <trkpt lat="45.69095" lon="6.67434">
        <ele>1851</ele>
        <time>2022-07-16T16:58:42.535Z</time>
      </trkpt>
      <trkpt lat="45.6911" lon="6.67403">
        <ele>1847</ele>
        <time>2022-07-16T16:58:44.523Z</time>
      </trkpt>
      <trkpt lat="45.69114" lon="6.67347">
        <ele>1847</ele>
        <time>2022-07-16T16:58:49.752Z</time>
      </trkpt>
      <trkpt lat="45.69122" lon="6.67318">
        <ele>1846</ele>
        <time>2022-07-16T16:58:51.539Z</time>
      </trkpt>
      <trkpt lat="45.69127" lon="6.67309">
        <ele>1845</ele>
        <time>2022-07-16T16:58:52.146Z</time>
      </trkpt>
      <trkpt lat="45.69149" lon="6.6729">
        <ele>1841</ele>
        <time>2022-07-16T16:58:54.085Z</time>
      </trkpt>
      <trkpt lat="45.69171" lon="6.67277">
        <ele>1837</ele>
        <time>2022-07-16T16:58:55.881Z</time>
      </trkpt>
      <trkpt lat="45.69185" lon="6.67258">
        <ele>1836</ele>
        <time>2022-07-16T16:58:57.384Z</time>
      </trkpt>
      <trkpt lat="45.69212" lon="6.67194">
        <ele>1833</ele>
        <time>2022-07-16T16:59:01.266Z</time>
      </trkpt>
      <trkpt lat="45.69243" lon="6.67152">
        <ele>1829</ele>
        <time>2022-07-16T16:59:04.488Z</time>
      </trkpt>
      <trkpt lat="45.69249" lon="6.67134">
        <ele>1828</ele>
        <time>2022-07-16T16:59:05.539Z</time>
      </trkpt>
      <trkpt lat="45.69257" lon="6.67088">
        <ele>1827</ele>
        <time>2022-07-16T16:59:08.703Z</time>
      </trkpt>
      <trkpt lat="45.69268" lon="6.67064">
        <ele>1825</ele>
        <time>2022-07-16T16:59:10.217Z</time>
      </trkpt>
      <trkpt lat="45.6929" lon="6.67029">
        <ele>1822</ele>
        <time>2022-07-16T16:59:12.699Z</time>
      </trkpt>
      <trkpt lat="45.69297" lon="6.6701">
        <ele>1820</ele>
        <time>2022-07-16T16:59:13.831Z</time>
      </trkpt>
      <trkpt lat="45.69352" lon="6.66766">
        <ele>1813</ele>
        <time>2022-07-16T16:59:29.487Z</time>
      </trkpt>
      <trkpt lat="45.69354" lon="6.66714">
        <ele>1812</ele>
        <time>2022-07-16T16:59:33.064Z</time>
      </trkpt>
      <trkpt lat="45.69351" lon="6.66653">
        <ele>1813</ele>
        <time>2022-07-16T16:59:40.295Z</time>
      </trkpt>
      <trkpt lat="45.69355" lon="6.66625">
        <ele>1814</ele>
        <time>2022-07-16T16:59:44.940Z</time>
      </trkpt>
      <trkpt lat="45.69369" lon="6.66591">
        <ele>1811</ele>
        <time>2022-07-16T16:59:47.021Z</time>
      </trkpt>
      <trkpt lat="45.69381" lon="6.66539">
        <ele>1816</ele>
        <time>2022-07-16T17:00:05.899Z</time>
      </trkpt>
      <trkpt lat="45.69388" lon="6.66529">
        <ele>1814</ele>
        <time>2022-07-16T17:00:06.646Z</time>
      </trkpt>
      <trkpt lat="45.69429" lon="6.66492">
        <ele>1810</ele>
        <time>2022-07-16T17:00:10.304Z</time>
      </trkpt>
      <trkpt lat="45.69442" lon="6.66486">
        <ele>1811</ele>
        <time>2022-07-16T17:00:14.050Z</time>
      </trkpt>
      <trkpt lat="45.6949" lon="6.66486">
        <ele>1803</ele>
        <time>2022-07-16T17:00:17.672Z</time>
      </trkpt>
      <trkpt lat="45.69501" lon="6.66489">
        <ele>1801</ele>
        <time>2022-07-16T17:00:18.518Z</time>
      </trkpt>
      <trkpt lat="45.69511" lon="6.66495">
        <ele>1798</ele>
        <time>2022-07-16T17:00:19.336Z</time>
      </trkpt>
      <trkpt lat="45.69536" lon="6.66515">
        <ele>1794</ele>
        <time>2022-07-16T17:00:21.497Z</time>
      </trkpt>
      <trkpt lat="45.69543" lon="6.66515">
        <ele>1793</ele>
        <time>2022-07-16T17:00:22.026Z</time>
      </trkpt>
      <trkpt lat="45.69553" lon="6.66509">
        <ele>1792</ele>
        <time>2022-07-16T17:00:22.844Z</time>
      </trkpt>
      <trkpt lat="45.69567" lon="6.66493">
        <ele>1791</ele>
        <time>2022-07-16T17:00:24.194Z</time>
      </trkpt>
      <trkpt lat="45.69589" lon="6.66442">
        <ele>1796</ele>
        <time>2022-07-16T17:00:42.053Z</time>
      </trkpt>
      <trkpt lat="45.69626" lon="6.66387">
        <ele>1776</ele>
        <time>2022-07-16T17:00:46.079Z</time>
      </trkpt>
      <trkpt lat="45.6963" lon="6.66372">
        <ele>1773</ele>
        <time>2022-07-16T17:00:46.925Z</time>
      </trkpt>
      <trkpt lat="45.69628" lon="6.66298">
        <ele>1772</ele>
        <time>2022-07-16T17:00:52.502Z</time>
      </trkpt>
      <trkpt lat="45.69625" lon="6.66271">
        <ele>1773</ele>
        <time>2022-07-16T17:00:57.013Z</time>
      </trkpt>
      <trkpt lat="45.69605" lon="6.66189">
        <ele>1770</ele>
        <time>2022-07-16T17:01:01.837Z</time>
      </trkpt>
      <trkpt lat="45.6959" lon="6.6615">
        <ele>1766</ele>
        <time>2022-07-16T17:01:04.184Z</time>
      </trkpt>
      <trkpt lat="45.69537" lon="6.66043">
        <ele>1753</ele>
        <time>2022-07-16T17:01:11.099Z</time>
      </trkpt>
      <trkpt lat="45.69526" lon="6.66028">
        <ele>1751</ele>
        <time>2022-07-16T17:01:12.246Z</time>
      </trkpt>
      <trkpt lat="45.69447" lon="6.65956">
        <ele>1750</ele>
        <time>2022-07-16T17:01:23.495Z</time>
      </trkpt>
      <trkpt lat="45.69394" lon="6.65886">
        <ele>1742</ele>
        <time>2022-07-16T17:01:28.937Z</time>
      </trkpt>
      <trkpt lat="45.69347" lon="6.65812">
        <ele>1733</ele>
        <time>2022-07-16T17:01:34.210Z</time>
      </trkpt>
      <trkpt lat="45.69327" lon="6.65787">
        <ele>1733</ele>
        <time>2022-07-16T17:01:37.741Z</time>
      </trkpt>
      <trkpt lat="45.69297" lon="6.65727">
        <ele>1725</ele>
        <time>2022-07-16T17:01:41.631Z</time>
      </trkpt>
      <trkpt lat="45.69282" lon="6.65706">
        <ele>1724</ele>
        <time>2022-07-16T17:01:43.326Z</time>
      </trkpt>
      <trkpt lat="45.69267" lon="6.65676">
        <ele>1720</ele>
        <time>2022-07-16T17:01:45.271Z</time>
      </trkpt>
      <trkpt lat="45.69232" lon="6.65617">
        <ele>1716</ele>
        <time>2022-07-16T17:01:49.351Z</time>
      </trkpt>
      <trkpt lat="45.69208" lon="6.65563">
        <ele>1711</ele>
        <time>2022-07-16T17:01:52.726Z</time>
      </trkpt>
      <trkpt lat="45.69177" lon="6.65476">
        <ele>1700</ele>
        <time>2022-07-16T17:01:57.875Z</time>
      </trkpt>
      <trkpt lat="45.6913" lon="6.654">
        <ele>1693</ele>
        <time>2022-07-16T17:02:03.226Z</time>
      </trkpt>
      <trkpt lat="45.69125" lon="6.65393">
        <ele>1692</ele>
        <time>2022-07-16T17:02:03.754Z</time>
      </trkpt>
      <trkpt lat="45.69112" lon="6.65384">
        <ele>1693</ele>
        <time>2022-07-16T17:02:07.597Z</time>
      </trkpt>
      <trkpt lat="45.69109" lon="6.65379">
        <ele>1692</ele>
        <time>2022-07-16T17:02:07.944Z</time>
      </trkpt>
      <trkpt lat="45.69109" lon="6.6537">
        <ele>1689</ele>
        <time>2022-07-16T17:02:08.419Z</time>
      </trkpt>
      <trkpt lat="45.69113" lon="6.65363">
        <ele>1685</ele>
        <time>2022-07-16T17:02:08.895Z</time>
      </trkpt>
      <trkpt lat="45.69118" lon="6.65361">
        <ele>1683</ele>
        <time>2022-07-16T17:02:09.287Z</time>
      </trkpt>
      <trkpt lat="45.69122" lon="6.65363">
        <ele>1682</ele>
        <time>2022-07-16T17:02:09.607Z</time>
      </trkpt>
      <trkpt lat="45.69132" lon="6.65382">
        <ele>1686</ele>
        <time>2022-07-16T17:02:18.131Z</time>
      </trkpt>
      <trkpt lat="45.69142" lon="6.65395">
        <ele>1687</ele>
        <time>2022-07-16T17:02:21.859Z</time>
      </trkpt>
      <trkpt lat="45.69211" lon="6.65474">
        <ele>1684</ele>
        <time>2022-07-16T17:02:29.982Z</time>
      </trkpt>
      <trkpt lat="45.69255" lon="6.65548">
        <ele>1684</ele>
        <time>2022-07-16T17:02:39.009Z</time>
      </trkpt>
      <trkpt lat="45.69329" lon="6.65617">
        <ele>1674</ele>
        <time>2022-07-16T17:02:45.675Z</time>
      </trkpt>
      <trkpt lat="45.69367" lon="6.65668">
        <ele>1670</ele>
        <time>2022-07-16T17:02:49.606Z</time>
      </trkpt>
      <trkpt lat="45.69386" lon="6.65686">
        <ele>1668</ele>
        <time>2022-07-16T17:02:51.326Z</time>
      </trkpt>
      <trkpt lat="45.694" lon="6.65707">
        <ele>1670</ele>
        <time>2022-07-16T17:02:58.246Z</time>
      </trkpt>
      <trkpt lat="45.69414" lon="6.6575">
        <ele>1683</ele>
        <time>2022-07-16T17:03:15.244Z</time>
      </trkpt>
      <trkpt lat="45.69424" lon="6.65762">
        <ele>1683</ele>
        <time>2022-07-16T17:03:16.979Z</time>
      </trkpt>
      <trkpt lat="45.69459" lon="6.65778">
        <ele>1676</ele>
        <time>2022-07-16T17:03:19.752Z</time>
      </trkpt>
      <trkpt lat="45.69546" lon="6.65797">
        <ele>1660</ele>
        <time>2022-07-16T17:03:26.394Z</time>
      </trkpt>
      <trkpt lat="45.69563" lon="6.65798">
        <ele>1657</ele>
        <time>2022-07-16T17:03:27.679Z</time>
      </trkpt>
      <trkpt lat="45.69569" lon="6.65796">
        <ele>1655</ele>
        <time>2022-07-16T17:03:28.144Z</time>
      </trkpt>
      <trkpt lat="45.6958" lon="6.65787">
        <ele>1651</ele>
        <time>2022-07-16T17:03:29.100Z</time>
      </trkpt>
      <trkpt lat="45.69593" lon="6.65764">
        <ele>1646</ele>
        <time>2022-07-16T17:03:30.660Z</time>
      </trkpt>
      <trkpt lat="45.69599" lon="6.65731">
        <ele>1641</ele>
        <time>2022-07-16T17:03:32.457Z</time>
      </trkpt>
      <trkpt lat="45.69594" lon="6.65707">
        <ele>1639</ele>
        <time>2022-07-16T17:03:33.777Z</time>
      </trkpt>
      <trkpt lat="45.6959" lon="6.65697">
        <ele>1639</ele>
        <time>2022-07-16T17:03:34.848Z</time>
      </trkpt>
      <trkpt lat="45.69576" lon="6.65681">
        <ele>1638</ele>
        <time>2022-07-16T17:03:36.197Z</time>
      </trkpt>
      <trkpt lat="45.6956" lon="6.65675">
        <ele>1637</ele>
        <time>2022-07-16T17:03:37.397Z</time>
      </trkpt>
      <trkpt lat="45.69544" lon="6.65675">
        <ele>1636</ele>
        <time>2022-07-16T17:03:38.540Z</time>
      </trkpt>
      <trkpt lat="45.69493" lon="6.65683">
        <ele>1638</ele>
        <time>2022-07-16T17:03:49.152Z</time>
      </trkpt>
      <trkpt lat="45.69475" lon="6.65679">
        <ele>1640</ele>
        <time>2022-07-16T17:03:56.116Z</time>
      </trkpt>
      <trkpt lat="45.69462" lon="6.6567">
        <ele>1640</ele>
        <time>2022-07-16T17:03:58.037Z</time>
      </trkpt>
      <trkpt lat="45.6945" lon="6.65651">
        <ele>1638</ele>
        <time>2022-07-16T17:03:59.387Z</time>
      </trkpt>
      <trkpt lat="45.69443" lon="6.65622">
        <ele>1636</ele>
        <time>2022-07-16T17:04:01.005Z</time>
      </trkpt>
      <trkpt lat="45.69442" lon="6.656">
        <ele>1634</ele>
        <time>2022-07-16T17:04:02.167Z</time>
      </trkpt>
      <trkpt lat="45.69446" lon="6.65574">
        <ele>1630</ele>
        <time>2022-07-16T17:04:03.570Z</time>
      </trkpt>
      <trkpt lat="45.69464" lon="6.6555">
        <ele>1624</ele>
        <time>2022-07-16T17:04:05.427Z</time>
      </trkpt>
      <trkpt lat="45.69475" lon="6.65544">
        <ele>1621</ele>
        <time>2022-07-16T17:04:06.315Z</time>
      </trkpt>
      <trkpt lat="45.69486" lon="6.65542">
        <ele>1619</ele>
        <time>2022-07-16T17:04:07.152Z</time>
      </trkpt>
      <trkpt lat="45.69498" lon="6.65543">
        <ele>1617</ele>
        <time>2022-07-16T17:04:08.060Z</time>
      </trkpt>
      <trkpt lat="45.69579" lon="6.65572">
        <ele>1616</ele>
        <time>2022-07-16T17:04:17.920Z</time>
      </trkpt>
      <trkpt lat="45.69713" lon="6.65633">
        <ele>1606</ele>
        <time>2022-07-16T17:04:28.533Z</time>
      </trkpt>
      <trkpt lat="45.69749" lon="6.6564">
        <ele>1601</ele>
        <time>2022-07-16T17:04:31.275Z</time>
      </trkpt>
      <trkpt lat="45.69783" lon="6.65637">
        <ele>1598</ele>
        <time>2022-07-16T17:04:33.846Z</time>
      </trkpt>
      <trkpt lat="45.69804" lon="6.65627">
        <ele>1595</ele>
        <time>2022-07-16T17:04:35.516Z</time>
      </trkpt>
      <trkpt lat="45.69815" lon="6.65618">
        <ele>1592</ele>
        <time>2022-07-16T17:04:36.472Z</time>
      </trkpt>
      <trkpt lat="45.69873" lon="6.65542">
        <ele>1587</ele>
        <time>2022-07-16T17:04:42.038Z</time>
      </trkpt>
      <trkpt lat="45.69887" lon="6.65532">
        <ele>1587</ele>
        <time>2022-07-16T17:04:44.119Z</time>
      </trkpt>
      <trkpt lat="45.69926" lon="6.65525">
        <ele>1592</ele>
        <time>2022-07-16T17:05:02.616Z</time>
      </trkpt>
      <trkpt lat="45.69949" lon="6.65511">
        <ele>1596</ele>
        <time>2022-07-16T17:05:15.436Z</time>
      </trkpt>
      <trkpt lat="45.69961" lon="6.65492">
        <ele>1595</ele>
        <time>2022-07-16T17:05:16.783Z</time>
      </trkpt>
      <trkpt lat="45.69986" lon="6.65418">
        <ele>1591</ele>
        <time>2022-07-16T17:05:21.116Z</time>
      </trkpt>
      <trkpt lat="45.7" lon="6.65387">
        <ele>1593</ele>
        <time>2022-07-16T17:05:28.433Z</time>
      </trkpt>
      <trkpt lat="45.70031" lon="6.65333">
        <ele>1601</ele>
        <time>2022-07-16T17:05:53.476Z</time>
      </trkpt>
      <trkpt lat="45.70037" lon="6.65309">
        <ele>1603</ele>
        <time>2022-07-16T17:06:00.474Z</time>
      </trkpt>
      <trkpt lat="45.70039" lon="6.65274">
        <ele>1603</ele>
        <time>2022-07-16T17:06:03.736Z</time>
      </trkpt>
      <trkpt lat="45.7003" lon="6.6521">
        <ele>1600</ele>
        <time>2022-07-16T17:06:06.909Z</time>
      </trkpt>
      <trkpt lat="45.70033" lon="6.65135">
        <ele>1604</ele>
        <time>2022-07-16T17:06:21.642Z</time>
      </trkpt>
      <trkpt lat="45.70024" lon="6.65071">
        <ele>1603</ele>
        <time>2022-07-16T17:06:26.412Z</time>
      </trkpt>
      <trkpt lat="45.70026" lon="6.65044">
        <ele>1603</ele>
        <time>2022-07-16T17:06:28.934Z</time>
      </trkpt>
      <trkpt lat="45.70031" lon="6.65027">
        <ele>1604</ele>
        <time>2022-07-16T17:06:32.592Z</time>
      </trkpt>
      <trkpt lat="45.70041" lon="6.65012">
        <ele>1606</ele>
        <time>2022-07-16T17:06:40.021Z</time>
      </trkpt>
      <trkpt lat="45.70082" lon="6.64974">
        <ele>1610</ele>
        <time>2022-07-16T17:06:54.379Z</time>
      </trkpt>
      <trkpt lat="45.70095" lon="6.64955">
        <ele>1613</ele>
        <time>2022-07-16T17:07:03.908Z</time>
      </trkpt>
      <trkpt lat="45.70104" lon="6.64934">
        <ele>1614</ele>
        <time>2022-07-16T17:07:08.134Z</time>
      </trkpt>
      <trkpt lat="45.70108" lon="6.64916">
        <ele>1613</ele>
        <time>2022-07-16T17:07:09.129Z</time>
      </trkpt>
      <trkpt lat="45.70107" lon="6.64869">
        <ele>1619</ele>
        <time>2022-07-16T17:07:25.975Z</time>
      </trkpt>
      <trkpt lat="45.70103" lon="6.64855">
        <ele>1619</ele>
        <time>2022-07-16T17:07:27.380Z</time>
      </trkpt>
      <trkpt lat="45.70088" lon="6.64824">
        <ele>1617</ele>
        <time>2022-07-16T17:07:29.368Z</time>
      </trkpt>
      <trkpt lat="45.70053" lon="6.64778">
        <ele>1611</ele>
        <time>2022-07-16T17:07:32.953Z</time>
      </trkpt>
      <trkpt lat="45.70033" lon="6.64742">
        <ele>1609</ele>
        <time>2022-07-16T17:07:35.252Z</time>
      </trkpt>
      <trkpt lat="45.69986" lon="6.64628">
        <ele>1601</ele>
        <time>2022-07-16T17:07:42.230Z</time>
      </trkpt>
      <trkpt lat="45.69977" lon="6.64601">
        <ele>1598</ele>
        <time>2022-07-16T17:07:43.807Z</time>
      </trkpt>
      <trkpt lat="45.69975" lon="6.64587">
        <ele>1598</ele>
        <time>2022-07-16T17:07:45.134Z</time>
      </trkpt>
      <trkpt lat="45.6998" lon="6.64558">
        <ele>1597</ele>
        <time>2022-07-16T17:07:46.815Z</time>
      </trkpt>
      <trkpt lat="45.69989" lon="6.64543">
        <ele>1599</ele>
        <time>2022-07-16T17:07:53.900Z</time>
      </trkpt>
      <trkpt lat="45.70051" lon="6.64491">
        <ele>1608</ele>
        <time>2022-07-16T17:08:26.860Z</time>
      </trkpt>
      <trkpt lat="45.70064" lon="6.64467">
        <ele>1610</ele>
        <time>2022-07-16T17:08:33.809Z</time>
      </trkpt>
      <trkpt lat="45.70074" lon="6.64431">
        <ele>1611</ele>
        <time>2022-07-16T17:08:39.249Z</time>
      </trkpt>
      <trkpt lat="45.70072" lon="6.64398">
        <ele>1611</ele>
        <time>2022-07-16T17:08:42.326Z</time>
      </trkpt>
      <trkpt lat="45.70068" lon="6.64383">
        <ele>1611</ele>
        <time>2022-07-16T17:08:43.817Z</time>
      </trkpt>
      <trkpt lat="45.70042" lon="6.64327">
        <ele>1605</ele>
        <time>2022-07-16T17:08:47.362Z</time>
      </trkpt>
      <trkpt lat="45.70029" lon="6.64244">
        <ele>1609</ele>
        <time>2022-07-16T17:09:02.946Z</time>
      </trkpt>
      <trkpt lat="45.70023" lon="6.64226">
        <ele>1611</ele>
        <time>2022-07-16T17:09:10.091Z</time>
      </trkpt>
      <trkpt lat="45.69969" lon="6.64093">
        <ele>1619</ele>
        <time>2022-07-16T17:09:39.843Z</time>
      </trkpt>
      <trkpt lat="45.69957" lon="6.64072">
        <ele>1619</ele>
        <time>2022-07-16T17:09:42.364Z</time>
      </trkpt>
      <trkpt lat="45.69928" lon="6.64026">
        <ele>1619</ele>
        <time>2022-07-16T17:09:48.119Z</time>
      </trkpt>
      <trkpt lat="45.69792" lon="6.63843">
        <ele>1623</ele>
        <time>2022-07-16T17:10:19.002Z</time>
      </trkpt>
      <trkpt lat="45.69724" lon="6.638">
        <ele>1611</ele>
        <time>2022-07-16T17:10:24.612Z</time>
      </trkpt>
      <trkpt lat="45.6969" lon="6.63771">
        <ele>1608</ele>
        <time>2022-07-16T17:10:27.599Z</time>
      </trkpt>
      <trkpt lat="45.69675" lon="6.63749">
        <ele>1609</ele>
        <time>2022-07-16T17:10:32.483Z</time>
      </trkpt>
      <trkpt lat="45.69648" lon="6.63695">
        <ele>1617</ele>
        <time>2022-07-16T17:10:56.276Z</time>
      </trkpt>
      <trkpt lat="45.6963" lon="6.63665">
        <ele>1618</ele>
        <time>2022-07-16T17:11:01.772Z</time>
      </trkpt>
      <trkpt lat="45.69587" lon="6.63623">
        <ele>1611</ele>
        <time>2022-07-16T17:11:05.701Z</time>
      </trkpt>
      <trkpt lat="45.69566" lon="6.63592">
        <ele>1614</ele>
        <time>2022-07-16T17:11:16.078Z</time>
      </trkpt>
      <trkpt lat="45.69528" lon="6.63523">
        <ele>1617</ele>
        <time>2022-07-16T17:11:30.245Z</time>
      </trkpt>
      <trkpt lat="45.69512" lon="6.6349">
        <ele>1617</ele>
        <time>2022-07-16T17:11:33.977Z</time>
      </trkpt>
      <trkpt lat="45.69499" lon="6.63446">
        <ele>1615</ele>
        <time>2022-07-16T17:11:36.408Z</time>
      </trkpt>
      <trkpt lat="45.69491" lon="6.63352">
        <ele>1614</ele>
        <time>2022-07-16T17:11:43.914Z</time>
      </trkpt>
      <trkpt lat="45.69493" lon="6.63341">
        <ele>1614</ele>
        <time>2022-07-16T17:11:44.970Z</time>
      </trkpt>
      <trkpt lat="45.69504" lon="6.63313">
        <ele>1615</ele>
        <time>2022-07-16T17:11:50.008Z</time>
      </trkpt>
      <trkpt lat="45.69514" lon="6.63302">
        <ele>1616</ele>
        <time>2022-07-16T17:11:53.637Z</time>
      </trkpt>
      <trkpt lat="45.69523" lon="6.63297">
        <ele>1616</ele>
        <time>2022-07-16T17:11:54.921Z</time>
      </trkpt>
      <trkpt lat="45.69533" lon="6.63295">
        <ele>1616</ele>
        <time>2022-07-16T17:11:56.264Z</time>
      </trkpt>
      <trkpt lat="45.69549" lon="6.63298">
        <ele>1616</ele>
        <time>2022-07-16T17:11:58.410Z</time>
      </trkpt>
      <trkpt lat="45.69564" lon="6.63305">
        <ele>1616</ele>
        <time>2022-07-16T17:12:00.508Z</time>
      </trkpt>
      <trkpt lat="45.69603" lon="6.63335">
        <ele>1612</ele>
        <time>2022-07-16T17:12:03.849Z</time>
      </trkpt>
      <trkpt lat="45.69668" lon="6.63363">
        <ele>1609</ele>
        <time>2022-07-16T17:12:09.506Z</time>
      </trkpt>
      <trkpt lat="45.69681" lon="6.63371">
        <ele>1609</ele>
        <time>2022-07-16T17:12:11.388Z</time>
      </trkpt>
      <trkpt lat="45.69729" lon="6.63388">
        <ele>1605</ele>
        <time>2022-07-16T17:12:15.120Z</time>
      </trkpt>
      <trkpt lat="45.6974" lon="6.63388">
        <ele>1603</ele>
        <time>2022-07-16T17:12:15.950Z</time>
      </trkpt>
      <trkpt lat="45.69783" lon="6.6338">
        <ele>1593</ele>
        <time>2022-07-16T17:12:19.223Z</time>
      </trkpt>
      <trkpt lat="45.69801" lon="6.63385">
        <ele>1591</ele>
        <time>2022-07-16T17:12:20.607Z</time>
      </trkpt>
      <trkpt lat="45.69835" lon="6.63412">
        <ele>1592</ele>
        <time>2022-07-16T17:12:27.371Z</time>
      </trkpt>
      <trkpt lat="45.6985" lon="6.63418">
        <ele>1593</ele>
        <time>2022-07-16T17:12:31.364Z</time>
      </trkpt>
      <trkpt lat="45.69868" lon="6.63419">
        <ele>1592</ele>
        <time>2022-07-16T17:12:32.725Z</time>
      </trkpt>
      <trkpt lat="45.69905" lon="6.63416">
        <ele>1589</ele>
        <time>2022-07-16T17:12:35.522Z</time>
      </trkpt>
      <trkpt lat="45.69937" lon="6.63398">
        <ele>1583</ele>
        <time>2022-07-16T17:12:38.117Z</time>
      </trkpt>
      <trkpt lat="45.69955" lon="6.63383">
        <ele>1578</ele>
        <time>2022-07-16T17:12:39.688Z</time>
      </trkpt>
      <trkpt lat="45.69966" lon="6.63381">
        <ele>1576</ele>
        <time>2022-07-16T17:12:40.525Z</time>
      </trkpt>
      <trkpt lat="45.69985" lon="6.63381">
        <ele>1576</ele>
        <time>2022-07-16T17:12:43.052Z</time>
      </trkpt>
      <trkpt lat="45.70013" lon="6.63386">
        <ele>1576</ele>
        <time>2022-07-16T17:12:46.805Z</time>
      </trkpt>
      <trkpt lat="45.70087" lon="6.63384">
        <ele>1568</ele>
        <time>2022-07-16T17:12:52.391Z</time>
      </trkpt>
      <trkpt lat="45.70176" lon="6.63375">
        <ele>1557</ele>
        <time>2022-07-16T17:12:59.125Z</time>
      </trkpt>
      <trkpt lat="45.70254" lon="6.63361">
        <ele>1545</ele>
        <time>2022-07-16T17:13:05.058Z</time>
      </trkpt>
      <trkpt lat="45.70315" lon="6.63342">
        <ele>1537</ele>
        <time>2022-07-16T17:13:09.770Z</time>
      </trkpt>
      <trkpt lat="45.7033" lon="6.63344">
        <ele>1538</ele>
        <time>2022-07-16T17:13:13.694Z</time>
      </trkpt>
      <trkpt lat="45.70374" lon="6.63357">
        <ele>1539</ele>
        <time>2022-07-16T17:13:21.199Z</time>
      </trkpt>
      <trkpt lat="45.70391" lon="6.63356">
        <ele>1537</ele>
        <time>2022-07-16T17:13:22.483Z</time>
      </trkpt>
      <trkpt lat="45.70417" lon="6.63345">
        <ele>1531</ele>
        <time>2022-07-16T17:13:24.529Z</time>
      </trkpt>
      <trkpt lat="45.70427" lon="6.63346">
        <ele>1530</ele>
        <time>2022-07-16T17:13:25.286Z</time>
      </trkpt>
      <trkpt lat="45.70464" lon="6.63357">
        <ele>1531</ele>
        <time>2022-07-16T17:13:31.919Z</time>
      </trkpt>
      <trkpt lat="45.70506" lon="6.63356">
        <ele>1527</ele>
        <time>2022-07-16T17:13:35.089Z</time>
      </trkpt>
      <trkpt lat="45.70546" lon="6.63352">
        <ele>1521</ele>
        <time>2022-07-16T17:13:38.116Z</time>
      </trkpt>
      <trkpt lat="45.70594" lon="6.6334">
        <ele>1513</ele>
        <time>2022-07-16T17:13:41.793Z</time>
      </trkpt>
      <trkpt lat="45.70623" lon="6.63336">
        <ele>1513</ele>
        <time>2022-07-16T17:13:45.668Z</time>
      </trkpt>
      <trkpt lat="45.7064" lon="6.6333">
        <ele>1511</ele>
        <time>2022-07-16T17:13:46.989Z</time>
      </trkpt>
      <trkpt lat="45.70658" lon="6.63319">
        <ele>1507</ele>
        <time>2022-07-16T17:13:48.466Z</time>
      </trkpt>
      <trkpt lat="45.70697" lon="6.63312">
        <ele>1497</ele>
        <time>2022-07-16T17:13:51.433Z</time>
      </trkpt>
      <trkpt lat="45.70701" lon="6.63308">
        <ele>1493</ele>
        <time>2022-07-16T17:13:51.801Z</time>
      </trkpt>
      <trkpt lat="45.70702" lon="6.63298">
        <ele>1488</ele>
        <time>2022-07-16T17:13:52.334Z</time>
      </trkpt>
      <trkpt lat="45.70697" lon="6.6329">
        <ele>1485</ele>
        <time>2022-07-16T17:13:52.900Z</time>
      </trkpt>
      <trkpt lat="45.70692" lon="6.63288">
        <ele>1486</ele>
        <time>2022-07-16T17:13:55.562Z</time>
      </trkpt>
      <trkpt lat="45.70684" lon="6.63289">
        <ele>1489</ele>
        <time>2022-07-16T17:13:59.682Z</time>
      </trkpt>
      <trkpt lat="45.70656" lon="6.63303">
        <ele>1499</ele>
        <time>2022-07-16T17:14:14.895Z</time>
      </trkpt>
      <trkpt lat="45.70631" lon="6.63311">
        <ele>1501</ele>
        <time>2022-07-16T17:14:22.194Z</time>
      </trkpt>
      <trkpt lat="45.70612" lon="6.63313">
        <ele>1501</ele>
        <time>2022-07-16T17:14:24.728Z</time>
      </trkpt>
      <trkpt lat="45.7054" lon="6.633">
        <ele>1498</ele>
        <time>2022-07-16T17:14:30.937Z</time>
      </trkpt>
      <trkpt lat="45.70512" lon="6.6329">
        <ele>1496</ele>
        <time>2022-07-16T17:14:33.115Z</time>
      </trkpt>
      <trkpt lat="45.70486" lon="6.63271">
        <ele>1490</ele>
        <time>2022-07-16T17:14:35.319Z</time>
      </trkpt>
      <trkpt lat="45.70477" lon="6.6326">
        <ele>1486</ele>
        <time>2022-07-16T17:14:36.212Z</time>
      </trkpt>
      <trkpt lat="45.70452" lon="6.63243">
        <ele>1482</ele>
        <time>2022-07-16T17:14:38.301Z</time>
      </trkpt>
      <trkpt lat="45.70416" lon="6.63239">
        <ele>1484</ele>
        <time>2022-07-16T17:14:47.004Z</time>
      </trkpt>
      <trkpt lat="45.70407" lon="6.63234">
        <ele>1482</ele>
        <time>2022-07-16T17:14:47.733Z</time>
      </trkpt>
      <trkpt lat="45.70388" lon="6.63217">
        <ele>1474</ele>
        <time>2022-07-16T17:14:49.424Z</time>
      </trkpt>
      <trkpt lat="45.70376" lon="6.63212">
        <ele>1472</ele>
        <time>2022-07-16T17:14:50.367Z</time>
      </trkpt>
      <trkpt lat="45.70358" lon="6.63209">
        <ele>1471</ele>
        <time>2022-07-16T17:14:51.740Z</time>
      </trkpt>
      <trkpt lat="45.70295" lon="6.63222">
        <ele>1477</ele>
        <time>2022-07-16T17:15:12.587Z</time>
      </trkpt>
      <trkpt lat="45.70237" lon="6.63208">
        <ele>1469</ele>
        <time>2022-07-16T17:15:17.026Z</time>
      </trkpt>
      <trkpt lat="45.70192" lon="6.63203">
        <ele>1470</ele>
        <time>2022-07-16T17:15:24.557Z</time>
      </trkpt>
      <trkpt lat="45.70165" lon="6.63197">
        <ele>1469</ele>
        <time>2022-07-16T17:15:27.004Z</time>
      </trkpt>
      <trkpt lat="45.70151" lon="6.63192">
        <ele>1469</ele>
        <time>2022-07-16T17:15:28.923Z</time>
      </trkpt>
      <trkpt lat="45.70093" lon="6.63157">
        <ele>1463</ele>
        <time>2022-07-16T17:15:33.673Z</time>
      </trkpt>
      <trkpt lat="45.70067" lon="6.6313">
        <ele>1460</ele>
        <time>2022-07-16T17:15:36.097Z</time>
      </trkpt>
      <trkpt lat="45.70031" lon="6.63101">
        <ele>1460</ele>
        <time>2022-07-16T17:15:41.590Z</time>
      </trkpt>
      <trkpt lat="45.70024" lon="6.63092">
        <ele>1459</ele>
        <time>2022-07-16T17:15:42.300Z</time>
      </trkpt>
      <trkpt lat="45.70019" lon="6.63078">
        <ele>1455</ele>
        <time>2022-07-16T17:15:43.129Z</time>
      </trkpt>
      <trkpt lat="45.70022" lon="6.63067">
        <ele>1451</ele>
        <time>2022-07-16T17:15:43.752Z</time>
      </trkpt>
      <trkpt lat="45.7003" lon="6.63062">
        <ele>1446</ele>
        <time>2022-07-16T17:15:44.411Z</time>
      </trkpt>
      <trkpt lat="45.70058" lon="6.63086">
        <ele>1446</ele>
        <time>2022-07-16T17:15:48.751Z</time>
      </trkpt>
      <trkpt lat="45.70087" lon="6.63099">
        <ele>1442</ele>
        <time>2022-07-16T17:15:51.044Z</time>
      </trkpt>
      <trkpt lat="45.70135" lon="6.63115">
        <ele>1437</ele>
        <time>2022-07-16T17:15:54.764Z</time>
      </trkpt>
      <trkpt lat="45.7017" lon="6.63135">
        <ele>1438</ele>
        <time>2022-07-16T17:16:01.385Z</time>
      </trkpt>
      <trkpt lat="45.70191" lon="6.63141">
        <ele>1439</ele>
        <time>2022-07-16T17:16:06.259Z</time>
      </trkpt>
      <trkpt lat="45.702" lon="6.63141">
        <ele>1438</ele>
        <time>2022-07-16T17:16:06.938Z</time>
      </trkpt>
      <trkpt lat="45.70225" lon="6.63132">
        <ele>1432</ele>
        <time>2022-07-16T17:16:08.884Z</time>
      </trkpt>
      <trkpt lat="45.70251" lon="6.63126">
        <ele>1426</ele>
        <time>2022-07-16T17:16:10.871Z</time>
      </trkpt>
      <trkpt lat="45.70291" lon="6.63128">
        <ele>1428</ele>
        <time>2022-07-16T17:16:20.176Z</time>
      </trkpt>
      <trkpt lat="45.70353" lon="6.63102">
        <ele>1413</ele>
        <time>2022-07-16T17:16:25.052Z</time>
      </trkpt>
      <trkpt lat="45.70404" lon="6.6309">
        <ele>1409</ele>
        <time>2022-07-16T17:16:28.953Z</time>
      </trkpt>
      <trkpt lat="45.70459" lon="6.63086">
        <ele>1403</ele>
        <time>2022-07-16T17:16:33.110Z</time>
      </trkpt>
      <trkpt lat="45.7049" lon="6.6307">
        <ele>1393</ele>
        <time>2022-07-16T17:16:35.597Z</time>
      </trkpt>
      <trkpt lat="45.70507" lon="6.63065">
        <ele>1389</ele>
        <time>2022-07-16T17:16:36.907Z</time>
      </trkpt>
      <trkpt lat="45.70514" lon="6.63065">
        <ele>1389</ele>
        <time>2022-07-16T17:16:37.838Z</time>
      </trkpt>
      <trkpt lat="45.70528" lon="6.63072">
        <ele>1391</ele>
        <time>2022-07-16T17:16:45.444Z</time>
      </trkpt>
      <trkpt lat="45.70538" lon="6.63083">
        <ele>1395</ele>
        <time>2022-07-16T17:16:51.912Z</time>
      </trkpt>
      <trkpt lat="45.70547" lon="6.63089">
        <ele>1397</ele>
        <time>2022-07-16T17:16:57.005Z</time>
      </trkpt>
      <trkpt lat="45.70558" lon="6.63092">
        <ele>1398</ele>
        <time>2022-07-16T17:17:00.512Z</time>
      </trkpt>
      <trkpt lat="45.70582" lon="6.63091">
        <ele>1396</ele>
        <time>2022-07-16T17:17:02.324Z</time>
      </trkpt>
      <trkpt lat="45.70592" lon="6.63086">
        <ele>1392</ele>
        <time>2022-07-16T17:17:03.123Z</time>
      </trkpt>
      <trkpt lat="45.70614" lon="6.63084">
        <ele>1389</ele>
        <time>2022-07-16T17:17:04.787Z</time>
      </trkpt>
      <trkpt lat="45.70739" lon="6.63114">
        <ele>1383</ele>
        <time>2022-07-16T17:17:15.055Z</time>
      </trkpt>
      <trkpt lat="45.70749" lon="6.63111">
        <ele>1380</ele>
        <time>2022-07-16T17:17:15.826Z</time>
      </trkpt>
      <trkpt lat="45.70753" lon="6.63092">
        <ele>1372</ele>
        <time>2022-07-16T17:17:16.872Z</time>
      </trkpt>
      <trkpt lat="45.70745" lon="6.63081">
        <ele>1370</ele>
        <time>2022-07-16T17:17:17.709Z</time>
      </trkpt>
      <trkpt lat="45.70715" lon="6.63078">
        <ele>1373</ele>
        <time>2022-07-16T17:17:28.085Z</time>
      </trkpt>
      <trkpt lat="45.70684" lon="6.63069">
        <ele>1374</ele>
        <time>2022-07-16T17:17:34.006Z</time>
      </trkpt>
      <trkpt lat="45.70556" lon="6.62998">
        <ele>1359</ele>
        <time>2022-07-16T17:17:44.366Z</time>
      </trkpt>
      <trkpt lat="45.70535" lon="6.62978">
        <ele>1354</ele>
        <time>2022-07-16T17:17:46.270Z</time>
      </trkpt>
      <trkpt lat="45.70522" lon="6.62958">
        <ele>1349</ele>
        <time>2022-07-16T17:17:47.710Z</time>
      </trkpt>
      <trkpt lat="45.70506" lon="6.62948">
        <ele>1347</ele>
        <time>2022-07-16T17:17:49.027Z</time>
      </trkpt>
      <trkpt lat="45.70418" lon="6.62939">
        <ele>1346</ele>
        <time>2022-07-16T17:17:59.534Z</time>
      </trkpt>
      <trkpt lat="45.70402" lon="6.62941">
        <ele>1346</ele>
        <time>2022-07-16T17:18:01.670Z</time>
      </trkpt>
      <trkpt lat="45.70375" lon="6.62949">
        <ele>1346</ele>
        <time>2022-07-16T17:18:05.336Z</time>
      </trkpt>
      <trkpt lat="45.70313" lon="6.62951">
        <ele>1346</ele>
        <time>2022-07-16T17:18:13.584Z</time>
      </trkpt>
      <trkpt lat="45.70296" lon="6.62949">
        <ele>1348</ele>
        <time>2022-07-16T17:18:20.675Z</time>
      </trkpt>
      <trkpt lat="45.70283" lon="6.62943">
        <ele>1348</ele>
        <time>2022-07-16T17:18:22.491Z</time>
      </trkpt>
      <trkpt lat="45.70268" lon="6.62934">
        <ele>1348</ele>
        <time>2022-07-16T17:18:24.654Z</time>
      </trkpt>
      <trkpt lat="45.7022" lon="6.62893">
        <ele>1339</ele>
        <time>2022-07-16T17:18:28.872Z</time>
      </trkpt>
      <trkpt lat="45.70184" lon="6.62867">
        <ele>1333</ele>
        <time>2022-07-16T17:18:31.915Z</time>
      </trkpt>
      <trkpt lat="45.7017" lon="6.6285">
        <ele>1327</ele>
        <time>2022-07-16T17:18:33.301Z</time>
      </trkpt>
      <trkpt lat="45.7016" lon="6.62842">
        <ele>1326</ele>
        <time>2022-07-16T17:18:34.166Z</time>
      </trkpt>
      <trkpt lat="45.70125" lon="6.62834">
        <ele>1332</ele>
        <time>2022-07-16T17:18:52.346Z</time>
      </trkpt>
      <trkpt lat="45.7011" lon="6.62824">
        <ele>1332</ele>
        <time>2022-07-16T17:18:54.546Z</time>
      </trkpt>
      <trkpt lat="45.70104" lon="6.62818">
        <ele>1332</ele>
        <time>2022-07-16T17:18:55.520Z</time>
      </trkpt>
      <trkpt lat="45.70075" lon="6.62762">
        <ele>1321</ele>
        <time>2022-07-16T17:18:59.195Z</time>
      </trkpt>
      <trkpt lat="45.70067" lon="6.62751">
        <ele>1321</ele>
        <time>2022-07-16T17:19:00.670Z</time>
      </trkpt>
      <trkpt lat="45.69984" lon="6.62661">
        <ele>1316</ele>
        <time>2022-07-16T17:19:09.053Z</time>
      </trkpt>
      <trkpt lat="45.69967" lon="6.62639">
        <ele>1319</ele>
        <time>2022-07-16T17:19:20.395Z</time>
      </trkpt>
      <trkpt lat="45.69947" lon="6.62604">
        <ele>1324</ele>
        <time>2022-07-16T17:19:36.596Z</time>
      </trkpt>
      <trkpt lat="45.69934" lon="6.62555">
        <ele>1321</ele>
        <time>2022-07-16T17:19:39.359Z</time>
      </trkpt>
      <trkpt lat="45.69911" lon="6.6244">
        <ele>1307</ele>
        <time>2022-07-16T17:19:45.665Z</time>
      </trkpt>
      <trkpt lat="45.69902" lon="6.62354">
        <ele>1286</ele>
        <time>2022-07-16T17:19:50.249Z</time>
      </trkpt>
      <trkpt lat="45.69898" lon="6.62339">
        <ele>1284</ele>
        <time>2022-07-16T17:19:51.095Z</time>
      </trkpt>
      <trkpt lat="45.69858" lon="6.62232">
        <ele>1294</ele>
        <time>2022-07-16T17:20:26.634Z</time>
      </trkpt>
      <trkpt lat="45.69851" lon="6.62206">
        <ele>1291</ele>
        <time>2022-07-16T17:20:28.103Z</time>
      </trkpt>
      <trkpt lat="45.69843" lon="6.62158">
        <ele>1280</ele>
        <time>2022-07-16T17:20:30.704Z</time>
      </trkpt>
      <trkpt lat="45.69848" lon="6.6211">
        <ele>1263</ele>
        <time>2022-07-16T17:20:33.263Z</time>
      </trkpt>
      <trkpt lat="45.69844" lon="6.62096">
        <ele>1261</ele>
        <time>2022-07-16T17:20:34.060Z</time>
      </trkpt>
      <trkpt lat="45.69838" lon="6.62087">
        <ele>1262</ele>
        <time>2022-07-16T17:20:37.583Z</time>
      </trkpt>
      <trkpt lat="45.69812" lon="6.62061">
        <ele>1270</ele>
        <time>2022-07-16T17:20:53.850Z</time>
      </trkpt>
      <trkpt lat="45.69798" lon="6.62037">
        <ele>1270</ele>
        <time>2022-07-16T17:20:56.755Z</time>
      </trkpt>
      <trkpt lat="45.69783" lon="6.62007">
        <ele>1268</ele>
        <time>2022-07-16T17:20:58.700Z</time>
      </trkpt>
      <trkpt lat="45.69777" lon="6.61988">
        <ele>1265</ele>
        <time>2022-07-16T17:20:59.799Z</time>
      </trkpt>
      <trkpt lat="45.6973" lon="6.61895">
        <ele>1267</ele>
        <time>2022-07-16T17:21:13.619Z</time>
      </trkpt>
      <trkpt lat="45.69722" lon="6.61867">
        <ele>1267</ele>
        <time>2022-07-16T17:21:16.429Z</time>
      </trkpt>
      <trkpt lat="45.69698" lon="6.61749">
        <ele>1266</ele>
        <time>2022-07-16T17:21:26.610Z</time>
      </trkpt>
      <trkpt lat="45.69686" lon="6.61701">
        <ele>1269</ele>
        <time>2022-07-16T17:21:37.286Z</time>
      </trkpt>
      <trkpt lat="45.69686" lon="6.61669">
        <ele>1266</ele>
        <time>2022-07-16T17:21:38.973Z</time>
      </trkpt>
      <trkpt lat="45.69691" lon="6.61665">
        <ele>1263</ele>
        <time>2022-07-16T17:21:39.405Z</time>
      </trkpt>
      <trkpt lat="45.69699" lon="6.61666">
        <ele>1259</ele>
        <time>2022-07-16T17:21:40.011Z</time>
      </trkpt>
      <trkpt lat="45.69704" lon="6.61671">
        <ele>1257</ele>
        <time>2022-07-16T17:21:40.471Z</time>
      </trkpt>
      <trkpt lat="45.69742" lon="6.61769">
        <ele>1242</ele>
        <time>2022-07-16T17:21:46.380Z</time>
      </trkpt>
      <trkpt lat="45.69777" lon="6.61887">
        <ele>1239</ele>
        <time>2022-07-16T17:21:54.650Z</time>
      </trkpt>
      <trkpt lat="45.69824" lon="6.61955">
        <ele>1229</ele>
        <time>2022-07-16T17:21:59.693Z</time>
      </trkpt>
      <trkpt lat="45.69848" lon="6.62004">
        <ele>1229</ele>
        <time>2022-07-16T17:22:05.252Z</time>
      </trkpt>
      <trkpt lat="45.69854" lon="6.62009">
        <ele>1227</ele>
        <time>2022-07-16T17:22:05.776Z</time>
      </trkpt>
      <trkpt lat="45.69858" lon="6.62008">
        <ele>1225</ele>
        <time>2022-07-16T17:22:06.082Z</time>
      </trkpt>
      <trkpt lat="45.69862" lon="6.61996">
        <ele>1220</ele>
        <time>2022-07-16T17:22:06.783Z</time>
      </trkpt>
      <trkpt lat="45.69859" lon="6.61987">
        <ele>1219</ele>
        <time>2022-07-16T17:22:07.309Z</time>
      </trkpt>
      <trkpt lat="45.6983" lon="6.61941">
        <ele>1222</ele>
        <time>2022-07-16T17:22:18.832Z</time>
      </trkpt>
      <trkpt lat="45.69818" lon="6.61917">
        <ele>1222</ele>
        <time>2022-07-16T17:22:21.573Z</time>
      </trkpt>
      <trkpt lat="45.69807" lon="6.61886">
        <ele>1224</ele>
        <time>2022-07-16T17:22:28.740Z</time>
      </trkpt>
      <trkpt lat="45.69803" lon="6.61861">
        <ele>1222</ele>
        <time>2022-07-16T17:22:30.092Z</time>
      </trkpt>
      <trkpt lat="45.69793" lon="6.61715">
        <ele>1214</ele>
        <time>2022-07-16T17:22:37.825Z</time>
      </trkpt>
      <trkpt lat="45.69804" lon="6.61661">
        <ele>1205</ele>
        <time>2022-07-16T17:22:40.790Z</time>
      </trkpt>
      <trkpt lat="45.69807" lon="6.61632">
        <ele>1200</ele>
        <time>2022-07-16T17:22:42.335Z</time>
      </trkpt>
      <trkpt lat="45.69806" lon="6.61619">
        <ele>1198</ele>
        <time>2022-07-16T17:22:43.025Z</time>
      </trkpt>
      <trkpt lat="45.69796" lon="6.61589">
        <ele>1199</ele>
        <time>2022-07-16T17:22:48.124Z</time>
      </trkpt>
      <trkpt lat="45.69764" lon="6.6153">
        <ele>1196</ele>
        <time>2022-07-16T17:22:52.001Z</time>
      </trkpt>
      <trkpt lat="45.69741" lon="6.61502">
        <ele>1193</ele>
        <time>2022-07-16T17:22:54.280Z</time>
      </trkpt>
      <trkpt lat="45.69692" lon="6.61451">
        <ele>1196</ele>
        <time>2022-07-16T17:23:08.323Z</time>
      </trkpt>
      <trkpt lat="45.69687" lon="6.61438">
        <ele>1193</ele>
        <time>2022-07-16T17:23:09.105Z</time>
      </trkpt>
      <trkpt lat="45.69689" lon="6.61423">
        <ele>1188</ele>
        <time>2022-07-16T17:23:09.910Z</time>
      </trkpt>
      <trkpt lat="45.69695" lon="6.61418">
        <ele>1185</ele>
        <time>2022-07-16T17:23:10.434Z</time>
      </trkpt>
      <trkpt lat="45.69701" lon="6.61418">
        <ele>1184</ele>
        <time>2022-07-16T17:23:10.887Z</time>
      </trkpt>
      <trkpt lat="45.69727" lon="6.61444">
        <ele>1184</ele>
        <time>2022-07-16T17:23:15.104Z</time>
      </trkpt>
      <trkpt lat="45.69752" lon="6.61457">
        <ele>1180</ele>
        <time>2022-07-16T17:23:17.112Z</time>
      </trkpt>
      <trkpt lat="45.69811" lon="6.61469">
        <ele>1172</ele>
        <time>2022-07-16T17:23:21.610Z</time>
      </trkpt>
      <trkpt lat="45.6982" lon="6.61475">
        <ele>1170</ele>
        <time>2022-07-16T17:23:22.359Z</time>
      </trkpt>
      <trkpt lat="45.69833" lon="6.61489">
        <ele>1167</ele>
        <time>2022-07-16T17:23:23.587Z</time>
      </trkpt>
      <trkpt lat="45.69842" lon="6.61504">
        <ele>1167</ele>
        <time>2022-07-16T17:23:25.423Z</time>
      </trkpt>
      <trkpt lat="45.69856" lon="6.6154">
        <ele>1169</ele>
        <time>2022-07-16T17:23:33.095Z</time>
      </trkpt>
      <trkpt lat="45.69906" lon="6.61724">
        <ele>1163</ele>
        <time>2022-07-16T17:23:44.660Z</time>
      </trkpt>
      <trkpt lat="45.69927" lon="6.61779">
        <ele>1160</ele>
        <time>2022-07-16T17:23:47.964Z</time>
      </trkpt>
      <trkpt lat="45.69959" lon="6.61828">
        <ele>1156</ele>
        <time>2022-07-16T17:23:51.500Z</time>
      </trkpt>
      <trkpt lat="45.6998" lon="6.61851">
        <ele>1154</ele>
        <time>2022-07-16T17:23:53.496Z</time>
      </trkpt>
      <trkpt lat="45.70005" lon="6.61863">
        <ele>1149</ele>
        <time>2022-07-16T17:23:55.486Z</time>
      </trkpt>
      <trkpt lat="45.7006" lon="6.61896">
        <ele>1137</ele>
        <time>2022-07-16T17:23:59.987Z</time>
      </trkpt>
      <trkpt lat="45.70071" lon="6.61905">
        <ele>1136</ele>
        <time>2022-07-16T17:24:00.943Z</time>
      </trkpt>
      <trkpt lat="45.70075" lon="6.61912">
        <ele>1136</ele>
        <time>2022-07-16T17:24:01.783Z</time>
      </trkpt>
      <trkpt lat="45.70085" lon="6.61934">
        <ele>1135</ele>
        <time>2022-07-16T17:24:03.179Z</time>
      </trkpt>
      <trkpt lat="45.70089" lon="6.61953">
        <ele>1135</ele>
        <time>2022-07-16T17:24:05.022Z</time>
      </trkpt>
      <trkpt lat="45.70093" lon="6.62026">
        <ele>1138</ele>
        <time>2022-07-16T17:24:17.629Z</time>
      </trkpt>
      <trkpt lat="45.70112" lon="6.62083">
        <ele>1132</ele>
        <time>2022-07-16T17:24:20.958Z</time>
      </trkpt>
      <trkpt lat="45.70118" lon="6.62125">
        <ele>1132</ele>
        <time>2022-07-16T17:24:24.940Z</time>
      </trkpt>
      <trkpt lat="45.70125" lon="6.62151">
        <ele>1130</ele>
        <time>2022-07-16T17:24:26.409Z</time>
      </trkpt>
      <trkpt lat="45.70155" lon="6.62212">
        <ele>1119</ele>
        <time>2022-07-16T17:24:30.342Z</time>
      </trkpt>
      <trkpt lat="45.70212" lon="6.6231">
        <ele>1110</ele>
        <time>2022-07-16T17:24:37.064Z</time>
      </trkpt>
      <trkpt lat="45.7023" lon="6.62336">
        <ele>1107</ele>
        <time>2022-07-16T17:24:38.994Z</time>
      </trkpt>
      <trkpt lat="45.70246" lon="6.62349">
        <ele>1105</ele>
        <time>2022-07-16T17:24:40.382Z</time>
      </trkpt>
      <trkpt lat="45.70379" lon="6.62428">
        <ele>1091</ele>
        <time>2022-07-16T17:24:51.250Z</time>
      </trkpt>
      <trkpt lat="45.70406" lon="6.62438">
        <ele>1088</ele>
        <time>2022-07-16T17:24:53.355Z</time>
      </trkpt>
      <trkpt lat="45.70434" lon="6.62445">
        <ele>1085</ele>
        <time>2022-07-16T17:24:55.500Z</time>
      </trkpt>
      <trkpt lat="45.70518" lon="6.62458">
        <ele>1082</ele>
        <time>2022-07-16T17:25:03.148Z</time>
      </trkpt>
      <trkpt lat="45.70521" lon="6.62456">
        <ele>1081</ele>
        <time>2022-07-16T17:25:03.398Z</time>
      </trkpt>
      <trkpt lat="45.70525" lon="6.62448">
        <ele>1078</ele>
        <time>2022-07-16T17:25:03.917Z</time>
      </trkpt>
      <trkpt lat="45.70521" lon="6.62435">
        <ele>1072</ele>
        <time>2022-07-16T17:25:04.665Z</time>
      </trkpt>
      <trkpt lat="45.70507" lon="6.6243">
        <ele>1069</ele>
        <time>2022-07-16T17:25:05.754Z</time>
      </trkpt>
      <trkpt lat="45.70478" lon="6.62428">
        <ele>1071</ele>
        <time>2022-07-16T17:25:13.459Z</time>
      </trkpt>
      <trkpt lat="45.7046" lon="6.62422">
        <ele>1072</ele>
        <time>2022-07-16T17:25:17.876Z</time>
      </trkpt>
      <trkpt lat="45.70428" lon="6.62402">
        <ele>1071</ele>
        <time>2022-07-16T17:25:21.267Z</time>
      </trkpt>
      <trkpt lat="45.70404" lon="6.6238">
        <ele>1071</ele>
        <time>2022-07-16T17:25:25.057Z</time>
      </trkpt>
      <trkpt lat="45.70393" lon="6.62366">
        <ele>1070</ele>
        <time>2022-07-16T17:25:26.168Z</time>
      </trkpt>
      <trkpt lat="45.70373" lon="6.6233">
        <ele>1066</ele>
        <time>2022-07-16T17:25:28.592Z</time>
      </trkpt>
      <trkpt lat="45.70367" lon="6.62314">
        <ele>1066</ele>
        <time>2022-07-16T17:25:30.279Z</time>
      </trkpt>
      <trkpt lat="45.7036" lon="6.62274">
        <ele>1063</ele>
        <time>2022-07-16T17:25:32.453Z</time>
      </trkpt>
      <trkpt lat="45.70373" lon="6.6218">
        <ele>1050</ele>
        <time>2022-07-16T17:25:37.504Z</time>
      </trkpt>
      <trkpt lat="45.7037" lon="6.62159">
        <ele>1049</ele>
        <time>2022-07-16T17:25:38.633Z</time>
      </trkpt>
      <trkpt lat="45.70363" lon="6.62135">
        <ele>1048</ele>
        <time>2022-07-16T17:25:40.011Z</time>
      </trkpt>
      <trkpt lat="45.70347" lon="6.62108">
        <ele>1048</ele>
        <time>2022-07-16T17:25:43.299Z</time>
      </trkpt>
      <trkpt lat="45.70347" lon="6.62081">
        <ele>1046</ele>
        <time>2022-07-16T17:25:44.722Z</time>
      </trkpt>
      <trkpt lat="45.70352" lon="6.62067">
        <ele>1049</ele>
        <time>2022-07-16T17:25:50.355Z</time>
      </trkpt>
      <trkpt lat="45.70359" lon="6.62059">
        <ele>1050</ele>
        <time>2022-07-16T17:25:53.850Z</time>
      </trkpt>
      <trkpt lat="45.70377" lon="6.62049">
        <ele>1051</ele>
        <time>2022-07-16T17:25:58.393Z</time>
      </trkpt>
      <trkpt lat="45.70398" lon="6.62041">
        <ele>1052</ele>
        <time>2022-07-16T17:26:03.317Z</time>
      </trkpt>
      <trkpt lat="45.70465" lon="6.62008">
        <ele>1057</ele>
        <time>2022-07-16T17:26:22.359Z</time>
      </trkpt>
      <trkpt lat="45.70524" lon="6.61991">
        <ele>1054</ele>
        <time>2022-07-16T17:26:27.128Z</time>
      </trkpt>
      <trkpt lat="45.70586" lon="6.61934">
        <ele>1046</ele>
        <time>2022-07-16T17:26:32.689Z</time>
      </trkpt>
      <trkpt lat="45.70599" lon="6.61914">
        <ele>1047</ele>
        <time>2022-07-16T17:26:37.197Z</time>
      </trkpt>
      <trkpt lat="45.70608" lon="6.6189">
        <ele>1050</ele>
        <time>2022-07-16T17:26:46.956Z</time>
      </trkpt>
      <trkpt lat="45.7062" lon="6.61841">
        <ele>1054</ele>
        <time>2022-07-16T17:27:00.897Z</time>
      </trkpt>
      <trkpt lat="45.70628" lon="6.61788">
        <ele>1056</ele>
        <time>2022-07-16T17:27:09.867Z</time>
      </trkpt>
      <trkpt lat="45.7064" lon="6.61616">
        <ele>1047</ele>
        <time>2022-07-16T17:27:18.978Z</time>
      </trkpt>
      <trkpt lat="45.70637" lon="6.61566">
        <ele>1049</ele>
        <time>2022-07-16T17:27:27.523Z</time>
      </trkpt>
      <trkpt lat="45.70639" lon="6.61475">
        <ele>1045</ele>
        <time>2022-07-16T17:27:32.048Z</time>
      </trkpt>
      <trkpt lat="45.70651" lon="6.61434">
        <ele>1036</ele>
        <time>2022-07-16T17:27:34.391Z</time>
      </trkpt>
      <trkpt lat="45.70684" lon="6.61347">
        <ele>1031</ele>
        <time>2022-07-16T17:27:39.610Z</time>
      </trkpt>
      <trkpt lat="45.70708" lon="6.61302">
        <ele>1029</ele>
        <time>2022-07-16T17:27:42.723Z</time>
      </trkpt>
      <trkpt lat="45.70708" lon="6.6129">
        <ele>1029</ele>
        <time>2022-07-16T17:27:43.838Z</time>
      </trkpt>
      <trkpt lat="45.70702" lon="6.61255">
        <ele>1028</ele>
        <time>2022-07-16T17:27:46.024Z</time>
      </trkpt>
      <trkpt lat="45.70705" lon="6.61239">
        <ele>1027</ele>
        <time>2022-07-16T17:27:46.897Z</time>
      </trkpt>
      <trkpt lat="45.7071" lon="6.61228">
        <ele>1026</ele>
        <time>2022-07-16T17:27:47.589Z</time>
      </trkpt>
      <trkpt lat="45.7071" lon="6.61189">
        <ele>1025</ele>
        <time>2022-07-16T17:27:50.025Z</time>
      </trkpt>
      <trkpt lat="45.70699" lon="6.61161">
        <ele>1026</ele>
        <time>2022-07-16T17:27:55.063Z</time>
      </trkpt>
      <trkpt lat="45.70685" lon="6.61141">
        <ele>1028</ele>
        <time>2022-07-16T17:28:01.978Z</time>
      </trkpt>
      <trkpt lat="45.70677" lon="6.61124">
        <ele>1028</ele>
        <time>2022-07-16T17:28:03.882Z</time>
      </trkpt>
      <trkpt lat="45.70673" lon="6.61107">
        <ele>1028</ele>
        <time>2022-07-16T17:28:05.548Z</time>
      </trkpt>
      <trkpt lat="45.70674" lon="6.61088">
        <ele>1027</ele>
        <time>2022-07-16T17:28:06.552Z</time>
      </trkpt>
      <trkpt lat="45.707" lon="6.6096">
        <ele>1019</ele>
        <time>2022-07-16T17:28:13.578Z</time>
      </trkpt>
      <trkpt lat="45.7071" lon="6.60931">
        <ele>1018</ele>
        <time>2022-07-16T17:28:15.459Z</time>
      </trkpt>
      <trkpt lat="45.70727" lon="6.60902">
        <ele>1014</ele>
        <time>2022-07-16T17:28:17.455Z</time>
      </trkpt>
      <trkpt lat="45.70734" lon="6.60885">
        <ele>1011</ele>
        <time>2022-07-16T17:28:18.495Z</time>
      </trkpt>
      <trkpt lat="45.70736" lon="6.60873">
        <ele>1011</ele>
        <time>2022-07-16T17:28:19.641Z</time>
      </trkpt>
      <trkpt lat="45.70734" lon="6.60846">
        <ele>1011</ele>
        <time>2022-07-16T17:28:22.162Z</time>
      </trkpt>
      <trkpt lat="45.70714" lon="6.60781">
        <ele>1024</ele>
        <time>2022-07-16T17:28:47.606Z</time>
      </trkpt>
      <trkpt lat="45.70701" lon="6.60727">
        <ele>1038</ele>
        <time>2022-07-16T17:29:08.066Z</time>
      </trkpt>
      <trkpt lat="45.707" lon="6.60697">
        <ele>1040</ele>
        <time>2022-07-16T17:29:15.005Z</time>
      </trkpt>
      <trkpt lat="45.70704" lon="6.60661">
        <ele>1037</ele>
        <time>2022-07-16T17:29:16.927Z</time>
      </trkpt>
      <trkpt lat="45.70714" lon="6.60631">
        <ele>1022</ele>
        <time>2022-07-16T17:29:18.679Z</time>
      </trkpt>
      <trkpt lat="45.7073" lon="6.60594">
        <ele>997</ele>
        <time>2022-07-16T17:29:20.973Z</time>
      </trkpt>
      <trkpt lat="45.70732" lon="6.6058">
        <ele>993</ele>
        <time>2022-07-16T17:29:21.726Z</time>
      </trkpt>
      <trkpt lat="45.70732" lon="6.6053">
        <ele>993</ele>
        <time>2022-07-16T17:29:26.369Z</time>
      </trkpt>
      <trkpt lat="45.70752" lon="6.605">
        <ele>968</ele>
        <time>2022-07-16T17:29:28.555Z</time>
      </trkpt>
      <trkpt lat="45.70754" lon="6.60482">
        <ele>966</ele>
        <time>2022-07-16T17:29:29.516Z</time>
      </trkpt>
      <trkpt lat="45.70745" lon="6.60416">
        <ele>964</ele>
        <time>2022-07-16T17:29:33.488Z</time>
      </trkpt>
      <trkpt lat="45.70728" lon="6.60325">
        <ele>961</ele>
        <time>2022-07-16T17:29:38.900Z</time>
      </trkpt>
      <trkpt lat="45.70722" lon="6.60304">
        <ele>959</ele>
        <time>2022-07-16T17:29:40.096Z</time>
      </trkpt>
      <trkpt lat="45.70683" lon="6.60209">
        <ele>954</ele>
        <time>2022-07-16T17:29:45.486Z</time>
      </trkpt>
      <trkpt lat="45.70661" lon="6.60124">
        <ele>950</ele>
        <time>2022-07-16T17:29:49.982Z</time>
      </trkpt>
      <trkpt lat="45.70657" lon="6.601">
        <ele>949</ele>
        <time>2022-07-16T17:29:51.256Z</time>
      </trkpt>
      <trkpt lat="45.70656" lon="6.60075">
        <ele>946</ele>
        <time>2022-07-16T17:29:52.576Z</time>
      </trkpt>
      <trkpt lat="45.70667" lon="6.59963">
        <ele>935</ele>
        <time>2022-07-16T17:29:58.537Z</time>
      </trkpt>
      <trkpt lat="45.70675" lon="6.59913">
        <ele>931</ele>
        <time>2022-07-16T17:30:01.241Z</time>
      </trkpt>
      <trkpt lat="45.70693" lon="6.59832">
        <ele>920</ele>
        <time>2022-07-16T17:30:05.721Z</time>
      </trkpt>
      <trkpt lat="45.70702" lon="6.59774">
        <ele>914</ele>
        <time>2022-07-16T17:30:08.853Z</time>
      </trkpt>
      <trkpt lat="45.70706" lon="6.59713">
        <ele>910</ele>
        <time>2022-07-16T17:30:12.082Z</time>
      </trkpt>
      <trkpt lat="45.70702" lon="6.59561">
        <ele>905</ele>
        <time>2022-07-16T17:30:20.708Z</time>
      </trkpt>
      <trkpt lat="45.70713" lon="6.59387">
        <ele>894</ele>
        <time>2022-07-16T17:30:29.916Z</time>
      </trkpt>
      <trkpt lat="45.70718" lon="6.59365">
        <ele>892</ele>
        <time>2022-07-16T17:30:31.135Z</time>
      </trkpt>
      <trkpt lat="45.70763" lon="6.59273">
        <ele>881</ele>
        <time>2022-07-16T17:30:37.056Z</time>
      </trkpt>
      <trkpt lat="45.70777" lon="6.59214">
        <ele>881</ele>
        <time>2022-07-16T17:30:42.842Z</time>
      </trkpt>
      <trkpt lat="45.70785" lon="6.59196">
        <ele>880</ele>
        <time>2022-07-16T17:30:43.967Z</time>
      </trkpt>
      <trkpt lat="45.70793" lon="6.59186">
        <ele>879</ele>
        <time>2022-07-16T17:30:44.768Z</time>
      </trkpt>
      <trkpt lat="45.70809" lon="6.59175">
        <ele>875</ele>
        <time>2022-07-16T17:30:46.108Z</time>
      </trkpt>
      <trkpt lat="45.70847" lon="6.59166">
        <ele>866</ele>
        <time>2022-07-16T17:30:49.015Z</time>
      </trkpt>
      <trkpt lat="45.70858" lon="6.59159">
        <ele>866</ele>
        <time>2022-07-16T17:30:50.616Z</time>
      </trkpt>
      <trkpt lat="45.70871" lon="6.59142">
        <ele>868</ele>
        <time>2022-07-16T17:30:57.635Z</time>
      </trkpt>
      <trkpt lat="45.70947" lon="6.59015">
        <ele>886</ele>
        <time>2022-07-16T17:31:57.544Z</time>
      </trkpt>
      <trkpt lat="45.70962" lon="6.58994">
        <ele>883</ele>
        <time>2022-07-16T17:31:59.128Z</time>
      </trkpt>
      <trkpt lat="45.70998" lon="6.58955">
        <ele>868</ele>
        <time>2022-07-16T17:32:02.535Z</time>
      </trkpt>
      <trkpt lat="45.71014" lon="6.58934">
        <ele>869</ele>
        <time>2022-07-16T17:32:07.455Z</time>
      </trkpt>
      <trkpt lat="45.71017" lon="6.58932">
        <ele>868</ele>
        <time>2022-07-16T17:32:07.705Z</time>
      </trkpt>
      <trkpt lat="45.71025" lon="6.58934">
        <ele>866</ele>
        <time>2022-07-16T17:32:08.317Z</time>
      </trkpt>
      <trkpt lat="45.71027" lon="6.58938">
        <ele>866</ele>
        <time>2022-07-16T17:32:08.774Z</time>
      </trkpt>
      <trkpt lat="45.71026" lon="6.58956">
        <ele>863</ele>
        <time>2022-07-16T17:32:09.726Z</time>
      </trkpt>
      <trkpt lat="45.71015" lon="6.58979">
        <ele>861</ele>
        <time>2022-07-16T17:32:11.195Z</time>
      </trkpt>
      <trkpt lat="45.7099" lon="6.58997">
        <ele>864</ele>
        <time>2022-07-16T17:32:21.604Z</time>
      </trkpt>
      <trkpt lat="45.70987" lon="6.5901">
        <ele>864</ele>
        <time>2022-07-16T17:32:22.875Z</time>
      </trkpt>
      <trkpt lat="45.70991" lon="6.59018">
        <ele>861</ele>
        <time>2022-07-16T17:32:23.394Z</time>
      </trkpt>
      <trkpt lat="45.70995" lon="6.59019">
        <ele>859</ele>
        <time>2022-07-16T17:32:23.700Z</time>
      </trkpt>
      <trkpt lat="45.71008" lon="6.59016">
        <ele>857</ele>
        <time>2022-07-16T17:32:24.694Z</time>
      </trkpt>
      <trkpt lat="45.7103" lon="6.59002">
        <ele>858</ele>
        <time>2022-07-16T17:32:29.862Z</time>
      </trkpt>
      <trkpt lat="45.71091" lon="6.58949">
        <ele>860</ele>
        <time>2022-07-16T17:32:42.628Z</time>
      </trkpt>
      <trkpt lat="45.711" lon="6.58938">
        <ele>863</ele>
        <time>2022-07-16T17:32:48.698Z</time>
      </trkpt>
      <trkpt lat="45.71108" lon="6.58919">
        <ele>864</ele>
        <time>2022-07-16T17:32:52.680Z</time>
      </trkpt>
      <trkpt lat="45.7112" lon="6.58871">
        <ele>863</ele>
        <time>2022-07-16T17:32:56.158Z</time>
      </trkpt>
      <trkpt lat="45.71144" lon="6.58744">
        <ele>866</ele>
        <time>2022-07-16T17:33:13.590Z</time>
      </trkpt>
      <trkpt lat="45.71168" lon="6.5868">
        <ele>879</ele>
        <time>2022-07-16T17:33:39.610Z</time>
      </trkpt>
      <trkpt lat="45.71175" lon="6.58651">
        <ele>899</ele>
        <time>2022-07-16T17:33:50.600Z</time>
      </trkpt>
      <trkpt lat="45.71193" lon="6.58431">
        <ele>962</ele>
        <time>2022-07-16T17:35:09.938Z</time>
      </trkpt>
      <trkpt lat="45.71199" lon="6.58412">
        <ele>954</ele>
        <time>2022-07-16T17:35:11.037Z</time>
      </trkpt>
      <trkpt lat="45.71258" lon="6.58303">
        <ele>857</ele>
        <time>2022-07-16T17:35:18.305Z</time>
      </trkpt>
      <trkpt lat="45.71294" lon="6.58213">
        <ele>835</ele>
        <time>2022-07-16T17:35:23.771Z</time>
      </trkpt>
      <trkpt lat="45.71298" lon="6.58193">
        <ele>832</ele>
        <time>2022-07-16T17:35:24.868Z</time>
      </trkpt>
      <trkpt lat="45.71302" lon="6.58136">
        <ele>829</ele>
        <time>2022-07-16T17:35:27.887Z</time>
      </trkpt>
      <trkpt lat="45.71314" lon="6.58088">
        <ele>827</ele>
        <time>2022-07-16T17:35:30.561Z</time>
      </trkpt>
      <trkpt lat="45.71319" lon="6.58056">
        <ele>820</ele>
        <time>2022-07-16T17:35:32.289Z</time>
      </trkpt>
      <trkpt lat="45.7132" lon="6.57986">
        <ele>813</ele>
        <time>2022-07-16T17:35:35.979Z</time>
      </trkpt>
      <trkpt lat="45.71323" lon="6.57964">
        <ele>811</ele>
        <time>2022-07-16T17:35:37.160Z</time>
      </trkpt>
      <trkpt lat="45.71339" lon="6.57934">
        <ele>800</ele>
        <time>2022-07-16T17:35:39.150Z</time>
      </trkpt>
      <trkpt lat="45.71395" lon="6.57864">
        <ele>794</ele>
        <time>2022-07-16T17:35:44.760Z</time>
      </trkpt>
      <trkpt lat="45.7141" lon="6.57841">
        <ele>787</ele>
        <time>2022-07-16T17:35:46.418Z</time>
      </trkpt>
      <trkpt lat="45.71422" lon="6.57809">
        <ele>783</ele>
        <time>2022-07-16T17:35:48.332Z</time>
      </trkpt>
      <trkpt lat="45.71425" lon="6.5779">
        <ele>781</ele>
        <time>2022-07-16T17:35:49.359Z</time>
      </trkpt>
      <trkpt lat="45.71435" lon="6.57779">
        <ele>782</ele>
        <time>2022-07-16T17:35:52.988Z</time>
      </trkpt>
      <trkpt lat="45.71448" lon="6.57719">
        <ele>776</ele>
        <time>2022-07-16T17:35:56.299Z</time>
      </trkpt>
      <trkpt lat="45.71454" lon="6.57704">
        <ele>774</ele>
        <time>2022-07-16T17:35:57.210Z</time>
      </trkpt>
      <trkpt lat="45.7146" lon="6.577">
        <ele>774</ele>
        <time>2022-07-16T17:35:58.090Z</time>
      </trkpt>
      <trkpt lat="45.71469" lon="6.57701">
        <ele>774</ele>
        <time>2022-07-16T17:35:59.290Z</time>
      </trkpt>
      <trkpt lat="45.71512" lon="6.57717">
        <ele>780</ele>
        <time>2022-07-16T17:36:22.079Z</time>
      </trkpt>
      <trkpt lat="45.71522" lon="6.57723">
        <ele>782</ele>
        <time>2022-07-16T17:36:27.641Z</time>
      </trkpt>
      <trkpt lat="45.71531" lon="6.57724">
        <ele>782</ele>
        <time>2022-07-16T17:36:28.841Z</time>
      </trkpt>
      <trkpt lat="45.71543" lon="6.57721">
        <ele>781</ele>
        <time>2022-07-16T17:36:29.761Z</time>
      </trkpt>
      <trkpt lat="45.71587" lon="6.577">
        <ele>776</ele>
        <time>2022-07-16T17:36:33.261Z</time>
      </trkpt>
      <trkpt lat="45.71607" lon="6.57698">
        <ele>775</ele>
        <time>2022-07-16T17:36:34.849Z</time>
      </trkpt>
      <trkpt lat="45.71626" lon="6.57702">
        <ele>775</ele>
        <time>2022-07-16T17:36:37.403Z</time>
      </trkpt>
      <trkpt lat="45.71648" lon="6.57717">
        <ele>780</ele>
        <time>2022-07-16T17:36:49.902Z</time>
      </trkpt>
      <trkpt lat="45.71672" lon="6.57745">
        <ele>789</ele>
        <time>2022-07-16T17:37:05.780Z</time>
      </trkpt>
      <trkpt lat="45.71693" lon="6.57764">
        <ele>796</ele>
        <time>2022-07-16T17:37:18.521Z</time>
      </trkpt>
      <trkpt lat="45.71698" lon="6.5778">
        <ele>802</ele>
        <time>2022-07-16T17:37:24.799Z</time>
      </trkpt>
      <trkpt lat="45.71696" lon="6.57789">
        <ele>805</ele>
        <time>2022-07-16T17:37:28.182Z</time>
      </trkpt>
      <trkpt lat="45.71692" lon="6.57792">
        <ele>806</ele>
        <time>2022-07-16T17:37:30.498Z</time>
      </trkpt>
      <trkpt lat="45.71684" lon="6.57792">
        <ele>806</ele>
        <time>2022-07-16T17:37:31.562Z</time>
      </trkpt>
      <trkpt lat="45.71649" lon="6.57767">
        <ele>796</ele>
        <time>2022-07-16T17:37:34.514Z</time>
      </trkpt>
      <trkpt lat="45.71638" lon="6.57766">
        <ele>796</ele>
        <time>2022-07-16T17:37:35.980Z</time>
      </trkpt>
      <trkpt lat="45.71625" lon="6.5777">
        <ele>797</ele>
        <time>2022-07-16T17:37:39.683Z</time>
      </trkpt>
      <trkpt lat="45.71605" lon="6.57792">
        <ele>803</ele>
        <time>2022-07-16T17:37:52.619Z</time>
      </trkpt>
      <trkpt lat="45.71586" lon="6.57828">
        <ele>814</ele>
        <time>2022-07-16T17:38:08.781Z</time>
      </trkpt>
      <trkpt lat="45.71572" lon="6.57844">
        <ele>816</ele>
        <time>2022-07-16T17:38:15.770Z</time>
      </trkpt>
      <trkpt lat="45.71561" lon="6.5785">
        <ele>817</ele>
        <time>2022-07-16T17:38:19.320Z</time>
      </trkpt>
      <trkpt lat="45.71543" lon="6.57855">
        <ele>817</ele>
        <time>2022-07-16T17:38:21.758Z</time>
      </trkpt>
      <trkpt lat="45.71502" lon="6.57856">
        <ele>815</ele>
        <time>2022-07-16T17:38:25.038Z</time>
      </trkpt>
      <trkpt lat="45.71494" lon="6.5786">
        <ele>814</ele>
        <time>2022-07-16T17:38:25.678Z</time>
      </trkpt>
      <trkpt lat="45.71489" lon="6.57867">
        <ele>813</ele>
        <time>2022-07-16T17:38:26.206Z</time>
      </trkpt>
      <trkpt lat="45.71491" lon="6.57882">
        <ele>817</ele>
        <time>2022-07-16T17:38:31.675Z</time>
      </trkpt>
      <trkpt lat="45.71503" lon="6.57891">
        <ele>821</ele>
        <time>2022-07-16T17:38:38.623Z</time>
      </trkpt>
      <trkpt lat="45.71544" lon="6.57906">
        <ele>825</ele>
        <time>2022-07-16T17:38:52.517Z</time>
      </trkpt>
      <trkpt lat="45.7156" lon="6.5791">
        <ele>826</ele>
        <time>2022-07-16T17:38:56.603Z</time>
      </trkpt>
      <trkpt lat="45.71574" lon="6.57907">
        <ele>826</ele>
        <time>2022-07-16T17:38:58.486Z</time>
      </trkpt>
      <trkpt lat="45.71594" lon="6.57898">
        <ele>827</ele>
        <time>2022-07-16T17:39:03.288Z</time>
      </trkpt>
      <trkpt lat="45.71606" lon="6.57887">
        <ele>826</ele>
        <time>2022-07-16T17:39:04.364Z</time>
      </trkpt>
      <trkpt lat="45.71635" lon="6.57844">
        <ele>822</ele>
        <time>2022-07-16T17:39:07.514Z</time>
      </trkpt>
      <trkpt lat="45.71641" lon="6.5784">
        <ele>822</ele>
        <time>2022-07-16T17:39:08.394Z</time>
      </trkpt>
      <trkpt lat="45.71651" lon="6.57841">
        <ele>823</ele>
        <time>2022-07-16T17:39:11.853Z</time>
      </trkpt>
      <trkpt lat="45.71656" lon="6.57844">
        <ele>824</ele>
        <time>2022-07-16T17:39:14.634Z</time>
      </trkpt>
      <trkpt lat="45.71697" lon="6.57892">
        <ele>832</ele>
        <time>2022-07-16T17:39:41.797Z</time>
      </trkpt>
      <trkpt lat="45.71712" lon="6.57918">
        <ele>836</ele>
        <time>2022-07-16T17:39:53.876Z</time>
      </trkpt>
      <trkpt lat="45.71753" lon="6.58004">
        <ele>845</ele>
        <time>2022-07-16T17:40:26.606Z</time>
      </trkpt>
      <trkpt lat="45.71764" lon="6.58016">
        <ele>848</ele>
        <time>2022-07-16T17:40:33.699Z</time>
      </trkpt>
      <trkpt lat="45.71772" lon="6.58019">
        <ele>849</ele>
        <time>2022-07-16T17:40:37.291Z</time>
      </trkpt>
      <trkpt lat="45.71825" lon="6.58008">
        <ele>851</ele>
        <time>2022-07-16T17:40:48.116Z</time>
      </trkpt>
      <trkpt lat="45.71866" lon="6.58005">
        <ele>853</ele>
        <time>2022-07-16T17:40:57.583Z</time>
      </trkpt>
      <trkpt lat="45.71998" lon="6.58025">
        <ele>865</ele>
        <time>2022-07-16T17:41:39.562Z</time>
      </trkpt>
      <trkpt lat="45.72012" lon="6.5802">
        <ele>867</ele>
        <time>2022-07-16T17:41:46.963Z</time>
      </trkpt>
      <trkpt lat="45.72044" lon="6.57998">
        <ele>870</ele>
        <time>2022-07-16T17:41:57.629Z</time>
      </trkpt>
      <trkpt lat="45.72077" lon="6.5799">
        <ele>874</ele>
        <time>2022-07-16T17:42:11.922Z</time>
      </trkpt>
      <trkpt lat="45.72111" lon="6.5799">
        <ele>879</ele>
        <time>2022-07-16T17:42:29.362Z</time>
      </trkpt>
      <trkpt lat="45.72123" lon="6.57996">
        <ele>882</ele>
        <time>2022-07-16T17:42:35.882Z</time>
      </trkpt>
      <trkpt lat="45.72131" lon="6.57996">
        <ele>883</ele>
        <time>2022-07-16T17:42:39.539Z</time>
      </trkpt>
      <trkpt lat="45.72141" lon="6.57987">
        <ele>884</ele>
        <time>2022-07-16T17:42:43.093Z</time>
      </trkpt>
      <trkpt lat="45.72156" lon="6.57956">
        <ele>882</ele>
        <time>2022-07-16T17:42:45.080Z</time>
      </trkpt>
      <trkpt lat="45.72165" lon="6.57946">
        <ele>883</ele>
        <time>2022-07-16T17:42:48.601Z</time>
      </trkpt>
      <trkpt lat="45.7222" lon="6.57911">
        <ele>888</ele>
        <time>2022-07-16T17:43:06.468Z</time>
      </trkpt>
      <trkpt lat="45.72242" lon="6.57903">
        <ele>891</ele>
        <time>2022-07-16T17:43:17.902Z</time>
      </trkpt>
      <trkpt lat="45.72278" lon="6.57901">
        <ele>896</ele>
        <time>2022-07-16T17:43:36.382Z</time>
      </trkpt>
      <trkpt lat="45.7231" lon="6.57886">
        <ele>898</ele>
        <time>2022-07-16T17:43:44.726Z</time>
      </trkpt>
      <trkpt lat="45.72354" lon="6.57872">
        <ele>901</ele>
        <time>2022-07-16T17:43:56.482Z</time>
      </trkpt>
      <trkpt lat="45.72388" lon="6.57854">
        <ele>900</ele>
        <time>2022-07-16T17:44:00.043Z</time>
      </trkpt>
      <trkpt lat="45.72398" lon="6.57854">
        <ele>901</ele>
        <time>2022-07-16T17:44:03.502Z</time>
      </trkpt>
      <trkpt lat="45.72409" lon="6.57858">
        <ele>903</ele>
        <time>2022-07-16T17:44:09.323Z</time>
      </trkpt>
      <trkpt lat="45.72454" lon="6.57882">
        <ele>913</ele>
        <time>2022-07-16T17:44:33.954Z</time>
      </trkpt>
      <trkpt lat="45.72465" lon="6.57901">
        <ele>917</ele>
        <time>2022-07-16T17:44:42.793Z</time>
      </trkpt>
      <trkpt lat="45.72476" lon="6.57933">
        <ele>924</ele>
        <time>2022-07-16T17:44:55.566Z</time>
      </trkpt>
      <trkpt lat="45.72486" lon="6.57943">
        <ele>926</ele>
        <time>2022-07-16T17:45:01.821Z</time>
      </trkpt>
      <trkpt lat="45.72502" lon="6.57948">
        <ele>929</ele>
        <time>2022-07-16T17:45:10.222Z</time>
      </trkpt>
      <trkpt lat="45.72525" lon="6.57939">
        <ele>932</ele>
        <time>2022-07-16T17:45:21.240Z</time>
      </trkpt>
      <trkpt lat="45.7256" lon="6.57918">
        <ele>934</ele>
        <time>2022-07-16T17:45:30.223Z</time>
      </trkpt>
      <trkpt lat="45.72575" lon="6.579">
        <ele>935</ele>
        <time>2022-07-16T17:45:34.806Z</time>
      </trkpt>
      <trkpt lat="45.72577" lon="6.57893">
        <ele>935</ele>
        <time>2022-07-16T17:45:35.509Z</time>
      </trkpt>
      <trkpt lat="45.72578" lon="6.57864">
        <ele>934</ele>
        <time>2022-07-16T17:45:37.122Z</time>
      </trkpt>
      <trkpt lat="45.72576" lon="6.57845">
        <ele>932</ele>
        <time>2022-07-16T17:45:38.134Z</time>
      </trkpt>
      <trkpt lat="45.72578" lon="6.5782">
        <ele>932</ele>
        <time>2022-07-16T17:45:40.471Z</time>
      </trkpt>
      <trkpt lat="45.72612" lon="6.57681">
        <ele>943</ele>
        <time>2022-07-16T17:46:18.625Z</time>
      </trkpt>
      <trkpt lat="45.7262" lon="6.57636">
        <ele>945</ele>
        <time>2022-07-16T17:46:26.789Z</time>
      </trkpt>
      <trkpt lat="45.72616" lon="6.57568">
        <ele>944</ele>
        <time>2022-07-16T17:46:31.827Z</time>
      </trkpt>
      <trkpt lat="45.72607" lon="6.57511">
        <ele>944</ele>
        <time>2022-07-16T17:46:37.252Z</time>
      </trkpt>
      <trkpt lat="45.72607" lon="6.57491">
        <ele>944</ele>
        <time>2022-07-16T17:46:39.109Z</time>
      </trkpt>
      <trkpt lat="45.72614" lon="6.57434">
        <ele>941</ele>
        <time>2022-07-16T17:46:42.158Z</time>
      </trkpt>
      <trkpt lat="45.72622" lon="6.57419">
        <ele>941</ele>
        <time>2022-07-16T17:46:43.911Z</time>
      </trkpt>
      <trkpt lat="45.72687" lon="6.57392">
        <ele>941</ele>
        <time>2022-07-16T17:46:52.911Z</time>
      </trkpt>
      <trkpt lat="45.72702" lon="6.57388">
        <ele>941</ele>
        <time>2022-07-16T17:46:54.940Z</time>
      </trkpt>
      <trkpt lat="45.72772" lon="6.57397">
        <ele>950</ele>
        <time>2022-07-16T17:47:28.391Z</time>
      </trkpt>
      <trkpt lat="45.72785" lon="6.57395">
        <ele>951</ele>
        <time>2022-07-16T17:47:32.070Z</time>
      </trkpt>
      <trkpt lat="45.72797" lon="6.57391">
        <ele>950</ele>
        <time>2022-07-16T17:47:33.000Z</time>
      </trkpt>
      <trkpt lat="45.72826" lon="6.57374">
        <ele>947</ele>
        <time>2022-07-16T17:47:35.365Z</time>
      </trkpt>
      <trkpt lat="45.72846" lon="6.57368">
        <ele>946</ele>
        <time>2022-07-16T17:47:36.997Z</time>
      </trkpt>
      <trkpt lat="45.72901" lon="6.57376">
        <ele>948</ele>
        <time>2022-07-16T17:47:47.992Z</time>
      </trkpt>
      <trkpt lat="45.72931" lon="6.57386">
        <ele>954</ele>
        <time>2022-07-16T17:48:03.792Z</time>
      </trkpt>
      <trkpt lat="45.72957" lon="6.57387">
        <ele>959</ele>
        <time>2022-07-16T17:48:17.133Z</time>
      </trkpt>
      <trkpt lat="45.73007" lon="6.57368">
        <ele>962</ele>
        <time>2022-07-16T17:48:29.827Z</time>
      </trkpt>
      <trkpt lat="45.73058" lon="6.57338">
        <ele>963</ele>
        <time>2022-07-16T17:48:38.620Z</time>
      </trkpt>
      <trkpt lat="45.73089" lon="6.57324">
        <ele>965</ele>
        <time>2022-07-16T17:48:46.796Z</time>
      </trkpt>
      <trkpt lat="45.73136" lon="6.57305">
        <ele>965</ele>
        <time>2022-07-16T17:48:53.290Z</time>
      </trkpt>
      <trkpt lat="45.73163" lon="6.57297">
        <ele>966</ele>
        <time>2022-07-16T17:48:58.781Z</time>
      </trkpt>
      <trkpt lat="45.7318" lon="6.57293">
        <ele>965</ele>
        <time>2022-07-16T17:49:00.056Z</time>
      </trkpt>
      <trkpt lat="45.73216" lon="6.57293">
        <ele>967</ele>
        <time>2022-07-16T17:49:08.743Z</time>
      </trkpt>
      <trkpt lat="45.73234" lon="6.57296">
        <ele>969</ele>
        <time>2022-07-16T17:49:15.714Z</time>
      </trkpt>
      <trkpt lat="45.73255" lon="6.57303">
        <ele>971</ele>
        <time>2022-07-16T17:49:22.679Z</time>
      </trkpt>
      <trkpt lat="45.73293" lon="6.57326">
        <ele>970</ele>
        <time>2022-07-16T17:49:26.884Z</time>
      </trkpt>
      <trkpt lat="45.73322" lon="6.57349">
        <ele>970</ele>
        <time>2022-07-16T17:49:31.292Z</time>
      </trkpt>
      <trkpt lat="45.73339" lon="6.57371">
        <ele>975</ele>
        <time>2022-07-16T17:49:43.043Z</time>
      </trkpt>
      <trkpt lat="45.73384" lon="6.57442">
        <ele>979</ele>
        <time>2022-07-16T17:49:59.671Z</time>
      </trkpt>
      <trkpt lat="45.73453" lon="6.57525">
        <ele>970</ele>
        <time>2022-07-16T17:50:06.471Z</time>
      </trkpt>
      <trkpt lat="45.73486" lon="6.57586">
        <ele>975</ele>
        <time>2022-07-16T17:50:23.882Z</time>
      </trkpt>
      <trkpt lat="45.73497" lon="6.57602">
        <ele>976</ele>
        <time>2022-07-16T17:50:27.890Z</time>
      </trkpt>
      <trkpt lat="45.73571" lon="6.57694">
        <ele>988</ele>
        <time>2022-07-16T17:51:11.277Z</time>
      </trkpt>
      <trkpt lat="45.73596" lon="6.57709">
        <ele>989</ele>
        <time>2022-07-16T17:51:16.721Z</time>
      </trkpt>
      <trkpt lat="45.73632" lon="6.57717">
        <ele>989</ele>
        <time>2022-07-16T17:51:21.566Z</time>
      </trkpt>
      <trkpt lat="45.73715" lon="6.57746">
        <ele>992</ele>
        <time>2022-07-16T17:51:38.314Z</time>
      </trkpt>
      <trkpt lat="45.73767" lon="6.57782">
        <ele>995</ele>
        <time>2022-07-16T17:51:51.917Z</time>
      </trkpt>
      <trkpt lat="45.73809" lon="6.57827">
        <ele>999</ele>
        <time>2022-07-16T17:52:06.648Z</time>
      </trkpt>
      <trkpt lat="45.73867" lon="6.57906">
        <ele>999</ele>
        <time>2022-07-16T17:52:17.290Z</time>
      </trkpt>
      <trkpt lat="45.73885" lon="6.5794">
        <ele>1002</ele>
        <time>2022-07-16T17:52:27.664Z</time>
      </trkpt>
      <trkpt lat="45.73894" lon="6.57971">
        <ele>1007</ele>
        <time>2022-07-16T17:52:39.684Z</time>
      </trkpt>
      <trkpt lat="45.73897" lon="6.58012">
        <ele>1016</ele>
        <time>2022-07-16T17:52:54.442Z</time>
      </trkpt>
      <trkpt lat="45.73906" lon="6.58037">
        <ele>1018</ele>
        <time>2022-07-16T17:53:01.358Z</time>
      </trkpt>
      <trkpt lat="45.73922" lon="6.58052">
        <ele>1015</ele>
        <time>2022-07-16T17:53:02.801Z</time>
      </trkpt>
      <trkpt lat="45.7396" lon="6.58073">
        <ele>1007</ele>
        <time>2022-07-16T17:53:05.875Z</time>
      </trkpt>
      <trkpt lat="45.7397" lon="6.58086">
        <ele>1008</ele>
        <time>2022-07-16T17:53:09.603Z</time>
      </trkpt>
      <trkpt lat="45.73976" lon="6.58101">
        <ele>1009</ele>
        <time>2022-07-16T17:53:13.179Z</time>
      </trkpt>
      <trkpt lat="45.73979" lon="6.58124">
        <ele>1012</ele>
        <time>2022-07-16T17:53:21.555Z</time>
      </trkpt>
      <trkpt lat="45.73978" lon="6.58172">
        <ele>1022</ele>
        <time>2022-07-16T17:53:38.747Z</time>
      </trkpt>
      <trkpt lat="45.73983" lon="6.58191">
        <ele>1025</ele>
        <time>2022-07-16T17:53:46.016Z</time>
      </trkpt>
      <trkpt lat="45.74033" lon="6.58275">
        <ele>1030</ele>
        <time>2022-07-16T17:54:05.870Z</time>
      </trkpt>
      <trkpt lat="45.74047" lon="6.58286">
        <ele>1029</ele>
        <time>2022-07-16T17:54:07.009Z</time>
      </trkpt>
      <trkpt lat="45.74076" lon="6.58287">
        <ele>1022</ele>
        <time>2022-07-16T17:54:09.199Z</time>
      </trkpt>
      <trkpt lat="45.74128" lon="6.58303">
        <ele>1017</ele>
        <time>2022-07-16T17:54:13.213Z</time>
      </trkpt>
      <trkpt lat="45.74143" lon="6.58304">
        <ele>1015</ele>
        <time>2022-07-16T17:54:14.346Z</time>
      </trkpt>
      <trkpt lat="45.74161" lon="6.58301">
        <ele>1010</ele>
        <time>2022-07-16T17:54:15.714Z</time>
      </trkpt>
      <trkpt lat="45.74177" lon="6.58303">
        <ele>1009</ele>
        <time>2022-07-16T17:54:16.863Z</time>
      </trkpt>
      <trkpt lat="45.74213" lon="6.5833">
        <ele>1016</ele>
        <time>2022-07-16T17:54:37.706Z</time>
      </trkpt>
      <trkpt lat="45.74237" lon="6.5834">
        <ele>1016</ele>
        <time>2022-07-16T17:54:41.030Z</time>
      </trkpt>
      <trkpt lat="45.7426" lon="6.58356">
        <ele>1016</ele>
        <time>2022-07-16T17:54:44.430Z</time>
      </trkpt>
      <trkpt lat="45.74266" lon="6.58368">
        <ele>1018</ele>
        <time>2022-07-16T17:54:49.714Z</time>
      </trkpt>
      <trkpt lat="45.74269" lon="6.58381">
        <ele>1020</ele>
        <time>2022-07-16T17:54:54.616Z</time>
      </trkpt>
      <trkpt lat="45.74269" lon="6.58413">
        <ele>1029</ele>
        <time>2022-07-16T17:55:06.071Z</time>
      </trkpt>
      <trkpt lat="45.74251" lon="6.58509">
        <ele>1056</ele>
        <time>2022-07-16T17:55:41.656Z</time>
      </trkpt>
      <trkpt lat="45.74251" lon="6.58522">
        <ele>1059</ele>
        <time>2022-07-16T17:55:46.309Z</time>
      </trkpt>
      <trkpt lat="45.74257" lon="6.58536">
        <ele>1062</ele>
        <time>2022-07-16T17:55:52.191Z</time>
      </trkpt>
      <trkpt lat="45.74265" lon="6.58541">
        <ele>1061</ele>
        <time>2022-07-16T17:55:52.849Z</time>
      </trkpt>
      <trkpt lat="45.7427" lon="6.58542">
        <ele>1061</ele>
        <time>2022-07-16T17:55:53.521Z</time>
      </trkpt>
      <trkpt lat="45.74274" lon="6.5854">
        <ele>1059</ele>
        <time>2022-07-16T17:55:53.840Z</time>
      </trkpt>
      <trkpt lat="45.74285" lon="6.5853">
        <ele>1054</ele>
        <time>2022-07-16T17:55:54.824Z</time>
      </trkpt>
      <trkpt lat="45.74305" lon="6.58498">
        <ele>1041</ele>
        <time>2022-07-16T17:55:57.086Z</time>
      </trkpt>
      <trkpt lat="45.74313" lon="6.58491">
        <ele>1037</ele>
        <time>2022-07-16T17:55:57.794Z</time>
      </trkpt>
      <trkpt lat="45.74328" lon="6.58484">
        <ele>1032</ele>
        <time>2022-07-16T17:55:58.984Z</time>
      </trkpt>
      <trkpt lat="45.74339" lon="6.58484">
        <ele>1030</ele>
        <time>2022-07-16T17:55:59.815Z</time>
      </trkpt>
      <trkpt lat="45.74384" lon="6.58493">
        <ele>1026</ele>
        <time>2022-07-16T17:56:03.244Z</time>
      </trkpt>
      <trkpt lat="45.744" lon="6.58497">
        <ele>1025</ele>
        <time>2022-07-16T17:56:04.412Z</time>
      </trkpt>
      <trkpt lat="45.74407" lon="6.58503">
        <ele>1026</ele>
        <time>2022-07-16T17:56:08.030Z</time>
      </trkpt>
      <trkpt lat="45.74414" lon="6.58524">
        <ele>1029</ele>
        <time>2022-07-16T17:56:16.360Z</time>
      </trkpt>
      <trkpt lat="45.74415" lon="6.58544">
        <ele>1033</ele>
        <time>2022-07-16T17:56:23.538Z</time>
      </trkpt>
      <trkpt lat="45.74423" lon="6.58573">
        <ele>1036</ele>
        <time>2022-07-16T17:56:34.701Z</time>
      </trkpt>
      <trkpt lat="45.7443" lon="6.5858">
        <ele>1036</ele>
        <time>2022-07-16T17:56:35.836Z</time>
      </trkpt>
      <trkpt lat="45.7444" lon="6.58585">
        <ele>1034</ele>
        <time>2022-07-16T17:56:36.635Z</time>
      </trkpt>
      <trkpt lat="45.74469" lon="6.58589">
        <ele>1028</ele>
        <time>2022-07-16T17:56:38.834Z</time>
      </trkpt>
      <trkpt lat="45.74476" lon="6.58596">
        <ele>1027</ele>
        <time>2022-07-16T17:56:39.479Z</time>
      </trkpt>
      <trkpt lat="45.74482" lon="6.58611">
        <ele>1028</ele>
        <time>2022-07-16T17:56:43.055Z</time>
      </trkpt>
      <trkpt lat="45.74486" lon="6.58676">
        <ele>1036</ele>
        <time>2022-07-16T17:57:06.413Z</time>
      </trkpt>
      <trkpt lat="45.74477" lon="6.58754">
        <ele>1052</ele>
        <time>2022-07-16T17:57:34.713Z</time>
      </trkpt>
      <trkpt lat="45.74467" lon="6.58797">
        <ele>1063</ele>
        <time>2022-07-16T17:57:50.938Z</time>
      </trkpt>
      <trkpt lat="45.7447" lon="6.58819">
        <ele>1065</ele>
        <time>2022-07-16T17:57:58.363Z</time>
      </trkpt>
      <trkpt lat="45.74483" lon="6.58829">
        <ele>1062</ele>
        <time>2022-07-16T17:57:59.476Z</time>
      </trkpt>
      <trkpt lat="45.74493" lon="6.58828">
        <ele>1058</ele>
        <time>2022-07-16T17:58:00.233Z</time>
      </trkpt>
      <trkpt lat="45.74509" lon="6.58817">
        <ele>1051</ele>
        <time>2022-07-16T17:58:01.572Z</time>
      </trkpt>
      <trkpt lat="45.7454" lon="6.58786">
        <ele>1038</ele>
        <time>2022-07-16T17:58:04.425Z</time>
      </trkpt>
      <trkpt lat="45.74549" lon="6.58785">
        <ele>1036</ele>
        <time>2022-07-16T17:58:05.107Z</time>
      </trkpt>
      <trkpt lat="45.74561" lon="6.58791">
        <ele>1034</ele>
        <time>2022-07-16T17:58:06.066Z</time>
      </trkpt>
      <trkpt lat="45.74576" lon="6.58804">
        <ele>1034</ele>
        <time>2022-07-16T17:58:08.397Z</time>
      </trkpt>
      <trkpt lat="45.74639" lon="6.58847">
        <ele>1036</ele>
        <time>2022-07-16T17:58:20.981Z</time>
      </trkpt>
      <trkpt lat="45.74671" lon="6.58874">
        <ele>1036</ele>
        <time>2022-07-16T17:58:25.919Z</time>
      </trkpt>
      <trkpt lat="45.74682" lon="6.58894">
        <ele>1037</ele>
        <time>2022-07-16T17:58:30.229Z</time>
      </trkpt>
      <trkpt lat="45.74684" lon="6.58909">
        <ele>1038</ele>
        <time>2022-07-16T17:58:33.705Z</time>
      </trkpt>
      <trkpt lat="45.74678" lon="6.58957">
        <ele>1049</ele>
        <time>2022-07-16T17:58:51.160Z</time>
      </trkpt>
      <trkpt lat="45.74678" lon="6.58965">
        <ele>1051</ele>
        <time>2022-07-16T17:58:54.024Z</time>
      </trkpt>
      <trkpt lat="45.74684" lon="6.58988">
        <ele>1053</ele>
        <time>2022-07-16T17:59:01.103Z</time>
      </trkpt>
      <trkpt lat="45.74687" lon="6.58993">
        <ele>1053</ele>
        <time>2022-07-16T17:59:01.715Z</time>
      </trkpt>
      <trkpt lat="45.74704" lon="6.59003">
        <ele>1049</ele>
        <time>2022-07-16T17:59:03.102Z</time>
      </trkpt>
      <trkpt lat="45.74714" lon="6.59012">
        <ele>1047</ele>
        <time>2022-07-16T17:59:03.993Z</time>
      </trkpt>
      <trkpt lat="45.74746" lon="6.59076">
        <ele>1048</ele>
        <time>2022-07-16T17:59:12.762Z</time>
      </trkpt>
      <trkpt lat="45.74773" lon="6.5911">
        <ele>1049</ele>
        <time>2022-07-16T17:59:19.177Z</time>
      </trkpt>
      <trkpt lat="45.74784" lon="6.59134">
        <ele>1051</ele>
        <time>2022-07-16T17:59:26.094Z</time>
      </trkpt>
      <trkpt lat="45.7479" lon="6.59183">
        <ele>1058</ele>
        <time>2022-07-16T17:59:43.901Z</time>
      </trkpt>
      <trkpt lat="45.74795" lon="6.59194">
        <ele>1060</ele>
        <time>2022-07-16T17:59:48.600Z</time>
      </trkpt>
      <trkpt lat="45.74802" lon="6.59202">
        <ele>1061</ele>
        <time>2022-07-16T17:59:52.094Z</time>
      </trkpt>
      <trkpt lat="45.74808" lon="6.59204">
        <ele>1060</ele>
        <time>2022-07-16T17:59:52.559Z</time>
      </trkpt>
      <trkpt lat="45.74822" lon="6.59197">
        <ele>1057</ele>
        <time>2022-07-16T17:59:53.678Z</time>
      </trkpt>
      <trkpt lat="45.74832" lon="6.59183">
        <ele>1053</ele>
        <time>2022-07-16T17:59:54.733Z</time>
      </trkpt>
      <trkpt lat="45.74849" lon="6.59145">
        <ele>1046</ele>
        <time>2022-07-16T17:59:57.111Z</time>
      </trkpt>
      <trkpt lat="45.74863" lon="6.59133">
        <ele>1044</ele>
        <time>2022-07-16T17:59:58.342Z</time>
      </trkpt>
      <trkpt lat="45.7496" lon="6.59114">
        <ele>1041</ele>
        <time>2022-07-16T18:00:07.654Z</time>
      </trkpt>
      <trkpt lat="45.74978" lon="6.59119">
        <ele>1041</ele>
        <time>2022-07-16T18:00:10.092Z</time>
      </trkpt>
      <trkpt lat="45.75005" lon="6.59141">
        <ele>1040</ele>
        <time>2022-07-16T18:00:12.999Z</time>
      </trkpt>
      <trkpt lat="45.75017" lon="6.59147">
        <ele>1040</ele>
        <time>2022-07-16T18:00:14.689Z</time>
      </trkpt>
      <trkpt lat="45.75034" lon="6.59146">
        <ele>1039</ele>
        <time>2022-07-16T18:00:15.941Z</time>
      </trkpt>
      <trkpt lat="45.75056" lon="6.5914">
        <ele>1038</ele>
        <time>2022-07-16T18:00:17.799Z</time>
      </trkpt>
      <trkpt lat="45.75069" lon="6.5914">
        <ele>1037</ele>
        <time>2022-07-16T18:00:18.780Z</time>
      </trkpt>
      <trkpt lat="45.7511" lon="6.5915">
        <ele>1040</ele>
        <time>2022-07-16T18:00:30.092Z</time>
      </trkpt>
      <trkpt lat="45.75124" lon="6.5916">
        <ele>1042</ele>
        <time>2022-07-16T18:00:37.517Z</time>
      </trkpt>
      <trkpt lat="45.75157" lon="6.59193">
        <ele>1046</ele>
        <time>2022-07-16T18:00:51.353Z</time>
      </trkpt>
      <trkpt lat="45.75166" lon="6.59206">
        <ele>1047</ele>
        <time>2022-07-16T18:00:54.999Z</time>
      </trkpt>
      <trkpt lat="45.75183" lon="6.59243">
        <ele>1048</ele>
        <time>2022-07-16T18:01:00.841Z</time>
      </trkpt>
      <trkpt lat="45.75196" lon="6.59249">
        <ele>1050</ele>
        <time>2022-07-16T18:01:07.847Z</time>
      </trkpt>
      <trkpt lat="45.752" lon="6.59247">
        <ele>1050</ele>
        <time>2022-07-16T18:01:08.410Z</time>
      </trkpt>
      <trkpt lat="45.75203" lon="6.59244">
        <ele>1051</ele>
        <time>2022-07-16T18:01:10.287Z</time>
      </trkpt>
      <trkpt lat="45.75205" lon="6.59229">
        <ele>1053</ele>
        <time>2022-07-16T18:01:15.753Z</time>
      </trkpt>
      <trkpt lat="45.75193" lon="6.59202">
        <ele>1053</ele>
        <time>2022-07-16T18:01:18.723Z</time>
      </trkpt>
      <trkpt lat="45.75185" lon="6.59171">
        <ele>1053</ele>
        <time>2022-07-16T18:01:21.790Z</time>
      </trkpt>
      <trkpt lat="45.75173" lon="6.59091">
        <ele>1060</ele>
        <time>2022-07-16T18:01:47.112Z</time>
      </trkpt>
      <trkpt lat="45.75163" lon="6.59059">
        <ele>1065</ele>
        <time>2022-07-16T18:01:59.662Z</time>
      </trkpt>
      <trkpt lat="45.7515" lon="6.59031">
        <ele>1069</ele>
        <time>2022-07-16T18:02:11.700Z</time>
      </trkpt>
      <trkpt lat="45.75123" lon="6.58997">
        <ele>1070</ele>
        <time>2022-07-16T18:02:18.114Z</time>
      </trkpt>
      <trkpt lat="45.75121" lon="6.58984">
        <ele>1072</ele>
        <time>2022-07-16T18:02:22.879Z</time>
      </trkpt>
      <trkpt lat="45.75123" lon="6.58981">
        <ele>1073</ele>
        <time>2022-07-16T18:02:24.364Z</time>
      </trkpt>
      <trkpt lat="45.7513" lon="6.5898">
        <ele>1076</ele>
        <time>2022-07-16T18:02:27.973Z</time>
      </trkpt>
      <trkpt lat="45.7517" lon="6.59019">
        <ele>1078</ele>
        <time>2022-07-16T18:02:38.327Z</time>
      </trkpt>
      <trkpt lat="45.75211" lon="6.59054">
        <ele>1081</ele>
        <time>2022-07-16T18:02:50.446Z</time>
      </trkpt>
      <trkpt lat="45.75233" lon="6.59079">
        <ele>1081</ele>
        <time>2022-07-16T18:02:54.180Z</time>
      </trkpt>
      <trkpt lat="45.75259" lon="6.59103">
        <ele>1084</ele>
        <time>2022-07-16T18:03:04.572Z</time>
      </trkpt>
      <trkpt lat="45.75301" lon="6.59134">
        <ele>1089</ele>
        <time>2022-07-16T18:03:21.895Z</time>
      </trkpt>
      <trkpt lat="45.75361" lon="6.59163">
        <ele>1098</ele>
        <time>2022-07-16T18:03:54.375Z</time>
      </trkpt>
      <trkpt lat="45.75375" lon="6.59172">
        <ele>1099</ele>
        <time>2022-07-16T18:03:58.337Z</time>
      </trkpt>
      <trkpt lat="45.75392" lon="6.59188">
        <ele>1100</ele>
        <time>2022-07-16T18:04:03.040Z</time>
      </trkpt>
      <trkpt lat="45.75411" lon="6.59211">
        <ele>1101</ele>
        <time>2022-07-16T18:04:08.276Z</time>
      </trkpt>
      <trkpt lat="45.7543" lon="6.59241">
        <ele>1101</ele>
        <time>2022-07-16T18:04:12.036Z</time>
      </trkpt>
      <trkpt lat="45.7544" lon="6.59241">
        <ele>1103</ele>
        <time>2022-07-16T18:04:17.165Z</time>
      </trkpt>
      <trkpt lat="45.75444" lon="6.59234">
        <ele>1105</ele>
        <time>2022-07-16T18:04:20.403Z</time>
      </trkpt>
      <trkpt lat="45.75444" lon="6.59227">
        <ele>1106</ele>
        <time>2022-07-16T18:04:22.909Z</time>
      </trkpt>
      <trkpt lat="45.75426" lon="6.59203">
        <ele>1106</ele>
        <time>2022-07-16T18:04:26.178Z</time>
      </trkpt>
      <trkpt lat="45.75407" lon="6.59167">
        <ele>1107</ele>
        <time>2022-07-16T18:04:32.084Z</time>
      </trkpt>
      <trkpt lat="45.75396" lon="6.59137">
        <ele>1110</ele>
        <time>2022-07-16T18:04:43.163Z</time>
      </trkpt>
      <trkpt lat="45.75388" lon="6.59104">
        <ele>1114</ele>
        <time>2022-07-16T18:04:55.666Z</time>
      </trkpt>
      <trkpt lat="45.75339" lon="6.59049">
        <ele>1117</ele>
        <time>2022-07-16T18:05:09.970Z</time>
      </trkpt>
      <trkpt lat="45.75327" lon="6.5903">
        <ele>1120</ele>
        <time>2022-07-16T18:05:19.143Z</time>
      </trkpt>
      <trkpt lat="45.7528" lon="6.58938">
        <ele>1132</ele>
        <time>2022-07-16T18:05:59.953Z</time>
      </trkpt>
      <trkpt lat="45.75255" lon="6.58896">
        <ele>1134</ele>
        <time>2022-07-16T18:06:09.024Z</time>
      </trkpt>
      <trkpt lat="45.75229" lon="6.58846">
        <ele>1134</ele>
        <time>2022-07-16T18:06:14.811Z</time>
      </trkpt>
      <trkpt lat="45.7522" lon="6.58837">
        <ele>1133</ele>
        <time>2022-07-16T18:06:15.639Z</time>
      </trkpt>
      <trkpt lat="45.75214" lon="6.58837">
        <ele>1132</ele>
        <time>2022-07-16T18:06:16.092Z</time>
      </trkpt>
      <trkpt lat="45.75207" lon="6.58832">
        <ele>1131</ele>
        <time>2022-07-16T18:06:16.682Z</time>
      </trkpt>
      <trkpt lat="45.75176" lon="6.58802">
        <ele>1130</ele>
        <time>2022-07-16T18:06:20.391Z</time>
      </trkpt>
      <trkpt lat="45.7506" lon="6.58678">
        <ele>1121</ele>
        <time>2022-07-16T18:06:30.748Z</time>
      </trkpt>
      <trkpt lat="45.74973" lon="6.58539">
        <ele>1121</ele>
        <time>2022-07-16T18:06:48.076Z</time>
      </trkpt>
      <trkpt lat="45.74943" lon="6.58478">
        <ele>1122</ele>
        <time>2022-07-16T18:06:56.479Z</time>
      </trkpt>
      <trkpt lat="45.74913" lon="6.58408">
        <ele>1126</ele>
        <time>2022-07-16T18:07:11.794Z</time>
      </trkpt>
      <trkpt lat="45.74848" lon="6.58302">
        <ele>1122</ele>
        <time>2022-07-16T18:07:20.277Z</time>
      </trkpt>
      <trkpt lat="45.74848" lon="6.58286">
        <ele>1126</ele>
        <time>2022-07-16T18:07:26.004Z</time>
      </trkpt>
      <trkpt lat="45.74855" lon="6.58279">
        <ele>1129</ele>
        <time>2022-07-16T18:07:30.382Z</time>
      </trkpt>
      <trkpt lat="45.74866" lon="6.58287">
        <ele>1130</ele>
        <time>2022-07-16T18:07:33.984Z</time>
      </trkpt>
      <trkpt lat="45.74912" lon="6.58352">
        <ele>1134</ele>
        <time>2022-07-16T18:07:50.278Z</time>
      </trkpt>
      <trkpt lat="45.74953" lon="6.58401">
        <ele>1137</ele>
        <time>2022-07-16T18:08:03.218Z</time>
      </trkpt>
      <trkpt lat="45.74966" lon="6.58413">
        <ele>1138</ele>
        <time>2022-07-16T18:08:07.196Z</time>
      </trkpt>
      <trkpt lat="45.74972" lon="6.5841">
        <ele>1140</ele>
        <time>2022-07-16T18:08:10.455Z</time>
      </trkpt>
      <trkpt lat="45.74974" lon="6.58401">
        <ele>1142</ele>
        <time>2022-07-16T18:08:13.836Z</time>
      </trkpt>
      <trkpt lat="45.74971" lon="6.58393">
        <ele>1143</ele>
        <time>2022-07-16T18:08:17.087Z</time>
      </trkpt>
      <trkpt lat="45.74943" lon="6.58365">
        <ele>1140</ele>
        <time>2022-07-16T18:08:19.664Z</time>
      </trkpt>
      <trkpt lat="45.74925" lon="6.58336">
        <ele>1140</ele>
        <time>2022-07-16T18:08:23.266Z</time>
      </trkpt>
      <trkpt lat="45.74909" lon="6.58297">
        <ele>1140</ele>
        <time>2022-07-16T18:08:27.464Z</time>
      </trkpt>
      <trkpt lat="45.74895" lon="6.58239">
        <ele>1144</ele>
        <time>2022-07-16T18:08:41.380Z</time>
      </trkpt>
      <trkpt lat="45.74888" lon="6.58199">
        <ele>1145</ele>
        <time>2022-07-16T18:08:46.993Z</time>
      </trkpt>
      <trkpt lat="45.74885" lon="6.58153">
        <ele>1148</ele>
        <time>2022-07-16T18:08:57.436Z</time>
      </trkpt>
      <trkpt lat="45.74877" lon="6.58093">
        <ele>1152</ele>
        <time>2022-07-16T18:09:11.343Z</time>
      </trkpt>
      <trkpt lat="45.74857" lon="6.58029">
        <ele>1152</ele>
        <time>2022-07-16T18:09:17.850Z</time>
      </trkpt>
      <trkpt lat="45.74854" lon="6.58013">
        <ele>1152</ele>
        <time>2022-07-16T18:09:19.388Z</time>
      </trkpt>
      <trkpt lat="45.74853" lon="6.5798">
        <ele>1153</ele>
        <time>2022-07-16T18:09:24.474Z</time>
      </trkpt>
      <trkpt lat="45.74857" lon="6.57959">
        <ele>1155</ele>
        <time>2022-07-16T18:09:32.072Z</time>
      </trkpt>
      <trkpt lat="45.74864" lon="6.57947">
        <ele>1156</ele>
        <time>2022-07-16T18:09:35.561Z</time>
      </trkpt>
      <trkpt lat="45.74874" lon="6.57939">
        <ele>1158</ele>
        <time>2022-07-16T18:09:41.436Z</time>
      </trkpt>
      <trkpt lat="45.74895" lon="6.57933">
        <ele>1162</ele>
        <time>2022-07-16T18:09:52.420Z</time>
      </trkpt>
      <trkpt lat="45.74905" lon="6.57926">
        <ele>1163</ele>
        <time>2022-07-16T18:09:55.923Z</time>
      </trkpt>
      <trkpt lat="45.74908" lon="6.57917">
        <ele>1164</ele>
        <time>2022-07-16T18:09:59.493Z</time>
      </trkpt>
      <trkpt lat="45.74907" lon="6.57907">
        <ele>1165</ele>
        <time>2022-07-16T18:10:03.109Z</time>
      </trkpt>
      <trkpt lat="45.74903" lon="6.579">
        <ele>1165</ele>
        <time>2022-07-16T18:10:03.948Z</time>
      </trkpt>
      <trkpt lat="45.74893" lon="6.57892">
        <ele>1164</ele>
        <time>2022-07-16T18:10:04.813Z</time>
      </trkpt>
      <trkpt lat="45.74854" lon="6.57873">
        <ele>1162</ele>
        <time>2022-07-16T18:10:08.114Z</time>
      </trkpt>
      <trkpt lat="45.7484" lon="6.57869">
        <ele>1160</ele>
        <time>2022-07-16T18:10:09.191Z</time>
      </trkpt>
      <trkpt lat="45.74819" lon="6.57869">
        <ele>1158</ele>
        <time>2022-07-16T18:10:10.776Z</time>
      </trkpt>
      <trkpt lat="45.74809" lon="6.57865">
        <ele>1158</ele>
        <time>2022-07-16T18:10:12.157Z</time>
      </trkpt>
      <trkpt lat="45.74801" lon="6.57859">
        <ele>1158</ele>
        <time>2022-07-16T18:10:13.358Z</time>
      </trkpt>
      <trkpt lat="45.74786" lon="6.57841">
        <ele>1158</ele>
        <time>2022-07-16T18:10:15.960Z</time>
      </trkpt>
      <trkpt lat="45.74777" lon="6.57819">
        <ele>1160</ele>
        <time>2022-07-16T18:10:22.959Z</time>
      </trkpt>
      <trkpt lat="45.74767" lon="6.57747">
        <ele>1166</ele>
        <time>2022-07-16T18:10:44.223Z</time>
      </trkpt>
      <trkpt lat="45.7476" lon="6.57726">
        <ele>1168</ele>
        <time>2022-07-16T18:10:51.476Z</time>
      </trkpt>
      <trkpt lat="45.74668" lon="6.5754">
        <ele>1182</ele>
        <time>2022-07-16T18:11:40.735Z</time>
      </trkpt>
      <trkpt lat="45.74653" lon="6.57507">
        <ele>1185</ele>
        <time>2022-07-16T18:11:51.170Z</time>
      </trkpt>
      <trkpt lat="45.74627" lon="6.57438">
        <ele>1193</ele>
        <time>2022-07-16T18:12:19.240Z</time>
      </trkpt>
      <trkpt lat="45.74623" lon="6.57433">
        <ele>1193</ele>
        <time>2022-07-16T18:12:19.946Z</time>
      </trkpt>
      <trkpt lat="45.74632" lon="6.57425">
        <ele>1197</ele>
        <time>2022-07-16T18:12:25.379Z</time>
      </trkpt>
      <trkpt lat="45.74639" lon="6.57429">
        <ele>1198</ele>
        <time>2022-07-16T18:12:29.203Z</time>
      </trkpt>
      <trkpt lat="45.74646" lon="6.57438">
        <ele>1198</ele>
        <time>2022-07-16T18:12:30.454Z</time>
      </trkpt>
      <trkpt lat="45.74667" lon="6.5748">
        <ele>1193</ele>
        <time>2022-07-16T18:12:33.175Z</time>
      </trkpt>
      <trkpt lat="45.7469" lon="6.57501">
        <ele>1196</ele>
        <time>2022-07-16T18:12:43.625Z</time>
      </trkpt>
      <trkpt lat="45.74743" lon="6.57533">
        <ele>1204</ele>
        <time>2022-07-16T18:13:13.126Z</time>
      </trkpt>
      <trkpt lat="45.74766" lon="6.57544">
        <ele>1207</ele>
        <time>2022-07-16T18:13:24.033Z</time>
      </trkpt>
      <trkpt lat="45.74847" lon="6.57575">
        <ele>1218</ele>
        <time>2022-07-16T18:14:05.696Z</time>
      </trkpt>
      <trkpt lat="45.74881" lon="6.5761">
        <ele>1217</ele>
        <time>2022-07-16T18:14:09.979Z</time>
      </trkpt>
      <trkpt lat="45.74895" lon="6.57619">
        <ele>1217</ele>
        <time>2022-07-16T18:14:12.020Z</time>
      </trkpt>
      <trkpt lat="45.74928" lon="6.57633">
        <ele>1220</ele>
        <time>2022-07-16T18:14:22.599Z</time>
      </trkpt>
      <trkpt lat="45.7497" lon="6.57644">
        <ele>1225</ele>
        <time>2022-07-16T18:14:40.319Z</time>
      </trkpt>
      <trkpt lat="45.75028" lon="6.57672">
        <ele>1229</ele>
        <time>2022-07-16T18:14:56.143Z</time>
      </trkpt>
      <trkpt lat="45.75057" lon="6.57679">
        <ele>1233</ele>
        <time>2022-07-16T18:15:11.228Z</time>
      </trkpt>
      <trkpt lat="45.75078" lon="6.57676">
        <ele>1239</ele>
        <time>2022-07-16T18:15:22.053Z</time>
      </trkpt>
      <trkpt lat="45.75096" lon="6.57678">
        <ele>1243</ele>
        <time>2022-07-16T18:15:31.314Z</time>
      </trkpt>
      <trkpt lat="45.75108" lon="6.57687">
        <ele>1244</ele>
        <time>2022-07-16T18:15:35.046Z</time>
      </trkpt>
      <trkpt lat="45.75126" lon="6.57708">
        <ele>1244</ele>
        <time>2022-07-16T18:15:38.133Z</time>
      </trkpt>
      <trkpt lat="45.75144" lon="6.57756">
        <ele>1240</ele>
        <time>2022-07-16T18:15:41.002Z</time>
      </trkpt>
      <trkpt lat="45.75156" lon="6.57773">
        <ele>1241</ele>
        <time>2022-07-16T18:15:45.180Z</time>
      </trkpt>
      <trkpt lat="45.75181" lon="6.57786">
        <ele>1247</ele>
        <time>2022-07-16T18:15:58.822Z</time>
      </trkpt>
      <trkpt lat="45.75188" lon="6.57783">
        <ele>1249</ele>
        <time>2022-07-16T18:16:02.569Z</time>
      </trkpt>
      <trkpt lat="45.75191" lon="6.57778">
        <ele>1251</ele>
        <time>2022-07-16T18:16:04.929Z</time>
      </trkpt>
      <trkpt lat="45.7519" lon="6.57772">
        <ele>1252</ele>
        <time>2022-07-16T18:16:07.137Z</time>
      </trkpt>
      <trkpt lat="45.75185" lon="6.57766">
        <ele>1252</ele>
        <time>2022-07-16T18:16:08.005Z</time>
      </trkpt>
      <trkpt lat="45.75171" lon="6.57762">
        <ele>1247</ele>
        <time>2022-07-16T18:16:09.082Z</time>
      </trkpt>
      <trkpt lat="45.75165" lon="6.57754">
        <ele>1247</ele>
        <time>2022-07-16T18:16:10.172Z</time>
      </trkpt>
      <trkpt lat="45.7516" lon="6.57734">
        <ele>1249</ele>
        <time>2022-07-16T18:16:17.776Z</time>
      </trkpt>
      <trkpt lat="45.75159" lon="6.57695">
        <ele>1257</ele>
        <time>2022-07-16T18:16:31.744Z</time>
      </trkpt>
      <trkpt lat="45.75154" lon="6.5768">
        <ele>1259</ele>
        <time>2022-07-16T18:16:37.694Z</time>
      </trkpt>
      <trkpt lat="45.75143" lon="6.5766">
        <ele>1260</ele>
        <time>2022-07-16T18:16:42.003Z</time>
      </trkpt>
      <trkpt lat="45.75116" lon="6.57622">
        <ele>1264</ele>
        <time>2022-07-16T18:16:55.860Z</time>
      </trkpt>
      <trkpt lat="45.751" lon="6.57607">
        <ele>1265</ele>
        <time>2022-07-16T18:17:00.375Z</time>
      </trkpt>
      <trkpt lat="45.75076" lon="6.57599">
        <ele>1262</ele>
        <time>2022-07-16T18:17:02.234Z</time>
      </trkpt>
      <trkpt lat="45.75065" lon="6.57592">
        <ele>1262</ele>
        <time>2022-07-16T18:17:03.835Z</time>
      </trkpt>
      <trkpt lat="45.75052" lon="6.57579">
        <ele>1263</ele>
        <time>2022-07-16T18:17:07.867Z</time>
      </trkpt>
      <trkpt lat="45.75036" lon="6.57559">
        <ele>1266</ele>
        <time>2022-07-16T18:17:18.757Z</time>
      </trkpt>
      <trkpt lat="45.7501" lon="6.57511">
        <ele>1276</ele>
        <time>2022-07-16T18:17:40.507Z</time>
      </trkpt>
      <trkpt lat="45.74968" lon="6.57483">
        <ele>1278</ele>
        <time>2022-07-16T18:17:50.697Z</time>
      </trkpt>
      <trkpt lat="45.74927" lon="6.57429">
        <ele>1294</ele>
        <time>2022-07-16T18:18:19.261Z</time>
      </trkpt>
      <trkpt lat="45.74884" lon="6.57385">
        <ele>1300</ele>
        <time>2022-07-16T18:18:40.315Z</time>
      </trkpt>
      <trkpt lat="45.74836" lon="6.57331">
        <ele>1301</ele>
        <time>2022-07-16T18:18:49.863Z</time>
      </trkpt>
      <trkpt lat="45.74796" lon="6.57282">
        <ele>1307</ele>
        <time>2022-07-16T18:19:10.942Z</time>
      </trkpt>
      <trkpt lat="45.7478" lon="6.57257">
        <ele>1310</ele>
        <time>2022-07-16T18:19:22.012Z</time>
      </trkpt>
      <trkpt lat="45.74761" lon="6.57215">
        <ele>1319</ele>
        <time>2022-07-16T18:19:39.928Z</time>
      </trkpt>
      <trkpt lat="45.74748" lon="6.57195">
        <ele>1323</ele>
        <time>2022-07-16T18:19:49.712Z</time>
      </trkpt>
      <trkpt lat="45.74707" lon="6.57168">
        <ele>1324</ele>
        <time>2022-07-16T18:19:57.241Z</time>
      </trkpt>
      <trkpt lat="45.74586" lon="6.57074">
        <ele>1326</ele>
        <time>2022-07-16T18:20:18.355Z</time>
      </trkpt>
      <trkpt lat="45.74527" lon="6.57036">
        <ele>1323</ele>
        <time>2022-07-16T18:20:23.640Z</time>
      </trkpt>
      <trkpt lat="45.74507" lon="6.57016">
        <ele>1324</ele>
        <time>2022-07-16T18:20:28.835Z</time>
      </trkpt>
      <trkpt lat="45.7449" lon="6.56992">
        <ele>1326</ele>
        <time>2022-07-16T18:20:35.963Z</time>
      </trkpt>
      <trkpt lat="45.74466" lon="6.56951">
        <ele>1327</ele>
        <time>2022-07-16T18:20:42.543Z</time>
      </trkpt>
      <trkpt lat="45.74459" lon="6.56934">
        <ele>1328</ele>
        <time>2022-07-16T18:20:46.303Z</time>
      </trkpt>
      <trkpt lat="45.74455" lon="6.56908">
        <ele>1331</ele>
        <time>2022-07-16T18:20:55.834Z</time>
      </trkpt>
      <trkpt lat="45.74465" lon="6.56842">
        <ele>1342</ele>
        <time>2022-07-16T18:21:20.010Z</time>
      </trkpt>
      <trkpt lat="45.74462" lon="6.56804">
        <ele>1345</ele>
        <time>2022-07-16T18:21:30.509Z</time>
      </trkpt>
      <trkpt lat="45.74456" lon="6.56787">
        <ele>1346</ele>
        <time>2022-07-16T18:21:34.212Z</time>
      </trkpt>
      <trkpt lat="45.74425" lon="6.5673">
        <ele>1348</ele>
        <time>2022-07-16T18:21:44.745Z</time>
      </trkpt>
      <trkpt lat="45.74379" lon="6.56667">
        <ele>1348</ele>
        <time>2022-07-16T18:21:53.207Z</time>
      </trkpt>
      <trkpt lat="45.74335" lon="6.56564">
        <ele>1356</ele>
        <time>2022-07-16T18:22:20.980Z</time>
      </trkpt>
      <trkpt lat="45.74274" lon="6.56439">
        <ele>1366</ele>
        <time>2022-07-16T18:22:55.741Z</time>
      </trkpt>
      <trkpt lat="45.74267" lon="6.56416">
        <ele>1368</ele>
        <time>2022-07-16T18:23:02.770Z</time>
      </trkpt>
      <trkpt lat="45.74267" lon="6.56387">
        <ele>1369</ele>
        <time>2022-07-16T18:23:07.458Z</time>
      </trkpt>
      <trkpt lat="45.74274" lon="6.5637">
        <ele>1370</ele>
        <time>2022-07-16T18:23:11.218Z</time>
      </trkpt>
      <trkpt lat="45.74284" lon="6.56359">
        <ele>1371</ele>
        <time>2022-07-16T18:23:14.847Z</time>
      </trkpt>
      <trkpt lat="45.74318" lon="6.56334">
        <ele>1374</ele>
        <time>2022-07-16T18:23:25.774Z</time>
      </trkpt>
      <trkpt lat="45.74334" lon="6.56314">
        <ele>1378</ele>
        <time>2022-07-16T18:23:36.665Z</time>
      </trkpt>
      <trkpt lat="45.74339" lon="6.56289">
        <ele>1382</ele>
        <time>2022-07-16T18:23:45.975Z</time>
      </trkpt>
      <trkpt lat="45.74337" lon="6.56266">
        <ele>1384</ele>
        <time>2022-07-16T18:23:53.243Z</time>
      </trkpt>
      <trkpt lat="45.74306" lon="6.56154">
        <ele>1386</ele>
        <time>2022-07-16T18:24:07.540Z</time>
      </trkpt>
      <trkpt lat="45.74301" lon="6.56108">
        <ele>1390</ele>
        <time>2022-07-16T18:24:22.043Z</time>
      </trkpt>
      <trkpt lat="45.74294" lon="6.56076">
        <ele>1392</ele>
        <time>2022-07-16T18:24:29.132Z</time>
      </trkpt>
      <trkpt lat="45.74275" lon="6.5604">
        <ele>1394</ele>
        <time>2022-07-16T18:24:37.167Z</time>
      </trkpt>
      <trkpt lat="45.74246" lon="6.56004">
        <ele>1393</ele>
        <time>2022-07-16T18:24:41.000Z</time>
      </trkpt>
      <trkpt lat="45.74216" lon="6.55949">
        <ele>1398</ele>
        <time>2022-07-16T18:24:58.292Z</time>
      </trkpt>
      <trkpt lat="45.74213" lon="6.55937">
        <ele>1399</ele>
        <time>2022-07-16T18:25:01.791Z</time>
      </trkpt>
      <trkpt lat="45.74212" lon="6.55898">
        <ele>1403</ele>
        <time>2022-07-16T18:25:15.762Z</time>
      </trkpt>
      <trkpt lat="45.74202" lon="6.55836">
        <ele>1408</ele>
        <time>2022-07-16T18:25:33.268Z</time>
      </trkpt>
      <trkpt lat="45.74176" lon="6.55775">
        <ele>1408</ele>
        <time>2022-07-16T18:25:39.901Z</time>
      </trkpt>
      <trkpt lat="45.74165" lon="6.55676">
        <ele>1417</ele>
        <time>2022-07-16T18:26:13.464Z</time>
      </trkpt>
      <trkpt lat="45.74157" lon="6.55652">
        <ele>1418</ele>
        <time>2022-07-16T18:26:17.892Z</time>
      </trkpt>
      <trkpt lat="45.74157" lon="6.55643">
        <ele>1419</ele>
        <time>2022-07-16T18:26:21.114Z</time>
      </trkpt>
      <trkpt lat="45.74161" lon="6.55636">
        <ele>1420</ele>
        <time>2022-07-16T18:26:24.353Z</time>
      </trkpt>
      <trkpt lat="45.74164" lon="6.55635">
        <ele>1420</ele>
        <time>2022-07-16T18:26:24.763Z</time>
      </trkpt>
      <trkpt lat="45.7417" lon="6.55636">
        <ele>1422</ele>
        <time>2022-07-16T18:26:27.861Z</time>
      </trkpt>
      <trkpt lat="45.74176" lon="6.55643">
        <ele>1423</ele>
        <time>2022-07-16T18:26:31.603Z</time>
      </trkpt>
      <trkpt lat="45.74194" lon="6.55702">
        <ele>1421</ele>
        <time>2022-07-16T18:26:35.338Z</time>
      </trkpt>
      <trkpt lat="45.74207" lon="6.55728">
        <ele>1421</ele>
        <time>2022-07-16T18:26:38.306Z</time>
      </trkpt>
      <trkpt lat="45.74223" lon="6.55749">
        <ele>1422</ele>
        <time>2022-07-16T18:26:43.225Z</time>
      </trkpt>
      <trkpt lat="45.74234" lon="6.55758">
        <ele>1423</ele>
        <time>2022-07-16T18:26:46.860Z</time>
      </trkpt>
      <trkpt lat="45.74254" lon="6.55769">
        <ele>1426</ele>
        <time>2022-07-16T18:26:57.849Z</time>
      </trkpt>
      <trkpt lat="45.74281" lon="6.55796">
        <ele>1429</ele>
        <time>2022-07-16T18:27:08.328Z</time>
      </trkpt>
      <trkpt lat="45.74293" lon="6.55803">
        <ele>1431</ele>
        <time>2022-07-16T18:27:14.974Z</time>
      </trkpt>
      <trkpt lat="45.7434" lon="6.55812">
        <ele>1440</ele>
        <time>2022-07-16T18:27:39.297Z</time>
      </trkpt>
      <trkpt lat="45.74365" lon="6.55823">
        <ele>1444</ele>
        <time>2022-07-16T18:27:52.712Z</time>
      </trkpt>
      <trkpt lat="45.74374" lon="6.55834">
        <ele>1445</ele>
        <time>2022-07-16T18:27:56.267Z</time>
      </trkpt>
      <trkpt lat="45.74381" lon="6.55849">
        <ele>1444</ele>
        <time>2022-07-16T18:27:57.218Z</time>
      </trkpt>
      <trkpt lat="45.74403" lon="6.55921">
        <ele>1439</ele>
        <time>2022-07-16T18:28:01.358Z</time>
      </trkpt>
      <trkpt lat="45.74413" lon="6.55935">
        <ele>1440</ele>
        <time>2022-07-16T18:28:05.142Z</time>
      </trkpt>
      <trkpt lat="45.74418" lon="6.55935">
        <ele>1441</ele>
        <time>2022-07-16T18:28:07.707Z</time>
      </trkpt>
      <trkpt lat="45.74422" lon="6.55929">
        <ele>1442</ele>
        <time>2022-07-16T18:28:10.677Z</time>
      </trkpt>
      <trkpt lat="45.7442" lon="6.55916">
        <ele>1444</ele>
        <time>2022-07-16T18:28:15.443Z</time>
      </trkpt>
      <trkpt lat="45.74405" lon="6.55894">
        <ele>1444</ele>
        <time>2022-07-16T18:28:18.297Z</time>
      </trkpt>
      <trkpt lat="45.74401" lon="6.55879">
        <ele>1445</ele>
        <time>2022-07-16T18:28:21.805Z</time>
      </trkpt>
      <trkpt lat="45.74402" lon="6.55829">
        <ele>1452</ele>
        <time>2022-07-16T18:28:39.711Z</time>
      </trkpt>
      <trkpt lat="45.744" lon="6.55805">
        <ele>1455</ele>
        <time>2022-07-16T18:28:48.363Z</time>
      </trkpt>
      <trkpt lat="45.74391" lon="6.55782">
        <ele>1457</ele>
        <time>2022-07-16T18:28:55.315Z</time>
      </trkpt>
      <trkpt lat="45.74374" lon="6.55753">
        <ele>1458</ele>
        <time>2022-07-16T18:29:00.694Z</time>
      </trkpt>
      <trkpt lat="45.74357" lon="6.557">
        <ele>1463</ele>
        <time>2022-07-16T18:29:18.800Z</time>
      </trkpt>
      <trkpt lat="45.74335" lon="6.55665">
        <ele>1464</ele>
        <time>2022-07-16T18:29:24.860Z</time>
      </trkpt>
      <trkpt lat="45.74323" lon="6.5564">
        <ele>1464</ele>
        <time>2022-07-16T18:29:27.676Z</time>
      </trkpt>
      <trkpt lat="45.74313" lon="6.55545">
        <ele>1471</ele>
        <time>2022-07-16T18:29:51.903Z</time>
      </trkpt>
      <trkpt lat="45.743" lon="6.55495">
        <ele>1471</ele>
        <time>2022-07-16T18:29:56.855Z</time>
      </trkpt>
      <trkpt lat="45.74297" lon="6.55474">
        <ele>1472</ele>
        <time>2022-07-16T18:30:00.765Z</time>
      </trkpt>
      <trkpt lat="45.74297" lon="6.5544">
        <ele>1473</ele>
        <time>2022-07-16T18:30:05.905Z</time>
      </trkpt>
      <trkpt lat="45.74315" lon="6.55344">
        <ele>1481</ele>
        <time>2022-07-16T18:30:34.106Z</time>
      </trkpt>
      <trkpt lat="45.74317" lon="6.55322">
        <ele>1483</ele>
        <time>2022-07-16T18:30:41.587Z</time>
      </trkpt>
      <trkpt lat="45.74315" lon="6.55292">
        <ele>1485</ele>
        <time>2022-07-16T18:30:48.529Z</time>
      </trkpt>
      <trkpt lat="45.74293" lon="6.55184">
        <ele>1488</ele>
        <time>2022-07-16T18:31:04.592Z</time>
      </trkpt>
      <trkpt lat="45.74294" lon="6.55166">
        <ele>1489</ele>
        <time>2022-07-16T18:31:08.221Z</time>
      </trkpt>
      <trkpt lat="45.74303" lon="6.5512">
        <ele>1492</ele>
        <time>2022-07-16T18:31:18.725Z</time>
      </trkpt>
      <trkpt lat="45.74315" lon="6.55086">
        <ele>1494</ele>
        <time>2022-07-16T18:31:26.132Z</time>
      </trkpt>
      <trkpt lat="45.74344" lon="6.55047">
        <ele>1500</ele>
        <time>2022-07-16T18:31:46.533Z</time>
      </trkpt>
      <trkpt lat="45.74426" lon="6.54946">
        <ele>1515</ele>
        <time>2022-07-16T18:32:41.998Z</time>
      </trkpt>
      <trkpt lat="45.74439" lon="6.54932">
        <ele>1515</ele>
        <time>2022-07-16T18:32:44.160Z</time>
      </trkpt>
      <trkpt lat="45.74451" lon="6.54925">
        <ele>1515</ele>
        <time>2022-07-16T18:32:45.883Z</time>
      </trkpt>
      <trkpt lat="45.74465" lon="6.54922">
        <ele>1516</ele>
        <time>2022-07-16T18:32:49.690Z</time>
      </trkpt>
      <trkpt lat="45.74484" lon="6.54926">
        <ele>1516</ele>
        <time>2022-07-16T18:32:52.244Z</time>
      </trkpt>
      <trkpt lat="45.74502" lon="6.54937">
        <ele>1517</ele>
        <time>2022-07-16T18:32:56.827Z</time>
      </trkpt>
      <trkpt lat="45.7452" lon="6.54954">
        <ele>1519</ele>
        <time>2022-07-16T18:33:03.792Z</time>
      </trkpt>
      <trkpt lat="45.74531" lon="6.54957">
        <ele>1520</ele>
        <time>2022-07-16T18:33:07.299Z</time>
      </trkpt>
      <trkpt lat="45.74556" lon="6.54949">
        <ele>1522</ele>
        <time>2022-07-16T18:33:14.599Z</time>
      </trkpt>
      <trkpt lat="45.74624" lon="6.54915">
        <ele>1525</ele>
        <time>2022-07-16T18:33:30.085Z</time>
      </trkpt>
      <trkpt lat="45.74699" lon="6.549">
        <ele>1532</ele>
        <time>2022-07-16T18:33:54.477Z</time>
      </trkpt>
      <trkpt lat="45.74717" lon="6.54886">
        <ele>1534</ele>
        <time>2022-07-16T18:34:01.401Z</time>
      </trkpt>
      <trkpt lat="45.74735" lon="6.54856">
        <ele>1537</ele>
        <time>2022-07-16T18:34:11.829Z</time>
      </trkpt>
      <trkpt lat="45.74742" lon="6.5483">
        <ele>1539</ele>
        <time>2022-07-16T18:34:18.746Z</time>
      </trkpt>
      <trkpt lat="45.74746" lon="6.54803">
        <ele>1539</ele>
        <time>2022-07-16T18:34:21.308Z</time>
      </trkpt>
      <trkpt lat="45.74754" lon="6.5478">
        <ele>1540</ele>
        <time>2022-07-16T18:34:25.641Z</time>
      </trkpt>
      <trkpt lat="45.74773" lon="6.5476">
        <ele>1542</ele>
        <time>2022-07-16T18:34:32.745Z</time>
      </trkpt>
      <trkpt lat="45.74785" lon="6.54753">
        <ele>1543</ele>
        <time>2022-07-16T18:34:36.410Z</time>
      </trkpt>
      <trkpt lat="45.74809" lon="6.54747">
        <ele>1546</ele>
        <time>2022-07-16T18:34:47.289Z</time>
      </trkpt>
      <trkpt lat="45.74822" lon="6.54751">
        <ele>1548</ele>
        <time>2022-07-16T18:34:54.109Z</time>
      </trkpt>
      <trkpt lat="45.7485" lon="6.54766">
        <ele>1551</ele>
        <time>2022-07-16T18:35:04.483Z</time>
      </trkpt>
      <trkpt lat="45.7487" lon="6.54771">
        <ele>1552</ele>
        <time>2022-07-16T18:35:09.181Z</time>
      </trkpt>
      <trkpt lat="45.74898" lon="6.54765">
        <ele>1554</ele>
        <time>2022-07-16T18:35:16.794Z</time>
      </trkpt>
      <trkpt lat="45.74912" lon="6.54766">
        <ele>1555</ele>
        <time>2022-07-16T18:35:20.584Z</time>
      </trkpt>
      <trkpt lat="45.7494" lon="6.54761">
        <ele>1558</ele>
        <time>2022-07-16T18:35:30.982Z</time>
      </trkpt>
      <trkpt lat="45.7501" lon="6.54743">
        <ele>1564</ele>
        <time>2022-07-16T18:35:52.326Z</time>
      </trkpt>
      <trkpt lat="45.75019" lon="6.54737">
        <ele>1564</ele>
        <time>2022-07-16T18:35:53.646Z</time>
      </trkpt>
      <trkpt lat="45.75064" lon="6.54727">
        <ele>1567</ele>
        <time>2022-07-16T18:36:05.465Z</time>
      </trkpt>
      <trkpt lat="45.75169" lon="6.54687">
        <ele>1574</ele>
        <time>2022-07-16T18:36:33.367Z</time>
      </trkpt>
      <trkpt lat="45.75257" lon="6.54646">
        <ele>1580</ele>
        <time>2022-07-16T18:36:57.202Z</time>
      </trkpt>
      <trkpt lat="45.75271" lon="6.54641">
        <ele>1581</ele>
        <time>2022-07-16T18:37:01.043Z</time>
      </trkpt>
      <trkpt lat="45.75297" lon="6.54639">
        <ele>1584</ele>
        <time>2022-07-16T18:37:11.615Z</time>
      </trkpt>
      <trkpt lat="45.75311" lon="6.54635">
        <ele>1585</ele>
        <time>2022-07-16T18:37:15.437Z</time>
      </trkpt>
      <trkpt lat="45.75369" lon="6.54599">
        <ele>1588</ele>
        <time>2022-07-16T18:37:29.894Z</time>
      </trkpt>
      <trkpt lat="45.75385" lon="6.54592">
        <ele>1589</ele>
        <time>2022-07-16T18:37:34.050Z</time>
      </trkpt>
      <trkpt lat="45.75398" lon="6.5459">
        <ele>1590</ele>
        <time>2022-07-16T18:37:37.729Z</time>
      </trkpt>
      <trkpt lat="45.75431" lon="6.54592">
        <ele>1595</ele>
        <time>2022-07-16T18:37:54.671Z</time>
      </trkpt>
      <trkpt lat="45.75437" lon="6.5459">
        <ele>1596</ele>
        <time>2022-07-16T18:37:57.831Z</time>
      </trkpt>
      <trkpt lat="45.75451" lon="6.54584">
        <ele>1598</ele>
        <time>2022-07-16T18:38:05.327Z</time>
      </trkpt>
      <trkpt lat="45.75464" lon="6.54575">
        <ele>1601</ele>
        <time>2022-07-16T18:38:12.732Z</time>
      </trkpt>
      <trkpt lat="45.75489" lon="6.5455">
        <ele>1604</ele>
        <time>2022-07-16T18:38:23.114Z</time>
      </trkpt>
      <trkpt lat="45.7551" lon="6.54521">
        <ele>1605</ele>
        <time>2022-07-16T18:38:28.768Z</time>
      </trkpt>
      <trkpt lat="45.75527" lon="6.54483">
        <ele>1606</ele>
        <time>2022-07-16T18:38:34.674Z</time>
      </trkpt>
      <trkpt lat="45.75552" lon="6.54405">
        <ele>1609</ele>
        <time>2022-07-16T18:38:48.609Z</time>
      </trkpt>
      <trkpt lat="45.75608" lon="6.54251">
        <ele>1618</ele>
        <time>2022-07-16T18:39:22.114Z</time>
      </trkpt>
      <trkpt lat="45.75617" lon="6.54217">
        <ele>1620</ele>
        <time>2022-07-16T18:39:29.388Z</time>
      </trkpt>
      <trkpt lat="45.75629" lon="6.54146">
        <ele>1623</ele>
        <time>2022-07-16T18:39:41.971Z</time>
      </trkpt>
      <trkpt lat="45.75636" lon="6.54121">
        <ele>1624</ele>
        <time>2022-07-16T18:39:46.435Z</time>
      </trkpt>
      <trkpt lat="45.75716" lon="6.53948">
        <ele>1636</ele>
        <time>2022-07-16T18:40:29.350Z</time>
      </trkpt>
      <trkpt lat="45.75723" lon="6.53943">
        <ele>1637</ele>
        <time>2022-07-16T18:40:33.063Z</time>
      </trkpt>
      <trkpt lat="45.75731" lon="6.53919">
        <ele>1637</ele>
        <time>2022-07-16T18:40:35.531Z</time>
      </trkpt>
      <trkpt lat="45.75741" lon="6.53904">
        <ele>1639</ele>
        <time>2022-07-16T18:40:42.955Z</time>
      </trkpt>
      <trkpt lat="45.7576" lon="6.53832">
        <ele>1643</ele>
        <time>2022-07-16T18:40:57.830Z</time>
      </trkpt>
      <trkpt lat="45.75781" lon="6.53773">
        <ele>1647</ele>
        <time>2022-07-16T18:41:11.960Z</time>
      </trkpt>
      <trkpt lat="45.75791" lon="6.53754">
        <ele>1649</ele>
        <time>2022-07-16T18:41:19.132Z</time>
      </trkpt>
      <trkpt lat="45.75804" lon="6.53696">
        <ele>1650</ele>
        <time>2022-07-16T18:41:26.337Z</time>
      </trkpt>
      <trkpt lat="45.75836" lon="6.53615">
        <ele>1653</ele>
        <time>2022-07-16T18:41:41.071Z</time>
      </trkpt>
      <trkpt lat="45.7586" lon="6.53576">
        <ele>1654</ele>
        <time>2022-07-16T18:41:47.526Z</time>
      </trkpt>
      <trkpt lat="45.75891" lon="6.53542">
        <ele>1656</ele>
        <time>2022-07-16T18:41:56.677Z</time>
      </trkpt>
      <trkpt lat="45.7591" lon="6.53501">
        <ele>1657</ele>
        <time>2022-07-16T18:42:02.905Z</time>
      </trkpt>
      <trkpt lat="45.75939" lon="6.53448">
        <ele>1658</ele>
        <time>2022-07-16T18:42:10.667Z</time>
      </trkpt>
      <trkpt lat="45.75957" lon="6.53431">
        <ele>1659</ele>
        <time>2022-07-16T18:42:15.564Z</time>
      </trkpt>
      <trkpt lat="45.75958" lon="6.53422">
        <ele>1659</ele>
        <time>2022-07-16T18:42:16.409Z</time>
      </trkpt>
      <trkpt lat="45.75943" lon="6.53411">
        <ele>1657</ele>
        <time>2022-07-16T18:42:17.681Z</time>
      </trkpt>
      <trkpt lat="45.75944" lon="6.53382">
        <ele>1657</ele>
        <time>2022-07-16T18:42:20.375Z</time>
      </trkpt>
      <trkpt lat="45.75955" lon="6.5336">
        <ele>1657</ele>
        <time>2022-07-16T18:42:22.886Z</time>
      </trkpt>
      <trkpt lat="45.75975" lon="6.5333">
        <ele>1657</ele>
        <time>2022-07-16T18:42:26.736Z</time>
      </trkpt>
    </trkseg>
  </trk>
</gpx>